<?xml version='1.0' encoding='UTF-8'?><gpx version="1.1" creator="JPX - https://github.com/jenetics/jpx" xmlns="http://www.topografix.com/GPX/1/1"><trk><trkseg><trkpt lat="42.1500242" lon="14.5851162"><ele>205.0</ele><time>2026-04-19T06:57:35.685Z</time></trkpt><trkpt lat="42.149922" lon="14.5849311"><ele>205.0</ele><time>2026-04-19T06:57:36.684Z</time></trkpt><trkpt lat="42.1503579" lon="14.5858734"><ele>205.0</ele><time>2026-04-19T06:57:41.486Z</time></trkpt><trkpt lat="42.1504712" lon="14.5858022"><ele>205.0</ele><time>2026-04-19T06:57:43.487Z</time></trkpt><trkpt lat="42.1504974" lon="14.5856786"><ele>205.0</ele><time>2026-04-19T06:57:45.486Z</time></trkpt><trkpt lat="42.1504828" lon="14.5855492"><ele>205.0</ele><time>2026-04-19T06:57:48.486Z</time></trkpt><trkpt lat="42.1502682" lon="14.5852758"><ele>204.99999999999997</ele><time>2026-04-19T06:57:49.487Z</time></trkpt><trkpt lat="42.150192" lon="14.5851558"><ele>205.0</ele><time>2026-04-19T06:57:50.874Z</time></trkpt><trkpt lat="42.1501279" lon="14.5851415"><ele>205.0</ele><time>2026-04-19T06:58:31.874Z</time></trkpt><trkpt lat="42.1501352" lon="14.5852406"><ele>205.0</ele><time>2026-04-19T06:59:13.875Z</time></trkpt><trkpt lat="42.150247" lon="14.585279"><ele>204.99999999999997</ele><time>2026-04-19T06:59:21.875Z</time></trkpt><trkpt lat="42.1503155" lon="14.5852337"><ele>205.0</ele><time>2026-04-19T06:59:26.875Z</time></trkpt><trkpt lat="42.15037" lon="14.5851809"><ele>205.0</ele><time>2026-04-19T06:59:29.875Z</time></trkpt><trkpt lat="42.1504278" lon="14.5851256"><ele>205.0</ele><time>2026-04-19T06:59:32.874Z</time></trkpt><trkpt lat="42.1504942" lon="14.5850878"><ele>205.0</ele><time>2026-04-19T06:59:35.875Z</time></trkpt><trkpt lat="42.1505614" lon="14.585083"><ele>205.0</ele><time>2026-04-19T06:59:39.875Z</time></trkpt><trkpt lat="42.1506156" lon="14.585022"><ele>205.0</ele><time>2026-04-19T06:59:42.875Z</time></trkpt><trkpt lat="42.1506902" lon="14.5850152"><ele>205.0</ele><time>2026-04-19T06:59:45.874Z</time></trkpt><trkpt lat="42.1507537" lon="14.5850209"><ele>205.0</ele><time>2026-04-19T06:59:47.875Z</time></trkpt><trkpt lat="42.1508209" lon="14.5850129"><ele>205.16666666666666</ele><time>2026-04-19T06:59:49.875Z</time></trkpt><trkpt lat="42.1508856" lon="14.5850029"><ele>205.33333333333331</ele><time>2026-04-19T06:59:51.874Z</time></trkpt><trkpt lat="42.1509655" lon="14.5849776"><ele>205.5</ele><time>2026-04-19T06:59:54.875Z</time></trkpt><trkpt lat="42.1510335" lon="14.5849566"><ele>205.66666666666669</ele><time>2026-04-19T06:59:56.874Z</time></trkpt><trkpt lat="42.1511225" lon="14.5849419"><ele>205.83333333333334</ele><time>2026-04-19T06:59:58.875Z</time></trkpt><trkpt lat="42.1512209" lon="14.5849341"><ele>206.0</ele><time>2026-04-19T07:00:00.874Z</time></trkpt><trkpt lat="42.1513167" lon="14.5849279"><ele>206.0</ele><time>2026-04-19T07:00:02.875Z</time></trkpt><trkpt lat="42.1514165" lon="14.5848984"><ele>206.0</ele><time>2026-04-19T07:00:04.875Z</time></trkpt><trkpt lat="42.1515313" lon="14.5848722"><ele>206.0</ele><time>2026-04-19T07:00:06.875Z</time></trkpt><trkpt lat="42.1516258" lon="14.5847738"><ele>206.0</ele><time>2026-04-19T07:00:08.875Z</time></trkpt><trkpt lat="42.1516792" lon="14.5846455"><ele>206.0</ele><time>2026-04-19T07:00:10.875Z</time></trkpt><trkpt lat="42.1517289" lon="14.5844841"><ele>204.66666666666669</ele><time>2026-04-19T07:00:12.875Z</time></trkpt><trkpt lat="42.1517534" lon="14.584392"><ele>203.33333333333334</ele><time>2026-04-19T07:00:13.875Z</time></trkpt><trkpt lat="42.151794" lon="14.5842855"><ele>202.0</ele><time>2026-04-19T07:00:14.874Z</time></trkpt><trkpt lat="42.1518273" lon="14.5841874"><ele>200.66666666666669</ele><time>2026-04-19T07:00:15.875Z</time></trkpt><trkpt lat="42.1518477" lon="14.5840827"><ele>199.33333333333334</ele><time>2026-04-19T07:00:16.875Z</time></trkpt><trkpt lat="42.1518691" lon="14.5839677"><ele>198.0</ele><time>2026-04-19T07:00:17.874Z</time></trkpt><trkpt lat="42.1518861" lon="14.5838607"><ele>198.0</ele><time>2026-04-19T07:00:18.875Z</time></trkpt><trkpt lat="42.1519014" lon="14.5837484"><ele>198.0</ele><time>2026-04-19T07:00:19.875Z</time></trkpt><trkpt lat="42.1519121" lon="14.5836494"><ele>198.0</ele><time>2026-04-19T07:00:20.875Z</time></trkpt><trkpt lat="42.1519136" lon="14.5835633"><ele>198.0</ele><time>2026-04-19T07:00:21.875Z</time></trkpt><trkpt lat="42.1519069" lon="14.5834283"><ele>198.0</ele><time>2026-04-19T07:00:23.875Z</time></trkpt><trkpt lat="42.1519246" lon="14.5832896"><ele>198.0</ele><time>2026-04-19T07:00:25.874Z</time></trkpt><trkpt lat="42.1519704" lon="14.5831296"><ele>196.8</ele><time>2026-04-19T07:00:27.875Z</time></trkpt><trkpt lat="42.1520201" lon="14.5830015"><ele>195.60000000000002</ele><time>2026-04-19T07:00:29.875Z</time></trkpt><trkpt lat="42.1520983" lon="14.582977"><ele>194.39999999999998</ele><time>2026-04-19T07:00:31.874Z</time></trkpt><trkpt lat="42.1521711" lon="14.5830783"><ele>193.2</ele><time>2026-04-19T07:00:33.875Z</time></trkpt><trkpt lat="42.1522464" lon="14.5832119"><ele>192.0</ele><time>2026-04-19T07:00:35.874Z</time></trkpt><trkpt lat="42.1522857" lon="14.5832841"><ele>192.0</ele><time>2026-04-19T07:00:36.875Z</time></trkpt><trkpt lat="42.1523297" lon="14.5833561"><ele>192.0</ele><time>2026-04-19T07:00:37.875Z</time></trkpt><trkpt lat="42.1523737" lon="14.5834274"><ele>192.0</ele><time>2026-04-19T07:00:38.875Z</time></trkpt><trkpt lat="42.1524239" lon="14.5834994"><ele>192.0</ele><time>2026-04-19T07:00:39.875Z</time></trkpt><trkpt lat="42.152482" lon="14.5835738"><ele>192.0</ele><time>2026-04-19T07:00:40.875Z</time></trkpt><trkpt lat="42.1525397" lon="14.5836467"><ele>192.0</ele><time>2026-04-19T07:00:41.875Z</time></trkpt><trkpt lat="42.1525973" lon="14.5837226"><ele>190.66666666666666</ele><time>2026-04-19T07:00:42.875Z</time></trkpt><trkpt lat="42.1526572" lon="14.5838007"><ele>189.33333333333334</ele><time>2026-04-19T07:00:43.875Z</time></trkpt><trkpt lat="42.1527212" lon="14.5838766"><ele>188.0</ele><time>2026-04-19T07:00:44.875Z</time></trkpt><trkpt lat="42.1527824" lon="14.5839544"><ele>186.66666666666669</ele><time>2026-04-19T07:00:45.874Z</time></trkpt><trkpt lat="42.1528439" lon="14.5840344"><ele>185.33333333333334</ele><time>2026-04-19T07:00:46.875Z</time></trkpt><trkpt lat="42.1529059" lon="14.5841147"><ele>184.0</ele><time>2026-04-19T07:00:47.875Z</time></trkpt><trkpt lat="42.152969" lon="14.5841948"><ele>184.0</ele><time>2026-04-19T07:00:48.875Z</time></trkpt><trkpt lat="42.153031" lon="14.5842762"><ele>184.0</ele><time>2026-04-19T07:00:49.875Z</time></trkpt><trkpt lat="42.1530933" lon="14.5843598"><ele>184.0</ele><time>2026-04-19T07:00:50.875Z</time></trkpt><trkpt lat="42.1531492" lon="14.584459"><ele>184.0</ele><time>2026-04-19T07:00:51.875Z</time></trkpt><trkpt lat="42.1532006" lon="14.5845589"><ele>184.0</ele><time>2026-04-19T07:00:52.875Z</time></trkpt><trkpt lat="42.1532417" lon="14.5846623"><ele>184.0</ele><time>2026-04-19T07:00:53.875Z</time></trkpt><trkpt lat="42.1532641" lon="14.5847638"><ele>182.83333333333334</ele><time>2026-04-19T07:00:54.875Z</time></trkpt><trkpt lat="42.1532815" lon="14.5848582"><ele>181.66666666666669</ele><time>2026-04-19T07:00:55.875Z</time></trkpt><trkpt lat="42.1532946" lon="14.5849475"><ele>180.5</ele><time>2026-04-19T07:00:56.875Z</time></trkpt><trkpt lat="42.1533171" lon="14.5850975"><ele>179.33333333333334</ele><time>2026-04-19T07:00:58.875Z</time></trkpt><trkpt lat="42.1533381" lon="14.5852166"><ele>178.16666666666666</ele><time>2026-04-19T07:01:00.875Z</time></trkpt><trkpt lat="42.1534003" lon="14.5852851"><ele>177.0</ele><time>2026-04-19T07:01:02.875Z</time></trkpt><trkpt lat="42.1534912" lon="14.5852663"><ele>177.0</ele><time>2026-04-19T07:01:04.874Z</time></trkpt><trkpt lat="42.1536058" lon="14.5852392"><ele>177.0</ele><time>2026-04-19T07:01:06.875Z</time></trkpt><trkpt lat="42.1536807" lon="14.5852253"><ele>177.0</ele><time>2026-04-19T07:01:07.875Z</time></trkpt><trkpt lat="42.1537544" lon="14.5852154"><ele>177.0</ele><time>2026-04-19T07:01:08.875Z</time></trkpt><trkpt lat="42.1538264" lon="14.585211"><ele>177.0</ele><time>2026-04-19T07:01:09.875Z</time></trkpt><trkpt lat="42.1539002" lon="14.5852194"><ele>177.0</ele><time>2026-04-19T07:01:10.874Z</time></trkpt><trkpt lat="42.1539769" lon="14.585222"><ele>176.16666666666666</ele><time>2026-04-19T07:01:11.875Z</time></trkpt><trkpt lat="42.1540592" lon="14.5852199"><ele>175.33333333333334</ele><time>2026-04-19T07:01:12.874Z</time></trkpt><trkpt lat="42.1541392" lon="14.585222"><ele>174.5</ele><time>2026-04-19T07:01:13.874Z</time></trkpt><trkpt lat="42.1542207" lon="14.5852288"><ele>173.66666666666669</ele><time>2026-04-19T07:01:14.875Z</time></trkpt><trkpt lat="42.1543037" lon="14.5852477"><ele>172.83333333333334</ele><time>2026-04-19T07:01:15.874Z</time></trkpt><trkpt lat="42.1543854" lon="14.5852778"><ele>172.0</ele><time>2026-04-19T07:01:16.874Z</time></trkpt><trkpt lat="42.1544567" lon="14.5853306"><ele>171.66666666666669</ele><time>2026-04-19T07:01:17.875Z</time></trkpt><trkpt lat="42.1545159" lon="14.5854003"><ele>171.33333333333334</ele><time>2026-04-19T07:01:18.875Z</time></trkpt><trkpt lat="42.1545648" lon="14.5854792"><ele>171.0</ele><time>2026-04-19T07:01:19.875Z</time></trkpt><trkpt lat="42.1546141" lon="14.5855649"><ele>170.66666666666666</ele><time>2026-04-19T07:01:20.875Z</time></trkpt><trkpt lat="42.1546656" lon="14.5856494"><ele>170.33333333333331</ele><time>2026-04-19T07:01:21.874Z</time></trkpt><trkpt lat="42.1547184" lon="14.5857266"><ele>170.0</ele><time>2026-04-19T07:01:22.875Z</time></trkpt><trkpt lat="42.1547767" lon="14.5857912"><ele>170.0</ele><time>2026-04-19T07:01:23.874Z</time></trkpt><trkpt lat="42.1548341" lon="14.585844"><ele>170.0</ele><time>2026-04-19T07:01:24.875Z</time></trkpt><trkpt lat="42.1548914" lon="14.5858808"><ele>170.0</ele><time>2026-04-19T07:01:25.875Z</time></trkpt><trkpt lat="42.154999" lon="14.585943"><ele>170.0</ele><time>2026-04-19T07:01:27.875Z</time></trkpt><trkpt lat="42.1551016" lon="14.5859781"><ele>170.0</ele><time>2026-04-19T07:01:29.874Z</time></trkpt><trkpt lat="42.1552021" lon="14.5860115"><ele>170.0</ele><time>2026-04-19T07:01:31.874Z</time></trkpt><trkpt lat="42.1552861" lon="14.5860486"><ele>170.0</ele><time>2026-04-19T07:01:33.874Z</time></trkpt><trkpt lat="42.1553623" lon="14.5860731"><ele>170.0</ele><time>2026-04-19T07:01:35.875Z</time></trkpt><trkpt lat="42.1554347" lon="14.5861037"><ele>170.0</ele><time>2026-04-19T07:01:37.875Z</time></trkpt><trkpt lat="42.1554982" lon="14.5861319"><ele>170.0</ele><time>2026-04-19T07:01:39.874Z</time></trkpt><trkpt lat="42.155561" lon="14.5861587"><ele>170.0</ele><time>2026-04-19T07:01:41.875Z</time></trkpt><trkpt lat="42.1556288" lon="14.5861762"><ele>170.0</ele><time>2026-04-19T07:01:43.875Z</time></trkpt><trkpt lat="42.15572" lon="14.5862027"><ele>169.33333333333331</ele><time>2026-04-19T07:01:46.875Z</time></trkpt><trkpt lat="42.1558087" lon="14.5862353"><ele>168.66666666666666</ele><time>2026-04-19T07:01:49.874Z</time></trkpt><trkpt lat="42.1559004" lon="14.5862685"><ele>168.0</ele><time>2026-04-19T07:01:52.875Z</time></trkpt><trkpt lat="42.1559768" lon="14.5862906"><ele>167.33333333333334</ele><time>2026-04-19T07:01:54.874Z</time></trkpt><trkpt lat="42.1560533" lon="14.58632"><ele>166.66666666666669</ele><time>2026-04-19T07:01:56.874Z</time></trkpt><trkpt lat="42.1561283" lon="14.586335"><ele>166.0</ele><time>2026-04-19T07:01:58.874Z</time></trkpt><trkpt lat="42.1562083" lon="14.5863633"><ele>166.0</ele><time>2026-04-19T07:02:00.875Z</time></trkpt><trkpt lat="42.156295" lon="14.5863983"><ele>166.0</ele><time>2026-04-19T07:02:02.875Z</time></trkpt><trkpt lat="42.1563867" lon="14.5864233"><ele>166.0</ele><time>2026-04-19T07:02:04.875Z</time></trkpt><trkpt lat="42.156485" lon="14.586445"><ele>166.0</ele><time>2026-04-19T07:02:06.875Z</time></trkpt><trkpt lat="42.15658" lon="14.586475"><ele>166.0</ele><time>2026-04-19T07:02:08.875Z</time></trkpt><trkpt lat="42.1566683" lon="14.5865083"><ele>166.60000000000002</ele><time>2026-04-19T07:02:10.875Z</time></trkpt><trkpt lat="42.1567567" lon="14.58655"><ele>167.2</ele><time>2026-04-19T07:02:12.875Z</time></trkpt><trkpt lat="42.15685" lon="14.58657"><ele>167.8</ele><time>2026-04-19T07:02:14.875Z</time></trkpt><trkpt lat="42.1569433" lon="14.58658"><ele>168.39999999999998</ele><time>2026-04-19T07:02:16.875Z</time></trkpt><trkpt lat="42.1570333" lon="14.586575"><ele>169.0</ele><time>2026-04-19T07:02:18.874Z</time></trkpt><trkpt lat="42.1571333" lon="14.5865583"><ele>169.0</ele><time>2026-04-19T07:02:20.875Z</time></trkpt><trkpt lat="42.1572383" lon="14.5865317"><ele>169.0</ele><time>2026-04-19T07:02:22.875Z</time></trkpt><trkpt lat="42.1573367" lon="14.5864983"><ele>169.0</ele><time>2026-04-19T07:02:24.875Z</time></trkpt><trkpt lat="42.1574317" lon="14.5864633"><ele>169.0</ele><time>2026-04-19T07:02:26.874Z</time></trkpt><trkpt lat="42.1575333" lon="14.5864283"><ele>169.0</ele><time>2026-04-19T07:02:28.875Z</time></trkpt><trkpt lat="42.1576283" lon="14.5863967"><ele>168.2</ele><time>2026-04-19T07:02:30.874Z</time></trkpt><trkpt lat="42.1577233" lon="14.58637"><ele>167.39999999999998</ele><time>2026-04-19T07:02:32.875Z</time></trkpt><trkpt lat="42.1578317" lon="14.5863367"><ele>166.6</ele><time>2026-04-19T07:02:34.875Z</time></trkpt><trkpt lat="42.1579317" lon="14.5863117"><ele>165.8</ele><time>2026-04-19T07:02:36.875Z</time></trkpt><trkpt lat="42.1580383" lon="14.5862783"><ele>165.0</ele><time>2026-04-19T07:02:38.875Z</time></trkpt><trkpt lat="42.158145" lon="14.586255"><ele>164.8</ele><time>2026-04-19T07:02:40.874Z</time></trkpt><trkpt lat="42.158255" lon="14.5862267"><ele>164.6</ele><time>2026-04-19T07:02:42.874Z</time></trkpt><trkpt lat="42.1583633" lon="14.5862033"><ele>164.39999999999998</ele><time>2026-04-19T07:02:44.874Z</time></trkpt><trkpt lat="42.15847" lon="14.586175"><ele>164.2</ele><time>2026-04-19T07:02:46.875Z</time></trkpt><trkpt lat="42.158575" lon="14.5861417"><ele>164.0</ele><time>2026-04-19T07:02:48.875Z</time></trkpt><trkpt lat="42.1586817" lon="14.58611"><ele>164.0</ele><time>2026-04-19T07:02:50.875Z</time></trkpt><trkpt lat="42.1587917" lon="14.58608"><ele>164.0</ele><time>2026-04-19T07:02:52.875Z</time></trkpt><trkpt lat="42.1588983" lon="14.5860417"><ele>164.0</ele><time>2026-04-19T07:02:54.875Z</time></trkpt><trkpt lat="42.159" lon="14.5859983"><ele>164.0</ele><time>2026-04-19T07:02:56.875Z</time></trkpt><trkpt lat="42.1591" lon="14.5859467"><ele>164.0</ele><time>2026-04-19T07:02:58.874Z</time></trkpt><trkpt lat="42.1592033" lon="14.585885"><ele>163.39999999999998</ele><time>2026-04-19T07:03:00.875Z</time></trkpt><trkpt lat="42.1592983" lon="14.5858283"><ele>162.8</ele><time>2026-04-19T07:03:02.874Z</time></trkpt><trkpt lat="42.1593917" lon="14.5857633"><ele>162.2</ele><time>2026-04-19T07:03:04.875Z</time></trkpt><trkpt lat="42.15948" lon="14.5856933"><ele>161.60000000000002</ele><time>2026-04-19T07:03:06.875Z</time></trkpt><trkpt lat="42.15956" lon="14.5856317"><ele>161.0</ele><time>2026-04-19T07:03:08.874Z</time></trkpt><trkpt lat="42.1596483" lon="14.5855667"><ele>161.0</ele><time>2026-04-19T07:03:10.874Z</time></trkpt><trkpt lat="42.15973" lon="14.5855017"><ele>161.0</ele><time>2026-04-19T07:03:12.874Z</time></trkpt><trkpt lat="42.1598167" lon="14.5854317"><ele>161.0</ele><time>2026-04-19T07:03:14.875Z</time></trkpt><trkpt lat="42.1599067" lon="14.5853667"><ele>161.0</ele><time>2026-04-19T07:03:16.874Z</time></trkpt><trkpt lat="42.15999" lon="14.5853033"><ele>161.0</ele><time>2026-04-19T07:03:18.874Z</time></trkpt><trkpt lat="42.1600733" lon="14.5852433"><ele>160.83333333333331</ele><time>2026-04-19T07:03:20.875Z</time></trkpt><trkpt lat="42.160155" lon="14.5851867"><ele>160.66666666666666</ele><time>2026-04-19T07:03:22.875Z</time></trkpt><trkpt lat="42.1602333" lon="14.58513"><ele>160.5</ele><time>2026-04-19T07:03:24.875Z</time></trkpt><trkpt lat="42.1603067" lon="14.5850717"><ele>160.33333333333334</ele><time>2026-04-19T07:03:26.874Z</time></trkpt><trkpt lat="42.160385" lon="14.585005"><ele>160.16666666666669</ele><time>2026-04-19T07:03:28.875Z</time></trkpt><trkpt lat="42.1604617" lon="14.584955"><ele>160.0</ele><time>2026-04-19T07:03:30.874Z</time></trkpt><trkpt lat="42.1605283" lon="14.58491"><ele>160.0</ele><time>2026-04-19T07:03:32.875Z</time></trkpt><trkpt lat="42.1606" lon="14.5848617"><ele>160.0</ele><time>2026-04-19T07:03:34.875Z</time></trkpt><trkpt lat="42.160675" lon="14.5848067"><ele>160.0</ele><time>2026-04-19T07:03:36.875Z</time></trkpt><trkpt lat="42.1607467" lon="14.584755"><ele>160.0</ele><time>2026-04-19T07:03:38.874Z</time></trkpt><trkpt lat="42.1608217" lon="14.584705"><ele>160.0</ele><time>2026-04-19T07:03:40.874Z</time></trkpt><trkpt lat="42.1608983" lon="14.58465"><ele>160.0</ele><time>2026-04-19T07:03:42.875Z</time></trkpt><trkpt lat="42.1609783" lon="14.58459"><ele>160.0</ele><time>2026-04-19T07:03:44.875Z</time></trkpt><trkpt lat="42.1610533" lon="14.5845367"><ele>160.0</ele><time>2026-04-19T07:03:46.875Z</time></trkpt><trkpt lat="42.1611317" lon="14.58448"><ele>160.0</ele><time>2026-04-19T07:03:48.875Z</time></trkpt><trkpt lat="42.1612083" lon="14.5844233"><ele>160.0</ele><time>2026-04-19T07:03:50.874Z</time></trkpt><trkpt lat="42.161285" lon="14.58436"><ele>160.0</ele><time>2026-04-19T07:03:52.875Z</time></trkpt><trkpt lat="42.1613583" lon="14.5842933"><ele>160.0</ele><time>2026-04-19T07:03:54.875Z</time></trkpt><trkpt lat="42.1614267" lon="14.5842233"><ele>160.0</ele><time>2026-04-19T07:03:56.875Z</time></trkpt><trkpt lat="42.1614967" lon="14.584145"><ele>160.0</ele><time>2026-04-19T07:03:58.875Z</time></trkpt><trkpt lat="42.1615633" lon="14.5840667"><ele>160.0</ele><time>2026-04-19T07:04:00.875Z</time></trkpt><trkpt lat="42.161635" lon="14.58398"><ele>160.0</ele><time>2026-04-19T07:04:02.875Z</time></trkpt><trkpt lat="42.1617017" lon="14.5838917"><ele>160.0</ele><time>2026-04-19T07:04:04.875Z</time></trkpt><trkpt lat="42.1617717" lon="14.5837983"><ele>160.0</ele><time>2026-04-19T07:04:06.875Z</time></trkpt><trkpt lat="42.1618433" lon="14.583705"><ele>160.0</ele><time>2026-04-19T07:04:08.874Z</time></trkpt><trkpt lat="42.1619183" lon="14.5836233"><ele>160.0</ele><time>2026-04-19T07:04:10.875Z</time></trkpt><trkpt lat="42.162" lon="14.5835567"><ele>160.0</ele><time>2026-04-19T07:04:12.875Z</time></trkpt><trkpt lat="42.1620933" lon="14.5834867"><ele>160.0</ele><time>2026-04-19T07:04:14.875Z</time></trkpt><trkpt lat="42.16219" lon="14.5834467"><ele>159.83333333333334</ele><time>2026-04-19T07:04:16.875Z</time></trkpt><trkpt lat="42.1622817" lon="14.5834433"><ele>159.66666666666669</ele><time>2026-04-19T07:04:18.875Z</time></trkpt><trkpt lat="42.1623683" lon="14.58346"><ele>159.5</ele><time>2026-04-19T07:04:20.875Z</time></trkpt><trkpt lat="42.1624567" lon="14.5834967"><ele>159.33333333333334</ele><time>2026-04-19T07:04:22.875Z</time></trkpt><trkpt lat="42.1625467" lon="14.5835283"><ele>159.16666666666666</ele><time>2026-04-19T07:04:24.874Z</time></trkpt><trkpt lat="42.162625" lon="14.5835633"><ele>159.0</ele><time>2026-04-19T07:04:26.874Z</time></trkpt><trkpt lat="42.1627067" lon="14.5835967"><ele>158.83333333333334</ele><time>2026-04-19T07:04:28.875Z</time></trkpt><trkpt lat="42.1627867" lon="14.5836267"><ele>158.66666666666666</ele><time>2026-04-19T07:04:30.875Z</time></trkpt><trkpt lat="42.1628683" lon="14.58365"><ele>158.5</ele><time>2026-04-19T07:04:32.875Z</time></trkpt><trkpt lat="42.1629533" lon="14.5836717"><ele>158.33333333333331</ele><time>2026-04-19T07:04:34.875Z</time></trkpt><trkpt lat="42.16304" lon="14.5837017"><ele>158.16666666666666</ele><time>2026-04-19T07:04:36.874Z</time></trkpt><trkpt lat="42.163125" lon="14.5837283"><ele>158.0</ele><time>2026-04-19T07:04:38.874Z</time></trkpt><trkpt lat="42.16321" lon="14.5837633"><ele>157.33333333333331</ele><time>2026-04-19T07:04:40.875Z</time></trkpt><trkpt lat="42.1632983" lon="14.58379"><ele>156.66666666666666</ele><time>2026-04-19T07:04:42.875Z</time></trkpt><trkpt lat="42.1633917" lon="14.58382"><ele>156.0</ele><time>2026-04-19T07:04:44.875Z</time></trkpt><trkpt lat="42.163485" lon="14.58384"><ele>155.33333333333334</ele><time>2026-04-19T07:04:46.875Z</time></trkpt><trkpt lat="42.1635633" lon="14.5838683"><ele>154.66666666666669</ele><time>2026-04-19T07:04:48.875Z</time></trkpt><trkpt lat="42.1636467" lon="14.5838967"><ele>154.0</ele><time>2026-04-19T07:04:50.875Z</time></trkpt><trkpt lat="42.1637383" lon="14.5839333"><ele>154.0</ele><time>2026-04-19T07:04:52.875Z</time></trkpt><trkpt lat="42.163825" lon="14.5839617"><ele>154.0</ele><time>2026-04-19T07:04:54.874Z</time></trkpt><trkpt lat="42.1639117" lon="14.58399"><ele>154.0</ele><time>2026-04-19T07:04:56.874Z</time></trkpt><trkpt lat="42.164005" lon="14.5840183"><ele>154.0</ele><time>2026-04-19T07:04:58.874Z</time></trkpt><trkpt lat="42.1640933" lon="14.5840417"><ele>154.0</ele><time>2026-04-19T07:05:00.874Z</time></trkpt><trkpt lat="42.1641883" lon="14.58408"><ele>154.0</ele><time>2026-04-19T07:05:02.874Z</time></trkpt><trkpt lat="42.164285" lon="14.584115"><ele>154.0</ele><time>2026-04-19T07:05:04.874Z</time></trkpt><trkpt lat="42.164385" lon="14.5841433"><ele>154.0</ele><time>2026-04-19T07:05:06.875Z</time></trkpt><trkpt lat="42.16449" lon="14.5841933"><ele>154.0</ele><time>2026-04-19T07:05:08.874Z</time></trkpt><trkpt lat="42.1645883" lon="14.5842283"><ele>154.0</ele><time>2026-04-19T07:05:10.875Z</time></trkpt><trkpt lat="42.1646867" lon="14.584265"><ele>154.0</ele><time>2026-04-19T07:05:12.874Z</time></trkpt><trkpt lat="42.1647833" lon="14.584315"><ele>154.0</ele><time>2026-04-19T07:05:14.875Z</time></trkpt><trkpt lat="42.1648767" lon="14.5843617"><ele>154.0</ele><time>2026-04-19T07:05:16.875Z</time></trkpt><trkpt lat="42.1649717" lon="14.5844"><ele>154.0</ele><time>2026-04-19T07:05:18.874Z</time></trkpt><trkpt lat="42.165075" lon="14.5844417"><ele>154.0</ele><time>2026-04-19T07:05:20.875Z</time></trkpt><trkpt lat="42.165175" lon="14.5844883"><ele>153.2</ele><time>2026-04-19T07:05:22.874Z</time></trkpt><trkpt lat="42.1652667" lon="14.5845317"><ele>152.4</ele><time>2026-04-19T07:05:24.875Z</time></trkpt><trkpt lat="42.16536" lon="14.5845717"><ele>151.6</ele><time>2026-04-19T07:05:26.875Z</time></trkpt><trkpt lat="42.1654517" lon="14.5846167"><ele>150.8</ele><time>2026-04-19T07:05:28.875Z</time></trkpt><trkpt lat="42.16555" lon="14.5846567"><ele>150.0</ele><time>2026-04-19T07:05:30.875Z</time></trkpt><trkpt lat="42.16563" lon="14.5846967"><ele>149.8</ele><time>2026-04-19T07:05:32.875Z</time></trkpt><trkpt lat="42.1657167" lon="14.58474"><ele>149.6</ele><time>2026-04-19T07:05:34.874Z</time></trkpt><trkpt lat="42.1658083" lon="14.5847883"><ele>149.4</ele><time>2026-04-19T07:05:36.875Z</time></trkpt><trkpt lat="42.1659067" lon="14.5848417"><ele>149.2</ele><time>2026-04-19T07:05:38.875Z</time></trkpt><trkpt lat="42.1660017" lon="14.58488"><ele>149.0</ele><time>2026-04-19T07:05:40.875Z</time></trkpt><trkpt lat="42.1661" lon="14.5849167"><ele>149.0</ele><time>2026-04-19T07:05:42.875Z</time></trkpt><trkpt lat="42.1661967" lon="14.5849517"><ele>149.0</ele><time>2026-04-19T07:05:44.875Z</time></trkpt><trkpt lat="42.16629" lon="14.5849883"><ele>149.0</ele><time>2026-04-19T07:05:46.874Z</time></trkpt><trkpt lat="42.166375" lon="14.585025"><ele>149.0</ele><time>2026-04-19T07:05:48.875Z</time></trkpt><trkpt lat="42.1664683" lon="14.5850867"><ele>149.0</ele><time>2026-04-19T07:05:50.875Z</time></trkpt><trkpt lat="42.1665533" lon="14.58516"><ele>149.0</ele><time>2026-04-19T07:05:52.875Z</time></trkpt><trkpt lat="42.16663" lon="14.58525"><ele>149.0</ele><time>2026-04-19T07:05:54.875Z</time></trkpt><trkpt lat="42.1667" lon="14.5853433"><ele>149.0</ele><time>2026-04-19T07:05:56.875Z</time></trkpt><trkpt lat="42.16677" lon="14.58545"><ele>149.0</ele><time>2026-04-19T07:05:58.875Z</time></trkpt><trkpt lat="42.1668417" lon="14.5855533"><ele>149.0</ele><time>2026-04-19T07:06:00.875Z</time></trkpt><trkpt lat="42.1669067" lon="14.585665"><ele>148.5</ele><time>2026-04-19T07:06:02.875Z</time></trkpt><trkpt lat="42.1669733" lon="14.5857883"><ele>148.0</ele><time>2026-04-19T07:06:04.875Z</time></trkpt><trkpt lat="42.167045" lon="14.5859083"><ele>147.5</ele><time>2026-04-19T07:06:06.875Z</time></trkpt><trkpt lat="42.167125" lon="14.5860217"><ele>147.0</ele><time>2026-04-19T07:06:08.874Z</time></trkpt><trkpt lat="42.1672017" lon="14.5861467"><ele>147.0</ele><time>2026-04-19T07:06:10.874Z</time></trkpt><trkpt lat="42.1672783" lon="14.5862717"><ele>147.0</ele><time>2026-04-19T07:06:12.875Z</time></trkpt><trkpt lat="42.16736" lon="14.5863983"><ele>147.0</ele><time>2026-04-19T07:06:14.875Z</time></trkpt><trkpt lat="42.1674067" lon="14.5864683"><ele>147.0</ele><time>2026-04-19T07:06:15.874Z</time></trkpt><trkpt lat="42.1674883" lon="14.586595"><ele>147.0</ele><time>2026-04-19T07:06:17.874Z</time></trkpt><trkpt lat="42.1675683" lon="14.5867217"><ele>147.0</ele><time>2026-04-19T07:06:19.874Z</time></trkpt><trkpt lat="42.16761" lon="14.5867883"><ele>147.0</ele><time>2026-04-19T07:06:20.875Z</time></trkpt><trkpt lat="42.1676517" lon="14.586855"><ele>147.0</ele><time>2026-04-19T07:06:21.875Z</time></trkpt><trkpt lat="42.1676883" lon="14.586925"><ele>147.0</ele><time>2026-04-19T07:06:22.875Z</time></trkpt><trkpt lat="42.16773" lon="14.5869967"><ele>147.0</ele><time>2026-04-19T07:06:23.875Z</time></trkpt><trkpt lat="42.1677733" lon="14.5870667"><ele>147.0</ele><time>2026-04-19T07:06:24.875Z</time></trkpt><trkpt lat="42.1678133" lon="14.587135"><ele>147.0</ele><time>2026-04-19T07:06:25.874Z</time></trkpt><trkpt lat="42.167855" lon="14.5872067"><ele>146.57142857142858</ele><time>2026-04-19T07:06:26.875Z</time></trkpt><trkpt lat="42.1679017" lon="14.587275"><ele>146.14285714285714</ele><time>2026-04-19T07:06:27.874Z</time></trkpt><trkpt lat="42.1679467" lon="14.5873433"><ele>145.71428571428572</ele><time>2026-04-19T07:06:28.874Z</time></trkpt><trkpt lat="42.1679917" lon="14.5874117"><ele>145.28571428571428</ele><time>2026-04-19T07:06:29.875Z</time></trkpt><trkpt lat="42.1680367" lon="14.5874767"><ele>144.85714285714286</ele><time>2026-04-19T07:06:30.875Z</time></trkpt><trkpt lat="42.168085" lon="14.5875417"><ele>144.42857142857144</ele><time>2026-04-19T07:06:31.874Z</time></trkpt><trkpt lat="42.1681317" lon="14.5876033"><ele>144.0</ele><time>2026-04-19T07:06:32.875Z</time></trkpt><trkpt lat="42.1681783" lon="14.5876683"><ele>143.85714285714286</ele><time>2026-04-19T07:06:33.875Z</time></trkpt><trkpt lat="42.16823" lon="14.5877333"><ele>143.71428571428572</ele><time>2026-04-19T07:06:34.874Z</time></trkpt><trkpt lat="42.1682817" lon="14.587795"><ele>143.57142857142856</ele><time>2026-04-19T07:06:35.875Z</time></trkpt><trkpt lat="42.168335" lon="14.5878483"><ele>143.42857142857144</ele><time>2026-04-19T07:06:36.874Z</time></trkpt><trkpt lat="42.16839" lon="14.5879017"><ele>143.28571428571428</ele><time>2026-04-19T07:06:37.875Z</time></trkpt><trkpt lat="42.1684483" lon="14.5879483"><ele>143.14285714285714</ele><time>2026-04-19T07:06:38.874Z</time></trkpt><trkpt lat="42.1685017" lon="14.5879967"><ele>143.0</ele><time>2026-04-19T07:06:39.874Z</time></trkpt><trkpt lat="42.168555" lon="14.5880433"><ele>142.8</ele><time>2026-04-19T07:06:40.875Z</time></trkpt><trkpt lat="42.16861" lon="14.58809"><ele>142.60000000000002</ele><time>2026-04-19T07:06:41.874Z</time></trkpt><trkpt lat="42.1687183" lon="14.5881733"><ele>142.39999999999998</ele><time>2026-04-19T07:06:43.875Z</time></trkpt><trkpt lat="42.1688317" lon="14.5882417"><ele>142.2</ele><time>2026-04-19T07:06:45.875Z</time></trkpt><trkpt lat="42.168945" lon="14.5883083"><ele>142.0</ele><time>2026-04-19T07:06:47.875Z</time></trkpt><trkpt lat="42.1690567" lon="14.5883833"><ele>142.0</ele><time>2026-04-19T07:06:49.875Z</time></trkpt><trkpt lat="42.1691667" lon="14.5884433"><ele>142.0</ele><time>2026-04-19T07:06:51.875Z</time></trkpt><trkpt lat="42.16927" lon="14.588505"><ele>142.0</ele><time>2026-04-19T07:06:53.874Z</time></trkpt><trkpt lat="42.1693617" lon="14.58857"><ele>142.0</ele><time>2026-04-19T07:06:55.875Z</time></trkpt><trkpt lat="42.1694717" lon="14.5886367"><ele>141.4</ele><time>2026-04-19T07:06:57.875Z</time></trkpt><trkpt lat="42.169565" lon="14.5886967"><ele>140.79999999999998</ele><time>2026-04-19T07:06:59.875Z</time></trkpt><trkpt lat="42.1696483" lon="14.5887667"><ele>140.2</ele><time>2026-04-19T07:07:01.875Z</time></trkpt><trkpt lat="42.1697433" lon="14.588825"><ele>139.6</ele><time>2026-04-19T07:07:03.874Z</time></trkpt><trkpt lat="42.1698383" lon="14.5888767"><ele>139.0</ele><time>2026-04-19T07:07:05.874Z</time></trkpt><trkpt lat="42.169935" lon="14.5889317"><ele>139.0</ele><time>2026-04-19T07:07:07.875Z</time></trkpt><trkpt lat="42.1700267" lon="14.5889883"><ele>139.0</ele><time>2026-04-19T07:07:09.874Z</time></trkpt><trkpt lat="42.170115" lon="14.5890467"><ele>139.0</ele><time>2026-04-19T07:07:11.874Z</time></trkpt><trkpt lat="42.1702" lon="14.589105"><ele>139.0</ele><time>2026-04-19T07:07:13.874Z</time></trkpt><trkpt lat="42.1702817" lon="14.589165"><ele>139.0</ele><time>2026-04-19T07:07:15.875Z</time></trkpt><trkpt lat="42.170365" lon="14.5892117"><ele>139.0</ele><time>2026-04-19T07:07:17.875Z</time></trkpt><trkpt lat="42.1704433" lon="14.5892633"><ele>139.0</ele><time>2026-04-19T07:07:19.874Z</time></trkpt><trkpt lat="42.170525" lon="14.589315"><ele>139.0</ele><time>2026-04-19T07:07:21.875Z</time></trkpt><trkpt lat="42.1706117" lon="14.58937"><ele>139.0</ele><time>2026-04-19T07:07:23.875Z</time></trkpt><trkpt lat="42.1707" lon="14.5894283"><ele>139.0</ele><time>2026-04-19T07:07:25.875Z</time></trkpt><trkpt lat="42.17079" lon="14.5894883"><ele>138.4</ele><time>2026-04-19T07:07:27.874Z</time></trkpt><trkpt lat="42.1708933" lon="14.5895467"><ele>137.8</ele><time>2026-04-19T07:07:29.875Z</time></trkpt><trkpt lat="42.171" lon="14.5895933"><ele>137.2</ele><time>2026-04-19T07:07:31.874Z</time></trkpt><trkpt lat="42.1710967" lon="14.5896583"><ele>136.6</ele><time>2026-04-19T07:07:33.875Z</time></trkpt><trkpt lat="42.171185" lon="14.589735"><ele>136.0</ele><time>2026-04-19T07:07:35.874Z</time></trkpt><trkpt lat="42.1712683" lon="14.58981"><ele>136.0</ele><time>2026-04-19T07:07:37.874Z</time></trkpt><trkpt lat="42.1713517" lon="14.589895"><ele>136.0</ele><time>2026-04-19T07:07:39.874Z</time></trkpt><trkpt lat="42.1714317" lon="14.5899817"><ele>136.0</ele><time>2026-04-19T07:07:41.875Z</time></trkpt><trkpt lat="42.1715217" lon="14.5900783"><ele>136.0</ele><time>2026-04-19T07:07:43.875Z</time></trkpt><trkpt lat="42.17161" lon="14.5901767"><ele>136.0</ele><time>2026-04-19T07:07:45.875Z</time></trkpt><trkpt lat="42.1716883" lon="14.59027"><ele>135.6</ele><time>2026-04-19T07:07:47.874Z</time></trkpt><trkpt lat="42.171775" lon="14.5903683"><ele>135.2</ele><time>2026-04-19T07:07:49.875Z</time></trkpt><trkpt lat="42.171855" lon="14.5904583"><ele>134.8</ele><time>2026-04-19T07:07:51.875Z</time></trkpt><trkpt lat="42.171935" lon="14.5905483"><ele>134.4</ele><time>2026-04-19T07:07:53.874Z</time></trkpt><trkpt lat="42.172025" lon="14.59064"><ele>134.0</ele><time>2026-04-19T07:07:55.874Z</time></trkpt><trkpt lat="42.172115" lon="14.590735"><ele>134.0</ele><time>2026-04-19T07:07:57.875Z</time></trkpt><trkpt lat="42.1722083" lon="14.5908283"><ele>134.0</ele><time>2026-04-19T07:07:59.875Z</time></trkpt><trkpt lat="42.1722567" lon="14.5908833"><ele>134.0</ele><time>2026-04-19T07:08:00.875Z</time></trkpt><trkpt lat="42.1723517" lon="14.590975"><ele>134.0</ele><time>2026-04-19T07:08:02.874Z</time></trkpt><trkpt lat="42.17244" lon="14.591075"><ele>134.0</ele><time>2026-04-19T07:08:04.875Z</time></trkpt><trkpt lat="42.1725283" lon="14.5911833"><ele>133.6</ele><time>2026-04-19T07:08:06.875Z</time></trkpt><trkpt lat="42.172615" lon="14.5912867"><ele>133.2</ele><time>2026-04-19T07:08:08.874Z</time></trkpt><trkpt lat="42.172665" lon="14.5913433"><ele>132.79999999999998</ele><time>2026-04-19T07:08:09.875Z</time></trkpt><trkpt lat="42.1727567" lon="14.5914583"><ele>132.4</ele><time>2026-04-19T07:08:11.874Z</time></trkpt><trkpt lat="42.1728383" lon="14.5915833"><ele>132.0</ele><time>2026-04-19T07:08:13.875Z</time></trkpt><trkpt lat="42.1729133" lon="14.5917083"><ele>132.0</ele><time>2026-04-19T07:08:15.875Z</time></trkpt><trkpt lat="42.1729833" lon="14.591835"><ele>132.0</ele><time>2026-04-19T07:08:17.875Z</time></trkpt><trkpt lat="42.1730567" lon="14.5919617"><ele>132.0</ele><time>2026-04-19T07:08:19.875Z</time></trkpt><trkpt lat="42.17313" lon="14.59209"><ele>132.0</ele><time>2026-04-19T07:08:21.874Z</time></trkpt><trkpt lat="42.1731983" lon="14.592205"><ele>131.5</ele><time>2026-04-19T07:08:23.874Z</time></trkpt><trkpt lat="42.1732683" lon="14.5923333"><ele>131.0</ele><time>2026-04-19T07:08:25.875Z</time></trkpt><trkpt lat="42.17333" lon="14.59247"><ele>130.5</ele><time>2026-04-19T07:08:27.875Z</time></trkpt><trkpt lat="42.1733867" lon="14.5926017"><ele>130.0</ele><time>2026-04-19T07:08:29.874Z</time></trkpt><trkpt lat="42.1734283" lon="14.59275"><ele>129.75</ele><time>2026-04-19T07:08:31.875Z</time></trkpt><trkpt lat="42.1734633" lon="14.5929067"><ele>129.5</ele><time>2026-04-19T07:08:33.875Z</time></trkpt><trkpt lat="42.1735067" lon="14.5930567"><ele>129.25</ele><time>2026-04-19T07:08:35.875Z</time></trkpt><trkpt lat="42.1735433" lon="14.5931933"><ele>129.0</ele><time>2026-04-19T07:08:37.874Z</time></trkpt><trkpt lat="42.1735933" lon="14.5933367"><ele>129.0</ele><time>2026-04-19T07:08:39.874Z</time></trkpt><trkpt lat="42.1736383" lon="14.5934717"><ele>129.0</ele><time>2026-04-19T07:08:41.874Z</time></trkpt><trkpt lat="42.1736867" lon="14.5936083"><ele>129.0</ele><time>2026-04-19T07:08:43.875Z</time></trkpt><trkpt lat="42.1737433" lon="14.5937217"><ele>129.0</ele><time>2026-04-19T07:08:45.875Z</time></trkpt><trkpt lat="42.1737983" lon="14.5938217"><ele>129.0</ele><time>2026-04-19T07:08:47.874Z</time></trkpt><trkpt lat="42.17385" lon="14.5939317"><ele>128.6</ele><time>2026-04-19T07:08:49.874Z</time></trkpt><trkpt lat="42.17391" lon="14.59404"><ele>128.2</ele><time>2026-04-19T07:08:51.874Z</time></trkpt><trkpt lat="42.1739733" lon="14.594165"><ele>127.79999999999998</ele><time>2026-04-19T07:08:53.874Z</time></trkpt><trkpt lat="42.17404" lon="14.59428"><ele>127.39999999999999</ele><time>2026-04-19T07:08:55.874Z</time></trkpt><trkpt lat="42.1741133" lon="14.5943983"><ele>127.0</ele><time>2026-04-19T07:08:57.875Z</time></trkpt><trkpt lat="42.1741817" lon="14.5945217"><ele>126.5</ele><time>2026-04-19T07:08:59.874Z</time></trkpt><trkpt lat="42.1742483" lon="14.59465"><ele>126.0</ele><time>2026-04-19T07:09:01.875Z</time></trkpt><trkpt lat="42.1743033" lon="14.5947783"><ele>125.5</ele><time>2026-04-19T07:09:03.874Z</time></trkpt><trkpt lat="42.1743533" lon="14.5949117"><ele>125.0</ele><time>2026-04-19T07:09:05.875Z</time></trkpt><trkpt lat="42.1743983" lon="14.5950517"><ele>125.0</ele><time>2026-04-19T07:09:07.874Z</time></trkpt><trkpt lat="42.1744417" lon="14.595185"><ele>125.0</ele><time>2026-04-19T07:09:09.875Z</time></trkpt><trkpt lat="42.1744833" lon="14.59533"><ele>125.0</ele><time>2026-04-19T07:09:11.874Z</time></trkpt><trkpt lat="42.1745217" lon="14.5954733"><ele>125.0</ele><time>2026-04-19T07:09:13.875Z</time></trkpt><trkpt lat="42.1745683" lon="14.5956183"><ele>125.25</ele><time>2026-04-19T07:09:15.874Z</time></trkpt><trkpt lat="42.174605" lon="14.59576"><ele>125.5</ele><time>2026-04-19T07:09:17.875Z</time></trkpt><trkpt lat="42.1746483" lon="14.5959067"><ele>125.75</ele><time>2026-04-19T07:09:19.874Z</time></trkpt><trkpt lat="42.174695" lon="14.596055"><ele>126.0</ele><time>2026-04-19T07:09:21.874Z</time></trkpt><trkpt lat="42.1747417" lon="14.5961917"><ele>125.5</ele><time>2026-04-19T07:09:23.874Z</time></trkpt><trkpt lat="42.174785" lon="14.596335"><ele>125.0</ele><time>2026-04-19T07:09:25.875Z</time></trkpt><trkpt lat="42.1748333" lon="14.5964817"><ele>124.5</ele><time>2026-04-19T07:09:27.875Z</time></trkpt><trkpt lat="42.1748833" lon="14.5966217"><ele>124.0</ele><time>2026-04-19T07:09:29.874Z</time></trkpt><trkpt lat="42.1749333" lon="14.5967617"><ele>123.5</ele><time>2026-04-19T07:09:31.875Z</time></trkpt><trkpt lat="42.1749867" lon="14.5969017"><ele>123.0</ele><time>2026-04-19T07:09:33.875Z</time></trkpt><trkpt lat="42.175045" lon="14.59704"><ele>122.5</ele><time>2026-04-19T07:09:35.875Z</time></trkpt><trkpt lat="42.1751067" lon="14.5971817"><ele>122.0</ele><time>2026-04-19T07:09:37.875Z</time></trkpt><trkpt lat="42.175175" lon="14.59732"><ele>121.66666666666666</ele><time>2026-04-19T07:09:39.875Z</time></trkpt><trkpt lat="42.175215" lon="14.5973917"><ele>121.33333333333333</ele><time>2026-04-19T07:09:40.874Z</time></trkpt><trkpt lat="42.17525" lon="14.5974633"><ele>121.0</ele><time>2026-04-19T07:09:41.875Z</time></trkpt><trkpt lat="42.17532" lon="14.5976017"><ele>120.66666666666666</ele><time>2026-04-19T07:09:43.874Z</time></trkpt><trkpt lat="42.175355" lon="14.5976733"><ele>120.33333333333333</ele><time>2026-04-19T07:09:44.875Z</time></trkpt><trkpt lat="42.1753933" lon="14.59775"><ele>120.0</ele><time>2026-04-19T07:09:45.875Z</time></trkpt><trkpt lat="42.1754333" lon="14.5978217"><ele>120.0</ele><time>2026-04-19T07:09:46.874Z</time></trkpt><trkpt lat="42.1754717" lon="14.5978917"><ele>120.0</ele><time>2026-04-19T07:09:47.875Z</time></trkpt><trkpt lat="42.17551" lon="14.5979617"><ele>120.0</ele><time>2026-04-19T07:09:48.875Z</time></trkpt><trkpt lat="42.1755483" lon="14.5980317"><ele>120.0</ele><time>2026-04-19T07:09:49.875Z</time></trkpt><trkpt lat="42.1755967" lon="14.5981017"><ele>120.0</ele><time>2026-04-19T07:09:50.875Z</time></trkpt><trkpt lat="42.175645" lon="14.59817"><ele>120.0</ele><time>2026-04-19T07:09:51.875Z</time></trkpt><trkpt lat="42.1756917" lon="14.5982333"><ele>120.0</ele><time>2026-04-19T07:09:52.874Z</time></trkpt><trkpt lat="42.1757433" lon="14.5982983"><ele>119.71428571428572</ele><time>2026-04-19T07:09:53.875Z</time></trkpt><trkpt lat="42.175795" lon="14.5983617"><ele>119.42857142857142</ele><time>2026-04-19T07:09:54.874Z</time></trkpt><trkpt lat="42.175845" lon="14.5984233"><ele>119.14285714285714</ele><time>2026-04-19T07:09:55.874Z</time></trkpt><trkpt lat="42.1759" lon="14.5984833"><ele>118.85714285714286</ele><time>2026-04-19T07:09:56.874Z</time></trkpt><trkpt lat="42.17596" lon="14.59854"><ele>118.57142857142858</ele><time>2026-04-19T07:09:57.875Z</time></trkpt><trkpt lat="42.17602" lon="14.5985967"><ele>118.28571428571428</ele><time>2026-04-19T07:09:58.875Z</time></trkpt><trkpt lat="42.1760783" lon="14.5986467"><ele>118.0</ele><time>2026-04-19T07:09:59.875Z</time></trkpt><trkpt lat="42.1761367" lon="14.5986967"><ele>117.85714285714286</ele><time>2026-04-19T07:10:00.875Z</time></trkpt><trkpt lat="42.176195" lon="14.598745"><ele>117.71428571428572</ele><time>2026-04-19T07:10:01.875Z</time></trkpt><trkpt lat="42.176255" lon="14.5987933"><ele>117.57142857142858</ele><time>2026-04-19T07:10:02.874Z</time></trkpt><trkpt lat="42.176315" lon="14.59884"><ele>117.42857142857143</ele><time>2026-04-19T07:10:03.875Z</time></trkpt><trkpt lat="42.176375" lon="14.5988867"><ele>117.2857142857143</ele><time>2026-04-19T07:10:04.875Z</time></trkpt><trkpt lat="42.17643" lon="14.5989333"><ele>117.14285714285715</ele><time>2026-04-19T07:10:05.874Z</time></trkpt><trkpt lat="42.1764867" lon="14.5989783"><ele>117.0</ele><time>2026-04-19T07:10:06.875Z</time></trkpt><trkpt lat="42.176545" lon="14.5990233"><ele>116.57142857142858</ele><time>2026-04-19T07:10:07.875Z</time></trkpt><trkpt lat="42.1766017" lon="14.5990733"><ele>116.14285714285715</ele><time>2026-04-19T07:10:08.875Z</time></trkpt><trkpt lat="42.1766583" lon="14.59912"><ele>115.71428571428572</ele><time>2026-04-19T07:10:09.874Z</time></trkpt><trkpt lat="42.17672" lon="14.5991683"><ele>115.28571428571428</ele><time>2026-04-19T07:10:10.875Z</time></trkpt><trkpt lat="42.1767817" lon="14.5992117"><ele>114.85714285714285</ele><time>2026-04-19T07:10:11.874Z</time></trkpt><trkpt lat="42.1768417" lon="14.599255"><ele>114.42857142857142</ele><time>2026-04-19T07:10:12.875Z</time></trkpt><trkpt lat="42.1768983" lon="14.5993033"><ele>114.0</ele><time>2026-04-19T07:10:13.875Z</time></trkpt><trkpt lat="42.1769533" lon="14.5993533"><ele>114.0</ele><time>2026-04-19T07:10:14.874Z</time></trkpt><trkpt lat="42.1770033" lon="14.5994083"><ele>114.0</ele><time>2026-04-19T07:10:15.875Z</time></trkpt><trkpt lat="42.177115" lon="14.59949"><ele>114.0</ele><time>2026-04-19T07:10:17.875Z</time></trkpt><trkpt lat="42.1772167" lon="14.5995783"><ele>114.0</ele><time>2026-04-19T07:10:19.874Z</time></trkpt><trkpt lat="42.1773183" lon="14.5996583"><ele>114.0</ele><time>2026-04-19T07:10:21.875Z</time></trkpt><trkpt lat="42.17742" lon="14.5997467"><ele>113.6</ele><time>2026-04-19T07:10:23.874Z</time></trkpt><trkpt lat="42.177515" lon="14.5998233"><ele>113.2</ele><time>2026-04-19T07:10:25.874Z</time></trkpt><trkpt lat="42.17761" lon="14.5999017"><ele>112.79999999999998</ele><time>2026-04-19T07:10:27.875Z</time></trkpt><trkpt lat="42.1777083" lon="14.5999783"><ele>112.39999999999999</ele><time>2026-04-19T07:10:29.875Z</time></trkpt><trkpt lat="42.1777967" lon="14.6000633"><ele>112.0</ele><time>2026-04-19T07:10:31.875Z</time></trkpt><trkpt lat="42.17788" lon="14.600165"><ele>112.0</ele><time>2026-04-19T07:10:33.875Z</time></trkpt><trkpt lat="42.1779567" lon="14.60026"><ele>111.99999999999999</ele><time>2026-04-19T07:10:35.874Z</time></trkpt><trkpt lat="42.1780267" lon="14.600355"><ele>111.99999999999999</ele><time>2026-04-19T07:10:37.875Z</time></trkpt><trkpt lat="42.1780983" lon="14.6004567"><ele>112.0</ele><time>2026-04-19T07:10:39.874Z</time></trkpt><trkpt lat="42.1781717" lon="14.6005633"><ele>112.0</ele><time>2026-04-19T07:10:41.875Z</time></trkpt><trkpt lat="42.1782417" lon="14.6006583"><ele>112.0</ele><time>2026-04-19T07:10:43.875Z</time></trkpt><trkpt lat="42.1783133" lon="14.60076"><ele>111.99999999999999</ele><time>2026-04-19T07:10:45.875Z</time></trkpt><trkpt lat="42.17839" lon="14.6008617"><ele>111.99999999999999</ele><time>2026-04-19T07:10:47.874Z</time></trkpt><trkpt lat="42.178465" lon="14.600965"><ele>112.0</ele><time>2026-04-19T07:10:49.875Z</time></trkpt><trkpt lat="42.17854" lon="14.601065"><ele>112.0</ele><time>2026-04-19T07:10:51.875Z</time></trkpt><trkpt lat="42.178605" lon="14.6011683"><ele>112.0</ele><time>2026-04-19T07:10:53.875Z</time></trkpt><trkpt lat="42.178675" lon="14.6012617"><ele>111.99999999999999</ele><time>2026-04-19T07:10:55.875Z</time></trkpt><trkpt lat="42.1787517" lon="14.601355"><ele>111.99999999999999</ele><time>2026-04-19T07:10:57.875Z</time></trkpt><trkpt lat="42.1788333" lon="14.6014517"><ele>112.0</ele><time>2026-04-19T07:10:59.874Z</time></trkpt><trkpt lat="42.1789283" lon="14.6015383"><ele>112.0</ele><time>2026-04-19T07:11:01.875Z</time></trkpt><trkpt lat="42.1790233" lon="14.6016283"><ele>111.39999999999999</ele><time>2026-04-19T07:11:03.874Z</time></trkpt><trkpt lat="42.1791217" lon="14.601715"><ele>110.79999999999998</ele><time>2026-04-19T07:11:05.874Z</time></trkpt><trkpt lat="42.1791783" lon="14.60176"><ele>110.2</ele><time>2026-04-19T07:11:06.875Z</time></trkpt><trkpt lat="42.179275" lon="14.6018517"><ele>109.6</ele><time>2026-04-19T07:11:08.875Z</time></trkpt><trkpt lat="42.1793683" lon="14.6019533"><ele>109.0</ele><time>2026-04-19T07:11:10.875Z</time></trkpt><trkpt lat="42.1794583" lon="14.60207"><ele>108.6</ele><time>2026-04-19T07:11:12.875Z</time></trkpt><trkpt lat="42.179545" lon="14.6021867"><ele>108.2</ele><time>2026-04-19T07:11:14.875Z</time></trkpt><trkpt lat="42.17959" lon="14.6022467"><ele>107.79999999999998</ele><time>2026-04-19T07:11:15.875Z</time></trkpt><trkpt lat="42.1796717" lon="14.602365"><ele>107.39999999999999</ele><time>2026-04-19T07:11:17.875Z</time></trkpt><trkpt lat="42.1797433" lon="14.6024983"><ele>107.0</ele><time>2026-04-19T07:11:19.875Z</time></trkpt><trkpt lat="42.1798183" lon="14.6026217"><ele>106.5</ele><time>2026-04-19T07:11:21.875Z</time></trkpt><trkpt lat="42.17989" lon="14.60274"><ele>106.0</ele><time>2026-04-19T07:11:23.875Z</time></trkpt><trkpt lat="42.17997" lon="14.6028517"><ele>105.5</ele><time>2026-04-19T07:11:25.875Z</time></trkpt><trkpt lat="42.1800567" lon="14.6029617"><ele>105.0</ele><time>2026-04-19T07:11:27.874Z</time></trkpt><trkpt lat="42.1801517" lon="14.6030617"><ele>104.75</ele><time>2026-04-19T07:11:29.874Z</time></trkpt><trkpt lat="42.1802533" lon="14.603155"><ele>104.5</ele><time>2026-04-19T07:11:31.875Z</time></trkpt><trkpt lat="42.1803483" lon="14.6032333"><ele>104.25</ele><time>2026-04-19T07:11:33.875Z</time></trkpt><trkpt lat="42.18044" lon="14.6033283"><ele>104.0</ele><time>2026-04-19T07:11:35.875Z</time></trkpt><trkpt lat="42.180535" lon="14.60341"><ele>103.99999999999999</ele><time>2026-04-19T07:11:37.875Z</time></trkpt><trkpt lat="42.1806367" lon="14.6034717"><ele>104.0</ele><time>2026-04-19T07:11:39.875Z</time></trkpt><trkpt lat="42.1806933" lon="14.6035133"><ele>104.0</ele><time>2026-04-19T07:11:40.874Z</time></trkpt><trkpt lat="42.1807467" lon="14.6035667"><ele>104.0</ele><time>2026-04-19T07:11:41.875Z</time></trkpt><trkpt lat="42.1808033" lon="14.6036083"><ele>103.99999999999999</ele><time>2026-04-19T07:11:42.875Z</time></trkpt><trkpt lat="42.1809183" lon="14.6036717"><ele>104.0</ele><time>2026-04-19T07:11:44.875Z</time></trkpt><trkpt lat="42.1809783" lon="14.6036983"><ele>103.5</ele><time>2026-04-19T07:11:45.875Z</time></trkpt><trkpt lat="42.1810917" lon="14.60376"><ele>103.0</ele><time>2026-04-19T07:11:47.875Z</time></trkpt><trkpt lat="42.1812083" lon="14.6038217"><ele>102.5</ele><time>2026-04-19T07:11:49.875Z</time></trkpt><trkpt lat="42.1813183" lon="14.6038817"><ele>102.0</ele><time>2026-04-19T07:11:51.874Z</time></trkpt><trkpt lat="42.18143" lon="14.6039433"><ele>101.83333333333333</ele><time>2026-04-19T07:11:53.875Z</time></trkpt><trkpt lat="42.1815417" lon="14.604005"><ele>101.66666666666666</ele><time>2026-04-19T07:11:55.875Z</time></trkpt><trkpt lat="42.1816017" lon="14.6040333"><ele>101.5</ele><time>2026-04-19T07:11:56.875Z</time></trkpt><trkpt lat="42.1816633" lon="14.6040683"><ele>101.33333333333333</ele><time>2026-04-19T07:11:57.874Z</time></trkpt><trkpt lat="42.1817267" lon="14.6040983"><ele>101.16666666666666</ele><time>2026-04-19T07:11:58.874Z</time></trkpt><trkpt lat="42.1817867" lon="14.60413"><ele>101.0</ele><time>2026-04-19T07:11:59.875Z</time></trkpt><trkpt lat="42.1819017" lon="14.6041933"><ele>101.0</ele><time>2026-04-19T07:12:01.875Z</time></trkpt><trkpt lat="42.1819633" lon="14.604225"><ele>101.0</ele><time>2026-04-19T07:12:02.875Z</time></trkpt><trkpt lat="42.1820233" lon="14.6042583"><ele>101.0</ele><time>2026-04-19T07:12:03.874Z</time></trkpt><trkpt lat="42.182085" lon="14.60429"><ele>101.0</ele><time>2026-04-19T07:12:04.874Z</time></trkpt><trkpt lat="42.1821467" lon="14.6043233"><ele>101.0</ele><time>2026-04-19T07:12:05.875Z</time></trkpt><trkpt lat="42.1822083" lon="14.60435"><ele>101.0</ele><time>2026-04-19T07:12:06.875Z</time></trkpt><trkpt lat="42.1822683" lon="14.6043833"><ele>101.0</ele><time>2026-04-19T07:12:07.874Z</time></trkpt><trkpt lat="42.1823883" lon="14.604445"><ele>100.71428571428571</ele><time>2026-04-19T07:12:09.875Z</time></trkpt><trkpt lat="42.1824517" lon="14.6044767"><ele>100.42857142857142</ele><time>2026-04-19T07:12:10.875Z</time></trkpt><trkpt lat="42.1825167" lon="14.60451"><ele>100.14285714285714</ele><time>2026-04-19T07:12:11.875Z</time></trkpt><trkpt lat="42.1825833" lon="14.60454"><ele>99.85714285714286</ele><time>2026-04-19T07:12:12.875Z</time></trkpt><trkpt lat="42.1826433" lon="14.6045783"><ele>99.57142857142857</ele><time>2026-04-19T07:12:13.874Z</time></trkpt><trkpt lat="42.1827067" lon="14.6046167"><ele>99.28571428571429</ele><time>2026-04-19T07:12:14.874Z</time></trkpt><trkpt lat="42.18277" lon="14.60465"><ele>99.0</ele><time>2026-04-19T07:12:15.875Z</time></trkpt><trkpt lat="42.1828383" lon="14.604675"><ele>98.5</ele><time>2026-04-19T07:12:16.874Z</time></trkpt><trkpt lat="42.1829067" lon="14.6047017"><ele>98.0</ele><time>2026-04-19T07:12:17.875Z</time></trkpt><trkpt lat="42.1829733" lon="14.604725"><ele>97.5</ele><time>2026-04-19T07:12:18.875Z</time></trkpt><trkpt lat="42.1830967" lon="14.6047617"><ele>97.0</ele><time>2026-04-19T07:12:20.875Z</time></trkpt><trkpt lat="42.1831583" lon="14.6047833"><ele>96.5</ele><time>2026-04-19T07:12:21.874Z</time></trkpt><trkpt lat="42.18322" lon="14.6048117"><ele>96.0</ele><time>2026-04-19T07:12:22.874Z</time></trkpt><trkpt lat="42.1833283" lon="14.6048733"><ele>95.4</ele><time>2026-04-19T07:12:24.875Z</time></trkpt><trkpt lat="42.1834067" lon="14.604965"><ele>94.8</ele><time>2026-04-19T07:12:26.874Z</time></trkpt><trkpt lat="42.183435" lon="14.6050967"><ele>94.2</ele><time>2026-04-19T07:12:28.875Z</time></trkpt><trkpt lat="42.1834683" lon="14.6052267"><ele>93.60000000000001</ele><time>2026-04-19T07:12:30.875Z</time></trkpt><trkpt lat="42.1834917" lon="14.6053467"><ele>93.0</ele><time>2026-04-19T07:12:32.875Z</time></trkpt><trkpt lat="42.1835233" lon="14.6054567"><ele>92.0</ele><time>2026-04-19T07:12:34.875Z</time></trkpt><trkpt lat="42.1835533" lon="14.6055683"><ele>91.0</ele><time>2026-04-19T07:12:36.875Z</time></trkpt><trkpt lat="42.18362" lon="14.60563"><ele>90.0</ele><time>2026-04-19T07:12:38.875Z</time></trkpt><trkpt lat="42.18372" lon="14.605605"><ele>89.0</ele><time>2026-04-19T07:12:40.874Z</time></trkpt><trkpt lat="42.183775" lon="14.6055633"><ele>88.0</ele><time>2026-04-19T07:12:41.875Z</time></trkpt><trkpt lat="42.1838817" lon="14.6054817"><ele>88.0</ele><time>2026-04-19T07:12:43.875Z</time></trkpt><trkpt lat="42.1839917" lon="14.6054133"><ele>88.0</ele><time>2026-04-19T07:12:45.875Z</time></trkpt><trkpt lat="42.1841117" lon="14.6053983"><ele>88.0</ele><time>2026-04-19T07:12:47.875Z</time></trkpt><trkpt lat="42.1842183" lon="14.6054217"><ele>88.0</ele><time>2026-04-19T07:12:49.875Z</time></trkpt><trkpt lat="42.184315" lon="14.6054683"><ele>88.60000000000001</ele><time>2026-04-19T07:12:51.875Z</time></trkpt><trkpt lat="42.1844217" lon="14.605495"><ele>89.2</ele><time>2026-04-19T07:12:53.874Z</time></trkpt><trkpt lat="42.1845233" lon="14.6055233"><ele>89.8</ele><time>2026-04-19T07:12:55.874Z</time></trkpt><trkpt lat="42.1846283" lon="14.6055583"><ele>90.4</ele><time>2026-04-19T07:12:57.875Z</time></trkpt><trkpt lat="42.1847333" lon="14.60558"><ele>91.0</ele><time>2026-04-19T07:12:59.874Z</time></trkpt><trkpt lat="42.184835" lon="14.6055983"><ele>91.4</ele><time>2026-04-19T07:13:01.874Z</time></trkpt><trkpt lat="42.18494" lon="14.6056183"><ele>91.8</ele><time>2026-04-19T07:13:03.875Z</time></trkpt><trkpt lat="42.1850433" lon="14.60564"><ele>92.2</ele><time>2026-04-19T07:13:05.874Z</time></trkpt><trkpt lat="42.1851567" lon="14.6056583"><ele>92.60000000000001</ele><time>2026-04-19T07:13:07.875Z</time></trkpt><trkpt lat="42.1852583" lon="14.6056817"><ele>93.0</ele><time>2026-04-19T07:13:09.875Z</time></trkpt><trkpt lat="42.185365" lon="14.6056917"><ele>93.0</ele><time>2026-04-19T07:13:11.874Z</time></trkpt><trkpt lat="42.18547" lon="14.6056917"><ele>93.0</ele><time>2026-04-19T07:13:13.874Z</time></trkpt><trkpt lat="42.18557" lon="14.6056933"><ele>93.0</ele><time>2026-04-19T07:13:15.875Z</time></trkpt><trkpt lat="42.1856667" lon="14.6056883"><ele>93.0</ele><time>2026-04-19T07:13:17.874Z</time></trkpt><trkpt lat="42.185765" lon="14.6056833"><ele>93.0</ele><time>2026-04-19T07:13:19.875Z</time></trkpt><trkpt lat="42.185865" lon="14.6056783"><ele>92.2</ele><time>2026-04-19T07:13:21.874Z</time></trkpt><trkpt lat="42.1859733" lon="14.605675"><ele>91.4</ele><time>2026-04-19T07:13:23.875Z</time></trkpt><trkpt lat="42.1860767" lon="14.6056583"><ele>90.60000000000001</ele><time>2026-04-19T07:13:25.875Z</time></trkpt><trkpt lat="42.1861867" lon="14.6056517"><ele>89.80000000000001</ele><time>2026-04-19T07:13:27.875Z</time></trkpt><trkpt lat="42.18629" lon="14.6056383"><ele>89.0</ele><time>2026-04-19T07:13:29.875Z</time></trkpt><trkpt lat="42.1863983" lon="14.6056183"><ele>88.83333333333334</ele><time>2026-04-19T07:13:31.875Z</time></trkpt><trkpt lat="42.1865117" lon="14.6055867"><ele>88.66666666666667</ele><time>2026-04-19T07:13:33.875Z</time></trkpt><trkpt lat="42.186575" lon="14.6055683"><ele>88.5</ele><time>2026-04-19T07:13:34.875Z</time></trkpt><trkpt lat="42.1866967" lon="14.6055433"><ele>88.33333333333333</ele><time>2026-04-19T07:13:36.875Z</time></trkpt><trkpt lat="42.1867633" lon="14.6055267"><ele>88.16666666666666</ele><time>2026-04-19T07:13:37.874Z</time></trkpt><trkpt lat="42.1868333" lon="14.6055067"><ele>88.0</ele><time>2026-04-19T07:13:38.874Z</time></trkpt><trkpt lat="42.1869033" lon="14.60548"><ele>88.0</ele><time>2026-04-19T07:13:39.875Z</time></trkpt><trkpt lat="42.18697" lon="14.6054667"><ele>88.0</ele><time>2026-04-19T07:13:40.875Z</time></trkpt><trkpt lat="42.187035" lon="14.60545"><ele>88.0</ele><time>2026-04-19T07:13:41.875Z</time></trkpt><trkpt lat="42.1871017" lon="14.6054333"><ele>88.0</ele><time>2026-04-19T07:13:42.875Z</time></trkpt><trkpt lat="42.18717" lon="14.6054233"><ele>88.0</ele><time>2026-04-19T07:13:43.874Z</time></trkpt><trkpt lat="42.1872367" lon="14.6054117"><ele>88.0</ele><time>2026-04-19T07:13:44.875Z</time></trkpt><trkpt lat="42.1873033" lon="14.6054"><ele>88.0</ele><time>2026-04-19T07:13:45.875Z</time></trkpt><trkpt lat="42.1873717" lon="14.6053767"><ele>87.71428571428572</ele><time>2026-04-19T07:13:46.875Z</time></trkpt><trkpt lat="42.1874433" lon="14.605355"><ele>87.42857142857143</ele><time>2026-04-19T07:13:47.875Z</time></trkpt><trkpt lat="42.1875133" lon="14.605335"><ele>87.14285714285714</ele><time>2026-04-19T07:13:48.875Z</time></trkpt><trkpt lat="42.187585" lon="14.6053117"><ele>86.85714285714286</ele><time>2026-04-19T07:13:49.875Z</time></trkpt><trkpt lat="42.18766" lon="14.6052933"><ele>86.57142857142857</ele><time>2026-04-19T07:13:50.875Z</time></trkpt><trkpt lat="42.1877283" lon="14.6052733"><ele>86.28571428571429</ele><time>2026-04-19T07:13:51.875Z</time></trkpt><trkpt lat="42.1877967" lon="14.605255"><ele>86.0</ele><time>2026-04-19T07:13:52.875Z</time></trkpt><trkpt lat="42.18787" lon="14.6052367"><ele>85.14285714285715</ele><time>2026-04-19T07:13:53.874Z</time></trkpt><trkpt lat="42.1879417" lon="14.6052267"><ele>84.28571428571429</ele><time>2026-04-19T07:13:54.874Z</time></trkpt><trkpt lat="42.1880167" lon="14.6052133"><ele>83.42857142857143</ele><time>2026-04-19T07:13:55.874Z</time></trkpt><trkpt lat="42.18809" lon="14.605195"><ele>82.57142857142858</ele><time>2026-04-19T07:13:56.875Z</time></trkpt><trkpt lat="42.1881583" lon="14.6051833"><ele>81.71428571428572</ele><time>2026-04-19T07:13:57.875Z</time></trkpt><trkpt lat="42.1882283" lon="14.605175"><ele>80.85714285714286</ele><time>2026-04-19T07:13:58.875Z</time></trkpt><trkpt lat="42.1882983" lon="14.6051667"><ele>80.0</ele><time>2026-04-19T07:13:59.875Z</time></trkpt><trkpt lat="42.1883683" lon="14.605155"><ele>79.14285714285714</ele><time>2026-04-19T07:14:00.875Z</time></trkpt><trkpt lat="42.1884333" lon="14.6051417"><ele>78.28571428571429</ele><time>2026-04-19T07:14:01.874Z</time></trkpt><trkpt lat="42.1885017" lon="14.6051217"><ele>77.42857142857143</ele><time>2026-04-19T07:14:02.875Z</time></trkpt><trkpt lat="42.188565" lon="14.6051117"><ele>76.57142857142857</ele><time>2026-04-19T07:14:03.875Z</time></trkpt><trkpt lat="42.1886433" lon="14.6050983"><ele>75.71428571428571</ele><time>2026-04-19T07:14:04.875Z</time></trkpt><trkpt lat="42.188725" lon="14.605085"><ele>74.85714285714286</ele><time>2026-04-19T07:14:05.875Z</time></trkpt><trkpt lat="42.188805" lon="14.605075"><ele>74.0</ele><time>2026-04-19T07:14:06.874Z</time></trkpt><trkpt lat="42.1888833" lon="14.6050683"><ele>74.0</ele><time>2026-04-19T07:14:07.875Z</time></trkpt><trkpt lat="42.18896" lon="14.605045"><ele>74.0</ele><time>2026-04-19T07:14:08.875Z</time></trkpt><trkpt lat="42.1890317" lon="14.60502"><ele>74.0</ele><time>2026-04-19T07:14:09.874Z</time></trkpt><trkpt lat="42.1890983" lon="14.6049783"><ele>74.0</ele><time>2026-04-19T07:14:10.874Z</time></trkpt><trkpt lat="42.18917" lon="14.6049317"><ele>74.0</ele><time>2026-04-19T07:14:11.875Z</time></trkpt><trkpt lat="42.1892417" lon="14.6048717"><ele>74.0</ele><time>2026-04-19T07:14:12.874Z</time></trkpt><trkpt lat="42.189305" lon="14.6048067"><ele>73.66666666666667</ele><time>2026-04-19T07:14:13.875Z</time></trkpt><trkpt lat="42.1893667" lon="14.60474"><ele>73.33333333333334</ele><time>2026-04-19T07:14:14.875Z</time></trkpt><trkpt lat="42.1894367" lon="14.6046717"><ele>73.0</ele><time>2026-04-19T07:14:15.875Z</time></trkpt><trkpt lat="42.189505" lon="14.6046"><ele>72.66666666666667</ele><time>2026-04-19T07:14:16.875Z</time></trkpt><trkpt lat="42.189575" lon="14.6045333"><ele>72.33333333333333</ele><time>2026-04-19T07:14:17.875Z</time></trkpt><trkpt lat="42.1896383" lon="14.6044667"><ele>72.0</ele><time>2026-04-19T07:14:18.874Z</time></trkpt><trkpt lat="42.1897033" lon="14.6044"><ele>70.5</ele><time>2026-04-19T07:14:19.875Z</time></trkpt><trkpt lat="42.1897667" lon="14.6043333"><ele>69.0</ele><time>2026-04-19T07:14:20.875Z</time></trkpt><trkpt lat="42.1898383" lon="14.6042717"><ele>67.5</ele><time>2026-04-19T07:14:21.875Z</time></trkpt><trkpt lat="42.1899083" lon="14.6042183"><ele>66.0</ele><time>2026-04-19T07:14:22.874Z</time></trkpt><trkpt lat="42.18998" lon="14.6041667"><ele>64.5</ele><time>2026-04-19T07:14:23.875Z</time></trkpt><trkpt lat="42.1900617" lon="14.60413"><ele>63.0</ele><time>2026-04-19T07:14:24.875Z</time></trkpt><trkpt lat="42.1901533" lon="14.6041017"><ele>60.5</ele><time>2026-04-19T07:14:25.875Z</time></trkpt><trkpt lat="42.1902567" lon="14.6040933"><ele>58.0</ele><time>2026-04-19T07:14:26.875Z</time></trkpt><trkpt lat="42.19037" lon="14.6041133"><ele>55.5</ele><time>2026-04-19T07:14:27.875Z</time></trkpt><trkpt lat="42.1904967" lon="14.6041317"><ele>53.0</ele><time>2026-04-19T07:14:28.875Z</time></trkpt><trkpt lat="42.1906433" lon="14.60415"><ele>50.25</ele><time>2026-04-19T07:14:29.875Z</time></trkpt><trkpt lat="42.1907767" lon="14.6041717"><ele>47.5</ele><time>2026-04-19T07:14:30.875Z</time></trkpt><trkpt lat="42.1908967" lon="14.6042017"><ele>44.75</ele><time>2026-04-19T07:14:31.874Z</time></trkpt><trkpt lat="42.1910183" lon="14.6042317"><ele>42.0</ele><time>2026-04-19T07:14:32.874Z</time></trkpt><trkpt lat="42.1911433" lon="14.60426"><ele>42.0</ele><time>2026-04-19T07:14:33.875Z</time></trkpt><trkpt lat="42.1912533" lon="14.6042533"><ele>42.0</ele><time>2026-04-19T07:14:34.875Z</time></trkpt><trkpt lat="42.1913483" lon="14.6042283"><ele>42.0</ele><time>2026-04-19T07:14:35.874Z</time></trkpt><trkpt lat="42.1914333" lon="14.60421"><ele>42.0</ele><time>2026-04-19T07:14:36.874Z</time></trkpt><trkpt lat="42.191505" lon="14.6041917"><ele>42.0</ele><time>2026-04-19T07:14:37.875Z</time></trkpt><trkpt lat="42.1915733" lon="14.6041767"><ele>42.0</ele><time>2026-04-19T07:14:38.875Z</time></trkpt><trkpt lat="42.19167" lon="14.6041817"><ele>42.285714285714285</ele><time>2026-04-19T07:14:40.875Z</time></trkpt><trkpt lat="42.1917467" lon="14.6042017"><ele>42.57142857142857</ele><time>2026-04-19T07:14:42.875Z</time></trkpt><trkpt lat="42.1918083" lon="14.60424"><ele>42.85714285714286</ele><time>2026-04-19T07:14:44.875Z</time></trkpt><trkpt lat="42.19187" lon="14.6042883"><ele>43.14285714285714</ele><time>2026-04-19T07:14:46.875Z</time></trkpt><trkpt lat="42.1919233" lon="14.604345"><ele>43.42857142857143</ele><time>2026-04-19T07:14:48.875Z</time></trkpt><trkpt lat="42.1919733" lon="14.604415"><ele>43.714285714285715</ele><time>2026-04-19T07:14:50.875Z</time></trkpt><trkpt lat="42.19202" lon="14.60449"><ele>44.0</ele><time>2026-04-19T07:14:52.875Z</time></trkpt><trkpt lat="42.192065" lon="14.6045633"><ele>44.0</ele><time>2026-04-19T07:14:54.875Z</time></trkpt><trkpt lat="42.192105" lon="14.6046483"><ele>44.0</ele><time>2026-04-19T07:14:56.874Z</time></trkpt><trkpt lat="42.1921383" lon="14.6047367"><ele>44.0</ele><time>2026-04-19T07:14:58.875Z</time></trkpt><trkpt lat="42.1921683" lon="14.604825"><ele>44.0</ele><time>2026-04-19T07:15:00.874Z</time></trkpt><trkpt lat="42.1922033" lon="14.6049017"><ele>44.0</ele><time>2026-04-19T07:15:02.874Z</time></trkpt><trkpt lat="42.1922267" lon="14.6049967"><ele>44.0</ele><time>2026-04-19T07:15:04.875Z</time></trkpt><trkpt lat="42.1922433" lon="14.6051017"><ele>44.0</ele><time>2026-04-19T07:15:06.874Z</time></trkpt><trkpt lat="42.1922733" lon="14.6051983"><ele>44.0</ele><time>2026-04-19T07:15:08.875Z</time></trkpt><trkpt lat="42.1923067" lon="14.6052883"><ele>44.0</ele><time>2026-04-19T07:15:10.874Z</time></trkpt><trkpt lat="42.192345" lon="14.6053783"><ele>44.0</ele><time>2026-04-19T07:15:12.875Z</time></trkpt><trkpt lat="42.1923883" lon="14.605465"><ele>44.0</ele><time>2026-04-19T07:15:14.875Z</time></trkpt><trkpt lat="42.1924333" lon="14.605545"><ele>44.0</ele><time>2026-04-19T07:15:16.875Z</time></trkpt><trkpt lat="42.1924817" lon="14.6056233"><ele>44.0</ele><time>2026-04-19T07:15:18.874Z</time></trkpt><trkpt lat="42.1925333" lon="14.6057083"><ele>46.33333333333333</ele><time>2026-04-19T07:15:20.875Z</time></trkpt><trkpt lat="42.19258" lon="14.605795"><ele>48.666666666666664</ele><time>2026-04-19T07:15:22.875Z</time></trkpt><trkpt lat="42.19263" lon="14.6058867"><ele>51.0</ele><time>2026-04-19T07:15:24.875Z</time></trkpt><trkpt lat="42.1926717" lon="14.6059817"><ele>53.33333333333333</ele><time>2026-04-19T07:15:26.874Z</time></trkpt><trkpt lat="42.1927083" lon="14.606075"><ele>55.666666666666664</ele><time>2026-04-19T07:15:28.875Z</time></trkpt><trkpt lat="42.1927383" lon="14.606165"><ele>58.0</ele><time>2026-04-19T07:15:30.875Z</time></trkpt><trkpt lat="42.19277" lon="14.6062567"><ele>58.00000000000001</ele><time>2026-04-19T07:15:32.875Z</time></trkpt><trkpt lat="42.1927933" lon="14.60635"><ele>58.0</ele><time>2026-04-19T07:15:34.875Z</time></trkpt><trkpt lat="42.1928067" lon="14.6064333"><ele>58.00000000000001</ele><time>2026-04-19T07:15:36.874Z</time></trkpt><trkpt lat="42.1928217" lon="14.6065533"><ele>58.00000000000001</ele><time>2026-04-19T07:15:39.874Z</time></trkpt><trkpt lat="42.1928233" lon="14.606675"><ele>58.0</ele><time>2026-04-19T07:15:42.874Z</time></trkpt><trkpt lat="42.192815" lon="14.60676"><ele>58.00000000000001</ele><time>2026-04-19T07:15:44.874Z</time></trkpt><trkpt lat="42.192805" lon="14.6068517"><ele>58.00000000000001</ele><time>2026-04-19T07:15:46.875Z</time></trkpt><trkpt lat="42.19279" lon="14.606975"><ele>57.57142857142858</ele><time>2026-04-19T07:15:49.874Z</time></trkpt><trkpt lat="42.1927833" lon="14.6070717"><ele>57.142857142857146</ele><time>2026-04-19T07:15:51.875Z</time></trkpt><trkpt lat="42.1927833" lon="14.607175"><ele>56.714285714285715</ele><time>2026-04-19T07:15:53.875Z</time></trkpt><trkpt lat="42.192795" lon="14.607265"><ele>56.28571428571429</ele><time>2026-04-19T07:15:55.875Z</time></trkpt><trkpt lat="42.19281" lon="14.6073483"><ele>55.85714285714286</ele><time>2026-04-19T07:15:57.875Z</time></trkpt><trkpt lat="42.19284" lon="14.6074667"><ele>55.42857142857142</ele><time>2026-04-19T07:16:00.875Z</time></trkpt><trkpt lat="42.1928633" lon="14.60755"><ele>55.0</ele><time>2026-04-19T07:16:02.875Z</time></trkpt><trkpt lat="42.1928883" lon="14.6076367"><ele>54.99999999999999</ele><time>2026-04-19T07:16:04.875Z</time></trkpt><trkpt lat="42.1929067" lon="14.60772"><ele>55.0</ele><time>2026-04-19T07:16:06.875Z</time></trkpt><trkpt lat="42.1929267" lon="14.607805"><ele>55.0</ele><time>2026-04-19T07:16:08.875Z</time></trkpt><trkpt lat="42.192955" lon="14.607885"><ele>55.0</ele><time>2026-04-19T07:16:10.874Z</time></trkpt><trkpt lat="42.1929783" lon="14.6079683"><ele>55.0</ele><time>2026-04-19T07:16:12.874Z</time></trkpt><trkpt lat="42.1929967" lon="14.608055"><ele>54.99999999999999</ele><time>2026-04-19T07:16:14.875Z</time></trkpt><trkpt lat="42.193015" lon="14.6081417"><ele>55.0</ele><time>2026-04-19T07:16:16.874Z</time></trkpt><trkpt lat="42.1930367" lon="14.6082383"><ele>54.33333333333333</ele><time>2026-04-19T07:16:18.874Z</time></trkpt><trkpt lat="42.1930567" lon="14.6083283"><ele>53.666666666666664</ele><time>2026-04-19T07:16:20.875Z</time></trkpt><trkpt lat="42.1930817" lon="14.60842"><ele>53.0</ele><time>2026-04-19T07:16:22.875Z</time></trkpt><trkpt lat="42.1931117" lon="14.6085317"><ele>52.33333333333333</ele><time>2026-04-19T07:16:24.874Z</time></trkpt><trkpt lat="42.19314" lon="14.6086417"><ele>51.666666666666664</ele><time>2026-04-19T07:16:26.875Z</time></trkpt><trkpt lat="42.1931667" lon="14.60874"><ele>51.0</ele><time>2026-04-19T07:16:28.875Z</time></trkpt><trkpt lat="42.1931967" lon="14.608855"><ele>52.714285714285715</ele><time>2026-04-19T07:16:30.875Z</time></trkpt><trkpt lat="42.1932167" lon="14.608965"><ele>54.42857142857143</ele><time>2026-04-19T07:16:32.874Z</time></trkpt><trkpt lat="42.1932383" lon="14.60906"><ele>56.14285714285714</ele><time>2026-04-19T07:16:34.875Z</time></trkpt><trkpt lat="42.1932583" lon="14.6091517"><ele>57.85714285714286</ele><time>2026-04-19T07:16:36.875Z</time></trkpt><trkpt lat="42.19328" lon="14.609235"><ele>59.57142857142857</ele><time>2026-04-19T07:16:38.875Z</time></trkpt><trkpt lat="42.1933017" lon="14.6093233"><ele>61.285714285714285</ele><time>2026-04-19T07:16:40.875Z</time></trkpt><trkpt lat="42.19333" lon="14.6094033"><ele>63.0</ele><time>2026-04-19T07:16:42.875Z</time></trkpt><trkpt lat="42.1933667" lon="14.609475"><ele>62.85714285714286</ele><time>2026-04-19T07:16:44.875Z</time></trkpt><trkpt lat="42.193405" lon="14.60955"><ele>62.714285714285715</ele><time>2026-04-19T07:16:46.875Z</time></trkpt><trkpt lat="42.1934467" lon="14.6096233"><ele>62.57142857142857</ele><time>2026-04-19T07:16:48.875Z</time></trkpt><trkpt lat="42.193495" lon="14.6096967"><ele>62.42857142857143</ele><time>2026-04-19T07:16:50.875Z</time></trkpt><trkpt lat="42.19354" lon="14.6097633"><ele>62.28571428571429</ele><time>2026-04-19T07:16:52.874Z</time></trkpt><trkpt lat="42.193595" lon="14.6098283"><ele>62.142857142857146</ele><time>2026-04-19T07:16:54.875Z</time></trkpt><trkpt lat="42.1936483" lon="14.6098983"><ele>62.0</ele><time>2026-04-19T07:16:56.875Z</time></trkpt><trkpt lat="42.193695" lon="14.6099833"><ele>62.00000000000001</ele><time>2026-04-19T07:16:58.874Z</time></trkpt><trkpt lat="42.193745" lon="14.610085"><ele>62.0</ele><time>2026-04-19T07:17:00.875Z</time></trkpt><trkpt lat="42.1938017" lon="14.61018"><ele>62.0</ele><time>2026-04-19T07:17:02.875Z</time></trkpt><trkpt lat="42.1938517" lon="14.61026"><ele>62.0</ele><time>2026-04-19T07:17:04.874Z</time></trkpt><trkpt lat="42.1939" lon="14.6103417"><ele>62.00000000000001</ele><time>2026-04-19T07:17:06.874Z</time></trkpt><trkpt lat="42.19395" lon="14.61042"><ele>62.0</ele><time>2026-04-19T07:17:08.875Z</time></trkpt><trkpt lat="42.1940017" lon="14.610505"><ele>62.6</ele><time>2026-04-19T07:17:10.875Z</time></trkpt><trkpt lat="42.19406" lon="14.6105933"><ele>63.2</ele><time>2026-04-19T07:17:12.874Z</time></trkpt><trkpt lat="42.1941183" lon="14.6106817"><ele>63.8</ele><time>2026-04-19T07:17:14.875Z</time></trkpt><trkpt lat="42.194185" lon="14.610775"><ele>64.4</ele><time>2026-04-19T07:17:16.875Z</time></trkpt><trkpt lat="42.1942517" lon="14.6108633"><ele>65.0</ele><time>2026-04-19T07:17:18.874Z</time></trkpt><trkpt lat="42.1943217" lon="14.6109483"><ele>65.0</ele><time>2026-04-19T07:17:20.875Z</time></trkpt><trkpt lat="42.1943867" lon="14.6110417"><ele>65.0</ele><time>2026-04-19T07:17:22.874Z</time></trkpt><trkpt lat="42.194455" lon="14.61113"><ele>65.0</ele><time>2026-04-19T07:17:24.875Z</time></trkpt><trkpt lat="42.1945183" lon="14.611215"><ele>65.0</ele><time>2026-04-19T07:17:26.874Z</time></trkpt><trkpt lat="42.1945817" lon="14.6113017"><ele>65.0</ele><time>2026-04-19T07:17:28.875Z</time></trkpt><trkpt lat="42.1946433" lon="14.611395"><ele>64.8</ele><time>2026-04-19T07:17:30.875Z</time></trkpt><trkpt lat="42.1947067" lon="14.611485"><ele>64.6</ele><time>2026-04-19T07:17:32.874Z</time></trkpt><trkpt lat="42.194775" lon="14.6115767"><ele>64.4</ele><time>2026-04-19T07:17:34.875Z</time></trkpt><trkpt lat="42.1948383" lon="14.61167"><ele>64.2</ele><time>2026-04-19T07:17:36.875Z</time></trkpt><trkpt lat="42.1948967" lon="14.6117533"><ele>64.0</ele><time>2026-04-19T07:17:38.874Z</time></trkpt><trkpt lat="42.19496" lon="14.6118317"><ele>64.0</ele><time>2026-04-19T07:17:40.875Z</time></trkpt><trkpt lat="42.1950167" lon="14.6119083"><ele>64.0</ele><time>2026-04-19T07:17:42.875Z</time></trkpt><trkpt lat="42.19507" lon="14.6119783"><ele>64.0</ele><time>2026-04-19T07:17:44.874Z</time></trkpt><trkpt lat="42.1951317" lon="14.612075"><ele>64.0</ele><time>2026-04-19T07:17:46.875Z</time></trkpt><trkpt lat="42.1952017" lon="14.6121833"><ele>64.0</ele><time>2026-04-19T07:17:48.875Z</time></trkpt><trkpt lat="42.19528" lon="14.6122917"><ele>63.2</ele><time>2026-04-19T07:17:50.875Z</time></trkpt><trkpt lat="42.1953617" lon="14.61239"><ele>62.400000000000006</ele><time>2026-04-19T07:17:52.874Z</time></trkpt><trkpt lat="42.195445" lon="14.61249"><ele>61.6</ele><time>2026-04-19T07:17:54.875Z</time></trkpt><trkpt lat="42.1955217" lon="14.612595"><ele>60.8</ele><time>2026-04-19T07:17:56.874Z</time></trkpt><trkpt lat="42.1955967" lon="14.612685"><ele>60.0</ele><time>2026-04-19T07:17:58.875Z</time></trkpt><trkpt lat="42.1956617" lon="14.6127717"><ele>60.0</ele><time>2026-04-19T07:18:00.874Z</time></trkpt><trkpt lat="42.1957267" lon="14.6128617"><ele>60.0</ele><time>2026-04-19T07:18:02.875Z</time></trkpt><trkpt lat="42.1957917" lon="14.61294"><ele>60.0</ele><time>2026-04-19T07:18:04.875Z</time></trkpt><trkpt lat="42.195855" lon="14.61301"><ele>60.0</ele><time>2026-04-19T07:18:06.875Z</time></trkpt><trkpt lat="42.1959217" lon="14.61309"><ele>60.0</ele><time>2026-04-19T07:18:08.875Z</time></trkpt><trkpt lat="42.1959917" lon="14.6131667"><ele>60.0</ele><time>2026-04-19T07:18:10.875Z</time></trkpt><trkpt lat="42.19606" lon="14.6132667"><ele>60.0</ele><time>2026-04-19T07:18:12.875Z</time></trkpt><trkpt lat="42.1961267" lon="14.613365"><ele>60.0</ele><time>2026-04-19T07:18:14.875Z</time></trkpt><trkpt lat="42.1961983" lon="14.6134517"><ele>60.0</ele><time>2026-04-19T07:18:16.874Z</time></trkpt><trkpt lat="42.1962683" lon="14.6135367"><ele>60.0</ele><time>2026-04-19T07:18:18.875Z</time></trkpt><trkpt lat="42.1963433" lon="14.6136217"><ele>60.0</ele><time>2026-04-19T07:18:20.874Z</time></trkpt><trkpt lat="42.1964167" lon="14.6137017"><ele>60.0</ele><time>2026-04-19T07:18:22.875Z</time></trkpt><trkpt lat="42.1964817" lon="14.6137867"><ele>60.0</ele><time>2026-04-19T07:18:24.874Z</time></trkpt><trkpt lat="42.1965433" lon="14.61387"><ele>60.0</ele><time>2026-04-19T07:18:26.874Z</time></trkpt><trkpt lat="42.1966133" lon="14.613955"><ele>60.0</ele><time>2026-04-19T07:18:28.874Z</time></trkpt><trkpt lat="42.19669" lon="14.6140383"><ele>60.0</ele><time>2026-04-19T07:18:30.874Z</time></trkpt><trkpt lat="42.196765" lon="14.61412"><ele>60.0</ele><time>2026-04-19T07:18:32.874Z</time></trkpt><trkpt lat="42.1968433" lon="14.6142033"><ele>60.0</ele><time>2026-04-19T07:18:34.874Z</time></trkpt><trkpt lat="42.1969233" lon="14.61427"><ele>60.0</ele><time>2026-04-19T07:18:36.874Z</time></trkpt><trkpt lat="42.1970033" lon="14.614345"><ele>60.0</ele><time>2026-04-19T07:18:38.875Z</time></trkpt><trkpt lat="42.1970867" lon="14.6144083"><ele>60.0</ele><time>2026-04-19T07:18:40.874Z</time></trkpt><trkpt lat="42.1971717" lon="14.6144733"><ele>59.4</ele><time>2026-04-19T07:18:42.875Z</time></trkpt><trkpt lat="42.197255" lon="14.6145283"><ele>58.8</ele><time>2026-04-19T07:18:44.875Z</time></trkpt><trkpt lat="42.19735" lon="14.6145733"><ele>58.2</ele><time>2026-04-19T07:18:46.875Z</time></trkpt><trkpt lat="42.1974467" lon="14.61461"><ele>57.6</ele><time>2026-04-19T07:18:48.875Z</time></trkpt><trkpt lat="42.197555" lon="14.6146283"><ele>57.0</ele><time>2026-04-19T07:18:50.874Z</time></trkpt><trkpt lat="42.1976683" lon="14.61463"><ele>57.0</ele><time>2026-04-19T07:18:52.875Z</time></trkpt><trkpt lat="42.1977817" lon="14.614625"><ele>57.0</ele><time>2026-04-19T07:18:54.874Z</time></trkpt><trkpt lat="42.1978983" lon="14.6146183"><ele>57.0</ele><time>2026-04-19T07:18:56.874Z</time></trkpt><trkpt lat="42.19801" lon="14.6145983"><ele>57.0</ele><time>2026-04-19T07:18:58.875Z</time></trkpt><trkpt lat="42.1981183" lon="14.61458"><ele>56.0</ele><time>2026-04-19T07:19:00.875Z</time></trkpt><trkpt lat="42.198235" lon="14.61454"><ele>55.0</ele><time>2026-04-19T07:19:02.874Z</time></trkpt><trkpt lat="42.1982967" lon="14.6145117"><ele>54.0</ele><time>2026-04-19T07:19:03.875Z</time></trkpt><trkpt lat="42.1983583" lon="14.6144733"><ele>53.0</ele><time>2026-04-19T07:19:04.875Z</time></trkpt><trkpt lat="42.198415" lon="14.6144233"><ele>52.0</ele><time>2026-04-19T07:19:05.874Z</time></trkpt><trkpt lat="42.1984633" lon="14.6143683"><ele>51.0</ele><time>2026-04-19T07:19:06.875Z</time></trkpt><trkpt lat="42.1985033" lon="14.6142983"><ele>51.0</ele><time>2026-04-19T07:19:07.875Z</time></trkpt><trkpt lat="42.198535" lon="14.6142133"><ele>51.0</ele><time>2026-04-19T07:19:08.875Z</time></trkpt><trkpt lat="42.19856" lon="14.6141217"><ele>51.0</ele><time>2026-04-19T07:19:09.874Z</time></trkpt><trkpt lat="42.1985833" lon="14.6140183"><ele>51.0</ele><time>2026-04-19T07:19:10.875Z</time></trkpt><trkpt lat="42.198605" lon="14.6139117"><ele>51.0</ele><time>2026-04-19T07:19:11.875Z</time></trkpt><trkpt lat="42.1986233" lon="14.6138017"><ele>51.0</ele><time>2026-04-19T07:19:12.874Z</time></trkpt><trkpt lat="42.1986367" lon="14.6136867"><ele>50.833333333333336</ele><time>2026-04-19T07:19:13.875Z</time></trkpt><trkpt lat="42.1986433" lon="14.6135667"><ele>50.66666666666667</ele><time>2026-04-19T07:19:14.874Z</time></trkpt><trkpt lat="42.198645" lon="14.6134467"><ele>50.5</ele><time>2026-04-19T07:19:15.875Z</time></trkpt><trkpt lat="42.1986483" lon="14.6133267"><ele>50.333333333333336</ele><time>2026-04-19T07:19:16.875Z</time></trkpt><trkpt lat="42.1986467" lon="14.613205"><ele>50.16666666666667</ele><time>2026-04-19T07:19:17.875Z</time></trkpt><trkpt lat="42.198645" lon="14.6130817"><ele>50.0</ele><time>2026-04-19T07:19:18.874Z</time></trkpt><trkpt lat="42.1986383" lon="14.61296"><ele>50.00000000000001</ele><time>2026-04-19T07:19:19.875Z</time></trkpt><trkpt lat="42.1986317" lon="14.6128367"><ele>50.0</ele><time>2026-04-19T07:19:20.875Z</time></trkpt><trkpt lat="42.1986233" lon="14.6127233"><ele>50.0</ele><time>2026-04-19T07:19:21.874Z</time></trkpt><trkpt lat="42.198615" lon="14.6126217"><ele>50.0</ele><time>2026-04-19T07:19:22.874Z</time></trkpt><trkpt lat="42.1986067" lon="14.6125267"><ele>50.00000000000001</ele><time>2026-04-19T07:19:23.874Z</time></trkpt><trkpt lat="42.1985983" lon="14.6124367"><ele>50.0</ele><time>2026-04-19T07:19:24.875Z</time></trkpt><trkpt lat="42.1985967" lon="14.6123467"><ele>49.00000000000001</ele><time>2026-04-19T07:19:25.875Z</time></trkpt><trkpt lat="42.1986133" lon="14.6122583"><ele>48.0</ele><time>2026-04-19T07:19:26.875Z</time></trkpt><trkpt lat="42.1986517" lon="14.6121783"><ele>47.0</ele><time>2026-04-19T07:19:27.875Z</time></trkpt><trkpt lat="42.19871" lon="14.6121083"><ele>46.0</ele><time>2026-04-19T07:19:28.875Z</time></trkpt><trkpt lat="42.1987883" lon="14.6120633"><ele>45.0</ele><time>2026-04-19T07:19:29.874Z</time></trkpt><trkpt lat="42.1988783" lon="14.6120217"><ele>44.0</ele><time>2026-04-19T07:19:30.874Z</time></trkpt><trkpt lat="42.1989683" lon="14.611995"><ele>41.285714285714285</ele><time>2026-04-19T07:19:31.874Z</time></trkpt><trkpt lat="42.1990467" lon="14.611975"><ele>38.57142857142857</ele><time>2026-04-19T07:19:32.875Z</time></trkpt><trkpt lat="42.19912" lon="14.6119517"><ele>35.85714285714286</ele><time>2026-04-19T07:19:33.875Z</time></trkpt><trkpt lat="42.1991883" lon="14.611925"><ele>33.142857142857146</ele><time>2026-04-19T07:19:34.875Z</time></trkpt><trkpt lat="42.199255" lon="14.6118917"><ele>30.42857142857143</ele><time>2026-04-19T07:19:35.874Z</time></trkpt><trkpt lat="42.1993117" lon="14.6118483"><ele>27.714285714285715</ele><time>2026-04-19T07:19:36.875Z</time></trkpt><trkpt lat="42.199365" lon="14.6117867"><ele>25.0</ele><time>2026-04-19T07:19:37.874Z</time></trkpt><trkpt lat="42.19942" lon="14.6117"><ele>25.000000000000004</ele><time>2026-04-19T07:19:38.874Z</time></trkpt><trkpt lat="42.1994617" lon="14.6116017"><ele>25.0</ele><time>2026-04-19T07:19:39.875Z</time></trkpt><trkpt lat="42.1994983" lon="14.6115033"><ele>25.0</ele><time>2026-04-19T07:19:40.875Z</time></trkpt><trkpt lat="42.1995267" lon="14.6114083"><ele>25.0</ele><time>2026-04-19T07:19:41.875Z</time></trkpt><trkpt lat="42.1995483" lon="14.6113183"><ele>25.0</ele><time>2026-04-19T07:19:42.875Z</time></trkpt><trkpt lat="42.1995683" lon="14.6112267"><ele>25.000000000000004</ele><time>2026-04-19T07:19:43.874Z</time></trkpt><trkpt lat="42.1995833" lon="14.6111383"><ele>25.0</ele><time>2026-04-19T07:19:44.875Z</time></trkpt><trkpt lat="42.1996" lon="14.6110517"><ele>24.666666666666668</ele><time>2026-04-19T07:19:45.874Z</time></trkpt><trkpt lat="42.1996183" lon="14.6109683"><ele>24.333333333333336</ele><time>2026-04-19T07:19:46.875Z</time></trkpt><trkpt lat="42.1996633" lon="14.6108283"><ele>24.0</ele><time>2026-04-19T07:19:48.874Z</time></trkpt><trkpt lat="42.19972" lon="14.610725"><ele>23.666666666666668</ele><time>2026-04-19T07:19:50.874Z</time></trkpt><trkpt lat="42.1997667" lon="14.6106383"><ele>23.333333333333336</ele><time>2026-04-19T07:19:54.875Z</time></trkpt><trkpt lat="42.1997867" lon="14.6105183"><ele>23.0</ele><time>2026-04-19T07:19:57.875Z</time></trkpt><trkpt lat="42.19979" lon="14.61043"><ele>23.0</ele><time>2026-04-19T07:19:59.874Z</time></trkpt><trkpt lat="42.199775" lon="14.610335"><ele>23.0</ele><time>2026-04-19T07:20:01.875Z</time></trkpt><trkpt lat="42.19975" lon="14.6102283"><ele>23.0</ele><time>2026-04-19T07:20:03.874Z</time></trkpt><trkpt lat="42.1997183" lon="14.610115"><ele>23.0</ele><time>2026-04-19T07:20:05.875Z</time></trkpt><trkpt lat="42.199695" lon="14.61"><ele>23.0</ele><time>2026-04-19T07:20:07.875Z</time></trkpt><trkpt lat="42.1996717" lon="14.6098833"><ele>23.0</ele><time>2026-04-19T07:20:09.875Z</time></trkpt><trkpt lat="42.199645" lon="14.6097783"><ele>22.666666666666668</ele><time>2026-04-19T07:20:11.875Z</time></trkpt><trkpt lat="42.1996183" lon="14.6096667"><ele>22.333333333333336</ele><time>2026-04-19T07:20:13.874Z</time></trkpt><trkpt lat="42.1996" lon="14.6095533"><ele>22.0</ele><time>2026-04-19T07:20:15.874Z</time></trkpt><trkpt lat="42.19957" lon="14.6094417"><ele>21.666666666666668</ele><time>2026-04-19T07:20:17.875Z</time></trkpt><trkpt lat="42.1995467" lon="14.6093267"><ele>21.333333333333332</ele><time>2026-04-19T07:20:19.875Z</time></trkpt><trkpt lat="42.1995167" lon="14.6092133"><ele>21.0</ele><time>2026-04-19T07:20:21.875Z</time></trkpt><trkpt lat="42.1994867" lon="14.6090933"><ele>20.666666666666668</ele><time>2026-04-19T07:20:23.874Z</time></trkpt><trkpt lat="42.1994583" lon="14.6089717"><ele>20.333333333333332</ele><time>2026-04-19T07:20:25.874Z</time></trkpt><trkpt lat="42.1994317" lon="14.6088617"><ele>20.0</ele><time>2026-04-19T07:20:27.875Z</time></trkpt><trkpt lat="42.199415" lon="14.6087633"><ele>19.666666666666664</ele><time>2026-04-19T07:20:29.875Z</time></trkpt><trkpt lat="42.199395" lon="14.60866"><ele>19.333333333333332</ele><time>2026-04-19T07:20:31.875Z</time></trkpt><trkpt lat="42.1993767" lon="14.6085667"><ele>19.0</ele><time>2026-04-19T07:20:33.875Z</time></trkpt><trkpt lat="42.1993667" lon="14.6084733"><ele>18.0</ele><time>2026-04-19T07:20:35.874Z</time></trkpt><trkpt lat="42.1993483" lon="14.6083533"><ele>17.0</ele><time>2026-04-19T07:20:38.874Z</time></trkpt><trkpt lat="42.1993367" lon="14.6082333"><ele>15.999999999999998</ele><time>2026-04-19T07:20:41.874Z</time></trkpt><trkpt lat="42.1992533" lon="14.6080783"><ele>15.0</ele><time>2026-04-19T07:27:27.874Z</time></trkpt><trkpt lat="42.199225" lon="14.60798"><ele>14.0</ele><time>2026-04-19T07:27:31.874Z</time></trkpt><trkpt lat="42.1991983" lon="14.607865"><ele>13.833333333333334</ele><time>2026-04-19T07:27:34.874Z</time></trkpt><trkpt lat="42.19918" lon="14.6077833"><ele>13.666666666666668</ele><time>2026-04-19T07:27:36.874Z</time></trkpt><trkpt lat="42.1991517" lon="14.60767"><ele>13.5</ele><time>2026-04-19T07:27:39.874Z</time></trkpt><trkpt lat="42.1991317" lon="14.6075683"><ele>13.333333333333332</ele><time>2026-04-19T07:27:42.874Z</time></trkpt><trkpt lat="42.199135" lon="14.6074783"><ele>13.166666666666666</ele><time>2026-04-19T07:27:45.874Z</time></trkpt><trkpt lat="42.1991183" lon="14.6073833"><ele>13.0</ele><time>2026-04-19T07:33:11.876Z</time></trkpt><trkpt lat="42.19908" lon="14.6072817"><ele>12.999999999999998</ele><time>2026-04-19T07:33:15.875Z</time></trkpt><trkpt lat="42.1990517" lon="14.6071633"><ele>13.0</ele><time>2026-04-19T07:33:18.875Z</time></trkpt><trkpt lat="42.19903" lon="14.6070717"><ele>13.0</ele><time>2026-04-19T07:33:20.876Z</time></trkpt><trkpt lat="42.199005" lon="14.606975"><ele>13.0</ele><time>2026-04-19T07:33:22.875Z</time></trkpt><trkpt lat="42.19898" lon="14.6068717"><ele>12.999999999999998</ele><time>2026-04-19T07:33:24.875Z</time></trkpt><trkpt lat="42.1989483" lon="14.6067633"><ele>13.0</ele><time>2026-04-19T07:33:26.876Z</time></trkpt><trkpt lat="42.1989233" lon="14.6066567"><ele>13.999999999999998</ele><time>2026-04-19T07:33:28.875Z</time></trkpt><trkpt lat="42.1988983" lon="14.6065517"><ele>15.0</ele><time>2026-04-19T07:33:30.876Z</time></trkpt><trkpt lat="42.1988733" lon="14.6064433"><ele>16.0</ele><time>2026-04-19T07:33:32.876Z</time></trkpt><trkpt lat="42.19885" lon="14.606335"><ele>17.0</ele><time>2026-04-19T07:33:34.875Z</time></trkpt><trkpt lat="42.198825" lon="14.6062267"><ele>18.0</ele><time>2026-04-19T07:33:36.874Z</time></trkpt><trkpt lat="42.1988017" lon="14.6061183"><ele>19.0</ele><time>2026-04-19T07:33:38.875Z</time></trkpt><trkpt lat="42.1987717" lon="14.606015"><ele>19.2</ele><time>2026-04-19T07:33:40.874Z</time></trkpt><trkpt lat="42.198745" lon="14.6059"><ele>19.4</ele><time>2026-04-19T07:33:42.874Z</time></trkpt><trkpt lat="42.19872" lon="14.60578"><ele>19.6</ele><time>2026-04-19T07:33:44.875Z</time></trkpt><trkpt lat="42.1986983" lon="14.6056633"><ele>19.8</ele><time>2026-04-19T07:33:46.874Z</time></trkpt><trkpt lat="42.19868" lon="14.6055417"><ele>20.0</ele><time>2026-04-19T07:33:48.875Z</time></trkpt><trkpt lat="42.1986617" lon="14.605425"><ele>19.8</ele><time>2026-04-19T07:33:50.875Z</time></trkpt><trkpt lat="42.1986483" lon="14.6053067"><ele>19.6</ele><time>2026-04-19T07:33:52.875Z</time></trkpt><trkpt lat="42.1986367" lon="14.6051833"><ele>19.4</ele><time>2026-04-19T07:33:54.875Z</time></trkpt><trkpt lat="42.1986283" lon="14.6050617"><ele>19.2</ele><time>2026-04-19T07:33:56.875Z</time></trkpt><trkpt lat="42.19862" lon="14.6049417"><ele>19.0</ele><time>2026-04-19T07:33:58.875Z</time></trkpt><trkpt lat="42.198615" lon="14.6048167"><ele>19.0</ele><time>2026-04-19T07:34:00.874Z</time></trkpt><trkpt lat="42.1986133" lon="14.6046867"><ele>19.0</ele><time>2026-04-19T07:34:02.874Z</time></trkpt><trkpt lat="42.1986133" lon="14.6045567"><ele>19.0</ele><time>2026-04-19T07:34:04.874Z</time></trkpt><trkpt lat="42.19862" lon="14.6044283"><ele>19.0</ele><time>2026-04-19T07:34:06.874Z</time></trkpt><trkpt lat="42.198635" lon="14.6042983"><ele>19.0</ele><time>2026-04-19T07:34:08.875Z</time></trkpt><trkpt lat="42.1986483" lon="14.6041617"><ele>18.599999999999998</ele><time>2026-04-19T07:34:10.875Z</time></trkpt><trkpt lat="42.1986633" lon="14.6040233"><ele>18.2</ele><time>2026-04-19T07:34:12.875Z</time></trkpt><trkpt lat="42.1986833" lon="14.603875"><ele>17.799999999999997</ele><time>2026-04-19T07:34:14.875Z</time></trkpt><trkpt lat="42.1987033" lon="14.603725"><ele>17.4</ele><time>2026-04-19T07:34:16.875Z</time></trkpt><trkpt lat="42.1987233" lon="14.6035783"><ele>17.0</ele><time>2026-04-19T07:34:18.875Z</time></trkpt><trkpt lat="42.1987467" lon="14.6034333"><ele>17.0</ele><time>2026-04-19T07:34:20.875Z</time></trkpt><trkpt lat="42.1987667" lon="14.6032867"><ele>17.0</ele><time>2026-04-19T07:34:22.875Z</time></trkpt><trkpt lat="42.198785" lon="14.6031417"><ele>17.0</ele><time>2026-04-19T07:34:24.874Z</time></trkpt><trkpt lat="42.198805" lon="14.6029933"><ele>17.0</ele><time>2026-04-19T07:34:26.874Z</time></trkpt><trkpt lat="42.1988233" lon="14.6028533"><ele>17.0</ele><time>2026-04-19T07:34:28.875Z</time></trkpt><trkpt lat="42.198845" lon="14.6027133"><ele>16.6</ele><time>2026-04-19T07:34:30.875Z</time></trkpt><trkpt lat="42.19886" lon="14.6025733"><ele>16.2</ele><time>2026-04-19T07:34:32.875Z</time></trkpt><trkpt lat="42.198875" lon="14.6024317"><ele>15.8</ele><time>2026-04-19T07:34:34.874Z</time></trkpt><trkpt lat="42.1988933" lon="14.6022883"><ele>15.4</ele><time>2026-04-19T07:34:36.875Z</time></trkpt><trkpt lat="42.1989133" lon="14.6021517"><ele>15.0</ele><time>2026-04-19T07:34:38.875Z</time></trkpt><trkpt lat="42.198935" lon="14.602015"><ele>15.4</ele><time>2026-04-19T07:34:40.875Z</time></trkpt><trkpt lat="42.1989633" lon="14.6018733"><ele>15.8</ele><time>2026-04-19T07:34:42.875Z</time></trkpt><trkpt lat="42.1989883" lon="14.6017283"><ele>16.2</ele><time>2026-04-19T07:34:44.875Z</time></trkpt><trkpt lat="42.1990183" lon="14.6015833"><ele>16.6</ele><time>2026-04-19T07:34:46.874Z</time></trkpt><trkpt lat="42.199055" lon="14.6014367"><ele>17.0</ele><time>2026-04-19T07:34:48.875Z</time></trkpt><trkpt lat="42.1990883" lon="14.6013033"><ele>15.8</ele><time>2026-04-19T07:34:50.875Z</time></trkpt><trkpt lat="42.19913" lon="14.601165"><ele>14.6</ele><time>2026-04-19T07:34:52.875Z</time></trkpt><trkpt lat="42.1991767" lon="14.60103"><ele>13.4</ele><time>2026-04-19T07:34:54.874Z</time></trkpt><trkpt lat="42.19923" lon="14.6009"><ele>12.200000000000001</ele><time>2026-04-19T07:34:56.875Z</time></trkpt><trkpt lat="42.19929" lon="14.60078"><ele>11.0</ele><time>2026-04-19T07:34:58.875Z</time></trkpt><trkpt lat="42.199355" lon="14.6006633"><ele>11.0</ele><time>2026-04-19T07:35:00.875Z</time></trkpt><trkpt lat="42.1994233" lon="14.6005533"><ele>11.0</ele><time>2026-04-19T07:35:02.875Z</time></trkpt><trkpt lat="42.1994967" lon="14.6004517"><ele>11.0</ele><time>2026-04-19T07:35:04.875Z</time></trkpt><trkpt lat="42.1995717" lon="14.60034"><ele>11.0</ele><time>2026-04-19T07:35:06.874Z</time></trkpt><trkpt lat="42.1996583" lon="14.6002417"><ele>11.0</ele><time>2026-04-19T07:35:08.875Z</time></trkpt><trkpt lat="42.1997467" lon="14.6001483"><ele>10.4</ele><time>2026-04-19T07:35:10.875Z</time></trkpt><trkpt lat="42.19984" lon="14.6000617"><ele>9.8</ele><time>2026-04-19T07:35:12.875Z</time></trkpt><trkpt lat="42.1999333" lon="14.5999783"><ele>9.200000000000001</ele><time>2026-04-19T07:35:14.875Z</time></trkpt><trkpt lat="42.2000283" lon="14.5998933"><ele>8.600000000000001</ele><time>2026-04-19T07:35:16.875Z</time></trkpt><trkpt lat="42.20012" lon="14.5998117"><ele>8.0</ele><time>2026-04-19T07:35:18.875Z</time></trkpt><trkpt lat="42.2002067" lon="14.5997317"><ele>8.0</ele><time>2026-04-19T07:35:20.875Z</time></trkpt><trkpt lat="42.2002933" lon="14.599655"><ele>8.0</ele><time>2026-04-19T07:35:22.874Z</time></trkpt><trkpt lat="42.2003833" lon="14.5995783"><ele>8.0</ele><time>2026-04-19T07:35:24.875Z</time></trkpt><trkpt lat="42.200475" lon="14.5995033"><ele>8.0</ele><time>2026-04-19T07:35:26.875Z</time></trkpt><trkpt lat="42.200565" lon="14.5994233"><ele>8.0</ele><time>2026-04-19T07:35:28.875Z</time></trkpt><trkpt lat="42.200655" lon="14.59934"><ele>7.4</ele><time>2026-04-19T07:35:30.874Z</time></trkpt><trkpt lat="42.200745" lon="14.5992617"><ele>6.800000000000001</ele><time>2026-04-19T07:35:32.875Z</time></trkpt><trkpt lat="42.200835" lon="14.5991817"><ele>6.2</ele><time>2026-04-19T07:35:34.875Z</time></trkpt><trkpt lat="42.2009267" lon="14.5991"><ele>5.6</ele><time>2026-04-19T07:35:36.874Z</time></trkpt><trkpt lat="42.2010117" lon="14.5990217"><ele>5.0</ele><time>2026-04-19T07:35:38.874Z</time></trkpt><trkpt lat="42.201095" lon="14.5989517"><ele>5.0</ele><time>2026-04-19T07:35:40.874Z</time></trkpt><trkpt lat="42.201175" lon="14.5988833"><ele>5.0</ele><time>2026-04-19T07:35:42.875Z</time></trkpt><trkpt lat="42.20126" lon="14.5988117"><ele>5.0</ele><time>2026-04-19T07:35:44.874Z</time></trkpt><trkpt lat="42.2013433" lon="14.5987367"><ele>5.0</ele><time>2026-04-19T07:35:46.875Z</time></trkpt><trkpt lat="42.201425" lon="14.5986633"><ele>5.0</ele><time>2026-04-19T07:35:48.875Z</time></trkpt><trkpt lat="42.2015067" lon="14.5985933"><ele>5.2</ele><time>2026-04-19T07:35:50.875Z</time></trkpt><trkpt lat="42.2015917" lon="14.598525"><ele>5.4</ele><time>2026-04-19T07:35:52.875Z</time></trkpt><trkpt lat="42.20167" lon="14.5984567"><ele>5.6</ele><time>2026-04-19T07:35:54.874Z</time></trkpt><trkpt lat="42.2017467" lon="14.5983983"><ele>5.8</ele><time>2026-04-19T07:35:56.874Z</time></trkpt><trkpt lat="42.2018283" lon="14.5983383"><ele>6.0</ele><time>2026-04-19T07:35:58.874Z</time></trkpt><trkpt lat="42.2019083" lon="14.5982817"><ele>6.0</ele><time>2026-04-19T07:36:00.874Z</time></trkpt><trkpt lat="42.20199" lon="14.598225"><ele>6.0</ele><time>2026-04-19T07:36:02.875Z</time></trkpt><trkpt lat="42.2020733" lon="14.59817"><ele>6.0</ele><time>2026-04-19T07:36:04.875Z</time></trkpt><trkpt lat="42.2021567" lon="14.598115"><ele>6.0</ele><time>2026-04-19T07:36:06.874Z</time></trkpt><trkpt lat="42.202235" lon="14.5980583"><ele>6.0</ele><time>2026-04-19T07:36:08.874Z</time></trkpt><trkpt lat="42.2023167" lon="14.5979983"><ele>6.0</ele><time>2026-04-19T07:36:10.874Z</time></trkpt><trkpt lat="42.2024033" lon="14.5979467"><ele>6.0</ele><time>2026-04-19T07:36:12.874Z</time></trkpt><trkpt lat="42.2024883" lon="14.5978983"><ele>6.0</ele><time>2026-04-19T07:36:14.874Z</time></trkpt><trkpt lat="42.2025783" lon="14.5978467"><ele>6.0</ele><time>2026-04-19T07:36:16.875Z</time></trkpt><trkpt lat="42.2026667" lon="14.597795"><ele>6.0</ele><time>2026-04-19T07:36:18.875Z</time></trkpt><trkpt lat="42.20275" lon="14.59774"><ele>6.0</ele><time>2026-04-19T07:36:20.875Z</time></trkpt><trkpt lat="42.20284" lon="14.597685"><ele>6.0</ele><time>2026-04-19T07:36:22.875Z</time></trkpt><trkpt lat="42.20293" lon="14.5976283"><ele>6.0</ele><time>2026-04-19T07:36:24.875Z</time></trkpt><trkpt lat="42.20302" lon="14.597565"><ele>6.0</ele><time>2026-04-19T07:36:26.874Z</time></trkpt><trkpt lat="42.203115" lon="14.5975017"><ele>6.0</ele><time>2026-04-19T07:36:28.874Z</time></trkpt><trkpt lat="42.2032133" lon="14.597435"><ele>6.0</ele><time>2026-04-19T07:36:30.875Z</time></trkpt><trkpt lat="42.2033167" lon="14.5973667"><ele>6.0</ele><time>2026-04-19T07:36:32.875Z</time></trkpt><trkpt lat="42.2034233" lon="14.59729"><ele>6.0</ele><time>2026-04-19T07:36:34.875Z</time></trkpt><trkpt lat="42.20348" lon="14.59725"><ele>6.0</ele><time>2026-04-19T07:36:35.874Z</time></trkpt><trkpt lat="42.2035383" lon="14.59721"><ele>6.0</ele><time>2026-04-19T07:36:36.875Z</time></trkpt><trkpt lat="42.2036" lon="14.5971717"><ele>6.0</ele><time>2026-04-19T07:36:37.875Z</time></trkpt><trkpt lat="42.20366" lon="14.5971283"><ele>6.0</ele><time>2026-04-19T07:36:38.875Z</time></trkpt><trkpt lat="42.2037217" lon="14.5970833"><ele>6.0</ele><time>2026-04-19T07:36:39.874Z</time></trkpt><trkpt lat="42.203785" lon="14.5970467"><ele>6.0</ele><time>2026-04-19T07:36:40.874Z</time></trkpt><trkpt lat="42.203895" lon="14.5969767"><ele>6.0</ele><time>2026-04-19T07:36:42.875Z</time></trkpt><trkpt lat="42.203955" lon="14.596935"><ele>6.0</ele><time>2026-04-19T07:36:43.875Z</time></trkpt><trkpt lat="42.2040117" lon="14.596895"><ele>6.0</ele><time>2026-04-19T07:36:44.875Z</time></trkpt><trkpt lat="42.2041233" lon="14.5968217"><ele>6.199999999999999</ele><time>2026-04-19T07:36:46.874Z</time></trkpt><trkpt lat="42.20423" lon="14.5967583"><ele>6.3999999999999995</ele><time>2026-04-19T07:36:48.874Z</time></trkpt><trkpt lat="42.2043317" lon="14.5967333"><ele>6.6</ele><time>2026-04-19T07:36:50.874Z</time></trkpt><trkpt lat="42.2044317" lon="14.596715"><ele>6.8</ele><time>2026-04-19T07:36:52.875Z</time></trkpt><trkpt lat="42.2045267" lon="14.5966733"><ele>7.0</ele><time>2026-04-19T07:36:54.875Z</time></trkpt><trkpt lat="42.204605" lon="14.59658"><ele>7.0</ele><time>2026-04-19T07:36:56.874Z</time></trkpt><trkpt lat="42.204665" lon="14.5964933"><ele>6.999999999999999</ele><time>2026-04-19T07:36:58.875Z</time></trkpt><trkpt lat="42.2047383" lon="14.596435"><ele>6.999999999999999</ele><time>2026-04-19T07:37:00.874Z</time></trkpt><trkpt lat="42.204815" lon="14.5963783"><ele>7.0</ele><time>2026-04-19T07:37:02.875Z</time></trkpt><trkpt lat="42.2048967" lon="14.59632"><ele>7.0</ele><time>2026-04-19T07:37:04.875Z</time></trkpt><trkpt lat="42.204985" lon="14.5962567"><ele>7.833333333333334</ele><time>2026-04-19T07:37:06.875Z</time></trkpt><trkpt lat="42.2050667" lon="14.5962017"><ele>8.666666666666668</ele><time>2026-04-19T07:37:08.874Z</time></trkpt><trkpt lat="42.205145" lon="14.5961467"><ele>9.5</ele><time>2026-04-19T07:37:10.875Z</time></trkpt><trkpt lat="42.205225" lon="14.5960933"><ele>10.333333333333334</ele><time>2026-04-19T07:37:12.874Z</time></trkpt><trkpt lat="42.2053017" lon="14.596035"><ele>11.166666666666666</ele><time>2026-04-19T07:37:14.875Z</time></trkpt><trkpt lat="42.2053817" lon="14.5959767"><ele>12.0</ele><time>2026-04-19T07:37:16.875Z</time></trkpt><trkpt lat="42.2054617" lon="14.5959217"><ele>12.0</ele><time>2026-04-19T07:37:18.875Z</time></trkpt><trkpt lat="42.20554" lon="14.5958633"><ele>12.0</ele><time>2026-04-19T07:37:20.875Z</time></trkpt><trkpt lat="42.2056183" lon="14.595815"><ele>12.0</ele><time>2026-04-19T07:37:22.875Z</time></trkpt><trkpt lat="42.2057" lon="14.595765"><ele>12.0</ele><time>2026-04-19T07:37:24.875Z</time></trkpt><trkpt lat="42.2057817" lon="14.5957083"><ele>12.0</ele><time>2026-04-19T07:37:26.875Z</time></trkpt><trkpt lat="42.2058633" lon="14.5956617"><ele>12.0</ele><time>2026-04-19T07:37:28.874Z</time></trkpt><trkpt lat="42.2059467" lon="14.59561"><ele>12.0</ele><time>2026-04-19T07:37:30.875Z</time></trkpt><trkpt lat="42.2060267" lon="14.5955567"><ele>12.0</ele><time>2026-04-19T07:37:32.875Z</time></trkpt><trkpt lat="42.2061083" lon="14.5955017"><ele>12.0</ele><time>2026-04-19T07:37:34.875Z</time></trkpt><trkpt lat="42.20619" lon="14.5954483"><ele>12.0</ele><time>2026-04-19T07:37:36.875Z</time></trkpt><trkpt lat="42.2062667" lon="14.595395"><ele>12.0</ele><time>2026-04-19T07:37:38.875Z</time></trkpt><trkpt lat="42.2063467" lon="14.5953383"><ele>12.0</ele><time>2026-04-19T07:37:40.875Z</time></trkpt><trkpt lat="42.2064233" lon="14.5952917"><ele>12.833333333333334</ele><time>2026-04-19T07:37:42.875Z</time></trkpt><trkpt lat="42.206505" lon="14.5952417"><ele>13.666666666666668</ele><time>2026-04-19T07:37:44.875Z</time></trkpt><trkpt lat="42.2065833" lon="14.595185"><ele>14.5</ele><time>2026-04-19T07:37:46.875Z</time></trkpt><trkpt lat="42.20666" lon="14.5951383"><ele>15.333333333333334</ele><time>2026-04-19T07:37:48.875Z</time></trkpt><trkpt lat="42.206735" lon="14.5950917"><ele>16.166666666666668</ele><time>2026-04-19T07:37:50.874Z</time></trkpt><trkpt lat="42.20682" lon="14.5950433"><ele>17.0</ele><time>2026-04-19T07:37:52.875Z</time></trkpt><trkpt lat="42.2068983" lon="14.59499"><ele>17.0</ele><time>2026-04-19T07:37:54.875Z</time></trkpt><trkpt lat="42.2069783" lon="14.5949367"><ele>17.0</ele><time>2026-04-19T07:37:56.875Z</time></trkpt><trkpt lat="42.2070533" lon="14.59488"><ele>17.0</ele><time>2026-04-19T07:37:58.875Z</time></trkpt><trkpt lat="42.2071267" lon="14.594815"><ele>17.0</ele><time>2026-04-19T07:38:00.874Z</time></trkpt><trkpt lat="42.2072083" lon="14.5947583"><ele>17.0</ele><time>2026-04-19T07:38:02.875Z</time></trkpt><trkpt lat="42.2072833" lon="14.5946983"><ele>17.0</ele><time>2026-04-19T07:38:04.874Z</time></trkpt><trkpt lat="42.2073517" lon="14.5946283"><ele>17.8</ele><time>2026-04-19T07:38:06.875Z</time></trkpt><trkpt lat="42.207425" lon="14.5945533"><ele>18.6</ele><time>2026-04-19T07:38:08.875Z</time></trkpt><trkpt lat="42.2075033" lon="14.59448"><ele>19.400000000000002</ele><time>2026-04-19T07:38:10.874Z</time></trkpt><trkpt lat="42.207575" lon="14.59441"><ele>20.2</ele><time>2026-04-19T07:38:12.875Z</time></trkpt><trkpt lat="42.207645" lon="14.5943383"><ele>21.0</ele><time>2026-04-19T07:38:14.874Z</time></trkpt><trkpt lat="42.20772" lon="14.5942583"><ele>21.0</ele><time>2026-04-19T07:38:16.874Z</time></trkpt><trkpt lat="42.2077967" lon="14.5941867"><ele>21.0</ele><time>2026-04-19T07:38:18.874Z</time></trkpt><trkpt lat="42.2078633" lon="14.5941067"><ele>21.0</ele><time>2026-04-19T07:38:20.875Z</time></trkpt><trkpt lat="42.2079367" lon="14.5940267"><ele>21.0</ele><time>2026-04-19T07:38:22.875Z</time></trkpt><trkpt lat="42.208005" lon="14.5939483"><ele>21.0</ele><time>2026-04-19T07:38:24.874Z</time></trkpt><trkpt lat="42.2080733" lon="14.5938733"><ele>21.0</ele><time>2026-04-19T07:38:26.874Z</time></trkpt><trkpt lat="42.2081433" lon="14.5938033"><ele>21.0</ele><time>2026-04-19T07:38:28.875Z</time></trkpt><trkpt lat="42.208215" lon="14.593745"><ele>21.0</ele><time>2026-04-19T07:38:30.875Z</time></trkpt><trkpt lat="42.2082867" lon="14.593675"><ele>21.0</ele><time>2026-04-19T07:38:32.874Z</time></trkpt><trkpt lat="42.2083633" lon="14.5936033"><ele>21.0</ele><time>2026-04-19T07:38:34.874Z</time></trkpt><trkpt lat="42.2084283" lon="14.5935283"><ele>21.0</ele><time>2026-04-19T07:38:36.875Z</time></trkpt><trkpt lat="42.2084933" lon="14.5934567"><ele>20.666666666666668</ele><time>2026-04-19T07:38:38.875Z</time></trkpt><trkpt lat="42.208555" lon="14.5933917"><ele>20.333333333333332</ele><time>2026-04-19T07:38:40.875Z</time></trkpt><trkpt lat="42.2086083" lon="14.5933333"><ele>20.0</ele><time>2026-04-19T07:38:42.875Z</time></trkpt><trkpt lat="42.20869" lon="14.593235"><ele>19.666666666666664</ele><time>2026-04-19T07:38:44.875Z</time></trkpt><trkpt lat="42.2087533" lon="14.5931483"><ele>19.333333333333332</ele><time>2026-04-19T07:38:46.875Z</time></trkpt><trkpt lat="42.2088283" lon="14.5930717"><ele>19.0</ele><time>2026-04-19T07:38:48.874Z</time></trkpt><trkpt lat="42.2089033" lon="14.5929933"><ele>19.0</ele><time>2026-04-19T07:38:50.875Z</time></trkpt><trkpt lat="42.2089783" lon="14.5929"><ele>19.0</ele><time>2026-04-19T07:38:52.874Z</time></trkpt><trkpt lat="42.2090467" lon="14.5928333"><ele>19.0</ele><time>2026-04-19T07:38:54.875Z</time></trkpt><trkpt lat="42.209115" lon="14.5927517"><ele>19.0</ele><time>2026-04-19T07:38:56.875Z</time></trkpt><trkpt lat="42.20918" lon="14.5926617"><ele>19.0</ele><time>2026-04-19T07:38:58.875Z</time></trkpt><trkpt lat="42.209245" lon="14.5925833"><ele>20.0</ele><time>2026-04-19T07:39:00.875Z</time></trkpt><trkpt lat="42.2092967" lon="14.5924967"><ele>21.0</ele><time>2026-04-19T07:39:02.875Z</time></trkpt><trkpt lat="42.209365" lon="14.5923933"><ele>22.0</ele><time>2026-04-19T07:39:04.874Z</time></trkpt><trkpt lat="42.2094283" lon="14.59228"><ele>23.0</ele><time>2026-04-19T07:39:06.874Z</time></trkpt><trkpt lat="42.209485" lon="14.5921767"><ele>24.0</ele><time>2026-04-19T07:39:08.874Z</time></trkpt><trkpt lat="42.2095417" lon="14.592075"><ele>25.799999999999997</ele><time>2026-04-19T07:39:10.874Z</time></trkpt><trkpt lat="42.2096" lon="14.5919783"><ele>27.599999999999998</ele><time>2026-04-19T07:39:12.874Z</time></trkpt><trkpt lat="42.2096533" lon="14.5918717"><ele>29.4</ele><time>2026-04-19T07:39:14.874Z</time></trkpt><trkpt lat="42.20971" lon="14.59177"><ele>31.2</ele><time>2026-04-19T07:39:16.874Z</time></trkpt><trkpt lat="42.20977" lon="14.591665"><ele>33.0</ele><time>2026-04-19T07:39:18.875Z</time></trkpt><trkpt lat="42.209825" lon="14.5915567"><ele>31.0</ele><time>2026-04-19T07:39:20.875Z</time></trkpt><trkpt lat="42.2098867" lon="14.591425"><ele>28.999999999999996</ele><time>2026-04-19T07:39:22.875Z</time></trkpt><trkpt lat="42.20995" lon="14.5913217"><ele>27.0</ele><time>2026-04-19T07:39:24.875Z</time></trkpt><trkpt lat="42.2100133" lon="14.5912017"><ele>25.0</ele><time>2026-04-19T07:39:26.874Z</time></trkpt><trkpt lat="42.2100717" lon="14.5910867"><ele>23.0</ele><time>2026-04-19T07:39:28.875Z</time></trkpt><trkpt lat="42.2101317" lon="14.5909733"><ele>23.0</ele><time>2026-04-19T07:39:30.875Z</time></trkpt><trkpt lat="42.2101917" lon="14.5908583"><ele>23.0</ele><time>2026-04-19T07:39:32.875Z</time></trkpt><trkpt lat="42.2102567" lon="14.59074"><ele>23.0</ele><time>2026-04-19T07:39:34.875Z</time></trkpt><trkpt lat="42.2103167" lon="14.5906183"><ele>23.0</ele><time>2026-04-19T07:39:36.875Z</time></trkpt><trkpt lat="42.2103817" lon="14.5905067"><ele>23.0</ele><time>2026-04-19T07:39:38.875Z</time></trkpt><trkpt lat="42.2104483" lon="14.5903817"><ele>25.0</ele><time>2026-04-19T07:39:40.874Z</time></trkpt><trkpt lat="42.2105167" lon="14.5902617"><ele>27.0</ele><time>2026-04-19T07:39:42.875Z</time></trkpt><trkpt lat="42.2105817" lon="14.5901333"><ele>29.0</ele><time>2026-04-19T07:39:44.875Z</time></trkpt><trkpt lat="42.2106517" lon="14.59"><ele>31.0</ele><time>2026-04-19T07:39:46.875Z</time></trkpt><trkpt lat="42.210715" lon="14.58988"><ele>29.25</ele><time>2026-04-19T07:39:48.874Z</time></trkpt><trkpt lat="42.2107783" lon="14.589755"><ele>27.5</ele><time>2026-04-19T07:39:50.874Z</time></trkpt><trkpt lat="42.2108433" lon="14.5896317"><ele>25.75</ele><time>2026-04-19T07:39:52.874Z</time></trkpt><trkpt lat="42.21091" lon="14.5895017"><ele>24.0</ele><time>2026-04-19T07:39:54.875Z</time></trkpt><trkpt lat="42.21098" lon="14.5893817"><ele>24.0</ele><time>2026-04-19T07:39:56.874Z</time></trkpt><trkpt lat="42.2110383" lon="14.5892583"><ele>24.0</ele><time>2026-04-19T07:39:58.874Z</time></trkpt><trkpt lat="42.2111083" lon="14.5891333"><ele>24.0</ele><time>2026-04-19T07:40:00.875Z</time></trkpt><trkpt lat="42.2111767" lon="14.589"><ele>24.0</ele><time>2026-04-19T07:40:02.875Z</time></trkpt><trkpt lat="42.2112417" lon="14.5888733"><ele>24.0</ele><time>2026-04-19T07:40:04.875Z</time></trkpt><trkpt lat="42.2113117" lon="14.5887467"><ele>24.0</ele><time>2026-04-19T07:40:06.875Z</time></trkpt><trkpt lat="42.2113733" lon="14.5886217"><ele>24.0</ele><time>2026-04-19T07:40:08.875Z</time></trkpt><trkpt lat="42.2114433" lon="14.58849"><ele>24.0</ele><time>2026-04-19T07:40:10.875Z</time></trkpt><trkpt lat="42.211475" lon="14.588415"><ele>24.0</ele><time>2026-04-19T07:40:11.874Z</time></trkpt><trkpt lat="42.21153" lon="14.5882833"><ele>23.333333333333332</ele><time>2026-04-19T07:40:13.875Z</time></trkpt><trkpt lat="42.2115833" lon="14.588145"><ele>22.666666666666668</ele><time>2026-04-19T07:40:15.875Z</time></trkpt><trkpt lat="42.21161" lon="14.5880667"><ele>22.0</ele><time>2026-04-19T07:40:16.875Z</time></trkpt><trkpt lat="42.21167" lon="14.5879217"><ele>21.333333333333336</ele><time>2026-04-19T07:40:18.875Z</time></trkpt><trkpt lat="42.2117" lon="14.5878433"><ele>20.666666666666668</ele><time>2026-04-19T07:40:19.875Z</time></trkpt><trkpt lat="42.21173" lon="14.587765"><ele>20.0</ele><time>2026-04-19T07:40:20.875Z</time></trkpt><trkpt lat="42.2117917" lon="14.58762"><ele>20.0</ele><time>2026-04-19T07:40:22.875Z</time></trkpt><trkpt lat="42.2118433" lon="14.5874733"><ele>20.0</ele><time>2026-04-19T07:40:24.875Z</time></trkpt><trkpt lat="42.211905" lon="14.5873267"><ele>20.0</ele><time>2026-04-19T07:40:26.874Z</time></trkpt><trkpt lat="42.21197" lon="14.58719"><ele>20.0</ele><time>2026-04-19T07:40:28.875Z</time></trkpt><trkpt lat="42.2120367" lon="14.5870533"><ele>21.0</ele><time>2026-04-19T07:40:30.875Z</time></trkpt><trkpt lat="42.2121033" lon="14.5869283"><ele>22.0</ele><time>2026-04-19T07:40:32.875Z</time></trkpt><trkpt lat="42.2121633" lon="14.5868033"><ele>23.0</ele><time>2026-04-19T07:40:34.874Z</time></trkpt><trkpt lat="42.2122267" lon="14.5866867"><ele>24.0</ele><time>2026-04-19T07:40:36.875Z</time></trkpt><trkpt lat="42.21229" lon="14.5865783"><ele>25.0</ele><time>2026-04-19T07:40:38.875Z</time></trkpt><trkpt lat="42.2123517" lon="14.5864633"><ele>23.2</ele><time>2026-04-19T07:40:40.875Z</time></trkpt><trkpt lat="42.2124133" lon="14.5863517"><ele>21.4</ele><time>2026-04-19T07:40:42.875Z</time></trkpt><trkpt lat="42.212475" lon="14.58624"><ele>19.6</ele><time>2026-04-19T07:40:44.875Z</time></trkpt><trkpt lat="42.2125333" lon="14.5861367"><ele>17.8</ele><time>2026-04-19T07:40:46.875Z</time></trkpt><trkpt lat="42.2125933" lon="14.5860367"><ele>16.0</ele><time>2026-04-19T07:40:48.874Z</time></trkpt><trkpt lat="42.2126567" lon="14.5859433"><ele>16.0</ele><time>2026-04-19T07:40:50.874Z</time></trkpt><trkpt lat="42.2127167" lon="14.5858333"><ele>16.0</ele><time>2026-04-19T07:40:52.875Z</time></trkpt><trkpt lat="42.212775" lon="14.5857233"><ele>16.0</ele><time>2026-04-19T07:40:54.875Z</time></trkpt><trkpt lat="42.21283" lon="14.5856083"><ele>16.0</ele><time>2026-04-19T07:40:56.874Z</time></trkpt><trkpt lat="42.212885" lon="14.5855017"><ele>16.0</ele><time>2026-04-19T07:40:58.875Z</time></trkpt><trkpt lat="42.21293" lon="14.5853867"><ele>15.200000000000001</ele><time>2026-04-19T07:41:00.874Z</time></trkpt><trkpt lat="42.2129783" lon="14.5852633"><ele>14.400000000000002</ele><time>2026-04-19T07:41:02.874Z</time></trkpt><trkpt lat="42.21302" lon="14.5851417"><ele>13.6</ele><time>2026-04-19T07:41:04.874Z</time></trkpt><trkpt lat="42.2130733" lon="14.5850067"><ele>12.8</ele><time>2026-04-19T07:41:06.874Z</time></trkpt><trkpt lat="42.2131217" lon="14.58487"><ele>12.0</ele><time>2026-04-19T07:41:08.875Z</time></trkpt><trkpt lat="42.2131683" lon="14.58474"><ele>12.0</ele><time>2026-04-19T07:41:10.875Z</time></trkpt><trkpt lat="42.2132117" lon="14.5846133"><ele>12.0</ele><time>2026-04-19T07:41:12.874Z</time></trkpt><trkpt lat="42.213255" lon="14.5844883"><ele>12.0</ele><time>2026-04-19T07:41:14.874Z</time></trkpt><trkpt lat="42.2133" lon="14.584365"><ele>12.0</ele><time>2026-04-19T07:41:16.874Z</time></trkpt><trkpt lat="42.2133467" lon="14.5842483"><ele>12.0</ele><time>2026-04-19T07:41:18.875Z</time></trkpt><trkpt lat="42.2133883" lon="14.5841383"><ele>14.0</ele><time>2026-04-19T07:41:20.874Z</time></trkpt><trkpt lat="42.2134317" lon="14.584025"><ele>16.0</ele><time>2026-04-19T07:41:22.875Z</time></trkpt><trkpt lat="42.2134783" lon="14.5839033"><ele>18.0</ele><time>2026-04-19T07:41:24.874Z</time></trkpt><trkpt lat="42.2135267" lon="14.5837933"><ele>20.0</ele><time>2026-04-19T07:41:26.875Z</time></trkpt><trkpt lat="42.21357" lon="14.5836783"><ele>22.0</ele><time>2026-04-19T07:41:28.875Z</time></trkpt><trkpt lat="42.213615" lon="14.5835567"><ele>22.6</ele><time>2026-04-19T07:41:30.874Z</time></trkpt><trkpt lat="42.21366" lon="14.5834383"><ele>23.200000000000003</ele><time>2026-04-19T07:41:32.875Z</time></trkpt><trkpt lat="42.2137067" lon="14.5833217"><ele>23.8</ele><time>2026-04-19T07:41:34.875Z</time></trkpt><trkpt lat="42.21376" lon="14.5832083"><ele>24.4</ele><time>2026-04-19T07:41:36.874Z</time></trkpt><trkpt lat="42.213815" lon="14.5830883"><ele>25.0</ele><time>2026-04-19T07:41:38.875Z</time></trkpt><trkpt lat="42.213875" lon="14.5829733"><ele>25.0</ele><time>2026-04-19T07:41:40.875Z</time></trkpt><trkpt lat="42.2139333" lon="14.582865"><ele>25.0</ele><time>2026-04-19T07:41:42.874Z</time></trkpt><trkpt lat="42.213985" lon="14.5827567"><ele>25.0</ele><time>2026-04-19T07:41:44.875Z</time></trkpt><trkpt lat="42.2140417" lon="14.5826467"><ele>25.0</ele><time>2026-04-19T07:41:46.875Z</time></trkpt><trkpt lat="42.2140917" lon="14.5825317"><ele>25.0</ele><time>2026-04-19T07:41:48.875Z</time></trkpt><trkpt lat="42.21415" lon="14.5824217"><ele>25.0</ele><time>2026-04-19T07:41:50.875Z</time></trkpt><trkpt lat="42.2142083" lon="14.5823067"><ele>25.0</ele><time>2026-04-19T07:41:52.875Z</time></trkpt><trkpt lat="42.2142667" lon="14.5822"><ele>25.0</ele><time>2026-04-19T07:41:54.875Z</time></trkpt><trkpt lat="42.2143233" lon="14.58209"><ele>25.0</ele><time>2026-04-19T07:41:56.875Z</time></trkpt><trkpt lat="42.2143683" lon="14.5819783"><ele>25.0</ele><time>2026-04-19T07:41:58.874Z</time></trkpt><trkpt lat="42.2144267" lon="14.5818717"><ele>25.0</ele><time>2026-04-19T07:42:00.875Z</time></trkpt><trkpt lat="42.21449" lon="14.5817633"><ele>25.0</ele><time>2026-04-19T07:42:02.875Z</time></trkpt><trkpt lat="42.21455" lon="14.5816467"><ele>25.0</ele><time>2026-04-19T07:42:04.875Z</time></trkpt><trkpt lat="42.21461" lon="14.5815283"><ele>25.0</ele><time>2026-04-19T07:42:06.874Z</time></trkpt><trkpt lat="42.2146667" lon="14.5814117"><ele>25.0</ele><time>2026-04-19T07:42:08.874Z</time></trkpt><trkpt lat="42.21473" lon="14.5812967"><ele>23.8</ele><time>2026-04-19T07:42:10.875Z</time></trkpt><trkpt lat="42.2147883" lon="14.58118"><ele>22.6</ele><time>2026-04-19T07:42:12.875Z</time></trkpt><trkpt lat="42.2148433" lon="14.5810567"><ele>21.4</ele><time>2026-04-19T07:42:14.875Z</time></trkpt><trkpt lat="42.2149033" lon="14.580945"><ele>20.2</ele><time>2026-04-19T07:42:16.874Z</time></trkpt><trkpt lat="42.21496" lon="14.5808383"><ele>19.0</ele><time>2026-04-19T07:42:18.874Z</time></trkpt><trkpt lat="42.2150167" lon="14.5807317"><ele>19.0</ele><time>2026-04-19T07:42:20.874Z</time></trkpt><trkpt lat="42.21507" lon="14.5806267"><ele>19.0</ele><time>2026-04-19T07:42:22.875Z</time></trkpt><trkpt lat="42.2151283" lon="14.5805233"><ele>19.0</ele><time>2026-04-19T07:42:24.875Z</time></trkpt><trkpt lat="42.2151883" lon="14.5804217"><ele>19.0</ele><time>2026-04-19T07:42:26.874Z</time></trkpt><trkpt lat="42.2152417" lon="14.5803067"><ele>19.0</ele><time>2026-04-19T07:42:28.874Z</time></trkpt><trkpt lat="42.2153" lon="14.5801883"><ele>19.799999999999997</ele><time>2026-04-19T07:42:30.874Z</time></trkpt><trkpt lat="42.2153583" lon="14.5800733"><ele>20.599999999999998</ele><time>2026-04-19T07:42:32.875Z</time></trkpt><trkpt lat="42.2154183" lon="14.5799567"><ele>21.4</ele><time>2026-04-19T07:42:34.875Z</time></trkpt><trkpt lat="42.2154783" lon="14.5798483"><ele>22.2</ele><time>2026-04-19T07:42:36.874Z</time></trkpt><trkpt lat="42.2155283" lon="14.579745"><ele>23.0</ele><time>2026-04-19T07:42:38.875Z</time></trkpt><trkpt lat="42.21559" lon="14.57963"><ele>23.0</ele><time>2026-04-19T07:42:40.874Z</time></trkpt><trkpt lat="42.2156467" lon="14.57952"><ele>23.0</ele><time>2026-04-19T07:42:42.875Z</time></trkpt><trkpt lat="42.215705" lon="14.5794117"><ele>23.0</ele><time>2026-04-19T07:42:44.875Z</time></trkpt><trkpt lat="42.2157567" lon="14.5793"><ele>23.0</ele><time>2026-04-19T07:42:46.874Z</time></trkpt><trkpt lat="42.2158167" lon="14.5791867"><ele>23.0</ele><time>2026-04-19T07:42:48.875Z</time></trkpt><trkpt lat="42.2158767" lon="14.5790883"><ele>22.799999999999997</ele><time>2026-04-19T07:42:50.874Z</time></trkpt><trkpt lat="42.215935" lon="14.5789633"><ele>22.6</ele><time>2026-04-19T07:42:52.874Z</time></trkpt><trkpt lat="42.2159883" lon="14.5788383"><ele>22.4</ele><time>2026-04-19T07:42:54.875Z</time></trkpt><trkpt lat="42.2160467" lon="14.5787283"><ele>22.200000000000003</ele><time>2026-04-19T07:42:56.875Z</time></trkpt><trkpt lat="42.2161083" lon="14.57862"><ele>22.0</ele><time>2026-04-19T07:42:58.875Z</time></trkpt><trkpt lat="42.2161667" lon="14.5785"><ele>22.0</ele><time>2026-04-19T07:43:00.875Z</time></trkpt><trkpt lat="42.2162233" lon="14.578385"><ele>22.0</ele><time>2026-04-19T07:43:02.875Z</time></trkpt><trkpt lat="42.21628" lon="14.5782617"><ele>22.0</ele><time>2026-04-19T07:43:04.874Z</time></trkpt><trkpt lat="42.21634" lon="14.5781433"><ele>22.0</ele><time>2026-04-19T07:43:06.875Z</time></trkpt><trkpt lat="42.2163967" lon="14.5780283"><ele>22.0</ele><time>2026-04-19T07:43:08.874Z</time></trkpt><trkpt lat="42.216455" lon="14.5779133"><ele>21.6</ele><time>2026-04-19T07:43:10.874Z</time></trkpt><trkpt lat="42.216515" lon="14.577795"><ele>21.200000000000003</ele><time>2026-04-19T07:43:12.875Z</time></trkpt><trkpt lat="42.216575" lon="14.577675"><ele>20.8</ele><time>2026-04-19T07:43:14.875Z</time></trkpt><trkpt lat="42.2166333" lon="14.5775567"><ele>20.4</ele><time>2026-04-19T07:43:16.874Z</time></trkpt><trkpt lat="42.21669" lon="14.57744"><ele>20.0</ele><time>2026-04-19T07:43:18.875Z</time></trkpt><trkpt lat="42.2167467" lon="14.57733"><ele>20.0</ele><time>2026-04-19T07:43:20.875Z</time></trkpt><trkpt lat="42.2168067" lon="14.5772233"><ele>20.0</ele><time>2026-04-19T07:43:22.874Z</time></trkpt><trkpt lat="42.2168533" lon="14.5771067"><ele>20.0</ele><time>2026-04-19T07:43:24.874Z</time></trkpt><trkpt lat="42.216895" lon="14.5769783"><ele>20.0</ele><time>2026-04-19T07:43:26.875Z</time></trkpt><trkpt lat="42.2169233" lon="14.5768483"><ele>20.0</ele><time>2026-04-19T07:43:28.875Z</time></trkpt><trkpt lat="42.2169433" lon="14.5767217"><ele>22.5</ele><time>2026-04-19T07:43:30.875Z</time></trkpt><trkpt lat="42.2169617" lon="14.576575"><ele>25.0</ele><time>2026-04-19T07:43:32.875Z</time></trkpt><trkpt lat="42.2169717" lon="14.576425"><ele>27.5</ele><time>2026-04-19T07:43:34.875Z</time></trkpt><trkpt lat="42.2169833" lon="14.576265"><ele>30.0</ele><time>2026-04-19T07:43:36.874Z</time></trkpt><trkpt lat="42.2169933" lon="14.5761117"><ele>30.0</ele><time>2026-04-19T07:43:38.875Z</time></trkpt><trkpt lat="42.216995" lon="14.5759617"><ele>30.0</ele><time>2026-04-19T07:43:40.875Z</time></trkpt><trkpt lat="42.2170067" lon="14.5758117"><ele>30.0</ele><time>2026-04-19T07:43:42.875Z</time></trkpt><trkpt lat="42.2170233" lon="14.5756633"><ele>30.0</ele><time>2026-04-19T07:43:44.875Z</time></trkpt><trkpt lat="42.21705" lon="14.5755167"><ele>30.0</ele><time>2026-04-19T07:43:46.875Z</time></trkpt><trkpt lat="42.21709" lon="14.5753817"><ele>30.2</ele><time>2026-04-19T07:43:48.874Z</time></trkpt><trkpt lat="42.2171467" lon="14.5752617"><ele>30.4</ele><time>2026-04-19T07:43:50.874Z</time></trkpt><trkpt lat="42.21722" lon="14.575155"><ele>30.6</ele><time>2026-04-19T07:43:52.874Z</time></trkpt><trkpt lat="42.217295" lon="14.575055"><ele>30.8</ele><time>2026-04-19T07:43:54.874Z</time></trkpt><trkpt lat="42.2173817" lon="14.5749583"><ele>31.0</ele><time>2026-04-19T07:43:56.874Z</time></trkpt><trkpt lat="42.2174733" lon="14.5748617"><ele>30.0</ele><time>2026-04-19T07:43:58.875Z</time></trkpt><trkpt lat="42.217565" lon="14.5747667"><ele>29.0</ele><time>2026-04-19T07:44:00.874Z</time></trkpt><trkpt lat="42.2176567" lon="14.5746717"><ele>28.0</ele><time>2026-04-19T07:44:02.875Z</time></trkpt><trkpt lat="42.2177367" lon="14.574575"><ele>27.0</ele><time>2026-04-19T07:44:04.875Z</time></trkpt><trkpt lat="42.217825" lon="14.574465"><ele>27.0</ele><time>2026-04-19T07:44:06.875Z</time></trkpt><trkpt lat="42.217905" lon="14.574345"><ele>27.0</ele><time>2026-04-19T07:44:08.875Z</time></trkpt><trkpt lat="42.21798" lon="14.5742217"><ele>27.0</ele><time>2026-04-19T07:44:10.875Z</time></trkpt><trkpt lat="42.21804" lon="14.5740833"><ele>27.0</ele><time>2026-04-19T07:44:12.874Z</time></trkpt><trkpt lat="42.2181" lon="14.5739367"><ele>25.666666666666668</ele><time>2026-04-19T07:44:14.875Z</time></trkpt><trkpt lat="42.2181583" lon="14.5737933"><ele>24.333333333333332</ele><time>2026-04-19T07:44:16.874Z</time></trkpt><trkpt lat="42.2182183" lon="14.57365"><ele>23.0</ele><time>2026-04-19T07:44:18.875Z</time></trkpt><trkpt lat="42.2182483" lon="14.5735733"><ele>21.666666666666664</ele><time>2026-04-19T07:44:19.875Z</time></trkpt><trkpt lat="42.2182783" lon="14.573495"><ele>20.333333333333332</ele><time>2026-04-19T07:44:20.875Z</time></trkpt><trkpt lat="42.21831" lon="14.5734183"><ele>19.0</ele><time>2026-04-19T07:44:21.875Z</time></trkpt><trkpt lat="42.2183667" lon="14.573275"><ele>19.0</ele><time>2026-04-19T07:44:23.875Z</time></trkpt><trkpt lat="42.218425" lon="14.5731333"><ele>19.0</ele><time>2026-04-19T07:44:25.874Z</time></trkpt><trkpt lat="42.2184817" lon="14.5729933"><ele>19.0</ele><time>2026-04-19T07:44:27.875Z</time></trkpt><trkpt lat="42.21851" lon="14.5729167"><ele>19.0</ele><time>2026-04-19T07:44:28.875Z</time></trkpt><trkpt lat="42.2185633" lon="14.572765"><ele>19.0</ele><time>2026-04-19T07:44:30.874Z</time></trkpt><trkpt lat="42.218595" lon="14.5726883"><ele>19.25</ele><time>2026-04-19T07:44:31.874Z</time></trkpt><trkpt lat="42.218655" lon="14.5725517"><ele>19.5</ele><time>2026-04-19T07:44:33.874Z</time></trkpt><trkpt lat="42.2187133" lon="14.572405"><ele>19.75</ele><time>2026-04-19T07:44:35.875Z</time></trkpt><trkpt lat="42.2187767" lon="14.5722617"><ele>20.0</ele><time>2026-04-19T07:44:37.874Z</time></trkpt><trkpt lat="42.21884" lon="14.5721183"><ele>19.4</ele><time>2026-04-19T07:44:39.874Z</time></trkpt><trkpt lat="42.2189167" lon="14.5719883"><ele>18.8</ele><time>2026-04-19T07:44:41.875Z</time></trkpt><trkpt lat="42.21899" lon="14.5718583"><ele>18.2</ele><time>2026-04-19T07:44:43.874Z</time></trkpt><trkpt lat="42.21907" lon="14.5717283"><ele>17.6</ele><time>2026-04-19T07:44:45.875Z</time></trkpt><trkpt lat="42.2191133" lon="14.5716633"><ele>17.0</ele><time>2026-04-19T07:44:46.874Z</time></trkpt><trkpt lat="42.2192017" lon="14.5715433"><ele>17.0</ele><time>2026-04-19T07:44:48.874Z</time></trkpt><trkpt lat="42.21928" lon="14.5714183"><ele>17.0</ele><time>2026-04-19T07:44:50.875Z</time></trkpt><trkpt lat="42.2193617" lon="14.5713"><ele>17.0</ele><time>2026-04-19T07:44:52.874Z</time></trkpt><trkpt lat="42.21944" lon="14.5711833"><ele>17.0</ele><time>2026-04-19T07:44:54.874Z</time></trkpt><trkpt lat="42.2195217" lon="14.5710617"><ele>16.428571428571427</ele><time>2026-04-19T07:44:56.875Z</time></trkpt><trkpt lat="42.219595" lon="14.5709583"><ele>15.857142857142858</ele><time>2026-04-19T07:44:58.874Z</time></trkpt><trkpt lat="42.2196383" lon="14.5708933"><ele>15.285714285714285</ele><time>2026-04-19T07:44:59.875Z</time></trkpt><trkpt lat="42.2196867" lon="14.57083"><ele>14.714285714285714</ele><time>2026-04-19T07:45:00.875Z</time></trkpt><trkpt lat="42.2197333" lon="14.5707567"><ele>14.142857142857142</ele><time>2026-04-19T07:45:01.875Z</time></trkpt><trkpt lat="42.2197817" lon="14.570695"><ele>13.571428571428571</ele><time>2026-04-19T07:45:02.875Z</time></trkpt><trkpt lat="42.2198317" lon="14.5706317"><ele>13.0</ele><time>2026-04-19T07:45:03.874Z</time></trkpt><trkpt lat="42.21988" lon="14.5705717"><ele>12.999999999999998</ele><time>2026-04-19T07:45:04.875Z</time></trkpt><trkpt lat="42.2199283" lon="14.570505"><ele>13.0</ele><time>2026-04-19T07:45:05.874Z</time></trkpt><trkpt lat="42.219975" lon="14.5704433"><ele>13.0</ele><time>2026-04-19T07:45:06.874Z</time></trkpt><trkpt lat="42.2200233" lon="14.5703767"><ele>13.0</ele><time>2026-04-19T07:45:07.875Z</time></trkpt><trkpt lat="42.22007" lon="14.5703067"><ele>12.999999999999998</ele><time>2026-04-19T07:45:08.875Z</time></trkpt><trkpt lat="42.2201117" lon="14.5702383"><ele>13.0</ele><time>2026-04-19T07:45:09.874Z</time></trkpt><trkpt lat="42.2201917" lon="14.570115"><ele>14.0</ele><time>2026-04-19T07:45:11.874Z</time></trkpt><trkpt lat="42.2202317" lon="14.5700467"><ele>15.0</ele><time>2026-04-19T07:45:12.875Z</time></trkpt><trkpt lat="42.220275" lon="14.5699783"><ele>16.0</ele><time>2026-04-19T07:45:13.875Z</time></trkpt><trkpt lat="42.2203517" lon="14.5698467"><ele>17.0</ele><time>2026-04-19T07:45:15.875Z</time></trkpt><trkpt lat="42.220425" lon="14.5697067"><ele>18.0</ele><time>2026-04-19T07:45:17.875Z</time></trkpt><trkpt lat="42.2204633" lon="14.5696267"><ele>18.000000000000004</ele><time>2026-04-19T07:45:18.875Z</time></trkpt><trkpt lat="42.2205017" lon="14.5695483"><ele>18.0</ele><time>2026-04-19T07:45:19.874Z</time></trkpt><trkpt lat="42.2205383" lon="14.5694667"><ele>18.0</ele><time>2026-04-19T07:45:20.875Z</time></trkpt><trkpt lat="42.220575" lon="14.5693867"><ele>18.0</ele><time>2026-04-19T07:45:21.875Z</time></trkpt><trkpt lat="42.2206083" lon="14.5693117"><ele>18.0</ele><time>2026-04-19T07:45:22.875Z</time></trkpt><trkpt lat="42.22064" lon="14.5692367"><ele>18.000000000000004</ele><time>2026-04-19T07:45:23.875Z</time></trkpt><trkpt lat="42.22068" lon="14.56916"><ele>18.0</ele><time>2026-04-19T07:45:24.875Z</time></trkpt><trkpt lat="42.2207183" lon="14.5690783"><ele>17.28571428571429</ele><time>2026-04-19T07:45:25.875Z</time></trkpt><trkpt lat="42.22075" lon="14.5689967"><ele>16.571428571428573</ele><time>2026-04-19T07:45:26.875Z</time></trkpt><trkpt lat="42.2207867" lon="14.5689167"><ele>15.857142857142858</ele><time>2026-04-19T07:45:27.875Z</time></trkpt><trkpt lat="42.2208233" lon="14.568835"><ele>15.142857142857144</ele><time>2026-04-19T07:45:28.875Z</time></trkpt><trkpt lat="42.2208633" lon="14.568755"><ele>14.42857142857143</ele><time>2026-04-19T07:45:29.875Z</time></trkpt><trkpt lat="42.2209017" lon="14.568675"><ele>13.714285714285714</ele><time>2026-04-19T07:45:30.874Z</time></trkpt><trkpt lat="42.2209367" lon="14.568595"><ele>13.0</ele><time>2026-04-19T07:45:31.875Z</time></trkpt><trkpt lat="42.2209683" lon="14.5685117"><ele>13.0</ele><time>2026-04-19T07:45:32.875Z</time></trkpt><trkpt lat="42.221" lon="14.5684317"><ele>13.0</ele><time>2026-04-19T07:45:33.874Z</time></trkpt><trkpt lat="42.2210317" lon="14.5683567"><ele>13.0</ele><time>2026-04-19T07:45:34.875Z</time></trkpt><trkpt lat="42.221065" lon="14.5682717"><ele>13.0</ele><time>2026-04-19T07:45:35.874Z</time></trkpt><trkpt lat="42.2211" lon="14.5681917"><ele>13.0</ele><time>2026-04-19T07:45:36.874Z</time></trkpt><trkpt lat="42.221135" lon="14.568115"><ele>13.0</ele><time>2026-04-19T07:45:37.875Z</time></trkpt><trkpt lat="42.2211733" lon="14.5680433"><ele>13.0</ele><time>2026-04-19T07:45:38.874Z</time></trkpt><trkpt lat="42.22121" lon="14.5679683"><ele>12.999999999999998</ele><time>2026-04-19T07:45:39.874Z</time></trkpt><trkpt lat="42.2212467" lon="14.5678917"><ele>13.0</ele><time>2026-04-19T07:45:40.875Z</time></trkpt><trkpt lat="42.2212783" lon="14.56781"><ele>13.0</ele><time>2026-04-19T07:45:41.875Z</time></trkpt><trkpt lat="42.2213133" lon="14.5677283"><ele>13.0</ele><time>2026-04-19T07:45:42.875Z</time></trkpt><trkpt lat="42.2213483" lon="14.5676433"><ele>12.999999999999998</ele><time>2026-04-19T07:45:43.874Z</time></trkpt><trkpt lat="42.22138" lon="14.5675667"><ele>13.0</ele><time>2026-04-19T07:45:44.874Z</time></trkpt><trkpt lat="42.221445" lon="14.5674233"><ele>13.600000000000001</ele><time>2026-04-19T07:45:46.874Z</time></trkpt><trkpt lat="42.2214783" lon="14.5673467"><ele>14.200000000000001</ele><time>2026-04-19T07:45:47.875Z</time></trkpt><trkpt lat="42.2215117" lon="14.5672733"><ele>14.8</ele><time>2026-04-19T07:45:48.875Z</time></trkpt><trkpt lat="42.2215783" lon="14.5671367"><ele>15.4</ele><time>2026-04-19T07:45:50.875Z</time></trkpt><trkpt lat="42.2216433" lon="14.5669883"><ele>16.0</ele><time>2026-04-19T07:45:52.874Z</time></trkpt><trkpt lat="42.221705" lon="14.566835"><ele>14.4</ele><time>2026-04-19T07:45:54.874Z</time></trkpt><trkpt lat="42.2217683" lon="14.5666883"><ele>12.8</ele><time>2026-04-19T07:45:56.875Z</time></trkpt><trkpt lat="42.22183" lon="14.5665483"><ele>11.200000000000001</ele><time>2026-04-19T07:45:58.874Z</time></trkpt><trkpt lat="42.2218583" lon="14.5664717"><ele>9.600000000000001</ele><time>2026-04-19T07:45:59.875Z</time></trkpt><trkpt lat="42.2219183" lon="14.5663433"><ele>8.0</ele><time>2026-04-19T07:46:01.874Z</time></trkpt><trkpt lat="42.221985" lon="14.56621"><ele>11.5</ele><time>2026-04-19T07:46:03.875Z</time></trkpt><trkpt lat="42.22205" lon="14.5660767"><ele>15.0</ele><time>2026-04-19T07:46:05.874Z</time></trkpt><trkpt lat="42.2221133" lon="14.5659483"><ele>18.5</ele><time>2026-04-19T07:46:07.875Z</time></trkpt><trkpt lat="42.2221733" lon="14.56581"><ele>22.0</ele><time>2026-04-19T07:46:09.875Z</time></trkpt><trkpt lat="42.22223" lon="14.56567"><ele>22.0</ele><time>2026-04-19T07:46:11.875Z</time></trkpt><trkpt lat="42.2222883" lon="14.5655367"><ele>22.0</ele><time>2026-04-19T07:46:13.875Z</time></trkpt><trkpt lat="42.222345" lon="14.5654017"><ele>22.0</ele><time>2026-04-19T07:46:15.875Z</time></trkpt><trkpt lat="42.2224067" lon="14.5652683"><ele>22.0</ele><time>2026-04-19T07:46:17.875Z</time></trkpt><trkpt lat="42.222465" lon="14.5651483"><ele>20.0</ele><time>2026-04-19T07:46:19.875Z</time></trkpt><trkpt lat="42.222525" lon="14.56502"><ele>18.0</ele><time>2026-04-19T07:46:21.875Z</time></trkpt><trkpt lat="42.222595" lon="14.564885"><ele>16.0</ele><time>2026-04-19T07:46:23.875Z</time></trkpt><trkpt lat="42.2226567" lon="14.564745"><ele>14.0</ele><time>2026-04-19T07:46:25.875Z</time></trkpt><trkpt lat="42.2227167" lon="14.5646"><ele>15.0</ele><time>2026-04-19T07:46:27.875Z</time></trkpt><trkpt lat="42.2227717" lon="14.56446"><ele>16.0</ele><time>2026-04-19T07:46:29.875Z</time></trkpt><trkpt lat="42.2228283" lon="14.5643283"><ele>17.0</ele><time>2026-04-19T07:46:31.874Z</time></trkpt><trkpt lat="42.2228867" lon="14.564195"><ele>18.0</ele><time>2026-04-19T07:46:33.874Z</time></trkpt><trkpt lat="42.22294" lon="14.5640583"><ele>18.0</ele><time>2026-04-19T07:46:35.875Z</time></trkpt><trkpt lat="42.2229983" lon="14.563925"><ele>18.0</ele><time>2026-04-19T07:46:37.874Z</time></trkpt><trkpt lat="42.22306" lon="14.563795"><ele>18.0</ele><time>2026-04-19T07:46:39.874Z</time></trkpt><trkpt lat="42.22312" lon="14.563665"><ele>18.0</ele><time>2026-04-19T07:46:41.874Z</time></trkpt><trkpt lat="42.2231783" lon="14.5635283"><ele>16.2</ele><time>2026-04-19T07:46:43.874Z</time></trkpt><trkpt lat="42.2232317" lon="14.563405"><ele>14.4</ele><time>2026-04-19T07:46:45.875Z</time></trkpt><trkpt lat="42.22329" lon="14.5632767"><ele>12.600000000000001</ele><time>2026-04-19T07:46:47.874Z</time></trkpt><trkpt lat="42.2233467" lon="14.56315"><ele>10.8</ele><time>2026-04-19T07:46:49.875Z</time></trkpt><trkpt lat="42.2233983" lon="14.56302"><ele>9.0</ele><time>2026-04-19T07:46:51.875Z</time></trkpt><trkpt lat="42.2234517" lon="14.5628867"><ele>11.0</ele><time>2026-04-19T07:46:53.875Z</time></trkpt><trkpt lat="42.2235133" lon="14.562765"><ele>13.0</ele><time>2026-04-19T07:46:55.875Z</time></trkpt><trkpt lat="42.223575" lon="14.5626317"><ele>15.0</ele><time>2026-04-19T07:46:57.875Z</time></trkpt><trkpt lat="42.2236317" lon="14.5624883"><ele>17.0</ele><time>2026-04-19T07:46:59.874Z</time></trkpt><trkpt lat="42.22369" lon="14.5623517"><ele>17.0</ele><time>2026-04-19T07:47:01.874Z</time></trkpt><trkpt lat="42.2237433" lon="14.56222"><ele>17.0</ele><time>2026-04-19T07:47:03.874Z</time></trkpt><trkpt lat="42.2238083" lon="14.5620917"><ele>17.0</ele><time>2026-04-19T07:47:05.875Z</time></trkpt><trkpt lat="42.2238667" lon="14.56197"><ele>17.0</ele><time>2026-04-19T07:47:07.875Z</time></trkpt><trkpt lat="42.2239267" lon="14.5618533"><ele>17.0</ele><time>2026-04-19T07:47:09.874Z</time></trkpt><trkpt lat="42.2239783" lon="14.561725"><ele>16.6</ele><time>2026-04-19T07:47:11.875Z</time></trkpt><trkpt lat="42.2240317" lon="14.561595"><ele>16.2</ele><time>2026-04-19T07:47:13.875Z</time></trkpt><trkpt lat="42.2240917" lon="14.5614567"><ele>15.8</ele><time>2026-04-19T07:47:15.874Z</time></trkpt><trkpt lat="42.224145" lon="14.5613283"><ele>15.4</ele><time>2026-04-19T07:47:17.874Z</time></trkpt><trkpt lat="42.2242033" lon="14.561205"><ele>15.0</ele><time>2026-04-19T07:47:19.874Z</time></trkpt><trkpt lat="42.2242667" lon="14.5610817"><ele>15.0</ele><time>2026-04-19T07:47:21.874Z</time></trkpt><trkpt lat="42.2243333" lon="14.56097"><ele>15.0</ele><time>2026-04-19T07:47:23.875Z</time></trkpt><trkpt lat="42.224395" lon="14.5608683"><ele>15.0</ele><time>2026-04-19T07:47:25.874Z</time></trkpt><trkpt lat="42.2244617" lon="14.5608017"><ele>15.0</ele><time>2026-04-19T07:47:27.875Z</time></trkpt><trkpt lat="42.2245767" lon="14.5608033"><ele>15.0</ele><time>2026-04-19T07:47:29.875Z</time></trkpt><trkpt lat="42.224645" lon="14.560805"><ele>15.0</ele><time>2026-04-19T07:47:30.874Z</time></trkpt><trkpt lat="42.2247183" lon="14.5607917"><ele>15.0</ele><time>2026-04-19T07:47:31.875Z</time></trkpt><trkpt lat="42.22479" lon="14.5607583"><ele>15.0</ele><time>2026-04-19T07:47:32.875Z</time></trkpt><trkpt lat="42.2248583" lon="14.56071"><ele>15.0</ele><time>2026-04-19T07:47:33.875Z</time></trkpt><trkpt lat="42.2249117" lon="14.56066"><ele>15.0</ele><time>2026-04-19T07:47:34.875Z</time></trkpt><trkpt lat="42.2249617" lon="14.5606"><ele>15.0</ele><time>2026-04-19T07:47:35.873Z</time></trkpt><trkpt lat="42.22501" lon="14.560535"><ele>15.0</ele><time>2026-04-19T07:47:36.874Z</time></trkpt><trkpt lat="42.2250483" lon="14.5604667"><ele>13.0</ele><time>2026-04-19T07:47:37.873Z</time></trkpt><trkpt lat="42.2250817" lon="14.5603917"><ele>11.0</ele><time>2026-04-19T07:47:38.874Z</time></trkpt><trkpt lat="42.2251367" lon="14.5602517"><ele>9.0</ele><time>2026-04-19T07:47:40.873Z</time></trkpt><trkpt lat="42.2251933" lon="14.56013"><ele>7.0</ele><time>2026-04-19T07:47:42.874Z</time></trkpt><trkpt lat="42.22524" lon="14.56002"><ele>5.0</ele><time>2026-04-19T07:47:44.874Z</time></trkpt><trkpt lat="42.225285" lon="14.5599083"><ele>5.0</ele><time>2026-04-19T07:47:46.874Z</time></trkpt><trkpt lat="42.2253267" lon="14.5597933"><ele>5.0</ele><time>2026-04-19T07:47:48.874Z</time></trkpt><trkpt lat="42.2253717" lon="14.559695"><ele>5.0</ele><time>2026-04-19T07:47:50.873Z</time></trkpt><trkpt lat="42.2254233" lon="14.55959"><ele>5.0</ele><time>2026-04-19T07:47:52.874Z</time></trkpt><trkpt lat="42.22547" lon="14.5594867"><ele>5.0</ele><time>2026-04-19T07:47:54.874Z</time></trkpt><trkpt lat="42.22552" lon="14.5593783"><ele>6.0</ele><time>2026-04-19T07:47:56.873Z</time></trkpt><trkpt lat="42.22558" lon="14.55926"><ele>7.0</ele><time>2026-04-19T07:47:58.874Z</time></trkpt><trkpt lat="42.225645" lon="14.5591317"><ele>8.0</ele><time>2026-04-19T07:48:00.873Z</time></trkpt><trkpt lat="42.22571" lon="14.5590083"><ele>9.0</ele><time>2026-04-19T07:48:02.873Z</time></trkpt><trkpt lat="42.22577" lon="14.55886"><ele>8.0</ele><time>2026-04-19T07:48:04.874Z</time></trkpt><trkpt lat="42.2258333" lon="14.5587167"><ele>7.0</ele><time>2026-04-19T07:48:06.874Z</time></trkpt><trkpt lat="42.2258933" lon="14.55858"><ele>6.0</ele><time>2026-04-19T07:48:08.873Z</time></trkpt><trkpt lat="42.2259517" lon="14.55845"><ele>5.0</ele><time>2026-04-19T07:48:10.873Z</time></trkpt><trkpt lat="42.22601" lon="14.5583217"><ele>5.0</ele><time>2026-04-19T07:48:12.873Z</time></trkpt><trkpt lat="42.2260667" lon="14.558195"><ele>5.0</ele><time>2026-04-19T07:48:14.874Z</time></trkpt><trkpt lat="42.2261283" lon="14.55807"><ele>5.0</ele><time>2026-04-19T07:48:16.874Z</time></trkpt><trkpt lat="42.22618" lon="14.5579417"><ele>5.0</ele><time>2026-04-19T07:48:18.874Z</time></trkpt><trkpt lat="42.2262383" lon="14.5578133"><ele>5.0</ele><time>2026-04-19T07:48:20.874Z</time></trkpt><trkpt lat="42.2262883" lon="14.557695"><ele>4.6</ele><time>2026-04-19T07:48:22.873Z</time></trkpt><trkpt lat="42.2263483" lon="14.5575733"><ele>4.2</ele><time>2026-04-19T07:48:24.873Z</time></trkpt><trkpt lat="42.2264167" lon="14.557455"><ele>3.8</ele><time>2026-04-19T07:48:26.874Z</time></trkpt><trkpt lat="42.2264767" lon="14.557335"><ele>3.4</ele><time>2026-04-19T07:48:28.874Z</time></trkpt><trkpt lat="42.226535" lon="14.5572067"><ele>3.0</ele><time>2026-04-19T07:48:30.873Z</time></trkpt><trkpt lat="42.2265933" lon="14.55708"><ele>3.2</ele><time>2026-04-19T07:48:32.874Z</time></trkpt><trkpt lat="42.2266483" lon="14.5569717"><ele>3.4</ele><time>2026-04-19T07:48:34.874Z</time></trkpt><trkpt lat="42.2267033" lon="14.5568533"><ele>3.6000000000000005</ele><time>2026-04-19T07:48:36.874Z</time></trkpt><trkpt lat="42.22676" lon="14.5567333"><ele>3.8000000000000003</ele><time>2026-04-19T07:48:38.874Z</time></trkpt><trkpt lat="42.2268233" lon="14.5566133"><ele>4.0</ele><time>2026-04-19T07:48:40.874Z</time></trkpt><trkpt lat="42.2268767" lon="14.5564883"><ele>4.0</ele><time>2026-04-19T07:48:42.874Z</time></trkpt><trkpt lat="42.2269283" lon="14.5563633"><ele>4.0</ele><time>2026-04-19T07:48:44.874Z</time></trkpt><trkpt lat="42.2269867" lon="14.5562433"><ele>4.0</ele><time>2026-04-19T07:48:46.874Z</time></trkpt><trkpt lat="42.2270433" lon="14.556125"><ele>4.0</ele><time>2026-04-19T07:48:48.873Z</time></trkpt><trkpt lat="42.2270983" lon="14.5560133"><ele>4.0</ele><time>2026-04-19T07:48:50.874Z</time></trkpt><trkpt lat="42.2271383" lon="14.55593"><ele>4.285714285714286</ele><time>2026-04-19T07:48:52.873Z</time></trkpt><trkpt lat="42.227165" lon="14.55585"><ele>4.571428571428571</ele><time>2026-04-19T07:48:55.874Z</time></trkpt><trkpt lat="42.227195" lon="14.5557667"><ele>4.857142857142857</ele><time>2026-04-19T07:49:00.874Z</time></trkpt><trkpt lat="42.2272317" lon="14.55568"><ele>5.142857142857142</ele><time>2026-04-19T07:49:05.874Z</time></trkpt><trkpt lat="42.22727" lon="14.5556033"><ele>5.428571428571429</ele><time>2026-04-19T07:49:10.874Z</time></trkpt><trkpt lat="42.22731" lon="14.5555283"><ele>5.7142857142857135</ele><time>2026-04-19T07:49:15.874Z</time></trkpt><trkpt lat="42.22735" lon="14.5554533"><ele>6.0</ele><time>2026-04-19T07:49:20.874Z</time></trkpt><trkpt lat="42.22738" lon="14.555365"><ele>5.428571428571428</ele><time>2026-04-19T07:49:26.873Z</time></trkpt><trkpt lat="42.22742" lon="14.5552917"><ele>4.857142857142857</ele><time>2026-04-19T07:49:31.874Z</time></trkpt><trkpt lat="42.2274633" lon="14.5552233"><ele>4.285714285714286</ele><time>2026-04-19T07:49:36.874Z</time></trkpt><trkpt lat="42.2274967" lon="14.5551467"><ele>3.714285714285714</ele><time>2026-04-19T07:49:41.874Z</time></trkpt><trkpt lat="42.22754" lon="14.5550717"><ele>3.1428571428571423</ele><time>2026-04-19T07:49:46.874Z</time></trkpt><trkpt lat="42.2275833" lon="14.5549933"><ele>2.571428571428571</ele><time>2026-04-19T07:49:51.874Z</time></trkpt><trkpt lat="42.2276283" lon="14.5549333"><ele>2.0</ele><time>2026-04-19T07:49:56.874Z</time></trkpt><trkpt lat="42.2276767" lon="14.5548633"><ele>2.0</ele><time>2026-04-19T07:50:01.874Z</time></trkpt><trkpt lat="42.2277283" lon="14.5547817"><ele>1.9999999999999998</ele><time>2026-04-19T07:50:06.873Z</time></trkpt><trkpt lat="42.2277633" lon="14.5547083"><ele>2.0</ele><time>2026-04-19T07:50:11.873Z</time></trkpt><trkpt lat="42.2278133" lon="14.554635"><ele>2.0</ele><time>2026-04-19T07:50:16.874Z</time></trkpt><trkpt lat="42.2278483" lon="14.554555"><ele>1.9999999999999998</ele><time>2026-04-19T07:50:21.874Z</time></trkpt><trkpt lat="42.2278967" lon="14.5544817"><ele>2.0</ele><time>2026-04-19T07:50:26.873Z</time></trkpt><trkpt lat="42.2279367" lon="14.5544067"><ele>2.0</ele><time>2026-04-19T07:50:31.874Z</time></trkpt><trkpt lat="42.227975" lon="14.5543183"><ele>2.142857142857143</ele><time>2026-04-19T07:50:36.873Z</time></trkpt><trkpt lat="42.2280233" lon="14.55425"><ele>2.2857142857142856</ele><time>2026-04-19T07:50:41.874Z</time></trkpt><trkpt lat="42.2280683" lon="14.5541683"><ele>2.4285714285714284</ele><time>2026-04-19T07:50:46.874Z</time></trkpt><trkpt lat="42.22812" lon="14.5540983"><ele>2.571428571428571</ele><time>2026-04-19T07:50:52.874Z</time></trkpt><trkpt lat="42.2281717" lon="14.55402"><ele>2.7142857142857144</ele><time>2026-04-19T07:50:57.873Z</time></trkpt><trkpt lat="42.2282033" lon="14.5539417"><ele>2.8571428571428568</ele><time>2026-04-19T07:51:02.873Z</time></trkpt><trkpt lat="42.22825" lon="14.55387"><ele>3.0</ele><time>2026-04-19T07:51:07.873Z</time></trkpt><trkpt lat="42.2282967" lon="14.5537917"><ele>2.9999999999999996</ele><time>2026-04-19T07:51:12.873Z</time></trkpt><trkpt lat="42.2283417" lon="14.55372"><ele>3.0</ele><time>2026-04-19T07:51:17.873Z</time></trkpt><trkpt lat="42.2283867" lon="14.5536567"><ele>3.0</ele><time>2026-04-19T07:51:22.873Z</time></trkpt><trkpt lat="42.2284317" lon="14.5535833"><ele>3.0</ele><time>2026-04-19T07:51:27.874Z</time></trkpt><trkpt lat="42.2284717" lon="14.5535"><ele>3.0</ele><time>2026-04-19T07:51:33.874Z</time></trkpt><trkpt lat="42.2285167" lon="14.55342"><ele>2.9999999999999996</ele><time>2026-04-19T07:51:38.873Z</time></trkpt><trkpt lat="42.2285567" lon="14.5533483"><ele>3.0</ele><time>2026-04-19T07:51:43.874Z</time></trkpt><trkpt lat="42.2285967" lon="14.5532767"><ele>2.9999999999999996</ele><time>2026-04-19T07:51:47.873Z</time></trkpt><trkpt lat="42.2286433" lon="14.5531933"><ele>3.0</ele><time>2026-04-19T07:51:52.874Z</time></trkpt><trkpt lat="42.2286867" lon="14.5531217"><ele>3.0</ele><time>2026-04-19T07:51:57.874Z</time></trkpt><trkpt lat="42.2287317" lon="14.5530417"><ele>3.0</ele><time>2026-04-19T07:52:02.874Z</time></trkpt><trkpt lat="42.2287683" lon="14.5529617"><ele>3.0</ele><time>2026-04-19T07:52:07.874Z</time></trkpt><trkpt lat="42.228805" lon="14.552875"><ele>2.9999999999999996</ele><time>2026-04-19T07:52:12.874Z</time></trkpt><trkpt lat="42.2288433" lon="14.5527983"><ele>3.0</ele><time>2026-04-19T07:52:17.874Z</time></trkpt><trkpt lat="42.2288783" lon="14.5527083"><ele>2.9999999999999996</ele><time>2026-04-19T07:52:22.874Z</time></trkpt><trkpt lat="42.228905" lon="14.5526233"><ele>3.0</ele><time>2026-04-19T07:52:27.873Z</time></trkpt><trkpt lat="42.22893" lon="14.5525367"><ele>3.0</ele><time>2026-04-19T07:52:32.873Z</time></trkpt><trkpt lat="42.228965" lon="14.5524383"><ele>3.0</ele><time>2026-04-19T07:52:37.874Z</time></trkpt><trkpt lat="42.2290067" lon="14.55236"><ele>3.0</ele><time>2026-04-19T07:52:40.874Z</time></trkpt><trkpt lat="42.229035" lon="14.5522733"><ele>2.9999999999999996</ele><time>2026-04-19T07:52:45.874Z</time></trkpt><trkpt lat="42.2290633" lon="14.5521817"><ele>3.0</ele><time>2026-04-19T07:52:51.874Z</time></trkpt><trkpt lat="42.229095" lon="14.5521033"><ele>2.571428571428571</ele><time>2026-04-19T07:52:56.873Z</time></trkpt><trkpt lat="42.2291483" lon="14.5520267"><ele>2.142857142857143</ele><time>2026-04-19T07:53:01.874Z</time></trkpt><trkpt lat="42.229205" lon="14.5519517"><ele>1.7142857142857142</ele><time>2026-04-19T07:53:04.874Z</time></trkpt><trkpt lat="42.2292517" lon="14.5518817"><ele>1.2857142857142856</ele><time>2026-04-19T07:53:06.873Z</time></trkpt><trkpt lat="42.229305" lon="14.5518083"><ele>0.8571428571428571</ele><time>2026-04-19T07:53:08.874Z</time></trkpt><trkpt lat="42.22935" lon="14.5517467"><ele>0.42857142857142855</ele><time>2026-04-19T07:53:10.873Z</time></trkpt><trkpt lat="42.2293917" lon="14.5516583"><ele>0.0</ele><time>2026-04-19T07:53:12.873Z</time></trkpt><trkpt lat="42.2294517" lon="14.5515733"><ele>0.0</ele><time>2026-04-19T07:53:14.874Z</time></trkpt><trkpt lat="42.229505" lon="14.551475"><ele>0.0</ele><time>2026-04-19T07:53:16.874Z</time></trkpt><trkpt lat="42.229585" lon="14.551385"><ele>0.0</ele><time>2026-04-19T07:53:18.873Z</time></trkpt><trkpt lat="42.2296417" lon="14.55129"><ele>0.0</ele><time>2026-04-19T07:53:20.874Z</time></trkpt><trkpt lat="42.2297" lon="14.5512017"><ele>0.0</ele><time>2026-04-19T07:53:22.874Z</time></trkpt><trkpt lat="42.2297583" lon="14.5511083"><ele>0.0</ele><time>2026-04-19T07:53:24.873Z</time></trkpt><trkpt lat="42.2298117" lon="14.5510217"><ele>0.0</ele><time>2026-04-19T07:53:26.873Z</time></trkpt><trkpt lat="42.2298667" lon="14.55094"><ele>0.0</ele><time>2026-04-19T07:53:28.874Z</time></trkpt><trkpt lat="42.229925" lon="14.5508467"><ele>0.0</ele><time>2026-04-19T07:53:30.874Z</time></trkpt><trkpt lat="42.2299833" lon="14.55074"><ele>0.0</ele><time>2026-04-19T07:53:32.873Z</time></trkpt><trkpt lat="42.2300417" lon="14.5506433"><ele>0.0</ele><time>2026-04-19T07:53:34.874Z</time></trkpt><trkpt lat="42.2300967" lon="14.5505467"><ele>0.0</ele><time>2026-04-19T07:53:36.874Z</time></trkpt><trkpt lat="42.2301483" lon="14.5504533"><ele>0.0</ele><time>2026-04-19T07:53:38.874Z</time></trkpt><trkpt lat="42.2302083" lon="14.5503667"><ele>0.0</ele><time>2026-04-19T07:53:40.874Z</time></trkpt><trkpt lat="42.2302633" lon="14.5502733"><ele>0.0</ele><time>2026-04-19T07:53:42.874Z</time></trkpt><trkpt lat="42.2303233" lon="14.550175"><ele>0.0</ele><time>2026-04-19T07:53:44.874Z</time></trkpt><trkpt lat="42.23038" lon="14.5500817"><ele>0.0</ele><time>2026-04-19T07:53:46.874Z</time></trkpt><trkpt lat="42.2304433" lon="14.550005"><ele>0.0</ele><time>2026-04-19T07:53:48.874Z</time></trkpt><trkpt lat="42.2305067" lon="14.5499233"><ele>0.0</ele><time>2026-04-19T07:53:50.874Z</time></trkpt><trkpt lat="42.23057" lon="14.549835"><ele>0.0</ele><time>2026-04-19T07:53:52.873Z</time></trkpt><trkpt lat="42.230635" lon="14.5497383"><ele>0.0</ele><time>2026-04-19T07:53:54.874Z</time></trkpt><trkpt lat="42.2306867" lon="14.549645"><ele>0.0</ele><time>2026-04-19T07:53:56.874Z</time></trkpt><trkpt lat="42.2307433" lon="14.5495367"><ele>0.0</ele><time>2026-04-19T07:53:58.874Z</time></trkpt><trkpt lat="42.2308" lon="14.54944"><ele>0.0</ele><time>2026-04-19T07:54:00.873Z</time></trkpt><trkpt lat="42.230855" lon="14.5493467"><ele>0.0</ele><time>2026-04-19T07:54:02.874Z</time></trkpt><trkpt lat="42.2309067" lon="14.5492533"><ele>0.0</ele><time>2026-04-19T07:54:04.874Z</time></trkpt><trkpt lat="42.230965" lon="14.5491533"><ele>0.0</ele><time>2026-04-19T07:54:06.874Z</time></trkpt><trkpt lat="42.2310233" lon="14.5490483"><ele>0.0</ele><time>2026-04-19T07:54:08.874Z</time></trkpt><trkpt lat="42.2310867" lon="14.5489467"><ele>0.0</ele><time>2026-04-19T07:54:10.874Z</time></trkpt><trkpt lat="42.2311433" lon="14.5488417"><ele>0.0</ele><time>2026-04-19T07:54:12.874Z</time></trkpt><trkpt lat="42.2312017" lon="14.548735"><ele>0.0</ele><time>2026-04-19T07:54:14.873Z</time></trkpt><trkpt lat="42.2312633" lon="14.54862"><ele>0.0</ele><time>2026-04-19T07:54:16.874Z</time></trkpt><trkpt lat="42.2313217" lon="14.548515"><ele>-0.2</ele><time>2026-04-19T07:54:18.874Z</time></trkpt><trkpt lat="42.231385" lon="14.5484083"><ele>-0.4</ele><time>2026-04-19T07:54:20.874Z</time></trkpt><trkpt lat="42.2314483" lon="14.548295"><ele>-0.6000000000000001</ele><time>2026-04-19T07:54:22.873Z</time></trkpt><trkpt lat="42.2315033" lon="14.5481933"><ele>-0.8</ele><time>2026-04-19T07:54:24.874Z</time></trkpt><trkpt lat="42.2315667" lon="14.5481017"><ele>-1.0</ele><time>2026-04-19T07:54:26.873Z</time></trkpt><trkpt lat="42.2316233" lon="14.5479983"><ele>-0.9999999999999999</ele><time>2026-04-19T07:54:28.874Z</time></trkpt><trkpt lat="42.2316783" lon="14.5478933"><ele>-1.0</ele><time>2026-04-19T07:54:30.874Z</time></trkpt><trkpt lat="42.23173" lon="14.5477867"><ele>-1.0</ele><time>2026-04-19T07:54:32.874Z</time></trkpt><trkpt lat="42.231785" lon="14.5476867"><ele>-1.0</ele><time>2026-04-19T07:54:34.874Z</time></trkpt><trkpt lat="42.231835" lon="14.5476033"><ele>-0.9999999999999999</ele><time>2026-04-19T07:54:36.874Z</time></trkpt><trkpt lat="42.2318783" lon="14.5475317"><ele>-1.0</ele><time>2026-04-19T07:54:38.874Z</time></trkpt><trkpt lat="42.2319333" lon="14.54746"><ele>-0.9999999999999999</ele><time>2026-04-19T07:54:40.874Z</time></trkpt><trkpt lat="42.2319967" lon="14.547395"><ele>-1.0</ele><time>2026-04-19T07:54:42.873Z</time></trkpt><trkpt lat="42.232055" lon="14.5473267"><ele>-1.0</ele><time>2026-04-19T07:54:44.873Z</time></trkpt><trkpt lat="42.23212" lon="14.5472567"><ele>-1.0</ele><time>2026-04-19T07:54:46.873Z</time></trkpt><trkpt lat="42.2321833" lon="14.54719"><ele>-0.9999999999999999</ele><time>2026-04-19T07:54:48.873Z</time></trkpt><trkpt lat="42.232245" lon="14.54713"><ele>-1.0</ele><time>2026-04-19T07:54:50.874Z</time></trkpt><trkpt lat="42.2323183" lon="14.5470533"><ele>-0.8333333333333333</ele><time>2026-04-19T07:54:53.874Z</time></trkpt><trkpt lat="42.232375" lon="14.546975"><ele>-0.6666666666666666</ele><time>2026-04-19T07:54:55.874Z</time></trkpt><trkpt lat="42.2324367" lon="14.5468767"><ele>-0.5</ele><time>2026-04-19T07:54:57.874Z</time></trkpt><trkpt lat="42.2324933" lon="14.54678"><ele>-0.3333333333333333</ele><time>2026-04-19T07:54:59.874Z</time></trkpt><trkpt lat="42.2325467" lon="14.5466833"><ele>-0.16666666666666666</ele><time>2026-04-19T07:55:01.874Z</time></trkpt><trkpt lat="42.2326" lon="14.5465883"><ele>0.0</ele><time>2026-04-19T07:55:03.874Z</time></trkpt><trkpt lat="42.2326583" lon="14.5465017"><ele>0.0</ele><time>2026-04-19T07:55:05.874Z</time></trkpt><trkpt lat="42.2327217" lon="14.54641"><ele>0.0</ele><time>2026-04-19T07:55:07.874Z</time></trkpt><trkpt lat="42.23278" lon="14.5463183"><ele>0.0</ele><time>2026-04-19T07:55:09.873Z</time></trkpt><trkpt lat="42.2328383" lon="14.546225"><ele>0.0</ele><time>2026-04-19T07:55:11.873Z</time></trkpt><trkpt lat="42.2329" lon="14.54612"><ele>0.0</ele><time>2026-04-19T07:55:13.873Z</time></trkpt><trkpt lat="42.2329683" lon="14.5459983"><ele>0.0</ele><time>2026-04-19T07:55:15.874Z</time></trkpt><trkpt lat="42.23303" lon="14.5458967"><ele>0.0</ele><time>2026-04-19T07:55:17.873Z</time></trkpt><trkpt lat="42.23309" lon="14.5458"><ele>0.0</ele><time>2026-04-19T07:55:19.874Z</time></trkpt><trkpt lat="42.2331533" lon="14.5457117"><ele>0.0</ele><time>2026-04-19T07:55:21.874Z</time></trkpt><trkpt lat="42.2332167" lon="14.5456333"><ele>0.0</ele><time>2026-04-19T07:55:23.874Z</time></trkpt><trkpt lat="42.2332733" lon="14.54556"><ele>0.0</ele><time>2026-04-19T07:55:25.874Z</time></trkpt><trkpt lat="42.23333" lon="14.54546"><ele>0.4</ele><time>2026-04-19T07:55:27.874Z</time></trkpt><trkpt lat="42.2333933" lon="14.54536"><ele>0.8</ele><time>2026-04-19T07:55:29.874Z</time></trkpt><trkpt lat="42.233455" lon="14.5452567"><ele>1.2000000000000002</ele><time>2026-04-19T07:55:31.873Z</time></trkpt><trkpt lat="42.2335217" lon="14.5451583"><ele>1.6</ele><time>2026-04-19T07:55:33.874Z</time></trkpt><trkpt lat="42.2335817" lon="14.54506"><ele>2.0</ele><time>2026-04-19T07:55:35.874Z</time></trkpt><trkpt lat="42.23364" lon="14.5449667"><ele>1.9999999999999998</ele><time>2026-04-19T07:55:37.873Z</time></trkpt><trkpt lat="42.2337017" lon="14.5448767"><ele>2.0</ele><time>2026-04-19T07:55:39.874Z</time></trkpt><trkpt lat="42.2337533" lon="14.5447867"><ele>2.0</ele><time>2026-04-19T07:55:41.873Z</time></trkpt><trkpt lat="42.233795" lon="14.5446917"><ele>2.0</ele><time>2026-04-19T07:55:43.874Z</time></trkpt><trkpt lat="42.2338133" lon="14.544595"><ele>1.9999999999999998</ele><time>2026-04-19T07:55:45.874Z</time></trkpt><trkpt lat="42.2338017" lon="14.5445083"><ele>2.0</ele><time>2026-04-19T07:55:47.874Z</time></trkpt><trkpt lat="42.23378" lon="14.54441"><ele>2.2857142857142856</ele><time>2026-04-19T07:55:49.874Z</time></trkpt><trkpt lat="42.23376" lon="14.544325"><ele>2.571428571428571</ele><time>2026-04-19T07:55:51.874Z</time></trkpt><trkpt lat="42.2337433" lon="14.5442417"><ele>2.8571428571428568</ele><time>2026-04-19T07:55:53.873Z</time></trkpt><trkpt lat="42.2337283" lon="14.5441533"><ele>3.142857142857143</ele><time>2026-04-19T07:55:55.873Z</time></trkpt><trkpt lat="42.2337083" lon="14.5440683"><ele>3.428571428571428</ele><time>2026-04-19T07:55:57.874Z</time></trkpt><trkpt lat="42.2337" lon="14.5439517"><ele>3.714285714285714</ele><time>2026-04-19T07:56:00.874Z</time></trkpt><trkpt lat="42.2337083" lon="14.5438617"><ele>4.0</ele><time>2026-04-19T07:56:02.874Z</time></trkpt><trkpt lat="42.2336967" lon="14.543745"><ele>5.166666666666666</ele><time>2026-04-19T07:56:04.874Z</time></trkpt><trkpt lat="42.2336783" lon="14.5436467"><ele>6.333333333333333</ele><time>2026-04-19T07:56:06.874Z</time></trkpt><trkpt lat="42.2336567" lon="14.543525"><ele>7.5</ele><time>2026-04-19T07:56:09.873Z</time></trkpt><trkpt lat="42.23364" lon="14.543435"><ele>8.666666666666666</ele><time>2026-04-19T07:56:12.874Z</time></trkpt><trkpt lat="42.23362" lon="14.543345"><ele>9.833333333333332</ele><time>2026-04-19T07:56:15.874Z</time></trkpt><trkpt lat="42.2336183" lon="14.5432467"><ele>11.0</ele><time>2026-04-19T07:56:18.873Z</time></trkpt><trkpt lat="42.2336067" lon="14.5431317"><ele>11.0</ele><time>2026-04-19T07:56:22.874Z</time></trkpt><trkpt lat="42.23363" lon="14.5430333"><ele>11.0</ele><time>2026-04-19T07:56:25.873Z</time></trkpt><trkpt lat="42.23368" lon="14.5429333"><ele>11.0</ele><time>2026-04-19T07:56:28.874Z</time></trkpt><trkpt lat="42.2337233" lon="14.5428583"><ele>11.0</ele><time>2026-04-19T07:56:30.874Z</time></trkpt><trkpt lat="42.2337683" lon="14.54278"><ele>11.0</ele><time>2026-04-19T07:56:32.873Z</time></trkpt><trkpt lat="42.2338167" lon="14.54268"><ele>11.0</ele><time>2026-04-19T07:56:34.873Z</time></trkpt><trkpt lat="42.23387" lon="14.54258"><ele>9.833333333333332</ele><time>2026-04-19T07:56:36.874Z</time></trkpt><trkpt lat="42.2339133" lon="14.5424883"><ele>8.666666666666666</ele><time>2026-04-19T07:56:38.874Z</time></trkpt><trkpt lat="42.233945" lon="14.5424133"><ele>7.5</ele><time>2026-04-19T07:56:40.874Z</time></trkpt><trkpt lat="42.2339883" lon="14.5423083"><ele>6.333333333333333</ele><time>2026-04-19T07:56:43.873Z</time></trkpt><trkpt lat="42.2340033" lon="14.5421833"><ele>5.166666666666666</ele><time>2026-04-19T07:56:45.874Z</time></trkpt><trkpt lat="42.2340467" lon="14.5420867"><ele>4.0</ele><time>2026-04-19T07:56:47.874Z</time></trkpt><trkpt lat="42.2340883" lon="14.5419883"><ele>3.9999999999999996</ele><time>2026-04-19T07:56:49.873Z</time></trkpt><trkpt lat="42.2341233" lon="14.5419017"><ele>4.0</ele><time>2026-04-19T07:56:51.873Z</time></trkpt><trkpt lat="42.2341567" lon="14.5418017"><ele>4.0</ele><time>2026-04-19T07:56:53.874Z</time></trkpt><trkpt lat="42.2341783" lon="14.5417017"><ele>4.0</ele><time>2026-04-19T07:56:55.874Z</time></trkpt><trkpt lat="42.23416" lon="14.5415917"><ele>3.9999999999999996</ele><time>2026-04-19T07:56:58.874Z</time></trkpt><trkpt lat="42.23413" lon="14.5415167"><ele>4.0</ele><time>2026-04-19T07:57:03.874Z</time></trkpt><trkpt lat="42.2340667" lon="14.5414433"><ele>3.9999999999999996</ele><time>2026-04-19T07:57:06.873Z</time></trkpt><trkpt lat="42.2339933" lon="14.5413733"><ele>4.0</ele><time>2026-04-19T07:57:09.874Z</time></trkpt><trkpt lat="42.23394" lon="14.54129"><ele>4.0</ele><time>2026-04-19T07:57:12.874Z</time></trkpt><trkpt lat="42.2338867" lon="14.5412267"><ele>4.0</ele><time>2026-04-19T07:57:15.873Z</time></trkpt><trkpt lat="42.2338167" lon="14.54118"><ele>3.9999999999999996</ele><time>2026-04-19T07:58:22.375Z</time></trkpt><trkpt lat="42.2337533" lon="14.5411883"><ele>4.0</ele><time>2026-04-19T07:58:31.876Z</time></trkpt><trkpt lat="42.23378" lon="14.5411"><ele>4.0</ele><time>2026-04-19T07:58:45.876Z</time></trkpt><trkpt lat="42.2337217" lon="14.5410333"><ele>3.9999999999999996</ele><time>2026-04-19T07:59:31.875Z</time></trkpt><trkpt lat="42.23372" lon="14.54112"><ele>4.0</ele><time>2026-04-19T07:59:36.876Z</time></trkpt><trkpt lat="42.23377" lon="14.5411917"><ele>4.0</ele><time>2026-04-19T07:59:39.876Z</time></trkpt><trkpt lat="42.2338217" lon="14.5412617"><ele>3.9999999999999996</ele><time>2026-04-19T07:59:42.875Z</time></trkpt><trkpt lat="42.2338733" lon="14.5413217"><ele>4.0</ele><time>2026-04-19T07:59:45.876Z</time></trkpt><trkpt lat="42.23393" lon="14.5413867"><ele>4.0</ele><time>2026-04-19T07:59:48.876Z</time></trkpt><trkpt lat="42.2340117" lon="14.541485"><ele>4.0</ele><time>2026-04-19T07:59:51.876Z</time></trkpt><trkpt lat="42.2340683" lon="14.541555"><ele>3.9999999999999996</ele><time>2026-04-19T07:59:53.875Z</time></trkpt><trkpt lat="42.234105" lon="14.5416467"><ele>4.0</ele><time>2026-04-19T07:59:56.876Z</time></trkpt><trkpt lat="42.2340833" lon="14.5417283"><ele>4.0</ele><time>2026-04-19T07:59:59.876Z</time></trkpt><trkpt lat="42.23405" lon="14.5418067"><ele>3.9999999999999996</ele><time>2026-04-19T08:00:02.876Z</time></trkpt><trkpt lat="42.2340067" lon="14.5418883"><ele>4.0</ele><time>2026-04-19T08:00:05.876Z</time></trkpt><trkpt lat="42.2339633" lon="14.5419733"><ele>4.0</ele><time>2026-04-19T08:00:08.875Z</time></trkpt><trkpt lat="42.2339317" lon="14.5420767"><ele>7.0</ele><time>2026-04-19T08:00:11.875Z</time></trkpt><trkpt lat="42.2338783" lon="14.5421717"><ele>10.0</ele><time>2026-04-19T08:00:14.875Z</time></trkpt><trkpt lat="42.233845" lon="14.5422683"><ele>13.0</ele><time>2026-04-19T08:00:17.876Z</time></trkpt><trkpt lat="42.2338117" lon="14.5423717"><ele>16.0</ele><time>2026-04-19T08:00:20.876Z</time></trkpt><trkpt lat="42.2337717" lon="14.5424717"><ele>19.0</ele><time>2026-04-19T08:00:23.876Z</time></trkpt><trkpt lat="42.233725" lon="14.5425667"><ele>22.0</ele><time>2026-04-19T08:00:26.876Z</time></trkpt><trkpt lat="42.2336767" lon="14.542665"><ele>22.0</ele><time>2026-04-19T08:00:29.875Z</time></trkpt><trkpt lat="42.2336383" lon="14.5427667"><ele>22.0</ele><time>2026-04-19T08:00:32.876Z</time></trkpt><trkpt lat="42.2336083" lon="14.5428683"><ele>22.0</ele><time>2026-04-19T08:00:35.876Z</time></trkpt><trkpt lat="42.2335917" lon="14.5429767"><ele>22.0</ele><time>2026-04-19T08:00:38.876Z</time></trkpt><trkpt lat="42.233575" lon="14.5430683"><ele>22.0</ele><time>2026-04-19T08:00:41.876Z</time></trkpt><trkpt lat="42.2336517" lon="14.5430867"><ele>22.0</ele><time>2026-04-19T08:00:45.876Z</time></trkpt><trkpt lat="42.2337017" lon="14.543025"><ele>22.0</ele><time>2026-04-19T08:00:47.876Z</time></trkpt><trkpt lat="42.233755" lon="14.5429567"><ele>22.0</ele><time>2026-04-19T08:00:49.876Z</time></trkpt><trkpt lat="42.23381" lon="14.5428683"><ele>22.0</ele><time>2026-04-19T08:00:51.876Z</time></trkpt><trkpt lat="42.23386" lon="14.5427683"><ele>22.0</ele><time>2026-04-19T08:00:53.876Z</time></trkpt><trkpt lat="42.2339083" lon="14.5426767"><ele>22.0</ele><time>2026-04-19T08:00:55.876Z</time></trkpt><trkpt lat="42.23396" lon="14.54258"><ele>22.0</ele><time>2026-04-19T08:00:57.875Z</time></trkpt><trkpt lat="42.23401" lon="14.542485"><ele>19.0</ele><time>2026-04-19T08:00:59.876Z</time></trkpt><trkpt lat="42.2340517" lon="14.5423917"><ele>16.0</ele><time>2026-04-19T08:01:01.876Z</time></trkpt><trkpt lat="42.2340917" lon="14.542295"><ele>13.0</ele><time>2026-04-19T08:01:03.876Z</time></trkpt><trkpt lat="42.2341367" lon="14.5421967"><ele>10.0</ele><time>2026-04-19T08:01:05.876Z</time></trkpt><trkpt lat="42.2341817" lon="14.5421033"><ele>7.0</ele><time>2026-04-19T08:01:07.876Z</time></trkpt><trkpt lat="42.2342283" lon="14.5420017"><ele>4.0</ele><time>2026-04-19T08:01:09.876Z</time></trkpt><trkpt lat="42.2342683" lon="14.5418933"><ele>3.9999999999999996</ele><time>2026-04-19T08:01:11.875Z</time></trkpt><trkpt lat="42.2343117" lon="14.5417983"><ele>4.0</ele><time>2026-04-19T08:01:13.876Z</time></trkpt><trkpt lat="42.2343583" lon="14.5417017"><ele>4.0</ele><time>2026-04-19T08:01:15.876Z</time></trkpt><trkpt lat="42.2343967" lon="14.54161"><ele>4.0</ele><time>2026-04-19T08:01:17.876Z</time></trkpt><trkpt lat="42.2344383" lon="14.541515"><ele>3.9999999999999996</ele><time>2026-04-19T08:01:19.876Z</time></trkpt><trkpt lat="42.2344817" lon="14.541425"><ele>4.0</ele><time>2026-04-19T08:01:21.876Z</time></trkpt><trkpt lat="42.234525" lon="14.54133"><ele>4.0</ele><time>2026-04-19T08:01:23.876Z</time></trkpt><trkpt lat="42.2345733" lon="14.5412317"><ele>4.0</ele><time>2026-04-19T08:01:25.876Z</time></trkpt><trkpt lat="42.23462" lon="14.5411267"><ele>4.0</ele><time>2026-04-19T08:01:27.875Z</time></trkpt><trkpt lat="42.2346667" lon="14.5410183"><ele>4.0</ele><time>2026-04-19T08:01:29.875Z</time></trkpt><trkpt lat="42.2347133" lon="14.5409183"><ele>4.0</ele><time>2026-04-19T08:01:31.876Z</time></trkpt><trkpt lat="42.234765" lon="14.540815"><ele>4.2</ele><time>2026-04-19T08:01:33.876Z</time></trkpt><trkpt lat="42.2348183" lon="14.5407083"><ele>4.4</ele><time>2026-04-19T08:01:35.876Z</time></trkpt><trkpt lat="42.2348683" lon="14.5405867"><ele>4.6</ele><time>2026-04-19T08:01:37.875Z</time></trkpt><trkpt lat="42.2349183" lon="14.5404767"><ele>4.8</ele><time>2026-04-19T08:01:39.875Z</time></trkpt><trkpt lat="42.2349683" lon="14.5403733"><ele>5.0</ele><time>2026-04-19T08:01:41.875Z</time></trkpt><trkpt lat="42.235015" lon="14.5402667"><ele>5.0</ele><time>2026-04-19T08:01:43.876Z</time></trkpt><trkpt lat="42.2350617" lon="14.540155"><ele>5.0</ele><time>2026-04-19T08:01:45.876Z</time></trkpt><trkpt lat="42.2351083" lon="14.540045"><ele>5.0</ele><time>2026-04-19T08:01:47.876Z</time></trkpt><trkpt lat="42.2351583" lon="14.539935"><ele>5.0</ele><time>2026-04-19T08:01:49.876Z</time></trkpt><trkpt lat="42.23521" lon="14.53982"><ele>5.0</ele><time>2026-04-19T08:01:51.876Z</time></trkpt><trkpt lat="42.2352583" lon="14.5397067"><ele>5.0</ele><time>2026-04-19T08:01:53.876Z</time></trkpt><trkpt lat="42.2353117" lon="14.5395983"><ele>5.0</ele><time>2026-04-19T08:01:55.875Z</time></trkpt><trkpt lat="42.2353617" lon="14.5394883"><ele>5.0</ele><time>2026-04-19T08:01:57.876Z</time></trkpt><trkpt lat="42.2354117" lon="14.53938"><ele>5.0</ele><time>2026-04-19T08:01:59.875Z</time></trkpt><trkpt lat="42.23546" lon="14.539275"><ele>5.0</ele><time>2026-04-19T08:02:01.876Z</time></trkpt><trkpt lat="42.235505" lon="14.5391633"><ele>5.0</ele><time>2026-04-19T08:02:03.875Z</time></trkpt><trkpt lat="42.2355567" lon="14.5390667"><ele>5.0</ele><time>2026-04-19T08:02:05.876Z</time></trkpt><trkpt lat="42.2356067" lon="14.5389567"><ele>5.0</ele><time>2026-04-19T08:02:07.876Z</time></trkpt><trkpt lat="42.2356583" lon="14.5388417"><ele>5.0</ele><time>2026-04-19T08:02:09.876Z</time></trkpt><trkpt lat="42.235715" lon="14.53873"><ele>5.0</ele><time>2026-04-19T08:02:11.876Z</time></trkpt><trkpt lat="42.2357583" lon="14.5386267"><ele>5.0</ele><time>2026-04-19T08:02:13.875Z</time></trkpt><trkpt lat="42.2358067" lon="14.538505"><ele>5.0</ele><time>2026-04-19T08:02:15.876Z</time></trkpt><trkpt lat="42.2358583" lon="14.538385"><ele>5.0</ele><time>2026-04-19T08:02:17.876Z</time></trkpt><trkpt lat="42.2359117" lon="14.5382683"><ele>5.0</ele><time>2026-04-19T08:02:19.876Z</time></trkpt><trkpt lat="42.2359633" lon="14.5381617"><ele>5.0</ele><time>2026-04-19T08:02:21.875Z</time></trkpt><trkpt lat="42.2360183" lon="14.53805"><ele>5.0</ele><time>2026-04-19T08:02:23.875Z</time></trkpt><trkpt lat="42.2360717" lon="14.5379367"><ele>5.0</ele><time>2026-04-19T08:02:25.875Z</time></trkpt><trkpt lat="42.2361183" lon="14.53782"><ele>5.0</ele><time>2026-04-19T08:02:27.875Z</time></trkpt><trkpt lat="42.2361717" lon="14.53771"><ele>5.0</ele><time>2026-04-19T08:02:29.876Z</time></trkpt><trkpt lat="42.2362283" lon="14.5375967"><ele>5.0</ele><time>2026-04-19T08:02:31.875Z</time></trkpt><trkpt lat="42.2362867" lon="14.537485"><ele>5.0</ele><time>2026-04-19T08:02:33.876Z</time></trkpt><trkpt lat="42.23634" lon="14.5373667"><ele>5.0</ele><time>2026-04-19T08:02:35.875Z</time></trkpt><trkpt lat="42.2363867" lon="14.537245"><ele>5.0</ele><time>2026-04-19T08:02:37.875Z</time></trkpt><trkpt lat="42.236435" lon="14.5371267"><ele>5.0</ele><time>2026-04-19T08:02:39.876Z</time></trkpt><trkpt lat="42.2364883" lon="14.5370017"><ele>5.0</ele><time>2026-04-19T08:02:41.875Z</time></trkpt><trkpt lat="42.2365417" lon="14.53688"><ele>4.4</ele><time>2026-04-19T08:02:43.875Z</time></trkpt><trkpt lat="42.236595" lon="14.5367533"><ele>3.8</ele><time>2026-04-19T08:02:45.875Z</time></trkpt><trkpt lat="42.2366433" lon="14.5366333"><ele>3.2</ele><time>2026-04-19T08:02:47.876Z</time></trkpt><trkpt lat="42.2366933" lon="14.5365117"><ele>2.6</ele><time>2026-04-19T08:02:49.876Z</time></trkpt><trkpt lat="42.2367417" lon="14.53639"><ele>2.0</ele><time>2026-04-19T08:02:51.875Z</time></trkpt><trkpt lat="42.2367933" lon="14.5362667"><ele>2.2</ele><time>2026-04-19T08:02:53.876Z</time></trkpt><trkpt lat="42.23684" lon="14.5361433"><ele>2.4000000000000004</ele><time>2026-04-19T08:02:55.875Z</time></trkpt><trkpt lat="42.23689" lon="14.5360183"><ele>2.5999999999999996</ele><time>2026-04-19T08:02:57.875Z</time></trkpt><trkpt lat="42.236935" lon="14.53589"><ele>2.8</ele><time>2026-04-19T08:02:59.875Z</time></trkpt><trkpt lat="42.2369833" lon="14.5357617"><ele>3.0</ele><time>2026-04-19T08:03:01.876Z</time></trkpt><trkpt lat="42.2370317" lon="14.535635"><ele>3.0</ele><time>2026-04-19T08:03:03.875Z</time></trkpt><trkpt lat="42.23708" lon="14.53552"><ele>3.0</ele><time>2026-04-19T08:03:05.875Z</time></trkpt><trkpt lat="42.2371417" lon="14.53542"><ele>3.0</ele><time>2026-04-19T08:03:07.875Z</time></trkpt><trkpt lat="42.2372117" lon="14.535345"><ele>3.0</ele><time>2026-04-19T08:03:09.876Z</time></trkpt><trkpt lat="42.23728" lon="14.5352633"><ele>3.0</ele><time>2026-04-19T08:03:11.876Z</time></trkpt><trkpt lat="42.2373267" lon="14.5351533"><ele>2.6</ele><time>2026-04-19T08:03:13.876Z</time></trkpt><trkpt lat="42.2373767" lon="14.535035"><ele>2.1999999999999997</ele><time>2026-04-19T08:03:15.876Z</time></trkpt><trkpt lat="42.2374267" lon="14.5349217"><ele>1.8</ele><time>2026-04-19T08:03:17.875Z</time></trkpt><trkpt lat="42.23748" lon="14.5348067"><ele>1.4</ele><time>2026-04-19T08:03:19.876Z</time></trkpt><trkpt lat="42.2375333" lon="14.534695"><ele>1.0</ele><time>2026-04-19T08:03:21.876Z</time></trkpt><trkpt lat="42.237585" lon="14.5345767"><ele>1.4</ele><time>2026-04-19T08:03:23.875Z</time></trkpt><trkpt lat="42.2376383" lon="14.5344617"><ele>1.8</ele><time>2026-04-19T08:03:25.875Z</time></trkpt><trkpt lat="42.2376933" lon="14.5343467"><ele>2.1999999999999997</ele><time>2026-04-19T08:03:27.875Z</time></trkpt><trkpt lat="42.2377483" lon="14.5342333"><ele>2.6</ele><time>2026-04-19T08:03:29.876Z</time></trkpt><trkpt lat="42.2378017" lon="14.5341133"><ele>3.0</ele><time>2026-04-19T08:03:31.876Z</time></trkpt><trkpt lat="42.2378533" lon="14.5340017"><ele>3.0</ele><time>2026-04-19T08:03:33.875Z</time></trkpt><trkpt lat="42.2379033" lon="14.5338867"><ele>3.0</ele><time>2026-04-19T08:03:35.876Z</time></trkpt><trkpt lat="42.2379567" lon="14.53377"><ele>3.0</ele><time>2026-04-19T08:03:37.876Z</time></trkpt><trkpt lat="42.23801" lon="14.5336617"><ele>3.0</ele><time>2026-04-19T08:03:39.876Z</time></trkpt><trkpt lat="42.2380633" lon="14.5335417"><ele>3.0</ele><time>2026-04-19T08:03:41.875Z</time></trkpt><trkpt lat="42.2381133" lon="14.53343"><ele>3.2</ele><time>2026-04-19T08:03:43.876Z</time></trkpt><trkpt lat="42.2381667" lon="14.5333167"><ele>3.4</ele><time>2026-04-19T08:03:45.875Z</time></trkpt><trkpt lat="42.2382283" lon="14.5332"><ele>3.6000000000000005</ele><time>2026-04-19T08:03:47.875Z</time></trkpt><trkpt lat="42.2382767" lon="14.5330867"><ele>3.8000000000000003</ele><time>2026-04-19T08:03:49.876Z</time></trkpt><trkpt lat="42.238325" lon="14.5329717"><ele>4.0</ele><time>2026-04-19T08:03:51.876Z</time></trkpt><trkpt lat="42.2383783" lon="14.5328617"><ele>4.0</ele><time>2026-04-19T08:03:53.875Z</time></trkpt><trkpt lat="42.2384317" lon="14.5327483"><ele>4.0</ele><time>2026-04-19T08:03:55.876Z</time></trkpt><trkpt lat="42.2384817" lon="14.5326433"><ele>4.0</ele><time>2026-04-19T08:03:57.876Z</time></trkpt><trkpt lat="42.2385333" lon="14.5325333"><ele>4.0</ele><time>2026-04-19T08:03:59.876Z</time></trkpt><trkpt lat="42.2385833" lon="14.5324183"><ele>4.0</ele><time>2026-04-19T08:04:01.875Z</time></trkpt><trkpt lat="42.2386283" lon="14.5322983"><ele>4.0</ele><time>2026-04-19T08:04:03.876Z</time></trkpt><trkpt lat="42.2386833" lon="14.532175"><ele>4.0</ele><time>2026-04-19T08:04:05.876Z</time></trkpt><trkpt lat="42.2387383" lon="14.5320533"><ele>4.0</ele><time>2026-04-19T08:04:07.876Z</time></trkpt><trkpt lat="42.238795" lon="14.531925"><ele>4.0</ele><time>2026-04-19T08:04:09.876Z</time></trkpt><trkpt lat="42.23885" lon="14.5318067"><ele>4.0</ele><time>2026-04-19T08:04:11.876Z</time></trkpt><trkpt lat="42.238905" lon="14.5316867"><ele>3.6</ele><time>2026-04-19T08:04:13.876Z</time></trkpt><trkpt lat="42.238955" lon="14.53157"><ele>3.2</ele><time>2026-04-19T08:04:15.875Z</time></trkpt><trkpt lat="42.2390133" lon="14.5314467"><ele>2.8000000000000003</ele><time>2026-04-19T08:04:17.876Z</time></trkpt><trkpt lat="42.2390683" lon="14.5313283"><ele>2.4000000000000004</ele><time>2026-04-19T08:04:19.875Z</time></trkpt><trkpt lat="42.2391233" lon="14.5312117"><ele>2.0</ele><time>2026-04-19T08:04:21.875Z</time></trkpt><trkpt lat="42.2391717" lon="14.5310967"><ele>1.8</ele><time>2026-04-19T08:04:23.875Z</time></trkpt><trkpt lat="42.2392267" lon="14.53098"><ele>1.6</ele><time>2026-04-19T08:04:25.876Z</time></trkpt><trkpt lat="42.2392817" lon="14.5308717"><ele>1.4000000000000001</ele><time>2026-04-19T08:04:27.876Z</time></trkpt><trkpt lat="42.239335" lon="14.53076"><ele>1.2000000000000002</ele><time>2026-04-19T08:04:29.875Z</time></trkpt><trkpt lat="42.239385" lon="14.530635"><ele>1.0</ele><time>2026-04-19T08:04:31.875Z</time></trkpt><trkpt lat="42.2394417" lon="14.5305167"><ele>1.0</ele><time>2026-04-19T08:04:33.875Z</time></trkpt><trkpt lat="42.2394967" lon="14.5303917"><ele>1.0</ele><time>2026-04-19T08:04:35.875Z</time></trkpt><trkpt lat="42.2395533" lon="14.530275"><ele>1.0</ele><time>2026-04-19T08:04:37.875Z</time></trkpt><trkpt lat="42.2396083" lon="14.530155"><ele>1.0</ele><time>2026-04-19T08:04:39.876Z</time></trkpt><trkpt lat="42.239665" lon="14.530035"><ele>1.0</ele><time>2026-04-19T08:04:41.875Z</time></trkpt><trkpt lat="42.2397167" lon="14.5299183"><ele>1.0</ele><time>2026-04-19T08:04:43.876Z</time></trkpt><trkpt lat="42.2397683" lon="14.5297983"><ele>1.0</ele><time>2026-04-19T08:04:45.876Z</time></trkpt><trkpt lat="42.2398283" lon="14.5296883"><ele>1.0</ele><time>2026-04-19T08:04:47.875Z</time></trkpt><trkpt lat="42.2398783" lon="14.5295717"><ele>1.0</ele><time>2026-04-19T08:04:49.876Z</time></trkpt><trkpt lat="42.239925" lon="14.5294533"><ele>1.0</ele><time>2026-04-19T08:04:51.875Z</time></trkpt><trkpt lat="42.2399767" lon="14.5293367"><ele>1.0</ele><time>2026-04-19T08:04:53.875Z</time></trkpt><trkpt lat="42.2400267" lon="14.529225"><ele>1.0</ele><time>2026-04-19T08:04:55.876Z</time></trkpt><trkpt lat="42.2400817" lon="14.5290967"><ele>1.0</ele><time>2026-04-19T08:04:57.876Z</time></trkpt><trkpt lat="42.2401433" lon="14.5289717"><ele>1.0</ele><time>2026-04-19T08:04:59.876Z</time></trkpt><trkpt lat="42.2402017" lon="14.528845"><ele>1.0</ele><time>2026-04-19T08:05:01.876Z</time></trkpt><trkpt lat="42.2402567" lon="14.528725"><ele>0.8</ele><time>2026-04-19T08:05:03.876Z</time></trkpt><trkpt lat="42.2403117" lon="14.52861"><ele>0.6000000000000001</ele><time>2026-04-19T08:05:05.876Z</time></trkpt><trkpt lat="42.240365" lon="14.5284883"><ele>0.4</ele><time>2026-04-19T08:05:07.876Z</time></trkpt><trkpt lat="42.2404167" lon="14.5283633"><ele>0.2</ele><time>2026-04-19T08:05:09.876Z</time></trkpt><trkpt lat="42.2404733" lon="14.528255"><ele>0.0</ele><time>2026-04-19T08:05:11.876Z</time></trkpt><trkpt lat="42.24053" lon="14.5281467"><ele>0.0</ele><time>2026-04-19T08:05:13.876Z</time></trkpt><trkpt lat="42.2405833" lon="14.5280183"><ele>0.0</ele><time>2026-04-19T08:05:15.875Z</time></trkpt><trkpt lat="42.2406383" lon="14.5278933"><ele>0.0</ele><time>2026-04-19T08:05:17.875Z</time></trkpt><trkpt lat="42.2406867" lon="14.5277733"><ele>0.0</ele><time>2026-04-19T08:05:19.876Z</time></trkpt><trkpt lat="42.2407417" lon="14.5276633"><ele>0.0</ele><time>2026-04-19T08:05:21.876Z</time></trkpt><trkpt lat="42.2407983" lon="14.527555"><ele>0.0</ele><time>2026-04-19T08:05:23.876Z</time></trkpt><trkpt lat="42.2408517" lon="14.5274433"><ele>0.0</ele><time>2026-04-19T08:05:25.876Z</time></trkpt><trkpt lat="42.24091" lon="14.5273333"><ele>0.0</ele><time>2026-04-19T08:05:27.876Z</time></trkpt><trkpt lat="42.2409633" lon="14.52722"><ele>0.0</ele><time>2026-04-19T08:05:29.876Z</time></trkpt><trkpt lat="42.2410133" lon="14.5271033"><ele>0.0</ele><time>2026-04-19T08:05:31.876Z</time></trkpt><trkpt lat="42.2410683" lon="14.5269883"><ele>0.2</ele><time>2026-04-19T08:05:33.875Z</time></trkpt><trkpt lat="42.2411267" lon="14.5268733"><ele>0.4</ele><time>2026-04-19T08:05:35.876Z</time></trkpt><trkpt lat="42.2411817" lon="14.5267483"><ele>0.6000000000000001</ele><time>2026-04-19T08:05:37.876Z</time></trkpt><trkpt lat="42.241235" lon="14.5266267"><ele>0.8</ele><time>2026-04-19T08:05:39.876Z</time></trkpt><trkpt lat="42.24129" lon="14.526505"><ele>1.0</ele><time>2026-04-19T08:05:41.875Z</time></trkpt><trkpt lat="42.24134" lon="14.526385"><ele>1.0</ele><time>2026-04-19T08:05:43.876Z</time></trkpt><trkpt lat="42.241395" lon="14.526265"><ele>1.0</ele><time>2026-04-19T08:05:45.876Z</time></trkpt><trkpt lat="42.2414483" lon="14.5261483"><ele>1.0</ele><time>2026-04-19T08:05:47.875Z</time></trkpt><trkpt lat="42.2415017" lon="14.52603"><ele>1.0</ele><time>2026-04-19T08:05:49.876Z</time></trkpt><trkpt lat="42.2415533" lon="14.525915"><ele>1.0</ele><time>2026-04-19T08:05:51.875Z</time></trkpt><trkpt lat="42.2416067" lon="14.525795"><ele>1.0</ele><time>2026-04-19T08:05:53.875Z</time></trkpt><trkpt lat="42.2416567" lon="14.5256583"><ele>1.0</ele><time>2026-04-19T08:05:55.876Z</time></trkpt><trkpt lat="42.2417117" lon="14.52554"><ele>1.0</ele><time>2026-04-19T08:05:57.876Z</time></trkpt><trkpt lat="42.2417667" lon="14.5254183"><ele>1.0</ele><time>2026-04-19T08:05:59.875Z</time></trkpt><trkpt lat="42.2418233" lon="14.5253017"><ele>1.0</ele><time>2026-04-19T08:06:01.876Z</time></trkpt><trkpt lat="42.241875" lon="14.5251833"><ele>1.0</ele><time>2026-04-19T08:06:03.875Z</time></trkpt><trkpt lat="42.24193" lon="14.525065"><ele>1.0</ele><time>2026-04-19T08:06:05.876Z</time></trkpt><trkpt lat="42.2419867" lon="14.52495"><ele>1.0</ele><time>2026-04-19T08:06:07.876Z</time></trkpt><trkpt lat="42.24204" lon="14.5248233"><ele>1.0</ele><time>2026-04-19T08:06:09.876Z</time></trkpt><trkpt lat="42.2420933" lon="14.5246983"><ele>1.0</ele><time>2026-04-19T08:06:11.875Z</time></trkpt><trkpt lat="42.2421433" lon="14.5245733"><ele>1.2000000000000002</ele><time>2026-04-19T08:06:13.876Z</time></trkpt><trkpt lat="42.2422" lon="14.5244567"><ele>1.4000000000000001</ele><time>2026-04-19T08:06:15.875Z</time></trkpt><trkpt lat="42.2422533" lon="14.52434"><ele>1.6</ele><time>2026-04-19T08:06:17.875Z</time></trkpt><trkpt lat="42.2423083" lon="14.5242283"><ele>1.8</ele><time>2026-04-19T08:06:19.876Z</time></trkpt><trkpt lat="42.2423617" lon="14.5241117"><ele>2.0</ele><time>2026-04-19T08:06:21.876Z</time></trkpt><trkpt lat="42.2424167" lon="14.5239967"><ele>2.0</ele><time>2026-04-19T08:06:23.876Z</time></trkpt><trkpt lat="42.2424683" lon="14.5238833"><ele>2.0</ele><time>2026-04-19T08:06:25.876Z</time></trkpt><trkpt lat="42.2425233" lon="14.5237683"><ele>2.0</ele><time>2026-04-19T08:06:27.875Z</time></trkpt><trkpt lat="42.2425733" lon="14.5236517"><ele>2.0</ele><time>2026-04-19T08:06:29.876Z</time></trkpt><trkpt lat="42.2426217" lon="14.523535"><ele>2.0</ele><time>2026-04-19T08:06:31.875Z</time></trkpt><trkpt lat="42.2426717" lon="14.5234117"><ele>1.8</ele><time>2026-04-19T08:06:33.876Z</time></trkpt><trkpt lat="42.24273" lon="14.52329"><ele>1.6</ele><time>2026-04-19T08:06:35.876Z</time></trkpt><trkpt lat="42.2427833" lon="14.5231683"><ele>1.4000000000000001</ele><time>2026-04-19T08:06:37.876Z</time></trkpt><trkpt lat="42.2428383" lon="14.5230467"><ele>1.2000000000000002</ele><time>2026-04-19T08:06:39.876Z</time></trkpt><trkpt lat="42.2428967" lon="14.5229333"><ele>1.0</ele><time>2026-04-19T08:06:41.876Z</time></trkpt><trkpt lat="42.242955" lon="14.5228167"><ele>1.0</ele><time>2026-04-19T08:06:43.875Z</time></trkpt><trkpt lat="42.2430067" lon="14.5227033"><ele>1.0</ele><time>2026-04-19T08:06:45.876Z</time></trkpt><trkpt lat="42.2430583" lon="14.522585"><ele>1.0</ele><time>2026-04-19T08:06:47.876Z</time></trkpt><trkpt lat="42.2431083" lon="14.5224733"><ele>1.0</ele><time>2026-04-19T08:06:49.875Z</time></trkpt><trkpt lat="42.2431533" lon="14.52237"><ele>1.0</ele><time>2026-04-19T08:06:51.876Z</time></trkpt><trkpt lat="42.2432017" lon="14.5222683"><ele>1.2000000000000002</ele><time>2026-04-19T08:06:53.875Z</time></trkpt><trkpt lat="42.2432533" lon="14.5221567"><ele>1.4000000000000001</ele><time>2026-04-19T08:06:55.876Z</time></trkpt><trkpt lat="42.243305" lon="14.5220517"><ele>1.6</ele><time>2026-04-19T08:06:57.875Z</time></trkpt><trkpt lat="42.2433517" lon="14.5219467"><ele>1.8</ele><time>2026-04-19T08:06:59.875Z</time></trkpt><trkpt lat="42.2434067" lon="14.5218283"><ele>2.0</ele><time>2026-04-19T08:07:01.875Z</time></trkpt><trkpt lat="42.243465" lon="14.5217117"><ele>2.2</ele><time>2026-04-19T08:07:03.875Z</time></trkpt><trkpt lat="42.2435183" lon="14.5215983"><ele>2.4000000000000004</ele><time>2026-04-19T08:07:05.876Z</time></trkpt><trkpt lat="42.24357" lon="14.521485"><ele>2.5999999999999996</ele><time>2026-04-19T08:07:07.876Z</time></trkpt><trkpt lat="42.243625" lon="14.5213767"><ele>2.8</ele><time>2026-04-19T08:07:09.876Z</time></trkpt><trkpt lat="42.2436783" lon="14.5212567"><ele>3.0</ele><time>2026-04-19T08:07:11.876Z</time></trkpt><trkpt lat="42.2437317" lon="14.52114"><ele>3.5999999999999996</ele><time>2026-04-19T08:07:13.875Z</time></trkpt><trkpt lat="42.2437883" lon="14.5210167"><ele>4.199999999999999</ele><time>2026-04-19T08:07:15.876Z</time></trkpt><trkpt lat="42.2438433" lon="14.5208967"><ele>4.8</ele><time>2026-04-19T08:07:17.876Z</time></trkpt><trkpt lat="42.2438967" lon="14.5207783"><ele>5.3999999999999995</ele><time>2026-04-19T08:07:19.875Z</time></trkpt><trkpt lat="42.2439533" lon="14.5206633"><ele>6.0</ele><time>2026-04-19T08:07:21.875Z</time></trkpt><trkpt lat="42.2440033" lon="14.520545"><ele>6.0</ele><time>2026-04-19T08:07:23.875Z</time></trkpt><trkpt lat="42.24406" lon="14.520435"><ele>6.0</ele><time>2026-04-19T08:07:25.875Z</time></trkpt><trkpt lat="42.24411" lon="14.52031"><ele>6.0</ele><time>2026-04-19T08:07:27.876Z</time></trkpt><trkpt lat="42.244165" lon="14.52019"><ele>6.0</ele><time>2026-04-19T08:07:29.875Z</time></trkpt><trkpt lat="42.2442217" lon="14.5200683"><ele>6.0</ele><time>2026-04-19T08:07:31.876Z</time></trkpt><trkpt lat="42.244275" lon="14.5199483"><ele>6.6</ele><time>2026-04-19T08:07:33.876Z</time></trkpt><trkpt lat="42.24433" lon="14.51983"><ele>7.199999999999999</ele><time>2026-04-19T08:07:35.876Z</time></trkpt><trkpt lat="42.2443867" lon="14.5197117"><ele>7.800000000000001</ele><time>2026-04-19T08:07:37.876Z</time></trkpt><trkpt lat="42.2444417" lon="14.5195933"><ele>8.4</ele><time>2026-04-19T08:07:39.876Z</time></trkpt><trkpt lat="42.244495" lon="14.519475"><ele>9.0</ele><time>2026-04-19T08:07:41.876Z</time></trkpt><trkpt lat="42.2445433" lon="14.51935"><ele>9.0</ele><time>2026-04-19T08:07:43.876Z</time></trkpt><trkpt lat="42.2445967" lon="14.519225"><ele>9.0</ele><time>2026-04-19T08:07:45.875Z</time></trkpt><trkpt lat="42.244655" lon="14.5191017"><ele>9.0</ele><time>2026-04-19T08:07:47.875Z</time></trkpt><trkpt lat="42.2447183" lon="14.5189883"><ele>9.0</ele><time>2026-04-19T08:07:49.876Z</time></trkpt><trkpt lat="42.2447767" lon="14.5188767"><ele>9.0</ele><time>2026-04-19T08:07:51.876Z</time></trkpt><trkpt lat="42.24483" lon="14.5187517"><ele>8.6</ele><time>2026-04-19T08:07:53.876Z</time></trkpt><trkpt lat="42.244875" lon="14.5186317"><ele>8.2</ele><time>2026-04-19T08:07:55.876Z</time></trkpt><trkpt lat="42.2449417" lon="14.5185167"><ele>7.799999999999999</ele><time>2026-04-19T08:07:57.876Z</time></trkpt><trkpt lat="42.2449917" lon="14.5183983"><ele>7.3999999999999995</ele><time>2026-04-19T08:07:59.876Z</time></trkpt><trkpt lat="42.245045" lon="14.5182833"><ele>7.0</ele><time>2026-04-19T08:08:01.875Z</time></trkpt><trkpt lat="42.245105" lon="14.518175"><ele>7.0</ele><time>2026-04-19T08:08:03.876Z</time></trkpt><trkpt lat="42.2451633" lon="14.5180617"><ele>6.999999999999999</ele><time>2026-04-19T08:08:05.876Z</time></trkpt><trkpt lat="42.245225" lon="14.5179533"><ele>6.999999999999999</ele><time>2026-04-19T08:08:07.876Z</time></trkpt><trkpt lat="42.245285" lon="14.5178417"><ele>7.0</ele><time>2026-04-19T08:08:09.876Z</time></trkpt><trkpt lat="42.24535" lon="14.5177317"><ele>7.0</ele><time>2026-04-19T08:08:11.876Z</time></trkpt><trkpt lat="42.24541" lon="14.5176233"><ele>6.8</ele><time>2026-04-19T08:08:13.876Z</time></trkpt><trkpt lat="42.245475" lon="14.51752"><ele>6.6</ele><time>2026-04-19T08:08:15.875Z</time></trkpt><trkpt lat="42.2455417" lon="14.5174167"><ele>6.3999999999999995</ele><time>2026-04-19T08:08:17.876Z</time></trkpt><trkpt lat="42.245605" lon="14.5173067"><ele>6.199999999999999</ele><time>2026-04-19T08:08:19.876Z</time></trkpt><trkpt lat="42.24567" lon="14.517205"><ele>6.0</ele><time>2026-04-19T08:08:21.876Z</time></trkpt><trkpt lat="42.2457417" lon="14.51709"><ele>6.199999999999999</ele><time>2026-04-19T08:08:23.876Z</time></trkpt><trkpt lat="42.2458083" lon="14.51698"><ele>6.3999999999999995</ele><time>2026-04-19T08:08:25.875Z</time></trkpt><trkpt lat="42.2458717" lon="14.51687"><ele>6.6</ele><time>2026-04-19T08:08:27.876Z</time></trkpt><trkpt lat="42.2459367" lon="14.5167567"><ele>6.8</ele><time>2026-04-19T08:08:29.875Z</time></trkpt><trkpt lat="42.2460033" lon="14.5166417"><ele>7.0</ele><time>2026-04-19T08:08:31.875Z</time></trkpt><trkpt lat="42.2460717" lon="14.51652"><ele>7.0</ele><time>2026-04-19T08:08:33.875Z</time></trkpt><trkpt lat="42.2461417" lon="14.5164067"><ele>6.999999999999999</ele><time>2026-04-19T08:08:35.876Z</time></trkpt><trkpt lat="42.24622" lon="14.5162883"><ele>6.999999999999999</ele><time>2026-04-19T08:08:37.876Z</time></trkpt><trkpt lat="42.24629" lon="14.5161783"><ele>7.0</ele><time>2026-04-19T08:08:39.875Z</time></trkpt><trkpt lat="42.2463567" lon="14.5160683"><ele>7.0</ele><time>2026-04-19T08:08:41.875Z</time></trkpt><trkpt lat="42.24643" lon="14.515965"><ele>7.199999999999999</ele><time>2026-04-19T08:08:43.875Z</time></trkpt><trkpt lat="42.2464933" lon="14.5158617"><ele>7.3999999999999995</ele><time>2026-04-19T08:08:45.875Z</time></trkpt><trkpt lat="42.2465617" lon="14.515755"><ele>7.6000000000000005</ele><time>2026-04-19T08:08:47.875Z</time></trkpt><trkpt lat="42.2466233" lon="14.515645"><ele>7.800000000000001</ele><time>2026-04-19T08:08:49.875Z</time></trkpt><trkpt lat="42.246695" lon="14.51553"><ele>8.0</ele><time>2026-04-19T08:08:51.875Z</time></trkpt><trkpt lat="42.2467683" lon="14.5154083"><ele>9.2</ele><time>2026-04-19T08:08:53.874Z</time></trkpt><trkpt lat="42.2468367" lon="14.5153033"><ele>10.4</ele><time>2026-04-19T08:08:55.874Z</time></trkpt><trkpt lat="42.2469083" lon="14.5151983"><ele>11.599999999999998</ele><time>2026-04-19T08:08:57.874Z</time></trkpt><trkpt lat="42.2469783" lon="14.51509"><ele>12.799999999999999</ele><time>2026-04-19T08:08:59.874Z</time></trkpt><trkpt lat="42.24705" lon="14.5149783"><ele>14.0</ele><time>2026-04-19T08:09:01.874Z</time></trkpt><trkpt lat="42.2471167" lon="14.51487"><ele>14.0</ele><time>2026-04-19T08:09:03.874Z</time></trkpt><trkpt lat="42.247185" lon="14.5147633"><ele>13.999999999999998</ele><time>2026-04-19T08:09:05.875Z</time></trkpt><trkpt lat="42.2472517" lon="14.51465"><ele>13.999999999999998</ele><time>2026-04-19T08:09:07.875Z</time></trkpt><trkpt lat="42.2473183" lon="14.5145417"><ele>14.0</ele><time>2026-04-19T08:09:09.875Z</time></trkpt><trkpt lat="42.2473867" lon="14.51444"><ele>14.0</ele><time>2026-04-19T08:09:11.875Z</time></trkpt><trkpt lat="42.2474567" lon="14.514335"><ele>12.799999999999999</ele><time>2026-04-19T08:09:13.875Z</time></trkpt><trkpt lat="42.2475333" lon="14.514215"><ele>11.599999999999998</ele><time>2026-04-19T08:09:15.874Z</time></trkpt><trkpt lat="42.2476017" lon="14.5141033"><ele>10.4</ele><time>2026-04-19T08:09:17.874Z</time></trkpt><trkpt lat="42.247665" lon="14.5139933"><ele>9.2</ele><time>2026-04-19T08:09:19.875Z</time></trkpt><trkpt lat="42.2477333" lon="14.51388"><ele>8.0</ele><time>2026-04-19T08:09:21.875Z</time></trkpt><trkpt lat="42.2477967" lon="14.5137683"><ele>9.600000000000001</ele><time>2026-04-19T08:09:23.875Z</time></trkpt><trkpt lat="42.2478633" lon="14.5136583"><ele>11.200000000000001</ele><time>2026-04-19T08:09:25.875Z</time></trkpt><trkpt lat="42.24793" lon="14.51355"><ele>12.8</ele><time>2026-04-19T08:09:27.874Z</time></trkpt><trkpt lat="42.2479917" lon="14.513435"><ele>14.4</ele><time>2026-04-19T08:09:29.875Z</time></trkpt><trkpt lat="42.248055" lon="14.5133267"><ele>16.0</ele><time>2026-04-19T08:09:31.875Z</time></trkpt><trkpt lat="42.24812" lon="14.5132183"><ele>14.8</ele><time>2026-04-19T08:09:33.874Z</time></trkpt><trkpt lat="42.24819" lon="14.5131067"><ele>13.600000000000001</ele><time>2026-04-19T08:09:35.875Z</time></trkpt><trkpt lat="42.24826" lon="14.512995"><ele>12.4</ele><time>2026-04-19T08:09:37.875Z</time></trkpt><trkpt lat="42.2483283" lon="14.51288"><ele>11.2</ele><time>2026-04-19T08:09:39.875Z</time></trkpt><trkpt lat="42.2483933" lon="14.51277"><ele>10.0</ele><time>2026-04-19T08:09:41.875Z</time></trkpt><trkpt lat="42.24846" lon="14.5126633"><ele>10.0</ele><time>2026-04-19T08:09:43.875Z</time></trkpt><trkpt lat="42.2485267" lon="14.5125467"><ele>10.0</ele><time>2026-04-19T08:09:45.875Z</time></trkpt><trkpt lat="42.2485933" lon="14.5124333"><ele>10.0</ele><time>2026-04-19T08:09:47.875Z</time></trkpt><trkpt lat="42.2486633" lon="14.5123217"><ele>10.0</ele><time>2026-04-19T08:09:49.875Z</time></trkpt><trkpt lat="42.2487333" lon="14.5122117"><ele>10.0</ele><time>2026-04-19T08:09:51.874Z</time></trkpt><trkpt lat="42.2488033" lon="14.5121033"><ele>9.2</ele><time>2026-04-19T08:09:53.875Z</time></trkpt><trkpt lat="42.24887" lon="14.5119933"><ele>8.4</ele><time>2026-04-19T08:09:55.875Z</time></trkpt><trkpt lat="42.2489317" lon="14.5118833"><ele>7.6</ele><time>2026-04-19T08:09:57.875Z</time></trkpt><trkpt lat="42.2489967" lon="14.511775"><ele>6.8</ele><time>2026-04-19T08:09:59.875Z</time></trkpt><trkpt lat="42.2490633" lon="14.5116717"><ele>6.0</ele><time>2026-04-19T08:10:01.874Z</time></trkpt><trkpt lat="42.2491267" lon="14.5115683"><ele>6.0</ele><time>2026-04-19T08:10:03.875Z</time></trkpt><trkpt lat="42.2491917" lon="14.5114583"><ele>6.0</ele><time>2026-04-19T08:10:05.874Z</time></trkpt><trkpt lat="42.24926" lon="14.51135"><ele>6.0</ele><time>2026-04-19T08:10:07.875Z</time></trkpt><trkpt lat="42.2493317" lon="14.5112433"><ele>6.0</ele><time>2026-04-19T08:10:09.874Z</time></trkpt><trkpt lat="42.2494033" lon="14.5111383"><ele>6.0</ele><time>2026-04-19T08:10:11.874Z</time></trkpt><trkpt lat="42.2494717" lon="14.511035"><ele>6.0</ele><time>2026-04-19T08:10:13.875Z</time></trkpt><trkpt lat="42.2495417" lon="14.5109267"><ele>6.0</ele><time>2026-04-19T08:10:15.875Z</time></trkpt><trkpt lat="42.24961" lon="14.5108183"><ele>6.0</ele><time>2026-04-19T08:10:17.874Z</time></trkpt><trkpt lat="42.24968" lon="14.51071"><ele>6.0</ele><time>2026-04-19T08:10:19.874Z</time></trkpt><trkpt lat="42.24975" lon="14.5106033"><ele>6.0</ele><time>2026-04-19T08:10:21.875Z</time></trkpt><trkpt lat="42.2498167" lon="14.51049"><ele>7.0</ele><time>2026-04-19T08:10:23.875Z</time></trkpt><trkpt lat="42.249885" lon="14.51038"><ele>8.0</ele><time>2026-04-19T08:10:25.875Z</time></trkpt><trkpt lat="42.249955" lon="14.5102717"><ele>9.0</ele><time>2026-04-19T08:10:27.875Z</time></trkpt><trkpt lat="42.2500217" lon="14.5101683"><ele>10.0</ele><time>2026-04-19T08:10:29.875Z</time></trkpt><trkpt lat="42.2500983" lon="14.51006"><ele>11.0</ele><time>2026-04-19T08:10:31.874Z</time></trkpt><trkpt lat="42.2501733" lon="14.5099533"><ele>11.0</ele><time>2026-04-19T08:10:33.875Z</time></trkpt><trkpt lat="42.2502517" lon="14.5098517"><ele>11.0</ele><time>2026-04-19T08:10:35.874Z</time></trkpt><trkpt lat="42.2503283" lon="14.509745"><ele>11.0</ele><time>2026-04-19T08:10:37.875Z</time></trkpt><trkpt lat="42.2504067" lon="14.5096417"><ele>11.0</ele><time>2026-04-19T08:10:39.875Z</time></trkpt><trkpt lat="42.2504883" lon="14.5095433"><ele>11.0</ele><time>2026-04-19T08:10:41.875Z</time></trkpt><trkpt lat="42.2505667" lon="14.5094467"><ele>11.200000000000001</ele><time>2026-04-19T08:10:43.874Z</time></trkpt><trkpt lat="42.2506483" lon="14.50935"><ele>11.4</ele><time>2026-04-19T08:10:45.874Z</time></trkpt><trkpt lat="42.25073" lon="14.50926"><ele>11.6</ele><time>2026-04-19T08:10:47.875Z</time></trkpt><trkpt lat="42.2508117" lon="14.5091717"><ele>11.8</ele><time>2026-04-19T08:10:49.875Z</time></trkpt><trkpt lat="42.2508967" lon="14.5090817"><ele>12.0</ele><time>2026-04-19T08:10:51.875Z</time></trkpt><trkpt lat="42.25098" lon="14.5089933"><ele>12.0</ele><time>2026-04-19T08:10:53.875Z</time></trkpt><trkpt lat="42.2510667" lon="14.50891"><ele>12.0</ele><time>2026-04-19T08:10:55.875Z</time></trkpt><trkpt lat="42.25115" lon="14.5088267"><ele>12.0</ele><time>2026-04-19T08:10:57.875Z</time></trkpt><trkpt lat="42.2512267" lon="14.5087417"><ele>12.0</ele><time>2026-04-19T08:10:59.875Z</time></trkpt><trkpt lat="42.2512983" lon="14.50866"><ele>12.0</ele><time>2026-04-19T08:11:01.875Z</time></trkpt><trkpt lat="42.2513717" lon="14.5085883"><ele>12.833333333333334</ele><time>2026-04-19T08:11:03.875Z</time></trkpt><trkpt lat="42.2514467" lon="14.5085067"><ele>13.666666666666668</ele><time>2026-04-19T08:11:05.874Z</time></trkpt><trkpt lat="42.2515067" lon="14.5084417"><ele>14.5</ele><time>2026-04-19T08:11:07.875Z</time></trkpt><trkpt lat="42.251565" lon="14.50838"><ele>15.333333333333334</ele><time>2026-04-19T08:11:09.874Z</time></trkpt><trkpt lat="42.2516317" lon="14.5083217"><ele>16.166666666666668</ele><time>2026-04-19T08:11:11.875Z</time></trkpt><trkpt lat="42.2517017" lon="14.50825"><ele>17.0</ele><time>2026-04-19T08:11:13.874Z</time></trkpt><trkpt lat="42.2517767" lon="14.5081733"><ele>15.6</ele><time>2026-04-19T08:11:15.875Z</time></trkpt><trkpt lat="42.2518517" lon="14.5080983"><ele>14.2</ele><time>2026-04-19T08:11:17.875Z</time></trkpt><trkpt lat="42.2519233" lon="14.508015"><ele>12.8</ele><time>2026-04-19T08:11:19.874Z</time></trkpt><trkpt lat="42.2520117" lon="14.5079267"><ele>11.4</ele><time>2026-04-19T08:11:21.874Z</time></trkpt><trkpt lat="42.2520917" lon="14.50785"><ele>10.0</ele><time>2026-04-19T08:11:23.875Z</time></trkpt><trkpt lat="42.2521733" lon="14.5077767"><ele>10.0</ele><time>2026-04-19T08:11:25.875Z</time></trkpt><trkpt lat="42.2522483" lon="14.5076967"><ele>10.0</ele><time>2026-04-19T08:11:27.875Z</time></trkpt><trkpt lat="42.2523267" lon="14.5076217"><ele>10.0</ele><time>2026-04-19T08:11:29.875Z</time></trkpt><trkpt lat="42.252415" lon="14.5075317"><ele>10.0</ele><time>2026-04-19T08:11:31.874Z</time></trkpt><trkpt lat="42.2525033" lon="14.5074583"><ele>10.0</ele><time>2026-04-19T08:11:33.875Z</time></trkpt><trkpt lat="42.2525933" lon="14.50739"><ele>9.2</ele><time>2026-04-19T08:11:35.874Z</time></trkpt><trkpt lat="42.2526817" lon="14.5073233"><ele>8.4</ele><time>2026-04-19T08:11:37.874Z</time></trkpt><trkpt lat="42.25277" lon="14.5072583"><ele>7.6</ele><time>2026-04-19T08:11:39.875Z</time></trkpt><trkpt lat="42.2528583" lon="14.507185"><ele>6.8</ele><time>2026-04-19T08:11:41.875Z</time></trkpt><trkpt lat="42.2529483" lon="14.50711"><ele>6.0</ele><time>2026-04-19T08:11:43.875Z</time></trkpt><trkpt lat="42.253035" lon="14.5070317"><ele>6.199999999999999</ele><time>2026-04-19T08:11:45.875Z</time></trkpt><trkpt lat="42.253115" lon="14.5069633"><ele>6.3999999999999995</ele><time>2026-04-19T08:11:47.875Z</time></trkpt><trkpt lat="42.2531933" lon="14.5069"><ele>6.6</ele><time>2026-04-19T08:11:49.875Z</time></trkpt><trkpt lat="42.2532683" lon="14.50683"><ele>6.8</ele><time>2026-04-19T08:11:51.875Z</time></trkpt><trkpt lat="42.2533533" lon="14.5067533"><ele>7.0</ele><time>2026-04-19T08:11:53.874Z</time></trkpt><trkpt lat="42.2534367" lon="14.5066783"><ele>7.0</ele><time>2026-04-19T08:11:55.874Z</time></trkpt><trkpt lat="42.2535117" lon="14.50661"><ele>6.999999999999999</ele><time>2026-04-19T08:11:57.875Z</time></trkpt><trkpt lat="42.253595" lon="14.50654"><ele>6.999999999999999</ele><time>2026-04-19T08:11:59.875Z</time></trkpt><trkpt lat="42.2536833" lon="14.5064817"><ele>7.0</ele><time>2026-04-19T08:12:01.874Z</time></trkpt><trkpt lat="42.2537733" lon="14.5064117"><ele>7.0</ele><time>2026-04-19T08:12:03.875Z</time></trkpt><trkpt lat="42.2538583" lon="14.50634"><ele>7.0</ele><time>2026-04-19T08:12:05.875Z</time></trkpt><trkpt lat="42.2539433" lon="14.5062733"><ele>6.999999999999999</ele><time>2026-04-19T08:12:07.874Z</time></trkpt><trkpt lat="42.2540283" lon="14.5062033"><ele>6.999999999999999</ele><time>2026-04-19T08:12:09.875Z</time></trkpt><trkpt lat="42.2541117" lon="14.5061283"><ele>7.0</ele><time>2026-04-19T08:12:11.875Z</time></trkpt><trkpt lat="42.2542" lon="14.50606"><ele>7.0</ele><time>2026-04-19T08:12:13.875Z</time></trkpt><trkpt lat="42.254285" lon="14.5059967"><ele>7.3999999999999995</ele><time>2026-04-19T08:12:15.875Z</time></trkpt><trkpt lat="42.2543717" lon="14.5059283"><ele>7.799999999999999</ele><time>2026-04-19T08:12:17.875Z</time></trkpt><trkpt lat="42.2544567" lon="14.505855"><ele>8.2</ele><time>2026-04-19T08:12:19.874Z</time></trkpt><trkpt lat="42.2545383" lon="14.5057817"><ele>8.6</ele><time>2026-04-19T08:12:21.875Z</time></trkpt><trkpt lat="42.254625" lon="14.5057083"><ele>9.0</ele><time>2026-04-19T08:12:23.874Z</time></trkpt><trkpt lat="42.25471" lon="14.50563"><ele>9.8</ele><time>2026-04-19T08:12:25.874Z</time></trkpt><trkpt lat="42.25479" lon="14.5055483"><ele>10.600000000000001</ele><time>2026-04-19T08:12:27.874Z</time></trkpt><trkpt lat="42.25487" lon="14.5054733"><ele>11.4</ele><time>2026-04-19T08:12:29.875Z</time></trkpt><trkpt lat="42.254955" lon="14.5054017"><ele>12.200000000000001</ele><time>2026-04-19T08:12:31.875Z</time></trkpt><trkpt lat="42.25504" lon="14.5053283"><ele>13.0</ele><time>2026-04-19T08:12:33.874Z</time></trkpt><trkpt lat="42.255125" lon="14.5052517"><ele>13.0</ele><time>2026-04-19T08:12:35.875Z</time></trkpt><trkpt lat="42.25521" lon="14.5051717"><ele>13.0</ele><time>2026-04-19T08:12:37.875Z</time></trkpt><trkpt lat="42.2553" lon="14.5050933"><ele>13.0</ele><time>2026-04-19T08:12:39.874Z</time></trkpt><trkpt lat="42.2553883" lon="14.50502"><ele>13.0</ele><time>2026-04-19T08:12:41.875Z</time></trkpt><trkpt lat="42.2554733" lon="14.5049417"><ele>13.0</ele><time>2026-04-19T08:12:43.874Z</time></trkpt><trkpt lat="42.2555567" lon="14.5048683"><ele>13.8</ele><time>2026-04-19T08:12:45.875Z</time></trkpt><trkpt lat="42.25564" lon="14.5047983"><ele>14.600000000000001</ele><time>2026-04-19T08:12:47.875Z</time></trkpt><trkpt lat="42.255725" lon="14.5047317"><ele>15.399999999999999</ele><time>2026-04-19T08:12:49.875Z</time></trkpt><trkpt lat="42.25581" lon="14.5046583"><ele>16.2</ele><time>2026-04-19T08:12:51.875Z</time></trkpt><trkpt lat="42.255895" lon="14.5045833"><ele>17.0</ele><time>2026-04-19T08:12:53.875Z</time></trkpt><trkpt lat="42.25598" lon="14.50451"><ele>17.0</ele><time>2026-04-19T08:12:55.875Z</time></trkpt><trkpt lat="42.25607" lon="14.5044467"><ele>17.0</ele><time>2026-04-19T08:12:57.875Z</time></trkpt><trkpt lat="42.2561567" lon="14.5043817"><ele>17.0</ele><time>2026-04-19T08:12:59.875Z</time></trkpt><trkpt lat="42.2562417" lon="14.5043167"><ele>17.0</ele><time>2026-04-19T08:13:01.874Z</time></trkpt><trkpt lat="42.256325" lon="14.50425"><ele>17.0</ele><time>2026-04-19T08:13:03.875Z</time></trkpt><trkpt lat="42.2564117" lon="14.50418"><ele>14.6</ele><time>2026-04-19T08:13:05.875Z</time></trkpt><trkpt lat="42.2564983" lon="14.5041083"><ele>12.2</ele><time>2026-04-19T08:13:07.875Z</time></trkpt><trkpt lat="42.2565883" lon="14.5040333"><ele>9.8</ele><time>2026-04-19T08:13:09.874Z</time></trkpt><trkpt lat="42.25667" lon="14.5039567"><ele>7.4</ele><time>2026-04-19T08:13:11.875Z</time></trkpt><trkpt lat="42.2567583" lon="14.5038767"><ele>5.0</ele><time>2026-04-19T08:13:13.875Z</time></trkpt><trkpt lat="42.2568483" lon="14.5038033"><ele>5.2</ele><time>2026-04-19T08:13:15.874Z</time></trkpt><trkpt lat="42.25694" lon="14.5037283"><ele>5.4</ele><time>2026-04-19T08:13:17.875Z</time></trkpt><trkpt lat="42.2570283" lon="14.5036383"><ele>5.6</ele><time>2026-04-19T08:13:19.874Z</time></trkpt><trkpt lat="42.25712" lon="14.50356"><ele>5.8</ele><time>2026-04-19T08:13:21.874Z</time></trkpt><trkpt lat="42.2572133" lon="14.5034933"><ele>6.0</ele><time>2026-04-19T08:13:23.875Z</time></trkpt><trkpt lat="42.2573017" lon="14.50341"><ele>6.0</ele><time>2026-04-19T08:13:25.875Z</time></trkpt><trkpt lat="42.2573833" lon="14.50334"><ele>6.0</ele><time>2026-04-19T08:13:27.875Z</time></trkpt><trkpt lat="42.257465" lon="14.5032667"><ele>6.0</ele><time>2026-04-19T08:13:29.875Z</time></trkpt><trkpt lat="42.2575517" lon="14.5031933"><ele>6.0</ele><time>2026-04-19T08:13:31.875Z</time></trkpt><trkpt lat="42.2576417" lon="14.50312"><ele>6.0</ele><time>2026-04-19T08:13:33.875Z</time></trkpt><trkpt lat="42.2577267" lon="14.503055"><ele>6.0</ele><time>2026-04-19T08:13:35.875Z</time></trkpt><trkpt lat="42.2578167" lon="14.502985"><ele>6.0</ele><time>2026-04-19T08:13:37.874Z</time></trkpt><trkpt lat="42.2579067" lon="14.50292"><ele>6.0</ele><time>2026-04-19T08:13:39.875Z</time></trkpt><trkpt lat="42.2579933" lon="14.5028367"><ele>6.0</ele><time>2026-04-19T08:13:41.874Z</time></trkpt><trkpt lat="42.2580817" lon="14.5027617"><ele>6.0</ele><time>2026-04-19T08:13:43.874Z</time></trkpt><trkpt lat="42.258165" lon="14.5026817"><ele>6.199999999999999</ele><time>2026-04-19T08:13:45.875Z</time></trkpt><trkpt lat="42.2582467" lon="14.5025967"><ele>6.3999999999999995</ele><time>2026-04-19T08:13:47.874Z</time></trkpt><trkpt lat="42.25833" lon="14.5025267"><ele>6.6</ele><time>2026-04-19T08:13:49.875Z</time></trkpt><trkpt lat="42.2584217" lon="14.5024617"><ele>6.8</ele><time>2026-04-19T08:13:51.874Z</time></trkpt><trkpt lat="42.2585133" lon="14.5023917"><ele>7.0</ele><time>2026-04-19T08:13:53.875Z</time></trkpt><trkpt lat="42.2585983" lon="14.5023217"><ele>7.0</ele><time>2026-04-19T08:13:55.875Z</time></trkpt><trkpt lat="42.2586883" lon="14.5022533"><ele>6.999999999999999</ele><time>2026-04-19T08:13:57.875Z</time></trkpt><trkpt lat="42.258775" lon="14.5021767"><ele>6.999999999999999</ele><time>2026-04-19T08:13:59.875Z</time></trkpt><trkpt lat="42.25886" lon="14.5020983"><ele>7.0</ele><time>2026-04-19T08:14:01.875Z</time></trkpt><trkpt lat="42.2589433" lon="14.50201"><ele>7.0</ele><time>2026-04-19T08:14:03.875Z</time></trkpt><trkpt lat="42.2590233" lon="14.5019467"><ele>6.8</ele><time>2026-04-19T08:14:05.874Z</time></trkpt><trkpt lat="42.25911" lon="14.5018683"><ele>6.6</ele><time>2026-04-19T08:14:07.874Z</time></trkpt><trkpt lat="42.2591983" lon="14.5017933"><ele>6.3999999999999995</ele><time>2026-04-19T08:14:09.875Z</time></trkpt><trkpt lat="42.2592867" lon="14.5017233"><ele>6.199999999999999</ele><time>2026-04-19T08:14:11.874Z</time></trkpt><trkpt lat="42.2593717" lon="14.50165"><ele>6.0</ele><time>2026-04-19T08:14:13.875Z</time></trkpt><trkpt lat="42.2594583" lon="14.5015767"><ele>6.0</ele><time>2026-04-19T08:14:15.875Z</time></trkpt><trkpt lat="42.2595467" lon="14.5015083"><ele>6.0</ele><time>2026-04-19T08:14:17.875Z</time></trkpt><trkpt lat="42.25964" lon="14.5014433"><ele>6.0</ele><time>2026-04-19T08:14:19.875Z</time></trkpt><trkpt lat="42.2597317" lon="14.5013783"><ele>6.0</ele><time>2026-04-19T08:14:21.875Z</time></trkpt><trkpt lat="42.25982" lon="14.5013183"><ele>6.0</ele><time>2026-04-19T08:14:23.874Z</time></trkpt><trkpt lat="42.25991" lon="14.50125"><ele>7.4</ele><time>2026-04-19T08:14:25.875Z</time></trkpt><trkpt lat="42.260005" lon="14.5011967"><ele>8.8</ele><time>2026-04-19T08:14:27.874Z</time></trkpt><trkpt lat="42.2600983" lon="14.501145"><ele>10.200000000000001</ele><time>2026-04-19T08:14:29.875Z</time></trkpt><trkpt lat="42.2601917" lon="14.5010983"><ele>11.6</ele><time>2026-04-19T08:14:31.874Z</time></trkpt><trkpt lat="42.2602867" lon="14.5010483"><ele>13.0</ele><time>2026-04-19T08:14:33.875Z</time></trkpt><trkpt lat="42.2603833" lon="14.501"><ele>13.0</ele><time>2026-04-19T08:14:35.875Z</time></trkpt><trkpt lat="42.26048" lon="14.50096"><ele>13.0</ele><time>2026-04-19T08:14:37.874Z</time></trkpt><trkpt lat="42.2605783" lon="14.5009267"><ele>13.0</ele><time>2026-04-19T08:14:39.874Z</time></trkpt><trkpt lat="42.2606783" lon="14.5008933"><ele>13.0</ele><time>2026-04-19T08:14:41.874Z</time></trkpt><trkpt lat="42.2607817" lon="14.5008617"><ele>13.0</ele><time>2026-04-19T08:14:43.875Z</time></trkpt><trkpt lat="42.2608883" lon="14.5008317"><ele>11.6</ele><time>2026-04-19T08:14:45.875Z</time></trkpt><trkpt lat="42.260995" lon="14.500805"><ele>10.200000000000001</ele><time>2026-04-19T08:14:47.874Z</time></trkpt><trkpt lat="42.2611033" lon="14.5007767"><ele>8.8</ele><time>2026-04-19T08:14:49.875Z</time></trkpt><trkpt lat="42.261205" lon="14.5007517"><ele>7.4</ele><time>2026-04-19T08:14:51.875Z</time></trkpt><trkpt lat="42.2613067" lon="14.50074"><ele>6.0</ele><time>2026-04-19T08:14:53.874Z</time></trkpt><trkpt lat="42.2614117" lon="14.5007217"><ele>6.0</ele><time>2026-04-19T08:14:55.875Z</time></trkpt><trkpt lat="42.2615167" lon="14.500715"><ele>6.0</ele><time>2026-04-19T08:14:57.874Z</time></trkpt><trkpt lat="42.26162" lon="14.5007133"><ele>6.0</ele><time>2026-04-19T08:14:59.875Z</time></trkpt><trkpt lat="42.2617267" lon="14.5007133"><ele>6.0</ele><time>2026-04-19T08:15:01.874Z</time></trkpt><trkpt lat="42.2618267" lon="14.5007133"><ele>6.0</ele><time>2026-04-19T08:15:03.875Z</time></trkpt><trkpt lat="42.2619283" lon="14.5007133"><ele>6.0</ele><time>2026-04-19T08:15:05.875Z</time></trkpt><trkpt lat="42.2620317" lon="14.5007067"><ele>6.0</ele><time>2026-04-19T08:15:07.875Z</time></trkpt><trkpt lat="42.2621317" lon="14.5007083"><ele>6.0</ele><time>2026-04-19T08:15:09.875Z</time></trkpt><trkpt lat="42.262235" lon="14.500715"><ele>6.0</ele><time>2026-04-19T08:15:11.875Z</time></trkpt><trkpt lat="42.2623383" lon="14.5007233"><ele>6.0</ele><time>2026-04-19T08:15:13.875Z</time></trkpt><trkpt lat="42.262435" lon="14.5007383"><ele>6.0</ele><time>2026-04-19T08:15:15.875Z</time></trkpt><trkpt lat="42.26255" lon="14.500745"><ele>6.0</ele><time>2026-04-19T08:15:17.875Z</time></trkpt><trkpt lat="42.262655" lon="14.5007533"><ele>6.0</ele><time>2026-04-19T08:15:19.875Z</time></trkpt><trkpt lat="42.2627617" lon="14.50076"><ele>6.0</ele><time>2026-04-19T08:15:21.875Z</time></trkpt><trkpt lat="42.2628767" lon="14.5007533"><ele>6.0</ele><time>2026-04-19T08:15:23.875Z</time></trkpt><trkpt lat="42.2629717" lon="14.5007633"><ele>6.0</ele><time>2026-04-19T08:15:25.875Z</time></trkpt><trkpt lat="42.2630717" lon="14.5007817"><ele>6.0</ele><time>2026-04-19T08:15:27.875Z</time></trkpt><trkpt lat="42.2631733" lon="14.5007967"><ele>6.0</ele><time>2026-04-19T08:15:29.874Z</time></trkpt><trkpt lat="42.26328" lon="14.5007917"><ele>6.0</ele><time>2026-04-19T08:15:31.874Z</time></trkpt><trkpt lat="42.2633867" lon="14.5007933"><ele>6.0</ele><time>2026-04-19T08:15:33.874Z</time></trkpt><trkpt lat="42.2634933" lon="14.5008033"><ele>6.0</ele><time>2026-04-19T08:15:35.875Z</time></trkpt><trkpt lat="42.2635983" lon="14.5008133"><ele>6.0</ele><time>2026-04-19T08:15:37.874Z</time></trkpt><trkpt lat="42.2637067" lon="14.50081"><ele>6.0</ele><time>2026-04-19T08:15:39.875Z</time></trkpt><trkpt lat="42.2638133" lon="14.500815"><ele>6.0</ele><time>2026-04-19T08:15:41.874Z</time></trkpt><trkpt lat="42.263915" lon="14.5008367"><ele>6.0</ele><time>2026-04-19T08:15:43.875Z</time></trkpt><trkpt lat="42.2640133" lon="14.500845"><ele>6.0</ele><time>2026-04-19T08:15:45.874Z</time></trkpt><trkpt lat="42.2641133" lon="14.5008383"><ele>6.0</ele><time>2026-04-19T08:15:47.875Z</time></trkpt><trkpt lat="42.264215" lon="14.5008333"><ele>6.0</ele><time>2026-04-19T08:15:49.874Z</time></trkpt><trkpt lat="42.2643183" lon="14.5008283"><ele>6.0</ele><time>2026-04-19T08:15:51.875Z</time></trkpt><trkpt lat="42.2644183" lon="14.500835"><ele>6.0</ele><time>2026-04-19T08:15:53.874Z</time></trkpt><trkpt lat="42.2645183" lon="14.5008367"><ele>6.0</ele><time>2026-04-19T08:15:55.875Z</time></trkpt><trkpt lat="42.2646167" lon="14.5008417"><ele>6.0</ele><time>2026-04-19T08:15:57.875Z</time></trkpt><trkpt lat="42.2647183" lon="14.5008533"><ele>6.0</ele><time>2026-04-19T08:15:59.875Z</time></trkpt><trkpt lat="42.2648183" lon="14.500855"><ele>6.0</ele><time>2026-04-19T08:16:01.875Z</time></trkpt><trkpt lat="42.2649233" lon="14.500855"><ele>6.0</ele><time>2026-04-19T08:16:03.874Z</time></trkpt><trkpt lat="42.2650217" lon="14.50085"><ele>6.6</ele><time>2026-04-19T08:16:05.875Z</time></trkpt><trkpt lat="42.2651217" lon="14.50086"><ele>7.199999999999999</ele><time>2026-04-19T08:16:07.875Z</time></trkpt><trkpt lat="42.26522" lon="14.50088"><ele>7.800000000000001</ele><time>2026-04-19T08:16:09.875Z</time></trkpt><trkpt lat="42.26532" lon="14.5009067"><ele>8.4</ele><time>2026-04-19T08:16:11.874Z</time></trkpt><trkpt lat="42.2654233" lon="14.5009267"><ele>9.0</ele><time>2026-04-19T08:16:13.874Z</time></trkpt><trkpt lat="42.265525" lon="14.500945"><ele>10.2</ele><time>2026-04-19T08:16:15.874Z</time></trkpt><trkpt lat="42.265625" lon="14.50096"><ele>11.4</ele><time>2026-04-19T08:16:17.874Z</time></trkpt><trkpt lat="42.2657267" lon="14.5009833"><ele>12.6</ele><time>2026-04-19T08:16:19.875Z</time></trkpt><trkpt lat="42.2658267" lon="14.501005"><ele>13.8</ele><time>2026-04-19T08:16:21.875Z</time></trkpt><trkpt lat="42.2659333" lon="14.5010233"><ele>15.0</ele><time>2026-04-19T08:16:23.875Z</time></trkpt><trkpt lat="42.2660367" lon="14.5010467"><ele>15.0</ele><time>2026-04-19T08:16:25.875Z</time></trkpt><trkpt lat="42.266135" lon="14.501075"><ele>15.0</ele><time>2026-04-19T08:16:27.874Z</time></trkpt><trkpt lat="42.2662317" lon="14.5011267"><ele>15.0</ele><time>2026-04-19T08:16:29.875Z</time></trkpt><trkpt lat="42.2663333" lon="14.5011617"><ele>15.0</ele><time>2026-04-19T08:16:31.874Z</time></trkpt><trkpt lat="42.26643" lon="14.501205"><ele>15.0</ele><time>2026-04-19T08:16:33.875Z</time></trkpt><trkpt lat="42.2665267" lon="14.5012483"><ele>13.0</ele><time>2026-04-19T08:16:35.875Z</time></trkpt><trkpt lat="42.2666233" lon="14.5012983"><ele>11.0</ele><time>2026-04-19T08:16:37.874Z</time></trkpt><trkpt lat="42.2667183" lon="14.5013517"><ele>9.0</ele><time>2026-04-19T08:16:39.875Z</time></trkpt><trkpt lat="42.2668133" lon="14.501405"><ele>7.0</ele><time>2026-04-19T08:16:41.875Z</time></trkpt><trkpt lat="42.2669067" lon="14.5014583"><ele>5.0</ele><time>2026-04-19T08:16:43.875Z</time></trkpt><trkpt lat="42.2669983" lon="14.5015167"><ele>5.0</ele><time>2026-04-19T08:16:45.874Z</time></trkpt><trkpt lat="42.26709" lon="14.50158"><ele>5.0</ele><time>2026-04-19T08:16:47.875Z</time></trkpt><trkpt lat="42.2671833" lon="14.5016367"><ele>5.0</ele><time>2026-04-19T08:16:49.875Z</time></trkpt><trkpt lat="42.267275" lon="14.5016933"><ele>5.0</ele><time>2026-04-19T08:16:51.875Z</time></trkpt><trkpt lat="42.2673667" lon="14.5017517"><ele>5.0</ele><time>2026-04-19T08:16:53.875Z</time></trkpt><trkpt lat="42.267455" lon="14.5018117"><ele>4.6</ele><time>2026-04-19T08:16:55.874Z</time></trkpt><trkpt lat="42.267545" lon="14.50187"><ele>4.2</ele><time>2026-04-19T08:16:57.875Z</time></trkpt><trkpt lat="42.267635" lon="14.5019267"><ele>3.8</ele><time>2026-04-19T08:16:59.874Z</time></trkpt><trkpt lat="42.2677267" lon="14.50199"><ele>3.4</ele><time>2026-04-19T08:17:01.874Z</time></trkpt><trkpt lat="42.2678133" lon="14.50205"><ele>3.0</ele><time>2026-04-19T08:17:03.875Z</time></trkpt><trkpt lat="42.2679083" lon="14.5021017"><ele>3.0</ele><time>2026-04-19T08:17:05.874Z</time></trkpt><trkpt lat="42.2680083" lon="14.50215"><ele>3.0</ele><time>2026-04-19T08:17:07.874Z</time></trkpt><trkpt lat="42.2681033" lon="14.5021983"><ele>3.0</ele><time>2026-04-19T08:17:09.874Z</time></trkpt><trkpt lat="42.2682033" lon="14.5022433"><ele>3.0</ele><time>2026-04-19T08:17:11.875Z</time></trkpt><trkpt lat="42.26829" lon="14.5022733"><ele>3.0</ele><time>2026-04-19T08:17:13.874Z</time></trkpt><trkpt lat="42.2683833" lon="14.5022983"><ele>3.5999999999999996</ele><time>2026-04-19T08:17:15.874Z</time></trkpt><trkpt lat="42.2684733" lon="14.5023367"><ele>4.199999999999999</ele><time>2026-04-19T08:17:17.875Z</time></trkpt><trkpt lat="42.26857" lon="14.50237"><ele>4.8</ele><time>2026-04-19T08:17:19.875Z</time></trkpt><trkpt lat="42.2686667" lon="14.502405"><ele>5.3999999999999995</ele><time>2026-04-19T08:17:21.875Z</time></trkpt><trkpt lat="42.2687633" lon="14.5024383"><ele>6.0</ele><time>2026-04-19T08:17:23.875Z</time></trkpt><trkpt lat="42.2688567" lon="14.50247"><ele>6.6</ele><time>2026-04-19T08:17:25.875Z</time></trkpt><trkpt lat="42.2689533" lon="14.5024967"><ele>7.199999999999999</ele><time>2026-04-19T08:17:27.875Z</time></trkpt><trkpt lat="42.2690483" lon="14.5025133"><ele>7.800000000000001</ele><time>2026-04-19T08:17:29.875Z</time></trkpt><trkpt lat="42.2691433" lon="14.50253"><ele>8.4</ele><time>2026-04-19T08:17:31.875Z</time></trkpt><trkpt lat="42.2692367" lon="14.5025483"><ele>9.0</ele><time>2026-04-19T08:17:33.875Z</time></trkpt><trkpt lat="42.26933" lon="14.5025567"><ele>9.0</ele><time>2026-04-19T08:17:35.875Z</time></trkpt><trkpt lat="42.2694333" lon="14.5025567"><ele>9.0</ele><time>2026-04-19T08:17:37.875Z</time></trkpt><trkpt lat="42.26954" lon="14.5025533"><ele>9.0</ele><time>2026-04-19T08:17:39.875Z</time></trkpt><trkpt lat="42.26965" lon="14.5025467"><ele>9.0</ele><time>2026-04-19T08:17:41.874Z</time></trkpt><trkpt lat="42.26976" lon="14.5025367"><ele>9.0</ele><time>2026-04-19T08:17:43.874Z</time></trkpt><trkpt lat="42.2698633" lon="14.5025267"><ele>8.6</ele><time>2026-04-19T08:17:45.874Z</time></trkpt><trkpt lat="42.269975" lon="14.5025083"><ele>8.2</ele><time>2026-04-19T08:17:47.874Z</time></trkpt><trkpt lat="42.2700733" lon="14.5025017"><ele>7.799999999999999</ele><time>2026-04-19T08:17:49.874Z</time></trkpt><trkpt lat="42.2701733" lon="14.5024917"><ele>7.3999999999999995</ele><time>2026-04-19T08:17:51.874Z</time></trkpt><trkpt lat="42.2702583" lon="14.5024517"><ele>7.0</ele><time>2026-04-19T08:17:53.874Z</time></trkpt><trkpt lat="42.2703433" lon="14.50242"><ele>7.0</ele><time>2026-04-19T08:17:55.874Z</time></trkpt><trkpt lat="42.2704267" lon="14.5024"><ele>6.999999999999999</ele><time>2026-04-19T08:17:57.873Z</time></trkpt><trkpt lat="42.2705067" lon="14.5023733"><ele>6.999999999999999</ele><time>2026-04-19T08:17:59.874Z</time></trkpt><trkpt lat="42.2705967" lon="14.50234"><ele>7.0</ele><time>2026-04-19T08:18:01.874Z</time></trkpt><trkpt lat="42.2706933" lon="14.5023117"><ele>7.0</ele><time>2026-04-19T08:18:03.874Z</time></trkpt><trkpt lat="42.270795" lon="14.5022817"><ele>7.0</ele><time>2026-04-19T08:18:05.873Z</time></trkpt><trkpt lat="42.270895" lon="14.5022517"><ele>6.999999999999999</ele><time>2026-04-19T08:18:07.874Z</time></trkpt><trkpt lat="42.27099" lon="14.502215"><ele>6.999999999999999</ele><time>2026-04-19T08:18:09.873Z</time></trkpt><trkpt lat="42.2710867" lon="14.5021733"><ele>7.0</ele><time>2026-04-19T08:18:11.874Z</time></trkpt><trkpt lat="42.2711833" lon="14.50213"><ele>7.0</ele><time>2026-04-19T08:18:13.874Z</time></trkpt><trkpt lat="42.2712783" lon="14.5020833"><ele>8.0</ele><time>2026-04-19T08:18:15.874Z</time></trkpt><trkpt lat="42.2713783" lon="14.5020317"><ele>9.0</ele><time>2026-04-19T08:18:17.873Z</time></trkpt><trkpt lat="42.2714733" lon="14.5019717"><ele>10.0</ele><time>2026-04-19T08:18:19.873Z</time></trkpt><trkpt lat="42.2715617" lon="14.5019117"><ele>11.0</ele><time>2026-04-19T08:18:21.874Z</time></trkpt><trkpt lat="42.271655" lon="14.5018483"><ele>12.0</ele><time>2026-04-19T08:18:23.874Z</time></trkpt><trkpt lat="42.2717483" lon="14.5017717"><ele>12.0</ele><time>2026-04-19T08:18:25.874Z</time></trkpt><trkpt lat="42.2718383" lon="14.50169"><ele>12.0</ele><time>2026-04-19T08:18:27.873Z</time></trkpt><trkpt lat="42.2719283" lon="14.5016167"><ele>12.0</ele><time>2026-04-19T08:18:29.874Z</time></trkpt><trkpt lat="42.2720183" lon="14.5015433"><ele>12.0</ele><time>2026-04-19T08:18:31.874Z</time></trkpt><trkpt lat="42.2721067" lon="14.5014617"><ele>12.0</ele><time>2026-04-19T08:18:33.873Z</time></trkpt><trkpt lat="42.27219" lon="14.50138"><ele>12.0</ele><time>2026-04-19T08:18:35.874Z</time></trkpt><trkpt lat="42.27227" lon="14.501295"><ele>12.0</ele><time>2026-04-19T08:18:37.873Z</time></trkpt><trkpt lat="42.2723583" lon="14.5012133"><ele>12.0</ele><time>2026-04-19T08:18:39.873Z</time></trkpt><trkpt lat="42.2724367" lon="14.5011267"><ele>12.0</ele><time>2026-04-19T08:18:41.874Z</time></trkpt><trkpt lat="42.2725167" lon="14.5010317"><ele>12.0</ele><time>2026-04-19T08:18:43.874Z</time></trkpt><trkpt lat="42.2726" lon="14.5009333"><ele>11.6</ele><time>2026-04-19T08:18:45.874Z</time></trkpt><trkpt lat="42.27267" lon="14.50083"><ele>11.2</ele><time>2026-04-19T08:18:47.874Z</time></trkpt><trkpt lat="42.2727433" lon="14.500735"><ele>10.8</ele><time>2026-04-19T08:18:49.874Z</time></trkpt><trkpt lat="42.2728117" lon="14.5006417"><ele>10.4</ele><time>2026-04-19T08:18:51.874Z</time></trkpt><trkpt lat="42.2728867" lon="14.5005433"><ele>10.0</ele><time>2026-04-19T08:18:53.874Z</time></trkpt><trkpt lat="42.2729633" lon="14.5004417"><ele>8.8</ele><time>2026-04-19T08:18:55.874Z</time></trkpt><trkpt lat="42.2730283" lon="14.5003383"><ele>7.6</ele><time>2026-04-19T08:18:57.874Z</time></trkpt><trkpt lat="42.2730917" lon="14.5002317"><ele>6.4</ele><time>2026-04-19T08:18:59.874Z</time></trkpt><trkpt lat="42.2731567" lon="14.5001217"><ele>5.2</ele><time>2026-04-19T08:19:01.874Z</time></trkpt><trkpt lat="42.273225" lon="14.5000017"><ele>4.0</ele><time>2026-04-19T08:19:03.874Z</time></trkpt><trkpt lat="42.2732883" lon="14.4998917"><ele>4.0</ele><time>2026-04-19T08:19:05.874Z</time></trkpt><trkpt lat="42.273345" lon="14.4997783"><ele>4.0</ele><time>2026-04-19T08:19:07.873Z</time></trkpt><trkpt lat="42.273395" lon="14.49966"><ele>4.0</ele><time>2026-04-19T08:19:09.874Z</time></trkpt><trkpt lat="42.27345" lon="14.49954"><ele>4.0</ele><time>2026-04-19T08:19:11.874Z</time></trkpt><trkpt lat="42.2735033" lon="14.499415"><ele>4.0</ele><time>2026-04-19T08:19:13.873Z</time></trkpt><trkpt lat="42.2735517" lon="14.4992883"><ele>4.800000000000001</ele><time>2026-04-19T08:19:15.874Z</time></trkpt><trkpt lat="42.2735967" lon="14.4991567"><ele>5.6000000000000005</ele><time>2026-04-19T08:19:17.874Z</time></trkpt><trkpt lat="42.2736433" lon="14.499025"><ele>6.4</ele><time>2026-04-19T08:19:19.873Z</time></trkpt><trkpt lat="42.2736883" lon="14.49889"><ele>7.2</ele><time>2026-04-19T08:19:21.874Z</time></trkpt><trkpt lat="42.27373" lon="14.4987567"><ele>8.0</ele><time>2026-04-19T08:19:23.874Z</time></trkpt><trkpt lat="42.2737767" lon="14.49862"><ele>6.800000000000001</ele><time>2026-04-19T08:19:25.873Z</time></trkpt><trkpt lat="42.2738217" lon="14.49849"><ele>5.6000000000000005</ele><time>2026-04-19T08:19:27.874Z</time></trkpt><trkpt lat="42.2738617" lon="14.49836"><ele>4.4</ele><time>2026-04-19T08:19:29.874Z</time></trkpt><trkpt lat="42.27391" lon="14.4982267"><ele>3.2</ele><time>2026-04-19T08:19:31.874Z</time></trkpt><trkpt lat="42.2739617" lon="14.4980933"><ele>2.0</ele><time>2026-04-19T08:19:33.873Z</time></trkpt><trkpt lat="42.274015" lon="14.49796"><ele>3.0</ele><time>2026-04-19T08:19:35.874Z</time></trkpt><trkpt lat="42.274065" lon="14.4978267"><ele>4.0</ele><time>2026-04-19T08:19:37.874Z</time></trkpt><trkpt lat="42.2741183" lon="14.4976967"><ele>4.999999999999999</ele><time>2026-04-19T08:19:39.874Z</time></trkpt><trkpt lat="42.274175" lon="14.497575"><ele>6.0</ele><time>2026-04-19T08:19:41.874Z</time></trkpt><trkpt lat="42.2742383" lon="14.49746"><ele>7.0</ele><time>2026-04-19T08:19:43.874Z</time></trkpt><trkpt lat="42.2743" lon="14.4973433"><ele>7.0</ele><time>2026-04-19T08:19:45.873Z</time></trkpt><trkpt lat="42.274365" lon="14.49723"><ele>6.999999999999999</ele><time>2026-04-19T08:19:47.874Z</time></trkpt><trkpt lat="42.274435" lon="14.497115"><ele>6.999999999999999</ele><time>2026-04-19T08:19:49.874Z</time></trkpt><trkpt lat="42.2745017" lon="14.4970017"><ele>7.0</ele><time>2026-04-19T08:19:51.874Z</time></trkpt><trkpt lat="42.2745767" lon="14.4968883"><ele>7.0</ele><time>2026-04-19T08:19:53.874Z</time></trkpt><trkpt lat="42.2746517" lon="14.4967767"><ele>6.6</ele><time>2026-04-19T08:19:55.874Z</time></trkpt><trkpt lat="42.274725" lon="14.4966717"><ele>6.199999999999999</ele><time>2026-04-19T08:19:57.873Z</time></trkpt><trkpt lat="42.274805" lon="14.4965733"><ele>5.8</ele><time>2026-04-19T08:19:59.874Z</time></trkpt><trkpt lat="42.2748783" lon="14.496475"><ele>5.4</ele><time>2026-04-19T08:20:01.874Z</time></trkpt><trkpt lat="42.2749567" lon="14.4963717"><ele>5.0</ele><time>2026-04-19T08:20:03.874Z</time></trkpt><trkpt lat="42.2750317" lon="14.4962733"><ele>7.0</ele><time>2026-04-19T08:20:05.874Z</time></trkpt><trkpt lat="42.2751083" lon="14.4961633"><ele>9.0</ele><time>2026-04-19T08:20:07.874Z</time></trkpt><trkpt lat="42.2751833" lon="14.496055"><ele>11.0</ele><time>2026-04-19T08:20:09.873Z</time></trkpt><trkpt lat="42.2752583" lon="14.4959483"><ele>13.0</ele><time>2026-04-19T08:20:11.874Z</time></trkpt><trkpt lat="42.2753367" lon="14.49584"><ele>15.0</ele><time>2026-04-19T08:20:13.873Z</time></trkpt><trkpt lat="42.2754133" lon="14.4957383"><ele>15.0</ele><time>2026-04-19T08:20:15.874Z</time></trkpt><trkpt lat="42.27549" lon="14.4956383"><ele>15.0</ele><time>2026-04-19T08:20:17.874Z</time></trkpt><trkpt lat="42.2755733" lon="14.4955433"><ele>15.0</ele><time>2026-04-19T08:20:19.874Z</time></trkpt><trkpt lat="42.2756533" lon="14.4954433"><ele>15.0</ele><time>2026-04-19T08:20:21.873Z</time></trkpt><trkpt lat="42.2757267" lon="14.4953417"><ele>15.0</ele><time>2026-04-19T08:20:23.874Z</time></trkpt><trkpt lat="42.2758033" lon="14.495225"><ele>13.5</ele><time>2026-04-19T08:20:25.874Z</time></trkpt><trkpt lat="42.2758833" lon="14.4950967"><ele>12.0</ele><time>2026-04-19T08:20:27.874Z</time></trkpt><trkpt lat="42.2759633" lon="14.4949867"><ele>10.5</ele><time>2026-04-19T08:20:29.874Z</time></trkpt><trkpt lat="42.2760417" lon="14.4948867"><ele>9.0</ele><time>2026-04-19T08:20:31.874Z</time></trkpt><trkpt lat="42.27612" lon="14.494785"><ele>9.0</ele><time>2026-04-19T08:20:33.874Z</time></trkpt><trkpt lat="42.2761967" lon="14.4946883"><ele>9.0</ele><time>2026-04-19T08:20:35.874Z</time></trkpt><trkpt lat="42.2762717" lon="14.4945883"><ele>9.0</ele><time>2026-04-19T08:20:37.873Z</time></trkpt><trkpt lat="42.2763467" lon="14.4944917"><ele>9.0</ele><time>2026-04-19T08:20:39.873Z</time></trkpt><trkpt lat="42.2764217" lon="14.494395"><ele>9.0</ele><time>2026-04-19T08:20:41.874Z</time></trkpt><trkpt lat="42.276495" lon="14.4942983"><ele>8.0</ele><time>2026-04-19T08:20:43.874Z</time></trkpt><trkpt lat="42.27657" lon="14.494195"><ele>7.0</ele><time>2026-04-19T08:20:45.874Z</time></trkpt><trkpt lat="42.2766467" lon="14.4940917"><ele>6.0</ele><time>2026-04-19T08:20:47.874Z</time></trkpt><trkpt lat="42.27672" lon="14.493985"><ele>5.0</ele><time>2026-04-19T08:20:49.873Z</time></trkpt><trkpt lat="42.2767933" lon="14.4938783"><ele>4.0</ele><time>2026-04-19T08:20:51.874Z</time></trkpt><trkpt lat="42.276865" lon="14.4937767"><ele>4.0</ele><time>2026-04-19T08:20:53.874Z</time></trkpt><trkpt lat="42.2769383" lon="14.493675"><ele>4.0</ele><time>2026-04-19T08:20:55.873Z</time></trkpt><trkpt lat="42.2770183" lon="14.4935767"><ele>4.0</ele><time>2026-04-19T08:20:57.873Z</time></trkpt><trkpt lat="42.277095" lon="14.49347"><ele>4.0</ele><time>2026-04-19T08:20:59.874Z</time></trkpt><trkpt lat="42.2771717" lon="14.4933533"><ele>4.0</ele><time>2026-04-19T08:21:01.873Z</time></trkpt><trkpt lat="42.277245" lon="14.4932483"><ele>4.0</ele><time>2026-04-19T08:21:03.874Z</time></trkpt><trkpt lat="42.2773017" lon="14.4931617"><ele>4.0</ele><time>2026-04-19T08:21:05.874Z</time></trkpt><trkpt lat="42.277365" lon="14.4930867"><ele>4.0</ele><time>2026-04-19T08:21:07.873Z</time></trkpt><trkpt lat="42.2774267" lon="14.4930083"><ele>4.0</ele><time>2026-04-19T08:21:09.874Z</time></trkpt><trkpt lat="42.2774983" lon="14.49292"><ele>4.0</ele><time>2026-04-19T08:21:11.874Z</time></trkpt><trkpt lat="42.2775683" lon="14.4928233"><ele>4.0</ele><time>2026-04-19T08:21:13.874Z</time></trkpt><trkpt lat="42.2776367" lon="14.492735"><ele>4.0</ele><time>2026-04-19T08:21:15.874Z</time></trkpt><trkpt lat="42.2777083" lon="14.4926417"><ele>4.0</ele><time>2026-04-19T08:21:17.874Z</time></trkpt><trkpt lat="42.2777683" lon="14.4925433"><ele>4.0</ele><time>2026-04-19T08:21:19.874Z</time></trkpt><trkpt lat="42.27783" lon="14.4924567"><ele>4.0</ele><time>2026-04-19T08:21:21.874Z</time></trkpt><trkpt lat="42.2778833" lon="14.49238"><ele>4.0</ele><time>2026-04-19T08:21:23.874Z</time></trkpt><trkpt lat="42.2779367" lon="14.4923133"><ele>3.9999999999999996</ele><time>2026-04-19T08:21:26.874Z</time></trkpt><trkpt lat="42.2779833" lon="14.492245"><ele>4.0</ele><time>2026-04-19T08:21:29.874Z</time></trkpt><trkpt lat="42.2780333" lon="14.4921917"><ele>4.0</ele><time>2026-04-19T08:21:32.873Z</time></trkpt><trkpt lat="42.27802" lon="14.4921033"><ele>3.9999999999999996</ele><time>2026-04-19T08:21:36.873Z</time></trkpt><trkpt lat="42.278075" lon="14.4921483"><ele>4.0</ele><time>2026-04-19T08:23:30.876Z</time></trkpt><trkpt lat="42.27815" lon="14.492065"><ele>4.0</ele><time>2026-04-19T08:23:33.876Z</time></trkpt><trkpt lat="42.2782017" lon="14.492"><ele>5.0</ele><time>2026-04-19T08:23:35.876Z</time></trkpt><trkpt lat="42.2782533" lon="14.491935"><ele>6.0</ele><time>2026-04-19T08:23:37.876Z</time></trkpt><trkpt lat="42.278315" lon="14.49186"><ele>7.0</ele><time>2026-04-19T08:23:39.875Z</time></trkpt><trkpt lat="42.27838" lon="14.4917833"><ele>8.0</ele><time>2026-04-19T08:23:41.876Z</time></trkpt><trkpt lat="42.2784533" lon="14.4917083"><ele>9.0</ele><time>2026-04-19T08:23:43.875Z</time></trkpt><trkpt lat="42.2785283" lon="14.491645"><ele>10.0</ele><time>2026-04-19T08:23:45.876Z</time></trkpt><trkpt lat="42.278605" lon="14.4915767"><ele>10.0</ele><time>2026-04-19T08:23:47.875Z</time></trkpt><trkpt lat="42.2786767" lon="14.4915083"><ele>10.0</ele><time>2026-04-19T08:23:49.876Z</time></trkpt><trkpt lat="42.2787533" lon="14.4914483"><ele>10.0</ele><time>2026-04-19T08:23:51.876Z</time></trkpt><trkpt lat="42.2788317" lon="14.4913917"><ele>10.0</ele><time>2026-04-19T08:23:53.876Z</time></trkpt><trkpt lat="42.2789117" lon="14.491335"><ele>10.0</ele><time>2026-04-19T08:23:55.876Z</time></trkpt><trkpt lat="42.2789917" lon="14.4912717"><ele>10.0</ele><time>2026-04-19T08:23:57.876Z</time></trkpt><trkpt lat="42.2790717" lon="14.49121"><ele>10.4</ele><time>2026-04-19T08:23:59.875Z</time></trkpt><trkpt lat="42.2791567" lon="14.4911467"><ele>10.8</ele><time>2026-04-19T08:24:01.876Z</time></trkpt><trkpt lat="42.2792417" lon="14.491085"><ele>11.2</ele><time>2026-04-19T08:24:03.875Z</time></trkpt><trkpt lat="42.27933" lon="14.491025"><ele>11.6</ele><time>2026-04-19T08:24:05.876Z</time></trkpt><trkpt lat="42.279415" lon="14.4909683"><ele>12.0</ele><time>2026-04-19T08:24:07.875Z</time></trkpt><trkpt lat="42.2795" lon="14.4909117"><ele>12.0</ele><time>2026-04-19T08:24:09.875Z</time></trkpt><trkpt lat="42.2795883" lon="14.4908517"><ele>12.0</ele><time>2026-04-19T08:24:11.876Z</time></trkpt><trkpt lat="42.2796783" lon="14.49079"><ele>12.0</ele><time>2026-04-19T08:24:13.875Z</time></trkpt><trkpt lat="42.279765" lon="14.49073"><ele>12.0</ele><time>2026-04-19T08:24:15.875Z</time></trkpt><trkpt lat="42.2798533" lon="14.49068"><ele>12.0</ele><time>2026-04-19T08:24:17.876Z</time></trkpt><trkpt lat="42.2799433" lon="14.490625"><ele>13.0</ele><time>2026-04-19T08:24:19.876Z</time></trkpt><trkpt lat="42.2800367" lon="14.490565"><ele>14.0</ele><time>2026-04-19T08:24:21.875Z</time></trkpt><trkpt lat="42.2801283" lon="14.4905083"><ele>15.0</ele><time>2026-04-19T08:24:23.876Z</time></trkpt><trkpt lat="42.2802183" lon="14.49045"><ele>16.0</ele><time>2026-04-19T08:24:25.876Z</time></trkpt><trkpt lat="42.2803083" lon="14.49039"><ele>17.0</ele><time>2026-04-19T08:24:27.875Z</time></trkpt><trkpt lat="42.280395" lon="14.4903283"><ele>17.0</ele><time>2026-04-19T08:24:29.876Z</time></trkpt><trkpt lat="42.28048" lon="14.49026"><ele>17.0</ele><time>2026-04-19T08:24:31.875Z</time></trkpt><trkpt lat="42.2805617" lon="14.4901933"><ele>17.0</ele><time>2026-04-19T08:24:33.876Z</time></trkpt><trkpt lat="42.2806517" lon="14.490115"><ele>17.0</ele><time>2026-04-19T08:24:35.875Z</time></trkpt><trkpt lat="42.280735" lon="14.49004"><ele>17.0</ele><time>2026-04-19T08:24:37.876Z</time></trkpt><trkpt lat="42.2808217" lon="14.4899683"><ele>16.8</ele><time>2026-04-19T08:24:39.875Z</time></trkpt><trkpt lat="42.28091" lon="14.489885"><ele>16.6</ele><time>2026-04-19T08:24:41.876Z</time></trkpt><trkpt lat="42.2809933" lon="14.489805"><ele>16.400000000000002</ele><time>2026-04-19T08:24:43.876Z</time></trkpt><trkpt lat="42.2810783" lon="14.489715"><ele>16.2</ele><time>2026-04-19T08:24:45.875Z</time></trkpt><trkpt lat="42.2811633" lon="14.4896183"><ele>16.0</ele><time>2026-04-19T08:24:47.875Z</time></trkpt><trkpt lat="42.2812483" lon="14.4895217"><ele>16.0</ele><time>2026-04-19T08:24:49.875Z</time></trkpt><trkpt lat="42.2813267" lon="14.4894333"><ele>16.0</ele><time>2026-04-19T08:24:51.876Z</time></trkpt><trkpt lat="42.2813983" lon="14.4893417"><ele>16.0</ele><time>2026-04-19T08:24:53.876Z</time></trkpt><trkpt lat="42.2814733" lon="14.489245"><ele>16.0</ele><time>2026-04-19T08:24:55.876Z</time></trkpt><trkpt lat="42.2815433" lon="14.4891617"><ele>16.0</ele><time>2026-04-19T08:24:57.876Z</time></trkpt><trkpt lat="42.2816217" lon="14.48907"><ele>15.499999999999998</ele><time>2026-04-19T08:24:59.876Z</time></trkpt><trkpt lat="42.2816917" lon="14.48898"><ele>15.0</ele><time>2026-04-19T08:25:01.875Z</time></trkpt><trkpt lat="42.2817633" lon="14.488885"><ele>14.5</ele><time>2026-04-19T08:25:03.875Z</time></trkpt><trkpt lat="42.2818267" lon="14.4888017"><ele>14.0</ele><time>2026-04-19T08:25:05.875Z</time></trkpt><trkpt lat="42.281875" lon="14.4887417"><ele>13.499999999999998</ele><time>2026-04-19T08:25:07.876Z</time></trkpt><trkpt lat="42.2819217" lon="14.48867"><ele>13.0</ele><time>2026-04-19T08:25:09.876Z</time></trkpt><trkpt lat="42.2819717" lon="14.4885867"><ele>13.0</ele><time>2026-04-19T08:25:11.875Z</time></trkpt><trkpt lat="42.2820233" lon="14.4884867"><ele>13.0</ele><time>2026-04-19T08:25:13.875Z</time></trkpt><trkpt lat="42.2820833" lon="14.488385"><ele>13.0</ele><time>2026-04-19T08:25:15.876Z</time></trkpt><trkpt lat="42.28214" lon="14.4882883"><ele>13.0</ele><time>2026-04-19T08:25:17.876Z</time></trkpt><trkpt lat="42.2821933" lon="14.48818"><ele>13.0</ele><time>2026-04-19T08:25:19.876Z</time></trkpt><trkpt lat="42.282245" lon="14.488065"><ele>12.0</ele><time>2026-04-19T08:25:21.876Z</time></trkpt><trkpt lat="42.2822983" lon="14.4879617"><ele>11.0</ele><time>2026-04-19T08:25:23.875Z</time></trkpt><trkpt lat="42.2823533" lon="14.4878533"><ele>10.0</ele><time>2026-04-19T08:25:25.876Z</time></trkpt><trkpt lat="42.2824017" lon="14.487745"><ele>9.0</ele><time>2026-04-19T08:25:27.876Z</time></trkpt><trkpt lat="42.2824533" lon="14.4876267"><ele>8.0</ele><time>2026-04-19T08:25:29.876Z</time></trkpt><trkpt lat="42.2825033" lon="14.4875083"><ele>8.0</ele><time>2026-04-19T08:25:31.875Z</time></trkpt><trkpt lat="42.2825617" lon="14.48739"><ele>8.0</ele><time>2026-04-19T08:25:33.876Z</time></trkpt><trkpt lat="42.2826183" lon="14.4872767"><ele>8.0</ele><time>2026-04-19T08:25:35.876Z</time></trkpt><trkpt lat="42.28268" lon="14.4871567"><ele>8.0</ele><time>2026-04-19T08:25:37.876Z</time></trkpt><trkpt lat="42.2827433" lon="14.48704"><ele>8.0</ele><time>2026-04-19T08:25:39.876Z</time></trkpt><trkpt lat="42.282805" lon="14.4869267"><ele>6.800000000000001</ele><time>2026-04-19T08:25:41.875Z</time></trkpt><trkpt lat="42.2828633" lon="14.48682"><ele>5.6000000000000005</ele><time>2026-04-19T08:25:43.876Z</time></trkpt><trkpt lat="42.282925" lon="14.4867217"><ele>4.4</ele><time>2026-04-19T08:25:45.876Z</time></trkpt><trkpt lat="42.2829933" lon="14.4866217"><ele>3.2</ele><time>2026-04-19T08:25:47.875Z</time></trkpt><trkpt lat="42.28306" lon="14.486515"><ele>2.0</ele><time>2026-04-19T08:25:49.875Z</time></trkpt><trkpt lat="42.28313" lon="14.48641"><ele>2.0</ele><time>2026-04-19T08:25:51.876Z</time></trkpt><trkpt lat="42.283205" lon="14.4863083"><ele>2.0</ele><time>2026-04-19T08:25:53.876Z</time></trkpt><trkpt lat="42.28328" lon="14.4862067"><ele>2.0</ele><time>2026-04-19T08:25:55.876Z</time></trkpt><trkpt lat="42.2833567" lon="14.48612"><ele>2.0</ele><time>2026-04-19T08:25:57.875Z</time></trkpt><trkpt lat="42.2834283" lon="14.4860267"><ele>2.0</ele><time>2026-04-19T08:25:59.874Z</time></trkpt><trkpt lat="42.283505" lon="14.4859267"><ele>3.6</ele><time>2026-04-19T08:26:01.874Z</time></trkpt><trkpt lat="42.28358" lon="14.485845"><ele>5.2</ele><time>2026-04-19T08:26:03.875Z</time></trkpt><trkpt lat="42.283655" lon="14.4857583"><ele>6.8</ele><time>2026-04-19T08:26:05.874Z</time></trkpt><trkpt lat="42.2837367" lon="14.4856683"><ele>8.4</ele><time>2026-04-19T08:26:07.875Z</time></trkpt><trkpt lat="42.2838117" lon="14.4855767"><ele>10.0</ele><time>2026-04-19T08:26:09.875Z</time></trkpt><trkpt lat="42.2838833" lon="14.485485"><ele>9.8</ele><time>2026-04-19T08:26:11.875Z</time></trkpt><trkpt lat="42.283955" lon="14.4853933"><ele>9.6</ele><time>2026-04-19T08:26:13.875Z</time></trkpt><trkpt lat="42.28403" lon="14.4853067"><ele>9.4</ele><time>2026-04-19T08:26:15.875Z</time></trkpt><trkpt lat="42.284105" lon="14.4852117"><ele>9.2</ele><time>2026-04-19T08:26:17.875Z</time></trkpt><trkpt lat="42.284185" lon="14.48512"><ele>9.0</ele><time>2026-04-19T08:26:19.875Z</time></trkpt><trkpt lat="42.2842683" lon="14.48503"><ele>9.0</ele><time>2026-04-19T08:26:21.875Z</time></trkpt><trkpt lat="42.2843417" lon="14.4849417"><ele>9.0</ele><time>2026-04-19T08:26:23.875Z</time></trkpt><trkpt lat="42.2844217" lon="14.4848617"><ele>9.0</ele><time>2026-04-19T08:26:25.875Z</time></trkpt><trkpt lat="42.284505" lon="14.4847833"><ele>9.0</ele><time>2026-04-19T08:26:27.874Z</time></trkpt><trkpt lat="42.2845967" lon="14.4847067"><ele>9.0</ele><time>2026-04-19T08:26:29.875Z</time></trkpt><trkpt lat="42.2846817" lon="14.484625"><ele>8.6</ele><time>2026-04-19T08:26:31.874Z</time></trkpt><trkpt lat="42.2847683" lon="14.4845383"><ele>8.2</ele><time>2026-04-19T08:26:33.875Z</time></trkpt><trkpt lat="42.2848583" lon="14.4844633"><ele>7.799999999999999</ele><time>2026-04-19T08:26:35.875Z</time></trkpt><trkpt lat="42.2849417" lon="14.4843967"><ele>7.3999999999999995</ele><time>2026-04-19T08:26:37.875Z</time></trkpt><trkpt lat="42.2850317" lon="14.4843217"><ele>7.0</ele><time>2026-04-19T08:26:39.874Z</time></trkpt><trkpt lat="42.285125" lon="14.48424"><ele>7.0</ele><time>2026-04-19T08:26:41.875Z</time></trkpt><trkpt lat="42.28522" lon="14.4841533"><ele>6.999999999999999</ele><time>2026-04-19T08:26:43.874Z</time></trkpt><trkpt lat="42.28531" lon="14.48406"><ele>6.999999999999999</ele><time>2026-04-19T08:26:45.875Z</time></trkpt><trkpt lat="42.285395" lon="14.4839633"><ele>7.0</ele><time>2026-04-19T08:26:47.874Z</time></trkpt><trkpt lat="42.28548" lon="14.4838717"><ele>7.0</ele><time>2026-04-19T08:26:49.874Z</time></trkpt><trkpt lat="42.285565" lon="14.4837783"><ele>7.199999999999999</ele><time>2026-04-19T08:26:51.875Z</time></trkpt><trkpt lat="42.2856417" lon="14.4836917"><ele>7.3999999999999995</ele><time>2026-04-19T08:26:53.875Z</time></trkpt><trkpt lat="42.2857217" lon="14.4836133"><ele>7.6000000000000005</ele><time>2026-04-19T08:26:55.875Z</time></trkpt><trkpt lat="42.2858017" lon="14.4835367"><ele>7.800000000000001</ele><time>2026-04-19T08:26:57.875Z</time></trkpt><trkpt lat="42.285885" lon="14.4834517"><ele>8.0</ele><time>2026-04-19T08:26:59.875Z</time></trkpt><trkpt lat="42.2859633" lon="14.4833617"><ele>8.0</ele><time>2026-04-19T08:27:01.874Z</time></trkpt><trkpt lat="42.2860433" lon="14.4832717"><ele>8.0</ele><time>2026-04-19T08:27:03.874Z</time></trkpt><trkpt lat="42.28612" lon="14.4831733"><ele>8.0</ele><time>2026-04-19T08:27:05.874Z</time></trkpt><trkpt lat="42.2861933" lon="14.4830683"><ele>8.0</ele><time>2026-04-19T08:27:07.875Z</time></trkpt><trkpt lat="42.286265" lon="14.48297"><ele>8.0</ele><time>2026-04-19T08:27:09.875Z</time></trkpt><trkpt lat="42.2863383" lon="14.4828667"><ele>7.4</ele><time>2026-04-19T08:27:11.875Z</time></trkpt><trkpt lat="42.286415" lon="14.4827533"><ele>6.800000000000001</ele><time>2026-04-19T08:27:13.874Z</time></trkpt><trkpt lat="42.28648" lon="14.4826467"><ele>6.2</ele><time>2026-04-19T08:27:15.874Z</time></trkpt><trkpt lat="42.2865533" lon="14.4825183"><ele>5.6</ele><time>2026-04-19T08:27:17.875Z</time></trkpt><trkpt lat="42.286615" lon="14.4824033"><ele>5.0</ele><time>2026-04-19T08:27:19.875Z</time></trkpt><trkpt lat="42.2866783" lon="14.4822867"><ele>5.0</ele><time>2026-04-19T08:27:21.875Z</time></trkpt><trkpt lat="42.2867383" lon="14.48217"><ele>5.0</ele><time>2026-04-19T08:27:23.875Z</time></trkpt><trkpt lat="42.2867933" lon="14.4820517"><ele>5.0</ele><time>2026-04-19T08:27:25.874Z</time></trkpt><trkpt lat="42.2868433" lon="14.4819367"><ele>5.0</ele><time>2026-04-19T08:27:27.875Z</time></trkpt><trkpt lat="42.2868867" lon="14.48183"><ele>5.0</ele><time>2026-04-19T08:27:29.875Z</time></trkpt><trkpt lat="42.2869233" lon="14.4817283"><ele>5.8</ele><time>2026-04-19T08:27:31.875Z</time></trkpt><trkpt lat="42.28696" lon="14.481625"><ele>6.6</ele><time>2026-04-19T08:27:33.874Z</time></trkpt><trkpt lat="42.287005" lon="14.4815217"><ele>7.4</ele><time>2026-04-19T08:27:35.875Z</time></trkpt><trkpt lat="42.2870533" lon="14.4814167"><ele>8.2</ele><time>2026-04-19T08:27:37.875Z</time></trkpt><trkpt lat="42.2871067" lon="14.4813083"><ele>9.0</ele><time>2026-04-19T08:27:39.874Z</time></trkpt><trkpt lat="42.2871517" lon="14.481185"><ele>10.0</ele><time>2026-04-19T08:27:41.875Z</time></trkpt><trkpt lat="42.2871983" lon="14.481055"><ele>11.0</ele><time>2026-04-19T08:27:43.875Z</time></trkpt><trkpt lat="42.2872433" lon="14.4809167"><ele>11.999999999999998</ele><time>2026-04-19T08:27:45.875Z</time></trkpt><trkpt lat="42.2872883" lon="14.4807867"><ele>13.0</ele><time>2026-04-19T08:27:47.874Z</time></trkpt><trkpt lat="42.2873283" lon="14.4806583"><ele>14.0</ele><time>2026-04-19T08:27:49.874Z</time></trkpt><trkpt lat="42.2873733" lon="14.480545"><ele>13.0</ele><time>2026-04-19T08:27:51.875Z</time></trkpt><trkpt lat="42.2874317" lon="14.480435"><ele>11.999999999999998</ele><time>2026-04-19T08:27:53.874Z</time></trkpt><trkpt lat="42.2874817" lon="14.48033"><ele>11.0</ele><time>2026-04-19T08:27:55.875Z</time></trkpt><trkpt lat="42.2875283" lon="14.4802167"><ele>10.0</ele><time>2026-04-19T08:27:57.874Z</time></trkpt><trkpt lat="42.287585" lon="14.4801"><ele>9.0</ele><time>2026-04-19T08:27:59.875Z</time></trkpt><trkpt lat="42.2876483" lon="14.47999"><ele>9.0</ele><time>2026-04-19T08:28:01.875Z</time></trkpt><trkpt lat="42.28771" lon="14.479865"><ele>9.0</ele><time>2026-04-19T08:28:03.875Z</time></trkpt><trkpt lat="42.2877667" lon="14.4797517"><ele>9.0</ele><time>2026-04-19T08:28:05.874Z</time></trkpt><trkpt lat="42.287825" lon="14.479635"><ele>9.0</ele><time>2026-04-19T08:28:07.875Z</time></trkpt><trkpt lat="42.2878933" lon="14.4795133"><ele>9.0</ele><time>2026-04-19T08:28:09.875Z</time></trkpt><trkpt lat="42.2879533" lon="14.4794017"><ele>10.0</ele><time>2026-04-19T08:28:11.875Z</time></trkpt><trkpt lat="42.28801" lon="14.4792883"><ele>11.0</ele><time>2026-04-19T08:28:13.874Z</time></trkpt><trkpt lat="42.2880717" lon="14.479175"><ele>11.999999999999998</ele><time>2026-04-19T08:28:15.874Z</time></trkpt><trkpt lat="42.2881333" lon="14.47907"><ele>13.0</ele><time>2026-04-19T08:28:17.875Z</time></trkpt><trkpt lat="42.288195" lon="14.4789617"><ele>14.0</ele><time>2026-04-19T08:28:19.875Z</time></trkpt><trkpt lat="42.2882567" lon="14.4788567"><ele>13.0</ele><time>2026-04-19T08:28:21.875Z</time></trkpt><trkpt lat="42.2883183" lon="14.4787467"><ele>11.999999999999998</ele><time>2026-04-19T08:28:23.875Z</time></trkpt><trkpt lat="42.2883783" lon="14.47864"><ele>11.0</ele><time>2026-04-19T08:28:25.875Z</time></trkpt><trkpt lat="42.2884433" lon="14.4785283"><ele>10.0</ele><time>2026-04-19T08:28:27.875Z</time></trkpt><trkpt lat="42.2885067" lon="14.4784183"><ele>9.0</ele><time>2026-04-19T08:28:29.874Z</time></trkpt><trkpt lat="42.2885667" lon="14.4783067"><ele>9.0</ele><time>2026-04-19T08:28:31.874Z</time></trkpt><trkpt lat="42.28863" lon="14.478195"><ele>9.0</ele><time>2026-04-19T08:28:33.875Z</time></trkpt><trkpt lat="42.2886967" lon="14.4780817"><ele>9.0</ele><time>2026-04-19T08:28:35.874Z</time></trkpt><trkpt lat="42.2887617" lon="14.4779717"><ele>9.0</ele><time>2026-04-19T08:28:37.875Z</time></trkpt><trkpt lat="42.288825" lon="14.477855"><ele>9.0</ele><time>2026-04-19T08:28:39.875Z</time></trkpt><trkpt lat="42.2888917" lon="14.4777433"><ele>8.0</ele><time>2026-04-19T08:28:41.874Z</time></trkpt><trkpt lat="42.2889567" lon="14.4776333"><ele>7.0</ele><time>2026-04-19T08:28:43.874Z</time></trkpt><trkpt lat="42.2890183" lon="14.4775"><ele>6.0</ele><time>2026-04-19T08:28:45.874Z</time></trkpt><trkpt lat="42.2890783" lon="14.4773817"><ele>5.0</ele><time>2026-04-19T08:28:47.875Z</time></trkpt><trkpt lat="42.2891417" lon="14.4772667"><ele>4.0</ele><time>2026-04-19T08:28:49.875Z</time></trkpt><trkpt lat="42.2892033" lon="14.4771417"><ele>5.4</ele><time>2026-04-19T08:28:51.875Z</time></trkpt><trkpt lat="42.2892767" lon="14.4770217"><ele>6.800000000000001</ele><time>2026-04-19T08:28:53.875Z</time></trkpt><trkpt lat="42.2893467" lon="14.4769133"><ele>8.200000000000001</ele><time>2026-04-19T08:28:55.874Z</time></trkpt><trkpt lat="42.2894133" lon="14.4767967"><ele>9.600000000000001</ele><time>2026-04-19T08:28:57.874Z</time></trkpt><trkpt lat="42.2894767" lon="14.476685"><ele>11.0</ele><time>2026-04-19T08:28:59.875Z</time></trkpt><trkpt lat="42.2895283" lon="14.47658"><ele>11.0</ele><time>2026-04-19T08:29:01.875Z</time></trkpt><trkpt lat="42.2895833" lon="14.4764767"><ele>11.0</ele><time>2026-04-19T08:29:03.875Z</time></trkpt><trkpt lat="42.2896433" lon="14.4763633"><ele>11.0</ele><time>2026-04-19T08:29:05.875Z</time></trkpt><trkpt lat="42.2897017" lon="14.4762533"><ele>11.0</ele><time>2026-04-19T08:29:07.875Z</time></trkpt><trkpt lat="42.2897617" lon="14.476145"><ele>11.0</ele><time>2026-04-19T08:29:09.875Z</time></trkpt><trkpt lat="42.2898233" lon="14.476035"><ele>10.0</ele><time>2026-04-19T08:29:11.875Z</time></trkpt><trkpt lat="42.2898883" lon="14.4759283"><ele>9.0</ele><time>2026-04-19T08:29:13.875Z</time></trkpt><trkpt lat="42.289955" lon="14.475825"><ele>8.0</ele><time>2026-04-19T08:29:15.875Z</time></trkpt><trkpt lat="42.2900167" lon="14.4757167"><ele>7.0</ele><time>2026-04-19T08:29:17.875Z</time></trkpt><trkpt lat="42.2900783" lon="14.4756117"><ele>6.0</ele><time>2026-04-19T08:29:19.875Z</time></trkpt><trkpt lat="42.290135" lon="14.4755167"><ele>7.0</ele><time>2026-04-19T08:29:21.875Z</time></trkpt><trkpt lat="42.2901883" lon="14.475415"><ele>8.0</ele><time>2026-04-19T08:29:23.875Z</time></trkpt><trkpt lat="42.2902367" lon="14.4753033"><ele>9.0</ele><time>2026-04-19T08:29:25.875Z</time></trkpt><trkpt lat="42.2903017" lon="14.4752033"><ele>10.0</ele><time>2026-04-19T08:29:27.874Z</time></trkpt><trkpt lat="42.29037" lon="14.4750967"><ele>11.0</ele><time>2026-04-19T08:29:29.875Z</time></trkpt><trkpt lat="42.2904383" lon="14.47499"><ele>11.0</ele><time>2026-04-19T08:29:31.875Z</time></trkpt><trkpt lat="42.290505" lon="14.474885"><ele>11.0</ele><time>2026-04-19T08:29:33.874Z</time></trkpt><trkpt lat="42.2905683" lon="14.4747767"><ele>11.0</ele><time>2026-04-19T08:29:35.874Z</time></trkpt><trkpt lat="42.2906333" lon="14.4746567"><ele>11.0</ele><time>2026-04-19T08:29:37.875Z</time></trkpt><trkpt lat="42.2907" lon="14.4745483"><ele>11.0</ele><time>2026-04-19T08:29:39.875Z</time></trkpt><trkpt lat="42.2907633" lon="14.4744367"><ele>10.200000000000001</ele><time>2026-04-19T08:29:41.875Z</time></trkpt><trkpt lat="42.2908283" lon="14.4743233"><ele>9.4</ele><time>2026-04-19T08:29:43.875Z</time></trkpt><trkpt lat="42.2908967" lon="14.4742167"><ele>8.6</ele><time>2026-04-19T08:29:45.874Z</time></trkpt><trkpt lat="42.2909633" lon="14.474105"><ele>7.8</ele><time>2026-04-19T08:29:47.875Z</time></trkpt><trkpt lat="42.2910317" lon="14.4740033"><ele>7.0</ele><time>2026-04-19T08:29:49.875Z</time></trkpt><trkpt lat="42.291105" lon="14.4738967"><ele>7.0</ele><time>2026-04-19T08:29:51.874Z</time></trkpt><trkpt lat="42.29118" lon="14.4737917"><ele>6.999999999999999</ele><time>2026-04-19T08:29:53.874Z</time></trkpt><trkpt lat="42.2912533" lon="14.47369"><ele>6.999999999999999</ele><time>2026-04-19T08:29:55.874Z</time></trkpt><trkpt lat="42.2913267" lon="14.4735883"><ele>7.0</ele><time>2026-04-19T08:29:57.875Z</time></trkpt><trkpt lat="42.2914" lon="14.47349"><ele>7.0</ele><time>2026-04-19T08:29:59.875Z</time></trkpt><trkpt lat="42.2914717" lon="14.4733967"><ele>6.6</ele><time>2026-04-19T08:30:01.875Z</time></trkpt><trkpt lat="42.2915483" lon="14.4733"><ele>6.199999999999999</ele><time>2026-04-19T08:30:03.875Z</time></trkpt><trkpt lat="42.2916267" lon="14.473205"><ele>5.8</ele><time>2026-04-19T08:30:05.874Z</time></trkpt><trkpt lat="42.2917083" lon="14.4731083"><ele>5.4</ele><time>2026-04-19T08:30:07.874Z</time></trkpt><trkpt lat="42.29179" lon="14.473015"><ele>5.0</ele><time>2026-04-19T08:30:09.875Z</time></trkpt><trkpt lat="42.291865" lon="14.472925"><ele>7.2</ele><time>2026-04-19T08:30:11.875Z</time></trkpt><trkpt lat="42.29194" lon="14.4728417"><ele>9.4</ele><time>2026-04-19T08:30:13.874Z</time></trkpt><trkpt lat="42.292015" lon="14.472765"><ele>11.600000000000001</ele><time>2026-04-19T08:30:15.875Z</time></trkpt><trkpt lat="42.2920867" lon="14.4726983"><ele>13.8</ele><time>2026-04-19T08:30:17.875Z</time></trkpt><trkpt lat="42.292155" lon="14.4726267"><ele>16.0</ele><time>2026-04-19T08:30:19.875Z</time></trkpt><trkpt lat="42.292225" lon="14.4725417"><ele>13.8</ele><time>2026-04-19T08:30:21.874Z</time></trkpt><trkpt lat="42.2923" lon="14.4724617"><ele>11.600000000000001</ele><time>2026-04-19T08:30:23.875Z</time></trkpt><trkpt lat="42.2923733" lon="14.47238"><ele>9.4</ele><time>2026-04-19T08:30:25.875Z</time></trkpt><trkpt lat="42.292445" lon="14.4723"><ele>7.2</ele><time>2026-04-19T08:30:27.875Z</time></trkpt><trkpt lat="42.29251" lon="14.4722183"><ele>5.0</ele><time>2026-04-19T08:30:29.874Z</time></trkpt><trkpt lat="42.2925717" lon="14.4721433"><ele>7.833333333333334</ele><time>2026-04-19T08:30:31.875Z</time></trkpt><trkpt lat="42.2926267" lon="14.47208"><ele>10.666666666666666</ele><time>2026-04-19T08:30:33.875Z</time></trkpt><trkpt lat="42.2926767" lon="14.472"><ele>13.5</ele><time>2026-04-19T08:30:36.875Z</time></trkpt><trkpt lat="42.2927283" lon="14.4719267"><ele>16.333333333333332</ele><time>2026-04-19T08:30:39.875Z</time></trkpt><trkpt lat="42.2927867" lon="14.4718567"><ele>19.166666666666664</ele><time>2026-04-19T08:30:42.874Z</time></trkpt><trkpt lat="42.2928517" lon="14.4717917"><ele>22.0</ele><time>2026-04-19T08:30:45.874Z</time></trkpt><trkpt lat="42.292945" lon="14.47172"><ele>22.0</ele><time>2026-04-19T08:30:48.878Z</time></trkpt><trkpt lat="42.293065" lon="14.471555"><ele>22.0</ele><time>2026-04-19T08:30:49.877Z</time></trkpt><trkpt lat="42.2931183" lon="14.471485"><ele>22.0</ele><time>2026-04-19T08:30:50.877Z</time></trkpt><trkpt lat="42.2931883" lon="14.4714717"><ele>22.0</ele><time>2026-04-19T08:30:51.878Z</time></trkpt><trkpt lat="42.2932483" lon="14.4714417"><ele>22.0</ele><time>2026-04-19T08:30:52.878Z</time></trkpt><trkpt lat="42.2932483" lon="14.4713317"><ele>20.200000000000003</ele><time>2026-04-19T08:30:53.878Z</time></trkpt><trkpt lat="42.293305" lon="14.4712183"><ele>18.400000000000002</ele><time>2026-04-19T08:30:55.878Z</time></trkpt><trkpt lat="42.2933617" lon="14.4711183"><ele>16.6</ele><time>2026-04-19T08:30:57.878Z</time></trkpt><trkpt lat="42.2934283" lon="14.4710017"><ele>14.8</ele><time>2026-04-19T08:30:59.878Z</time></trkpt><trkpt lat="42.2934933" lon="14.4708933"><ele>13.0</ele><time>2026-04-19T08:31:01.878Z</time></trkpt><trkpt lat="42.2935583" lon="14.4707917"><ele>13.0</ele><time>2026-04-19T08:31:03.878Z</time></trkpt><trkpt lat="42.2936267" lon="14.4707"><ele>13.0</ele><time>2026-04-19T08:31:05.878Z</time></trkpt><trkpt lat="42.2936917" lon="14.470605"><ele>13.0</ele><time>2026-04-19T08:31:07.878Z</time></trkpt><trkpt lat="42.29376" lon="14.47051"><ele>13.0</ele><time>2026-04-19T08:31:09.878Z</time></trkpt><trkpt lat="42.2938233" lon="14.47041"><ele>13.0</ele><time>2026-04-19T08:31:11.878Z</time></trkpt><trkpt lat="42.2938883" lon="14.4703067"><ele>12.0</ele><time>2026-04-19T08:31:13.878Z</time></trkpt><trkpt lat="42.2939517" lon="14.4702033"><ele>11.0</ele><time>2026-04-19T08:31:15.878Z</time></trkpt><trkpt lat="42.294015" lon="14.470105"><ele>10.0</ele><time>2026-04-19T08:31:17.878Z</time></trkpt><trkpt lat="42.29408" lon="14.4700067"><ele>9.0</ele><time>2026-04-19T08:31:19.878Z</time></trkpt><trkpt lat="42.294145" lon="14.4699083"><ele>8.0</ele><time>2026-04-19T08:31:21.878Z</time></trkpt><trkpt lat="42.29421" lon="14.4698083"><ele>8.0</ele><time>2026-04-19T08:31:23.877Z</time></trkpt><trkpt lat="42.2942667" lon="14.469715"><ele>8.0</ele><time>2026-04-19T08:31:25.877Z</time></trkpt><trkpt lat="42.294325" lon="14.4696283"><ele>8.0</ele><time>2026-04-19T08:31:27.878Z</time></trkpt><trkpt lat="42.2943833" lon="14.4695333"><ele>8.0</ele><time>2026-04-19T08:31:29.878Z</time></trkpt><trkpt lat="42.2944367" lon="14.4694333"><ele>8.0</ele><time>2026-04-19T08:31:31.877Z</time></trkpt><trkpt lat="42.2944917" lon="14.4693267"><ele>7.666666666666666</ele><time>2026-04-19T08:31:33.877Z</time></trkpt><trkpt lat="42.2945433" lon="14.4692117"><ele>7.333333333333333</ele><time>2026-04-19T08:31:35.877Z</time></trkpt><trkpt lat="42.29459" lon="14.469105"><ele>7.0</ele><time>2026-04-19T08:31:37.878Z</time></trkpt><trkpt lat="42.2946283" lon="14.46902"><ele>6.666666666666666</ele><time>2026-04-19T08:31:39.878Z</time></trkpt><trkpt lat="42.2946733" lon="14.4689367"><ele>6.333333333333333</ele><time>2026-04-19T08:31:41.878Z</time></trkpt><trkpt lat="42.29471" lon="14.4688433"><ele>6.0</ele><time>2026-04-19T08:31:43.877Z</time></trkpt><trkpt lat="42.2947583" lon="14.4687467"><ele>6.0</ele><time>2026-04-19T08:31:45.878Z</time></trkpt><trkpt lat="42.2948117" lon="14.4686417"><ele>6.0</ele><time>2026-04-19T08:31:47.877Z</time></trkpt><trkpt lat="42.2948633" lon="14.4685317"><ele>6.0</ele><time>2026-04-19T08:31:49.877Z</time></trkpt><trkpt lat="42.2949183" lon="14.4684183"><ele>6.0</ele><time>2026-04-19T08:31:51.878Z</time></trkpt><trkpt lat="42.2949717" lon="14.4683017"><ele>6.0</ele><time>2026-04-19T08:31:53.877Z</time></trkpt><trkpt lat="42.2950233" lon="14.4681833"><ele>6.0</ele><time>2026-04-19T08:31:55.878Z</time></trkpt><trkpt lat="42.2950733" lon="14.46807"><ele>6.0</ele><time>2026-04-19T08:31:57.877Z</time></trkpt><trkpt lat="42.295125" lon="14.46795"><ele>6.0</ele><time>2026-04-19T08:31:59.878Z</time></trkpt><trkpt lat="42.295175" lon="14.46783"><ele>6.0</ele><time>2026-04-19T08:32:01.878Z</time></trkpt><trkpt lat="42.2952217" lon="14.4677083"><ele>6.0</ele><time>2026-04-19T08:32:03.878Z</time></trkpt><trkpt lat="42.2952733" lon="14.4675883"><ele>8.2</ele><time>2026-04-19T08:32:05.878Z</time></trkpt><trkpt lat="42.2953267" lon="14.4674683"><ele>10.399999999999999</ele><time>2026-04-19T08:32:07.878Z</time></trkpt><trkpt lat="42.2953767" lon="14.4673467"><ele>12.6</ele><time>2026-04-19T08:32:09.877Z</time></trkpt><trkpt lat="42.2954283" lon="14.4672267"><ele>14.799999999999999</ele><time>2026-04-19T08:32:11.878Z</time></trkpt><trkpt lat="42.2954883" lon="14.4671133"><ele>17.0</ele><time>2026-04-19T08:32:13.877Z</time></trkpt><trkpt lat="42.2955433" lon="14.466995"><ele>15.833333333333334</ele><time>2026-04-19T08:32:15.878Z</time></trkpt><trkpt lat="42.2955983" lon="14.46688"><ele>14.666666666666668</ele><time>2026-04-19T08:32:17.878Z</time></trkpt><trkpt lat="42.2956517" lon="14.4667583"><ele>13.5</ele><time>2026-04-19T08:32:19.877Z</time></trkpt><trkpt lat="42.2956983" lon="14.4666417"><ele>12.333333333333334</ele><time>2026-04-19T08:32:21.878Z</time></trkpt><trkpt lat="42.2957383" lon="14.4665583"><ele>11.166666666666668</ele><time>2026-04-19T08:32:23.878Z</time></trkpt><trkpt lat="42.2957667" lon="14.4664783"><ele>10.0</ele><time>2026-04-19T08:32:25.878Z</time></trkpt><trkpt lat="42.295795" lon="14.4663883"><ele>10.0</ele><time>2026-04-19T08:32:27.878Z</time></trkpt><trkpt lat="42.2958283" lon="14.4663033"><ele>10.0</ele><time>2026-04-19T08:32:29.878Z</time></trkpt><trkpt lat="42.2966942" lon="14.4649673"><ele>10.8</ele><time>2026-04-19T08:32:52.577Z</time></trkpt><trkpt lat="42.2968133" lon="14.46477"><ele>11.6</ele><time>2026-04-19T08:33:06.879Z</time></trkpt><trkpt lat="42.2968683" lon="14.464665"><ele>12.399999999999999</ele><time>2026-04-19T08:33:08.879Z</time></trkpt><trkpt lat="42.2969033" lon="14.4645883"><ele>13.2</ele><time>2026-04-19T08:33:10.879Z</time></trkpt><trkpt lat="42.2968533" lon="14.4645083"><ele>14.0</ele><time>2026-04-19T08:33:15.878Z</time></trkpt><trkpt lat="42.296785" lon="14.4645717"><ele>14.0</ele><time>2026-04-19T08:33:19.879Z</time></trkpt><trkpt lat="42.2967417" lon="14.4646583"><ele>14.0</ele><time>2026-04-19T08:33:24.878Z</time></trkpt><trkpt lat="42.29671" lon="14.4647417"><ele>14.0</ele><time>2026-04-19T08:33:29.879Z</time></trkpt><trkpt lat="42.2967017" lon="14.4648283"><ele>14.0</ele><time>2026-04-19T08:33:34.879Z</time></trkpt><trkpt lat="42.2966667" lon="14.4649067"><ele>14.0</ele><time>2026-04-19T08:33:38.879Z</time></trkpt><trkpt lat="42.2966083" lon="14.46496"><ele>14.0</ele><time>2026-04-19T08:33:40.878Z</time></trkpt><trkpt lat="42.2965633" lon="14.4650417"><ele>14.0</ele><time>2026-04-19T08:33:43.878Z</time></trkpt><trkpt lat="42.2965283" lon="14.4651183"><ele>14.000000000000002</ele><time>2026-04-19T08:33:46.878Z</time></trkpt><trkpt lat="42.29647" lon="14.4652017"><ele>14.0</ele><time>2026-04-19T08:33:50.879Z</time></trkpt><trkpt lat="42.2964217" lon="14.465275"><ele>14.0</ele><time>2026-04-19T08:33:53.878Z</time></trkpt><trkpt lat="42.296385" lon="14.4653517"><ele>14.0</ele><time>2026-04-19T08:33:57.879Z</time></trkpt><trkpt lat="42.2963633" lon="14.4654883"><ele>14.000000000000002</ele><time>2026-04-19T08:35:31.874Z</time></trkpt><trkpt lat="42.296325" lon="14.465585"><ele>14.0</ele><time>2026-04-19T08:35:35.873Z</time></trkpt><trkpt lat="42.29628" lon="14.465655"><ele>16.285714285714285</ele><time>2026-04-19T08:35:39.873Z</time></trkpt><trkpt lat="42.2962183" lon="14.465735"><ele>18.57142857142857</ele><time>2026-04-19T08:35:43.874Z</time></trkpt><trkpt lat="42.2961683" lon="14.465795"><ele>20.857142857142858</ele><time>2026-04-19T08:35:46.874Z</time></trkpt><trkpt lat="42.2961283" lon="14.4658717"><ele>23.142857142857142</ele><time>2026-04-19T08:35:49.873Z</time></trkpt><trkpt lat="42.2960683" lon="14.4659217"><ele>25.428571428571427</ele><time>2026-04-19T08:35:53.874Z</time></trkpt><trkpt lat="42.2960017" lon="14.46587"><ele>27.714285714285715</ele><time>2026-04-19T08:35:58.874Z</time></trkpt><trkpt lat="42.2959933" lon="14.46577"><ele>30.0</ele><time>2026-04-19T08:36:02.874Z</time></trkpt><trkpt lat="42.2959617" lon="14.4656817"><ele>30.0</ele><time>2026-04-19T08:36:06.874Z</time></trkpt><trkpt lat="42.2958833" lon="14.4656767"><ele>30.0</ele><time>2026-04-19T08:36:10.873Z</time></trkpt><trkpt lat="42.2958167" lon="14.465635"><ele>30.0</ele><time>2026-04-19T08:36:15.874Z</time></trkpt><trkpt lat="42.2958033" lon="14.46555"><ele>30.0</ele><time>2026-04-19T08:36:20.874Z</time></trkpt><trkpt lat="42.2958633" lon="14.4654967"><ele>30.0</ele><time>2026-04-19T08:36:26.874Z</time></trkpt><trkpt lat="42.2959283" lon="14.4654383"><ele>30.0</ele><time>2026-04-19T08:36:31.873Z</time></trkpt><trkpt lat="42.295975" lon="14.4653483"><ele>30.0</ele><time>2026-04-19T08:36:36.874Z</time></trkpt><trkpt lat="42.29601" lon="14.4652767"><ele>32.166666666666664</ele><time>2026-04-19T08:36:45.874Z</time></trkpt><trkpt lat="42.296035" lon="14.4651967"><ele>34.333333333333336</ele><time>2026-04-19T08:36:55.874Z</time></trkpt><trkpt lat="42.2961133" lon="14.4651483"><ele>36.5</ele><time>2026-04-19T08:36:59.873Z</time></trkpt><trkpt lat="42.2961933" lon="14.4650833"><ele>38.66666666666667</ele><time>2026-04-19T08:37:02.874Z</time></trkpt><trkpt lat="42.2962483" lon="14.464995"><ele>40.833333333333336</ele><time>2026-04-19T08:37:04.874Z</time></trkpt><trkpt lat="42.2962867" lon="14.4649"><ele>43.0</ele><time>2026-04-19T08:37:06.874Z</time></trkpt><trkpt lat="42.2963" lon="14.464805"><ele>43.00000000000001</ele><time>2026-04-19T08:37:08.874Z</time></trkpt><trkpt lat="42.2962833" lon="14.4647117"><ele>43.0</ele><time>2026-04-19T08:37:10.874Z</time></trkpt><trkpt lat="42.2962567" lon="14.46461"><ele>43.0</ele><time>2026-04-19T08:37:12.873Z</time></trkpt><trkpt lat="42.29622" lon="14.46452"><ele>43.0</ele><time>2026-04-19T08:37:14.873Z</time></trkpt><trkpt lat="42.2961717" lon="14.4644467"><ele>43.0</ele><time>2026-04-19T08:37:16.873Z</time></trkpt><trkpt lat="42.296145" lon="14.46436"><ele>43.00000000000001</ele><time>2026-04-19T08:37:18.874Z</time></trkpt><trkpt lat="42.296135" lon="14.464275"><ele>43.0</ele><time>2026-04-19T08:37:20.874Z</time></trkpt><trkpt lat="42.296135" lon="14.4641567"><ele>43.333333333333336</ele><time>2026-04-19T08:37:23.874Z</time></trkpt><trkpt lat="42.29614" lon="14.464065"><ele>43.66666666666667</ele><time>2026-04-19T08:37:26.874Z</time></trkpt><trkpt lat="42.2961733" lon="14.463965"><ele>44.0</ele><time>2026-04-19T08:37:29.873Z</time></trkpt><trkpt lat="42.296215" lon="14.4638983"><ele>44.333333333333336</ele><time>2026-04-19T08:37:31.873Z</time></trkpt><trkpt lat="42.2962717" lon="14.4638333"><ele>44.666666666666664</ele><time>2026-04-19T08:37:33.874Z</time></trkpt><trkpt lat="42.2963283" lon="14.4637533"><ele>45.0</ele><time>2026-04-19T08:37:35.873Z</time></trkpt><trkpt lat="42.2963833" lon="14.4636683"><ele>46.5</ele><time>2026-04-19T08:37:37.874Z</time></trkpt><trkpt lat="42.2964217" lon="14.46359"><ele>48.0</ele><time>2026-04-19T08:37:39.874Z</time></trkpt><trkpt lat="42.2964383" lon="14.463505"><ele>49.5</ele><time>2026-04-19T08:37:41.874Z</time></trkpt><trkpt lat="42.2964317" lon="14.4633917"><ele>51.0</ele><time>2026-04-19T08:37:44.873Z</time></trkpt><trkpt lat="42.2964117" lon="14.46329"><ele>52.5</ele><time>2026-04-19T08:37:47.874Z</time></trkpt><trkpt lat="42.2963833" lon="14.46318"><ele>54.0</ele><time>2026-04-19T08:37:50.874Z</time></trkpt><trkpt lat="42.2963483" lon="14.4631"><ele>54.0</ele><time>2026-04-19T08:37:53.874Z</time></trkpt><trkpt lat="42.2963267" lon="14.4630133"><ele>54.0</ele><time>2026-04-19T08:37:59.874Z</time></trkpt><trkpt lat="42.296265" lon="14.4630617"><ele>54.0</ele><time>2026-04-19T08:38:50.874Z</time></trkpt><trkpt lat="42.29629" lon="14.4631767"><ele>54.0</ele><time>2026-04-19T08:38:54.874Z</time></trkpt><trkpt lat="42.2963033" lon="14.4632617"><ele>54.0</ele><time>2026-04-19T08:38:57.873Z</time></trkpt><trkpt lat="42.296305" lon="14.46335"><ele>54.0</ele><time>2026-04-19T08:39:07.873Z</time></trkpt><trkpt lat="42.2963433" lon="14.4632483"><ele>54.0</ele><time>2026-04-19T08:39:31.873Z</time></trkpt><trkpt lat="42.296345" lon="14.4631533"><ele>54.0</ele><time>2026-04-19T08:39:33.874Z</time></trkpt><trkpt lat="42.296345" lon="14.4630533"><ele>54.0</ele><time>2026-04-19T08:39:35.874Z</time></trkpt><trkpt lat="42.296345" lon="14.462955"><ele>54.0</ele><time>2026-04-19T08:39:38.874Z</time></trkpt><trkpt lat="42.2962833" lon="14.4629867"><ele>54.0</ele><time>2026-04-19T08:41:07.875Z</time></trkpt><trkpt lat="42.2962733" lon="14.463075"><ele>54.0</ele><time>2026-04-19T08:41:13.875Z</time></trkpt><trkpt lat="42.2963067" lon="14.4631517"><ele>54.0</ele><time>2026-04-19T08:41:16.875Z</time></trkpt><trkpt lat="42.296345" lon="14.46326"><ele>54.0</ele><time>2026-04-19T08:41:19.876Z</time></trkpt><trkpt lat="42.2963867" lon="14.4633667"><ele>54.0</ele><time>2026-04-19T08:41:22.876Z</time></trkpt><trkpt lat="42.2964083" lon="14.4634617"><ele>54.0</ele><time>2026-04-19T08:41:26.876Z</time></trkpt><trkpt lat="42.2963717" lon="14.46355"><ele>54.0</ele><time>2026-04-19T08:41:29.876Z</time></trkpt><trkpt lat="42.2963267" lon="14.463635"><ele>54.0</ele><time>2026-04-19T08:41:32.875Z</time></trkpt><trkpt lat="42.2962783" lon="14.4636933"><ele>54.0</ele><time>2026-04-19T08:41:34.876Z</time></trkpt><trkpt lat="42.29622" lon="14.4637483"><ele>54.0</ele><time>2026-04-19T08:41:36.876Z</time></trkpt><trkpt lat="42.2961683" lon="14.4638033"><ele>54.0</ele><time>2026-04-19T08:41:38.876Z</time></trkpt><trkpt lat="42.2960967" lon="14.4638667"><ele>52.5</ele><time>2026-04-19T08:41:41.876Z</time></trkpt><trkpt lat="42.29604" lon="14.4639083"><ele>51.0</ele><time>2026-04-19T08:41:43.876Z</time></trkpt><trkpt lat="42.2959667" lon="14.4639733"><ele>49.5</ele><time>2026-04-19T08:41:46.876Z</time></trkpt><trkpt lat="42.2958917" lon="14.4640333"><ele>48.0</ele><time>2026-04-19T08:41:49.875Z</time></trkpt><trkpt lat="42.29582" lon="14.4641033"><ele>46.5</ele><time>2026-04-19T08:41:52.876Z</time></trkpt><trkpt lat="42.2957517" lon="14.4641433"><ele>45.0</ele><time>2026-04-19T08:41:54.875Z</time></trkpt><trkpt lat="42.2956883" lon="14.4641817"><ele>45.0</ele><time>2026-04-19T08:41:56.876Z</time></trkpt><trkpt lat="42.2956217" lon="14.4642267"><ele>45.0</ele><time>2026-04-19T08:41:58.875Z</time></trkpt><trkpt lat="42.295555" lon="14.46427"><ele>45.0</ele><time>2026-04-19T08:42:00.876Z</time></trkpt><trkpt lat="42.2954883" lon="14.4643317"><ele>45.0</ele><time>2026-04-19T08:42:02.875Z</time></trkpt><trkpt lat="42.2954317" lon="14.4643783"><ele>45.0</ele><time>2026-04-19T08:42:04.875Z</time></trkpt><trkpt lat="42.2953767" lon="14.46444"><ele>45.0</ele><time>2026-04-19T08:42:06.876Z</time></trkpt><trkpt lat="42.2953283" lon="14.4645233"><ele>45.0</ele><time>2026-04-19T08:42:08.875Z</time></trkpt><trkpt lat="42.2952833" lon="14.46461"><ele>45.666666666666664</ele><time>2026-04-19T08:42:10.876Z</time></trkpt><trkpt lat="42.2952283" lon="14.4646967"><ele>46.33333333333333</ele><time>2026-04-19T08:42:12.876Z</time></trkpt><trkpt lat="42.29519" lon="14.4647883"><ele>47.0</ele><time>2026-04-19T08:42:14.875Z</time></trkpt><trkpt lat="42.2951533" lon="14.4648767"><ele>47.666666666666664</ele><time>2026-04-19T08:42:16.876Z</time></trkpt><trkpt lat="42.2951133" lon="14.46497"><ele>48.33333333333333</ele><time>2026-04-19T08:42:18.876Z</time></trkpt><trkpt lat="42.2950683" lon="14.465065"><ele>49.0</ele><time>2026-04-19T08:42:20.875Z</time></trkpt><trkpt lat="42.2950217" lon="14.465165"><ele>49.0</ele><time>2026-04-19T08:42:22.876Z</time></trkpt><trkpt lat="42.2949717" lon="14.4652683"><ele>49.0</ele><time>2026-04-19T08:42:24.875Z</time></trkpt><trkpt lat="42.2949233" lon="14.4653783"><ele>49.0</ele><time>2026-04-19T08:42:26.876Z</time></trkpt><trkpt lat="42.2948717" lon="14.4654983"><ele>49.0</ele><time>2026-04-19T08:42:28.876Z</time></trkpt><trkpt lat="42.2948183" lon="14.4656167"><ele>49.0</ele><time>2026-04-19T08:42:30.876Z</time></trkpt><trkpt lat="42.2947617" lon="14.4657383"><ele>48.400000000000006</ele><time>2026-04-19T08:42:32.876Z</time></trkpt><trkpt lat="42.294705" lon="14.46586"><ele>47.8</ele><time>2026-04-19T08:42:34.875Z</time></trkpt><trkpt lat="42.2946533" lon="14.4659767"><ele>47.2</ele><time>2026-04-19T08:42:36.876Z</time></trkpt><trkpt lat="42.2945917" lon="14.4661033"><ele>46.599999999999994</ele><time>2026-04-19T08:42:38.875Z</time></trkpt><trkpt lat="42.29453" lon="14.466235"><ele>46.0</ele><time>2026-04-19T08:42:40.876Z</time></trkpt><trkpt lat="42.2944683" lon="14.4663667"><ele>46.0</ele><time>2026-04-19T08:42:42.876Z</time></trkpt><trkpt lat="42.2944017" lon="14.46649"><ele>46.0</ele><time>2026-04-19T08:42:44.876Z</time></trkpt><trkpt lat="42.2943383" lon="14.4666217"><ele>46.0</ele><time>2026-04-19T08:42:46.876Z</time></trkpt><trkpt lat="42.2942767" lon="14.4667533"><ele>46.0</ele><time>2026-04-19T08:42:48.876Z</time></trkpt><trkpt lat="42.2942183" lon="14.466885"><ele>46.0</ele><time>2026-04-19T08:42:50.876Z</time></trkpt><trkpt lat="42.2941667" lon="14.4670283"><ele>46.0</ele><time>2026-04-19T08:42:52.875Z</time></trkpt><trkpt lat="42.2941167" lon="14.4671617"><ele>46.0</ele><time>2026-04-19T08:42:54.876Z</time></trkpt><trkpt lat="42.2940717" lon="14.4672867"><ele>46.0</ele><time>2026-04-19T08:42:56.876Z</time></trkpt><trkpt lat="42.294035" lon="14.4674083"><ele>46.0</ele><time>2026-04-19T08:42:58.875Z</time></trkpt><trkpt lat="42.2940117" lon="14.4675367"><ele>44.8</ele><time>2026-04-19T08:43:00.876Z</time></trkpt><trkpt lat="42.293995" lon="14.4676667"><ele>43.599999999999994</ele><time>2026-04-19T08:43:02.876Z</time></trkpt><trkpt lat="42.2939917" lon="14.4677967"><ele>42.4</ele><time>2026-04-19T08:43:04.876Z</time></trkpt><trkpt lat="42.2939883" lon="14.4679283"><ele>41.2</ele><time>2026-04-19T08:43:06.876Z</time></trkpt><trkpt lat="42.29397" lon="14.468065"><ele>40.0</ele><time>2026-04-19T08:43:08.875Z</time></trkpt><trkpt lat="42.2939467" lon="14.4682"><ele>40.2</ele><time>2026-04-19T08:43:10.876Z</time></trkpt><trkpt lat="42.2939167" lon="14.4683367"><ele>40.4</ele><time>2026-04-19T08:43:12.876Z</time></trkpt><trkpt lat="42.2938833" lon="14.4684667"><ele>40.599999999999994</ele><time>2026-04-19T08:43:14.876Z</time></trkpt><trkpt lat="42.2938367" lon="14.468585"><ele>40.8</ele><time>2026-04-19T08:43:16.876Z</time></trkpt><trkpt lat="42.2937767" lon="14.4686983"><ele>41.0</ele><time>2026-04-19T08:43:18.875Z</time></trkpt><trkpt lat="42.2937067" lon="14.4688"><ele>41.0</ele><time>2026-04-19T08:43:20.876Z</time></trkpt><trkpt lat="42.2936233" lon="14.4688983"><ele>41.0</ele><time>2026-04-19T08:43:22.875Z</time></trkpt><trkpt lat="42.2935383" lon="14.4689633"><ele>41.0</ele><time>2026-04-19T08:43:24.876Z</time></trkpt><trkpt lat="42.293455" lon="14.4690317"><ele>41.0</ele><time>2026-04-19T08:43:26.876Z</time></trkpt><trkpt lat="42.2933717" lon="14.4691033"><ele>41.0</ele><time>2026-04-19T08:43:28.876Z</time></trkpt><trkpt lat="42.293295" lon="14.4691767"><ele>41.0</ele><time>2026-04-19T08:43:30.875Z</time></trkpt><trkpt lat="42.2932183" lon="14.4692433"><ele>41.0</ele><time>2026-04-19T08:43:32.875Z</time></trkpt><trkpt lat="42.2931417" lon="14.4692983"><ele>41.0</ele><time>2026-04-19T08:43:34.876Z</time></trkpt><trkpt lat="42.293065" lon="14.469365"><ele>41.0</ele><time>2026-04-19T08:43:36.876Z</time></trkpt><trkpt lat="42.29299" lon="14.4694483"><ele>41.0</ele><time>2026-04-19T08:43:38.876Z</time></trkpt><trkpt lat="42.2929067" lon="14.4695317"><ele>41.4</ele><time>2026-04-19T08:43:40.876Z</time></trkpt><trkpt lat="42.2928433" lon="14.4696283"><ele>41.8</ele><time>2026-04-19T08:43:42.876Z</time></trkpt><trkpt lat="42.2927817" lon="14.4697117"><ele>42.199999999999996</ele><time>2026-04-19T08:43:44.876Z</time></trkpt><trkpt lat="42.292725" lon="14.4698067"><ele>42.599999999999994</ele><time>2026-04-19T08:43:46.875Z</time></trkpt><trkpt lat="42.2926667" lon="14.4699017"><ele>43.0</ele><time>2026-04-19T08:43:48.876Z</time></trkpt><trkpt lat="42.2926033" lon="14.4700083"><ele>43.0</ele><time>2026-04-19T08:43:50.875Z</time></trkpt><trkpt lat="42.29254" lon="14.4701333"><ele>43.0</ele><time>2026-04-19T08:43:52.876Z</time></trkpt><trkpt lat="42.2924817" lon="14.4702767"><ele>43.0</ele><time>2026-04-19T08:43:54.876Z</time></trkpt><trkpt lat="42.29245" lon="14.4703567"><ele>43.0</ele><time>2026-04-19T08:43:55.875Z</time></trkpt><trkpt lat="42.2924117" lon="14.4704417"><ele>43.0</ele><time>2026-04-19T08:43:56.876Z</time></trkpt><trkpt lat="42.2923717" lon="14.4705267"><ele>43.0</ele><time>2026-04-19T08:43:57.876Z</time></trkpt><trkpt lat="42.29233" lon="14.4706117"><ele>43.0</ele><time>2026-04-19T08:43:58.876Z</time></trkpt><trkpt lat="42.2922833" lon="14.4706933"><ele>43.0</ele><time>2026-04-19T08:43:59.875Z</time></trkpt><trkpt lat="42.2922383" lon="14.470785"><ele>43.0</ele><time>2026-04-19T08:44:00.875Z</time></trkpt><trkpt lat="42.292185" lon="14.4708767"><ele>43.0</ele><time>2026-04-19T08:44:01.876Z</time></trkpt><trkpt lat="42.2921217" lon="14.4709617"><ele>43.0</ele><time>2026-04-19T08:44:02.876Z</time></trkpt><trkpt lat="42.29205" lon="14.4710383"><ele>43.0</ele><time>2026-04-19T08:44:03.876Z</time></trkpt><trkpt lat="42.2919683" lon="14.4711133"><ele>43.0</ele><time>2026-04-19T08:44:04.875Z</time></trkpt><trkpt lat="42.2918817" lon="14.4711833"><ele>43.0</ele><time>2026-04-19T08:44:05.875Z</time></trkpt><trkpt lat="42.29179" lon="14.4712567"><ele>43.0</ele><time>2026-04-19T08:44:06.876Z</time></trkpt><trkpt lat="42.2917033" lon="14.471325"><ele>43.0</ele><time>2026-04-19T08:44:07.876Z</time></trkpt><trkpt lat="42.2916217" lon="14.47139"><ele>43.0</ele><time>2026-04-19T08:44:08.876Z</time></trkpt><trkpt lat="42.2915333" lon="14.471455"><ele>41.6</ele><time>2026-04-19T08:44:09.876Z</time></trkpt><trkpt lat="42.2914433" lon="14.4715283"><ele>40.199999999999996</ele><time>2026-04-19T08:44:10.876Z</time></trkpt><trkpt lat="42.2913617" lon="14.4715983"><ele>38.8</ele><time>2026-04-19T08:44:11.876Z</time></trkpt><trkpt lat="42.2912717" lon="14.4716733"><ele>37.4</ele><time>2026-04-19T08:44:12.875Z</time></trkpt><trkpt lat="42.291185" lon="14.4717433"><ele>36.0</ele><time>2026-04-19T08:44:13.876Z</time></trkpt><trkpt lat="42.2910983" lon="14.4718383"><ele>36.0</ele><time>2026-04-19T08:44:14.876Z</time></trkpt><trkpt lat="42.2910267" lon="14.4719533"><ele>36.0</ele><time>2026-04-19T08:44:15.876Z</time></trkpt><trkpt lat="42.2909583" lon="14.47208"><ele>36.0</ele><time>2026-04-19T08:44:16.875Z</time></trkpt><trkpt lat="42.290905" lon="14.472215"><ele>36.0</ele><time>2026-04-19T08:44:17.875Z</time></trkpt><trkpt lat="42.290865" lon="14.472355"><ele>34.2</ele><time>2026-04-19T08:44:18.876Z</time></trkpt><trkpt lat="42.2908383" lon="14.4725033"><ele>32.400000000000006</ele><time>2026-04-19T08:44:19.876Z</time></trkpt><trkpt lat="42.29082" lon="14.47265"><ele>30.6</ele><time>2026-04-19T08:44:20.875Z</time></trkpt><trkpt lat="42.29081" lon="14.4728017"><ele>28.8</ele><time>2026-04-19T08:44:21.876Z</time></trkpt><trkpt lat="42.2908083" lon="14.4729533"><ele>27.0</ele><time>2026-04-19T08:44:22.876Z</time></trkpt><trkpt lat="42.290795" lon="14.4730967"><ele>25.166666666666668</ele><time>2026-04-19T08:44:23.876Z</time></trkpt><trkpt lat="42.2907867" lon="14.4732317"><ele>23.333333333333332</ele><time>2026-04-19T08:44:24.876Z</time></trkpt><trkpt lat="42.2907867" lon="14.47335"><ele>21.5</ele><time>2026-04-19T08:44:25.875Z</time></trkpt><trkpt lat="42.2907733" lon="14.47346"><ele>19.666666666666664</ele><time>2026-04-19T08:44:26.876Z</time></trkpt><trkpt lat="42.29076" lon="14.4735633"><ele>17.833333333333332</ele><time>2026-04-19T08:44:27.876Z</time></trkpt><trkpt lat="42.2907333" lon="14.4736733"><ele>16.0</ele><time>2026-04-19T08:44:28.875Z</time></trkpt><trkpt lat="42.29071" lon="14.47379"><ele>16.5</ele><time>2026-04-19T08:44:29.875Z</time></trkpt><trkpt lat="42.2906833" lon="14.4739033"><ele>17.0</ele><time>2026-04-19T08:44:30.876Z</time></trkpt><trkpt lat="42.290645" lon="14.4740167"><ele>17.5</ele><time>2026-04-19T08:44:31.876Z</time></trkpt><trkpt lat="42.2906017" lon="14.47413"><ele>18.0</ele><time>2026-04-19T08:44:32.876Z</time></trkpt><trkpt lat="42.2905633" lon="14.474245"><ele>18.5</ele><time>2026-04-19T08:44:33.876Z</time></trkpt><trkpt lat="42.2905067" lon="14.47432"><ele>19.0</ele><time>2026-04-19T08:44:34.876Z</time></trkpt><trkpt lat="42.29045" lon="14.47439"><ele>19.0</ele><time>2026-04-19T08:44:35.876Z</time></trkpt><trkpt lat="42.290395" lon="14.4744517"><ele>19.0</ele><time>2026-04-19T08:44:36.876Z</time></trkpt><trkpt lat="42.2903483" lon="14.4745167"><ele>19.0</ele><time>2026-04-19T08:44:37.876Z</time></trkpt><trkpt lat="42.29027" lon="14.4746017"><ele>19.0</ele><time>2026-04-19T08:44:39.876Z</time></trkpt><trkpt lat="42.2903067" lon="14.4747017"><ele>19.0</ele><time>2026-04-19T08:44:43.876Z</time></trkpt><trkpt lat="42.290375" lon="14.4747467"><ele>19.0</ele><time>2026-04-19T08:44:45.876Z</time></trkpt><trkpt lat="42.2903667" lon="14.4748633"><ele>17.666666666666664</ele><time>2026-04-19T08:44:48.876Z</time></trkpt><trkpt lat="42.290305" lon="14.47496"><ele>16.333333333333332</ele><time>2026-04-19T08:44:50.875Z</time></trkpt><trkpt lat="42.2902617" lon="14.4750533"><ele>15.0</ele><time>2026-04-19T08:44:53.876Z</time></trkpt><trkpt lat="42.2902333" lon="14.4751517"><ele>13.666666666666666</ele><time>2026-04-19T08:44:58.875Z</time></trkpt><trkpt lat="42.29019" lon="14.4752717"><ele>12.333333333333332</ele><time>2026-04-19T08:45:01.876Z</time></trkpt><trkpt lat="42.2901517" lon="14.4753633"><ele>11.0</ele><time>2026-04-19T08:45:03.876Z</time></trkpt><trkpt lat="42.29011" lon="14.4754733"><ele>10.0</ele><time>2026-04-19T08:45:05.876Z</time></trkpt><trkpt lat="42.2900567" lon="14.475585"><ele>9.0</ele><time>2026-04-19T08:45:07.876Z</time></trkpt><trkpt lat="42.2900017" lon="14.4757067"><ele>8.0</ele><time>2026-04-19T08:45:09.875Z</time></trkpt><trkpt lat="42.2899417" lon="14.4758083"><ele>7.0</ele><time>2026-04-19T08:45:11.876Z</time></trkpt><trkpt lat="42.2898767" lon="14.4759117"><ele>6.0</ele><time>2026-04-19T08:45:13.875Z</time></trkpt><trkpt lat="42.289815" lon="14.4760267"><ele>7.0</ele><time>2026-04-19T08:45:15.875Z</time></trkpt><trkpt lat="42.2897567" lon="14.4761283"><ele>8.0</ele><time>2026-04-19T08:45:17.876Z</time></trkpt><trkpt lat="42.2897083" lon="14.4762217"><ele>9.0</ele><time>2026-04-19T08:45:19.876Z</time></trkpt><trkpt lat="42.2896583" lon="14.4763217"><ele>10.0</ele><time>2026-04-19T08:45:21.876Z</time></trkpt><trkpt lat="42.2896033" lon="14.47642"><ele>11.0</ele><time>2026-04-19T08:45:23.876Z</time></trkpt><trkpt lat="42.2895483" lon="14.4765217"><ele>11.0</ele><time>2026-04-19T08:45:25.876Z</time></trkpt><trkpt lat="42.2894983" lon="14.4766233"><ele>11.0</ele><time>2026-04-19T08:45:27.876Z</time></trkpt><trkpt lat="42.289445" lon="14.47672"><ele>11.0</ele><time>2026-04-19T08:45:29.875Z</time></trkpt><trkpt lat="42.2893833" lon="14.4768217"><ele>11.0</ele><time>2026-04-19T08:45:31.876Z</time></trkpt><trkpt lat="42.28933" lon="14.4769083"><ele>11.0</ele><time>2026-04-19T08:45:33.876Z</time></trkpt><trkpt lat="42.2892783" lon="14.4769967"><ele>11.0</ele><time>2026-04-19T08:45:35.876Z</time></trkpt><trkpt lat="42.289225" lon="14.4771"><ele>12.200000000000001</ele><time>2026-04-19T08:45:37.875Z</time></trkpt><trkpt lat="42.2891683" lon="14.4772133"><ele>13.4</ele><time>2026-04-19T08:45:39.876Z</time></trkpt><trkpt lat="42.2891083" lon="14.47732"><ele>14.6</ele><time>2026-04-19T08:45:41.875Z</time></trkpt><trkpt lat="42.2890417" lon="14.47743"><ele>15.8</ele><time>2026-04-19T08:45:43.876Z</time></trkpt><trkpt lat="42.28897" lon="14.4775333"><ele>17.0</ele><time>2026-04-19T08:45:45.875Z</time></trkpt><trkpt lat="42.2888967" lon="14.477635"><ele>17.0</ele><time>2026-04-19T08:45:47.876Z</time></trkpt><trkpt lat="42.2888333" lon="14.477755"><ele>17.0</ele><time>2026-04-19T08:45:49.876Z</time></trkpt><trkpt lat="42.2887683" lon="14.4778633"><ele>17.0</ele><time>2026-04-19T08:45:51.876Z</time></trkpt><trkpt lat="42.288705" lon="14.477975"><ele>17.0</ele><time>2026-04-19T08:45:53.876Z</time></trkpt><trkpt lat="42.2886433" lon="14.4780917"><ele>17.0</ele><time>2026-04-19T08:45:55.875Z</time></trkpt><trkpt lat="42.2885867" lon="14.478195"><ele>15.4</ele><time>2026-04-19T08:45:57.876Z</time></trkpt><trkpt lat="42.2885233" lon="14.4782967"><ele>13.799999999999999</ele><time>2026-04-19T08:45:59.876Z</time></trkpt><trkpt lat="42.28846" lon="14.4783983"><ele>12.2</ele><time>2026-04-19T08:46:01.876Z</time></trkpt><trkpt lat="42.2884" lon="14.4785067"><ele>10.6</ele><time>2026-04-19T08:46:03.876Z</time></trkpt><trkpt lat="42.288345" lon="14.4786167"><ele>9.0</ele><time>2026-04-19T08:46:05.876Z</time></trkpt><trkpt lat="42.2882867" lon="14.4787183"><ele>10.0</ele><time>2026-04-19T08:46:07.875Z</time></trkpt><trkpt lat="42.2882217" lon="14.478835"><ele>11.0</ele><time>2026-04-19T08:46:09.876Z</time></trkpt><trkpt lat="42.2881517" lon="14.4789583"><ele>11.999999999999998</ele><time>2026-04-19T08:46:11.876Z</time></trkpt><trkpt lat="42.28809" lon="14.4790767"><ele>13.0</ele><time>2026-04-19T08:46:13.876Z</time></trkpt><trkpt lat="42.2880267" lon="14.4791983"><ele>14.0</ele><time>2026-04-19T08:46:15.876Z</time></trkpt><trkpt lat="42.2879583" lon="14.4793267"><ele>14.0</ele><time>2026-04-19T08:46:17.874Z</time></trkpt><trkpt lat="42.28789" lon="14.4794483"><ele>13.999999999999998</ele><time>2026-04-19T08:46:19.875Z</time></trkpt><trkpt lat="42.28782" lon="14.4795617"><ele>13.999999999999998</ele><time>2026-04-19T08:46:21.874Z</time></trkpt><trkpt lat="42.287765" lon="14.47968"><ele>14.0</ele><time>2026-04-19T08:46:23.875Z</time></trkpt><trkpt lat="42.2877167" lon="14.4797967"><ele>14.0</ele><time>2026-04-19T08:46:25.875Z</time></trkpt><trkpt lat="42.287665" lon="14.4799267"><ele>13.0</ele><time>2026-04-19T08:46:27.875Z</time></trkpt><trkpt lat="42.287595" lon="14.4800567"><ele>11.999999999999998</ele><time>2026-04-19T08:46:29.875Z</time></trkpt><trkpt lat="42.28753" lon="14.4801733"><ele>11.0</ele><time>2026-04-19T08:46:31.874Z</time></trkpt><trkpt lat="42.2874683" lon="14.4802933"><ele>10.0</ele><time>2026-04-19T08:46:33.875Z</time></trkpt><trkpt lat="42.287405" lon="14.480415"><ele>9.0</ele><time>2026-04-19T08:46:35.875Z</time></trkpt><trkpt lat="42.2873483" lon="14.480545"><ele>10.25</ele><time>2026-04-19T08:46:37.875Z</time></trkpt><trkpt lat="42.2873" lon="14.48069"><ele>11.5</ele><time>2026-04-19T08:46:39.875Z</time></trkpt><trkpt lat="42.28725" lon="14.4808383"><ele>12.75</ele><time>2026-04-19T08:46:41.875Z</time></trkpt><trkpt lat="42.2872017" lon="14.4809817"><ele>14.0</ele><time>2026-04-19T08:46:43.875Z</time></trkpt><trkpt lat="42.2871417" lon="14.4811183"><ele>14.0</ele><time>2026-04-19T08:46:45.875Z</time></trkpt><trkpt lat="42.287085" lon="14.4812517"><ele>13.999999999999998</ele><time>2026-04-19T08:46:47.874Z</time></trkpt><trkpt lat="42.2870267" lon="14.4813867"><ele>13.999999999999998</ele><time>2026-04-19T08:46:49.874Z</time></trkpt><trkpt lat="42.2869683" lon="14.4815033"><ele>14.0</ele><time>2026-04-19T08:46:51.875Z</time></trkpt><trkpt lat="42.2869167" lon="14.48163"><ele>14.0</ele><time>2026-04-19T08:46:53.875Z</time></trkpt><trkpt lat="42.2868633" lon="14.4817683"><ele>12.75</ele><time>2026-04-19T08:46:55.875Z</time></trkpt><trkpt lat="42.2868017" lon="14.4819"><ele>11.5</ele><time>2026-04-19T08:46:57.875Z</time></trkpt><trkpt lat="42.2867483" lon="14.4820333"><ele>10.25</ele><time>2026-04-19T08:46:59.875Z</time></trkpt><trkpt lat="42.2866867" lon="14.482165"><ele>9.0</ele><time>2026-04-19T08:47:01.875Z</time></trkpt><trkpt lat="42.286625" lon="14.4822933"><ele>8.0</ele><time>2026-04-19T08:47:03.875Z</time></trkpt><trkpt lat="42.286565" lon="14.4824183"><ele>7.0</ele><time>2026-04-19T08:47:05.875Z</time></trkpt><trkpt lat="42.2864933" lon="14.4825483"><ele>6.0</ele><time>2026-04-19T08:47:07.875Z</time></trkpt><trkpt lat="42.286425" lon="14.48268"><ele>5.0</ele><time>2026-04-19T08:47:09.874Z</time></trkpt><trkpt lat="42.2863517" lon="14.4827917"><ele>5.75</ele><time>2026-04-19T08:47:11.874Z</time></trkpt><trkpt lat="42.2862733" lon="14.482905"><ele>6.5</ele><time>2026-04-19T08:47:13.874Z</time></trkpt><trkpt lat="42.28619" lon="14.4830183"><ele>7.25</ele><time>2026-04-19T08:47:15.875Z</time></trkpt><trkpt lat="42.286115" lon="14.483135"><ele>8.0</ele><time>2026-04-19T08:47:17.875Z</time></trkpt><trkpt lat="42.286035" lon="14.4832467"><ele>8.0</ele><time>2026-04-19T08:47:19.874Z</time></trkpt><trkpt lat="42.2859433" lon="14.4833417"><ele>8.0</ele><time>2026-04-19T08:47:21.875Z</time></trkpt><trkpt lat="42.2858567" lon="14.48344"><ele>8.0</ele><time>2026-04-19T08:47:23.874Z</time></trkpt><trkpt lat="42.2857733" lon="14.4835433"><ele>8.0</ele><time>2026-04-19T08:47:25.874Z</time></trkpt><trkpt lat="42.2856783" lon="14.4836367"><ele>7.75</ele><time>2026-04-19T08:47:27.875Z</time></trkpt><trkpt lat="42.2855867" lon="14.483735"><ele>7.5</ele><time>2026-04-19T08:47:29.875Z</time></trkpt><trkpt lat="42.285495" lon="14.4838267"><ele>7.25</ele><time>2026-04-19T08:47:31.875Z</time></trkpt><trkpt lat="42.2854017" lon="14.4839267"><ele>7.0</ele><time>2026-04-19T08:47:33.875Z</time></trkpt><trkpt lat="42.2853033" lon="14.4840117"><ele>7.0</ele><time>2026-04-19T08:47:35.874Z</time></trkpt><trkpt lat="42.2852067" lon="14.4841"><ele>7.0</ele><time>2026-04-19T08:47:37.874Z</time></trkpt><trkpt lat="42.2851117" lon="14.4841917"><ele>7.0</ele><time>2026-04-19T08:47:39.875Z</time></trkpt><trkpt lat="42.28502" lon="14.4842817"><ele>7.0</ele><time>2026-04-19T08:47:41.874Z</time></trkpt><trkpt lat="42.2849217" lon="14.484365"><ele>7.0</ele><time>2026-04-19T08:47:43.874Z</time></trkpt><trkpt lat="42.2848317" lon="14.484455"><ele>6.999999999999999</ele><time>2026-04-19T08:47:45.875Z</time></trkpt><trkpt lat="42.2847383" lon="14.48454"><ele>6.999999999999999</ele><time>2026-04-19T08:47:47.875Z</time></trkpt><trkpt lat="42.2846467" lon="14.48462"><ele>7.0</ele><time>2026-04-19T08:47:49.875Z</time></trkpt><trkpt lat="42.2845567" lon="14.4847133"><ele>7.0</ele><time>2026-04-19T08:47:51.875Z</time></trkpt><trkpt lat="42.2844717" lon="14.4848017"><ele>7.3999999999999995</ele><time>2026-04-19T08:47:53.875Z</time></trkpt><trkpt lat="42.2843783" lon="14.4848867"><ele>7.799999999999999</ele><time>2026-04-19T08:47:55.875Z</time></trkpt><trkpt lat="42.2842883" lon="14.4849783"><ele>8.2</ele><time>2026-04-19T08:47:57.875Z</time></trkpt><trkpt lat="42.2842133" lon="14.485075"><ele>8.6</ele><time>2026-04-19T08:47:59.874Z</time></trkpt><trkpt lat="42.284125" lon="14.4851667"><ele>9.0</ele><time>2026-04-19T08:48:01.875Z</time></trkpt><trkpt lat="42.2840367" lon="14.4852467"><ele>9.0</ele><time>2026-04-19T08:48:03.874Z</time></trkpt><trkpt lat="42.2839533" lon="14.4853417"><ele>9.0</ele><time>2026-04-19T08:48:05.874Z</time></trkpt><trkpt lat="42.2838683" lon="14.4854367"><ele>9.0</ele><time>2026-04-19T08:48:07.874Z</time></trkpt><trkpt lat="42.2837917" lon="14.4855417"><ele>9.0</ele><time>2026-04-19T08:48:09.875Z</time></trkpt><trkpt lat="42.28371" lon="14.4856533"><ele>9.0</ele><time>2026-04-19T08:48:11.874Z</time></trkpt><trkpt lat="42.28365" lon="14.4856967"><ele>9.25</ele><time>2026-04-19T08:48:12.874Z</time></trkpt><trkpt lat="42.2835717" lon="14.4857967"><ele>9.5</ele><time>2026-04-19T08:48:14.875Z</time></trkpt><trkpt lat="42.28349" lon="14.4859067"><ele>9.75</ele><time>2026-04-19T08:48:16.875Z</time></trkpt><trkpt lat="42.2834033" lon="14.4860033"><ele>10.0</ele><time>2026-04-19T08:48:18.874Z</time></trkpt><trkpt lat="42.2833217" lon="14.48612"><ele>10.0</ele><time>2026-04-19T08:48:20.874Z</time></trkpt><trkpt lat="42.28324" lon="14.48623"><ele>10.0</ele><time>2026-04-19T08:48:22.874Z</time></trkpt><trkpt lat="42.2831633" lon="14.48633"><ele>10.0</ele><time>2026-04-19T08:48:24.874Z</time></trkpt><trkpt lat="42.2830783" lon="14.48643"><ele>10.0</ele><time>2026-04-19T08:48:26.874Z</time></trkpt><trkpt lat="42.2830017" lon="14.486545"><ele>10.0</ele><time>2026-04-19T08:48:28.875Z</time></trkpt><trkpt lat="42.2829333" lon="14.4866567"><ele>9.6</ele><time>2026-04-19T08:48:30.875Z</time></trkpt><trkpt lat="42.2828667" lon="14.4867733"><ele>9.2</ele><time>2026-04-19T08:48:32.874Z</time></trkpt><trkpt lat="42.282795" lon="14.4868967"><ele>8.8</ele><time>2026-04-19T08:48:34.874Z</time></trkpt><trkpt lat="42.2827267" lon="14.487015"><ele>8.4</ele><time>2026-04-19T08:48:36.875Z</time></trkpt><trkpt lat="42.2826667" lon="14.4871433"><ele>8.0</ele><time>2026-04-19T08:48:38.874Z</time></trkpt><trkpt lat="42.2826067" lon="14.4872683"><ele>8.0</ele><time>2026-04-19T08:48:40.875Z</time></trkpt><trkpt lat="42.2825483" lon="14.4873983"><ele>8.0</ele><time>2026-04-19T08:48:42.875Z</time></trkpt><trkpt lat="42.282485" lon="14.487525"><ele>8.0</ele><time>2026-04-19T08:48:44.875Z</time></trkpt><trkpt lat="42.2824217" lon="14.48765"><ele>8.0</ele><time>2026-04-19T08:48:46.875Z</time></trkpt><trkpt lat="42.2823567" lon="14.487775"><ele>8.0</ele><time>2026-04-19T08:48:48.875Z</time></trkpt><trkpt lat="42.2822933" lon="14.4879067"><ele>8.0</ele><time>2026-04-19T08:48:50.874Z</time></trkpt><trkpt lat="42.2822283" lon="14.4880417"><ele>8.0</ele><time>2026-04-19T08:48:52.874Z</time></trkpt><trkpt lat="42.2821617" lon="14.4881617"><ele>8.0</ele><time>2026-04-19T08:48:54.875Z</time></trkpt><trkpt lat="42.2820983" lon="14.4882867"><ele>7.6000000000000005</ele><time>2026-04-19T08:48:56.875Z</time></trkpt><trkpt lat="42.2820367" lon="14.4884133"><ele>7.200000000000001</ele><time>2026-04-19T08:48:58.875Z</time></trkpt><trkpt lat="42.2819633" lon="14.4885333"><ele>6.8</ele><time>2026-04-19T08:49:00.874Z</time></trkpt><trkpt lat="42.2818883" lon="14.4886467"><ele>6.4</ele><time>2026-04-19T08:49:02.875Z</time></trkpt><trkpt lat="42.281815" lon="14.488745"><ele>6.0</ele><time>2026-04-19T08:49:04.875Z</time></trkpt><trkpt lat="42.281745" lon="14.4888433"><ele>6.0</ele><time>2026-04-19T08:49:06.875Z</time></trkpt><trkpt lat="42.2816783" lon="14.488945"><ele>6.0</ele><time>2026-04-19T08:49:08.875Z</time></trkpt><trkpt lat="42.281605" lon="14.489055"><ele>6.0</ele><time>2026-04-19T08:49:10.874Z</time></trkpt><trkpt lat="42.2815217" lon="14.4891583"><ele>6.0</ele><time>2026-04-19T08:49:12.875Z</time></trkpt><trkpt lat="42.281445" lon="14.48926"><ele>6.0</ele><time>2026-04-19T08:49:14.874Z</time></trkpt><trkpt lat="42.281365" lon="14.4893633"><ele>6.4</ele><time>2026-04-19T08:49:16.875Z</time></trkpt><trkpt lat="42.2812817" lon="14.4894617"><ele>6.8</ele><time>2026-04-19T08:49:18.875Z</time></trkpt><trkpt lat="42.2811933" lon="14.4895483"><ele>7.200000000000001</ele><time>2026-04-19T08:49:20.874Z</time></trkpt><trkpt lat="42.2811067" lon="14.48964"><ele>7.6000000000000005</ele><time>2026-04-19T08:49:22.875Z</time></trkpt><trkpt lat="42.281015" lon="14.4897233"><ele>8.0</ele><time>2026-04-19T08:49:24.875Z</time></trkpt><trkpt lat="42.2809267" lon="14.4898133"><ele>8.0</ele><time>2026-04-19T08:49:26.875Z</time></trkpt><trkpt lat="42.2808317" lon="14.4899"><ele>8.0</ele><time>2026-04-19T08:49:28.875Z</time></trkpt><trkpt lat="42.2807417" lon="14.489985"><ele>8.0</ele><time>2026-04-19T08:49:30.875Z</time></trkpt><trkpt lat="42.2806467" lon="14.4900583"><ele>8.0</ele><time>2026-04-19T08:49:32.875Z</time></trkpt><trkpt lat="42.2805533" lon="14.4901317"><ele>8.0</ele><time>2026-04-19T08:49:34.875Z</time></trkpt><trkpt lat="42.2804517" lon="14.4902133"><ele>7.2</ele><time>2026-04-19T08:49:36.875Z</time></trkpt><trkpt lat="42.2803567" lon="14.4902833"><ele>6.4</ele><time>2026-04-19T08:49:38.874Z</time></trkpt><trkpt lat="42.28026" lon="14.4903617"><ele>5.6000000000000005</ele><time>2026-04-19T08:49:40.874Z</time></trkpt><trkpt lat="42.280165" lon="14.4904367"><ele>4.800000000000001</ele><time>2026-04-19T08:49:42.875Z</time></trkpt><trkpt lat="42.2800717" lon="14.4904933"><ele>4.0</ele><time>2026-04-19T08:49:44.874Z</time></trkpt><trkpt lat="42.27998" lon="14.4905667"><ele>4.0</ele><time>2026-04-19T08:49:46.875Z</time></trkpt><trkpt lat="42.2798767" lon="14.4906483"><ele>4.0</ele><time>2026-04-19T08:49:48.874Z</time></trkpt><trkpt lat="42.2797767" lon="14.490715"><ele>4.0</ele><time>2026-04-19T08:49:50.875Z</time></trkpt><trkpt lat="42.2796767" lon="14.4907817"><ele>4.0</ele><time>2026-04-19T08:49:52.875Z</time></trkpt><trkpt lat="42.2795733" lon="14.4908433"><ele>5.6</ele><time>2026-04-19T08:49:54.874Z</time></trkpt><trkpt lat="42.279465" lon="14.4909133"><ele>7.2</ele><time>2026-04-19T08:49:56.875Z</time></trkpt><trkpt lat="42.2794033" lon="14.4909517"><ele>8.799999999999999</ele><time>2026-04-19T08:49:57.875Z</time></trkpt><trkpt lat="42.279295" lon="14.49102"><ele>10.4</ele><time>2026-04-19T08:49:59.875Z</time></trkpt><trkpt lat="42.2791867" lon="14.4910867"><ele>12.0</ele><time>2026-04-19T08:50:01.875Z</time></trkpt><trkpt lat="42.279085" lon="14.4911567"><ele>12.0</ele><time>2026-04-19T08:50:03.875Z</time></trkpt><trkpt lat="42.278985" lon="14.49123"><ele>12.0</ele><time>2026-04-19T08:50:05.875Z</time></trkpt><trkpt lat="42.2788883" lon="14.4913117"><ele>12.0</ele><time>2026-04-19T08:50:07.875Z</time></trkpt><trkpt lat="42.278795" lon="14.4913883"><ele>12.0</ele><time>2026-04-19T08:50:09.875Z</time></trkpt><trkpt lat="42.2787083" lon="14.4914667"><ele>12.0</ele><time>2026-04-19T08:50:11.874Z</time></trkpt><trkpt lat="42.2786283" lon="14.4915383"><ele>11.6</ele><time>2026-04-19T08:50:13.875Z</time></trkpt><trkpt lat="42.2785467" lon="14.4916183"><ele>11.2</ele><time>2026-04-19T08:50:15.874Z</time></trkpt><trkpt lat="42.27846" lon="14.4917033"><ele>10.8</ele><time>2026-04-19T08:50:17.875Z</time></trkpt><trkpt lat="42.2783767" lon="14.4917917"><ele>10.4</ele><time>2026-04-19T08:50:19.875Z</time></trkpt><trkpt lat="42.2782917" lon="14.491865"><ele>10.0</ele><time>2026-04-19T08:50:21.875Z</time></trkpt><trkpt lat="42.2782067" lon="14.4919533"><ele>10.0</ele><time>2026-04-19T08:50:23.875Z</time></trkpt><trkpt lat="42.278135" lon="14.492045"><ele>10.0</ele><time>2026-04-19T08:50:25.874Z</time></trkpt><trkpt lat="42.27806" lon="14.49214"><ele>10.0</ele><time>2026-04-19T08:50:27.874Z</time></trkpt><trkpt lat="42.2779867" lon="14.4922367"><ele>10.0</ele><time>2026-04-19T08:50:29.874Z</time></trkpt><trkpt lat="42.2779167" lon="14.4923283"><ele>10.0</ele><time>2026-04-19T08:50:31.875Z</time></trkpt><trkpt lat="42.2778433" lon="14.49241"><ele>8.8</ele><time>2026-04-19T08:50:33.874Z</time></trkpt><trkpt lat="42.2777733" lon="14.492505"><ele>7.6</ele><time>2026-04-19T08:50:35.875Z</time></trkpt><trkpt lat="42.2777" lon="14.492605"><ele>6.4</ele><time>2026-04-19T08:50:37.874Z</time></trkpt><trkpt lat="42.2776267" lon="14.4927017"><ele>5.2</ele><time>2026-04-19T08:50:39.874Z</time></trkpt><trkpt lat="42.2775483" lon="14.4928017"><ele>4.0</ele><time>2026-04-19T08:50:41.875Z</time></trkpt><trkpt lat="42.2774683" lon="14.4928967"><ele>4.0</ele><time>2026-04-19T08:50:43.874Z</time></trkpt><trkpt lat="42.277385" lon="14.4929883"><ele>4.0</ele><time>2026-04-19T08:50:45.874Z</time></trkpt><trkpt lat="42.2773083" lon="14.49308"><ele>4.0</ele><time>2026-04-19T08:50:47.874Z</time></trkpt><trkpt lat="42.2772317" lon="14.4931817"><ele>4.0</ele><time>2026-04-19T08:50:49.874Z</time></trkpt><trkpt lat="42.2771583" lon="14.4932933"><ele>4.0</ele><time>2026-04-19T08:50:51.875Z</time></trkpt><trkpt lat="42.2770817" lon="14.4933933"><ele>4.0</ele><time>2026-04-19T08:50:53.875Z</time></trkpt><trkpt lat="42.2770083" lon="14.4935"><ele>4.0</ele><time>2026-04-19T08:50:55.874Z</time></trkpt><trkpt lat="42.2769267" lon="14.493605"><ele>4.0</ele><time>2026-04-19T08:50:57.875Z</time></trkpt><trkpt lat="42.2768533" lon="14.4937067"><ele>4.0</ele><time>2026-04-19T08:50:59.875Z</time></trkpt><trkpt lat="42.2767833" lon="14.493815"><ele>4.0</ele><time>2026-04-19T08:51:01.875Z</time></trkpt><trkpt lat="42.27671" lon="14.4939267"><ele>4.0</ele><time>2026-04-19T08:51:03.875Z</time></trkpt><trkpt lat="42.2766367" lon="14.4940467"><ele>4.0</ele><time>2026-04-19T08:51:05.875Z</time></trkpt><trkpt lat="42.2765583" lon="14.4941633"><ele>4.0</ele><time>2026-04-19T08:51:07.875Z</time></trkpt><trkpt lat="42.2764767" lon="14.4942717"><ele>4.0</ele><time>2026-04-19T08:51:09.874Z</time></trkpt><trkpt lat="42.2763967" lon="14.4943833"><ele>5.25</ele><time>2026-04-19T08:51:11.875Z</time></trkpt><trkpt lat="42.2763167" lon="14.4944917"><ele>6.5</ele><time>2026-04-19T08:51:13.875Z</time></trkpt><trkpt lat="42.2762283" lon="14.4946017"><ele>7.75</ele><time>2026-04-19T08:51:15.874Z</time></trkpt><trkpt lat="42.2761417" lon="14.494715"><ele>9.0</ele><time>2026-04-19T08:51:17.874Z</time></trkpt><trkpt lat="42.27606" lon="14.4948217"><ele>9.0</ele><time>2026-04-19T08:51:19.875Z</time></trkpt><trkpt lat="42.2759783" lon="14.4949233"><ele>9.0</ele><time>2026-04-19T08:51:21.875Z</time></trkpt><trkpt lat="42.2759033" lon="14.4950317"><ele>9.0</ele><time>2026-04-19T08:51:23.875Z</time></trkpt><trkpt lat="42.275815" lon="14.4951417"><ele>9.0</ele><time>2026-04-19T08:51:25.874Z</time></trkpt><trkpt lat="42.2757333" lon="14.4952333"><ele>9.0</ele><time>2026-04-19T08:51:27.874Z</time></trkpt><trkpt lat="42.27566" lon="14.4953417"><ele>10.2</ele><time>2026-04-19T08:51:29.875Z</time></trkpt><trkpt lat="42.2755867" lon="14.49544"><ele>11.4</ele><time>2026-04-19T08:51:31.874Z</time></trkpt><trkpt lat="42.2755033" lon="14.4955267"><ele>12.6</ele><time>2026-04-19T08:51:33.874Z</time></trkpt><trkpt lat="42.2754117" lon="14.4956233"><ele>13.8</ele><time>2026-04-19T08:51:35.874Z</time></trkpt><trkpt lat="42.2753233" lon="14.4957167"><ele>15.0</ele><time>2026-04-19T08:51:37.875Z</time></trkpt><trkpt lat="42.2752433" lon="14.495815"><ele>15.0</ele><time>2026-04-19T08:51:39.875Z</time></trkpt><trkpt lat="42.2751683" lon="14.4959183"><ele>15.0</ele><time>2026-04-19T08:51:41.875Z</time></trkpt><trkpt lat="42.275095" lon="14.4960217"><ele>15.0</ele><time>2026-04-19T08:51:43.875Z</time></trkpt><trkpt lat="42.2750217" lon="14.49614"><ele>15.0</ele><time>2026-04-19T08:51:45.875Z</time></trkpt><trkpt lat="42.274955" lon="14.496255"><ele>15.0</ele><time>2026-04-19T08:51:47.874Z</time></trkpt><trkpt lat="42.2748933" lon="14.4963633"><ele>15.8</ele><time>2026-04-19T08:51:49.874Z</time></trkpt><trkpt lat="42.2748233" lon="14.496465"><ele>16.6</ele><time>2026-04-19T08:51:51.875Z</time></trkpt><trkpt lat="42.2747517" lon="14.496565"><ele>17.4</ele><time>2026-04-19T08:51:53.874Z</time></trkpt><trkpt lat="42.2746833" lon="14.496665"><ele>18.2</ele><time>2026-04-19T08:51:55.875Z</time></trkpt><trkpt lat="42.2746233" lon="14.4967683"><ele>19.0</ele><time>2026-04-19T08:51:57.874Z</time></trkpt><trkpt lat="42.2745517" lon="14.4968817"><ele>19.0</ele><time>2026-04-19T08:51:59.874Z</time></trkpt><trkpt lat="42.2744833" lon="14.4969967"><ele>19.0</ele><time>2026-04-19T08:52:01.875Z</time></trkpt><trkpt lat="42.2744183" lon="14.4971133"><ele>19.0</ele><time>2026-04-19T08:52:03.875Z</time></trkpt><trkpt lat="42.2743533" lon="14.4972333"><ele>19.0</ele><time>2026-04-19T08:52:05.875Z</time></trkpt><trkpt lat="42.2742933" lon="14.4973567"><ele>19.0</ele><time>2026-04-19T08:52:07.874Z</time></trkpt><trkpt lat="42.2742317" lon="14.4974717"><ele>18.2</ele><time>2026-04-19T08:52:09.875Z</time></trkpt><trkpt lat="42.274165" lon="14.4975967"><ele>17.4</ele><time>2026-04-19T08:52:11.874Z</time></trkpt><trkpt lat="42.2741067" lon="14.49772"><ele>16.6</ele><time>2026-04-19T08:52:13.875Z</time></trkpt><trkpt lat="42.274055" lon="14.4978467"><ele>15.8</ele><time>2026-04-19T08:52:15.875Z</time></trkpt><trkpt lat="42.2739983" lon="14.4979533"><ele>15.0</ele><time>2026-04-19T08:52:17.874Z</time></trkpt><trkpt lat="42.2739383" lon="14.4980817"><ele>15.0</ele><time>2026-04-19T08:52:19.874Z</time></trkpt><trkpt lat="42.2738867" lon="14.4982167"><ele>15.0</ele><time>2026-04-19T08:52:21.875Z</time></trkpt><trkpt lat="42.2738417" lon="14.4983517"><ele>15.0</ele><time>2026-04-19T08:52:23.875Z</time></trkpt><trkpt lat="42.2737983" lon="14.4984867"><ele>15.0</ele><time>2026-04-19T08:52:25.875Z</time></trkpt><trkpt lat="42.2737517" lon="14.4986217"><ele>15.0</ele><time>2026-04-19T08:52:27.875Z</time></trkpt><trkpt lat="42.2737" lon="14.4987517"><ele>13.6</ele><time>2026-04-19T08:52:29.875Z</time></trkpt><trkpt lat="42.2736483" lon="14.4988783"><ele>12.2</ele><time>2026-04-19T08:52:31.875Z</time></trkpt><trkpt lat="42.2736067" lon="14.4990117"><ele>10.8</ele><time>2026-04-19T08:52:33.875Z</time></trkpt><trkpt lat="42.2735567" lon="14.4991333"><ele>9.4</ele><time>2026-04-19T08:52:35.874Z</time></trkpt><trkpt lat="42.2735133" lon="14.4992683"><ele>8.0</ele><time>2026-04-19T08:52:37.874Z</time></trkpt><trkpt lat="42.27346" lon="14.499395"><ele>8.0</ele><time>2026-04-19T08:52:39.874Z</time></trkpt><trkpt lat="42.273405" lon="14.4995217"><ele>8.0</ele><time>2026-04-19T08:52:41.874Z</time></trkpt><trkpt lat="42.27335" lon="14.4996417"><ele>8.0</ele><time>2026-04-19T08:52:43.874Z</time></trkpt><trkpt lat="42.27329" lon="14.4997683"><ele>8.0</ele><time>2026-04-19T08:52:45.875Z</time></trkpt><trkpt lat="42.27323" lon="14.49989"><ele>8.0</ele><time>2026-04-19T08:52:47.875Z</time></trkpt><trkpt lat="42.2731717" lon="14.5000117"><ele>8.4</ele><time>2026-04-19T08:52:49.874Z</time></trkpt><trkpt lat="42.2731133" lon="14.5001267"><ele>8.8</ele><time>2026-04-19T08:52:51.874Z</time></trkpt><trkpt lat="42.27305" lon="14.5002417"><ele>9.2</ele><time>2026-04-19T08:52:53.875Z</time></trkpt><trkpt lat="42.272975" lon="14.5003583"><ele>9.6</ele><time>2026-04-19T08:52:55.875Z</time></trkpt><trkpt lat="42.2729067" lon="14.5004667"><ele>10.0</ele><time>2026-04-19T08:52:57.875Z</time></trkpt><trkpt lat="42.2728417" lon="14.5005733"><ele>10.0</ele><time>2026-04-19T08:52:59.874Z</time></trkpt><trkpt lat="42.2727817" lon="14.5006517"><ele>10.0</ele><time>2026-04-19T08:53:01.875Z</time></trkpt><trkpt lat="42.2727283" lon="14.5007233"><ele>10.0</ele><time>2026-04-19T08:53:03.875Z</time></trkpt><trkpt lat="42.2726717" lon="14.500795"><ele>10.0</ele><time>2026-04-19T08:53:05.874Z</time></trkpt><trkpt lat="42.2726117" lon="14.5008733"><ele>10.0</ele><time>2026-04-19T08:53:07.875Z</time></trkpt><trkpt lat="42.27255" lon="14.5009517"><ele>10.0</ele><time>2026-04-19T08:53:09.874Z</time></trkpt><trkpt lat="42.272485" lon="14.5010333"><ele>10.0</ele><time>2026-04-19T08:53:11.874Z</time></trkpt><trkpt lat="42.2724117" lon="14.50112"><ele>10.0</ele><time>2026-04-19T08:53:13.874Z</time></trkpt><trkpt lat="42.2723367" lon="14.5012083"><ele>10.0</ele><time>2026-04-19T08:53:15.875Z</time></trkpt><trkpt lat="42.27225" lon="14.501315"><ele>10.0</ele><time>2026-04-19T08:53:17.874Z</time></trkpt><trkpt lat="42.2721533" lon="14.501405"><ele>10.0</ele><time>2026-04-19T08:53:19.874Z</time></trkpt><trkpt lat="42.2720633" lon="14.50149"><ele>10.5</ele><time>2026-04-19T08:53:21.875Z</time></trkpt><trkpt lat="42.2719667" lon="14.5015817"><ele>11.0</ele><time>2026-04-19T08:53:23.874Z</time></trkpt><trkpt lat="42.2718667" lon="14.5016683"><ele>11.5</ele><time>2026-04-19T08:53:25.875Z</time></trkpt><trkpt lat="42.2717583" lon="14.5017317"><ele>12.0</ele><time>2026-04-19T08:53:27.874Z</time></trkpt><trkpt lat="42.2716533" lon="14.5018067"><ele>12.0</ele><time>2026-04-19T08:53:29.875Z</time></trkpt><trkpt lat="42.2715483" lon="14.50188"><ele>12.0</ele><time>2026-04-19T08:53:31.875Z</time></trkpt><trkpt lat="42.27144" lon="14.5019583"><ele>12.0</ele><time>2026-04-19T08:53:33.875Z</time></trkpt><trkpt lat="42.2713833" lon="14.5019967"><ele>12.0</ele><time>2026-04-19T08:53:34.874Z</time></trkpt><trkpt lat="42.2712683" lon="14.5020667"><ele>12.0</ele><time>2026-04-19T08:53:36.875Z</time></trkpt><trkpt lat="42.27115" lon="14.5021233"><ele>11.0</ele><time>2026-04-19T08:53:38.875Z</time></trkpt><trkpt lat="42.2710367" lon="14.5021783"><ele>10.0</ele><time>2026-04-19T08:53:40.875Z</time></trkpt><trkpt lat="42.2709233" lon="14.50223"><ele>9.0</ele><time>2026-04-19T08:53:42.875Z</time></trkpt><trkpt lat="42.27086" lon="14.5022417"><ele>8.0</ele><time>2026-04-19T08:53:43.875Z</time></trkpt><trkpt lat="42.2707433" lon="14.5022767"><ele>7.0</ele><time>2026-04-19T08:53:45.874Z</time></trkpt><trkpt lat="42.2706267" lon="14.5023133"><ele>7.0</ele><time>2026-04-19T08:53:47.875Z</time></trkpt><trkpt lat="42.270565" lon="14.5023367"><ele>7.0</ele><time>2026-04-19T08:53:48.875Z</time></trkpt><trkpt lat="42.2705033" lon="14.5023583"><ele>7.0</ele><time>2026-04-19T08:53:49.875Z</time></trkpt><trkpt lat="42.2704417" lon="14.5023767"><ele>7.0</ele><time>2026-04-19T08:53:50.875Z</time></trkpt><trkpt lat="42.27038" lon="14.502395"><ele>7.0</ele><time>2026-04-19T08:53:51.874Z</time></trkpt><trkpt lat="42.2702567" lon="14.5024183"><ele>7.0</ele><time>2026-04-19T08:53:53.875Z</time></trkpt><trkpt lat="42.2701933" lon="14.50243"><ele>7.0</ele><time>2026-04-19T08:53:54.874Z</time></trkpt><trkpt lat="42.2700783" lon="14.5024517"><ele>7.0</ele><time>2026-04-19T08:53:56.875Z</time></trkpt><trkpt lat="42.2699667" lon="14.50248"><ele>7.0</ele><time>2026-04-19T08:53:58.875Z</time></trkpt><trkpt lat="42.269855" lon="14.5024967"><ele>7.0</ele><time>2026-04-19T08:54:00.875Z</time></trkpt><trkpt lat="42.2697383" lon="14.5025033"><ele>7.0</ele><time>2026-04-19T08:54:02.875Z</time></trkpt><trkpt lat="42.2696233" lon="14.5025083"><ele>7.3999999999999995</ele><time>2026-04-19T08:54:04.875Z</time></trkpt><trkpt lat="42.2695183" lon="14.50251"><ele>7.799999999999999</ele><time>2026-04-19T08:54:06.875Z</time></trkpt><trkpt lat="42.2694067" lon="14.502505"><ele>8.2</ele><time>2026-04-19T08:54:08.875Z</time></trkpt><trkpt lat="42.269305" lon="14.5025"><ele>8.6</ele><time>2026-04-19T08:54:10.874Z</time></trkpt><trkpt lat="42.26919" lon="14.5024883"><ele>9.0</ele><time>2026-04-19T08:54:12.874Z</time></trkpt><trkpt lat="42.26909" lon="14.502475"><ele>9.0</ele><time>2026-04-19T08:54:14.874Z</time></trkpt><trkpt lat="42.2689717" lon="14.50245"><ele>9.0</ele><time>2026-04-19T08:54:16.875Z</time></trkpt><trkpt lat="42.26886" lon="14.5024183"><ele>9.0</ele><time>2026-04-19T08:54:18.874Z</time></trkpt><trkpt lat="42.2687467" lon="14.502385"><ele>9.0</ele><time>2026-04-19T08:54:20.875Z</time></trkpt><trkpt lat="42.2686317" lon="14.5023517"><ele>8.25</ele><time>2026-04-19T08:54:22.874Z</time></trkpt><trkpt lat="42.2685267" lon="14.5023117"><ele>7.5</ele><time>2026-04-19T08:54:24.874Z</time></trkpt><trkpt lat="42.268415" lon="14.50227"><ele>6.75</ele><time>2026-04-19T08:54:26.874Z</time></trkpt><trkpt lat="42.2683067" lon="14.5022217"><ele>6.0</ele><time>2026-04-19T08:54:28.875Z</time></trkpt><trkpt lat="42.2681883" lon="14.5021833"><ele>5.25</ele><time>2026-04-19T08:54:30.874Z</time></trkpt><trkpt lat="42.2680733" lon="14.502135"><ele>4.5</ele><time>2026-04-19T08:54:32.874Z</time></trkpt><trkpt lat="42.2679667" lon="14.5020767"><ele>3.75</ele><time>2026-04-19T08:54:34.875Z</time></trkpt><trkpt lat="42.2678567" lon="14.502015"><ele>3.0</ele><time>2026-04-19T08:54:36.874Z</time></trkpt><trkpt lat="42.26775" lon="14.5019467"><ele>3.4</ele><time>2026-04-19T08:54:38.874Z</time></trkpt><trkpt lat="42.26764" lon="14.5018933"><ele>3.8</ele><time>2026-04-19T08:54:40.875Z</time></trkpt><trkpt lat="42.26754" lon="14.5018233"><ele>4.2</ele><time>2026-04-19T08:54:42.875Z</time></trkpt><trkpt lat="42.2674417" lon="14.501755"><ele>4.6</ele><time>2026-04-19T08:54:44.875Z</time></trkpt><trkpt lat="42.267345" lon="14.5016867"><ele>5.0</ele><time>2026-04-19T08:54:46.875Z</time></trkpt><trkpt lat="42.2672517" lon="14.5016233"><ele>5.0</ele><time>2026-04-19T08:54:48.875Z</time></trkpt><trkpt lat="42.2671617" lon="14.50157"><ele>5.0</ele><time>2026-04-19T08:54:50.875Z</time></trkpt><trkpt lat="42.2670817" lon="14.5015117"><ele>5.0</ele><time>2026-04-19T08:54:52.874Z</time></trkpt><trkpt lat="42.2670017" lon="14.501465"><ele>5.0</ele><time>2026-04-19T08:54:54.875Z</time></trkpt><trkpt lat="42.2669267" lon="14.5014167"><ele>5.0</ele><time>2026-04-19T08:54:56.875Z</time></trkpt><trkpt lat="42.2668367" lon="14.5013733"><ele>5.0</ele><time>2026-04-19T08:54:58.875Z</time></trkpt><trkpt lat="42.266745" lon="14.501325"><ele>5.0</ele><time>2026-04-19T08:55:00.875Z</time></trkpt><trkpt lat="42.2666517" lon="14.5012767"><ele>5.0</ele><time>2026-04-19T08:55:02.874Z</time></trkpt><trkpt lat="42.2665467" lon="14.50123"><ele>5.0</ele><time>2026-04-19T08:55:04.875Z</time></trkpt><trkpt lat="42.2664383" lon="14.50118"><ele>5.0</ele><time>2026-04-19T08:55:06.875Z</time></trkpt><trkpt lat="42.2663367" lon="14.501135"><ele>7.0</ele><time>2026-04-19T08:55:08.875Z</time></trkpt><trkpt lat="42.2662317" lon="14.501095"><ele>9.0</ele><time>2026-04-19T08:55:10.874Z</time></trkpt><trkpt lat="42.2661317" lon="14.501055"><ele>11.0</ele><time>2026-04-19T08:55:12.874Z</time></trkpt><trkpt lat="42.26603" lon="14.5010133"><ele>13.0</ele><time>2026-04-19T08:55:14.875Z</time></trkpt><trkpt lat="42.265925" lon="14.5009683"><ele>15.0</ele><time>2026-04-19T08:55:16.875Z</time></trkpt><trkpt lat="42.2658217" lon="14.5009433"><ele>15.0</ele><time>2026-04-19T08:55:18.874Z</time></trkpt><trkpt lat="42.2657183" lon="14.5009183"><ele>15.0</ele><time>2026-04-19T08:55:20.874Z</time></trkpt><trkpt lat="42.2656283" lon="14.5009"><ele>15.0</ele><time>2026-04-19T08:55:22.874Z</time></trkpt><trkpt lat="42.265545" lon="14.5008733"><ele>15.0</ele><time>2026-04-19T08:55:24.875Z</time></trkpt><trkpt lat="42.2654567" lon="14.500865"><ele>15.0</ele><time>2026-04-19T08:55:26.875Z</time></trkpt><trkpt lat="42.2653817" lon="14.5008533"><ele>15.0</ele><time>2026-04-19T08:55:28.875Z</time></trkpt><trkpt lat="42.2652833" lon="14.5008417"><ele>14.0</ele><time>2026-04-19T08:55:30.875Z</time></trkpt><trkpt lat="42.2651933" lon="14.5008317"><ele>13.0</ele><time>2026-04-19T08:55:32.875Z</time></trkpt><trkpt lat="42.2651283" lon="14.50083"><ele>12.0</ele><time>2026-04-19T08:55:34.875Z</time></trkpt><trkpt lat="42.2650433" lon="14.5008383"><ele>11.0</ele><time>2026-04-19T08:55:36.875Z</time></trkpt><trkpt lat="42.2649517" lon="14.5008417"><ele>10.0</ele><time>2026-04-19T08:55:38.874Z</time></trkpt><trkpt lat="42.2648533" lon="14.5008217"><ele>9.0</ele><time>2026-04-19T08:55:40.874Z</time></trkpt><trkpt lat="42.2647267" lon="14.5008117"><ele>8.4</ele><time>2026-04-19T08:55:42.874Z</time></trkpt><trkpt lat="42.2646017" lon="14.500805"><ele>7.800000000000001</ele><time>2026-04-19T08:55:44.874Z</time></trkpt><trkpt lat="42.2644933" lon="14.5008083"><ele>7.199999999999999</ele><time>2026-04-19T08:55:46.875Z</time></trkpt><trkpt lat="42.264375" lon="14.5007967"><ele>6.6</ele><time>2026-04-19T08:55:48.874Z</time></trkpt><trkpt lat="42.2643083" lon="14.500785"><ele>6.0</ele><time>2026-04-19T08:55:49.875Z</time></trkpt><trkpt lat="42.26419" lon="14.50078"><ele>6.0</ele><time>2026-04-19T08:55:51.875Z</time></trkpt><trkpt lat="42.264085" lon="14.5007717"><ele>6.0</ele><time>2026-04-19T08:55:53.874Z</time></trkpt><trkpt lat="42.263985" lon="14.5007667"><ele>6.0</ele><time>2026-04-19T08:55:55.875Z</time></trkpt><trkpt lat="42.2638783" lon="14.5007617"><ele>6.0</ele><time>2026-04-19T08:55:57.875Z</time></trkpt><trkpt lat="42.2637617" lon="14.5007533"><ele>6.0</ele><time>2026-04-19T08:55:59.874Z</time></trkpt><trkpt lat="42.2636517" lon="14.5007467"><ele>6.4</ele><time>2026-04-19T08:56:01.875Z</time></trkpt><trkpt lat="42.2635433" lon="14.500745"><ele>6.8</ele><time>2026-04-19T08:56:03.875Z</time></trkpt><trkpt lat="42.2634333" lon="14.5007383"><ele>7.200000000000001</ele><time>2026-04-19T08:56:05.874Z</time></trkpt><trkpt lat="42.2633333" lon="14.5007283"><ele>7.6000000000000005</ele><time>2026-04-19T08:56:07.875Z</time></trkpt><trkpt lat="42.2632233" lon="14.5007233"><ele>8.0</ele><time>2026-04-19T08:56:09.874Z</time></trkpt><trkpt lat="42.2631517" lon="14.5007117"><ele>7.6000000000000005</ele><time>2026-04-19T08:56:10.875Z</time></trkpt><trkpt lat="42.26304" lon="14.5007067"><ele>7.200000000000001</ele><time>2026-04-19T08:56:12.875Z</time></trkpt><trkpt lat="42.26294" lon="14.5007"><ele>6.8</ele><time>2026-04-19T08:56:14.875Z</time></trkpt><trkpt lat="42.2628517" lon="14.5006783"><ele>6.4</ele><time>2026-04-19T08:56:16.875Z</time></trkpt><trkpt lat="42.2627467" lon="14.500675"><ele>6.0</ele><time>2026-04-19T08:56:18.875Z</time></trkpt><trkpt lat="42.2626383" lon="14.500675"><ele>6.0</ele><time>2026-04-19T08:56:20.874Z</time></trkpt><trkpt lat="42.2625733" lon="14.5006733"><ele>6.0</ele><time>2026-04-19T08:56:21.874Z</time></trkpt><trkpt lat="42.2625033" lon="14.5006783"><ele>6.0</ele><time>2026-04-19T08:56:22.875Z</time></trkpt><trkpt lat="42.2624383" lon="14.500685"><ele>6.0</ele><time>2026-04-19T08:56:23.875Z</time></trkpt><trkpt lat="42.2623183" lon="14.5006833"><ele>6.0</ele><time>2026-04-19T08:56:25.875Z</time></trkpt><trkpt lat="42.2622183" lon="14.5006833"><ele>6.0</ele><time>2026-04-19T08:56:27.875Z</time></trkpt><trkpt lat="42.2621083" lon="14.50067"><ele>6.0</ele><time>2026-04-19T08:56:29.875Z</time></trkpt><trkpt lat="42.2619933" lon="14.5006717"><ele>6.0</ele><time>2026-04-19T08:56:31.875Z</time></trkpt><trkpt lat="42.261885" lon="14.5006767"><ele>6.0</ele><time>2026-04-19T08:56:33.875Z</time></trkpt><trkpt lat="42.2617783" lon="14.5006783"><ele>6.0</ele><time>2026-04-19T08:56:35.875Z</time></trkpt><trkpt lat="42.26167" lon="14.50069"><ele>6.0</ele><time>2026-04-19T08:56:37.874Z</time></trkpt><trkpt lat="42.261565" lon="14.5007017"><ele>6.0</ele><time>2026-04-19T08:56:39.874Z</time></trkpt><trkpt lat="42.2614583" lon="14.50071"><ele>6.0</ele><time>2026-04-19T08:56:41.875Z</time></trkpt><trkpt lat="42.2613517" lon="14.5007233"><ele>6.0</ele><time>2026-04-19T08:56:43.875Z</time></trkpt><trkpt lat="42.2612533" lon="14.500735"><ele>6.0</ele><time>2026-04-19T08:56:45.875Z</time></trkpt><trkpt lat="42.2611517" lon="14.5007483"><ele>6.0</ele><time>2026-04-19T08:56:47.875Z</time></trkpt><trkpt lat="42.26104" lon="14.5007667"><ele>6.0</ele><time>2026-04-19T08:56:49.875Z</time></trkpt><trkpt lat="42.2609317" lon="14.5007883"><ele>6.0</ele><time>2026-04-19T08:56:51.874Z</time></trkpt><trkpt lat="42.2608217" lon="14.5008183"><ele>6.0</ele><time>2026-04-19T08:56:53.875Z</time></trkpt><trkpt lat="42.260715" lon="14.500845"><ele>6.0</ele><time>2026-04-19T08:56:55.875Z</time></trkpt><trkpt lat="42.2606067" lon="14.50089"><ele>6.0</ele><time>2026-04-19T08:56:57.875Z</time></trkpt><trkpt lat="42.2604983" lon="14.5009367"><ele>7.4</ele><time>2026-04-19T08:56:59.874Z</time></trkpt><trkpt lat="42.2603967" lon="14.50098"><ele>8.8</ele><time>2026-04-19T08:57:01.875Z</time></trkpt><trkpt lat="42.260285" lon="14.5010283"><ele>10.200000000000001</ele><time>2026-04-19T08:57:03.875Z</time></trkpt><trkpt lat="42.2601833" lon="14.50108"><ele>11.6</ele><time>2026-04-19T08:57:05.875Z</time></trkpt><trkpt lat="42.2600833" lon="14.5011317"><ele>13.0</ele><time>2026-04-19T08:57:07.875Z</time></trkpt><trkpt lat="42.25999" lon="14.5011833"><ele>13.0</ele><time>2026-04-19T08:57:09.874Z</time></trkpt><trkpt lat="42.2598917" lon="14.5012433"><ele>13.0</ele><time>2026-04-19T08:57:11.875Z</time></trkpt><trkpt lat="42.2597983" lon="14.50131"><ele>13.0</ele><time>2026-04-19T08:57:13.875Z</time></trkpt><trkpt lat="42.2597033" lon="14.5013717"><ele>13.0</ele><time>2026-04-19T08:57:15.875Z</time></trkpt><trkpt lat="42.2596067" lon="14.5014383"><ele>13.0</ele><time>2026-04-19T08:57:17.875Z</time></trkpt><trkpt lat="42.2595117" lon="14.5015133"><ele>11.6</ele><time>2026-04-19T08:57:19.875Z</time></trkpt><trkpt lat="42.25942" lon="14.5015883"><ele>10.200000000000001</ele><time>2026-04-19T08:57:21.875Z</time></trkpt><trkpt lat="42.2593233" lon="14.5016617"><ele>8.8</ele><time>2026-04-19T08:57:23.875Z</time></trkpt><trkpt lat="42.2592283" lon="14.5017367"><ele>7.4</ele><time>2026-04-19T08:57:25.875Z</time></trkpt><trkpt lat="42.2591317" lon="14.5018067"><ele>6.0</ele><time>2026-04-19T08:57:27.875Z</time></trkpt><trkpt lat="42.2590383" lon="14.5018833"><ele>6.199999999999999</ele><time>2026-04-19T08:57:29.875Z</time></trkpt><trkpt lat="42.258945" lon="14.501965"><ele>6.3999999999999995</ele><time>2026-04-19T08:57:31.874Z</time></trkpt><trkpt lat="42.25885" lon="14.5020417"><ele>6.6</ele><time>2026-04-19T08:57:33.875Z</time></trkpt><trkpt lat="42.2587583" lon="14.5021133"><ele>6.8</ele><time>2026-04-19T08:57:35.874Z</time></trkpt><trkpt lat="42.2586683" lon="14.5021883"><ele>7.0</ele><time>2026-04-19T08:57:37.874Z</time></trkpt><trkpt lat="42.2585733" lon="14.5022717"><ele>7.0</ele><time>2026-04-19T08:57:39.874Z</time></trkpt><trkpt lat="42.2584833" lon="14.502355"><ele>6.999999999999999</ele><time>2026-04-19T08:57:41.875Z</time></trkpt><trkpt lat="42.2583983" lon="14.50244"><ele>6.999999999999999</ele><time>2026-04-19T08:57:43.875Z</time></trkpt><trkpt lat="42.2583083" lon="14.5025233"><ele>7.0</ele><time>2026-04-19T08:57:45.874Z</time></trkpt><trkpt lat="42.2582183" lon="14.502595"><ele>7.0</ele><time>2026-04-19T08:57:47.875Z</time></trkpt><trkpt lat="42.2581217" lon="14.5026683"><ele>6.8</ele><time>2026-04-19T08:57:49.874Z</time></trkpt><trkpt lat="42.258035" lon="14.5027517"><ele>6.6</ele><time>2026-04-19T08:57:51.875Z</time></trkpt><trkpt lat="42.257945" lon="14.50283"><ele>6.3999999999999995</ele><time>2026-04-19T08:57:53.875Z</time></trkpt><trkpt lat="42.257855" lon="14.5029033"><ele>6.199999999999999</ele><time>2026-04-19T08:57:55.875Z</time></trkpt><trkpt lat="42.257775" lon="14.5029883"><ele>6.0</ele><time>2026-04-19T08:57:57.875Z</time></trkpt><trkpt lat="42.25768" lon="14.5030733"><ele>6.0</ele><time>2026-04-19T08:57:59.875Z</time></trkpt><trkpt lat="42.25759" lon="14.5031533"><ele>6.0</ele><time>2026-04-19T08:58:01.875Z</time></trkpt><trkpt lat="42.2574933" lon="14.5032317"><ele>6.0</ele><time>2026-04-19T08:58:03.875Z</time></trkpt><trkpt lat="42.2574017" lon="14.5033033"><ele>6.0</ele><time>2026-04-19T08:58:05.875Z</time></trkpt><trkpt lat="42.2573117" lon="14.50338"><ele>6.0</ele><time>2026-04-19T08:58:07.875Z</time></trkpt><trkpt lat="42.2572217" lon="14.50346"><ele>5.8</ele><time>2026-04-19T08:58:09.875Z</time></trkpt><trkpt lat="42.2571283" lon="14.5035367"><ele>5.6</ele><time>2026-04-19T08:58:11.875Z</time></trkpt><trkpt lat="42.2570383" lon="14.50362"><ele>5.4</ele><time>2026-04-19T08:58:13.875Z</time></trkpt><trkpt lat="42.25694" lon="14.503695"><ele>5.2</ele><time>2026-04-19T08:58:15.874Z</time></trkpt><trkpt lat="42.2568433" lon="14.503765"><ele>5.0</ele><time>2026-04-19T08:58:17.874Z</time></trkpt><trkpt lat="42.2567417" lon="14.5038417"><ele>5.0</ele><time>2026-04-19T08:58:19.874Z</time></trkpt><trkpt lat="42.2566433" lon="14.5039217"><ele>5.0</ele><time>2026-04-19T08:58:21.875Z</time></trkpt><trkpt lat="42.2565533" lon="14.504005"><ele>5.0</ele><time>2026-04-19T08:58:23.875Z</time></trkpt><trkpt lat="42.2564533" lon="14.5040817"><ele>5.0</ele><time>2026-04-19T08:58:25.875Z</time></trkpt><trkpt lat="42.256355" lon="14.504155"><ele>7.4</ele><time>2026-04-19T08:58:27.875Z</time></trkpt><trkpt lat="42.2562567" lon="14.5042383"><ele>9.8</ele><time>2026-04-19T08:58:29.875Z</time></trkpt><trkpt lat="42.2561667" lon="14.5043217"><ele>12.2</ele><time>2026-04-19T08:58:31.874Z</time></trkpt><trkpt lat="42.256075" lon="14.5044017"><ele>14.6</ele><time>2026-04-19T08:58:33.875Z</time></trkpt><trkpt lat="42.2559767" lon="14.50448"><ele>17.0</ele><time>2026-04-19T08:58:35.874Z</time></trkpt><trkpt lat="42.2558817" lon="14.5045567"><ele>16.2</ele><time>2026-04-19T08:58:37.875Z</time></trkpt><trkpt lat="42.25579" lon="14.5046383"><ele>15.399999999999999</ele><time>2026-04-19T08:58:39.875Z</time></trkpt><trkpt lat="42.2556917" lon="14.5047183"><ele>14.600000000000001</ele><time>2026-04-19T08:58:41.875Z</time></trkpt><trkpt lat="42.2556017" lon="14.5047983"><ele>13.8</ele><time>2026-04-19T08:58:43.874Z</time></trkpt><trkpt lat="42.2555117" lon="14.5048717"><ele>13.0</ele><time>2026-04-19T08:58:45.875Z</time></trkpt><trkpt lat="42.25542" lon="14.5049533"><ele>13.0</ele><time>2026-04-19T08:58:47.875Z</time></trkpt><trkpt lat="42.2553267" lon="14.50504"><ele>13.0</ele><time>2026-04-19T08:58:49.875Z</time></trkpt><trkpt lat="42.2552317" lon="14.5051283"><ele>13.0</ele><time>2026-04-19T08:58:51.874Z</time></trkpt><trkpt lat="42.2551317" lon="14.505215"><ele>13.0</ele><time>2026-04-19T08:58:53.875Z</time></trkpt><trkpt lat="42.2550417" lon="14.5052917"><ele>13.0</ele><time>2026-04-19T08:58:55.875Z</time></trkpt><trkpt lat="42.2549533" lon="14.5053733"><ele>13.0</ele><time>2026-04-19T08:58:57.874Z</time></trkpt><trkpt lat="42.2548567" lon="14.505465"><ele>13.0</ele><time>2026-04-19T08:58:59.875Z</time></trkpt><trkpt lat="42.2547617" lon="14.5055533"><ele>13.0</ele><time>2026-04-19T08:59:01.875Z</time></trkpt><trkpt lat="42.2546667" lon="14.50563"><ele>12.200000000000001</ele><time>2026-04-19T08:59:03.875Z</time></trkpt><trkpt lat="42.254575" lon="14.505715"><ele>11.4</ele><time>2026-04-19T08:59:05.875Z</time></trkpt><trkpt lat="42.2544867" lon="14.5057933"><ele>10.600000000000001</ele><time>2026-04-19T08:59:07.875Z</time></trkpt><trkpt lat="42.2543933" lon="14.5058733"><ele>9.8</ele><time>2026-04-19T08:59:09.875Z</time></trkpt><trkpt lat="42.2543" lon="14.5059533"><ele>9.0</ele><time>2026-04-19T08:59:11.875Z</time></trkpt><trkpt lat="42.2542" lon="14.5060233"><ele>9.0</ele><time>2026-04-19T08:59:13.875Z</time></trkpt><trkpt lat="42.254105" lon="14.506095"><ele>9.0</ele><time>2026-04-19T08:59:15.875Z</time></trkpt><trkpt lat="42.2540083" lon="14.5061683"><ele>9.0</ele><time>2026-04-19T08:59:17.875Z</time></trkpt><trkpt lat="42.2539167" lon="14.506245"><ele>9.0</ele><time>2026-04-19T08:59:19.874Z</time></trkpt><trkpt lat="42.25382" lon="14.5063267"><ele>9.0</ele><time>2026-04-19T08:59:21.874Z</time></trkpt><trkpt lat="42.2537217" lon="14.5064117"><ele>8.6</ele><time>2026-04-19T08:59:23.874Z</time></trkpt><trkpt lat="42.2536283" lon="14.506495"><ele>8.2</ele><time>2026-04-19T08:59:25.874Z</time></trkpt><trkpt lat="42.25354" lon="14.5065717"><ele>7.799999999999999</ele><time>2026-04-19T08:59:27.874Z</time></trkpt><trkpt lat="42.2534417" lon="14.5066467"><ele>7.3999999999999995</ele><time>2026-04-19T08:59:29.875Z</time></trkpt><trkpt lat="42.2533483" lon="14.506715"><ele>7.0</ele><time>2026-04-19T08:59:31.875Z</time></trkpt><trkpt lat="42.2532517" lon="14.50679"><ele>7.0</ele><time>2026-04-19T08:59:33.875Z</time></trkpt><trkpt lat="42.25316" lon="14.50687"><ele>6.999999999999999</ele><time>2026-04-19T08:59:35.875Z</time></trkpt><trkpt lat="42.2530617" lon="14.5069483"><ele>6.999999999999999</ele><time>2026-04-19T08:59:37.875Z</time></trkpt><trkpt lat="42.2529633" lon="14.5070183"><ele>7.0</ele><time>2026-04-19T08:59:39.875Z</time></trkpt><trkpt lat="42.2528683" lon="14.5070967"><ele>7.0</ele><time>2026-04-19T08:59:41.875Z</time></trkpt><trkpt lat="42.2527767" lon="14.5071767"><ele>6.75</ele><time>2026-04-19T08:59:43.875Z</time></trkpt><trkpt lat="42.25268" lon="14.5072517"><ele>6.5</ele><time>2026-04-19T08:59:45.874Z</time></trkpt><trkpt lat="42.252585" lon="14.50733"><ele>6.25</ele><time>2026-04-19T08:59:47.875Z</time></trkpt><trkpt lat="42.2524917" lon="14.50742"><ele>6.0</ele><time>2026-04-19T08:59:49.875Z</time></trkpt><trkpt lat="42.252395" lon="14.5074983"><ele>6.0</ele><time>2026-04-19T08:59:51.875Z</time></trkpt><trkpt lat="42.252305" lon="14.507575"><ele>6.0</ele><time>2026-04-19T08:59:53.875Z</time></trkpt><trkpt lat="42.2522117" lon="14.5076567"><ele>6.0</ele><time>2026-04-19T08:59:55.875Z</time></trkpt><trkpt lat="42.2521267" lon="14.5077433"><ele>6.0</ele><time>2026-04-19T08:59:57.875Z</time></trkpt><trkpt lat="42.2520417" lon="14.5078317"><ele>6.0</ele><time>2026-04-19T08:59:59.875Z</time></trkpt><trkpt lat="42.2519617" lon="14.507905"><ele>6.166666666666667</ele><time>2026-04-19T09:00:01.875Z</time></trkpt><trkpt lat="42.2518917" lon="14.507985"><ele>6.333333333333334</ele><time>2026-04-19T09:00:03.875Z</time></trkpt><trkpt lat="42.2518267" lon="14.5080567"><ele>6.5</ele><time>2026-04-19T09:00:05.874Z</time></trkpt><trkpt lat="42.251755" lon="14.508135"><ele>6.666666666666667</ele><time>2026-04-19T09:00:07.875Z</time></trkpt><trkpt lat="42.2516817" lon="14.5082083"><ele>6.833333333333334</ele><time>2026-04-19T09:00:09.874Z</time></trkpt><trkpt lat="42.2516183" lon="14.508275"><ele>7.0</ele><time>2026-04-19T09:00:12.875Z</time></trkpt><trkpt lat="42.2515483" lon="14.5083067"><ele>7.000000000000001</ele><time>2026-04-19T09:00:17.874Z</time></trkpt><trkpt lat="42.2514917" lon="14.50838"><ele>7.0</ele><time>2026-04-19T09:00:21.875Z</time></trkpt><trkpt lat="42.2514383" lon="14.5084433"><ele>7.0</ele><time>2026-04-19T09:00:23.875Z</time></trkpt><trkpt lat="42.2513733" lon="14.5085133"><ele>7.0</ele><time>2026-04-19T09:00:25.874Z</time></trkpt><trkpt lat="42.2513083" lon="14.5086017"><ele>7.000000000000001</ele><time>2026-04-19T09:00:27.875Z</time></trkpt><trkpt lat="42.25123" lon="14.5086833"><ele>7.0</ele><time>2026-04-19T09:00:29.875Z</time></trkpt><trkpt lat="42.25115" lon="14.508765"><ele>8.0</ele><time>2026-04-19T09:00:31.875Z</time></trkpt><trkpt lat="42.25107" lon="14.5088417"><ele>9.0</ele><time>2026-04-19T09:00:33.875Z</time></trkpt><trkpt lat="42.250985" lon="14.5089317"><ele>10.0</ele><time>2026-04-19T09:00:35.875Z</time></trkpt><trkpt lat="42.2508967" lon="14.509025"><ele>11.0</ele><time>2026-04-19T09:00:37.875Z</time></trkpt><trkpt lat="42.2508117" lon="14.509115"><ele>12.0</ele><time>2026-04-19T09:00:39.875Z</time></trkpt><trkpt lat="42.2507317" lon="14.50922"><ele>12.0</ele><time>2026-04-19T09:00:41.875Z</time></trkpt><trkpt lat="42.2506517" lon="14.5093183"><ele>12.0</ele><time>2026-04-19T09:00:43.875Z</time></trkpt><trkpt lat="42.250565" lon="14.50942"><ele>12.0</ele><time>2026-04-19T09:00:45.874Z</time></trkpt><trkpt lat="42.2504833" lon="14.50951"><ele>12.0</ele><time>2026-04-19T09:00:47.875Z</time></trkpt><trkpt lat="42.250405" lon="14.5096033"><ele>12.0</ele><time>2026-04-19T09:00:49.875Z</time></trkpt><trkpt lat="42.2503317" lon="14.50971"><ele>11.8</ele><time>2026-04-19T09:00:51.875Z</time></trkpt><trkpt lat="42.2502533" lon="14.5098117"><ele>11.6</ele><time>2026-04-19T09:00:53.874Z</time></trkpt><trkpt lat="42.2501717" lon="14.509905"><ele>11.4</ele><time>2026-04-19T09:00:55.874Z</time></trkpt><trkpt lat="42.2500883" lon="14.5099933"><ele>11.200000000000001</ele><time>2026-04-19T09:00:57.875Z</time></trkpt><trkpt lat="42.2500033" lon="14.510095"><ele>11.0</ele><time>2026-04-19T09:00:59.874Z</time></trkpt><trkpt lat="42.249925" lon="14.510205"><ele>11.0</ele><time>2026-04-19T09:01:01.874Z</time></trkpt><trkpt lat="42.2498467" lon="14.5103133"><ele>11.0</ele><time>2026-04-19T09:01:03.874Z</time></trkpt><trkpt lat="42.2497733" lon="14.510425"><ele>11.0</ele><time>2026-04-19T09:01:05.875Z</time></trkpt><trkpt lat="42.2497033" lon="14.5105517"><ele>11.0</ele><time>2026-04-19T09:01:07.875Z</time></trkpt><trkpt lat="42.2496267" lon="14.5106733"><ele>11.8</ele><time>2026-04-19T09:01:09.874Z</time></trkpt><trkpt lat="42.24956" lon="14.5107883"><ele>12.600000000000001</ele><time>2026-04-19T09:01:11.874Z</time></trkpt><trkpt lat="42.2494933" lon="14.5109067"><ele>13.4</ele><time>2026-04-19T09:01:13.874Z</time></trkpt><trkpt lat="42.249415" lon="14.5110183"><ele>14.2</ele><time>2026-04-19T09:01:15.875Z</time></trkpt><trkpt lat="42.2493433" lon="14.511135"><ele>15.0</ele><time>2026-04-19T09:01:17.875Z</time></trkpt><trkpt lat="42.2492783" lon="14.5112533"><ele>12.75</ele><time>2026-04-19T09:01:19.875Z</time></trkpt><trkpt lat="42.2492017" lon="14.511365"><ele>10.5</ele><time>2026-04-19T09:01:21.874Z</time></trkpt><trkpt lat="42.2491317" lon="14.5114867"><ele>8.25</ele><time>2026-04-19T09:01:23.875Z</time></trkpt><trkpt lat="42.249055" lon="14.5116067"><ele>6.0</ele><time>2026-04-19T09:01:25.874Z</time></trkpt><trkpt lat="42.2489817" lon="14.5117217"><ele>7.0</ele><time>2026-04-19T09:01:27.875Z</time></trkpt><trkpt lat="42.24891" lon="14.511845"><ele>8.0</ele><time>2026-04-19T09:01:29.875Z</time></trkpt><trkpt lat="42.2488367" lon="14.51197"><ele>9.0</ele><time>2026-04-19T09:01:31.875Z</time></trkpt><trkpt lat="42.24876" lon="14.51208"><ele>10.0</ele><time>2026-04-19T09:01:33.875Z</time></trkpt><trkpt lat="42.2486933" lon="14.5121967"><ele>10.0</ele><time>2026-04-19T09:01:35.874Z</time></trkpt><trkpt lat="42.2486267" lon="14.512315"><ele>10.0</ele><time>2026-04-19T09:01:37.874Z</time></trkpt><trkpt lat="42.2485617" lon="14.5124417"><ele>10.0</ele><time>2026-04-19T09:01:39.875Z</time></trkpt><trkpt lat="42.2484883" lon="14.51256"><ele>10.0</ele><time>2026-04-19T09:01:41.875Z</time></trkpt><trkpt lat="42.248415" lon="14.5126683"><ele>10.0</ele><time>2026-04-19T09:01:43.875Z</time></trkpt><trkpt lat="42.24834" lon="14.5127833"><ele>9.0</ele><time>2026-04-19T09:01:45.874Z</time></trkpt><trkpt lat="42.24827" lon="14.5129133"><ele>8.0</ele><time>2026-04-19T09:01:47.874Z</time></trkpt><trkpt lat="42.2481917" lon="14.5130317"><ele>7.0</ele><time>2026-04-19T09:01:49.874Z</time></trkpt><trkpt lat="42.24812" lon="14.5131417"><ele>6.0</ele><time>2026-04-19T09:01:51.875Z</time></trkpt><trkpt lat="42.248045" lon="14.5132617"><ele>6.5</ele><time>2026-04-19T09:01:53.875Z</time></trkpt><trkpt lat="42.2479683" lon="14.513385"><ele>7.0</ele><time>2026-04-19T09:01:55.874Z</time></trkpt><trkpt lat="42.2478967" lon="14.513505"><ele>7.5</ele><time>2026-04-19T09:01:57.874Z</time></trkpt><trkpt lat="42.2478233" lon="14.513625"><ele>8.0</ele><time>2026-04-19T09:01:59.875Z</time></trkpt><trkpt lat="42.2477483" lon="14.5137483"><ele>8.0</ele><time>2026-04-19T09:02:01.874Z</time></trkpt><trkpt lat="42.2476767" lon="14.5138833"><ele>8.0</ele><time>2026-04-19T09:02:03.875Z</time></trkpt><trkpt lat="42.2476033" lon="14.514"><ele>8.0</ele><time>2026-04-19T09:02:05.875Z</time></trkpt><trkpt lat="42.2475383" lon="14.51411"><ele>8.0</ele><time>2026-04-19T09:02:07.875Z</time></trkpt><trkpt lat="42.2474667" lon="14.5142233"><ele>8.0</ele><time>2026-04-19T09:02:09.875Z</time></trkpt><trkpt lat="42.2473867" lon="14.51433"><ele>8.0</ele><time>2026-04-19T09:02:11.874Z</time></trkpt><trkpt lat="42.2473167" lon="14.5144317"><ele>8.0</ele><time>2026-04-19T09:02:13.874Z</time></trkpt><trkpt lat="42.24725" lon="14.5145367"><ele>8.0</ele><time>2026-04-19T09:02:15.875Z</time></trkpt><trkpt lat="42.247195" lon="14.51462"><ele>8.0</ele><time>2026-04-19T09:02:17.874Z</time></trkpt><trkpt lat="42.2471417" lon="14.5147017"><ele>9.0</ele><time>2026-04-19T09:02:19.875Z</time></trkpt><trkpt lat="42.2470867" lon="14.51479"><ele>10.0</ele><time>2026-04-19T09:02:21.875Z</time></trkpt><trkpt lat="42.2470283" lon="14.5148833"><ele>11.0</ele><time>2026-04-19T09:02:23.874Z</time></trkpt><trkpt lat="42.2469733" lon="14.51498"><ele>12.0</ele><time>2026-04-19T09:02:25.875Z</time></trkpt><trkpt lat="42.2469233" lon="14.51507"><ele>13.000000000000002</ele><time>2026-04-19T09:02:27.875Z</time></trkpt><trkpt lat="42.2468733" lon="14.5151617"><ele>14.0</ele><time>2026-04-19T09:02:29.875Z</time></trkpt><trkpt lat="42.2468117" lon="14.515265"><ele>14.0</ele><time>2026-04-19T09:02:31.874Z</time></trkpt><trkpt lat="42.2467367" lon="14.5153817"><ele>14.0</ele><time>2026-04-19T09:02:33.875Z</time></trkpt><trkpt lat="42.24667" lon="14.51551"><ele>14.0</ele><time>2026-04-19T09:02:35.875Z</time></trkpt><trkpt lat="42.2465983" lon="14.51563"><ele>14.0</ele><time>2026-04-19T09:02:37.875Z</time></trkpt><trkpt lat="42.2465217" lon="14.515755"><ele>13.75</ele><time>2026-04-19T09:02:39.875Z</time></trkpt><trkpt lat="42.2464483" lon="14.5158767"><ele>13.5</ele><time>2026-04-19T09:02:41.875Z</time></trkpt><trkpt lat="42.2463783" lon="14.5159967"><ele>13.25</ele><time>2026-04-19T09:02:43.874Z</time></trkpt><trkpt lat="42.2463083" lon="14.5161133"><ele>13.0</ele><time>2026-04-19T09:02:45.874Z</time></trkpt><trkpt lat="42.246235" lon="14.516225"><ele>11.5</ele><time>2026-04-19T09:02:47.875Z</time></trkpt><trkpt lat="42.2461617" lon="14.516335"><ele>10.0</ele><time>2026-04-19T09:02:49.875Z</time></trkpt><trkpt lat="42.2460867" lon="14.5164433"><ele>8.5</ele><time>2026-04-19T09:02:51.875Z</time></trkpt><trkpt lat="42.2460033" lon="14.5165583"><ele>7.0</ele><time>2026-04-19T09:02:53.875Z</time></trkpt><trkpt lat="42.2459317" lon="14.5166817"><ele>7.0</ele><time>2026-04-19T09:02:55.874Z</time></trkpt><trkpt lat="42.2458617" lon="14.5168017"><ele>6.999999999999999</ele><time>2026-04-19T09:02:57.874Z</time></trkpt><trkpt lat="42.24579" lon="14.5169167"><ele>6.999999999999999</ele><time>2026-04-19T09:02:59.874Z</time></trkpt><trkpt lat="42.2457217" lon="14.517035"><ele>7.0</ele><time>2026-04-19T09:03:01.874Z</time></trkpt><trkpt lat="42.245655" lon="14.51714"><ele>7.0</ele><time>2026-04-19T09:03:03.874Z</time></trkpt><trkpt lat="42.2455867" lon="14.5172633"><ele>7.3999999999999995</ele><time>2026-04-19T09:03:05.874Z</time></trkpt><trkpt lat="42.24552" lon="14.5173883"><ele>7.799999999999999</ele><time>2026-04-19T09:03:07.875Z</time></trkpt><trkpt lat="42.2454467" lon="14.5175"><ele>8.2</ele><time>2026-04-19T09:03:09.875Z</time></trkpt><trkpt lat="42.245385" lon="14.51762"><ele>8.6</ele><time>2026-04-19T09:03:11.875Z</time></trkpt><trkpt lat="42.2453183" lon="14.51774"><ele>9.0</ele><time>2026-04-19T09:03:13.874Z</time></trkpt><trkpt lat="42.24525" lon="14.5178617"><ele>8.5</ele><time>2026-04-19T09:03:15.874Z</time></trkpt><trkpt lat="42.2451833" lon="14.5179833"><ele>8.0</ele><time>2026-04-19T09:03:17.875Z</time></trkpt><trkpt lat="42.2451217" lon="14.5181117"><ele>7.5</ele><time>2026-04-19T09:03:19.875Z</time></trkpt><trkpt lat="42.2450567" lon="14.5182333"><ele>7.0</ele><time>2026-04-19T09:03:21.875Z</time></trkpt><trkpt lat="42.2449933" lon="14.51836"><ele>7.0</ele><time>2026-04-19T09:03:23.874Z</time></trkpt><trkpt lat="42.2449317" lon="14.5184833"><ele>6.999999999999999</ele><time>2026-04-19T09:03:25.874Z</time></trkpt><trkpt lat="42.24487" lon="14.5186033"><ele>6.999999999999999</ele><time>2026-04-19T09:03:27.875Z</time></trkpt><trkpt lat="42.24481" lon="14.51873"><ele>7.0</ele><time>2026-04-19T09:03:29.875Z</time></trkpt><trkpt lat="42.2447467" lon="14.5188667"><ele>7.0</ele><time>2026-04-19T09:03:31.875Z</time></trkpt><trkpt lat="42.244685" lon="14.5189983"><ele>7.5</ele><time>2026-04-19T09:03:33.875Z</time></trkpt><trkpt lat="42.2446217" lon="14.5191317"><ele>8.0</ele><time>2026-04-19T09:03:35.875Z</time></trkpt><trkpt lat="42.2445617" lon="14.51926"><ele>8.5</ele><time>2026-04-19T09:03:37.875Z</time></trkpt><trkpt lat="42.2445033" lon="14.5194017"><ele>9.0</ele><time>2026-04-19T09:03:39.874Z</time></trkpt><trkpt lat="42.2444467" lon="14.5195367"><ele>9.0</ele><time>2026-04-19T09:03:41.874Z</time></trkpt><trkpt lat="42.2443883" lon="14.5196517"><ele>9.0</ele><time>2026-04-19T09:03:43.875Z</time></trkpt><trkpt lat="42.244335" lon="14.51977"><ele>9.0</ele><time>2026-04-19T09:03:45.875Z</time></trkpt><trkpt lat="42.2442817" lon="14.51989"><ele>9.0</ele><time>2026-04-19T09:03:47.875Z</time></trkpt><trkpt lat="42.244225" lon="14.5200133"><ele>9.0</ele><time>2026-04-19T09:03:49.875Z</time></trkpt><trkpt lat="42.2441617" lon="14.5201467"><ele>9.0</ele><time>2026-04-19T09:03:51.875Z</time></trkpt><trkpt lat="42.244105" lon="14.520275"><ele>9.0</ele><time>2026-04-19T09:03:53.874Z</time></trkpt><trkpt lat="42.24405" lon="14.520395"><ele>9.0</ele><time>2026-04-19T09:03:55.875Z</time></trkpt><trkpt lat="42.2439933" lon="14.52051"><ele>9.0</ele><time>2026-04-19T09:03:57.875Z</time></trkpt><trkpt lat="42.243935" lon="14.5206317"><ele>9.0</ele><time>2026-04-19T09:03:59.874Z</time></trkpt><trkpt lat="42.2438733" lon="14.52077"><ele>8.25</ele><time>2026-04-19T09:04:01.875Z</time></trkpt><trkpt lat="42.2438183" lon="14.520915"><ele>7.5</ele><time>2026-04-19T09:04:03.875Z</time></trkpt><trkpt lat="42.2437567" lon="14.52105"><ele>6.75</ele><time>2026-04-19T09:04:05.874Z</time></trkpt><trkpt lat="42.2437033" lon="14.5211817"><ele>6.0</ele><time>2026-04-19T09:04:07.875Z</time></trkpt><trkpt lat="42.24364" lon="14.5213233"><ele>5.3999999999999995</ele><time>2026-04-19T09:04:09.875Z</time></trkpt><trkpt lat="42.24358" lon="14.5214617"><ele>4.8</ele><time>2026-04-19T09:04:11.875Z</time></trkpt><trkpt lat="42.2435167" lon="14.5215833"><ele>4.199999999999999</ele><time>2026-04-19T09:04:13.875Z</time></trkpt><trkpt lat="42.2434567" lon="14.5217117"><ele>3.5999999999999996</ele><time>2026-04-19T09:04:15.875Z</time></trkpt><trkpt lat="42.2434217" lon="14.5217833"><ele>3.0</ele><time>2026-04-19T09:04:16.875Z</time></trkpt><trkpt lat="42.2433583" lon="14.5219167"><ele>3.0</ele><time>2026-04-19T09:04:18.875Z</time></trkpt><trkpt lat="42.2432933" lon="14.5220367"><ele>3.0</ele><time>2026-04-19T09:04:20.875Z</time></trkpt><trkpt lat="42.243235" lon="14.52216"><ele>3.0</ele><time>2026-04-19T09:04:22.874Z</time></trkpt><trkpt lat="42.24318" lon="14.5222717"><ele>3.0</ele><time>2026-04-19T09:04:24.874Z</time></trkpt><trkpt lat="42.2431283" lon="14.5223833"><ele>3.0</ele><time>2026-04-19T09:04:26.875Z</time></trkpt><trkpt lat="42.24307" lon="14.52251"><ele>2.6</ele><time>2026-04-19T09:04:28.875Z</time></trkpt><trkpt lat="42.24301" lon="14.5226383"><ele>2.1999999999999997</ele><time>2026-04-19T09:04:30.875Z</time></trkpt><trkpt lat="42.2429533" lon="14.5227633"><ele>1.8</ele><time>2026-04-19T09:04:32.875Z</time></trkpt><trkpt lat="42.242895" lon="14.5228867"><ele>1.4</ele><time>2026-04-19T09:04:34.874Z</time></trkpt><trkpt lat="42.2428367" lon="14.523005"><ele>1.0</ele><time>2026-04-19T09:04:36.875Z</time></trkpt><trkpt lat="42.2427733" lon="14.5231217"><ele>1.0</ele><time>2026-04-19T09:04:38.875Z</time></trkpt><trkpt lat="42.2427067" lon="14.52324"><ele>1.0</ele><time>2026-04-19T09:04:40.875Z</time></trkpt><trkpt lat="42.2426483" lon="14.5233683"><ele>1.0</ele><time>2026-04-19T09:04:42.875Z</time></trkpt><trkpt lat="42.24259" lon="14.5234933"><ele>1.0</ele><time>2026-04-19T09:04:44.875Z</time></trkpt><trkpt lat="42.2425367" lon="14.5236217"><ele>1.0</ele><time>2026-04-19T09:04:46.875Z</time></trkpt><trkpt lat="42.2424833" lon="14.523755"><ele>1.25</ele><time>2026-04-19T09:04:48.875Z</time></trkpt><trkpt lat="42.2424267" lon="14.5238867"><ele>1.5</ele><time>2026-04-19T09:04:50.875Z</time></trkpt><trkpt lat="42.242365" lon="14.5240217"><ele>1.75</ele><time>2026-04-19T09:04:52.875Z</time></trkpt><trkpt lat="42.242305" lon="14.5241583"><ele>2.0</ele><time>2026-04-19T09:04:54.875Z</time></trkpt><trkpt lat="42.2422433" lon="14.52429"><ele>2.25</ele><time>2026-04-19T09:04:56.875Z</time></trkpt><trkpt lat="42.242185" lon="14.5244267"><ele>2.5</ele><time>2026-04-19T09:04:58.874Z</time></trkpt><trkpt lat="42.2421267" lon="14.5245617"><ele>2.75</ele><time>2026-04-19T09:05:00.875Z</time></trkpt><trkpt lat="42.24207" lon="14.5246917"><ele>3.0</ele><time>2026-04-19T09:05:02.875Z</time></trkpt><trkpt lat="42.2420133" lon="14.5248217"><ele>2.8</ele><time>2026-04-19T09:05:04.875Z</time></trkpt><trkpt lat="42.2419567" lon="14.5249517"><ele>2.5999999999999996</ele><time>2026-04-19T09:05:06.874Z</time></trkpt><trkpt lat="42.241895" lon="14.5250783"><ele>2.4000000000000004</ele><time>2026-04-19T09:05:08.874Z</time></trkpt><trkpt lat="42.24184" lon="14.5252067"><ele>2.2</ele><time>2026-04-19T09:05:10.875Z</time></trkpt><trkpt lat="42.2417817" lon="14.5253333"><ele>2.0</ele><time>2026-04-19T09:05:12.875Z</time></trkpt><trkpt lat="42.2417283" lon="14.5254633"><ele>2.0</ele><time>2026-04-19T09:05:14.875Z</time></trkpt><trkpt lat="42.2416683" lon="14.5255867"><ele>2.0</ele><time>2026-04-19T09:05:16.874Z</time></trkpt><trkpt lat="42.24161" lon="14.5257117"><ele>2.0</ele><time>2026-04-19T09:05:18.875Z</time></trkpt><trkpt lat="42.2415533" lon="14.5258367"><ele>2.0</ele><time>2026-04-19T09:05:20.875Z</time></trkpt><trkpt lat="42.241495" lon="14.5259633"><ele>2.0</ele><time>2026-04-19T09:05:22.874Z</time></trkpt><trkpt lat="42.241435" lon="14.52609"><ele>1.75</ele><time>2026-04-19T09:05:24.875Z</time></trkpt><trkpt lat="42.2413767" lon="14.52622"><ele>1.5</ele><time>2026-04-19T09:05:26.874Z</time></trkpt><trkpt lat="42.2413183" lon="14.526355"><ele>1.25</ele><time>2026-04-19T09:05:28.875Z</time></trkpt><trkpt lat="42.2412583" lon="14.5264867"><ele>1.0</ele><time>2026-04-19T09:05:30.875Z</time></trkpt><trkpt lat="42.2411983" lon="14.5266233"><ele>1.0</ele><time>2026-04-19T09:05:32.875Z</time></trkpt><trkpt lat="42.2411383" lon="14.5267517"><ele>1.0</ele><time>2026-04-19T09:05:34.875Z</time></trkpt><trkpt lat="42.24108" lon="14.52688"><ele>1.0</ele><time>2026-04-19T09:05:36.875Z</time></trkpt><trkpt lat="42.2410267" lon="14.5270117"><ele>1.0</ele><time>2026-04-19T09:05:38.875Z</time></trkpt><trkpt lat="42.240975" lon="14.5271433"><ele>1.0</ele><time>2026-04-19T09:05:40.875Z</time></trkpt><trkpt lat="42.2409167" lon="14.527275"><ele>0.75</ele><time>2026-04-19T09:05:42.875Z</time></trkpt><trkpt lat="42.24085" lon="14.527395"><ele>0.5</ele><time>2026-04-19T09:05:44.875Z</time></trkpt><trkpt lat="42.24079" lon="14.5275217"><ele>0.25</ele><time>2026-04-19T09:05:46.875Z</time></trkpt><trkpt lat="42.2407317" lon="14.5276567"><ele>0.0</ele><time>2026-04-19T09:05:48.875Z</time></trkpt><trkpt lat="42.24067" lon="14.5277933"><ele>0.0</ele><time>2026-04-19T09:05:50.875Z</time></trkpt><trkpt lat="42.2406117" lon="14.5279217"><ele>0.0</ele><time>2026-04-19T09:05:52.874Z</time></trkpt><trkpt lat="42.2405467" lon="14.5280517"><ele>0.0</ele><time>2026-04-19T09:05:54.874Z</time></trkpt><trkpt lat="42.2404933" lon="14.5281833"><ele>0.0</ele><time>2026-04-19T09:05:56.875Z</time></trkpt><trkpt lat="42.240435" lon="14.5283117"><ele>0.0</ele><time>2026-04-19T09:05:58.875Z</time></trkpt><trkpt lat="42.2403767" lon="14.5284383"><ele>0.0</ele><time>2026-04-19T09:06:00.874Z</time></trkpt><trkpt lat="42.2403183" lon="14.5285683"><ele>0.0</ele><time>2026-04-19T09:06:02.874Z</time></trkpt><trkpt lat="42.24026" lon="14.5287017"><ele>0.0</ele><time>2026-04-19T09:06:04.875Z</time></trkpt><trkpt lat="42.2401983" lon="14.5288367"><ele>0.2</ele><time>2026-04-19T09:06:06.875Z</time></trkpt><trkpt lat="42.2401417" lon="14.52896"><ele>0.4</ele><time>2026-04-19T09:06:08.874Z</time></trkpt><trkpt lat="42.2400833" lon="14.52909"><ele>0.6000000000000001</ele><time>2026-04-19T09:06:10.875Z</time></trkpt><trkpt lat="42.2400283" lon="14.529215"><ele>0.8</ele><time>2026-04-19T09:06:12.875Z</time></trkpt><trkpt lat="42.2399717" lon="14.52935"><ele>1.0</ele><time>2026-04-19T09:06:14.874Z</time></trkpt><trkpt lat="42.2399133" lon="14.52947"><ele>1.0</ele><time>2026-04-19T09:06:16.875Z</time></trkpt><trkpt lat="42.239845" lon="14.52959"><ele>1.0</ele><time>2026-04-19T09:06:18.875Z</time></trkpt><trkpt lat="42.2397833" lon="14.529715"><ele>1.0</ele><time>2026-04-19T09:06:20.875Z</time></trkpt><trkpt lat="42.2397267" lon="14.5298433"><ele>1.0</ele><time>2026-04-19T09:06:22.874Z</time></trkpt><trkpt lat="42.2396617" lon="14.529975"><ele>1.0</ele><time>2026-04-19T09:06:24.874Z</time></trkpt><trkpt lat="42.2396033" lon="14.5300983"><ele>1.0</ele><time>2026-04-19T09:06:26.875Z</time></trkpt><trkpt lat="42.239545" lon="14.530225"><ele>1.0</ele><time>2026-04-19T09:06:28.874Z</time></trkpt><trkpt lat="42.23949" lon="14.53036"><ele>1.0</ele><time>2026-04-19T09:06:30.875Z</time></trkpt><trkpt lat="42.23943" lon="14.5304967"><ele>1.0</ele><time>2026-04-19T09:06:32.874Z</time></trkpt><trkpt lat="42.2393717" lon="14.53062"><ele>1.0</ele><time>2026-04-19T09:06:34.875Z</time></trkpt><trkpt lat="42.239315" lon="14.530735"><ele>1.0</ele><time>2026-04-19T09:06:36.875Z</time></trkpt><trkpt lat="42.23926" lon="14.5308667"><ele>1.0</ele><time>2026-04-19T09:06:38.875Z</time></trkpt><trkpt lat="42.2392067" lon="14.5309917"><ele>1.0</ele><time>2026-04-19T09:06:40.875Z</time></trkpt><trkpt lat="42.239145" lon="14.5311117"><ele>1.0</ele><time>2026-04-19T09:06:42.875Z</time></trkpt><trkpt lat="42.2390867" lon="14.5312433"><ele>1.0</ele><time>2026-04-19T09:06:44.875Z</time></trkpt><trkpt lat="42.23903" lon="14.5313683"><ele>1.0</ele><time>2026-04-19T09:06:46.875Z</time></trkpt><trkpt lat="42.2389733" lon="14.5314983"><ele>1.0</ele><time>2026-04-19T09:06:48.874Z</time></trkpt><trkpt lat="42.238915" lon="14.5316267"><ele>1.0</ele><time>2026-04-19T09:06:50.874Z</time></trkpt><trkpt lat="42.2388567" lon="14.531745"><ele>1.2000000000000002</ele><time>2026-04-19T09:06:52.874Z</time></trkpt><trkpt lat="42.2387967" lon="14.5318617"><ele>1.4000000000000001</ele><time>2026-04-19T09:06:54.875Z</time></trkpt><trkpt lat="42.2387367" lon="14.53199"><ele>1.6</ele><time>2026-04-19T09:06:56.875Z</time></trkpt><trkpt lat="42.23868" lon="14.532125"><ele>1.8</ele><time>2026-04-19T09:06:58.875Z</time></trkpt><trkpt lat="42.2386267" lon="14.5322533"><ele>2.0</ele><time>2026-04-19T09:07:00.875Z</time></trkpt><trkpt lat="42.2385683" lon="14.532365"><ele>1.8</ele><time>2026-04-19T09:07:02.875Z</time></trkpt><trkpt lat="42.238515" lon="14.5324783"><ele>1.6</ele><time>2026-04-19T09:07:04.874Z</time></trkpt><trkpt lat="42.2384617" lon="14.5325917"><ele>1.4000000000000001</ele><time>2026-04-19T09:07:06.875Z</time></trkpt><trkpt lat="42.238405" lon="14.532715"><ele>1.2000000000000002</ele><time>2026-04-19T09:07:08.874Z</time></trkpt><trkpt lat="42.23835" lon="14.5328383"><ele>1.0</ele><time>2026-04-19T09:07:10.875Z</time></trkpt><trkpt lat="42.238285" lon="14.5329533"><ele>1.0</ele><time>2026-04-19T09:07:12.875Z</time></trkpt><trkpt lat="42.238225" lon="14.5330833"><ele>1.0</ele><time>2026-04-19T09:07:14.875Z</time></trkpt><trkpt lat="42.2381767" lon="14.5332167"><ele>1.0</ele><time>2026-04-19T09:07:16.875Z</time></trkpt><trkpt lat="42.2381217" lon="14.5333433"><ele>1.0</ele><time>2026-04-19T09:07:18.874Z</time></trkpt><trkpt lat="42.2380667" lon="14.533485"><ele>1.4</ele><time>2026-04-19T09:07:20.875Z</time></trkpt><trkpt lat="42.23801" lon="14.5336233"><ele>1.8</ele><time>2026-04-19T09:07:22.874Z</time></trkpt><trkpt lat="42.237955" lon="14.5337467"><ele>2.1999999999999997</ele><time>2026-04-19T09:07:24.874Z</time></trkpt><trkpt lat="42.2378917" lon="14.5338633"><ele>2.6</ele><time>2026-04-19T09:07:26.874Z</time></trkpt><trkpt lat="42.2378317" lon="14.5339883"><ele>3.0</ele><time>2026-04-19T09:07:28.874Z</time></trkpt><trkpt lat="42.2377717" lon="14.5341117"><ele>3.0</ele><time>2026-04-19T09:07:30.875Z</time></trkpt><trkpt lat="42.2377133" lon="14.5342433"><ele>3.0</ele><time>2026-04-19T09:07:32.875Z</time></trkpt><trkpt lat="42.2376533" lon="14.534365"><ele>3.0</ele><time>2026-04-19T09:07:34.875Z</time></trkpt><trkpt lat="42.2376" lon="14.534495"><ele>3.0</ele><time>2026-04-19T09:07:36.874Z</time></trkpt><trkpt lat="42.237545" lon="14.53462"><ele>3.0</ele><time>2026-04-19T09:07:38.875Z</time></trkpt><trkpt lat="42.2374833" lon="14.5347333"><ele>2.8</ele><time>2026-04-19T09:07:40.875Z</time></trkpt><trkpt lat="42.2374233" lon="14.5348567"><ele>2.5999999999999996</ele><time>2026-04-19T09:07:42.875Z</time></trkpt><trkpt lat="42.2373683" lon="14.5349833"><ele>2.4000000000000004</ele><time>2026-04-19T09:07:44.875Z</time></trkpt><trkpt lat="42.2373117" lon="14.535095"><ele>2.2</ele><time>2026-04-19T09:07:46.874Z</time></trkpt><trkpt lat="42.23726" lon="14.5352017"><ele>2.0</ele><time>2026-04-19T09:07:48.875Z</time></trkpt><trkpt lat="42.23721" lon="14.53531"><ele>2.2</ele><time>2026-04-19T09:07:50.875Z</time></trkpt><trkpt lat="42.23715" lon="14.5353967"><ele>2.4000000000000004</ele><time>2026-04-19T09:07:52.874Z</time></trkpt><trkpt lat="42.2370783" lon="14.53549"><ele>2.5999999999999996</ele><time>2026-04-19T09:07:54.875Z</time></trkpt><trkpt lat="42.2370167" lon="14.535615"><ele>2.8</ele><time>2026-04-19T09:07:56.875Z</time></trkpt><trkpt lat="42.23697" lon="14.535745"><ele>3.0</ele><time>2026-04-19T09:07:58.875Z</time></trkpt><trkpt lat="42.2369217" lon="14.535865"><ele>3.0</ele><time>2026-04-19T09:08:00.875Z</time></trkpt><trkpt lat="42.2368717" lon="14.535985"><ele>3.0</ele><time>2026-04-19T09:08:02.875Z</time></trkpt><trkpt lat="42.2368233" lon="14.5361167"><ele>3.0</ele><time>2026-04-19T09:08:04.875Z</time></trkpt><trkpt lat="42.2367767" lon="14.5362417"><ele>3.0</ele><time>2026-04-19T09:08:06.875Z</time></trkpt><trkpt lat="42.2367267" lon="14.53636"><ele>3.0</ele><time>2026-04-19T09:08:08.875Z</time></trkpt><trkpt lat="42.2366767" lon="14.5364867"><ele>2.8</ele><time>2026-04-19T09:08:10.875Z</time></trkpt><trkpt lat="42.2366267" lon="14.5366167"><ele>2.5999999999999996</ele><time>2026-04-19T09:08:12.875Z</time></trkpt><trkpt lat="42.2365817" lon="14.53673"><ele>2.4000000000000004</ele><time>2026-04-19T09:08:14.875Z</time></trkpt><trkpt lat="42.2365283" lon="14.5368517"><ele>2.2</ele><time>2026-04-19T09:08:16.875Z</time></trkpt><trkpt lat="42.23648" lon="14.5369717"><ele>2.0</ele><time>2026-04-19T09:08:18.875Z</time></trkpt><trkpt lat="42.2364283" lon="14.53709"><ele>2.6</ele><time>2026-04-19T09:08:20.875Z</time></trkpt><trkpt lat="42.236375" lon="14.53721"><ele>3.2</ele><time>2026-04-19T09:08:22.875Z</time></trkpt><trkpt lat="42.2363233" lon="14.5373233"><ele>3.8</ele><time>2026-04-19T09:08:24.875Z</time></trkpt><trkpt lat="42.2362783" lon="14.53741"><ele>4.4</ele><time>2026-04-19T09:08:26.874Z</time></trkpt><trkpt lat="42.23622" lon="14.5375067"><ele>5.0</ele><time>2026-04-19T09:08:28.875Z</time></trkpt><trkpt lat="42.236165" lon="14.5376217"><ele>5.0</ele><time>2026-04-19T09:08:30.875Z</time></trkpt><trkpt lat="42.2361083" lon="14.5377467"><ele>5.0</ele><time>2026-04-19T09:08:32.875Z</time></trkpt><trkpt lat="42.2360483" lon="14.53787"><ele>5.0</ele><time>2026-04-19T09:08:34.874Z</time></trkpt><trkpt lat="42.2359867" lon="14.5379933"><ele>5.0</ele><time>2026-04-19T09:08:36.875Z</time></trkpt><trkpt lat="42.2359283" lon="14.5381167"><ele>5.0</ele><time>2026-04-19T09:08:38.875Z</time></trkpt><trkpt lat="42.235875" lon="14.538245"><ele>5.0</ele><time>2026-04-19T09:08:40.874Z</time></trkpt><trkpt lat="42.2358217" lon="14.5383817"><ele>5.0</ele><time>2026-04-19T09:08:42.874Z</time></trkpt><trkpt lat="42.2357717" lon="14.5385133"><ele>5.0</ele><time>2026-04-19T09:08:44.875Z</time></trkpt><trkpt lat="42.23572" lon="14.5386417"><ele>5.0</ele><time>2026-04-19T09:08:46.874Z</time></trkpt><trkpt lat="42.235665" lon="14.53876"><ele>5.0</ele><time>2026-04-19T09:08:48.875Z</time></trkpt><trkpt lat="42.23561" lon="14.53889"><ele>5.4</ele><time>2026-04-19T09:08:50.875Z</time></trkpt><trkpt lat="42.2355533" lon="14.5390167"><ele>5.8</ele><time>2026-04-19T09:08:52.875Z</time></trkpt><trkpt lat="42.2354967" lon="14.53914"><ele>6.199999999999999</ele><time>2026-04-19T09:08:54.875Z</time></trkpt><trkpt lat="42.2354383" lon="14.5392667"><ele>6.6</ele><time>2026-04-19T09:08:56.875Z</time></trkpt><trkpt lat="42.2353767" lon="14.5393933"><ele>7.0</ele><time>2026-04-19T09:08:58.875Z</time></trkpt><trkpt lat="42.2353283" lon="14.5395167"><ele>6.6</ele><time>2026-04-19T09:09:00.874Z</time></trkpt><trkpt lat="42.2352733" lon="14.53964"><ele>6.199999999999999</ele><time>2026-04-19T09:09:02.875Z</time></trkpt><trkpt lat="42.2352233" lon="14.539765"><ele>5.8</ele><time>2026-04-19T09:09:04.874Z</time></trkpt><trkpt lat="42.2351683" lon="14.5398967"><ele>5.4</ele><time>2026-04-19T09:09:06.874Z</time></trkpt><trkpt lat="42.2351117" lon="14.5400267"><ele>5.0</ele><time>2026-04-19T09:09:08.875Z</time></trkpt><trkpt lat="42.23505" lon="14.5401483"><ele>5.0</ele><time>2026-04-19T09:09:10.875Z</time></trkpt><trkpt lat="42.2349883" lon="14.54027"><ele>5.0</ele><time>2026-04-19T09:09:12.875Z</time></trkpt><trkpt lat="42.23493" lon="14.5403933"><ele>5.0</ele><time>2026-04-19T09:09:14.874Z</time></trkpt><trkpt lat="42.2348667" lon="14.5405133"><ele>5.0</ele><time>2026-04-19T09:09:16.874Z</time></trkpt><trkpt lat="42.2348067" lon="14.5406367"><ele>5.0</ele><time>2026-04-19T09:09:18.875Z</time></trkpt><trkpt lat="42.2347467" lon="14.5407633"><ele>4.8</ele><time>2026-04-19T09:09:20.875Z</time></trkpt><trkpt lat="42.2346917" lon="14.5408933"><ele>4.6</ele><time>2026-04-19T09:09:22.875Z</time></trkpt><trkpt lat="42.2346367" lon="14.541025"><ele>4.4</ele><time>2026-04-19T09:09:24.875Z</time></trkpt><trkpt lat="42.2345817" lon="14.5411517"><ele>4.2</ele><time>2026-04-19T09:09:26.875Z</time></trkpt><trkpt lat="42.2345233" lon="14.5412717"><ele>4.0</ele><time>2026-04-19T09:09:28.875Z</time></trkpt><trkpt lat="42.2344733" lon="14.541395"><ele>4.0</ele><time>2026-04-19T09:09:30.875Z</time></trkpt><trkpt lat="42.2344167" lon="14.54152"><ele>4.0</ele><time>2026-04-19T09:09:32.874Z</time></trkpt><trkpt lat="42.2343583" lon="14.5416433"><ele>4.0</ele><time>2026-04-19T09:09:34.874Z</time></trkpt><trkpt lat="42.234305" lon="14.54177"><ele>4.0</ele><time>2026-04-19T09:09:36.875Z</time></trkpt><trkpt lat="42.2342483" lon="14.5418917"><ele>4.0</ele><time>2026-04-19T09:09:38.875Z</time></trkpt><trkpt lat="42.2341917" lon="14.542015"><ele>3.8000000000000003</ele><time>2026-04-19T09:09:40.874Z</time></trkpt><trkpt lat="42.2341367" lon="14.5421283"><ele>3.6000000000000005</ele><time>2026-04-19T09:09:42.874Z</time></trkpt><trkpt lat="42.2340767" lon="14.5422467"><ele>3.4</ele><time>2026-04-19T09:09:44.874Z</time></trkpt><trkpt lat="42.2340233" lon="14.5423683"><ele>3.2</ele><time>2026-04-19T09:09:46.875Z</time></trkpt><trkpt lat="42.233965" lon="14.5424833"><ele>3.0</ele><time>2026-04-19T09:09:48.875Z</time></trkpt><trkpt lat="42.2338983" lon="14.542605"><ele>4.6</ele><time>2026-04-19T09:09:50.874Z</time></trkpt><trkpt lat="42.233835" lon="14.54272"><ele>6.2</ele><time>2026-04-19T09:09:52.875Z</time></trkpt><trkpt lat="42.23377" lon="14.54284"><ele>7.800000000000001</ele><time>2026-04-19T09:09:54.875Z</time></trkpt><trkpt lat="42.2336983" lon="14.5429483"><ele>9.4</ele><time>2026-04-19T09:09:56.874Z</time></trkpt><trkpt lat="42.2336283" lon="14.5430467"><ele>11.0</ele><time>2026-04-19T09:09:58.875Z</time></trkpt><trkpt lat="42.2335783" lon="14.54313"><ele>11.0</ele><time>2026-04-19T09:10:00.875Z</time></trkpt><trkpt lat="42.2335433" lon="14.5432283"><ele>11.0</ele><time>2026-04-19T09:10:02.875Z</time></trkpt><trkpt lat="42.23351" lon="14.5433617"><ele>11.0</ele><time>2026-04-19T09:10:04.874Z</time></trkpt><trkpt lat="42.2334733" lon="14.5434767"><ele>11.0</ele><time>2026-04-19T09:10:06.874Z</time></trkpt><trkpt lat="42.23342" lon="14.5436117"><ele>11.0</ele><time>2026-04-19T09:10:08.875Z</time></trkpt><trkpt lat="42.233355" lon="14.5437367"><ele>11.600000000000001</ele><time>2026-04-19T09:10:10.875Z</time></trkpt><trkpt lat="42.2332967" lon="14.543855"><ele>12.2</ele><time>2026-04-19T09:10:12.874Z</time></trkpt><trkpt lat="42.2332433" lon="14.5439833"><ele>12.799999999999999</ele><time>2026-04-19T09:10:14.875Z</time></trkpt><trkpt lat="42.2331833" lon="14.5441083"><ele>13.399999999999999</ele><time>2026-04-19T09:10:16.874Z</time></trkpt><trkpt lat="42.2331217" lon="14.5442317"><ele>14.0</ele><time>2026-04-19T09:10:18.874Z</time></trkpt><trkpt lat="42.23306" lon="14.5443567"><ele>14.0</ele><time>2026-04-19T09:10:20.875Z</time></trkpt><trkpt lat="42.2329983" lon="14.5444883"><ele>13.999999999999998</ele><time>2026-04-19T09:10:22.874Z</time></trkpt><trkpt lat="42.232935" lon="14.5446117"><ele>13.999999999999998</ele><time>2026-04-19T09:10:24.874Z</time></trkpt><trkpt lat="42.2328717" lon="14.5447233"><ele>14.0</ele><time>2026-04-19T09:10:26.875Z</time></trkpt><trkpt lat="42.2328017" lon="14.5448433"><ele>14.0</ele><time>2026-04-19T09:10:28.875Z</time></trkpt><trkpt lat="42.2327383" lon="14.544965"><ele>11.75</ele><time>2026-04-19T09:10:30.875Z</time></trkpt><trkpt lat="42.2326683" lon="14.5450833"><ele>9.5</ele><time>2026-04-19T09:10:32.875Z</time></trkpt><trkpt lat="42.2326017" lon="14.5452167"><ele>7.25</ele><time>2026-04-19T09:10:34.874Z</time></trkpt><trkpt lat="42.23254" lon="14.54534"><ele>5.0</ele><time>2026-04-19T09:10:36.875Z</time></trkpt><trkpt lat="42.2324767" lon="14.5454683"><ele>4.4</ele><time>2026-04-19T09:10:38.874Z</time></trkpt><trkpt lat="42.23241" lon="14.5455833"><ele>3.8</ele><time>2026-04-19T09:10:40.874Z</time></trkpt><trkpt lat="42.232345" lon="14.545705"><ele>3.2</ele><time>2026-04-19T09:10:42.874Z</time></trkpt><trkpt lat="42.2322767" lon="14.5458283"><ele>2.6</ele><time>2026-04-19T09:10:44.874Z</time></trkpt><trkpt lat="42.2322067" lon="14.5459433"><ele>2.0</ele><time>2026-04-19T09:10:46.875Z</time></trkpt><trkpt lat="42.2321367" lon="14.5460633"><ele>2.0</ele><time>2026-04-19T09:10:48.875Z</time></trkpt><trkpt lat="42.2320667" lon="14.5461667"><ele>2.0</ele><time>2026-04-19T09:10:50.875Z</time></trkpt><trkpt lat="42.2319983" lon="14.5462817"><ele>2.0</ele><time>2026-04-19T09:10:52.875Z</time></trkpt><trkpt lat="42.23194" lon="14.5463767"><ele>2.0</ele><time>2026-04-19T09:10:54.875Z</time></trkpt><trkpt lat="42.23187" lon="14.5464817"><ele>2.0</ele><time>2026-04-19T09:10:56.874Z</time></trkpt><trkpt lat="42.2318" lon="14.5465967"><ele>2.0</ele><time>2026-04-19T09:10:58.875Z</time></trkpt><trkpt lat="42.2317333" lon="14.5467217"><ele>2.0</ele><time>2026-04-19T09:11:00.875Z</time></trkpt><trkpt lat="42.231665" lon="14.5468483"><ele>2.0</ele><time>2026-04-19T09:11:02.874Z</time></trkpt><trkpt lat="42.2315917" lon="14.546975"><ele>2.0</ele><time>2026-04-19T09:11:04.875Z</time></trkpt><trkpt lat="42.2315267" lon="14.5471067"><ele>2.6</ele><time>2026-04-19T09:11:06.875Z</time></trkpt><trkpt lat="42.2314683" lon="14.547235"><ele>3.2</ele><time>2026-04-19T09:11:08.875Z</time></trkpt><trkpt lat="42.2314133" lon="14.547355"><ele>3.8</ele><time>2026-04-19T09:11:10.874Z</time></trkpt><trkpt lat="42.23135" lon="14.5474567"><ele>4.4</ele><time>2026-04-19T09:11:12.875Z</time></trkpt><trkpt lat="42.2312783" lon="14.5475667"><ele>5.0</ele><time>2026-04-19T09:11:14.875Z</time></trkpt><trkpt lat="42.2312083" lon="14.547685"><ele>5.0</ele><time>2026-04-19T09:11:16.874Z</time></trkpt><trkpt lat="42.2311367" lon="14.5478067"><ele>5.0</ele><time>2026-04-19T09:11:18.874Z</time></trkpt><trkpt lat="42.23107" lon="14.54793"><ele>5.0</ele><time>2026-04-19T09:11:20.875Z</time></trkpt><trkpt lat="42.2310033" lon="14.5480483"><ele>5.0</ele><time>2026-04-19T09:11:22.875Z</time></trkpt><trkpt lat="42.2309367" lon="14.5481717"><ele>4.8</ele><time>2026-04-19T09:11:24.874Z</time></trkpt><trkpt lat="42.2308717" lon="14.54829"><ele>4.6</ele><time>2026-04-19T09:11:26.875Z</time></trkpt><trkpt lat="42.2308" lon="14.5484033"><ele>4.4</ele><time>2026-04-19T09:11:28.875Z</time></trkpt><trkpt lat="42.2307317" lon="14.5485117"><ele>4.2</ele><time>2026-04-19T09:11:30.874Z</time></trkpt><trkpt lat="42.2306683" lon="14.5486233"><ele>4.0</ele><time>2026-04-19T09:11:32.874Z</time></trkpt><trkpt lat="42.2306" lon="14.5487367"><ele>4.0</ele><time>2026-04-19T09:11:34.875Z</time></trkpt><trkpt lat="42.2305317" lon="14.548845"><ele>4.0</ele><time>2026-04-19T09:11:36.875Z</time></trkpt><trkpt lat="42.2304667" lon="14.5489617"><ele>4.0</ele><time>2026-04-19T09:11:38.874Z</time></trkpt><trkpt lat="42.2303967" lon="14.5490883"><ele>4.0</ele><time>2026-04-19T09:11:40.874Z</time></trkpt><trkpt lat="42.23033" lon="14.5492017"><ele>4.0</ele><time>2026-04-19T09:11:42.874Z</time></trkpt><trkpt lat="42.2302683" lon="14.5493217"><ele>4.0</ele><time>2026-04-19T09:11:44.874Z</time></trkpt><trkpt lat="42.2301983" lon="14.549445"><ele>4.0</ele><time>2026-04-19T09:11:46.875Z</time></trkpt><trkpt lat="42.23013" lon="14.5495567"><ele>4.0</ele><time>2026-04-19T09:11:48.875Z</time></trkpt><trkpt lat="42.2300567" lon="14.54966"><ele>4.0</ele><time>2026-04-19T09:11:50.875Z</time></trkpt><trkpt lat="42.229985" lon="14.5497783"><ele>4.0</ele><time>2026-04-19T09:11:52.875Z</time></trkpt><trkpt lat="42.2299167" lon="14.5499033"><ele>4.2</ele><time>2026-04-19T09:11:54.875Z</time></trkpt><trkpt lat="42.2298483" lon="14.5500267"><ele>4.4</ele><time>2026-04-19T09:11:56.875Z</time></trkpt><trkpt lat="42.229775" lon="14.5501367"><ele>4.6</ele><time>2026-04-19T09:11:58.874Z</time></trkpt><trkpt lat="42.2297033" lon="14.5502517"><ele>4.8</ele><time>2026-04-19T09:12:00.874Z</time></trkpt><trkpt lat="42.2296467" lon="14.55038"><ele>5.0</ele><time>2026-04-19T09:12:02.874Z</time></trkpt><trkpt lat="42.2295883" lon="14.55051"><ele>5.0</ele><time>2026-04-19T09:12:04.874Z</time></trkpt><trkpt lat="42.2295433" lon="14.550645"><ele>5.0</ele><time>2026-04-19T09:12:06.875Z</time></trkpt><trkpt lat="42.229495" lon="14.5507667"><ele>5.0</ele><time>2026-04-19T09:12:08.875Z</time></trkpt><trkpt lat="42.2294367" lon="14.5508867"><ele>5.0</ele><time>2026-04-19T09:12:10.875Z</time></trkpt><trkpt lat="42.229365" lon="14.55101"><ele>5.0</ele><time>2026-04-19T09:12:12.874Z</time></trkpt><trkpt lat="42.2293" lon="14.5511283"><ele>4.0</ele><time>2026-04-19T09:12:14.874Z</time></trkpt><trkpt lat="42.2292317" lon="14.5512483"><ele>3.0</ele><time>2026-04-19T09:12:16.875Z</time></trkpt><trkpt lat="42.2291617" lon="14.5513633"><ele>2.0</ele><time>2026-04-19T09:12:18.875Z</time></trkpt><trkpt lat="42.229095" lon="14.5514817"><ele>1.0</ele><time>2026-04-19T09:12:20.875Z</time></trkpt><trkpt lat="42.2290283" lon="14.551595"><ele>0.0</ele><time>2026-04-19T09:12:22.875Z</time></trkpt><trkpt lat="42.2289683" lon="14.5517133"><ele>0.6</ele><time>2026-04-19T09:12:24.875Z</time></trkpt><trkpt lat="42.2288983" lon="14.5518167"><ele>1.2</ele><time>2026-04-19T09:12:26.874Z</time></trkpt><trkpt lat="42.2288267" lon="14.5519283"><ele>1.7999999999999998</ele><time>2026-04-19T09:12:28.875Z</time></trkpt><trkpt lat="42.22876" lon="14.5520317"><ele>2.4</ele><time>2026-04-19T09:12:30.875Z</time></trkpt><trkpt lat="42.2287" lon="14.5521517"><ele>3.0</ele><time>2026-04-19T09:12:32.875Z</time></trkpt><trkpt lat="42.228635" lon="14.552265"><ele>3.0</ele><time>2026-04-19T09:12:34.874Z</time></trkpt><trkpt lat="42.2285683" lon="14.5523867"><ele>3.0</ele><time>2026-04-19T09:12:36.874Z</time></trkpt><trkpt lat="42.2285" lon="14.55251"><ele>3.0</ele><time>2026-04-19T09:12:38.875Z</time></trkpt><trkpt lat="42.2284383" lon="14.55262"><ele>3.0</ele><time>2026-04-19T09:12:40.875Z</time></trkpt><trkpt lat="42.2283717" lon="14.55274"><ele>3.0</ele><time>2026-04-19T09:12:42.874Z</time></trkpt><trkpt lat="42.2283017" lon="14.552855"><ele>3.0</ele><time>2026-04-19T09:12:44.874Z</time></trkpt><trkpt lat="42.2282317" lon="14.5529767"><ele>3.0</ele><time>2026-04-19T09:12:46.875Z</time></trkpt><trkpt lat="42.2281633" lon="14.5531017"><ele>3.0</ele><time>2026-04-19T09:12:48.875Z</time></trkpt><trkpt lat="42.2281017" lon="14.55322"><ele>3.0</ele><time>2026-04-19T09:12:50.875Z</time></trkpt><trkpt lat="42.2280333" lon="14.5533267"><ele>3.0</ele><time>2026-04-19T09:12:52.875Z</time></trkpt><trkpt lat="42.2279633" lon="14.5534433"><ele>3.4</ele><time>2026-04-19T09:12:54.875Z</time></trkpt><trkpt lat="42.2278933" lon="14.5535533"><ele>3.8</ele><time>2026-04-19T09:12:56.875Z</time></trkpt><trkpt lat="42.2278133" lon="14.553655"><ele>4.2</ele><time>2026-04-19T09:12:58.875Z</time></trkpt><trkpt lat="42.2277367" lon="14.55376"><ele>4.6</ele><time>2026-04-19T09:13:00.875Z</time></trkpt><trkpt lat="42.227665" lon="14.5538733"><ele>5.0</ele><time>2026-04-19T09:13:02.874Z</time></trkpt><trkpt lat="42.227595" lon="14.5539867"><ele>5.0</ele><time>2026-04-19T09:13:04.875Z</time></trkpt><trkpt lat="42.2275233" lon="14.5540967"><ele>5.0</ele><time>2026-04-19T09:13:06.874Z</time></trkpt><trkpt lat="42.227445" lon="14.5542033"><ele>5.0</ele><time>2026-04-19T09:13:08.874Z</time></trkpt><trkpt lat="42.2273633" lon="14.5543117"><ele>5.0</ele><time>2026-04-19T09:13:10.874Z</time></trkpt><trkpt lat="42.2272867" lon="14.55442"><ele>5.0</ele><time>2026-04-19T09:13:12.875Z</time></trkpt><trkpt lat="42.22721" lon="14.5545233"><ele>6.6</ele><time>2026-04-19T09:13:14.874Z</time></trkpt><trkpt lat="42.2271433" lon="14.5546417"><ele>8.2</ele><time>2026-04-19T09:13:16.875Z</time></trkpt><trkpt lat="42.2270783" lon="14.55476"><ele>9.8</ele><time>2026-04-19T09:13:18.874Z</time></trkpt><trkpt lat="42.22702" lon="14.5548817"><ele>11.4</ele><time>2026-04-19T09:13:20.875Z</time></trkpt><trkpt lat="42.2269517" lon="14.5549967"><ele>13.0</ele><time>2026-04-19T09:13:22.875Z</time></trkpt><trkpt lat="42.2268867" lon="14.5551033"><ele>13.0</ele><time>2026-04-19T09:13:24.874Z</time></trkpt><trkpt lat="42.226825" lon="14.55522"><ele>13.0</ele><time>2026-04-19T09:13:26.875Z</time></trkpt><trkpt lat="42.22677" lon="14.5553417"><ele>13.0</ele><time>2026-04-19T09:13:28.874Z</time></trkpt><trkpt lat="42.2267067" lon="14.5554467"><ele>13.0</ele><time>2026-04-19T09:13:30.875Z</time></trkpt><trkpt lat="42.22665" lon="14.5555333"><ele>13.0</ele><time>2026-04-19T09:13:32.875Z</time></trkpt><trkpt lat="42.2266" lon="14.55563"><ele>11.6</ele><time>2026-04-19T09:13:34.874Z</time></trkpt><trkpt lat="42.2265117" lon="14.5557167"><ele>10.200000000000001</ele><time>2026-04-19T09:13:36.874Z</time></trkpt><trkpt lat="42.22646" lon="14.5558483"><ele>8.8</ele><time>2026-04-19T09:13:38.874Z</time></trkpt><trkpt lat="42.22641" lon="14.555995"><ele>7.4</ele><time>2026-04-19T09:13:40.875Z</time></trkpt><trkpt lat="42.226385" lon="14.5560783"><ele>6.0</ele><time>2026-04-19T09:13:41.875Z</time></trkpt><trkpt lat="42.22636" lon="14.55616"><ele>8.0</ele><time>2026-04-19T09:13:42.875Z</time></trkpt><trkpt lat="42.226315" lon="14.5563067"><ele>10.0</ele><time>2026-04-19T09:13:44.874Z</time></trkpt><trkpt lat="42.22626" lon="14.5564433"><ele>12.000000000000002</ele><time>2026-04-19T09:13:46.875Z</time></trkpt><trkpt lat="42.2262117" lon="14.5565733"><ele>14.0</ele><time>2026-04-19T09:13:48.875Z</time></trkpt><trkpt lat="42.2261517" lon="14.5566917"><ele>16.0</ele><time>2026-04-19T09:13:50.874Z</time></trkpt><trkpt lat="42.2260883" lon="14.5568083"><ele>16.0</ele><time>2026-04-19T09:13:52.875Z</time></trkpt><trkpt lat="42.2260333" lon="14.5569367"><ele>16.0</ele><time>2026-04-19T09:13:54.875Z</time></trkpt><trkpt lat="42.2259817" lon="14.5570583"><ele>16.0</ele><time>2026-04-19T09:13:56.875Z</time></trkpt><trkpt lat="42.2259367" lon="14.5571867"><ele>16.0</ele><time>2026-04-19T09:13:58.875Z</time></trkpt><trkpt lat="42.2258867" lon="14.5573233"><ele>16.0</ele><time>2026-04-19T09:14:00.874Z</time></trkpt><trkpt lat="42.225825" lon="14.5574583"><ele>15.25</ele><time>2026-04-19T09:14:02.874Z</time></trkpt><trkpt lat="42.2257733" lon="14.5576"><ele>14.5</ele><time>2026-04-19T09:14:04.875Z</time></trkpt><trkpt lat="42.225725" lon="14.5577517"><ele>13.75</ele><time>2026-04-19T09:14:06.875Z</time></trkpt><trkpt lat="42.2256817" lon="14.5578983"><ele>13.0</ele><time>2026-04-19T09:14:08.875Z</time></trkpt><trkpt lat="42.2256317" lon="14.5580233"><ele>13.0</ele><time>2026-04-19T09:14:10.875Z</time></trkpt><trkpt lat="42.2255783" lon="14.5581483"><ele>13.0</ele><time>2026-04-19T09:14:12.875Z</time></trkpt><trkpt lat="42.225525" lon="14.5582683"><ele>13.0</ele><time>2026-04-19T09:14:14.875Z</time></trkpt><trkpt lat="42.225475" lon="14.5583917"><ele>13.0</ele><time>2026-04-19T09:14:16.875Z</time></trkpt><trkpt lat="42.225425" lon="14.5585267"><ele>13.0</ele><time>2026-04-19T09:14:18.875Z</time></trkpt><trkpt lat="42.22538" lon="14.5586583"><ele>12.200000000000001</ele><time>2026-04-19T09:14:20.874Z</time></trkpt><trkpt lat="42.225335" lon="14.5587933"><ele>11.4</ele><time>2026-04-19T09:14:22.875Z</time></trkpt><trkpt lat="42.2252867" lon="14.5589333"><ele>10.600000000000001</ele><time>2026-04-19T09:14:24.874Z</time></trkpt><trkpt lat="42.2252417" lon="14.55906"><ele>9.8</ele><time>2026-04-19T09:14:26.874Z</time></trkpt><trkpt lat="42.225185" lon="14.5592033"><ele>9.0</ele><time>2026-04-19T09:14:28.875Z</time></trkpt><trkpt lat="42.225135" lon="14.5593317"><ele>9.0</ele><time>2026-04-19T09:14:30.874Z</time></trkpt><trkpt lat="42.225085" lon="14.559465"><ele>9.0</ele><time>2026-04-19T09:14:32.875Z</time></trkpt><trkpt lat="42.2250317" lon="14.5595883"><ele>9.0</ele><time>2026-04-19T09:14:34.875Z</time></trkpt><trkpt lat="42.2249783" lon="14.5597117"><ele>9.0</ele><time>2026-04-19T09:14:36.874Z</time></trkpt><trkpt lat="42.2249367" lon="14.5598183"><ele>9.0</ele><time>2026-04-19T09:14:38.875Z</time></trkpt><trkpt lat="42.2249" lon="14.5599267"><ele>8.333333333333334</ele><time>2026-04-19T09:14:40.874Z</time></trkpt><trkpt lat="42.224865" lon="14.5600367"><ele>7.666666666666667</ele><time>2026-04-19T09:14:42.874Z</time></trkpt><trkpt lat="42.2248183" lon="14.5601617"><ele>7.0</ele><time>2026-04-19T09:14:44.874Z</time></trkpt><trkpt lat="42.224775" lon="14.5602733"><ele>6.333333333333334</ele><time>2026-04-19T09:14:46.875Z</time></trkpt><trkpt lat="42.224735" lon="14.5603683"><ele>5.666666666666667</ele><time>2026-04-19T09:14:48.874Z</time></trkpt><trkpt lat="42.224695" lon="14.5604567"><ele>5.0</ele><time>2026-04-19T09:14:50.875Z</time></trkpt><trkpt lat="42.22466" lon="14.56054"><ele>6.666666666666667</ele><time>2026-04-19T09:14:52.874Z</time></trkpt><trkpt lat="42.2246183" lon="14.560655"><ele>8.333333333333334</ele><time>2026-04-19T09:14:55.874Z</time></trkpt><trkpt lat="42.224575" lon="14.560725"><ele>10.0</ele><time>2026-04-19T09:14:57.874Z</time></trkpt><trkpt lat="42.2244933" lon="14.5607533"><ele>11.666666666666666</ele><time>2026-04-19T09:15:00.874Z</time></trkpt><trkpt lat="42.22442" lon="14.560795"><ele>13.333333333333334</ele><time>2026-04-19T09:15:03.875Z</time></trkpt><trkpt lat="42.2243667" lon="14.5608567"><ele>15.0</ele><time>2026-04-19T09:15:06.874Z</time></trkpt><trkpt lat="42.224295" lon="14.560925"><ele>15.0</ele><time>2026-04-19T09:15:09.874Z</time></trkpt><trkpt lat="42.2242533" lon="14.5609917"><ele>15.0</ele><time>2026-04-19T09:15:11.875Z</time></trkpt><trkpt lat="42.2242067" lon="14.561085"><ele>15.0</ele><time>2026-04-19T09:15:13.875Z</time></trkpt><trkpt lat="42.2241517" lon="14.5611867"><ele>15.0</ele><time>2026-04-19T09:15:15.875Z</time></trkpt><trkpt lat="42.2241" lon="14.5612867"><ele>15.0</ele><time>2026-04-19T09:15:17.875Z</time></trkpt><trkpt lat="42.2240683" lon="14.56138"><ele>15.0</ele><time>2026-04-19T09:15:19.875Z</time></trkpt><trkpt lat="42.2240283" lon="14.5614717"><ele>16.166666666666668</ele><time>2026-04-19T09:15:21.875Z</time></trkpt><trkpt lat="42.2239583" lon="14.5615217"><ele>17.333333333333332</ele><time>2026-04-19T09:15:23.875Z</time></trkpt><trkpt lat="42.2238867" lon="14.561525"><ele>18.5</ele><time>2026-04-19T09:15:26.874Z</time></trkpt><trkpt lat="42.2239467" lon="14.5616683"><ele>19.666666666666664</ele><time>2026-04-19T09:16:33.13Z</time></trkpt><trkpt lat="42.2238933" lon="14.5615867"><ele>20.833333333333332</ele><time>2026-04-19T09:16:35.375Z</time></trkpt><trkpt lat="42.2238317" lon="14.5616133"><ele>22.0</ele><time>2026-04-19T09:16:46.875Z</time></trkpt><trkpt lat="42.2238983" lon="14.5616133"><ele>22.0</ele><time>2026-04-19T09:17:26.874Z</time></trkpt><trkpt lat="42.2238583" lon="14.5617217"><ele>22.0</ele><time>2026-04-19T09:17:34.875Z</time></trkpt><trkpt lat="42.22383" lon="14.56181"><ele>22.0</ele><time>2026-04-19T09:17:36.874Z</time></trkpt><trkpt lat="42.22379" lon="14.56191"><ele>22.0</ele><time>2026-04-19T09:17:38.874Z</time></trkpt><trkpt lat="42.2237517" lon="14.56201"><ele>22.0</ele><time>2026-04-19T09:17:40.875Z</time></trkpt><trkpt lat="42.2236967" lon="14.562115"><ele>22.0</ele><time>2026-04-19T09:17:42.874Z</time></trkpt><trkpt lat="42.22362" lon="14.5622433"><ele>20.75</ele><time>2026-04-19T09:17:44.874Z</time></trkpt><trkpt lat="42.22356" lon="14.5623633"><ele>19.5</ele><time>2026-04-19T09:17:46.874Z</time></trkpt><trkpt lat="42.2234967" lon="14.5624933"><ele>18.25</ele><time>2026-04-19T09:17:48.874Z</time></trkpt><trkpt lat="42.223435" lon="14.5626267"><ele>17.0</ele><time>2026-04-19T09:17:50.874Z</time></trkpt><trkpt lat="42.2233733" lon="14.56277"><ele>17.0</ele><time>2026-04-19T09:17:52.875Z</time></trkpt><trkpt lat="42.22335" lon="14.5628633"><ele>17.0</ele><time>2026-04-19T09:17:53.874Z</time></trkpt><trkpt lat="42.2233217" lon="14.562945"><ele>17.0</ele><time>2026-04-19T09:17:54.874Z</time></trkpt><trkpt lat="42.2232917" lon="14.5630233"><ele>17.0</ele><time>2026-04-19T09:17:55.875Z</time></trkpt><trkpt lat="42.2232283" lon="14.56316"><ele>17.0</ele><time>2026-04-19T09:17:57.874Z</time></trkpt><trkpt lat="42.2231667" lon="14.563295"><ele>17.0</ele><time>2026-04-19T09:17:59.875Z</time></trkpt><trkpt lat="42.2231067" lon="14.5634383"><ele>17.25</ele><time>2026-04-19T09:18:01.875Z</time></trkpt><trkpt lat="42.2230417" lon="14.5635767"><ele>17.5</ele><time>2026-04-19T09:18:03.875Z</time></trkpt><trkpt lat="42.2229733" lon="14.5637167"><ele>17.75</ele><time>2026-04-19T09:18:05.874Z</time></trkpt><trkpt lat="42.22291" lon="14.5638533"><ele>18.0</ele><time>2026-04-19T09:18:07.875Z</time></trkpt><trkpt lat="42.2228483" lon="14.5639933"><ele>18.0</ele><time>2026-04-19T09:18:09.874Z</time></trkpt><trkpt lat="42.2227917" lon="14.5641217"><ele>18.0</ele><time>2026-04-19T09:18:11.874Z</time></trkpt><trkpt lat="42.2227317" lon="14.5642517"><ele>18.0</ele><time>2026-04-19T09:18:13.875Z</time></trkpt><trkpt lat="42.22267" lon="14.5643933"><ele>18.0</ele><time>2026-04-19T09:18:15.875Z</time></trkpt><trkpt lat="42.22261" lon="14.56454"><ele>17.333333333333332</ele><time>2026-04-19T09:18:17.875Z</time></trkpt><trkpt lat="42.2225783" lon="14.564615"><ele>16.666666666666668</ele><time>2026-04-19T09:18:18.875Z</time></trkpt><trkpt lat="42.2225267" lon="14.564765"><ele>16.0</ele><time>2026-04-19T09:18:20.874Z</time></trkpt><trkpt lat="42.222495" lon="14.564845"><ele>15.333333333333334</ele><time>2026-04-19T09:18:21.874Z</time></trkpt><trkpt lat="42.2224617" lon="14.5649183"><ele>14.666666666666668</ele><time>2026-04-19T09:18:22.875Z</time></trkpt><trkpt lat="42.2223933" lon="14.5650667"><ele>14.0</ele><time>2026-04-19T09:18:24.875Z</time></trkpt><trkpt lat="42.2223633" lon="14.5651433"><ele>14.0</ele><time>2026-04-19T09:18:25.875Z</time></trkpt><trkpt lat="42.2223317" lon="14.5652183"><ele>14.0</ele><time>2026-04-19T09:18:26.875Z</time></trkpt><trkpt lat="42.2222967" lon="14.565295"><ele>14.0</ele><time>2026-04-19T09:18:27.875Z</time></trkpt><trkpt lat="42.2222567" lon="14.5653683"><ele>14.0</ele><time>2026-04-19T09:18:28.875Z</time></trkpt><trkpt lat="42.2222183" lon="14.56545"><ele>14.0</ele><time>2026-04-19T09:18:29.874Z</time></trkpt><trkpt lat="42.2221817" lon="14.5655383"><ele>14.0</ele><time>2026-04-19T09:18:30.875Z</time></trkpt><trkpt lat="42.2221417" lon="14.5656333"><ele>14.0</ele><time>2026-04-19T09:18:31.875Z</time></trkpt><trkpt lat="42.2220967" lon="14.56572"><ele>13.142857142857142</ele><time>2026-04-19T09:18:32.875Z</time></trkpt><trkpt lat="42.222055" lon="14.565805"><ele>12.285714285714285</ele><time>2026-04-19T09:18:33.874Z</time></trkpt><trkpt lat="42.2220267" lon="14.565895"><ele>11.428571428571429</ele><time>2026-04-19T09:18:34.874Z</time></trkpt><trkpt lat="42.2219933" lon="14.565985"><ele>10.571428571428571</ele><time>2026-04-19T09:18:35.874Z</time></trkpt><trkpt lat="42.2219583" lon="14.5660733"><ele>9.714285714285714</ele><time>2026-04-19T09:18:36.875Z</time></trkpt><trkpt lat="42.22192" lon="14.5661583"><ele>8.857142857142858</ele><time>2026-04-19T09:18:37.875Z</time></trkpt><trkpt lat="42.2218767" lon="14.5662467"><ele>8.0</ele><time>2026-04-19T09:18:38.874Z</time></trkpt><trkpt lat="42.2218383" lon="14.5663383"><ele>7.999999999999999</ele><time>2026-04-19T09:18:39.874Z</time></trkpt><trkpt lat="42.2217983" lon="14.56643"><ele>8.0</ele><time>2026-04-19T09:18:40.875Z</time></trkpt><trkpt lat="42.2217583" lon="14.566525"><ele>8.0</ele><time>2026-04-19T09:18:41.875Z</time></trkpt><trkpt lat="42.22172" lon="14.5666183"><ele>8.0</ele><time>2026-04-19T09:18:42.875Z</time></trkpt><trkpt lat="42.2216817" lon="14.56671"><ele>7.999999999999999</ele><time>2026-04-19T09:18:43.874Z</time></trkpt><trkpt lat="42.2216433" lon="14.5668017"><ele>8.0</ele><time>2026-04-19T09:18:44.874Z</time></trkpt><trkpt lat="42.2216033" lon="14.5668917"><ele>7.999999999999999</ele><time>2026-04-19T09:18:45.874Z</time></trkpt><trkpt lat="42.2215617" lon="14.566985"><ele>8.0</ele><time>2026-04-19T09:18:46.875Z</time></trkpt><trkpt lat="42.2215217" lon="14.56708"><ele>8.0</ele><time>2026-04-19T09:18:47.874Z</time></trkpt><trkpt lat="42.221485" lon="14.5671733"><ele>8.0</ele><time>2026-04-19T09:18:48.874Z</time></trkpt><trkpt lat="42.2214517" lon="14.567265"><ele>7.999999999999999</ele><time>2026-04-19T09:18:49.875Z</time></trkpt><trkpt lat="42.2214117" lon="14.5673583"><ele>8.0</ele><time>2026-04-19T09:18:50.874Z</time></trkpt><trkpt lat="42.221375" lon="14.567455"><ele>8.833333333333332</ele><time>2026-04-19T09:18:51.874Z</time></trkpt><trkpt lat="42.2213317" lon="14.5675467"><ele>9.666666666666666</ele><time>2026-04-19T09:18:52.874Z</time></trkpt><trkpt lat="42.2212883" lon="14.56764"><ele>10.5</ele><time>2026-04-19T09:18:53.875Z</time></trkpt><trkpt lat="42.2212467" lon="14.567735"><ele>11.333333333333332</ele><time>2026-04-19T09:18:54.875Z</time></trkpt><trkpt lat="42.22121" lon="14.5678283"><ele>12.166666666666666</ele><time>2026-04-19T09:18:55.875Z</time></trkpt><trkpt lat="42.22117" lon="14.5679217"><ele>13.0</ele><time>2026-04-19T09:18:56.875Z</time></trkpt><trkpt lat="42.2211267" lon="14.5680117"><ele>12.999999999999998</ele><time>2026-04-19T09:18:57.875Z</time></trkpt><trkpt lat="42.221085" lon="14.5681"><ele>13.0</ele><time>2026-04-19T09:18:58.874Z</time></trkpt><trkpt lat="42.22104" lon="14.5681917"><ele>13.0</ele><time>2026-04-19T09:18:59.875Z</time></trkpt><trkpt lat="42.221005" lon="14.56828"><ele>13.0</ele><time>2026-04-19T09:19:00.874Z</time></trkpt><trkpt lat="42.2209683" lon="14.5683667"><ele>12.999999999999998</ele><time>2026-04-19T09:19:01.875Z</time></trkpt><trkpt lat="42.2209267" lon="14.56845"><ele>13.0</ele><time>2026-04-19T09:19:02.874Z</time></trkpt><trkpt lat="42.2208867" lon="14.5685283"><ele>13.0</ele><time>2026-04-19T09:19:03.875Z</time></trkpt><trkpt lat="42.2208483" lon="14.5686083"><ele>13.0</ele><time>2026-04-19T09:19:04.874Z</time></trkpt><trkpt lat="42.2208083" lon="14.5686933"><ele>13.0</ele><time>2026-04-19T09:19:05.874Z</time></trkpt><trkpt lat="42.22077" lon="14.568775"><ele>13.0</ele><time>2026-04-19T09:19:06.875Z</time></trkpt><trkpt lat="42.2207267" lon="14.5688567"><ele>13.0</ele><time>2026-04-19T09:19:07.875Z</time></trkpt><trkpt lat="42.2206833" lon="14.5689383"><ele>13.0</ele><time>2026-04-19T09:19:08.875Z</time></trkpt><trkpt lat="42.2206483" lon="14.5690267"><ele>13.0</ele><time>2026-04-19T09:19:09.875Z</time></trkpt><trkpt lat="42.2206067" lon="14.5691117"><ele>13.714285714285714</ele><time>2026-04-19T09:19:10.874Z</time></trkpt><trkpt lat="42.2205667" lon="14.569195"><ele>14.42857142857143</ele><time>2026-04-19T09:19:11.875Z</time></trkpt><trkpt lat="42.22053" lon="14.5692817"><ele>15.142857142857144</ele><time>2026-04-19T09:19:12.875Z</time></trkpt><trkpt lat="42.2204917" lon="14.56937"><ele>15.857142857142858</ele><time>2026-04-19T09:19:13.874Z</time></trkpt><trkpt lat="42.2204583" lon="14.5694583"><ele>16.571428571428573</ele><time>2026-04-19T09:19:14.875Z</time></trkpt><trkpt lat="42.2204167" lon="14.5695483"><ele>17.28571428571429</ele><time>2026-04-19T09:19:15.874Z</time></trkpt><trkpt lat="42.220375" lon="14.56963"><ele>18.0</ele><time>2026-04-19T09:19:16.875Z</time></trkpt><trkpt lat="42.22034" lon="14.5697067"><ele>18.000000000000004</ele><time>2026-04-19T09:19:17.874Z</time></trkpt><trkpt lat="42.2203067" lon="14.569785"><ele>18.0</ele><time>2026-04-19T09:19:18.875Z</time></trkpt><trkpt lat="42.2202667" lon="14.56986"><ele>18.0</ele><time>2026-04-19T09:19:19.875Z</time></trkpt><trkpt lat="42.220225" lon="14.56994"><ele>18.0</ele><time>2026-04-19T09:19:20.874Z</time></trkpt><trkpt lat="42.22017" lon="14.570015"><ele>18.0</ele><time>2026-04-19T09:19:21.874Z</time></trkpt><trkpt lat="42.220125" lon="14.570085"><ele>18.000000000000004</ele><time>2026-04-19T09:19:22.874Z</time></trkpt><trkpt lat="42.2200817" lon="14.5701517"><ele>18.0</ele><time>2026-04-19T09:19:23.874Z</time></trkpt><trkpt lat="42.220035" lon="14.5702183"><ele>18.0</ele><time>2026-04-19T09:19:24.875Z</time></trkpt><trkpt lat="42.21999" lon="14.5702817"><ele>18.0</ele><time>2026-04-19T09:19:25.875Z</time></trkpt><trkpt lat="42.2199133" lon="14.5704067"><ele>18.0</ele><time>2026-04-19T09:19:27.874Z</time></trkpt><trkpt lat="42.21983" lon="14.570525"><ele>18.0</ele><time>2026-04-19T09:19:29.875Z</time></trkpt><trkpt lat="42.21975" lon="14.5706317"><ele>18.0</ele><time>2026-04-19T09:19:31.874Z</time></trkpt><trkpt lat="42.2196717" lon="14.57074"><ele>17.8</ele><time>2026-04-19T09:19:33.875Z</time></trkpt><trkpt lat="42.2195867" lon="14.5708483"><ele>17.6</ele><time>2026-04-19T09:19:35.875Z</time></trkpt><trkpt lat="42.2195017" lon="14.5709517"><ele>17.4</ele><time>2026-04-19T09:19:37.874Z</time></trkpt><trkpt lat="42.2194233" lon="14.5710667"><ele>17.2</ele><time>2026-04-19T09:19:39.874Z</time></trkpt><trkpt lat="42.2193817" lon="14.5711333"><ele>17.0</ele><time>2026-04-19T09:19:40.874Z</time></trkpt><trkpt lat="42.2193367" lon="14.5711983"><ele>17.0</ele><time>2026-04-19T09:19:41.875Z</time></trkpt><trkpt lat="42.2192917" lon="14.5712583"><ele>17.0</ele><time>2026-04-19T09:19:42.874Z</time></trkpt><trkpt lat="42.2192167" lon="14.571365"><ele>17.0</ele><time>2026-04-19T09:19:44.875Z</time></trkpt><trkpt lat="42.2191483" lon="14.57148"><ele>17.0</ele><time>2026-04-19T09:19:46.874Z</time></trkpt><trkpt lat="42.21907" lon="14.5715833"><ele>17.0</ele><time>2026-04-19T09:19:48.875Z</time></trkpt><trkpt lat="42.2189917" lon="14.5716967"><ele>17.6</ele><time>2026-04-19T09:19:50.875Z</time></trkpt><trkpt lat="42.2189217" lon="14.5718133"><ele>18.2</ele><time>2026-04-19T09:19:52.875Z</time></trkpt><trkpt lat="42.2188567" lon="14.5719217"><ele>18.8</ele><time>2026-04-19T09:19:54.875Z</time></trkpt><trkpt lat="42.2187967" lon="14.5720467"><ele>19.4</ele><time>2026-04-19T09:19:56.875Z</time></trkpt><trkpt lat="42.2187417" lon="14.5721733"><ele>20.0</ele><time>2026-04-19T09:19:58.874Z</time></trkpt><trkpt lat="42.21869" lon="14.5723"><ele>20.0</ele><time>2026-04-19T09:20:00.875Z</time></trkpt><trkpt lat="42.2186433" lon="14.5724283"><ele>20.0</ele><time>2026-04-19T09:20:02.875Z</time></trkpt><trkpt lat="42.2185883" lon="14.5725517"><ele>20.0</ele><time>2026-04-19T09:20:04.875Z</time></trkpt><trkpt lat="42.2185383" lon="14.572675"><ele>20.0</ele><time>2026-04-19T09:20:06.875Z</time></trkpt><trkpt lat="42.2184867" lon="14.5728067"><ele>20.0</ele><time>2026-04-19T09:20:08.875Z</time></trkpt><trkpt lat="42.2184383" lon="14.5729333"><ele>19.8</ele><time>2026-04-19T09:20:10.875Z</time></trkpt><trkpt lat="42.2183917" lon="14.5730567"><ele>19.6</ele><time>2026-04-19T09:20:12.875Z</time></trkpt><trkpt lat="42.2183383" lon="14.5731767"><ele>19.4</ele><time>2026-04-19T09:20:14.874Z</time></trkpt><trkpt lat="42.218285" lon="14.573305"><ele>19.2</ele><time>2026-04-19T09:20:16.875Z</time></trkpt><trkpt lat="42.2182333" lon="14.5734367"><ele>19.0</ele><time>2026-04-19T09:20:18.875Z</time></trkpt><trkpt lat="42.21818" lon="14.5735767"><ele>21.0</ele><time>2026-04-19T09:20:20.875Z</time></trkpt><trkpt lat="42.2181267" lon="14.5737133"><ele>23.0</ele><time>2026-04-19T09:20:22.875Z</time></trkpt><trkpt lat="42.2180667" lon="14.5738417"><ele>25.0</ele><time>2026-04-19T09:20:24.875Z</time></trkpt><trkpt lat="42.2180117" lon="14.5739717"><ele>27.0</ele><time>2026-04-19T09:20:26.875Z</time></trkpt><trkpt lat="42.217945" lon="14.5741133"><ele>27.0</ele><time>2026-04-19T09:20:28.875Z</time></trkpt><trkpt lat="42.2178717" lon="14.574245"><ele>27.0</ele><time>2026-04-19T09:20:30.874Z</time></trkpt><trkpt lat="42.2177933" lon="14.5743767"><ele>27.0</ele><time>2026-04-19T09:20:32.874Z</time></trkpt><trkpt lat="42.21771" lon="14.5744933"><ele>27.0</ele><time>2026-04-19T09:20:34.874Z</time></trkpt><trkpt lat="42.2176167" lon="14.5745983"><ele>28.0</ele><time>2026-04-19T09:20:36.875Z</time></trkpt><trkpt lat="42.2175217" lon="14.5747017"><ele>29.0</ele><time>2026-04-19T09:20:38.874Z</time></trkpt><trkpt lat="42.2174217" lon="14.574795"><ele>30.0</ele><time>2026-04-19T09:20:40.874Z</time></trkpt><trkpt lat="42.217335" lon="14.5748917"><ele>31.0</ele><time>2026-04-19T09:20:42.875Z</time></trkpt><trkpt lat="42.217245" lon="14.5749917"><ele>31.000000000000004</ele><time>2026-04-19T09:20:44.875Z</time></trkpt><trkpt lat="42.217155" lon="14.5751017"><ele>31.0</ele><time>2026-04-19T09:20:46.874Z</time></trkpt><trkpt lat="42.2171133" lon="14.57517"><ele>31.0</ele><time>2026-04-19T09:20:47.875Z</time></trkpt><trkpt lat="42.217075" lon="14.5752433"><ele>31.0</ele><time>2026-04-19T09:20:48.875Z</time></trkpt><trkpt lat="42.2170417" lon="14.5753183"><ele>31.000000000000004</ele><time>2026-04-19T09:20:49.875Z</time></trkpt><trkpt lat="42.21699" lon="14.575475"><ele>31.0</ele><time>2026-04-19T09:20:51.874Z</time></trkpt><trkpt lat="42.2169733" lon="14.57556"><ele>30.8</ele><time>2026-04-19T09:20:52.875Z</time></trkpt><trkpt lat="42.21695" lon="14.5757233"><ele>30.6</ele><time>2026-04-19T09:20:54.875Z</time></trkpt><trkpt lat="42.2169367" lon="14.5758833"><ele>30.4</ele><time>2026-04-19T09:20:56.875Z</time></trkpt><trkpt lat="42.2169333" lon="14.5759683"><ele>30.2</ele><time>2026-04-19T09:20:57.874Z</time></trkpt><trkpt lat="42.2169233" lon="14.576135"><ele>30.0</ele><time>2026-04-19T09:20:59.874Z</time></trkpt><trkpt lat="42.21692" lon="14.576305"><ele>30.0</ele><time>2026-04-19T09:21:01.875Z</time></trkpt><trkpt lat="42.216915" lon="14.57639"><ele>30.0</ele><time>2026-04-19T09:21:02.875Z</time></trkpt><trkpt lat="42.2169133" lon="14.5764867"><ele>30.0</ele><time>2026-04-19T09:21:03.875Z</time></trkpt><trkpt lat="42.2169117" lon="14.5765733"><ele>30.0</ele><time>2026-04-19T09:21:04.874Z</time></trkpt><trkpt lat="42.21689" lon="14.5767317"><ele>30.0</ele><time>2026-04-19T09:21:06.875Z</time></trkpt><trkpt lat="42.2168567" lon="14.5768933"><ele>30.0</ele><time>2026-04-19T09:21:08.874Z</time></trkpt><trkpt lat="42.2168367" lon="14.5769767"><ele>28.333333333333332</ele><time>2026-04-19T09:21:09.874Z</time></trkpt><trkpt lat="42.2167867" lon="14.57712"><ele>26.666666666666668</ele><time>2026-04-19T09:21:11.874Z</time></trkpt><trkpt lat="42.2167267" lon="14.5772633"><ele>25.0</ele><time>2026-04-19T09:21:13.875Z</time></trkpt><trkpt lat="42.2166883" lon="14.5773333"><ele>23.333333333333336</ele><time>2026-04-19T09:21:14.875Z</time></trkpt><trkpt lat="42.2166517" lon="14.57741"><ele>21.666666666666668</ele><time>2026-04-19T09:21:15.875Z</time></trkpt><trkpt lat="42.2166117" lon="14.5774817"><ele>20.0</ele><time>2026-04-19T09:21:16.875Z</time></trkpt><trkpt lat="42.2165367" lon="14.5776217"><ele>20.0</ele><time>2026-04-19T09:21:18.875Z</time></trkpt><trkpt lat="42.216495" lon="14.5776917"><ele>20.0</ele><time>2026-04-19T09:21:19.875Z</time></trkpt><trkpt lat="42.2164533" lon="14.5777683"><ele>20.0</ele><time>2026-04-19T09:21:20.874Z</time></trkpt><trkpt lat="42.21641" lon="14.57785"><ele>20.0</ele><time>2026-04-19T09:21:21.874Z</time></trkpt><trkpt lat="42.21637" lon="14.57793"><ele>20.0</ele><time>2026-04-19T09:21:22.874Z</time></trkpt><trkpt lat="42.2163283" lon="14.5779983"><ele>20.0</ele><time>2026-04-19T09:21:23.875Z</time></trkpt><trkpt lat="42.2162883" lon="14.5780733"><ele>20.0</ele><time>2026-04-19T09:21:24.875Z</time></trkpt><trkpt lat="42.216255" lon="14.5781483"><ele>20.0</ele><time>2026-04-19T09:21:25.875Z</time></trkpt><trkpt lat="42.2162183" lon="14.5782267"><ele>20.0</ele><time>2026-04-19T09:21:26.875Z</time></trkpt><trkpt lat="42.21618" lon="14.5783033"><ele>20.0</ele><time>2026-04-19T09:21:27.875Z</time></trkpt><trkpt lat="42.2161433" lon="14.578385"><ele>20.0</ele><time>2026-04-19T09:21:28.875Z</time></trkpt><trkpt lat="42.216105" lon="14.5784633"><ele>20.0</ele><time>2026-04-19T09:21:29.875Z</time></trkpt><trkpt lat="42.2160617" lon="14.57855"><ele>20.0</ele><time>2026-04-19T09:21:30.874Z</time></trkpt><trkpt lat="42.21602" lon="14.5786367"><ele>20.0</ele><time>2026-04-19T09:21:31.874Z</time></trkpt><trkpt lat="42.2159767" lon="14.578725"><ele>20.0</ele><time>2026-04-19T09:21:32.875Z</time></trkpt><trkpt lat="42.21593" lon="14.578815"><ele>20.0</ele><time>2026-04-19T09:21:33.875Z</time></trkpt><trkpt lat="42.2158833" lon="14.57891"><ele>20.0</ele><time>2026-04-19T09:21:34.875Z</time></trkpt><trkpt lat="42.215845" lon="14.5790033"><ele>20.0</ele><time>2026-04-19T09:21:35.874Z</time></trkpt><trkpt lat="42.2158" lon="14.579095"><ele>20.0</ele><time>2026-04-19T09:21:36.875Z</time></trkpt><trkpt lat="42.2157483" lon="14.579185"><ele>20.0</ele><time>2026-04-19T09:21:37.875Z</time></trkpt><trkpt lat="42.2157" lon="14.5792733"><ele>20.5</ele><time>2026-04-19T09:21:38.875Z</time></trkpt><trkpt lat="42.2156533" lon="14.579355"><ele>21.0</ele><time>2026-04-19T09:21:39.874Z</time></trkpt><trkpt lat="42.2156067" lon="14.57944"><ele>21.5</ele><time>2026-04-19T09:21:40.874Z</time></trkpt><trkpt lat="42.2155567" lon="14.5795233"><ele>22.0</ele><time>2026-04-19T09:21:41.875Z</time></trkpt><trkpt lat="42.2155133" lon="14.57961"><ele>22.5</ele><time>2026-04-19T09:21:42.875Z</time></trkpt><trkpt lat="42.2154717" lon="14.5796983"><ele>23.0</ele><time>2026-04-19T09:21:43.875Z</time></trkpt><trkpt lat="42.21543" lon="14.5797867"><ele>23.0</ele><time>2026-04-19T09:21:44.874Z</time></trkpt><trkpt lat="42.215385" lon="14.5798783"><ele>23.0</ele><time>2026-04-19T09:21:45.874Z</time></trkpt><trkpt lat="42.2153417" lon="14.5799667"><ele>23.0</ele><time>2026-04-19T09:21:46.875Z</time></trkpt><trkpt lat="42.2152983" lon="14.5800533"><ele>23.0</ele><time>2026-04-19T09:21:47.874Z</time></trkpt><trkpt lat="42.21525" lon="14.58014"><ele>23.0</ele><time>2026-04-19T09:21:48.875Z</time></trkpt><trkpt lat="42.215205" lon="14.58023"><ele>23.0</ele><time>2026-04-19T09:21:49.874Z</time></trkpt><trkpt lat="42.2151633" lon="14.58032"><ele>22.333333333333336</ele><time>2026-04-19T09:21:50.875Z</time></trkpt><trkpt lat="42.21512" lon="14.580405"><ele>21.666666666666668</ele><time>2026-04-19T09:21:51.874Z</time></trkpt><trkpt lat="42.2150783" lon="14.5804917"><ele>21.0</ele><time>2026-04-19T09:21:52.875Z</time></trkpt><trkpt lat="42.21503" lon="14.58058"><ele>20.333333333333332</ele><time>2026-04-19T09:21:53.874Z</time></trkpt><trkpt lat="42.2149833" lon="14.5806633"><ele>19.666666666666664</ele><time>2026-04-19T09:21:54.875Z</time></trkpt><trkpt lat="42.2149317" lon="14.580755"><ele>19.0</ele><time>2026-04-19T09:21:55.875Z</time></trkpt><trkpt lat="42.21488" lon="14.5808417"><ele>19.0</ele><time>2026-04-19T09:21:56.875Z</time></trkpt><trkpt lat="42.21483" lon="14.58094"><ele>19.0</ele><time>2026-04-19T09:21:57.875Z</time></trkpt><trkpt lat="42.214785" lon="14.5810383"><ele>19.0</ele><time>2026-04-19T09:21:58.874Z</time></trkpt><trkpt lat="42.2147367" lon="14.5811317"><ele>19.0</ele><time>2026-04-19T09:21:59.875Z</time></trkpt><trkpt lat="42.2146867" lon="14.5812267"><ele>19.0</ele><time>2026-04-19T09:22:00.874Z</time></trkpt><trkpt lat="42.2146367" lon="14.58132"><ele>19.0</ele><time>2026-04-19T09:22:01.875Z</time></trkpt><trkpt lat="42.2145867" lon="14.5814083"><ele>19.857142857142858</ele><time>2026-04-19T09:22:02.874Z</time></trkpt><trkpt lat="42.2145467" lon="14.5815017"><ele>20.714285714285715</ele><time>2026-04-19T09:22:03.875Z</time></trkpt><trkpt lat="42.21451" lon="14.5815917"><ele>21.571428571428573</ele><time>2026-04-19T09:22:04.875Z</time></trkpt><trkpt lat="42.214475" lon="14.58168"><ele>22.42857142857143</ele><time>2026-04-19T09:22:05.874Z</time></trkpt><trkpt lat="42.2144383" lon="14.581765"><ele>23.285714285714285</ele><time>2026-04-19T09:22:06.875Z</time></trkpt><trkpt lat="42.2144017" lon="14.5818483"><ele>24.142857142857146</ele><time>2026-04-19T09:22:07.875Z</time></trkpt><trkpt lat="42.2143633" lon="14.581925"><ele>25.0</ele><time>2026-04-19T09:22:08.875Z</time></trkpt><trkpt lat="42.2143233" lon="14.5820017"><ele>24.000000000000004</ele><time>2026-04-19T09:22:09.875Z</time></trkpt><trkpt lat="42.214285" lon="14.582075"><ele>23.0</ele><time>2026-04-19T09:22:10.874Z</time></trkpt><trkpt lat="42.2142167" lon="14.5821983"><ele>22.0</ele><time>2026-04-19T09:22:12.875Z</time></trkpt><trkpt lat="42.2141667" lon="14.58229"><ele>21.0</ele><time>2026-04-19T09:22:14.874Z</time></trkpt><trkpt lat="42.21412" lon="14.58237"><ele>20.0</ele><time>2026-04-19T09:22:16.875Z</time></trkpt><trkpt lat="42.2140783" lon="14.5824483"><ele>19.0</ele><time>2026-04-19T09:22:18.875Z</time></trkpt><trkpt lat="42.2141067" lon="14.5825267"><ele>19.0</ele><time>2026-04-19T09:22:20.875Z</time></trkpt><trkpt lat="42.21417" lon="14.5825067"><ele>19.0</ele><time>2026-04-19T09:22:22.875Z</time></trkpt><trkpt lat="42.2142217" lon="14.5824417"><ele>19.0</ele><time>2026-04-19T09:22:24.874Z</time></trkpt><trkpt lat="42.2142683" lon="14.5823817"><ele>19.0</ele><time>2026-04-19T09:22:26.875Z</time></trkpt><trkpt lat="42.2143467" lon="14.5823883"><ele>19.0</ele><time>2026-04-19T09:22:28.874Z</time></trkpt><trkpt lat="42.214435" lon="14.5824067"><ele>19.0</ele><time>2026-04-19T09:22:30.875Z</time></trkpt><trkpt lat="42.21452" lon="14.58246"><ele>19.0</ele><time>2026-04-19T09:22:32.875Z</time></trkpt><trkpt lat="42.2146033" lon="14.5825233"><ele>19.0</ele><time>2026-04-19T09:22:34.875Z</time></trkpt><trkpt lat="42.214675" lon="14.5825817"><ele>19.0</ele><time>2026-04-19T09:22:36.874Z</time></trkpt><trkpt lat="42.2147483" lon="14.5825883"><ele>19.0</ele><time>2026-04-19T09:22:38.875Z</time></trkpt><trkpt lat="42.2148333" lon="14.5825533"><ele>19.0</ele><time>2026-04-19T09:22:41.875Z</time></trkpt><trkpt lat="42.21476" lon="14.58266"><ele>19.0</ele><time>2026-04-19T09:22:49.874Z</time></trkpt><trkpt lat="42.2147" lon="14.5827733"><ele>18.333333333333332</ele><time>2026-04-19T09:22:51.874Z</time></trkpt><trkpt lat="42.214675" lon="14.5828533"><ele>17.666666666666664</ele><time>2026-04-19T09:22:52.874Z</time></trkpt><trkpt lat="42.2145967" lon="14.583"><ele>17.0</ele><time>2026-04-19T09:22:54.874Z</time></trkpt><trkpt lat="42.21455" lon="14.583075"><ele>16.333333333333332</ele><time>2026-04-19T09:22:55.875Z</time></trkpt><trkpt lat="42.21451" lon="14.5831517"><ele>15.666666666666666</ele><time>2026-04-19T09:22:56.875Z</time></trkpt><trkpt lat="42.2144667" lon="14.5832283"><ele>15.0</ele><time>2026-04-19T09:22:57.875Z</time></trkpt><trkpt lat="42.21442" lon="14.5833017"><ele>15.0</ele><time>2026-04-19T09:22:58.874Z</time></trkpt><trkpt lat="42.2143717" lon="14.583375"><ele>15.0</ele><time>2026-04-19T09:22:59.875Z</time></trkpt><trkpt lat="42.2143267" lon="14.5834467"><ele>15.0</ele><time>2026-04-19T09:23:00.874Z</time></trkpt><trkpt lat="42.2142833" lon="14.5835183"><ele>15.0</ele><time>2026-04-19T09:23:01.875Z</time></trkpt><trkpt lat="42.2142417" lon="14.583595"><ele>15.0</ele><time>2026-04-19T09:23:02.874Z</time></trkpt><trkpt lat="42.2141983" lon="14.583665"><ele>15.0</ele><time>2026-04-19T09:23:03.875Z</time></trkpt><trkpt lat="42.2141567" lon="14.583735"><ele>15.0</ele><time>2026-04-19T09:23:04.875Z</time></trkpt><trkpt lat="42.214115" lon="14.5838017"><ele>16.166666666666668</ele><time>2026-04-19T09:23:05.875Z</time></trkpt><trkpt lat="42.2140333" lon="14.5839283"><ele>17.333333333333332</ele><time>2026-04-19T09:23:07.875Z</time></trkpt><trkpt lat="42.2139883" lon="14.5839967"><ele>18.5</ele><time>2026-04-19T09:23:08.875Z</time></trkpt><trkpt lat="42.2139433" lon="14.5840617"><ele>19.666666666666664</ele><time>2026-04-19T09:23:09.875Z</time></trkpt><trkpt lat="42.2139" lon="14.5841283"><ele>20.833333333333332</ele><time>2026-04-19T09:23:10.875Z</time></trkpt><trkpt lat="42.213855" lon="14.584195"><ele>22.0</ele><time>2026-04-19T09:23:11.874Z</time></trkpt><trkpt lat="42.2138133" lon="14.584265"><ele>22.0</ele><time>2026-04-19T09:23:12.875Z</time></trkpt><trkpt lat="42.21377" lon="14.5843317"><ele>22.0</ele><time>2026-04-19T09:23:13.875Z</time></trkpt><trkpt lat="42.2136833" lon="14.5844617"><ele>22.0</ele><time>2026-04-19T09:23:15.874Z</time></trkpt><trkpt lat="42.2136383" lon="14.58453"><ele>22.0</ele><time>2026-04-19T09:23:16.875Z</time></trkpt><trkpt lat="42.213595" lon="14.5845967"><ele>22.0</ele><time>2026-04-19T09:23:17.875Z</time></trkpt><trkpt lat="42.2135167" lon="14.58473"><ele>20.571428571428573</ele><time>2026-04-19T09:23:19.875Z</time></trkpt><trkpt lat="42.21348" lon="14.5848017"><ele>19.142857142857142</ele><time>2026-04-19T09:23:20.875Z</time></trkpt><trkpt lat="42.2134367" lon="14.5848767"><ele>17.714285714285715</ele><time>2026-04-19T09:23:21.875Z</time></trkpt><trkpt lat="42.213395" lon="14.5849533"><ele>16.285714285714285</ele><time>2026-04-19T09:23:22.875Z</time></trkpt><trkpt lat="42.213355" lon="14.5850317"><ele>14.857142857142858</ele><time>2026-04-19T09:23:23.875Z</time></trkpt><trkpt lat="42.2133217" lon="14.585105"><ele>13.428571428571427</ele><time>2026-04-19T09:23:24.875Z</time></trkpt><trkpt lat="42.2132817" lon="14.58518"><ele>12.0</ele><time>2026-04-19T09:23:25.874Z</time></trkpt><trkpt lat="42.213245" lon="14.5852567"><ele>12.0</ele><time>2026-04-19T09:23:26.874Z</time></trkpt><trkpt lat="42.21321" lon="14.5853283"><ele>12.0</ele><time>2026-04-19T09:23:27.874Z</time></trkpt><trkpt lat="42.213145" lon="14.585455"><ele>12.0</ele><time>2026-04-19T09:23:29.875Z</time></trkpt><trkpt lat="42.213085" lon="14.5855783"><ele>12.0</ele><time>2026-04-19T09:23:31.875Z</time></trkpt><trkpt lat="42.21303" lon="14.5856983"><ele>12.0</ele><time>2026-04-19T09:23:33.874Z</time></trkpt><trkpt lat="42.2129717" lon="14.5858117"><ele>11.4</ele><time>2026-04-19T09:23:35.875Z</time></trkpt><trkpt lat="42.21292" lon="14.5859117"><ele>10.799999999999999</ele><time>2026-04-19T09:23:37.875Z</time></trkpt><trkpt lat="42.2128733" lon="14.5860133"><ele>10.2</ele><time>2026-04-19T09:23:39.875Z</time></trkpt><trkpt lat="42.2128183" lon="14.58611"><ele>9.6</ele><time>2026-04-19T09:23:41.875Z</time></trkpt><trkpt lat="42.2127617" lon="14.5862233"><ele>9.0</ele><time>2026-04-19T09:23:43.875Z</time></trkpt><trkpt lat="42.2127067" lon="14.58634"><ele>9.0</ele><time>2026-04-19T09:23:45.875Z</time></trkpt><trkpt lat="42.2126533" lon="14.5864567"><ele>9.0</ele><time>2026-04-19T09:23:47.875Z</time></trkpt><trkpt lat="42.2125883" lon="14.5865733"><ele>9.0</ele><time>2026-04-19T09:23:49.874Z</time></trkpt><trkpt lat="42.2125267" lon="14.5867117"><ele>9.0</ele><time>2026-04-19T09:23:51.875Z</time></trkpt><trkpt lat="42.2124617" lon="14.5868333"><ele>9.0</ele><time>2026-04-19T09:23:53.875Z</time></trkpt><trkpt lat="42.2124" lon="14.586965"><ele>8.2</ele><time>2026-04-19T09:23:55.875Z</time></trkpt><trkpt lat="42.2123317" lon="14.5870883"><ele>7.4</ele><time>2026-04-19T09:23:57.875Z</time></trkpt><trkpt lat="42.2122767" lon="14.5872167"><ele>6.6</ele><time>2026-04-19T09:23:59.874Z</time></trkpt><trkpt lat="42.2122217" lon="14.5873367"><ele>5.8</ele><time>2026-04-19T09:24:01.875Z</time></trkpt><trkpt lat="42.2121667" lon="14.587455"><ele>5.0</ele><time>2026-04-19T09:24:03.875Z</time></trkpt><trkpt lat="42.2120983" lon="14.5875883"><ele>7.0</ele><time>2026-04-19T09:24:05.875Z</time></trkpt><trkpt lat="42.2120317" lon="14.5877133"><ele>9.0</ele><time>2026-04-19T09:24:07.875Z</time></trkpt><trkpt lat="42.21197" lon="14.5878367"><ele>11.0</ele><time>2026-04-19T09:24:09.874Z</time></trkpt><trkpt lat="42.2119133" lon="14.58795"><ele>13.0</ele><time>2026-04-19T09:24:11.875Z</time></trkpt><trkpt lat="42.21185" lon="14.5880667"><ele>15.0</ele><time>2026-04-19T09:24:13.874Z</time></trkpt><trkpt lat="42.211785" lon="14.5882033"><ele>15.0</ele><time>2026-04-19T09:24:15.874Z</time></trkpt><trkpt lat="42.2117267" lon="14.58834"><ele>15.0</ele><time>2026-04-19T09:24:17.875Z</time></trkpt><trkpt lat="42.2116667" lon="14.58847"><ele>15.0</ele><time>2026-04-19T09:24:19.875Z</time></trkpt><trkpt lat="42.211605" lon="14.588595"><ele>15.0</ele><time>2026-04-19T09:24:21.875Z</time></trkpt><trkpt lat="42.211565" lon="14.5886633"><ele>15.0</ele><time>2026-04-19T09:24:22.875Z</time></trkpt><trkpt lat="42.2114983" lon="14.588785"><ele>17.25</ele><time>2026-04-19T09:24:24.875Z</time></trkpt><trkpt lat="42.21143" lon="14.5889133"><ele>19.5</ele><time>2026-04-19T09:24:26.874Z</time></trkpt><trkpt lat="42.21136" lon="14.5890483"><ele>21.75</ele><time>2026-04-19T09:24:28.875Z</time></trkpt><trkpt lat="42.2112983" lon="14.589195"><ele>24.0</ele><time>2026-04-19T09:24:30.875Z</time></trkpt><trkpt lat="42.2112367" lon="14.5893333"><ele>24.0</ele><time>2026-04-19T09:24:32.875Z</time></trkpt><trkpt lat="42.211165" lon="14.589475"><ele>24.0</ele><time>2026-04-19T09:24:34.875Z</time></trkpt><trkpt lat="42.21113" lon="14.5895633"><ele>24.0</ele><time>2026-04-19T09:24:35.875Z</time></trkpt><trkpt lat="42.2110983" lon="14.589645"><ele>24.0</ele><time>2026-04-19T09:24:36.875Z</time></trkpt><trkpt lat="42.2110633" lon="14.589725"><ele>24.0</ele><time>2026-04-19T09:24:37.874Z</time></trkpt><trkpt lat="42.21103" lon="14.5898017"><ele>24.0</ele><time>2026-04-19T09:24:38.875Z</time></trkpt><trkpt lat="42.211" lon="14.5898783"><ele>22.333333333333332</ele><time>2026-04-19T09:24:39.875Z</time></trkpt><trkpt lat="42.21097" lon="14.589955"><ele>20.666666666666668</ele><time>2026-04-19T09:24:40.874Z</time></trkpt><trkpt lat="42.210915" lon="14.5901133"><ele>19.0</ele><time>2026-04-19T09:24:42.874Z</time></trkpt><trkpt lat="42.210885" lon="14.5902017"><ele>17.333333333333336</ele><time>2026-04-19T09:24:43.875Z</time></trkpt><trkpt lat="42.21085" lon="14.5902933"><ele>15.666666666666668</ele><time>2026-04-19T09:24:44.875Z</time></trkpt><trkpt lat="42.210815" lon="14.5903883"><ele>14.0</ele><time>2026-04-19T09:24:45.874Z</time></trkpt><trkpt lat="42.2107783" lon="14.5904917"><ele>12.500000000000002</ele><time>2026-04-19T09:24:46.875Z</time></trkpt><trkpt lat="42.21075" lon="14.5905933"><ele>11.0</ele><time>2026-04-19T09:24:47.875Z</time></trkpt><trkpt lat="42.2107217" lon="14.5906983"><ele>9.5</ele><time>2026-04-19T09:24:48.875Z</time></trkpt><trkpt lat="42.2106917" lon="14.5908"><ele>8.0</ele><time>2026-04-19T09:24:49.874Z</time></trkpt><trkpt lat="42.2106583" lon="14.5908967"><ele>6.5</ele><time>2026-04-19T09:24:50.874Z</time></trkpt><trkpt lat="42.2106233" lon="14.5910067"><ele>5.0</ele><time>2026-04-19T09:24:51.875Z</time></trkpt><trkpt lat="42.2105833" lon="14.5911"><ele>6.666666666666667</ele><time>2026-04-19T09:24:52.875Z</time></trkpt><trkpt lat="42.2105383" lon="14.5911967"><ele>8.333333333333334</ele><time>2026-04-19T09:24:53.874Z</time></trkpt><trkpt lat="42.2104967" lon="14.5912867"><ele>10.0</ele><time>2026-04-19T09:24:54.875Z</time></trkpt><trkpt lat="42.210455" lon="14.5913767"><ele>11.666666666666666</ele><time>2026-04-19T09:24:55.875Z</time></trkpt><trkpt lat="42.2104183" lon="14.5914683"><ele>13.333333333333334</ele><time>2026-04-19T09:24:56.875Z</time></trkpt><trkpt lat="42.2103883" lon="14.5915583"><ele>15.0</ele><time>2026-04-19T09:24:57.875Z</time></trkpt><trkpt lat="42.210355" lon="14.5916433"><ele>15.0</ele><time>2026-04-19T09:24:58.875Z</time></trkpt><trkpt lat="42.2103167" lon="14.5917267"><ele>15.0</ele><time>2026-04-19T09:24:59.875Z</time></trkpt><trkpt lat="42.2102817" lon="14.59181"><ele>15.0</ele><time>2026-04-19T09:25:00.875Z</time></trkpt><trkpt lat="42.21024" lon="14.5919"><ele>15.0</ele><time>2026-04-19T09:25:01.874Z</time></trkpt><trkpt lat="42.2101983" lon="14.5919917"><ele>15.0</ele><time>2026-04-19T09:25:02.875Z</time></trkpt><trkpt lat="42.2101533" lon="14.5920833"><ele>15.0</ele><time>2026-04-19T09:25:03.875Z</time></trkpt><trkpt lat="42.2101083" lon="14.592175"><ele>13.666666666666666</ele><time>2026-04-19T09:25:04.874Z</time></trkpt><trkpt lat="42.2100617" lon="14.59227"><ele>12.333333333333334</ele><time>2026-04-19T09:25:05.875Z</time></trkpt><trkpt lat="42.2100083" lon="14.5923667"><ele>11.0</ele><time>2026-04-19T09:25:06.875Z</time></trkpt><trkpt lat="42.20995" lon="14.592455"><ele>9.666666666666668</ele><time>2026-04-19T09:25:07.874Z</time></trkpt><trkpt lat="42.209905" lon="14.5925533"><ele>8.333333333333334</ele><time>2026-04-19T09:25:08.874Z</time></trkpt><trkpt lat="42.2098567" lon="14.5926483"><ele>7.0</ele><time>2026-04-19T09:25:09.874Z</time></trkpt><trkpt lat="42.2098083" lon="14.5927417"><ele>8.0</ele><time>2026-04-19T09:25:10.875Z</time></trkpt><trkpt lat="42.2097567" lon="14.5928317"><ele>9.0</ele><time>2026-04-19T09:25:11.875Z</time></trkpt><trkpt lat="42.2097083" lon="14.592915"><ele>10.0</ele><time>2026-04-19T09:25:12.874Z</time></trkpt><trkpt lat="42.2096617" lon="14.5930033"><ele>11.0</ele><time>2026-04-19T09:25:13.875Z</time></trkpt><trkpt lat="42.2096133" lon="14.5930917"><ele>11.999999999999998</ele><time>2026-04-19T09:25:14.875Z</time></trkpt><trkpt lat="42.20956" lon="14.59318"><ele>13.0</ele><time>2026-04-19T09:25:15.875Z</time></trkpt><trkpt lat="42.2095083" lon="14.5932683"><ele>12.999999999999998</ele><time>2026-04-19T09:25:16.874Z</time></trkpt><trkpt lat="42.20946" lon="14.5933533"><ele>13.0</ele><time>2026-04-19T09:25:17.875Z</time></trkpt><trkpt lat="42.2094083" lon="14.593425"><ele>13.0</ele><time>2026-04-19T09:25:18.875Z</time></trkpt><trkpt lat="42.2093567" lon="14.59351"><ele>13.0</ele><time>2026-04-19T09:25:19.874Z</time></trkpt><trkpt lat="42.2093117" lon="14.5936017"><ele>12.999999999999998</ele><time>2026-04-19T09:25:20.874Z</time></trkpt><trkpt lat="42.2092633" lon="14.59369"><ele>13.0</ele><time>2026-04-19T09:25:21.875Z</time></trkpt><trkpt lat="42.2092167" lon="14.593775"><ele>13.833333333333332</ele><time>2026-04-19T09:25:22.874Z</time></trkpt><trkpt lat="42.2091683" lon="14.5938583"><ele>14.666666666666666</ele><time>2026-04-19T09:25:23.875Z</time></trkpt><trkpt lat="42.2091167" lon="14.59394"><ele>15.5</ele><time>2026-04-19T09:25:24.875Z</time></trkpt><trkpt lat="42.209075" lon="14.5940233"><ele>16.333333333333332</ele><time>2026-04-19T09:25:25.875Z</time></trkpt><trkpt lat="42.2090267" lon="14.5941"><ele>17.166666666666668</ele><time>2026-04-19T09:25:26.875Z</time></trkpt><trkpt lat="42.2089767" lon="14.594185"><ele>18.0</ele><time>2026-04-19T09:25:27.875Z</time></trkpt><trkpt lat="42.20892" lon="14.5942683"><ele>18.0</ele><time>2026-04-19T09:25:28.874Z</time></trkpt><trkpt lat="42.2088683" lon="14.5943517"><ele>18.0</ele><time>2026-04-19T09:25:29.875Z</time></trkpt><trkpt lat="42.20881" lon="14.594445"><ele>18.0</ele><time>2026-04-19T09:25:30.874Z</time></trkpt><trkpt lat="42.20876" lon="14.594545"><ele>18.0</ele><time>2026-04-19T09:25:31.874Z</time></trkpt><trkpt lat="42.2087083" lon="14.5946417"><ele>18.0</ele><time>2026-04-19T09:25:32.875Z</time></trkpt><trkpt lat="42.208655" lon="14.5947317"><ele>18.0</ele><time>2026-04-19T09:25:33.875Z</time></trkpt><trkpt lat="42.2086033" lon="14.5948267"><ele>17.333333333333332</ele><time>2026-04-19T09:25:34.875Z</time></trkpt><trkpt lat="42.2085533" lon="14.594915"><ele>16.666666666666668</ele><time>2026-04-19T09:25:35.874Z</time></trkpt><trkpt lat="42.2085017" lon="14.5950017"><ele>16.0</ele><time>2026-04-19T09:25:36.874Z</time></trkpt><trkpt lat="42.20845" lon="14.5950917"><ele>15.333333333333334</ele><time>2026-04-19T09:25:37.875Z</time></trkpt><trkpt lat="42.2083983" lon="14.5951817"><ele>14.666666666666668</ele><time>2026-04-19T09:25:38.875Z</time></trkpt><trkpt lat="42.2083533" lon="14.5952717"><ele>14.0</ele><time>2026-04-19T09:25:39.874Z</time></trkpt><trkpt lat="42.20831" lon="14.5953617"><ele>14.666666666666668</ele><time>2026-04-19T09:25:40.874Z</time></trkpt><trkpt lat="42.2082567" lon="14.59545"><ele>15.333333333333334</ele><time>2026-04-19T09:25:41.875Z</time></trkpt><trkpt lat="42.208205" lon="14.595535"><ele>16.0</ele><time>2026-04-19T09:25:42.875Z</time></trkpt><trkpt lat="42.2081617" lon="14.5956117"><ele>16.666666666666668</ele><time>2026-04-19T09:25:43.875Z</time></trkpt><trkpt lat="42.2081233" lon="14.5957"><ele>17.333333333333332</ele><time>2026-04-19T09:25:44.875Z</time></trkpt><trkpt lat="42.20808" lon="14.5957917"><ele>18.0</ele><time>2026-04-19T09:25:45.874Z</time></trkpt><trkpt lat="42.2080317" lon="14.59589"><ele>18.0</ele><time>2026-04-19T09:25:46.875Z</time></trkpt><trkpt lat="42.2079883" lon="14.5959783"><ele>18.0</ele><time>2026-04-19T09:25:47.875Z</time></trkpt><trkpt lat="42.20794" lon="14.59607"><ele>18.0</ele><time>2026-04-19T09:25:48.875Z</time></trkpt><trkpt lat="42.2078967" lon="14.5961633"><ele>18.0</ele><time>2026-04-19T09:25:49.875Z</time></trkpt><trkpt lat="42.2078533" lon="14.5962517"><ele>18.0</ele><time>2026-04-19T09:25:50.875Z</time></trkpt><trkpt lat="42.20782" lon="14.5963367"><ele>18.0</ele><time>2026-04-19T09:25:51.875Z</time></trkpt><trkpt lat="42.207785" lon="14.5964083"><ele>17.2</ele><time>2026-04-19T09:25:52.874Z</time></trkpt><trkpt lat="42.2077567" lon="14.596485"><ele>16.4</ele><time>2026-04-19T09:25:53.875Z</time></trkpt><trkpt lat="42.2077267" lon="14.59656"><ele>15.599999999999998</ele><time>2026-04-19T09:25:54.875Z</time></trkpt><trkpt lat="42.2076733" lon="14.5967083"><ele>14.799999999999999</ele><time>2026-04-19T09:25:56.875Z</time></trkpt><trkpt lat="42.2076183" lon="14.5968483"><ele>14.0</ele><time>2026-04-19T09:25:58.875Z</time></trkpt><trkpt lat="42.2075667" lon="14.59699"><ele>14.833333333333334</ele><time>2026-04-19T09:26:00.875Z</time></trkpt><trkpt lat="42.2075033" lon="14.59714"><ele>15.666666666666668</ele><time>2026-04-19T09:26:02.874Z</time></trkpt><trkpt lat="42.2074633" lon="14.597215"><ele>16.5</ele><time>2026-04-19T09:26:03.875Z</time></trkpt><trkpt lat="42.20742" lon="14.59729"><ele>17.333333333333332</ele><time>2026-04-19T09:26:04.875Z</time></trkpt><trkpt lat="42.207375" lon="14.5973783"><ele>18.166666666666664</ele><time>2026-04-19T09:26:05.875Z</time></trkpt><trkpt lat="42.2073383" lon="14.597475"><ele>19.0</ele><time>2026-04-19T09:26:06.875Z</time></trkpt><trkpt lat="42.2072983" lon="14.59757"><ele>19.0</ele><time>2026-04-19T09:26:07.875Z</time></trkpt><trkpt lat="42.2072567" lon="14.5976633"><ele>19.0</ele><time>2026-04-19T09:26:08.875Z</time></trkpt><trkpt lat="42.2072117" lon="14.59776"><ele>19.0</ele><time>2026-04-19T09:26:09.875Z</time></trkpt><trkpt lat="42.2071683" lon="14.597855"><ele>19.0</ele><time>2026-04-19T09:26:10.874Z</time></trkpt><trkpt lat="42.207125" lon="14.597955"><ele>19.0</ele><time>2026-04-19T09:26:11.875Z</time></trkpt><trkpt lat="42.2070817" lon="14.598055"><ele>19.0</ele><time>2026-04-19T09:26:12.875Z</time></trkpt><trkpt lat="42.20704" lon="14.5981533"><ele>18.333333333333332</ele><time>2026-04-19T09:26:13.874Z</time></trkpt><trkpt lat="42.2069967" lon="14.59824"><ele>17.666666666666664</ele><time>2026-04-19T09:26:14.875Z</time></trkpt><trkpt lat="42.206955" lon="14.59834"><ele>17.0</ele><time>2026-04-19T09:26:15.875Z</time></trkpt><trkpt lat="42.2069167" lon="14.5984433"><ele>16.333333333333332</ele><time>2026-04-19T09:26:16.875Z</time></trkpt><trkpt lat="42.2068733" lon="14.598555"><ele>15.666666666666666</ele><time>2026-04-19T09:26:17.875Z</time></trkpt><trkpt lat="42.2068317" lon="14.5986617"><ele>15.0</ele><time>2026-04-19T09:26:18.874Z</time></trkpt><trkpt lat="42.206795" lon="14.5987633"><ele>13.833333333333334</ele><time>2026-04-19T09:26:19.874Z</time></trkpt><trkpt lat="42.2067533" lon="14.5988567"><ele>12.666666666666666</ele><time>2026-04-19T09:26:20.874Z</time></trkpt><trkpt lat="42.2067133" lon="14.59895"><ele>11.5</ele><time>2026-04-19T09:26:21.875Z</time></trkpt><trkpt lat="42.206675" lon="14.5990433"><ele>10.333333333333332</ele><time>2026-04-19T09:26:22.874Z</time></trkpt><trkpt lat="42.2066383" lon="14.5991383"><ele>9.166666666666666</ele><time>2026-04-19T09:26:23.874Z</time></trkpt><trkpt lat="42.2066033" lon="14.599225"><ele>8.0</ele><time>2026-04-19T09:26:24.875Z</time></trkpt><trkpt lat="42.2065683" lon="14.5993183"><ele>8.0</ele><time>2026-04-19T09:26:25.875Z</time></trkpt><trkpt lat="42.20653" lon="14.5994067"><ele>7.999999999999999</ele><time>2026-04-19T09:26:26.874Z</time></trkpt><trkpt lat="42.206495" lon="14.5994967"><ele>8.0</ele><time>2026-04-19T09:26:27.875Z</time></trkpt><trkpt lat="42.2064583" lon="14.5995817"><ele>8.0</ele><time>2026-04-19T09:26:28.875Z</time></trkpt><trkpt lat="42.2064233" lon="14.5996667"><ele>7.999999999999999</ele><time>2026-04-19T09:26:29.874Z</time></trkpt><trkpt lat="42.2063867" lon="14.59975"><ele>8.0</ele><time>2026-04-19T09:26:30.875Z</time></trkpt><trkpt lat="42.2063483" lon="14.5998317"><ele>8.0</ele><time>2026-04-19T09:26:31.875Z</time></trkpt><trkpt lat="42.2063033" lon="14.599905"><ele>8.0</ele><time>2026-04-19T09:26:32.875Z</time></trkpt><trkpt lat="42.2062667" lon="14.5999883"><ele>7.999999999999999</ele><time>2026-04-19T09:26:33.875Z</time></trkpt><trkpt lat="42.2062233" lon="14.6000667"><ele>8.0</ele><time>2026-04-19T09:26:34.875Z</time></trkpt><trkpt lat="42.2061883" lon="14.6001517"><ele>8.0</ele><time>2026-04-19T09:26:35.874Z</time></trkpt><trkpt lat="42.20615" lon="14.6002333"><ele>7.999999999999999</ele><time>2026-04-19T09:26:36.875Z</time></trkpt><trkpt lat="42.2061133" lon="14.600315"><ele>8.0</ele><time>2026-04-19T09:26:37.874Z</time></trkpt><trkpt lat="42.2060767" lon="14.6004033"><ele>8.0</ele><time>2026-04-19T09:26:38.874Z</time></trkpt><trkpt lat="42.2060383" lon="14.6004917"><ele>7.999999999999999</ele><time>2026-04-19T09:26:39.875Z</time></trkpt><trkpt lat="42.2060033" lon="14.6005883"><ele>8.0</ele><time>2026-04-19T09:26:40.874Z</time></trkpt><trkpt lat="42.2059633" lon="14.6006767"><ele>8.0</ele><time>2026-04-19T09:26:41.874Z</time></trkpt><trkpt lat="42.205925" lon="14.60077"><ele>8.0</ele><time>2026-04-19T09:26:42.875Z</time></trkpt><trkpt lat="42.2058867" lon="14.6008617"><ele>7.999999999999999</ele><time>2026-04-19T09:26:43.874Z</time></trkpt><trkpt lat="42.2058467" lon="14.6009467"><ele>8.0</ele><time>2026-04-19T09:26:44.875Z</time></trkpt><trkpt lat="42.2058067" lon="14.6010317"><ele>8.0</ele><time>2026-04-19T09:26:45.875Z</time></trkpt><trkpt lat="42.2057717" lon="14.6011117"><ele>7.999999999999999</ele><time>2026-04-19T09:26:46.875Z</time></trkpt><trkpt lat="42.2057333" lon="14.6011917"><ele>8.0</ele><time>2026-04-19T09:26:47.875Z</time></trkpt><trkpt lat="42.205695" lon="14.6012683"><ele>8.0</ele><time>2026-04-19T09:26:48.875Z</time></trkpt><trkpt lat="42.2056617" lon="14.6013467"><ele>7.999999999999999</ele><time>2026-04-19T09:26:49.875Z</time></trkpt><trkpt lat="42.20563" lon="14.60143"><ele>8.0</ele><time>2026-04-19T09:26:50.874Z</time></trkpt><trkpt lat="42.2055983" lon="14.6015067"><ele>8.0</ele><time>2026-04-19T09:26:51.874Z</time></trkpt><trkpt lat="42.2055633" lon="14.6015817"><ele>7.857142857142857</ele><time>2026-04-19T09:26:52.874Z</time></trkpt><trkpt lat="42.2055283" lon="14.6016633"><ele>7.7142857142857135</ele><time>2026-04-19T09:26:53.875Z</time></trkpt><trkpt lat="42.2054883" lon="14.6017467"><ele>7.571428571428571</ele><time>2026-04-19T09:26:54.875Z</time></trkpt><trkpt lat="42.20545" lon="14.6018317"><ele>7.428571428571429</ele><time>2026-04-19T09:26:55.875Z</time></trkpt><trkpt lat="42.2054133" lon="14.6019183"><ele>7.285714285714286</ele><time>2026-04-19T09:26:56.875Z</time></trkpt><trkpt lat="42.205375" lon="14.6020033"><ele>7.142857142857142</ele><time>2026-04-19T09:26:57.875Z</time></trkpt><trkpt lat="42.2053417" lon="14.6020883"><ele>7.0</ele><time>2026-04-19T09:26:58.874Z</time></trkpt><trkpt lat="42.2053" lon="14.6021633"><ele>7.0</ele><time>2026-04-19T09:26:59.874Z</time></trkpt><trkpt lat="42.20526" lon="14.6022467"><ele>7.0</ele><time>2026-04-19T09:27:00.875Z</time></trkpt><trkpt lat="42.20522" lon="14.6023267"><ele>7.0</ele><time>2026-04-19T09:27:01.875Z</time></trkpt><trkpt lat="42.2051833" lon="14.6024167"><ele>7.0</ele><time>2026-04-19T09:27:02.875Z</time></trkpt><trkpt lat="42.2051417" lon="14.6024983"><ele>7.0</ele><time>2026-04-19T09:27:03.874Z</time></trkpt><trkpt lat="42.2051083" lon="14.6025783"><ele>7.0</ele><time>2026-04-19T09:27:04.875Z</time></trkpt><trkpt lat="42.2050683" lon="14.6026617"><ele>7.0</ele><time>2026-04-19T09:27:05.875Z</time></trkpt><trkpt lat="42.205035" lon="14.6027433"><ele>7.0</ele><time>2026-04-19T09:27:06.874Z</time></trkpt><trkpt lat="42.2050033" lon="14.60283"><ele>7.0</ele><time>2026-04-19T09:27:07.875Z</time></trkpt><trkpt lat="42.2049683" lon="14.6029167"><ele>7.0</ele><time>2026-04-19T09:27:08.875Z</time></trkpt><trkpt lat="42.204935" lon="14.6030033"><ele>7.0</ele><time>2026-04-19T09:27:09.875Z</time></trkpt><trkpt lat="42.2049" lon="14.60309"><ele>7.0</ele><time>2026-04-19T09:27:10.875Z</time></trkpt><trkpt lat="42.2048617" lon="14.60318"><ele>7.0</ele><time>2026-04-19T09:27:11.874Z</time></trkpt><trkpt lat="42.2048267" lon="14.6032717"><ele>7.0</ele><time>2026-04-19T09:27:12.875Z</time></trkpt><trkpt lat="42.2047883" lon="14.603355"><ele>6.142857142857143</ele><time>2026-04-19T09:27:13.875Z</time></trkpt><trkpt lat="42.2047467" lon="14.6034367"><ele>5.285714285714286</ele><time>2026-04-19T09:27:14.874Z</time></trkpt><trkpt lat="42.2047033" lon="14.6035167"><ele>4.428571428571429</ele><time>2026-04-19T09:27:15.874Z</time></trkpt><trkpt lat="42.2046617" lon="14.6035867"><ele>3.571428571428571</ele><time>2026-04-19T09:27:16.875Z</time></trkpt><trkpt lat="42.204615" lon="14.6036583"><ele>2.7142857142857144</ele><time>2026-04-19T09:27:17.875Z</time></trkpt><trkpt lat="42.2045733" lon="14.60373"><ele>1.8571428571428572</ele><time>2026-04-19T09:27:18.875Z</time></trkpt><trkpt lat="42.2045383" lon="14.6038033"><ele>1.0</ele><time>2026-04-19T09:27:19.875Z</time></trkpt><trkpt lat="42.2045033" lon="14.6038883"><ele>0.8571428571428571</ele><time>2026-04-19T09:27:20.875Z</time></trkpt><trkpt lat="42.204465" lon="14.6039683"><ele>0.7142857142857142</ele><time>2026-04-19T09:27:21.874Z</time></trkpt><trkpt lat="42.2044317" lon="14.6040483"><ele>0.5714285714285714</ele><time>2026-04-19T09:27:22.875Z</time></trkpt><trkpt lat="42.2043983" lon="14.6041267"><ele>0.42857142857142855</ele><time>2026-04-19T09:27:23.874Z</time></trkpt><trkpt lat="42.2043617" lon="14.6041983"><ele>0.2857142857142857</ele><time>2026-04-19T09:27:24.875Z</time></trkpt><trkpt lat="42.2043267" lon="14.60427"><ele>0.14285714285714285</ele><time>2026-04-19T09:27:25.875Z</time></trkpt><trkpt lat="42.204295" lon="14.6043467"><ele>0.0</ele><time>2026-04-19T09:27:26.874Z</time></trkpt><trkpt lat="42.204265" lon="14.6044217"><ele>0.2</ele><time>2026-04-19T09:27:27.875Z</time></trkpt><trkpt lat="42.20421" lon="14.6045667"><ele>0.4</ele><time>2026-04-19T09:27:29.875Z</time></trkpt><trkpt lat="42.2041467" lon="14.60471"><ele>0.6000000000000001</ele><time>2026-04-19T09:27:31.875Z</time></trkpt><trkpt lat="42.204115" lon="14.6047917"><ele>0.8</ele><time>2026-04-19T09:27:32.874Z</time></trkpt><trkpt lat="42.20408" lon="14.60487"><ele>1.0</ele><time>2026-04-19T09:27:33.874Z</time></trkpt><trkpt lat="42.2040483" lon="14.6049533"><ele>1.0</ele><time>2026-04-19T09:27:34.874Z</time></trkpt><trkpt lat="42.204015" lon="14.60503"><ele>1.0</ele><time>2026-04-19T09:27:35.875Z</time></trkpt><trkpt lat="42.2039767" lon="14.605105"><ele>1.0</ele><time>2026-04-19T09:27:36.875Z</time></trkpt><trkpt lat="42.2039117" lon="14.605245"><ele>1.0</ele><time>2026-04-19T09:27:38.874Z</time></trkpt><trkpt lat="42.2038617" lon="14.60538"><ele>1.0</ele><time>2026-04-19T09:27:40.875Z</time></trkpt><trkpt lat="42.2038133" lon="14.605505"><ele>0.8333333333333333</ele><time>2026-04-19T09:27:42.875Z</time></trkpt><trkpt lat="42.203765" lon="14.6056117"><ele>0.6666666666666666</ele><time>2026-04-19T09:27:44.875Z</time></trkpt><trkpt lat="42.2037217" lon="14.6057067"><ele>0.5</ele><time>2026-04-19T09:27:46.875Z</time></trkpt><trkpt lat="42.2036817" lon="14.605795"><ele>0.3333333333333333</ele><time>2026-04-19T09:27:48.875Z</time></trkpt><trkpt lat="42.2036417" lon="14.6058883"><ele>0.16666666666666666</ele><time>2026-04-19T09:27:50.874Z</time></trkpt><trkpt lat="42.2036" lon="14.6059867"><ele>0.0</ele><time>2026-04-19T09:27:52.875Z</time></trkpt><trkpt lat="42.2035583" lon="14.6060717"><ele>0.0</ele><time>2026-04-19T09:27:54.874Z</time></trkpt><trkpt lat="42.203525" lon="14.60615"><ele>0.0</ele><time>2026-04-19T09:27:56.875Z</time></trkpt><trkpt lat="42.2034967" lon="14.60624"><ele>0.0</ele><time>2026-04-19T09:28:01.875Z</time></trkpt><trkpt lat="42.2034983" lon="14.606325"><ele>0.0</ele><time>2026-04-19T09:28:07.874Z</time></trkpt><trkpt lat="42.203485" lon="14.6064217"><ele>0.0</ele><time>2026-04-19T09:28:13.874Z</time></trkpt><trkpt lat="42.2034683" lon="14.606525"><ele>0.0</ele><time>2026-04-19T09:28:17.875Z</time></trkpt><trkpt lat="42.203445" lon="14.606625"><ele>0.0</ele><time>2026-04-19T09:28:19.875Z</time></trkpt><trkpt lat="42.2034133" lon="14.6067267"><ele>0.16666666666666666</ele><time>2026-04-19T09:28:21.875Z</time></trkpt><trkpt lat="42.20338" lon="14.606825"><ele>0.3333333333333333</ele><time>2026-04-19T09:28:23.874Z</time></trkpt><trkpt lat="42.2033517" lon="14.6069233"><ele>0.5</ele><time>2026-04-19T09:28:25.874Z</time></trkpt><trkpt lat="42.2033133" lon="14.6070183"><ele>0.6666666666666666</ele><time>2026-04-19T09:28:27.874Z</time></trkpt><trkpt lat="42.203275" lon="14.6071133"><ele>0.8333333333333333</ele><time>2026-04-19T09:28:29.874Z</time></trkpt><trkpt lat="42.2032417" lon="14.6072"><ele>1.0</ele><time>2026-04-19T09:28:31.874Z</time></trkpt><trkpt lat="42.2032067" lon="14.6072933"><ele>1.2857142857142856</ele><time>2026-04-19T09:28:33.875Z</time></trkpt><trkpt lat="42.203175" lon="14.607375"><ele>1.5714285714285712</ele><time>2026-04-19T09:28:35.874Z</time></trkpt><trkpt lat="42.2031383" lon="14.607455"><ele>1.857142857142857</ele><time>2026-04-19T09:28:37.874Z</time></trkpt><trkpt lat="42.2030883" lon="14.6075633"><ele>2.142857142857143</ele><time>2026-04-19T09:28:40.874Z</time></trkpt><trkpt lat="42.2030483" lon="14.6076367"><ele>2.4285714285714284</ele><time>2026-04-19T09:28:42.875Z</time></trkpt><trkpt lat="42.20301" lon="14.607715"><ele>2.714285714285714</ele><time>2026-04-19T09:28:44.875Z</time></trkpt><trkpt lat="42.20297" lon="14.6077967"><ele>3.0</ele><time>2026-04-19T09:28:46.874Z</time></trkpt><trkpt lat="42.20293" lon="14.6078883"><ele>3.1666666666666665</ele><time>2026-04-19T09:28:48.875Z</time></trkpt><trkpt lat="42.2028917" lon="14.6079917"><ele>3.333333333333333</ele><time>2026-04-19T09:28:50.874Z</time></trkpt><trkpt lat="42.202855" lon="14.608085"><ele>3.5</ele><time>2026-04-19T09:28:52.875Z</time></trkpt><trkpt lat="42.20281" lon="14.6081883"><ele>3.6666666666666665</ele><time>2026-04-19T09:28:54.875Z</time></trkpt><trkpt lat="42.202765" lon="14.60829"><ele>3.833333333333333</ele><time>2026-04-19T09:28:56.875Z</time></trkpt><trkpt lat="42.20273" lon="14.6084233"><ele>4.0</ele><time>2026-04-19T09:28:58.875Z</time></trkpt><trkpt lat="42.2026783" lon="14.6085533"><ele>4.2</ele><time>2026-04-19T09:29:00.875Z</time></trkpt><trkpt lat="42.2026267" lon="14.608685"><ele>4.4</ele><time>2026-04-19T09:29:02.875Z</time></trkpt><trkpt lat="42.2025717" lon="14.608805"><ele>4.6</ele><time>2026-04-19T09:29:04.874Z</time></trkpt><trkpt lat="42.202515" lon="14.60893"><ele>4.8</ele><time>2026-04-19T09:29:06.875Z</time></trkpt><trkpt lat="42.2024617" lon="14.6090567"><ele>5.0</ele><time>2026-04-19T09:29:08.875Z</time></trkpt><trkpt lat="42.2024117" lon="14.609175"><ele>5.0</ele><time>2026-04-19T09:29:10.875Z</time></trkpt><trkpt lat="42.202365" lon="14.6092883"><ele>5.0</ele><time>2026-04-19T09:29:12.875Z</time></trkpt><trkpt lat="42.2023217" lon="14.6093967"><ele>5.0</ele><time>2026-04-19T09:29:14.874Z</time></trkpt><trkpt lat="42.2022817" lon="14.6095183"><ele>5.0</ele><time>2026-04-19T09:29:16.875Z</time></trkpt><trkpt lat="42.20224" lon="14.609625"><ele>5.0</ele><time>2026-04-19T09:29:18.874Z</time></trkpt><trkpt lat="42.2021933" lon="14.609705"><ele>4.666666666666667</ele><time>2026-04-19T09:29:20.874Z</time></trkpt><trkpt lat="42.2021567" lon="14.60978"><ele>4.333333333333334</ele><time>2026-04-19T09:29:22.874Z</time></trkpt><trkpt lat="42.2021383" lon="14.6098983"><ele>4.0</ele><time>2026-04-19T09:29:25.874Z</time></trkpt><trkpt lat="42.2021133" lon="14.609985"><ele>3.666666666666667</ele><time>2026-04-19T09:29:27.875Z</time></trkpt><trkpt lat="42.2020917" lon="14.6100967"><ele>3.3333333333333335</ele><time>2026-04-19T09:29:29.875Z</time></trkpt><trkpt lat="42.2020483" lon="14.6102017"><ele>3.0</ele><time>2026-04-19T09:29:31.874Z</time></trkpt><trkpt lat="42.202" lon="14.61032"><ele>3.5</ele><time>2026-04-19T09:29:33.875Z</time></trkpt><trkpt lat="42.2019583" lon="14.610465"><ele>4.0</ele><time>2026-04-19T09:29:35.875Z</time></trkpt><trkpt lat="42.20191" lon="14.6106167"><ele>4.5</ele><time>2026-04-19T09:29:37.875Z</time></trkpt><trkpt lat="42.2018567" lon="14.6107533"><ele>5.0</ele><time>2026-04-19T09:29:39.874Z</time></trkpt><trkpt lat="42.2018067" lon="14.6108967"><ele>5.0</ele><time>2026-04-19T09:29:41.875Z</time></trkpt><trkpt lat="42.2017783" lon="14.6109733"><ele>5.0</ele><time>2026-04-19T09:29:42.875Z</time></trkpt><trkpt lat="42.2017483" lon="14.61105"><ele>5.0</ele><time>2026-04-19T09:29:43.874Z</time></trkpt><trkpt lat="42.2017167" lon="14.6111267"><ele>5.0</ele><time>2026-04-19T09:29:44.875Z</time></trkpt><trkpt lat="42.2016867" lon="14.6112017"><ele>5.0</ele><time>2026-04-19T09:29:45.875Z</time></trkpt><trkpt lat="42.2016567" lon="14.61128"><ele>5.0</ele><time>2026-04-19T09:29:46.875Z</time></trkpt><trkpt lat="42.2016267" lon="14.6113617"><ele>5.0</ele><time>2026-04-19T09:29:47.874Z</time></trkpt><trkpt lat="42.2016033" lon="14.6114433"><ele>5.0</ele><time>2026-04-19T09:29:48.875Z</time></trkpt><trkpt lat="42.2015817" lon="14.6115267"><ele>5.0</ele><time>2026-04-19T09:29:49.874Z</time></trkpt><trkpt lat="42.2015583" lon="14.6116083"><ele>5.0</ele><time>2026-04-19T09:29:50.875Z</time></trkpt><trkpt lat="42.2015117" lon="14.6117583"><ele>5.0</ele><time>2026-04-19T09:29:52.875Z</time></trkpt><trkpt lat="42.2014667" lon="14.6119083"><ele>5.0</ele><time>2026-04-19T09:29:54.874Z</time></trkpt><trkpt lat="42.201425" lon="14.6120567"><ele>5.25</ele><time>2026-04-19T09:29:56.875Z</time></trkpt><trkpt lat="42.2013783" lon="14.6122117"><ele>5.5</ele><time>2026-04-19T09:29:58.874Z</time></trkpt><trkpt lat="42.2013333" lon="14.6123617"><ele>5.75</ele><time>2026-04-19T09:30:00.874Z</time></trkpt><trkpt lat="42.2012883" lon="14.6125167"><ele>6.0</ele><time>2026-04-19T09:30:02.874Z</time></trkpt><trkpt lat="42.2012417" lon="14.612665"><ele>6.0</ele><time>2026-04-19T09:30:04.875Z</time></trkpt><trkpt lat="42.2012017" lon="14.612815"><ele>6.0</ele><time>2026-04-19T09:30:06.875Z</time></trkpt><trkpt lat="42.20116" lon="14.61295"><ele>6.0</ele><time>2026-04-19T09:30:08.874Z</time></trkpt><trkpt lat="42.2011183" lon="14.6130867"><ele>6.0</ele><time>2026-04-19T09:30:10.875Z</time></trkpt><trkpt lat="42.201075" lon="14.6132233"><ele>6.0</ele><time>2026-04-19T09:30:12.874Z</time></trkpt><trkpt lat="42.20103" lon="14.61336"><ele>6.199999999999999</ele><time>2026-04-19T09:30:14.874Z</time></trkpt><trkpt lat="42.2009767" lon="14.6134983"><ele>6.3999999999999995</ele><time>2026-04-19T09:30:16.874Z</time></trkpt><trkpt lat="42.2009267" lon="14.61364"><ele>6.6</ele><time>2026-04-19T09:30:18.875Z</time></trkpt><trkpt lat="42.200885" lon="14.6137817"><ele>6.8</ele><time>2026-04-19T09:30:20.874Z</time></trkpt><trkpt lat="42.2008567" lon="14.6139167"><ele>7.0</ele><time>2026-04-19T09:30:22.875Z</time></trkpt><trkpt lat="42.2008233" lon="14.61406"><ele>6.6</ele><time>2026-04-19T09:30:24.875Z</time></trkpt><trkpt lat="42.20078" lon="14.6142017"><ele>6.199999999999999</ele><time>2026-04-19T09:30:26.875Z</time></trkpt><trkpt lat="42.2007267" lon="14.61433"><ele>5.8</ele><time>2026-04-19T09:30:28.874Z</time></trkpt><trkpt lat="42.2006883" lon="14.6144683"><ele>5.4</ele><time>2026-04-19T09:30:30.875Z</time></trkpt><trkpt lat="42.200665" lon="14.614585"><ele>5.0</ele><time>2026-04-19T09:30:32.875Z</time></trkpt><trkpt lat="42.200665" lon="14.6147233"><ele>4.8</ele><time>2026-04-19T09:30:34.875Z</time></trkpt><trkpt lat="42.2006733" lon="14.614865"><ele>4.6</ele><time>2026-04-19T09:30:36.875Z</time></trkpt><trkpt lat="42.200645" lon="14.6150083"><ele>4.4</ele><time>2026-04-19T09:30:38.875Z</time></trkpt><trkpt lat="42.20059" lon="14.6151367"><ele>4.2</ele><time>2026-04-19T09:30:40.875Z</time></trkpt><trkpt lat="42.2005167" lon="14.61523"><ele>4.0</ele><time>2026-04-19T09:30:42.874Z</time></trkpt><trkpt lat="42.2004583" lon="14.61533"><ele>4.0</ele><time>2026-04-19T09:30:44.875Z</time></trkpt><trkpt lat="42.2004" lon="14.6154433"><ele>4.0</ele><time>2026-04-19T09:30:46.875Z</time></trkpt><trkpt lat="42.2003383" lon="14.615555"><ele>4.0</ele><time>2026-04-19T09:30:48.875Z</time></trkpt><trkpt lat="42.2002833" lon="14.61569"><ele>4.0</ele><time>2026-04-19T09:30:50.875Z</time></trkpt><trkpt lat="42.20023" lon="14.6158283"><ele>4.0</ele><time>2026-04-19T09:30:52.874Z</time></trkpt><trkpt lat="42.2001783" lon="14.6159817"><ele>3.9999999999999996</ele><time>2026-04-19T09:30:54.875Z</time></trkpt><trkpt lat="42.2001267" lon="14.6161367"><ele>4.0</ele><time>2026-04-19T09:30:56.874Z</time></trkpt><trkpt lat="42.2000767" lon="14.6162917"><ele>4.0</ele><time>2026-04-19T09:30:58.874Z</time></trkpt><trkpt lat="42.2000517" lon="14.61637"><ele>4.0</ele><time>2026-04-19T09:30:59.874Z</time></trkpt><trkpt lat="42.200025" lon="14.6164517"><ele>3.9999999999999996</ele><time>2026-04-19T09:31:00.875Z</time></trkpt><trkpt lat="42.2" lon="14.6165317"><ele>4.0</ele><time>2026-04-19T09:31:01.874Z</time></trkpt><trkpt lat="42.199975" lon="14.6166117"><ele>4.285714285714286</ele><time>2026-04-19T09:31:02.875Z</time></trkpt><trkpt lat="42.19995" lon="14.6166917"><ele>4.571428571428571</ele><time>2026-04-19T09:31:03.874Z</time></trkpt><trkpt lat="42.199925" lon="14.61677"><ele>4.857142857142857</ele><time>2026-04-19T09:31:04.875Z</time></trkpt><trkpt lat="42.1999" lon="14.6168517"><ele>5.142857142857142</ele><time>2026-04-19T09:31:05.875Z</time></trkpt><trkpt lat="42.199875" lon="14.6169317"><ele>5.428571428571429</ele><time>2026-04-19T09:31:06.875Z</time></trkpt><trkpt lat="42.1998483" lon="14.617015"><ele>5.7142857142857135</ele><time>2026-04-19T09:31:07.875Z</time></trkpt><trkpt lat="42.19982" lon="14.6170933"><ele>6.0</ele><time>2026-04-19T09:31:08.875Z</time></trkpt><trkpt lat="42.1997633" lon="14.617245"><ele>6.0</ele><time>2026-04-19T09:31:10.875Z</time></trkpt><trkpt lat="42.19971" lon="14.6173983"><ele>6.0</ele><time>2026-04-19T09:31:12.875Z</time></trkpt><trkpt lat="42.1996817" lon="14.6174783"><ele>6.0</ele><time>2026-04-19T09:31:13.875Z</time></trkpt><trkpt lat="42.199655" lon="14.61756"><ele>6.0</ele><time>2026-04-19T09:31:14.874Z</time></trkpt><trkpt lat="42.199605" lon="14.617715"><ele>6.0</ele><time>2026-04-19T09:31:16.875Z</time></trkpt><trkpt lat="42.199555" lon="14.6178667"><ele>5.3999999999999995</ele><time>2026-04-19T09:31:18.875Z</time></trkpt><trkpt lat="42.1995" lon="14.6180167"><ele>4.8</ele><time>2026-04-19T09:31:20.875Z</time></trkpt><trkpt lat="42.199445" lon="14.61817"><ele>4.199999999999999</ele><time>2026-04-19T09:31:22.875Z</time></trkpt><trkpt lat="42.1993983" lon="14.6183233"><ele>3.5999999999999996</ele><time>2026-04-19T09:31:24.874Z</time></trkpt><trkpt lat="42.19937" lon="14.6184017"><ele>3.0</ele><time>2026-04-19T09:31:25.875Z</time></trkpt><trkpt lat="42.1993467" lon="14.6184833"><ele>3.0</ele><time>2026-04-19T09:31:26.875Z</time></trkpt><trkpt lat="42.1993217" lon="14.6185633"><ele>3.0</ele><time>2026-04-19T09:31:27.875Z</time></trkpt><trkpt lat="42.1992567" lon="14.6187083"><ele>3.0</ele><time>2026-04-19T09:31:29.875Z</time></trkpt><trkpt lat="42.199215" lon="14.6188533"><ele>3.0</ele><time>2026-04-19T09:31:31.874Z</time></trkpt><trkpt lat="42.1991683" lon="14.6190033"><ele>3.0</ele><time>2026-04-19T09:31:33.875Z</time></trkpt><trkpt lat="42.1991167" lon="14.619155"><ele>2.8333333333333335</ele><time>2026-04-19T09:31:35.875Z</time></trkpt><trkpt lat="42.1990633" lon="14.6193067"><ele>2.6666666666666665</ele><time>2026-04-19T09:31:37.875Z</time></trkpt><trkpt lat="42.1990367" lon="14.619385"><ele>2.5</ele><time>2026-04-19T09:31:38.875Z</time></trkpt><trkpt lat="42.1990117" lon="14.6194633"><ele>2.333333333333333</ele><time>2026-04-19T09:31:39.875Z</time></trkpt><trkpt lat="42.1989567" lon="14.619615"><ele>2.1666666666666665</ele><time>2026-04-19T09:31:41.875Z</time></trkpt><trkpt lat="42.1989217" lon="14.6196967"><ele>2.0</ele><time>2026-04-19T09:31:42.874Z</time></trkpt><trkpt lat="42.1988967" lon="14.6197783"><ele>3.1666666666666665</ele><time>2026-04-19T09:31:43.875Z</time></trkpt><trkpt lat="42.1988467" lon="14.61993"><ele>4.333333333333333</ele><time>2026-04-19T09:31:45.875Z</time></trkpt><trkpt lat="42.1988217" lon="14.620015"><ele>5.5</ele><time>2026-04-19T09:31:46.875Z</time></trkpt><trkpt lat="42.1987967" lon="14.6201"><ele>6.666666666666667</ele><time>2026-04-19T09:31:47.875Z</time></trkpt><trkpt lat="42.198775" lon="14.6201833"><ele>7.833333333333333</ele><time>2026-04-19T09:31:48.875Z</time></trkpt><trkpt lat="42.1987517" lon="14.62027"><ele>9.0</ele><time>2026-04-19T09:31:49.875Z</time></trkpt><trkpt lat="42.1987267" lon="14.62036"><ele>9.000000000000002</ele><time>2026-04-19T09:31:50.875Z</time></trkpt><trkpt lat="42.1987033" lon="14.6204483"><ele>9.0</ele><time>2026-04-19T09:31:51.875Z</time></trkpt><trkpt lat="42.19868" lon="14.6205367"><ele>9.0</ele><time>2026-04-19T09:31:52.875Z</time></trkpt><trkpt lat="42.1986567" lon="14.6206233"><ele>9.0</ele><time>2026-04-19T09:31:53.875Z</time></trkpt><trkpt lat="42.1986333" lon="14.6207083"><ele>9.0</ele><time>2026-04-19T09:31:54.875Z</time></trkpt><trkpt lat="42.1986083" lon="14.620795"><ele>9.000000000000002</ele><time>2026-04-19T09:31:55.875Z</time></trkpt><trkpt lat="42.1985833" lon="14.62088"><ele>9.0</ele><time>2026-04-19T09:31:56.874Z</time></trkpt><trkpt lat="42.1985583" lon="14.6209683"><ele>9.000000000000002</ele><time>2026-04-19T09:31:57.875Z</time></trkpt><trkpt lat="42.19853" lon="14.6210567"><ele>9.0</ele><time>2026-04-19T09:31:58.874Z</time></trkpt><trkpt lat="42.1985067" lon="14.6211433"><ele>9.0</ele><time>2026-04-19T09:31:59.875Z</time></trkpt><trkpt lat="42.19848" lon="14.6212317"><ele>9.0</ele><time>2026-04-19T09:32:00.875Z</time></trkpt><trkpt lat="42.198455" lon="14.62132"><ele>9.0</ele><time>2026-04-19T09:32:01.875Z</time></trkpt><trkpt lat="42.1984317" lon="14.6214083"><ele>9.000000000000002</ele><time>2026-04-19T09:32:02.874Z</time></trkpt><trkpt lat="42.1984083" lon="14.621495"><ele>9.0</ele><time>2026-04-19T09:32:03.874Z</time></trkpt><trkpt lat="42.1983833" lon="14.6215817"><ele>8.857142857142858</ele><time>2026-04-19T09:32:04.875Z</time></trkpt><trkpt lat="42.19836" lon="14.6216717"><ele>8.714285714285715</ele><time>2026-04-19T09:32:05.875Z</time></trkpt><trkpt lat="42.1983333" lon="14.6217583"><ele>8.571428571428571</ele><time>2026-04-19T09:32:06.874Z</time></trkpt><trkpt lat="42.1983067" lon="14.6218467"><ele>8.428571428571429</ele><time>2026-04-19T09:32:07.875Z</time></trkpt><trkpt lat="42.1982817" lon="14.6219367"><ele>8.285714285714285</ele><time>2026-04-19T09:32:08.874Z</time></trkpt><trkpt lat="42.1982583" lon="14.6220233"><ele>8.142857142857142</ele><time>2026-04-19T09:32:09.874Z</time></trkpt><trkpt lat="42.198235" lon="14.62211"><ele>8.0</ele><time>2026-04-19T09:32:10.875Z</time></trkpt><trkpt lat="42.19821" lon="14.6221967"><ele>7.428571428571428</ele><time>2026-04-19T09:32:11.874Z</time></trkpt><trkpt lat="42.1981833" lon="14.6222833"><ele>6.857142857142856</ele><time>2026-04-19T09:32:12.875Z</time></trkpt><trkpt lat="42.1981583" lon="14.622365"><ele>6.285714285714286</ele><time>2026-04-19T09:32:13.875Z</time></trkpt><trkpt lat="42.1981333" lon="14.6224483"><ele>5.7142857142857135</ele><time>2026-04-19T09:32:14.875Z</time></trkpt><trkpt lat="42.19811" lon="14.6225333"><ele>5.142857142857142</ele><time>2026-04-19T09:32:15.875Z</time></trkpt><trkpt lat="42.1980867" lon="14.6226183"><ele>4.571428571428571</ele><time>2026-04-19T09:32:16.875Z</time></trkpt><trkpt lat="42.198065" lon="14.6227067"><ele>4.0</ele><time>2026-04-19T09:32:17.875Z</time></trkpt><trkpt lat="42.1980433" lon="14.62279"><ele>5.0</ele><time>2026-04-19T09:32:18.874Z</time></trkpt><trkpt lat="42.1980133" lon="14.6228717"><ele>6.0</ele><time>2026-04-19T09:32:19.875Z</time></trkpt><trkpt lat="42.1979833" lon="14.622955"><ele>7.0</ele><time>2026-04-19T09:32:20.874Z</time></trkpt><trkpt lat="42.197955" lon="14.6230383"><ele>8.0</ele><time>2026-04-19T09:32:21.875Z</time></trkpt><trkpt lat="42.19793" lon="14.6231233"><ele>9.0</ele><time>2026-04-19T09:32:22.874Z</time></trkpt><trkpt lat="42.19791" lon="14.6232133"><ele>10.0</ele><time>2026-04-19T09:32:23.875Z</time></trkpt><trkpt lat="42.19789" lon="14.6233017"><ele>11.0</ele><time>2026-04-19T09:32:24.875Z</time></trkpt><trkpt lat="42.1978683" lon="14.6233917"><ele>11.0</ele><time>2026-04-19T09:32:25.874Z</time></trkpt><trkpt lat="42.197845" lon="14.6234817"><ele>11.0</ele><time>2026-04-19T09:32:26.874Z</time></trkpt><trkpt lat="42.19782" lon="14.6235717"><ele>11.0</ele><time>2026-04-19T09:32:27.874Z</time></trkpt><trkpt lat="42.1977933" lon="14.6236567"><ele>11.0</ele><time>2026-04-19T09:32:28.875Z</time></trkpt><trkpt lat="42.1977683" lon="14.6237417"><ele>11.0</ele><time>2026-04-19T09:32:29.875Z</time></trkpt><trkpt lat="42.1977433" lon="14.623825"><ele>11.0</ele><time>2026-04-19T09:32:30.874Z</time></trkpt><trkpt lat="42.1977183" lon="14.6239117"><ele>11.0</ele><time>2026-04-19T09:32:31.874Z</time></trkpt><trkpt lat="42.197695" lon="14.6239967"><ele>10.666666666666666</ele><time>2026-04-19T09:32:32.875Z</time></trkpt><trkpt lat="42.19767" lon="14.62408"><ele>10.333333333333332</ele><time>2026-04-19T09:32:33.875Z</time></trkpt><trkpt lat="42.1976467" lon="14.6241617"><ele>10.0</ele><time>2026-04-19T09:32:34.875Z</time></trkpt><trkpt lat="42.1976183" lon="14.6242417"><ele>9.666666666666666</ele><time>2026-04-19T09:32:35.875Z</time></trkpt><trkpt lat="42.1975883" lon="14.6243167"><ele>9.333333333333334</ele><time>2026-04-19T09:32:36.875Z</time></trkpt><trkpt lat="42.1975367" lon="14.62447"><ele>9.0</ele><time>2026-04-19T09:32:38.875Z</time></trkpt><trkpt lat="42.1975083" lon="14.62456"><ele>8.428571428571429</ele><time>2026-04-19T09:32:39.875Z</time></trkpt><trkpt lat="42.19748" lon="14.6246383"><ele>7.857142857142858</ele><time>2026-04-19T09:32:40.874Z</time></trkpt><trkpt lat="42.1974533" lon="14.6247233"><ele>7.2857142857142865</ele><time>2026-04-19T09:32:41.874Z</time></trkpt><trkpt lat="42.1974283" lon="14.6248033"><ele>6.714285714285715</ele><time>2026-04-19T09:32:42.875Z</time></trkpt><trkpt lat="42.1974017" lon="14.6248817"><ele>6.142857142857143</ele><time>2026-04-19T09:32:43.875Z</time></trkpt><trkpt lat="42.1973717" lon="14.6249667"><ele>5.571428571428571</ele><time>2026-04-19T09:32:44.874Z</time></trkpt><trkpt lat="42.1973433" lon="14.6250517"><ele>5.0</ele><time>2026-04-19T09:32:45.874Z</time></trkpt><trkpt lat="42.197315" lon="14.6251317"><ele>5.285714285714286</ele><time>2026-04-19T09:32:46.874Z</time></trkpt><trkpt lat="42.1972833" lon="14.6252133"><ele>5.571428571428571</ele><time>2026-04-19T09:32:47.874Z</time></trkpt><trkpt lat="42.1972517" lon="14.6252983"><ele>5.857142857142858</ele><time>2026-04-19T09:32:48.874Z</time></trkpt><trkpt lat="42.19722" lon="14.6253817"><ele>6.142857142857142</ele><time>2026-04-19T09:32:49.874Z</time></trkpt><trkpt lat="42.1971867" lon="14.6254633"><ele>6.428571428571429</ele><time>2026-04-19T09:32:50.874Z</time></trkpt><trkpt lat="42.1971567" lon="14.6255467"><ele>6.714285714285714</ele><time>2026-04-19T09:32:51.875Z</time></trkpt><trkpt lat="42.1971267" lon="14.6256283"><ele>7.0</ele><time>2026-04-19T09:32:52.875Z</time></trkpt><trkpt lat="42.1970967" lon="14.625715"><ele>7.0</ele><time>2026-04-19T09:32:53.875Z</time></trkpt><trkpt lat="42.1970683" lon="14.6258033"><ele>7.0</ele><time>2026-04-19T09:32:54.874Z</time></trkpt><trkpt lat="42.1970367" lon="14.62589"><ele>7.0</ele><time>2026-04-19T09:32:55.874Z</time></trkpt><trkpt lat="42.1970083" lon="14.6259767"><ele>7.0</ele><time>2026-04-19T09:32:56.875Z</time></trkpt><trkpt lat="42.19698" lon="14.6260617"><ele>7.0</ele><time>2026-04-19T09:32:57.874Z</time></trkpt><trkpt lat="42.1969517" lon="14.6261467"><ele>7.0</ele><time>2026-04-19T09:32:58.875Z</time></trkpt><trkpt lat="42.1969233" lon="14.6262267"><ele>7.0</ele><time>2026-04-19T09:32:59.875Z</time></trkpt><trkpt lat="42.1968933" lon="14.6263117"><ele>5.833333333333334</ele><time>2026-04-19T09:33:00.875Z</time></trkpt><trkpt lat="42.1968667" lon="14.6263917"><ele>4.666666666666667</ele><time>2026-04-19T09:33:01.875Z</time></trkpt><trkpt lat="42.196835" lon="14.62647"><ele>3.5</ele><time>2026-04-19T09:33:02.875Z</time></trkpt><trkpt lat="42.19678" lon="14.6266283"><ele>2.3333333333333335</ele><time>2026-04-19T09:33:04.875Z</time></trkpt><trkpt lat="42.1967533" lon="14.6267117"><ele>1.1666666666666667</ele><time>2026-04-19T09:33:05.874Z</time></trkpt><trkpt lat="42.1967283" lon="14.62679"><ele>0.0</ele><time>2026-04-19T09:33:06.875Z</time></trkpt><trkpt lat="42.1966733" lon="14.626935"><ele>0.4</ele><time>2026-04-19T09:33:08.875Z</time></trkpt><trkpt lat="42.19663" lon="14.6270633"><ele>0.8</ele><time>2026-04-19T09:33:10.874Z</time></trkpt><trkpt lat="42.1965783" lon="14.6271933"><ele>1.2000000000000002</ele><time>2026-04-19T09:33:12.874Z</time></trkpt><trkpt lat="42.1965283" lon="14.62732"><ele>1.6</ele><time>2026-04-19T09:33:14.874Z</time></trkpt><trkpt lat="42.1964833" lon="14.6274417"><ele>2.0</ele><time>2026-04-19T09:33:16.874Z</time></trkpt><trkpt lat="42.19644" lon="14.627565"><ele>2.4000000000000004</ele><time>2026-04-19T09:33:18.875Z</time></trkpt><trkpt lat="42.1963933" lon="14.6276933"><ele>2.8000000000000003</ele><time>2026-04-19T09:33:20.875Z</time></trkpt><trkpt lat="42.19635" lon="14.6278283"><ele>3.2</ele><time>2026-04-19T09:33:22.875Z</time></trkpt><trkpt lat="42.1963017" lon="14.6279633"><ele>3.6</ele><time>2026-04-19T09:33:24.875Z</time></trkpt><trkpt lat="42.1962567" lon="14.6280917"><ele>4.0</ele><time>2026-04-19T09:33:26.874Z</time></trkpt><trkpt lat="42.1962133" lon="14.6282183"><ele>4.0</ele><time>2026-04-19T09:33:28.874Z</time></trkpt><trkpt lat="42.1961717" lon="14.6283367"><ele>4.0</ele><time>2026-04-19T09:33:30.875Z</time></trkpt><trkpt lat="42.1961333" lon="14.62846"><ele>4.0</ele><time>2026-04-19T09:33:32.874Z</time></trkpt><trkpt lat="42.1961217" lon="14.6285817"><ele>4.0</ele><time>2026-04-19T09:33:34.875Z</time></trkpt><trkpt lat="42.1961083" lon="14.628705"><ele>4.0</ele><time>2026-04-19T09:33:36.874Z</time></trkpt><trkpt lat="42.19609" lon="14.628835"><ele>4.0</ele><time>2026-04-19T09:33:38.875Z</time></trkpt><trkpt lat="42.1960767" lon="14.6289733"><ele>4.0</ele><time>2026-04-19T09:33:40.875Z</time></trkpt><trkpt lat="42.19606" lon="14.6291283"><ele>4.0</ele><time>2026-04-19T09:33:42.875Z</time></trkpt><trkpt lat="42.1960167" lon="14.6292783"><ele>4.0</ele><time>2026-04-19T09:33:44.875Z</time></trkpt><trkpt lat="42.1959517" lon="14.62942"><ele>3.833333333333333</ele><time>2026-04-19T09:33:46.875Z</time></trkpt><trkpt lat="42.19592" lon="14.6294967"><ele>3.6666666666666665</ele><time>2026-04-19T09:33:47.874Z</time></trkpt><trkpt lat="42.1958933" lon="14.629575"><ele>3.5</ele><time>2026-04-19T09:33:48.875Z</time></trkpt><trkpt lat="42.1958467" lon="14.629735"><ele>3.333333333333333</ele><time>2026-04-19T09:33:50.874Z</time></trkpt><trkpt lat="42.195825" lon="14.6298183"><ele>3.1666666666666665</ele><time>2026-04-19T09:33:51.875Z</time></trkpt><trkpt lat="42.1958017" lon="14.629905"><ele>3.0</ele><time>2026-04-19T09:33:52.874Z</time></trkpt><trkpt lat="42.1957783" lon="14.6299883"><ele>2.9999999999999996</ele><time>2026-04-19T09:33:53.875Z</time></trkpt><trkpt lat="42.1957517" lon="14.6300733"><ele>3.0</ele><time>2026-04-19T09:33:54.875Z</time></trkpt><trkpt lat="42.1957283" lon="14.6301617"><ele>3.0</ele><time>2026-04-19T09:33:55.874Z</time></trkpt><trkpt lat="42.1957033" lon="14.63025"><ele>3.0</ele><time>2026-04-19T09:33:56.875Z</time></trkpt><trkpt lat="42.19568" lon="14.63034"><ele>3.0</ele><time>2026-04-19T09:33:57.875Z</time></trkpt><trkpt lat="42.1956567" lon="14.63043"><ele>2.9999999999999996</ele><time>2026-04-19T09:33:58.875Z</time></trkpt><trkpt lat="42.19563" lon="14.63052"><ele>3.0</ele><time>2026-04-19T09:33:59.875Z</time></trkpt><trkpt lat="42.195605" lon="14.63061"><ele>3.1428571428571423</ele><time>2026-04-19T09:34:00.875Z</time></trkpt><trkpt lat="42.19558" lon="14.6306983"><ele>3.2857142857142856</ele><time>2026-04-19T09:34:01.874Z</time></trkpt><trkpt lat="42.1955533" lon="14.6307867"><ele>3.4285714285714284</ele><time>2026-04-19T09:34:02.875Z</time></trkpt><trkpt lat="42.1955267" lon="14.630875"><ele>3.571428571428571</ele><time>2026-04-19T09:34:03.875Z</time></trkpt><trkpt lat="42.1955017" lon="14.6309617"><ele>3.714285714285714</ele><time>2026-04-19T09:34:04.874Z</time></trkpt><trkpt lat="42.1954767" lon="14.6310467"><ele>3.8571428571428568</ele><time>2026-04-19T09:34:05.875Z</time></trkpt><trkpt lat="42.1954533" lon="14.63113"><ele>4.0</ele><time>2026-04-19T09:34:06.874Z</time></trkpt><trkpt lat="42.195415" lon="14.63129"><ele>4.0</ele><time>2026-04-19T09:34:08.875Z</time></trkpt><trkpt lat="42.1953733" lon="14.63145"><ele>4.0</ele><time>2026-04-19T09:34:10.875Z</time></trkpt><trkpt lat="42.1953517" lon="14.63153"><ele>4.0</ele><time>2026-04-19T09:34:11.874Z</time></trkpt><trkpt lat="42.195295" lon="14.6316817"><ele>4.0</ele><time>2026-04-19T09:34:13.874Z</time></trkpt><trkpt lat="42.1952683" lon="14.6317633"><ele>4.0</ele><time>2026-04-19T09:34:14.875Z</time></trkpt><trkpt lat="42.1952217" lon="14.6319217"><ele>4.166666666666666</ele><time>2026-04-19T09:34:16.874Z</time></trkpt><trkpt lat="42.1951767" lon="14.6320833"><ele>4.333333333333333</ele><time>2026-04-19T09:34:18.875Z</time></trkpt><trkpt lat="42.1951533" lon="14.6321683"><ele>4.5</ele><time>2026-04-19T09:34:19.875Z</time></trkpt><trkpt lat="42.19513" lon="14.6322533"><ele>4.666666666666667</ele><time>2026-04-19T09:34:20.874Z</time></trkpt><trkpt lat="42.195115" lon="14.6323417"><ele>4.833333333333334</ele><time>2026-04-19T09:34:21.875Z</time></trkpt><trkpt lat="42.19509" lon="14.6324233"><ele>5.0</ele><time>2026-04-19T09:34:22.874Z</time></trkpt><trkpt lat="42.1950667" lon="14.6325067"><ele>5.0</ele><time>2026-04-19T09:34:23.875Z</time></trkpt><trkpt lat="42.1950433" lon="14.6325883"><ele>5.0</ele><time>2026-04-19T09:34:24.875Z</time></trkpt><trkpt lat="42.19502" lon="14.6326683"><ele>5.0</ele><time>2026-04-19T09:34:25.875Z</time></trkpt><trkpt lat="42.1949733" lon="14.632825"><ele>5.0</ele><time>2026-04-19T09:34:27.875Z</time></trkpt><trkpt lat="42.194935" lon="14.6329767"><ele>5.0</ele><time>2026-04-19T09:34:29.875Z</time></trkpt><trkpt lat="42.1949133" lon="14.6330583"><ele>5.0</ele><time>2026-04-19T09:34:30.875Z</time></trkpt><trkpt lat="42.1948917" lon="14.633145"><ele>5.166666666666667</ele><time>2026-04-19T09:34:31.875Z</time></trkpt><trkpt lat="42.1948683" lon="14.63323"><ele>5.333333333333334</ele><time>2026-04-19T09:34:32.875Z</time></trkpt><trkpt lat="42.194845" lon="14.633315"><ele>5.5</ele><time>2026-04-19T09:34:33.875Z</time></trkpt><trkpt lat="42.19482" lon="14.6333983"><ele>5.666666666666667</ele><time>2026-04-19T09:34:34.875Z</time></trkpt><trkpt lat="42.1947967" lon="14.63348"><ele>5.833333333333333</ele><time>2026-04-19T09:34:35.875Z</time></trkpt><trkpt lat="42.1947717" lon="14.6335617"><ele>6.0</ele><time>2026-04-19T09:34:36.875Z</time></trkpt><trkpt lat="42.19473" lon="14.633715"><ele>5.7142857142857135</ele><time>2026-04-19T09:34:38.874Z</time></trkpt><trkpt lat="42.1946917" lon="14.633865"><ele>5.428571428571429</ele><time>2026-04-19T09:34:40.875Z</time></trkpt><trkpt lat="42.194665" lon="14.633945"><ele>5.142857142857142</ele><time>2026-04-19T09:34:41.875Z</time></trkpt><trkpt lat="42.194635" lon="14.634025"><ele>4.857142857142857</ele><time>2026-04-19T09:34:42.875Z</time></trkpt><trkpt lat="42.1946017" lon="14.6341017"><ele>4.571428571428571</ele><time>2026-04-19T09:34:43.875Z</time></trkpt><trkpt lat="42.19457" lon="14.63418"><ele>4.285714285714286</ele><time>2026-04-19T09:34:44.875Z</time></trkpt><trkpt lat="42.1945417" lon="14.6342583"><ele>4.0</ele><time>2026-04-19T09:34:45.875Z</time></trkpt><trkpt lat="42.194515" lon="14.6343367"><ele>3.6666666666666665</ele><time>2026-04-19T09:34:46.874Z</time></trkpt><trkpt lat="42.1944733" lon="14.6344917"><ele>3.333333333333333</ele><time>2026-04-19T09:34:48.875Z</time></trkpt><trkpt lat="42.1944483" lon="14.634575"><ele>3.0</ele><time>2026-04-19T09:34:49.874Z</time></trkpt><trkpt lat="42.1944267" lon="14.63466"><ele>2.6666666666666665</ele><time>2026-04-19T09:34:50.874Z</time></trkpt><trkpt lat="42.1944033" lon="14.6347483"><ele>2.333333333333333</ele><time>2026-04-19T09:34:51.874Z</time></trkpt><trkpt lat="42.1943783" lon="14.6348367"><ele>2.0</ele><time>2026-04-19T09:34:52.875Z</time></trkpt><trkpt lat="42.1943317" lon="14.6349967"><ele>2.0</ele><time>2026-04-19T09:34:54.875Z</time></trkpt><trkpt lat="42.1943117" lon="14.63508"><ele>2.0</ele><time>2026-04-19T09:34:55.874Z</time></trkpt><trkpt lat="42.1942883" lon="14.6351683"><ele>2.0</ele><time>2026-04-19T09:34:56.875Z</time></trkpt><trkpt lat="42.1942467" lon="14.6353283"><ele>2.0</ele><time>2026-04-19T09:34:58.875Z</time></trkpt><trkpt lat="42.1942083" lon="14.6354967"><ele>2.0</ele><time>2026-04-19T09:35:00.875Z</time></trkpt><trkpt lat="42.1941833" lon="14.635585"><ele>1.857142857142857</ele><time>2026-04-19T09:35:01.874Z</time></trkpt><trkpt lat="42.1941567" lon="14.635675"><ele>1.714285714285714</ele><time>2026-04-19T09:35:02.875Z</time></trkpt><trkpt lat="42.1941317" lon="14.6357667"><ele>1.5714285714285714</ele><time>2026-04-19T09:35:03.875Z</time></trkpt><trkpt lat="42.194105" lon="14.6358583"><ele>1.4285714285714284</ele><time>2026-04-19T09:35:04.874Z</time></trkpt><trkpt lat="42.1940767" lon="14.6359467"><ele>1.2857142857142856</ele><time>2026-04-19T09:35:05.874Z</time></trkpt><trkpt lat="42.194055" lon="14.63604"><ele>1.1428571428571428</ele><time>2026-04-19T09:35:06.875Z</time></trkpt><trkpt lat="42.19403" lon="14.6361367"><ele>1.0</ele><time>2026-04-19T09:35:07.875Z</time></trkpt><trkpt lat="42.1940067" lon="14.636225"><ele>1.1428571428571428</ele><time>2026-04-19T09:35:08.874Z</time></trkpt><trkpt lat="42.193985" lon="14.636315"><ele>1.2857142857142856</ele><time>2026-04-19T09:35:09.874Z</time></trkpt><trkpt lat="42.19396" lon="14.6364"><ele>1.4285714285714284</ele><time>2026-04-19T09:35:10.874Z</time></trkpt><trkpt lat="42.1939317" lon="14.6364917"><ele>1.5714285714285714</ele><time>2026-04-19T09:35:11.875Z</time></trkpt><trkpt lat="42.1939" lon="14.6365817"><ele>1.714285714285714</ele><time>2026-04-19T09:35:12.875Z</time></trkpt><trkpt lat="42.19387" lon="14.636675"><ele>1.857142857142857</ele><time>2026-04-19T09:35:13.874Z</time></trkpt><trkpt lat="42.1938433" lon="14.6367667"><ele>2.0</ele><time>2026-04-19T09:35:14.874Z</time></trkpt><trkpt lat="42.193825" lon="14.6368617"><ele>2.0</ele><time>2026-04-19T09:35:15.875Z</time></trkpt><trkpt lat="42.1937967" lon="14.6369567"><ele>1.9999999999999998</ele><time>2026-04-19T09:35:16.875Z</time></trkpt><trkpt lat="42.193775" lon="14.63704"><ele>2.0</ele><time>2026-04-19T09:35:17.875Z</time></trkpt><trkpt lat="42.19374" lon="14.63713"><ele>2.0</ele><time>2026-04-19T09:35:18.874Z</time></trkpt><trkpt lat="42.1937133" lon="14.6372267"><ele>1.9999999999999998</ele><time>2026-04-19T09:35:19.875Z</time></trkpt><trkpt lat="42.1936867" lon="14.637315"><ele>2.0</ele><time>2026-04-19T09:35:20.875Z</time></trkpt><trkpt lat="42.19366" lon="14.6374083"><ele>2.0</ele><time>2026-04-19T09:35:21.875Z</time></trkpt><trkpt lat="42.1936367" lon="14.6374983"><ele>1.857142857142857</ele><time>2026-04-19T09:35:22.874Z</time></trkpt><trkpt lat="42.1936117" lon="14.6375883"><ele>1.714285714285714</ele><time>2026-04-19T09:35:23.874Z</time></trkpt><trkpt lat="42.1935867" lon="14.637685"><ele>1.5714285714285714</ele><time>2026-04-19T09:35:24.874Z</time></trkpt><trkpt lat="42.1935567" lon="14.6377733"><ele>1.4285714285714284</ele><time>2026-04-19T09:35:25.874Z</time></trkpt><trkpt lat="42.1935317" lon="14.63787"><ele>1.2857142857142856</ele><time>2026-04-19T09:35:26.874Z</time></trkpt><trkpt lat="42.1935033" lon="14.6379617"><ele>1.1428571428571428</ele><time>2026-04-19T09:35:27.874Z</time></trkpt><trkpt lat="42.1934667" lon="14.6380467"><ele>1.0</ele><time>2026-04-19T09:35:28.875Z</time></trkpt><trkpt lat="42.19344" lon="14.638135"><ele>0.9999999999999999</ele><time>2026-04-19T09:35:29.875Z</time></trkpt><trkpt lat="42.193415" lon="14.6382317"><ele>1.0</ele><time>2026-04-19T09:35:30.874Z</time></trkpt><trkpt lat="42.1933867" lon="14.6383283"><ele>1.0</ele><time>2026-04-19T09:35:31.874Z</time></trkpt><trkpt lat="42.1933567" lon="14.6384217"><ele>1.0</ele><time>2026-04-19T09:35:32.874Z</time></trkpt><trkpt lat="42.1933283" lon="14.6385167"><ele>0.9999999999999999</ele><time>2026-04-19T09:35:33.875Z</time></trkpt><trkpt lat="42.1932967" lon="14.6386133"><ele>1.0</ele><time>2026-04-19T09:35:34.875Z</time></trkpt><trkpt lat="42.1932667" lon="14.6387117"><ele>0.9999999999999999</ele><time>2026-04-19T09:35:35.875Z</time></trkpt><trkpt lat="42.19324" lon="14.638815"><ele>1.0</ele><time>2026-04-19T09:35:36.875Z</time></trkpt><trkpt lat="42.1932117" lon="14.6389183"><ele>1.0</ele><time>2026-04-19T09:35:37.875Z</time></trkpt><trkpt lat="42.1931883" lon="14.6390217"><ele>1.0</ele><time>2026-04-19T09:35:38.875Z</time></trkpt><trkpt lat="42.1931617" lon="14.6391333"><ele>0.9999999999999999</ele><time>2026-04-19T09:35:39.874Z</time></trkpt><trkpt lat="42.19313" lon="14.6392483"><ele>1.0</ele><time>2026-04-19T09:35:40.875Z</time></trkpt><trkpt lat="42.1931033" lon="14.6393583"><ele>0.6666666666666666</ele><time>2026-04-19T09:35:41.875Z</time></trkpt><trkpt lat="42.1930767" lon="14.6394717"><ele>0.3333333333333333</ele><time>2026-04-19T09:35:42.875Z</time></trkpt><trkpt lat="42.1930533" lon="14.63958"><ele>0.0</ele><time>2026-04-19T09:35:43.875Z</time></trkpt><trkpt lat="42.1930233" lon="14.6396883"><ele>-0.3333333333333333</ele><time>2026-04-19T09:35:44.875Z</time></trkpt><trkpt lat="42.1929917" lon="14.639795"><ele>-0.6666666666666666</ele><time>2026-04-19T09:35:45.874Z</time></trkpt><trkpt lat="42.1929617" lon="14.63991"><ele>-1.0</ele><time>2026-04-19T09:35:46.874Z</time></trkpt><trkpt lat="42.1929317" lon="14.6400317"><ele>-1.0</ele><time>2026-04-19T09:35:47.875Z</time></trkpt><trkpt lat="42.1929033" lon="14.6401483"><ele>-1.0</ele><time>2026-04-19T09:35:48.875Z</time></trkpt><trkpt lat="42.192875" lon="14.6402667"><ele>-1.0</ele><time>2026-04-19T09:35:49.874Z</time></trkpt><trkpt lat="42.1928417" lon="14.6403833"><ele>-1.0</ele><time>2026-04-19T09:35:50.875Z</time></trkpt><trkpt lat="42.1928117" lon="14.6404967"><ele>-1.0</ele><time>2026-04-19T09:35:51.875Z</time></trkpt><trkpt lat="42.1927817" lon="14.6406083"><ele>-0.8333333333333333</ele><time>2026-04-19T09:35:52.874Z</time></trkpt><trkpt lat="42.1927617" lon="14.640715"><ele>-0.6666666666666666</ele><time>2026-04-19T09:35:53.875Z</time></trkpt><trkpt lat="42.1927333" lon="14.640815"><ele>-0.5</ele><time>2026-04-19T09:35:54.874Z</time></trkpt><trkpt lat="42.1927083" lon="14.640915"><ele>-0.3333333333333333</ele><time>2026-04-19T09:35:55.875Z</time></trkpt><trkpt lat="42.19269" lon="14.6410167"><ele>-0.16666666666666666</ele><time>2026-04-19T09:35:56.875Z</time></trkpt><trkpt lat="42.1926733" lon="14.6411133"><ele>0.0</ele><time>2026-04-19T09:35:57.874Z</time></trkpt><trkpt lat="42.1926533" lon="14.64121"><ele>0.0</ele><time>2026-04-19T09:35:58.874Z</time></trkpt><trkpt lat="42.1926317" lon="14.6413"><ele>0.0</ele><time>2026-04-19T09:35:59.874Z</time></trkpt><trkpt lat="42.19261" lon="14.6413867"><ele>0.0</ele><time>2026-04-19T09:36:00.875Z</time></trkpt><trkpt lat="42.1925633" lon="14.6415433"><ele>0.0</ele><time>2026-04-19T09:36:02.875Z</time></trkpt><trkpt lat="42.1925433" lon="14.6416267"><ele>0.0</ele><time>2026-04-19T09:36:03.875Z</time></trkpt><trkpt lat="42.1925233" lon="14.6417133"><ele>0.0</ele><time>2026-04-19T09:36:04.875Z</time></trkpt><trkpt lat="42.1925017" lon="14.641795"><ele>0.0</ele><time>2026-04-19T09:36:05.875Z</time></trkpt><trkpt lat="42.19248" lon="14.6418817"><ele>0.0</ele><time>2026-04-19T09:36:06.874Z</time></trkpt><trkpt lat="42.19246" lon="14.6419767"><ele>0.0</ele><time>2026-04-19T09:36:07.874Z</time></trkpt><trkpt lat="42.1924417" lon="14.6420617"><ele>0.0</ele><time>2026-04-19T09:36:08.874Z</time></trkpt><trkpt lat="42.1924183" lon="14.6421467"><ele>0.0</ele><time>2026-04-19T09:36:09.874Z</time></trkpt><trkpt lat="42.1923717" lon="14.6422983"><ele>0.0</ele><time>2026-04-19T09:36:11.875Z</time></trkpt><trkpt lat="42.1923167" lon="14.6424367"><ele>0.0</ele><time>2026-04-19T09:36:13.875Z</time></trkpt><trkpt lat="42.19223" lon="14.6425567"><ele>0.0</ele><time>2026-04-19T09:36:15.874Z</time></trkpt><trkpt lat="42.19218" lon="14.642615"><ele>0.0</ele><time>2026-04-19T09:36:16.875Z</time></trkpt><trkpt lat="42.19213" lon="14.6426733"><ele>0.0</ele><time>2026-04-19T09:36:17.875Z</time></trkpt><trkpt lat="42.1920417" lon="14.6427917"><ele>0.0</ele><time>2026-04-19T09:36:19.875Z</time></trkpt><trkpt lat="42.1920017" lon="14.6428583"><ele>0.0</ele><time>2026-04-19T09:36:20.875Z</time></trkpt><trkpt lat="42.1919617" lon="14.642925"><ele>0.0</ele><time>2026-04-19T09:36:21.875Z</time></trkpt><trkpt lat="42.1918717" lon="14.6430467"><ele>0.0</ele><time>2026-04-19T09:36:23.874Z</time></trkpt><trkpt lat="42.1917733" lon="14.6431517"><ele>0.0</ele><time>2026-04-19T09:36:25.874Z</time></trkpt><trkpt lat="42.1917217" lon="14.6432033"><ele>0.0</ele><time>2026-04-19T09:36:26.875Z</time></trkpt><trkpt lat="42.1916683" lon="14.6432567"><ele>0.0</ele><time>2026-04-19T09:36:27.875Z</time></trkpt><trkpt lat="42.1916183" lon="14.6433117"><ele>0.0</ele><time>2026-04-19T09:36:28.875Z</time></trkpt><trkpt lat="42.1915733" lon="14.6433733"><ele>0.5</ele><time>2026-04-19T09:36:29.875Z</time></trkpt><trkpt lat="42.1914933" lon="14.6435"><ele>1.0</ele><time>2026-04-19T09:36:31.874Z</time></trkpt><trkpt lat="42.1914233" lon="14.6436183"><ele>1.5</ele><time>2026-04-19T09:36:33.875Z</time></trkpt><trkpt lat="42.19135" lon="14.6437483"><ele>2.0</ele><time>2026-04-19T09:36:35.875Z</time></trkpt><trkpt lat="42.19128" lon="14.6438867"><ele>1.9999999999999998</ele><time>2026-04-19T09:36:37.874Z</time></trkpt><trkpt lat="42.1912433" lon="14.6439567"><ele>2.0</ele><time>2026-04-19T09:36:38.875Z</time></trkpt><trkpt lat="42.191205" lon="14.6440267"><ele>2.0</ele><time>2026-04-19T09:36:39.874Z</time></trkpt><trkpt lat="42.1911667" lon="14.6440967"><ele>2.0</ele><time>2026-04-19T09:36:40.875Z</time></trkpt><trkpt lat="42.1910733" lon="14.6442067"><ele>1.9999999999999998</ele><time>2026-04-19T09:36:42.875Z</time></trkpt><trkpt lat="42.1909667" lon="14.644295"><ele>2.0</ele><time>2026-04-19T09:36:44.874Z</time></trkpt><trkpt lat="42.190855" lon="14.6443683"><ele>2.0</ele><time>2026-04-19T09:36:46.874Z</time></trkpt><trkpt lat="42.190795" lon="14.6443967"><ele>2.0</ele><time>2026-04-19T09:36:47.874Z</time></trkpt><trkpt lat="42.190735" lon="14.6444233"><ele>2.0</ele><time>2026-04-19T09:36:48.875Z</time></trkpt><trkpt lat="42.1906233" lon="14.6444683"><ele>2.0</ele><time>2026-04-19T09:36:50.875Z</time></trkpt><trkpt lat="42.1905233" lon="14.6445"><ele>2.0</ele><time>2026-04-19T09:36:52.875Z</time></trkpt><trkpt lat="42.19042" lon="14.6445317"><ele>2.2</ele><time>2026-04-19T09:36:54.875Z</time></trkpt><trkpt lat="42.190325" lon="14.64457"><ele>2.4000000000000004</ele><time>2026-04-19T09:36:56.875Z</time></trkpt><trkpt lat="42.190245" lon="14.644645"><ele>2.5999999999999996</ele><time>2026-04-19T09:36:58.874Z</time></trkpt><trkpt lat="42.190185" lon="14.644765"><ele>2.8</ele><time>2026-04-19T09:37:00.874Z</time></trkpt><trkpt lat="42.1901483" lon="14.6449033"><ele>3.0</ele><time>2026-04-19T09:37:02.874Z</time></trkpt><trkpt lat="42.1901167" lon="14.64502"><ele>3.0</ele><time>2026-04-19T09:37:04.875Z</time></trkpt><trkpt lat="42.1900817" lon="14.64511"><ele>3.0</ele><time>2026-04-19T09:37:06.874Z</time></trkpt><trkpt lat="42.1900533" lon="14.6452117"><ele>3.0</ele><time>2026-04-19T09:37:08.875Z</time></trkpt><trkpt lat="42.19002" lon="14.6452983"><ele>3.0</ele><time>2026-04-19T09:37:10.875Z</time></trkpt><trkpt lat="42.1899633" lon="14.6453867"><ele>3.0</ele><time>2026-04-19T09:37:13.875Z</time></trkpt><trkpt lat="42.1899117" lon="14.645485"><ele>3.0</ele><time>2026-04-19T09:37:16.874Z</time></trkpt><trkpt lat="42.189875" lon="14.645565"><ele>3.0</ele><time>2026-04-19T09:37:19.875Z</time></trkpt><trkpt lat="42.1898417" lon="14.645665"><ele>3.0</ele><time>2026-04-19T09:37:22.874Z</time></trkpt><trkpt lat="42.1898033" lon="14.645775"><ele>3.0</ele><time>2026-04-19T09:37:25.875Z</time></trkpt><trkpt lat="42.189775" lon="14.645885"><ele>3.0</ele><time>2026-04-19T09:37:28.875Z</time></trkpt><trkpt lat="42.1897567" lon="14.64601"><ele>3.0</ele><time>2026-04-19T09:37:31.874Z</time></trkpt><trkpt lat="42.1897467" lon="14.6461"><ele>3.0</ele><time>2026-04-19T09:37:33.874Z</time></trkpt><trkpt lat="42.1897433" lon="14.64622"><ele>3.2857142857142856</ele><time>2026-04-19T09:37:36.874Z</time></trkpt><trkpt lat="42.1897383" lon="14.6463367"><ele>3.571428571428571</ele><time>2026-04-19T09:37:39.875Z</time></trkpt><trkpt lat="42.189735" lon="14.64644"><ele>3.8571428571428568</ele><time>2026-04-19T09:37:42.874Z</time></trkpt><trkpt lat="42.18973" lon="14.646535"><ele>4.142857142857142</ele><time>2026-04-19T09:37:45.875Z</time></trkpt><trkpt lat="42.1897267" lon="14.64662"><ele>4.428571428571429</ele><time>2026-04-19T09:37:48.874Z</time></trkpt><trkpt lat="42.1897233" lon="14.64671"><ele>4.714285714285714</ele><time>2026-04-19T09:37:51.875Z</time></trkpt><trkpt lat="42.189715" lon="14.6468033"><ele>5.0</ele><time>2026-04-19T09:37:54.874Z</time></trkpt><trkpt lat="42.1897017" lon="14.6469083"><ele>4.857142857142857</ele><time>2026-04-19T09:37:58.875Z</time></trkpt><trkpt lat="42.1897" lon="14.64701"><ele>4.714285714285714</ele><time>2026-04-19T09:38:01.874Z</time></trkpt><trkpt lat="42.1896983" lon="14.6471033"><ele>4.571428571428571</ele><time>2026-04-19T09:38:04.875Z</time></trkpt><trkpt lat="42.1896933" lon="14.6471967"><ele>4.428571428571429</ele><time>2026-04-19T09:38:07.875Z</time></trkpt><trkpt lat="42.1896883" lon="14.6472983"><ele>4.285714285714286</ele><time>2026-04-19T09:38:10.875Z</time></trkpt><trkpt lat="42.1896867" lon="14.6474117"><ele>4.142857142857142</ele><time>2026-04-19T09:38:13.875Z</time></trkpt><trkpt lat="42.1896867" lon="14.64751"><ele>4.0</ele><time>2026-04-19T09:38:16.875Z</time></trkpt><trkpt lat="42.18968" lon="14.6476617"><ele>3.9999999999999996</ele><time>2026-04-19T09:38:51.875Z</time></trkpt><trkpt lat="42.189675" lon="14.64778"><ele>4.0</ele><time>2026-04-19T09:38:54.874Z</time></trkpt><trkpt lat="42.1896733" lon="14.6478817"><ele>4.0</ele><time>2026-04-19T09:38:56.874Z</time></trkpt><trkpt lat="42.18968" lon="14.64799"><ele>4.0</ele><time>2026-04-19T09:38:58.875Z</time></trkpt><trkpt lat="42.189675" lon="14.6481067"><ele>3.9999999999999996</ele><time>2026-04-19T09:39:00.875Z</time></trkpt><trkpt lat="42.1896717" lon="14.648215"><ele>4.0</ele><time>2026-04-19T09:39:02.875Z</time></trkpt><trkpt lat="42.1896533" lon="14.6483017"><ele>4.6</ele><time>2026-04-19T09:39:04.875Z</time></trkpt><trkpt lat="42.1896217" lon="14.6484033"><ele>5.2</ele><time>2026-04-19T09:39:06.875Z</time></trkpt><trkpt lat="42.1895867" lon="14.6485367"><ele>5.799999999999999</ele><time>2026-04-19T09:39:08.875Z</time></trkpt><trkpt lat="42.1895633" lon="14.648675"><ele>6.3999999999999995</ele><time>2026-04-19T09:39:10.875Z</time></trkpt><trkpt lat="42.18955" lon="14.6488083"><ele>7.0</ele><time>2026-04-19T09:39:12.875Z</time></trkpt><trkpt lat="42.1895417" lon="14.6489217"><ele>7.000000000000001</ele><time>2026-04-19T09:39:14.874Z</time></trkpt><trkpt lat="42.1895217" lon="14.6490133"><ele>7.0</ele><time>2026-04-19T09:39:16.875Z</time></trkpt><trkpt lat="42.1894617" lon="14.6489767"><ele>7.0</ele><time>2026-04-19T09:39:21.875Z</time></trkpt><trkpt lat="42.18949" lon="14.6488783"><ele>7.0</ele><time>2026-04-19T09:39:23.875Z</time></trkpt><trkpt lat="42.1895217" lon="14.6487717"><ele>7.000000000000001</ele><time>2026-04-19T09:39:25.875Z</time></trkpt><trkpt lat="42.1895417" lon="14.64864"><ele>7.0</ele><time>2026-04-19T09:39:27.875Z</time></trkpt><trkpt lat="42.18954" lon="14.648505"><ele>7.000000000000001</ele><time>2026-04-19T09:39:29.875Z</time></trkpt><trkpt lat="42.18953" lon="14.6483683"><ele>7.0</ele><time>2026-04-19T09:39:31.875Z</time></trkpt><trkpt lat="42.189515" lon="14.64824"><ele>7.0</ele><time>2026-04-19T09:39:33.874Z</time></trkpt><trkpt lat="42.1895017" lon="14.6481417"><ele>7.0</ele><time>2026-04-19T09:39:35.874Z</time></trkpt><trkpt lat="42.18949" lon="14.648055"><ele>7.000000000000001</ele><time>2026-04-19T09:39:38.874Z</time></trkpt><trkpt lat="42.18944" lon="14.6479867"><ele>7.0</ele><time>2026-04-19T09:39:44.875Z</time></trkpt><trkpt lat="42.1893667" lon="14.6479617"><ele>7.000000000000001</ele><time>2026-04-19T09:39:48.874Z</time></trkpt><trkpt lat="42.1892867" lon="14.6479067"><ele>7.0</ele><time>2026-04-19T09:39:51.875Z</time></trkpt><trkpt lat="42.1892233" lon="14.6479017"><ele>7.0</ele><time>2026-04-19T09:39:53.874Z</time></trkpt><trkpt lat="42.1891417" lon="14.6479117"><ele>7.0</ele><time>2026-04-19T09:39:56.874Z</time></trkpt><trkpt lat="42.1890567" lon="14.6479083"><ele>7.000000000000001</ele><time>2026-04-19T09:39:59.875Z</time></trkpt><trkpt lat="42.18898" lon="14.6479"><ele>7.0</ele><time>2026-04-19T09:40:01.875Z</time></trkpt><trkpt lat="42.1888983" lon="14.6478617"><ele>7.0</ele><time>2026-04-19T09:40:03.874Z</time></trkpt><trkpt lat="42.1888167" lon="14.6478383"><ele>6.999999999999999</ele><time>2026-04-19T09:40:05.874Z</time></trkpt><trkpt lat="42.18874" lon="14.64782"><ele>6.999999999999999</ele><time>2026-04-19T09:40:07.875Z</time></trkpt><trkpt lat="42.1886333" lon="14.64783"><ele>7.0</ele><time>2026-04-19T09:40:09.875Z</time></trkpt><trkpt lat="42.1885283" lon="14.6478333"><ele>7.0</ele><time>2026-04-19T09:40:11.875Z</time></trkpt><trkpt lat="42.1884233" lon="14.6478433"><ele>7.000000000000001</ele><time>2026-04-19T09:40:13.875Z</time></trkpt><trkpt lat="42.1883283" lon="14.64785"><ele>7.0</ele><time>2026-04-19T09:40:15.875Z</time></trkpt><trkpt lat="42.188245" lon="14.647865"><ele>7.0</ele><time>2026-04-19T09:40:17.875Z</time></trkpt><trkpt lat="42.18817" lon="14.647885"><ele>7.0</ele><time>2026-04-19T09:40:19.875Z</time></trkpt><trkpt lat="42.1880867" lon="14.6479133"><ele>7.000000000000001</ele><time>2026-04-19T09:40:21.875Z</time></trkpt><trkpt lat="42.188" lon="14.6479317"><ele>7.0</ele><time>2026-04-19T09:40:23.874Z</time></trkpt><trkpt lat="42.1879067" lon="14.64794"><ele>6.3999999999999995</ele><time>2026-04-19T09:40:25.875Z</time></trkpt><trkpt lat="42.1878117" lon="14.6479467"><ele>5.799999999999999</ele><time>2026-04-19T09:40:27.874Z</time></trkpt><trkpt lat="42.1877133" lon="14.6479533"><ele>5.2</ele><time>2026-04-19T09:40:29.874Z</time></trkpt><trkpt lat="42.18762" lon="14.6479783"><ele>4.6</ele><time>2026-04-19T09:40:31.874Z</time></trkpt><trkpt lat="42.18753" lon="14.6480267"><ele>4.0</ele><time>2026-04-19T09:40:33.875Z</time></trkpt><trkpt lat="42.187425" lon="14.6480683"><ele>4.0</ele><time>2026-04-19T09:40:35.875Z</time></trkpt><trkpt lat="42.1873117" lon="14.6481083"><ele>4.0</ele><time>2026-04-19T09:40:37.875Z</time></trkpt><trkpt lat="42.1872183" lon="14.6481333"><ele>4.0</ele><time>2026-04-19T09:40:39.875Z</time></trkpt><trkpt lat="42.1871217" lon="14.648165"><ele>4.0</ele><time>2026-04-19T09:40:41.874Z</time></trkpt><trkpt lat="42.18702" lon="14.6481733"><ele>4.0</ele><time>2026-04-19T09:40:43.875Z</time></trkpt><trkpt lat="42.1869267" lon="14.6482233"><ele>3.9999999999999996</ele><time>2026-04-19T09:40:45.874Z</time></trkpt><trkpt lat="42.1868483" lon="14.6482717"><ele>4.0</ele><time>2026-04-19T09:40:47.874Z</time></trkpt><trkpt lat="42.1867717" lon="14.6483117"><ele>4.0</ele><time>2026-04-19T09:40:49.874Z</time></trkpt><trkpt lat="42.1867083" lon="14.64834"><ele>4.0</ele><time>2026-04-19T09:40:51.875Z</time></trkpt><trkpt lat="42.1866383" lon="14.6483717"><ele>3.9999999999999996</ele><time>2026-04-19T09:40:53.874Z</time></trkpt><trkpt lat="42.18656" lon="14.6484083"><ele>4.0</ele><time>2026-04-19T09:40:55.874Z</time></trkpt><trkpt lat="42.1864767" lon="14.64845"><ele>3.833333333333333</ele><time>2026-04-19T09:40:57.875Z</time></trkpt><trkpt lat="42.1864" lon="14.648495"><ele>3.6666666666666665</ele><time>2026-04-19T09:40:59.875Z</time></trkpt><trkpt lat="42.1863283" lon="14.6485267"><ele>3.5</ele><time>2026-04-19T09:41:01.874Z</time></trkpt><trkpt lat="42.1862633" lon="14.6485467"><ele>3.333333333333333</ele><time>2026-04-19T09:41:03.875Z</time></trkpt><trkpt lat="42.1861983" lon="14.6485933"><ele>3.1666666666666665</ele><time>2026-04-19T09:41:05.874Z</time></trkpt><trkpt lat="42.1861283" lon="14.6486583"><ele>3.0</ele><time>2026-04-19T09:41:07.875Z</time></trkpt><trkpt lat="42.186055" lon="14.6487283"><ele>3.5</ele><time>2026-04-19T09:41:09.874Z</time></trkpt><trkpt lat="42.1859883" lon="14.648775"><ele>4.0</ele><time>2026-04-19T09:41:11.875Z</time></trkpt><trkpt lat="42.18592" lon="14.64882"><ele>4.5</ele><time>2026-04-19T09:41:13.874Z</time></trkpt><trkpt lat="42.1858517" lon="14.64887"><ele>5.0</ele><time>2026-04-19T09:41:15.874Z</time></trkpt><trkpt lat="42.1857783" lon="14.6489267"><ele>5.5</ele><time>2026-04-19T09:41:17.875Z</time></trkpt><trkpt lat="42.18571" lon="14.64898"><ele>6.0</ele><time>2026-04-19T09:41:19.875Z</time></trkpt><trkpt lat="42.1856433" lon="14.6490333"><ele>6.0</ele><time>2026-04-19T09:41:21.875Z</time></trkpt><trkpt lat="42.18557" lon="14.649075"><ele>6.0</ele><time>2026-04-19T09:41:23.874Z</time></trkpt><trkpt lat="42.1855" lon="14.64912"><ele>6.0</ele><time>2026-04-19T09:41:25.875Z</time></trkpt><trkpt lat="42.1854267" lon="14.6492"><ele>6.0</ele><time>2026-04-19T09:41:27.875Z</time></trkpt><trkpt lat="42.185355" lon="14.649285"><ele>6.0</ele><time>2026-04-19T09:41:29.875Z</time></trkpt><trkpt lat="42.1852833" lon="14.6493617"><ele>6.0</ele><time>2026-04-19T09:41:31.874Z</time></trkpt><trkpt lat="42.185215" lon="14.6494317"><ele>6.0</ele><time>2026-04-19T09:41:33.875Z</time></trkpt><trkpt lat="42.185145" lon="14.6495083"><ele>6.0</ele><time>2026-04-19T09:41:35.875Z</time></trkpt><trkpt lat="42.185075" lon="14.649585"><ele>6.0</ele><time>2026-04-19T09:41:37.875Z</time></trkpt><trkpt lat="42.1850083" lon="14.6496567"><ele>6.0</ele><time>2026-04-19T09:41:39.875Z</time></trkpt><trkpt lat="42.1849417" lon="14.6497317"><ele>6.0</ele><time>2026-04-19T09:41:41.875Z</time></trkpt><trkpt lat="42.1848683" lon="14.6498083"><ele>6.0</ele><time>2026-04-19T09:41:43.875Z</time></trkpt><trkpt lat="42.1847983" lon="14.64988"><ele>6.0</ele><time>2026-04-19T09:41:45.875Z</time></trkpt><trkpt lat="42.1847267" lon="14.6499667"><ele>6.0</ele><time>2026-04-19T09:41:47.875Z</time></trkpt><trkpt lat="42.1846567" lon="14.65004"><ele>6.0</ele><time>2026-04-19T09:41:49.874Z</time></trkpt><trkpt lat="42.1845833" lon="14.6501217"><ele>6.0</ele><time>2026-04-19T09:41:51.874Z</time></trkpt><trkpt lat="42.184515" lon="14.6502033"><ele>6.0</ele><time>2026-04-19T09:41:53.875Z</time></trkpt><trkpt lat="42.1844417" lon="14.650285"><ele>7.199999999999999</ele><time>2026-04-19T09:41:55.874Z</time></trkpt><trkpt lat="42.1843583" lon="14.6503517"><ele>8.399999999999999</ele><time>2026-04-19T09:41:57.874Z</time></trkpt><trkpt lat="42.184275" lon="14.6504283"><ele>9.6</ele><time>2026-04-19T09:41:59.875Z</time></trkpt><trkpt lat="42.1841933" lon="14.6504983"><ele>10.799999999999999</ele><time>2026-04-19T09:42:01.874Z</time></trkpt><trkpt lat="42.1841183" lon="14.6505667"><ele>12.0</ele><time>2026-04-19T09:42:03.875Z</time></trkpt><trkpt lat="42.1840333" lon="14.6506417"><ele>10.4</ele><time>2026-04-19T09:42:05.874Z</time></trkpt><trkpt lat="42.1839533" lon="14.650715"><ele>8.799999999999999</ele><time>2026-04-19T09:42:07.874Z</time></trkpt><trkpt lat="42.1838767" lon="14.6508017"><ele>7.2</ele><time>2026-04-19T09:42:09.875Z</time></trkpt><trkpt lat="42.1837917" lon="14.6508667"><ele>5.6</ele><time>2026-04-19T09:42:11.874Z</time></trkpt><trkpt lat="42.1837133" lon="14.65093"><ele>4.0</ele><time>2026-04-19T09:42:13.874Z</time></trkpt><trkpt lat="42.18363" lon="14.65099"><ele>4.0</ele><time>2026-04-19T09:42:15.875Z</time></trkpt><trkpt lat="42.1835583" lon="14.65104"><ele>4.0</ele><time>2026-04-19T09:42:17.875Z</time></trkpt><trkpt lat="42.183485" lon="14.6510933"><ele>4.0</ele><time>2026-04-19T09:42:19.875Z</time></trkpt><trkpt lat="42.1834033" lon="14.6511517"><ele>4.0</ele><time>2026-04-19T09:42:21.875Z</time></trkpt><trkpt lat="42.1833167" lon="14.6512133"><ele>4.0</ele><time>2026-04-19T09:42:23.875Z</time></trkpt><trkpt lat="42.1832283" lon="14.6512667"><ele>5.4</ele><time>2026-04-19T09:42:25.875Z</time></trkpt><trkpt lat="42.18314" lon="14.6513133"><ele>6.800000000000001</ele><time>2026-04-19T09:42:27.875Z</time></trkpt><trkpt lat="42.1830533" lon="14.6513717"><ele>8.200000000000001</ele><time>2026-04-19T09:42:29.875Z</time></trkpt><trkpt lat="42.18297" lon="14.65142"><ele>9.600000000000001</ele><time>2026-04-19T09:42:31.875Z</time></trkpt><trkpt lat="42.1828867" lon="14.6514533"><ele>11.0</ele><time>2026-04-19T09:42:33.875Z</time></trkpt><trkpt lat="42.182795" lon="14.6514733"><ele>11.0</ele><time>2026-04-19T09:42:35.875Z</time></trkpt><trkpt lat="42.1827033" lon="14.6514867"><ele>11.0</ele><time>2026-04-19T09:42:37.874Z</time></trkpt><trkpt lat="42.18262" lon="14.6515067"><ele>11.0</ele><time>2026-04-19T09:42:39.875Z</time></trkpt><trkpt lat="42.1825283" lon="14.6515233"><ele>11.0</ele><time>2026-04-19T09:42:41.874Z</time></trkpt><trkpt lat="42.1824383" lon="14.6515533"><ele>11.0</ele><time>2026-04-19T09:42:43.874Z</time></trkpt><trkpt lat="42.1823467" lon="14.65158"><ele>11.600000000000001</ele><time>2026-04-19T09:42:45.875Z</time></trkpt><trkpt lat="42.18225" lon="14.65159"><ele>12.2</ele><time>2026-04-19T09:42:47.874Z</time></trkpt><trkpt lat="42.182155" lon="14.6515933"><ele>12.799999999999999</ele><time>2026-04-19T09:42:49.874Z</time></trkpt><trkpt lat="42.1820633" lon="14.6515917"><ele>13.399999999999999</ele><time>2026-04-19T09:42:51.875Z</time></trkpt><trkpt lat="42.181965" lon="14.6515767"><ele>14.0</ele><time>2026-04-19T09:42:53.875Z</time></trkpt><trkpt lat="42.181875" lon="14.6515467"><ele>14.0</ele><time>2026-04-19T09:42:55.875Z</time></trkpt><trkpt lat="42.1817883" lon="14.6515"><ele>13.999999999999998</ele><time>2026-04-19T09:42:57.874Z</time></trkpt><trkpt lat="42.1816933" lon="14.6514783"><ele>13.999999999999998</ele><time>2026-04-19T09:42:59.875Z</time></trkpt><trkpt lat="42.18161" lon="14.6514533"><ele>14.0</ele><time>2026-04-19T09:43:01.875Z</time></trkpt><trkpt lat="42.1815233" lon="14.6514267"><ele>14.0</ele><time>2026-04-19T09:43:03.874Z</time></trkpt><trkpt lat="42.1814383" lon="14.6514017"><ele>14.2</ele><time>2026-04-19T09:43:05.875Z</time></trkpt><trkpt lat="42.1813583" lon="14.6513567"><ele>14.399999999999999</ele><time>2026-04-19T09:43:07.875Z</time></trkpt><trkpt lat="42.1812733" lon="14.6513267"><ele>14.6</ele><time>2026-04-19T09:43:09.874Z</time></trkpt><trkpt lat="42.1811833" lon="14.651295"><ele>14.8</ele><time>2026-04-19T09:43:11.875Z</time></trkpt><trkpt lat="42.1810933" lon="14.6512583"><ele>15.0</ele><time>2026-04-19T09:43:13.874Z</time></trkpt><trkpt lat="42.1809867" lon="14.6511983"><ele>13.8</ele><time>2026-04-19T09:43:15.875Z</time></trkpt><trkpt lat="42.1808917" lon="14.651115"><ele>12.6</ele><time>2026-04-19T09:43:17.875Z</time></trkpt><trkpt lat="42.1807883" lon="14.6510333"><ele>11.4</ele><time>2026-04-19T09:43:19.875Z</time></trkpt><trkpt lat="42.1806983" lon="14.6509517"><ele>10.2</ele><time>2026-04-19T09:43:21.875Z</time></trkpt><trkpt lat="42.180615" lon="14.6508717"><ele>9.0</ele><time>2026-04-19T09:43:23.874Z</time></trkpt><trkpt lat="42.1805233" lon="14.6507917"><ele>9.0</ele><time>2026-04-19T09:43:25.875Z</time></trkpt><trkpt lat="42.1804433" lon="14.6506983"><ele>9.0</ele><time>2026-04-19T09:43:27.875Z</time></trkpt><trkpt lat="42.1803783" lon="14.6505967"><ele>9.0</ele><time>2026-04-19T09:43:29.875Z</time></trkpt><trkpt lat="42.1803267" lon="14.6504883"><ele>9.0</ele><time>2026-04-19T09:43:31.874Z</time></trkpt><trkpt lat="42.1802617" lon="14.6504"><ele>9.0</ele><time>2026-04-19T09:43:33.874Z</time></trkpt><trkpt lat="42.1801883" lon="14.6502967"><ele>8.8</ele><time>2026-04-19T09:43:35.874Z</time></trkpt><trkpt lat="42.18013" lon="14.65019"><ele>8.600000000000001</ele><time>2026-04-19T09:43:37.875Z</time></trkpt><trkpt lat="42.1800783" lon="14.6500867"><ele>8.4</ele><time>2026-04-19T09:43:39.875Z</time></trkpt><trkpt lat="42.1799983" lon="14.64999"><ele>8.200000000000001</ele><time>2026-04-19T09:43:41.874Z</time></trkpt><trkpt lat="42.179935" lon="14.64988"><ele>8.0</ele><time>2026-04-19T09:43:43.875Z</time></trkpt><trkpt lat="42.1798783" lon="14.64976"><ele>8.0</ele><time>2026-04-19T09:43:45.874Z</time></trkpt><trkpt lat="42.1798133" lon="14.64965"><ele>8.0</ele><time>2026-04-19T09:43:47.875Z</time></trkpt><trkpt lat="42.1797483" lon="14.64955"><ele>8.0</ele><time>2026-04-19T09:43:49.875Z</time></trkpt><trkpt lat="42.1796917" lon="14.6494433"><ele>8.0</ele><time>2026-04-19T09:43:51.875Z</time></trkpt><trkpt lat="42.17962" lon="14.649335"><ele>8.0</ele><time>2026-04-19T09:43:53.875Z</time></trkpt><trkpt lat="42.1795483" lon="14.649215"><ele>8.0</ele><time>2026-04-19T09:43:55.874Z</time></trkpt><trkpt lat="42.179465" lon="14.6490983"><ele>8.0</ele><time>2026-04-19T09:43:57.875Z</time></trkpt><trkpt lat="42.1793783" lon="14.649"><ele>8.0</ele><time>2026-04-19T09:43:59.874Z</time></trkpt><trkpt lat="42.1792917" lon="14.648905"><ele>8.0</ele><time>2026-04-19T09:44:01.875Z</time></trkpt><trkpt lat="42.1792067" lon="14.6488133"><ele>8.0</ele><time>2026-04-19T09:44:03.874Z</time></trkpt><trkpt lat="42.17911" lon="14.6487317"><ele>8.0</ele><time>2026-04-19T09:44:05.875Z</time></trkpt><trkpt lat="42.179005" lon="14.6486617"><ele>8.0</ele><time>2026-04-19T09:44:07.875Z</time></trkpt><trkpt lat="42.1789" lon="14.648585"><ele>8.0</ele><time>2026-04-19T09:44:09.874Z</time></trkpt><trkpt lat="42.1787933" lon="14.6485167"><ele>7.6000000000000005</ele><time>2026-04-19T09:44:11.875Z</time></trkpt><trkpt lat="42.1786767" lon="14.6484633"><ele>7.200000000000001</ele><time>2026-04-19T09:44:13.875Z</time></trkpt><trkpt lat="42.178565" lon="14.6484267"><ele>6.8</ele><time>2026-04-19T09:44:15.874Z</time></trkpt><trkpt lat="42.178465" lon="14.648405"><ele>6.4</ele><time>2026-04-19T09:44:17.874Z</time></trkpt><trkpt lat="42.1783617" lon="14.6483717"><ele>6.0</ele><time>2026-04-19T09:44:19.875Z</time></trkpt><trkpt lat="42.1782617" lon="14.648325"><ele>6.199999999999999</ele><time>2026-04-19T09:44:21.875Z</time></trkpt><trkpt lat="42.1781567" lon="14.6482867"><ele>6.3999999999999995</ele><time>2026-04-19T09:44:23.875Z</time></trkpt><trkpt lat="42.17806" lon="14.6482467"><ele>6.6</ele><time>2026-04-19T09:44:25.875Z</time></trkpt><trkpt lat="42.1779733" lon="14.6482033"><ele>6.8</ele><time>2026-04-19T09:44:27.874Z</time></trkpt><trkpt lat="42.1778933" lon="14.648165"><ele>7.0</ele><time>2026-04-19T09:44:29.875Z</time></trkpt><trkpt lat="42.177815" lon="14.6481333"><ele>7.0</ele><time>2026-04-19T09:44:31.874Z</time></trkpt><trkpt lat="42.1777333" lon="14.6481067"><ele>6.999999999999999</ele><time>2026-04-19T09:44:33.875Z</time></trkpt><trkpt lat="42.1776467" lon="14.6480717"><ele>6.999999999999999</ele><time>2026-04-19T09:44:35.875Z</time></trkpt><trkpt lat="42.1775633" lon="14.6480217"><ele>7.0</ele><time>2026-04-19T09:44:37.875Z</time></trkpt><trkpt lat="42.1774733" lon="14.647975"><ele>7.0</ele><time>2026-04-19T09:44:39.874Z</time></trkpt><trkpt lat="42.1773933" lon="14.6479217"><ele>7.0</ele><time>2026-04-19T09:44:41.875Z</time></trkpt><trkpt lat="42.1773167" lon="14.6478683"><ele>6.999999999999999</ele><time>2026-04-19T09:44:43.874Z</time></trkpt><trkpt lat="42.1772283" lon="14.6478183"><ele>6.999999999999999</ele><time>2026-04-19T09:44:45.874Z</time></trkpt><trkpt lat="42.17715" lon="14.64776"><ele>7.0</ele><time>2026-04-19T09:44:47.875Z</time></trkpt><trkpt lat="42.1770717" lon="14.6476883"><ele>7.0</ele><time>2026-04-19T09:44:49.875Z</time></trkpt><trkpt lat="42.1769917" lon="14.6476183"><ele>7.0</ele><time>2026-04-19T09:44:51.874Z</time></trkpt><trkpt lat="42.1769083" lon="14.6475417"><ele>6.999999999999999</ele><time>2026-04-19T09:44:53.875Z</time></trkpt><trkpt lat="42.1768317" lon="14.6474567"><ele>6.999999999999999</ele><time>2026-04-19T09:44:55.875Z</time></trkpt><trkpt lat="42.17676" lon="14.6473583"><ele>7.0</ele><time>2026-04-19T09:44:57.875Z</time></trkpt><trkpt lat="42.1766933" lon="14.6472617"><ele>7.0</ele><time>2026-04-19T09:44:59.874Z</time></trkpt><trkpt lat="42.1766217" lon="14.6471617"><ele>7.0</ele><time>2026-04-19T09:45:01.875Z</time></trkpt><trkpt lat="42.1765567" lon="14.64707"><ele>6.999999999999999</ele><time>2026-04-19T09:45:03.875Z</time></trkpt><trkpt lat="42.1764833" lon="14.6469717"><ele>6.999999999999999</ele><time>2026-04-19T09:45:05.874Z</time></trkpt><trkpt lat="42.1764133" lon="14.6468733"><ele>7.0</ele><time>2026-04-19T09:45:07.874Z</time></trkpt><trkpt lat="42.176345" lon="14.646765"><ele>7.0</ele><time>2026-04-19T09:45:09.875Z</time></trkpt><trkpt lat="42.1762883" lon="14.6466517"><ele>7.0</ele><time>2026-04-19T09:45:11.875Z</time></trkpt><trkpt lat="42.1762383" lon="14.6465367"><ele>6.999999999999999</ele><time>2026-04-19T09:45:13.874Z</time></trkpt><trkpt lat="42.176195" lon="14.6464017"><ele>6.999999999999999</ele><time>2026-04-19T09:45:15.875Z</time></trkpt><trkpt lat="42.1761583" lon="14.6462767"><ele>7.0</ele><time>2026-04-19T09:45:17.875Z</time></trkpt><trkpt lat="42.1761167" lon="14.6461467"><ele>7.0</ele><time>2026-04-19T09:45:19.875Z</time></trkpt><trkpt lat="42.176085" lon="14.64602"><ele>7.166666666666667</ele><time>2026-04-19T09:45:21.875Z</time></trkpt><trkpt lat="42.1760567" lon="14.6459133"><ele>7.333333333333334</ele><time>2026-04-19T09:45:23.874Z</time></trkpt><trkpt lat="42.1760283" lon="14.6458183"><ele>7.5</ele><time>2026-04-19T09:45:26.875Z</time></trkpt><trkpt lat="42.1759867" lon="14.6457017"><ele>7.666666666666666</ele><time>2026-04-19T09:45:29.875Z</time></trkpt><trkpt lat="42.1759517" lon="14.6455917"><ele>7.833333333333333</ele><time>2026-04-19T09:45:31.875Z</time></trkpt><trkpt lat="42.1759233" lon="14.6454667"><ele>8.0</ele><time>2026-04-19T09:45:33.874Z</time></trkpt><trkpt lat="42.1758933" lon="14.645335"><ele>8.200000000000001</ele><time>2026-04-19T09:45:35.875Z</time></trkpt><trkpt lat="42.175865" lon="14.6452117"><ele>8.4</ele><time>2026-04-19T09:45:37.875Z</time></trkpt><trkpt lat="42.1758433" lon="14.6451"><ele>8.600000000000001</ele><time>2026-04-19T09:45:39.874Z</time></trkpt><trkpt lat="42.1758117" lon="14.644995"><ele>8.8</ele><time>2026-04-19T09:45:41.875Z</time></trkpt><trkpt lat="42.1757767" lon="14.6448667"><ele>9.0</ele><time>2026-04-19T09:45:43.874Z</time></trkpt><trkpt lat="42.175745" lon="14.64473"><ele>9.0</ele><time>2026-04-19T09:45:45.875Z</time></trkpt><trkpt lat="42.1757133" lon="14.6445967"><ele>9.0</ele><time>2026-04-19T09:45:47.874Z</time></trkpt><trkpt lat="42.175685" lon="14.6444567"><ele>9.0</ele><time>2026-04-19T09:45:49.875Z</time></trkpt><trkpt lat="42.17565" lon="14.64433"><ele>9.0</ele><time>2026-04-19T09:45:51.875Z</time></trkpt><trkpt lat="42.1756133" lon="14.6442017"><ele>9.0</ele><time>2026-04-19T09:45:53.874Z</time></trkpt><trkpt lat="42.175575" lon="14.6440783"><ele>8.8</ele><time>2026-04-19T09:45:55.875Z</time></trkpt><trkpt lat="42.1755367" lon="14.6439567"><ele>8.600000000000001</ele><time>2026-04-19T09:45:57.875Z</time></trkpt><trkpt lat="42.1754917" lon="14.6438333"><ele>8.4</ele><time>2026-04-19T09:45:59.875Z</time></trkpt><trkpt lat="42.1754467" lon="14.643705"><ele>8.200000000000001</ele><time>2026-04-19T09:46:01.874Z</time></trkpt><trkpt lat="42.1753917" lon="14.6435733"><ele>8.0</ele><time>2026-04-19T09:46:03.875Z</time></trkpt><trkpt lat="42.1753383" lon="14.6434533"><ele>8.4</ele><time>2026-04-19T09:46:05.875Z</time></trkpt><trkpt lat="42.1752783" lon="14.6433417"><ele>8.8</ele><time>2026-04-19T09:46:07.875Z</time></trkpt><trkpt lat="42.1752117" lon="14.6432283"><ele>9.2</ele><time>2026-04-19T09:46:09.874Z</time></trkpt><trkpt lat="42.1751383" lon="14.6431133"><ele>9.6</ele><time>2026-04-19T09:46:11.874Z</time></trkpt><trkpt lat="42.1750667" lon="14.6430067"><ele>10.0</ele><time>2026-04-19T09:46:13.875Z</time></trkpt><trkpt lat="42.1749983" lon="14.6429117"><ele>10.0</ele><time>2026-04-19T09:46:15.874Z</time></trkpt><trkpt lat="42.1749233" lon="14.6428267"><ele>10.0</ele><time>2026-04-19T09:46:17.875Z</time></trkpt><trkpt lat="42.17483" lon="14.642745"><ele>10.0</ele><time>2026-04-19T09:46:19.875Z</time></trkpt><trkpt lat="42.1747433" lon="14.6426617"><ele>10.0</ele><time>2026-04-19T09:46:21.875Z</time></trkpt><trkpt lat="42.1746517" lon="14.6425817"><ele>10.0</ele><time>2026-04-19T09:46:23.874Z</time></trkpt><trkpt lat="42.1745717" lon="14.6425133"><ele>10.0</ele><time>2026-04-19T09:46:25.875Z</time></trkpt><trkpt lat="42.1744967" lon="14.6424567"><ele>10.0</ele><time>2026-04-19T09:46:27.874Z</time></trkpt><trkpt lat="42.1744117" lon="14.6424083"><ele>10.0</ele><time>2026-04-19T09:46:29.874Z</time></trkpt><trkpt lat="42.1743233" lon="14.6423583"><ele>10.0</ele><time>2026-04-19T09:46:31.875Z</time></trkpt><trkpt lat="42.1742283" lon="14.6423067"><ele>10.0</ele><time>2026-04-19T09:46:33.875Z</time></trkpt><trkpt lat="42.1741267" lon="14.6422583"><ele>10.0</ele><time>2026-04-19T09:46:35.875Z</time></trkpt><trkpt lat="42.1740217" lon="14.6422117"><ele>10.0</ele><time>2026-04-19T09:46:37.874Z</time></trkpt><trkpt lat="42.173925" lon="14.6421733"><ele>10.0</ele><time>2026-04-19T09:46:39.875Z</time></trkpt><trkpt lat="42.1738267" lon="14.6421417"><ele>10.0</ele><time>2026-04-19T09:46:41.875Z</time></trkpt><trkpt lat="42.173715" lon="14.642125"><ele>10.0</ele><time>2026-04-19T09:46:43.875Z</time></trkpt><trkpt lat="42.17362" lon="14.64211"><ele>10.0</ele><time>2026-04-19T09:46:45.874Z</time></trkpt><trkpt lat="42.1735333" lon="14.6421033"><ele>10.0</ele><time>2026-04-19T09:46:47.875Z</time></trkpt><trkpt lat="42.1734383" lon="14.6420867"><ele>10.0</ele><time>2026-04-19T09:46:49.874Z</time></trkpt><trkpt lat="42.1733467" lon="14.6420767"><ele>10.0</ele><time>2026-04-19T09:46:51.875Z</time></trkpt><trkpt lat="42.1732567" lon="14.6420733"><ele>10.0</ele><time>2026-04-19T09:46:53.875Z</time></trkpt><trkpt lat="42.17315" lon="14.642075"><ele>9.8</ele><time>2026-04-19T09:46:55.875Z</time></trkpt><trkpt lat="42.17303" lon="14.6420867"><ele>9.6</ele><time>2026-04-19T09:46:57.875Z</time></trkpt><trkpt lat="42.1729217" lon="14.6421033"><ele>9.4</ele><time>2026-04-19T09:46:59.874Z</time></trkpt><trkpt lat="42.17281" lon="14.6421017"><ele>9.2</ele><time>2026-04-19T09:47:01.875Z</time></trkpt><trkpt lat="42.172705" lon="14.6421233"><ele>9.0</ele><time>2026-04-19T09:47:03.874Z</time></trkpt><trkpt lat="42.172595" lon="14.6421667"><ele>9.0</ele><time>2026-04-19T09:47:05.874Z</time></trkpt><trkpt lat="42.1724967" lon="14.642195"><ele>9.0</ele><time>2026-04-19T09:47:07.874Z</time></trkpt><trkpt lat="42.172395" lon="14.6422317"><ele>9.0</ele><time>2026-04-19T09:47:09.875Z</time></trkpt><trkpt lat="42.1722933" lon="14.64228"><ele>9.0</ele><time>2026-04-19T09:47:11.874Z</time></trkpt><trkpt lat="42.1722033" lon="14.6423367"><ele>9.0</ele><time>2026-04-19T09:47:13.875Z</time></trkpt><trkpt lat="42.17212" lon="14.6423583"><ele>9.166666666666666</ele><time>2026-04-19T09:47:15.875Z</time></trkpt><trkpt lat="42.1720383" lon="14.642415"><ele>9.333333333333334</ele><time>2026-04-19T09:47:17.874Z</time></trkpt><trkpt lat="42.172005" lon="14.6425083"><ele>9.5</ele><time>2026-04-19T09:47:19.874Z</time></trkpt><trkpt lat="42.172" lon="14.6426083"><ele>9.666666666666668</ele><time>2026-04-19T09:47:21.875Z</time></trkpt><trkpt lat="42.1719917" lon="14.642735"><ele>9.833333333333334</ele><time>2026-04-19T09:47:23.875Z</time></trkpt><trkpt lat="42.1719767" lon="14.64287"><ele>10.0</ele><time>2026-04-19T09:47:25.874Z</time></trkpt><trkpt lat="42.171965" lon="14.6430183"><ele>10.0</ele><time>2026-04-19T09:47:27.875Z</time></trkpt><trkpt lat="42.1719567" lon="14.6431617"><ele>10.0</ele><time>2026-04-19T09:47:29.874Z</time></trkpt><trkpt lat="42.1719467" lon="14.6433133"><ele>10.0</ele><time>2026-04-19T09:47:31.875Z</time></trkpt><trkpt lat="42.1719467" lon="14.6434733"><ele>10.0</ele><time>2026-04-19T09:47:33.874Z</time></trkpt><trkpt lat="42.1719533" lon="14.6436267"><ele>10.0</ele><time>2026-04-19T09:47:35.875Z</time></trkpt><trkpt lat="42.1719567" lon="14.643775"><ele>10.0</ele><time>2026-04-19T09:47:37.874Z</time></trkpt><trkpt lat="42.1719583" lon="14.6439017"><ele>10.0</ele><time>2026-04-19T09:47:39.875Z</time></trkpt><trkpt lat="42.1719583" lon="14.64402"><ele>10.0</ele><time>2026-04-19T09:47:41.874Z</time></trkpt><trkpt lat="42.171955" lon="14.6441467"><ele>10.0</ele><time>2026-04-19T09:47:43.875Z</time></trkpt><trkpt lat="42.1719517" lon="14.644275"><ele>10.0</ele><time>2026-04-19T09:47:45.875Z</time></trkpt><trkpt lat="42.1719433" lon="14.6444"><ele>10.0</ele><time>2026-04-19T09:47:47.875Z</time></trkpt><trkpt lat="42.1719417" lon="14.6445233"><ele>10.0</ele><time>2026-04-19T09:47:49.875Z</time></trkpt><trkpt lat="42.1719317" lon="14.6446467"><ele>10.0</ele><time>2026-04-19T09:47:51.875Z</time></trkpt><trkpt lat="42.17192" lon="14.6447733"><ele>10.0</ele><time>2026-04-19T09:47:53.875Z</time></trkpt><trkpt lat="42.1719017" lon="14.6449017"><ele>10.5</ele><time>2026-04-19T09:47:55.875Z</time></trkpt><trkpt lat="42.1718733" lon="14.6450233"><ele>11.0</ele><time>2026-04-19T09:47:57.875Z</time></trkpt><trkpt lat="42.1718433" lon="14.6451183"><ele>11.5</ele><time>2026-04-19T09:47:59.875Z</time></trkpt><trkpt lat="42.1718083" lon="14.6452"><ele>12.0</ele><time>2026-04-19T09:48:01.875Z</time></trkpt><trkpt lat="42.1717783" lon="14.6452783"><ele>12.499999999999998</ele><time>2026-04-19T09:48:03.875Z</time></trkpt><trkpt lat="42.1717417" lon="14.6453583"><ele>13.0</ele><time>2026-04-19T09:48:05.875Z</time></trkpt><trkpt lat="42.1717067" lon="14.64545"><ele>13.2</ele><time>2026-04-19T09:48:07.875Z</time></trkpt><trkpt lat="42.1716717" lon="14.6455467"><ele>13.4</ele><time>2026-04-19T09:48:09.875Z</time></trkpt><trkpt lat="42.171625" lon="14.645645"><ele>13.599999999999998</ele><time>2026-04-19T09:48:11.874Z</time></trkpt><trkpt lat="42.1715883" lon="14.6457633"><ele>13.799999999999999</ele><time>2026-04-19T09:48:13.875Z</time></trkpt><trkpt lat="42.1715467" lon="14.6458783"><ele>14.0</ele><time>2026-04-19T09:48:15.875Z</time></trkpt><trkpt lat="42.1715117" lon="14.646"><ele>14.2</ele><time>2026-04-19T09:48:17.875Z</time></trkpt><trkpt lat="42.1714683" lon="14.646105"><ele>14.399999999999999</ele><time>2026-04-19T09:48:19.875Z</time></trkpt><trkpt lat="42.171425" lon="14.646215"><ele>14.6</ele><time>2026-04-19T09:48:21.875Z</time></trkpt><trkpt lat="42.17138" lon="14.6463233"><ele>14.8</ele><time>2026-04-19T09:48:23.874Z</time></trkpt><trkpt lat="42.171335" lon="14.6464333"><ele>15.0</ele><time>2026-04-19T09:48:25.875Z</time></trkpt><trkpt lat="42.171295" lon="14.6465517"><ele>15.0</ele><time>2026-04-19T09:48:27.874Z</time></trkpt><trkpt lat="42.1712633" lon="14.6466867"><ele>15.0</ele><time>2026-04-19T09:48:29.875Z</time></trkpt><trkpt lat="42.171245" lon="14.6468233"><ele>15.0</ele><time>2026-04-19T09:48:31.874Z</time></trkpt><trkpt lat="42.171225" lon="14.6469517"><ele>15.0</ele><time>2026-04-19T09:48:33.875Z</time></trkpt><trkpt lat="42.1712117" lon="14.6470733"><ele>15.0</ele><time>2026-04-19T09:48:35.874Z</time></trkpt><trkpt lat="42.1712033" lon="14.6471883"><ele>14.8</ele><time>2026-04-19T09:48:37.875Z</time></trkpt><trkpt lat="42.1711967" lon="14.64731"><ele>14.6</ele><time>2026-04-19T09:48:39.874Z</time></trkpt><trkpt lat="42.171195" lon="14.64744"><ele>14.399999999999999</ele><time>2026-04-19T09:48:41.875Z</time></trkpt><trkpt lat="42.171205" lon="14.6475667"><ele>14.2</ele><time>2026-04-19T09:48:43.874Z</time></trkpt><trkpt lat="42.1712133" lon="14.6477017"><ele>14.0</ele><time>2026-04-19T09:48:45.874Z</time></trkpt><trkpt lat="42.1712233" lon="14.64784"><ele>14.0</ele><time>2026-04-19T09:48:47.875Z</time></trkpt><trkpt lat="42.17123" lon="14.6479717"><ele>13.999999999999998</ele><time>2026-04-19T09:48:49.875Z</time></trkpt><trkpt lat="42.1712333" lon="14.6480983"><ele>13.999999999999998</ele><time>2026-04-19T09:48:51.875Z</time></trkpt><trkpt lat="42.17123" lon="14.6482333"><ele>14.0</ele><time>2026-04-19T09:48:53.875Z</time></trkpt><trkpt lat="42.1712283" lon="14.6483683"><ele>14.0</ele><time>2026-04-19T09:48:55.874Z</time></trkpt><trkpt lat="42.1712433" lon="14.6485067"><ele>14.2</ele><time>2026-04-19T09:48:57.875Z</time></trkpt><trkpt lat="42.1712517" lon="14.64863"><ele>14.399999999999999</ele><time>2026-04-19T09:48:59.874Z</time></trkpt><trkpt lat="42.171265" lon="14.6487483"><ele>14.6</ele><time>2026-04-19T09:49:01.875Z</time></trkpt><trkpt lat="42.171275" lon="14.6488717"><ele>14.8</ele><time>2026-04-19T09:49:03.875Z</time></trkpt><trkpt lat="42.17127" lon="14.649"><ele>15.0</ele><time>2026-04-19T09:49:05.874Z</time></trkpt><trkpt lat="42.1712767" lon="14.64913"><ele>15.0</ele><time>2026-04-19T09:49:07.875Z</time></trkpt><trkpt lat="42.1712833" lon="14.6492667"><ele>15.0</ele><time>2026-04-19T09:49:09.875Z</time></trkpt><trkpt lat="42.1712867" lon="14.6494117"><ele>15.0</ele><time>2026-04-19T09:49:11.875Z</time></trkpt><trkpt lat="42.1713" lon="14.6495567"><ele>15.0</ele><time>2026-04-19T09:49:13.874Z</time></trkpt><trkpt lat="42.1713133" lon="14.649705"><ele>15.0</ele><time>2026-04-19T09:49:15.874Z</time></trkpt><trkpt lat="42.1713283" lon="14.6498533"><ele>15.0</ele><time>2026-04-19T09:49:17.874Z</time></trkpt><trkpt lat="42.1713317" lon="14.6500083"><ele>15.0</ele><time>2026-04-19T09:49:19.875Z</time></trkpt><trkpt lat="42.1713417" lon="14.65016"><ele>15.0</ele><time>2026-04-19T09:49:21.875Z</time></trkpt><trkpt lat="42.171365" lon="14.6503033"><ele>15.0</ele><time>2026-04-19T09:49:23.875Z</time></trkpt><trkpt lat="42.1713767" lon="14.6504467"><ele>15.0</ele><time>2026-04-19T09:49:25.875Z</time></trkpt><trkpt lat="42.1713833" lon="14.65058"><ele>15.0</ele><time>2026-04-19T09:49:27.875Z</time></trkpt><trkpt lat="42.17138" lon="14.6507083"><ele>15.0</ele><time>2026-04-19T09:49:29.875Z</time></trkpt><trkpt lat="42.171385" lon="14.6508317"><ele>15.0</ele><time>2026-04-19T09:49:31.874Z</time></trkpt><trkpt lat="42.1713883" lon="14.6509533"><ele>15.0</ele><time>2026-04-19T09:49:33.874Z</time></trkpt><trkpt lat="42.17138" lon="14.65107"><ele>15.0</ele><time>2026-04-19T09:49:35.875Z</time></trkpt><trkpt lat="42.1713633" lon="14.6511833"><ele>15.0</ele><time>2026-04-19T09:49:37.875Z</time></trkpt><trkpt lat="42.1713183" lon="14.6512733"><ele>15.428571428571429</ele><time>2026-04-19T09:49:39.875Z</time></trkpt><trkpt lat="42.1712667" lon="14.6513533"><ele>15.857142857142858</ele><time>2026-04-19T09:49:41.875Z</time></trkpt><trkpt lat="42.17122" lon="14.6514267"><ele>16.285714285714285</ele><time>2026-04-19T09:49:43.874Z</time></trkpt><trkpt lat="42.1711667" lon="14.6515"><ele>16.714285714285715</ele><time>2026-04-19T09:49:45.875Z</time></trkpt><trkpt lat="42.171115" lon="14.6515717"><ele>17.142857142857142</ele><time>2026-04-19T09:49:47.875Z</time></trkpt><trkpt lat="42.1710633" lon="14.651635"><ele>17.571428571428573</ele><time>2026-04-19T09:49:49.875Z</time></trkpt><trkpt lat="42.1710083" lon="14.6517017"><ele>18.0</ele><time>2026-04-19T09:49:51.875Z</time></trkpt><trkpt lat="42.1709517" lon="14.651765"><ele>18.000000000000004</ele><time>2026-04-19T09:49:53.874Z</time></trkpt><trkpt lat="42.1708817" lon="14.6518433"><ele>18.0</ele><time>2026-04-19T09:49:56.874Z</time></trkpt><trkpt lat="42.170835" lon="14.6519017"><ele>18.0</ele><time>2026-04-19T09:49:58.874Z</time></trkpt><trkpt lat="42.1707833" lon="14.6519667"><ele>18.0</ele><time>2026-04-19T09:50:00.875Z</time></trkpt><trkpt lat="42.1707317" lon="14.65203"><ele>18.0</ele><time>2026-04-19T09:50:02.875Z</time></trkpt><trkpt lat="42.1706833" lon="14.6520917"><ele>18.000000000000004</ele><time>2026-04-19T09:50:04.874Z</time></trkpt><trkpt lat="42.170635" lon="14.6521517"><ele>18.0</ele><time>2026-04-19T09:50:06.874Z</time></trkpt><trkpt lat="42.1705883" lon="14.65221"><ele>18.857142857142858</ele><time>2026-04-19T09:50:08.874Z</time></trkpt><trkpt lat="42.1705383" lon="14.6522667"><ele>19.714285714285715</ele><time>2026-04-19T09:50:10.874Z</time></trkpt><trkpt lat="42.17049" lon="14.652325"><ele>20.57142857142857</ele><time>2026-04-19T09:50:12.874Z</time></trkpt><trkpt lat="42.1704417" lon="14.65239"><ele>21.42857142857143</ele><time>2026-04-19T09:50:14.875Z</time></trkpt><trkpt lat="42.1703967" lon="14.65245"><ele>22.285714285714285</ele><time>2026-04-19T09:50:16.875Z</time></trkpt><trkpt lat="42.1703467" lon="14.6525017"><ele>23.142857142857142</ele><time>2026-04-19T09:50:18.874Z</time></trkpt><trkpt lat="42.170275" lon="14.6525867"><ele>24.0</ele><time>2026-04-19T09:50:21.875Z</time></trkpt><trkpt lat="42.170205" lon="14.65267"><ele>24.0</ele><time>2026-04-19T09:50:24.874Z</time></trkpt><trkpt lat="42.170155" lon="14.6527233"><ele>24.0</ele><time>2026-04-19T09:50:26.875Z</time></trkpt><trkpt lat="42.1700883" lon="14.6528067"><ele>24.0</ele><time>2026-04-19T09:50:29.875Z</time></trkpt><trkpt lat="42.1700467" lon="14.6528717"><ele>24.0</ele><time>2026-04-19T09:50:31.875Z</time></trkpt><trkpt lat="42.1699833" lon="14.6529483"><ele>24.0</ele><time>2026-04-19T09:50:34.875Z</time></trkpt><trkpt lat="42.1699283" lon="14.653015"><ele>24.0</ele><time>2026-04-19T09:50:37.875Z</time></trkpt><trkpt lat="42.1698667" lon="14.6530883"><ele>26.5</ele><time>2026-04-19T09:50:40.875Z</time></trkpt><trkpt lat="42.1698133" lon="14.6531633"><ele>29.0</ele><time>2026-04-19T09:50:43.875Z</time></trkpt><trkpt lat="42.1697517" lon="14.65322"><ele>31.5</ele><time>2026-04-19T09:50:46.874Z</time></trkpt><trkpt lat="42.1696883" lon="14.6532667"><ele>34.0</ele><time>2026-04-19T09:50:49.875Z</time></trkpt><trkpt lat="42.1696117" lon="14.6533083"><ele>36.5</ele><time>2026-04-19T09:50:52.874Z</time></trkpt><trkpt lat="42.16954" lon="14.6533283"><ele>39.0</ele><time>2026-04-19T09:50:55.875Z</time></trkpt><trkpt lat="42.1694783" lon="14.65328"><ele>39.0</ele><time>2026-04-19T09:50:58.874Z</time></trkpt><trkpt lat="42.1694383" lon="14.6532017"><ele>39.0</ele><time>2026-04-19T09:51:02.874Z</time></trkpt><trkpt lat="42.1694317" lon="14.6530983"><ele>39.0</ele><time>2026-04-19T09:51:07.875Z</time></trkpt><trkpt lat="42.16939" lon="14.653025"><ele>39.0</ele><time>2026-04-19T09:51:11.875Z</time></trkpt><trkpt lat="42.1693533" lon="14.6529517"><ele>39.0</ele><time>2026-04-19T09:51:16.875Z</time></trkpt><trkpt lat="42.1692833" lon="14.65291"><ele>39.0</ele><time>2026-04-19T09:51:21.875Z</time></trkpt><trkpt lat="42.16921" lon="14.6529667"><ele>39.0</ele><time>2026-04-19T09:51:26.875Z</time></trkpt><trkpt lat="42.1691633" lon="14.653045"><ele>39.0</ele><time>2026-04-19T09:51:31.874Z</time></trkpt><trkpt lat="42.1691367" lon="14.65313"><ele>39.0</ele><time>2026-04-19T09:51:35.875Z</time></trkpt><trkpt lat="42.1691117" lon="14.653215"><ele>39.0</ele><time>2026-04-19T09:51:38.875Z</time></trkpt><trkpt lat="42.1691117" lon="14.6533267"><ele>39.0</ele><time>2026-04-19T09:51:42.875Z</time></trkpt><trkpt lat="42.1691217" lon="14.6534283"><ele>39.0</ele><time>2026-04-19T09:51:45.875Z</time></trkpt><trkpt lat="42.1691333" lon="14.653525"><ele>39.0</ele><time>2026-04-19T09:51:48.875Z</time></trkpt><trkpt lat="42.16917" lon="14.6536233"><ele>39.0</ele><time>2026-04-19T09:51:51.875Z</time></trkpt><trkpt lat="42.1692317" lon="14.65371"><ele>40.0</ele><time>2026-04-19T09:51:54.875Z</time></trkpt><trkpt lat="42.169285" lon="14.6537667"><ele>41.0</ele><time>2026-04-19T09:51:57.875Z</time></trkpt><trkpt lat="42.1693617" lon="14.6538133"><ele>42.0</ele><time>2026-04-19T09:52:01.874Z</time></trkpt><trkpt lat="42.1694233" lon="14.653835"><ele>43.0</ele><time>2026-04-19T09:52:04.875Z</time></trkpt><trkpt lat="42.16949" lon="14.6538583"><ele>44.0</ele><time>2026-04-19T09:52:07.875Z</time></trkpt><trkpt lat="42.1695567" lon="14.6538933"><ele>45.0</ele><time>2026-04-19T09:52:10.875Z</time></trkpt><trkpt lat="42.169635" lon="14.65391"><ele>46.0</ele><time>2026-04-19T09:52:14.875Z</time></trkpt><trkpt lat="42.169715" lon="14.6539117"><ele>46.0</ele><time>2026-04-19T09:52:18.875Z</time></trkpt><trkpt lat="42.16979" lon="14.6539433"><ele>46.0</ele><time>2026-04-19T09:52:20.875Z</time></trkpt><trkpt lat="42.1698567" lon="14.6539383"><ele>46.0</ele><time>2026-04-19T09:52:23.875Z</time></trkpt><trkpt lat="42.16994" lon="14.6539283"><ele>46.0</ele><time>2026-04-19T09:52:26.874Z</time></trkpt><trkpt lat="42.1700233" lon="14.6539167"><ele>46.0</ele><time>2026-04-19T09:52:29.874Z</time></trkpt><trkpt lat="42.170085" lon="14.653895"><ele>46.0</ele><time>2026-04-19T09:52:31.873Z</time></trkpt><trkpt lat="42.170145" lon="14.6538633"><ele>46.0</ele><time>2026-04-19T09:52:33.873Z</time></trkpt><trkpt lat="42.1702183" lon="14.653815"><ele>47.0</ele><time>2026-04-19T09:52:36.873Z</time></trkpt><trkpt lat="42.1702967" lon="14.6537733"><ele>48.0</ele><time>2026-04-19T09:52:39.873Z</time></trkpt><trkpt lat="42.170375" lon="14.6537467"><ele>49.0</ele><time>2026-04-19T09:52:42.874Z</time></trkpt><trkpt lat="42.17045" lon="14.6537583"><ele>50.0</ele><time>2026-04-19T09:52:45.873Z</time></trkpt><trkpt lat="42.1705133" lon="14.65382"><ele>50.99999999999999</ele><time>2026-04-19T09:52:48.874Z</time></trkpt><trkpt lat="42.1705367" lon="14.6539"><ele>52.0</ele><time>2026-04-19T09:52:51.874Z</time></trkpt><trkpt lat="42.1705117" lon="14.65399"><ele>51.99999999999999</ele><time>2026-04-19T09:52:54.874Z</time></trkpt><trkpt lat="42.170465" lon="14.654075"><ele>52.0</ele><time>2026-04-19T09:52:57.874Z</time></trkpt><trkpt lat="42.17039" lon="14.6541133"><ele>52.0</ele><time>2026-04-19T09:53:00.874Z</time></trkpt><trkpt lat="42.1702983" lon="14.6541183"><ele>52.0</ele><time>2026-04-19T09:53:03.874Z</time></trkpt><trkpt lat="42.1702267" lon="14.654105"><ele>51.99999999999999</ele><time>2026-04-19T09:53:05.873Z</time></trkpt><trkpt lat="42.1701567" lon="14.6541017"><ele>52.0</ele><time>2026-04-19T09:53:07.874Z</time></trkpt><trkpt lat="42.17009" lon="14.654095"><ele>52.0</ele><time>2026-04-19T09:53:09.874Z</time></trkpt><trkpt lat="42.170015" lon="14.6540817"><ele>52.0</ele><time>2026-04-19T09:53:11.874Z</time></trkpt><trkpt lat="42.1699433" lon="14.65408"><ele>52.0</ele><time>2026-04-19T09:53:13.873Z</time></trkpt><trkpt lat="42.1698717" lon="14.6540683"><ele>52.0</ele><time>2026-04-19T09:53:15.873Z</time></trkpt><trkpt lat="42.169805" lon="14.6540767"><ele>52.0</ele><time>2026-04-19T09:53:17.874Z</time></trkpt><trkpt lat="42.1697317" lon="14.654095"><ele>52.0</ele><time>2026-04-19T09:53:19.874Z</time></trkpt><trkpt lat="42.1696667" lon="14.6541083"><ele>52.0</ele><time>2026-04-19T09:53:21.874Z</time></trkpt><trkpt lat="42.1695817" lon="14.654135"><ele>51.14285714285714</ele><time>2026-04-19T09:53:24.873Z</time></trkpt><trkpt lat="42.1694983" lon="14.654145"><ele>50.28571428571429</ele><time>2026-04-19T09:53:27.874Z</time></trkpt><trkpt lat="42.1694367" lon="14.6541767"><ele>49.42857142857143</ele><time>2026-04-19T09:53:29.874Z</time></trkpt><trkpt lat="42.1693533" lon="14.6542033"><ele>48.57142857142857</ele><time>2026-04-19T09:53:32.874Z</time></trkpt><trkpt lat="42.1692783" lon="14.6542233"><ele>47.71428571428571</ele><time>2026-04-19T09:53:35.874Z</time></trkpt><trkpt lat="42.1692217" lon="14.6542667"><ele>46.85714285714286</ele><time>2026-04-19T09:53:38.874Z</time></trkpt><trkpt lat="42.1691567" lon="14.6543017"><ele>46.0</ele><time>2026-04-19T09:53:41.873Z</time></trkpt><trkpt lat="42.1690733" lon="14.6543433"><ele>46.57142857142858</ele><time>2026-04-19T09:53:44.874Z</time></trkpt><trkpt lat="42.169" lon="14.65438"><ele>47.14285714285714</ele><time>2026-04-19T09:53:47.874Z</time></trkpt><trkpt lat="42.168935" lon="14.6544233"><ele>47.714285714285715</ele><time>2026-04-19T09:53:51.873Z</time></trkpt><trkpt lat="42.1689717" lon="14.654505"><ele>48.28571428571429</ele><time>2026-04-19T09:53:58.873Z</time></trkpt><trkpt lat="42.1690417" lon="14.654495"><ele>48.85714285714286</ele><time>2026-04-19T09:54:04.874Z</time></trkpt><trkpt lat="42.1691267" lon="14.65451"><ele>49.42857142857143</ele><time>2026-04-19T09:54:08.874Z</time></trkpt><trkpt lat="42.1691967" lon="14.6545283"><ele>50.0</ele><time>2026-04-19T09:54:11.873Z</time></trkpt><trkpt lat="42.1692683" lon="14.6545183"><ele>52.142857142857146</ele><time>2026-04-19T09:54:16.873Z</time></trkpt><trkpt lat="42.1693283" lon="14.6544883"><ele>54.28571428571429</ele><time>2026-04-19T09:54:21.874Z</time></trkpt><trkpt lat="42.1693983" lon="14.6545"><ele>56.42857142857143</ele><time>2026-04-19T09:54:24.873Z</time></trkpt><trkpt lat="42.169465" lon="14.6545167"><ele>58.57142857142858</ele><time>2026-04-19T09:54:27.874Z</time></trkpt><trkpt lat="42.1695283" lon="14.65451"><ele>60.714285714285715</ele><time>2026-04-19T09:54:30.874Z</time></trkpt><trkpt lat="42.169595" lon="14.6545067"><ele>62.85714285714287</ele><time>2026-04-19T09:54:33.873Z</time></trkpt><trkpt lat="42.169675" lon="14.6544967"><ele>65.0</ele><time>2026-04-19T09:54:37.874Z</time></trkpt><trkpt lat="42.1697483" lon="14.6544967"><ele>65.00000000000001</ele><time>2026-04-19T09:54:41.874Z</time></trkpt><trkpt lat="42.1698167" lon="14.6545067"><ele>65.0</ele><time>2026-04-19T09:54:44.874Z</time></trkpt><trkpt lat="42.169885" lon="14.65451"><ele>65.0</ele><time>2026-04-19T09:54:47.874Z</time></trkpt><trkpt lat="42.16996" lon="14.6545183"><ele>65.0</ele><time>2026-04-19T09:54:50.873Z</time></trkpt><trkpt lat="42.170025" lon="14.6545317"><ele>65.0</ele><time>2026-04-19T09:54:53.873Z</time></trkpt><trkpt lat="42.170105" lon="14.6545517"><ele>65.00000000000001</ele><time>2026-04-19T09:54:57.874Z</time></trkpt><trkpt lat="42.17018" lon="14.6545633"><ele>65.0</ele><time>2026-04-19T09:55:02.873Z</time></trkpt><trkpt lat="42.1702483" lon="14.6545817"><ele>65.85714285714286</ele><time>2026-04-19T09:55:06.873Z</time></trkpt><trkpt lat="42.170325" lon="14.654605"><ele>66.71428571428572</ele><time>2026-04-19T09:55:11.874Z</time></trkpt><trkpt lat="42.170395" lon="14.6546133"><ele>67.57142857142857</ele><time>2026-04-19T09:55:15.873Z</time></trkpt><trkpt lat="42.1704717" lon="14.6546333"><ele>68.42857142857143</ele><time>2026-04-19T09:55:19.874Z</time></trkpt><trkpt lat="42.1705267" lon="14.654675"><ele>69.28571428571428</ele><time>2026-04-19T09:55:23.874Z</time></trkpt><trkpt lat="42.1705567" lon="14.6547583"><ele>70.14285714285714</ele><time>2026-04-19T09:55:28.873Z</time></trkpt><trkpt lat="42.170545" lon="14.6548433"><ele>71.0</ele><time>2026-04-19T09:55:33.873Z</time></trkpt><trkpt lat="42.1705333" lon="14.65493"><ele>71.0</ele><time>2026-04-19T09:55:38.874Z</time></trkpt><trkpt lat="42.1705267" lon="14.655025"><ele>71.0</ele><time>2026-04-19T09:55:44.874Z</time></trkpt><trkpt lat="42.170515" lon="14.6551167"><ele>71.0</ele><time>2026-04-19T09:55:48.874Z</time></trkpt><trkpt lat="42.1705167" lon="14.6552033"><ele>71.0</ele><time>2026-04-19T09:55:51.874Z</time></trkpt><trkpt lat="42.1705333" lon="14.6552983"><ele>71.0</ele><time>2026-04-19T09:55:55.874Z</time></trkpt><trkpt lat="42.17056" lon="14.655405"><ele>71.0</ele><time>2026-04-19T09:55:59.874Z</time></trkpt><trkpt lat="42.1705683" lon="14.65549"><ele>71.0</ele><time>2026-04-19T09:56:02.873Z</time></trkpt><trkpt lat="42.1705683" lon="14.655595"><ele>71.5</ele><time>2026-04-19T09:56:06.874Z</time></trkpt><trkpt lat="42.1705417" lon="14.6556933"><ele>72.0</ele><time>2026-04-19T09:56:10.873Z</time></trkpt><trkpt lat="42.170535" lon="14.65579"><ele>72.5</ele><time>2026-04-19T09:56:13.874Z</time></trkpt><trkpt lat="42.17051" lon="14.6559167"><ele>73.0</ele><time>2026-04-19T09:56:16.873Z</time></trkpt><trkpt lat="42.170495" lon="14.656"><ele>73.5</ele><time>2026-04-19T09:56:18.873Z</time></trkpt><trkpt lat="42.1705417" lon="14.6561167"><ele>74.0</ele><time>2026-04-19T09:56:21.874Z</time></trkpt><trkpt lat="42.17057" lon="14.65621"><ele>74.0</ele><time>2026-04-19T09:56:23.874Z</time></trkpt><trkpt lat="42.1706033" lon="14.65629"><ele>74.0</ele><time>2026-04-19T09:56:25.873Z</time></trkpt><trkpt lat="42.17064" lon="14.6563683"><ele>74.0</ele><time>2026-04-19T09:56:27.874Z</time></trkpt><trkpt lat="42.1706733" lon="14.6564567"><ele>74.0</ele><time>2026-04-19T09:56:29.873Z</time></trkpt><trkpt lat="42.1707067" lon="14.6565467"><ele>74.0</ele><time>2026-04-19T09:56:31.874Z</time></trkpt><trkpt lat="42.17074" lon="14.6566383"><ele>74.0</ele><time>2026-04-19T09:56:33.874Z</time></trkpt><trkpt lat="42.170775" lon="14.6567333"><ele>74.0</ele><time>2026-04-19T09:56:35.874Z</time></trkpt><trkpt lat="42.1708133" lon="14.6568433"><ele>73.60000000000001</ele><time>2026-04-19T09:56:37.873Z</time></trkpt><trkpt lat="42.170845" lon="14.6569517"><ele>73.2</ele><time>2026-04-19T09:56:39.874Z</time></trkpt><trkpt lat="42.1708867" lon="14.6570683"><ele>72.80000000000001</ele><time>2026-04-19T09:56:41.874Z</time></trkpt><trkpt lat="42.1709267" lon="14.6572067"><ele>72.4</ele><time>2026-04-19T09:56:43.874Z</time></trkpt><trkpt lat="42.17098" lon="14.65735"><ele>72.0</ele><time>2026-04-19T09:56:45.874Z</time></trkpt><trkpt lat="42.1710317" lon="14.657495"><ele>71.75</ele><time>2026-04-19T09:56:47.873Z</time></trkpt><trkpt lat="42.1710817" lon="14.6576483"><ele>71.5</ele><time>2026-04-19T09:56:49.874Z</time></trkpt><trkpt lat="42.1711317" lon="14.6578"><ele>71.25</ele><time>2026-04-19T09:56:51.873Z</time></trkpt><trkpt lat="42.1711833" lon="14.657955"><ele>71.0</ele><time>2026-04-19T09:56:53.873Z</time></trkpt><trkpt lat="42.171235" lon="14.65811"><ele>70.6</ele><time>2026-04-19T09:56:55.873Z</time></trkpt><trkpt lat="42.1712867" lon="14.658265"><ele>70.19999999999999</ele><time>2026-04-19T09:56:57.873Z</time></trkpt><trkpt lat="42.1713367" lon="14.6584217"><ele>69.80000000000001</ele><time>2026-04-19T09:56:59.873Z</time></trkpt><trkpt lat="42.1713617" lon="14.6585"><ele>69.4</ele><time>2026-04-19T09:57:00.874Z</time></trkpt><trkpt lat="42.17141" lon="14.658655"><ele>69.0</ele><time>2026-04-19T09:57:02.873Z</time></trkpt><trkpt lat="42.1714367" lon="14.6587333"><ele>68.75</ele><time>2026-04-19T09:57:03.874Z</time></trkpt><trkpt lat="42.171485" lon="14.6588867"><ele>68.5</ele><time>2026-04-19T09:57:05.874Z</time></trkpt><trkpt lat="42.171525" lon="14.6590367"><ele>68.25</ele><time>2026-04-19T09:57:07.874Z</time></trkpt><trkpt lat="42.1715683" lon="14.6591867"><ele>68.0</ele><time>2026-04-19T09:57:09.874Z</time></trkpt><trkpt lat="42.171605" lon="14.65934"><ele>67.33333333333334</ele><time>2026-04-19T09:57:11.874Z</time></trkpt><trkpt lat="42.1716367" lon="14.6595033"><ele>66.66666666666667</ele><time>2026-04-19T09:57:13.874Z</time></trkpt><trkpt lat="42.171665" lon="14.6596683"><ele>66.0</ele><time>2026-04-19T09:57:15.874Z</time></trkpt><trkpt lat="42.1716817" lon="14.659755"><ele>65.33333333333333</ele><time>2026-04-19T09:57:16.874Z</time></trkpt><trkpt lat="42.1716983" lon="14.659845"><ele>64.66666666666666</ele><time>2026-04-19T09:57:17.874Z</time></trkpt><trkpt lat="42.1717133" lon="14.6599283"><ele>64.0</ele><time>2026-04-19T09:57:18.873Z</time></trkpt><trkpt lat="42.17173" lon="14.6600167"><ele>63.99999999999999</ele><time>2026-04-19T09:57:19.874Z</time></trkpt><trkpt lat="42.1717683" lon="14.66019"><ele>64.0</ele><time>2026-04-19T09:57:21.874Z</time></trkpt><trkpt lat="42.1717817" lon="14.6602733"><ele>64.0</ele><time>2026-04-19T09:57:22.873Z</time></trkpt><trkpt lat="42.1717967" lon="14.66036"><ele>64.0</ele><time>2026-04-19T09:57:23.874Z</time></trkpt><trkpt lat="42.1718133" lon="14.66045"><ele>63.99999999999999</ele><time>2026-04-19T09:57:24.874Z</time></trkpt><trkpt lat="42.1718367" lon="14.6605367"><ele>64.0</ele><time>2026-04-19T09:57:25.874Z</time></trkpt><trkpt lat="42.1718517" lon="14.66062"><ele>63.857142857142854</ele><time>2026-04-19T09:57:26.874Z</time></trkpt><trkpt lat="42.1718683" lon="14.660705"><ele>63.71428571428571</ele><time>2026-04-19T09:57:27.874Z</time></trkpt><trkpt lat="42.1718783" lon="14.66079"><ele>63.57142857142857</ele><time>2026-04-19T09:57:28.874Z</time></trkpt><trkpt lat="42.1718917" lon="14.6608733"><ele>63.42857142857143</ele><time>2026-04-19T09:57:29.874Z</time></trkpt><trkpt lat="42.171905" lon="14.66096"><ele>63.285714285714285</ele><time>2026-04-19T09:57:30.874Z</time></trkpt><trkpt lat="42.1719183" lon="14.6610433"><ele>63.14285714285714</ele><time>2026-04-19T09:57:31.874Z</time></trkpt><trkpt lat="42.17194" lon="14.6611933"><ele>63.0</ele><time>2026-04-19T09:57:33.874Z</time></trkpt><trkpt lat="42.17196" lon="14.6613383"><ele>63.0</ele><time>2026-04-19T09:57:35.874Z</time></trkpt><trkpt lat="42.1719817" lon="14.6614817"><ele>63.0</ele><time>2026-04-19T09:57:37.873Z</time></trkpt><trkpt lat="42.1719967" lon="14.6616267"><ele>63.0</ele><time>2026-04-19T09:57:39.874Z</time></trkpt><trkpt lat="42.1720067" lon="14.6617733"><ele>63.0</ele><time>2026-04-19T09:57:41.874Z</time></trkpt><trkpt lat="42.1720067" lon="14.6619133"><ele>63.0</ele><time>2026-04-19T09:57:43.874Z</time></trkpt><trkpt lat="42.1720133" lon="14.6620617"><ele>62.8</ele><time>2026-04-19T09:57:45.873Z</time></trkpt><trkpt lat="42.1720083" lon="14.6622017"><ele>62.599999999999994</ele><time>2026-04-19T09:57:47.874Z</time></trkpt><trkpt lat="42.1719817" lon="14.662335"><ele>62.400000000000006</ele><time>2026-04-19T09:57:49.874Z</time></trkpt><trkpt lat="42.17194" lon="14.662455"><ele>62.2</ele><time>2026-04-19T09:57:51.873Z</time></trkpt><trkpt lat="42.1718933" lon="14.6625733"><ele>62.0</ele><time>2026-04-19T09:57:53.874Z</time></trkpt><trkpt lat="42.1718333" lon="14.66271"><ele>61.5</ele><time>2026-04-19T09:57:55.873Z</time></trkpt><trkpt lat="42.1717733" lon="14.6628333"><ele>61.0</ele><time>2026-04-19T09:57:57.873Z</time></trkpt><trkpt lat="42.17169" lon="14.6629567"><ele>60.5</ele><time>2026-04-19T09:57:59.873Z</time></trkpt><trkpt lat="42.17161" lon="14.663075"><ele>60.0</ele><time>2026-04-19T09:58:01.874Z</time></trkpt><trkpt lat="42.1715317" lon="14.6631883"><ele>59.833333333333336</ele><time>2026-04-19T09:58:03.873Z</time></trkpt><trkpt lat="42.1714517" lon="14.6633"><ele>59.66666666666667</ele><time>2026-04-19T09:58:05.874Z</time></trkpt><trkpt lat="42.1713683" lon="14.66342"><ele>59.5</ele><time>2026-04-19T09:58:07.874Z</time></trkpt><trkpt lat="42.171325" lon="14.663485"><ele>59.333333333333336</ele><time>2026-04-19T09:58:08.874Z</time></trkpt><trkpt lat="42.1712833" lon="14.663555"><ele>59.16666666666667</ele><time>2026-04-19T09:58:09.874Z</time></trkpt><trkpt lat="42.1712383" lon="14.6636233"><ele>59.0</ele><time>2026-04-19T09:58:10.874Z</time></trkpt><trkpt lat="42.17119" lon="14.663695"><ele>58.50000000000001</ele><time>2026-04-19T09:58:11.874Z</time></trkpt><trkpt lat="42.171145" lon="14.66377"><ele>58.0</ele><time>2026-04-19T09:58:12.873Z</time></trkpt><trkpt lat="42.1710967" lon="14.6638467"><ele>57.5</ele><time>2026-04-19T09:58:13.873Z</time></trkpt><trkpt lat="42.1710467" lon="14.6639233"><ele>57.0</ele><time>2026-04-19T09:58:14.874Z</time></trkpt><trkpt lat="42.1709967" lon="14.664"><ele>56.50000000000001</ele><time>2026-04-19T09:58:15.874Z</time></trkpt><trkpt lat="42.1709517" lon="14.6640817"><ele>56.0</ele><time>2026-04-19T09:58:16.874Z</time></trkpt><trkpt lat="42.17091" lon="14.6641733"><ele>56.00000000000001</ele><time>2026-04-19T09:58:17.873Z</time></trkpt><trkpt lat="42.1708717" lon="14.664255"><ele>56.0</ele><time>2026-04-19T09:58:18.874Z</time></trkpt><trkpt lat="42.17084" lon="14.66434"><ele>56.0</ele><time>2026-04-19T09:58:19.874Z</time></trkpt><trkpt lat="42.1708067" lon="14.6644183"><ele>56.0</ele><time>2026-04-19T09:58:20.874Z</time></trkpt><trkpt lat="42.170775" lon="14.664495"><ele>56.00000000000001</ele><time>2026-04-19T09:58:21.874Z</time></trkpt><trkpt lat="42.1707167" lon="14.66464"><ele>56.0</ele><time>2026-04-19T09:58:23.874Z</time></trkpt><trkpt lat="42.17066" lon="14.6647867"><ele>56.75</ele><time>2026-04-19T09:58:25.874Z</time></trkpt><trkpt lat="42.17061" lon="14.66493"><ele>57.5</ele><time>2026-04-19T09:58:27.873Z</time></trkpt><trkpt lat="42.17056" lon="14.665075"><ele>58.25</ele><time>2026-04-19T09:58:29.874Z</time></trkpt><trkpt lat="42.1705133" lon="14.6652167"><ele>59.0</ele><time>2026-04-19T09:58:31.873Z</time></trkpt><trkpt lat="42.17046" lon="14.665365"><ele>59.00000000000001</ele><time>2026-04-19T09:58:33.874Z</time></trkpt><trkpt lat="42.170405" lon="14.66552"><ele>59.0</ele><time>2026-04-19T09:58:35.874Z</time></trkpt><trkpt lat="42.1703733" lon="14.665595"><ele>59.0</ele><time>2026-04-19T09:58:36.874Z</time></trkpt><trkpt lat="42.17032" lon="14.6657417"><ele>59.0</ele><time>2026-04-19T09:58:38.874Z</time></trkpt><trkpt lat="42.1702917" lon="14.66582"><ele>59.00000000000001</ele><time>2026-04-19T09:58:39.874Z</time></trkpt><trkpt lat="42.1702617" lon="14.6659"><ele>59.0</ele><time>2026-04-19T09:58:40.874Z</time></trkpt><trkpt lat="42.17024" lon="14.6659817"><ele>59.0</ele><time>2026-04-19T09:58:41.873Z</time></trkpt><trkpt lat="42.17019" lon="14.6661383"><ele>59.00000000000001</ele><time>2026-04-19T09:58:43.874Z</time></trkpt><trkpt lat="42.17014" lon="14.6663"><ele>59.00000000000001</ele><time>2026-04-19T09:58:45.874Z</time></trkpt><trkpt lat="42.17011" lon="14.6663783"><ele>59.0</ele><time>2026-04-19T09:58:46.874Z</time></trkpt><trkpt lat="42.170085" lon="14.6664583"><ele>59.0</ele><time>2026-04-19T09:58:47.874Z</time></trkpt><trkpt lat="42.1700633" lon="14.6665417"><ele>59.00000000000001</ele><time>2026-04-19T09:58:48.874Z</time></trkpt><trkpt lat="42.1700417" lon="14.6666217"><ele>59.0</ele><time>2026-04-19T09:58:49.874Z</time></trkpt><trkpt lat="42.17" lon="14.66678"><ele>59.0</ele><time>2026-04-19T09:58:51.873Z</time></trkpt><trkpt lat="42.1699783" lon="14.6668617"><ele>59.0</ele><time>2026-04-19T09:58:52.873Z</time></trkpt><trkpt lat="42.1699583" lon="14.6669467"><ele>59.00000000000001</ele><time>2026-04-19T09:58:53.874Z</time></trkpt><trkpt lat="42.1699317" lon="14.667105"><ele>59.0</ele><time>2026-04-19T09:58:55.874Z</time></trkpt><trkpt lat="42.169915" lon="14.66719"><ele>59.0</ele><time>2026-04-19T09:58:56.874Z</time></trkpt><trkpt lat="42.1698817" lon="14.66735"><ele>59.00000000000001</ele><time>2026-04-19T09:58:58.873Z</time></trkpt><trkpt lat="42.1698417" lon="14.667505"><ele>59.00000000000001</ele><time>2026-04-19T09:59:00.874Z</time></trkpt><trkpt lat="42.1698217" lon="14.66759"><ele>59.0</ele><time>2026-04-19T09:59:01.874Z</time></trkpt><trkpt lat="42.1697783" lon="14.6677517"><ele>59.0</ele><time>2026-04-19T09:59:03.873Z</time></trkpt><trkpt lat="42.1697567" lon="14.667835"><ele>59.0</ele><time>2026-04-19T09:59:04.874Z</time></trkpt><trkpt lat="42.16973" lon="14.6679167"><ele>59.0</ele><time>2026-04-19T09:59:05.873Z</time></trkpt><trkpt lat="42.1696967" lon="14.668"><ele>59.0</ele><time>2026-04-19T09:59:06.873Z</time></trkpt><trkpt lat="42.169665" lon="14.668085"><ele>59.0</ele><time>2026-04-19T09:59:07.873Z</time></trkpt><trkpt lat="42.1696317" lon="14.6681717"><ele>59.0</ele><time>2026-04-19T09:59:08.874Z</time></trkpt><trkpt lat="42.1695933" lon="14.6682583"><ele>59.0</ele><time>2026-04-19T09:59:09.874Z</time></trkpt><trkpt lat="42.1695583" lon="14.6683467"><ele>59.0</ele><time>2026-04-19T09:59:10.873Z</time></trkpt><trkpt lat="42.1695267" lon="14.6684383"><ele>59.00000000000001</ele><time>2026-04-19T09:59:11.874Z</time></trkpt><trkpt lat="42.1695033" lon="14.6685283"><ele>59.0</ele><time>2026-04-19T09:59:12.874Z</time></trkpt><trkpt lat="42.1694817" lon="14.66862"><ele>59.0</ele><time>2026-04-19T09:59:13.874Z</time></trkpt><trkpt lat="42.16946" lon="14.668705"><ele>59.0</ele><time>2026-04-19T09:59:14.874Z</time></trkpt><trkpt lat="42.1694417" lon="14.668795"><ele>59.00000000000001</ele><time>2026-04-19T09:59:15.874Z</time></trkpt><trkpt lat="42.169415" lon="14.668955"><ele>59.0</ele><time>2026-04-19T09:59:17.874Z</time></trkpt><trkpt lat="42.169385" lon="14.6691083"><ele>58.25</ele><time>2026-04-19T09:59:19.873Z</time></trkpt><trkpt lat="42.1693417" lon="14.669245"><ele>57.5</ele><time>2026-04-19T09:59:21.874Z</time></trkpt><trkpt lat="42.16929" lon="14.6693783"><ele>56.75</ele><time>2026-04-19T09:59:23.874Z</time></trkpt><trkpt lat="42.1692367" lon="14.6695167"><ele>56.0</ele><time>2026-04-19T09:59:25.874Z</time></trkpt><trkpt lat="42.16918" lon="14.6696583"><ele>55.833333333333336</ele><time>2026-04-19T09:59:27.873Z</time></trkpt><trkpt lat="42.1691517" lon="14.6697367"><ele>55.66666666666667</ele><time>2026-04-19T09:59:28.874Z</time></trkpt><trkpt lat="42.1691233" lon="14.6698133"><ele>55.5</ele><time>2026-04-19T09:59:29.874Z</time></trkpt><trkpt lat="42.1690983" lon="14.6698917"><ele>55.33333333333333</ele><time>2026-04-19T09:59:30.874Z</time></trkpt><trkpt lat="42.16905" lon="14.6700367"><ele>55.166666666666664</ele><time>2026-04-19T09:59:32.874Z</time></trkpt><trkpt lat="42.1690017" lon="14.6701833"><ele>55.0</ele><time>2026-04-19T09:59:34.874Z</time></trkpt><trkpt lat="42.1689683" lon="14.670315"><ele>55.6</ele><time>2026-04-19T09:59:36.874Z</time></trkpt><trkpt lat="42.1689267" lon="14.670445"><ele>56.2</ele><time>2026-04-19T09:59:38.874Z</time></trkpt><trkpt lat="42.168895" lon="14.6705783"><ele>56.8</ele><time>2026-04-19T09:59:40.874Z</time></trkpt><trkpt lat="42.1688583" lon="14.6707117"><ele>57.4</ele><time>2026-04-19T09:59:42.873Z</time></trkpt><trkpt lat="42.1688133" lon="14.670845"><ele>58.0</ele><time>2026-04-19T09:59:44.873Z</time></trkpt><trkpt lat="42.16876" lon="14.6709833"><ele>57.599999999999994</ele><time>2026-04-19T09:59:46.873Z</time></trkpt><trkpt lat="42.1687083" lon="14.67113"><ele>57.199999999999996</ele><time>2026-04-19T09:59:48.874Z</time></trkpt><trkpt lat="42.168685" lon="14.67121"><ele>56.8</ele><time>2026-04-19T09:59:49.873Z</time></trkpt><trkpt lat="42.1686567" lon="14.6712867"><ele>56.4</ele><time>2026-04-19T09:59:50.874Z</time></trkpt><trkpt lat="42.1686083" lon="14.6714383"><ele>56.0</ele><time>2026-04-19T09:59:52.873Z</time></trkpt><trkpt lat="42.1685633" lon="14.671595"><ele>56.00000000000001</ele><time>2026-04-19T09:59:54.874Z</time></trkpt><trkpt lat="42.16854" lon="14.671685"><ele>56.0</ele><time>2026-04-19T09:59:55.874Z</time></trkpt><trkpt lat="42.1685233" lon="14.67177"><ele>56.0</ele><time>2026-04-19T09:59:56.873Z</time></trkpt><trkpt lat="42.1685117" lon="14.6718583"><ele>56.0</ele><time>2026-04-19T09:59:57.873Z</time></trkpt><trkpt lat="42.1684983" lon="14.67195"><ele>56.00000000000001</ele><time>2026-04-19T09:59:58.874Z</time></trkpt><trkpt lat="42.168485" lon="14.6720333"><ele>56.0</ele><time>2026-04-19T09:59:59.873Z</time></trkpt><trkpt lat="42.1684617" lon="14.6721933"><ele>55.8</ele><time>2026-04-19T10:00:01.874Z</time></trkpt><trkpt lat="42.1684367" lon="14.672355"><ele>55.599999999999994</ele><time>2026-04-19T10:00:03.874Z</time></trkpt><trkpt lat="42.1684" lon="14.6725117"><ele>55.4</ele><time>2026-04-19T10:00:05.874Z</time></trkpt><trkpt lat="42.1683583" lon="14.6726667"><ele>55.2</ele><time>2026-04-19T10:00:07.874Z</time></trkpt><trkpt lat="42.1683383" lon="14.6727483"><ele>55.0</ele><time>2026-04-19T10:00:08.874Z</time></trkpt><trkpt lat="42.1683167" lon="14.6728283"><ele>54.8</ele><time>2026-04-19T10:00:09.873Z</time></trkpt><trkpt lat="42.1683" lon="14.6729117"><ele>54.6</ele><time>2026-04-19T10:00:10.873Z</time></trkpt><trkpt lat="42.16825" lon="14.6730683"><ele>54.400000000000006</ele><time>2026-04-19T10:00:12.874Z</time></trkpt><trkpt lat="42.1682117" lon="14.6732267"><ele>54.2</ele><time>2026-04-19T10:00:14.874Z</time></trkpt><trkpt lat="42.1681667" lon="14.67338"><ele>54.0</ele><time>2026-04-19T10:00:16.874Z</time></trkpt><trkpt lat="42.168125" lon="14.673535"><ele>54.75</ele><time>2026-04-19T10:00:18.873Z</time></trkpt><trkpt lat="42.1680867" lon="14.6736883"><ele>55.5</ele><time>2026-04-19T10:00:20.873Z</time></trkpt><trkpt lat="42.1680467" lon="14.6738433"><ele>56.25</ele><time>2026-04-19T10:00:22.873Z</time></trkpt><trkpt lat="42.168005" lon="14.6739883"><ele>57.0</ele><time>2026-04-19T10:00:24.873Z</time></trkpt><trkpt lat="42.1679617" lon="14.67413"><ele>57.0</ele><time>2026-04-19T10:00:26.874Z</time></trkpt><trkpt lat="42.1679117" lon="14.6742667"><ele>57.0</ele><time>2026-04-19T10:00:28.874Z</time></trkpt><trkpt lat="42.16787" lon="14.6744183"><ele>57.0</ele><time>2026-04-19T10:00:30.874Z</time></trkpt><trkpt lat="42.1678267" lon="14.6745617"><ele>57.0</ele><time>2026-04-19T10:00:32.874Z</time></trkpt><trkpt lat="42.1677833" lon="14.6747133"><ele>56.5</ele><time>2026-04-19T10:00:34.874Z</time></trkpt><trkpt lat="42.1677433" lon="14.6748533"><ele>56.0</ele><time>2026-04-19T10:00:36.874Z</time></trkpt><trkpt lat="42.1676967" lon="14.6750067"><ele>55.5</ele><time>2026-04-19T10:00:38.874Z</time></trkpt><trkpt lat="42.16765" lon="14.675165"><ele>55.0</ele><time>2026-04-19T10:00:40.874Z</time></trkpt><trkpt lat="42.1676117" lon="14.6753117"><ele>55.0</ele><time>2026-04-19T10:00:42.874Z</time></trkpt><trkpt lat="42.1675767" lon="14.67545"><ele>55.0</ele><time>2026-04-19T10:00:44.874Z</time></trkpt><trkpt lat="42.1675433" lon="14.6755983"><ele>55.0</ele><time>2026-04-19T10:00:46.874Z</time></trkpt><trkpt lat="42.1675183" lon="14.6757617"><ele>55.0</ele><time>2026-04-19T10:00:48.873Z</time></trkpt><trkpt lat="42.1674983" lon="14.675925"><ele>54.99999999999999</ele><time>2026-04-19T10:00:50.874Z</time></trkpt><trkpt lat="42.1674833" lon="14.676085"><ele>55.0</ele><time>2026-04-19T10:00:52.874Z</time></trkpt><trkpt lat="42.1674783" lon="14.67617"><ele>55.0</ele><time>2026-04-19T10:00:53.874Z</time></trkpt><trkpt lat="42.1674767" lon="14.6762617"><ele>55.0</ele><time>2026-04-19T10:00:54.874Z</time></trkpt><trkpt lat="42.167465" lon="14.676355"><ele>54.99999999999999</ele><time>2026-04-19T10:00:55.874Z</time></trkpt><trkpt lat="42.1674583" lon="14.6764433"><ele>55.0</ele><time>2026-04-19T10:00:56.874Z</time></trkpt><trkpt lat="42.1674567" lon="14.67653"><ele>54.71428571428571</ele><time>2026-04-19T10:00:57.873Z</time></trkpt><trkpt lat="42.1674567" lon="14.676615"><ele>54.42857142857143</ele><time>2026-04-19T10:00:58.874Z</time></trkpt><trkpt lat="42.1674617" lon="14.6767"><ele>54.14285714285714</ele><time>2026-04-19T10:00:59.874Z</time></trkpt><trkpt lat="42.167465" lon="14.6767917"><ele>53.857142857142854</ele><time>2026-04-19T10:01:00.873Z</time></trkpt><trkpt lat="42.1674717" lon="14.6768817"><ele>53.57142857142857</ele><time>2026-04-19T10:01:01.873Z</time></trkpt><trkpt lat="42.1674783" lon="14.6769733"><ele>53.285714285714285</ele><time>2026-04-19T10:01:02.874Z</time></trkpt><trkpt lat="42.1674817" lon="14.6770617"><ele>53.0</ele><time>2026-04-19T10:01:03.873Z</time></trkpt><trkpt lat="42.1674833" lon="14.6771533"><ele>52.833333333333336</ele><time>2026-04-19T10:01:04.873Z</time></trkpt><trkpt lat="42.1674867" lon="14.6772433"><ele>52.66666666666667</ele><time>2026-04-19T10:01:05.874Z</time></trkpt><trkpt lat="42.1674883" lon="14.6773333"><ele>52.5</ele><time>2026-04-19T10:01:06.874Z</time></trkpt><trkpt lat="42.1674883" lon="14.6774217"><ele>52.33333333333333</ele><time>2026-04-19T10:01:07.874Z</time></trkpt><trkpt lat="42.1674833" lon="14.6775083"><ele>52.166666666666664</ele><time>2026-04-19T10:01:08.874Z</time></trkpt><trkpt lat="42.1674767" lon="14.6775967"><ele>52.0</ele><time>2026-04-19T10:01:09.874Z</time></trkpt><trkpt lat="42.1674583" lon="14.677765"><ele>51.166666666666664</ele><time>2026-04-19T10:01:11.873Z</time></trkpt><trkpt lat="42.16745" lon="14.6778533"><ele>50.33333333333333</ele><time>2026-04-19T10:01:12.874Z</time></trkpt><trkpt lat="42.1674467" lon="14.6779417"><ele>49.5</ele><time>2026-04-19T10:01:13.873Z</time></trkpt><trkpt lat="42.1674433" lon="14.6780283"><ele>48.666666666666664</ele><time>2026-04-19T10:01:14.874Z</time></trkpt><trkpt lat="42.16744" lon="14.6781867"><ele>47.83333333333333</ele><time>2026-04-19T10:01:16.874Z</time></trkpt><trkpt lat="42.1674167" lon="14.6783383"><ele>47.0</ele><time>2026-04-19T10:01:18.873Z</time></trkpt><trkpt lat="42.1673633" lon="14.678485"><ele>46.2</ele><time>2026-04-19T10:01:20.874Z</time></trkpt><trkpt lat="42.1672767" lon="14.678585"><ele>45.400000000000006</ele><time>2026-04-19T10:01:22.874Z</time></trkpt><trkpt lat="42.16716" lon="14.6786217"><ele>44.599999999999994</ele><time>2026-04-19T10:01:24.873Z</time></trkpt><trkpt lat="42.1670867" lon="14.67863"><ele>43.8</ele><time>2026-04-19T10:01:25.873Z</time></trkpt><trkpt lat="42.167005" lon="14.678645"><ele>43.0</ele><time>2026-04-19T10:01:26.873Z</time></trkpt><trkpt lat="42.1669217" lon="14.678675"><ele>43.0</ele><time>2026-04-19T10:01:27.874Z</time></trkpt><trkpt lat="42.166845" lon="14.678725"><ele>43.0</ele><time>2026-04-19T10:01:28.874Z</time></trkpt><trkpt lat="42.16678" lon="14.6788"><ele>43.0</ele><time>2026-04-19T10:01:29.874Z</time></trkpt><trkpt lat="42.16674" lon="14.678895"><ele>43.0</ele><time>2026-04-19T10:01:30.874Z</time></trkpt><trkpt lat="42.1667317" lon="14.67901"><ele>43.0</ele><time>2026-04-19T10:01:31.874Z</time></trkpt><trkpt lat="42.1667483" lon="14.679115"><ele>43.0</ele><time>2026-04-19T10:01:32.874Z</time></trkpt><trkpt lat="42.166785" lon="14.6792133"><ele>43.0</ele><time>2026-04-19T10:01:33.874Z</time></trkpt><trkpt lat="42.1668267" lon="14.6793083"><ele>43.0</ele><time>2026-04-19T10:01:34.873Z</time></trkpt><trkpt lat="42.1668717" lon="14.6794"><ele>43.0</ele><time>2026-04-19T10:01:35.873Z</time></trkpt><trkpt lat="42.1669133" lon="14.6794883"><ele>43.0</ele><time>2026-04-19T10:01:36.874Z</time></trkpt><trkpt lat="42.16695" lon="14.6795767"><ele>43.0</ele><time>2026-04-19T10:01:37.874Z</time></trkpt><trkpt lat="42.166985" lon="14.6796633"><ele>43.0</ele><time>2026-04-19T10:01:38.874Z</time></trkpt><trkpt lat="42.1670083" lon="14.67975"><ele>43.4</ele><time>2026-04-19T10:01:39.874Z</time></trkpt><trkpt lat="42.16702" lon="14.6798383"><ele>43.8</ele><time>2026-04-19T10:01:40.873Z</time></trkpt><trkpt lat="42.1670217" lon="14.6799267"><ele>44.2</ele><time>2026-04-19T10:01:41.873Z</time></trkpt><trkpt lat="42.1669933" lon="14.6800733"><ele>44.6</ele><time>2026-04-19T10:01:43.873Z</time></trkpt><trkpt lat="42.1669683" lon="14.6802217"><ele>45.0</ele><time>2026-04-19T10:01:45.873Z</time></trkpt><trkpt lat="42.16695" lon="14.68035"><ele>45.0</ele><time>2026-04-19T10:01:47.874Z</time></trkpt><trkpt lat="42.1669317" lon="14.6804683"><ele>45.0</ele><time>2026-04-19T10:01:49.873Z</time></trkpt><trkpt lat="42.16691" lon="14.6805717"><ele>45.0</ele><time>2026-04-19T10:01:51.874Z</time></trkpt><trkpt lat="42.1668883" lon="14.6806617"><ele>45.0</ele><time>2026-04-19T10:01:53.873Z</time></trkpt><trkpt lat="42.1668633" lon="14.680755"><ele>45.0</ele><time>2026-04-19T10:01:55.873Z</time></trkpt><trkpt lat="42.166825" lon="14.6808467"><ele>45.0</ele><time>2026-04-19T10:01:57.874Z</time></trkpt><trkpt lat="42.1667767" lon="14.68093"><ele>45.0</ele><time>2026-04-19T10:01:59.874Z</time></trkpt><trkpt lat="42.1667333" lon="14.6810067"><ele>45.0</ele><time>2026-04-19T10:02:01.874Z</time></trkpt><trkpt lat="42.166695" lon="14.68108"><ele>45.0</ele><time>2026-04-19T10:02:03.873Z</time></trkpt><trkpt lat="42.166635" lon="14.6811733"><ele>45.0</ele><time>2026-04-19T10:02:06.874Z</time></trkpt><trkpt lat="42.166595" lon="14.6812417"><ele>45.0</ele><time>2026-04-19T10:02:08.874Z</time></trkpt><trkpt lat="42.1665517" lon="14.6813483"><ele>45.0</ele><time>2026-04-19T10:02:11.873Z</time></trkpt><trkpt lat="42.1665317" lon="14.6814333"><ele>46.0</ele><time>2026-04-19T10:02:13.874Z</time></trkpt><trkpt lat="42.1665133" lon="14.6815517"><ele>47.0</ele><time>2026-04-19T10:02:16.874Z</time></trkpt><trkpt lat="42.1665017" lon="14.6816483"><ele>48.0</ele><time>2026-04-19T10:02:19.874Z</time></trkpt><trkpt lat="42.166495" lon="14.6817533"><ele>49.0</ele><time>2026-04-19T10:02:22.873Z</time></trkpt><trkpt lat="42.1664867" lon="14.6818483"><ele>50.0</ele><time>2026-04-19T10:02:25.873Z</time></trkpt><trkpt lat="42.1664833" lon="14.6819417"><ele>51.0</ele><time>2026-04-19T10:02:28.873Z</time></trkpt><trkpt lat="42.1664783" lon="14.68204"><ele>51.0</ele><time>2026-04-19T10:02:31.874Z</time></trkpt><trkpt lat="42.1664783" lon="14.6821417"><ele>51.0</ele><time>2026-04-19T10:02:34.873Z</time></trkpt><trkpt lat="42.16648" lon="14.6822433"><ele>51.0</ele><time>2026-04-19T10:02:37.874Z</time></trkpt><trkpt lat="42.1664733" lon="14.682355"><ele>51.0</ele><time>2026-04-19T10:02:40.874Z</time></trkpt><trkpt lat="42.1664567" lon="14.68247"><ele>51.0</ele><time>2026-04-19T10:02:43.873Z</time></trkpt><trkpt lat="42.166445" lon="14.6825667"><ele>51.0</ele><time>2026-04-19T10:02:45.874Z</time></trkpt><trkpt lat="42.16642" lon="14.682655"><ele>51.0</ele><time>2026-04-19T10:02:47.873Z</time></trkpt><trkpt lat="42.1663667" lon="14.6827533"><ele>51.0</ele><time>2026-04-19T10:02:49.874Z</time></trkpt><trkpt lat="42.1663117" lon="14.6828567"><ele>51.0</ele><time>2026-04-19T10:02:51.873Z</time></trkpt><trkpt lat="42.166265" lon="14.6829683"><ele>51.0</ele><time>2026-04-19T10:02:53.874Z</time></trkpt><trkpt lat="42.1662433" lon="14.6830833"><ele>51.0</ele><time>2026-04-19T10:02:55.874Z</time></trkpt><trkpt lat="42.1662317" lon="14.6831967"><ele>50.833333333333336</ele><time>2026-04-19T10:02:57.873Z</time></trkpt><trkpt lat="42.16624" lon="14.68332"><ele>50.66666666666667</ele><time>2026-04-19T10:02:59.873Z</time></trkpt><trkpt lat="42.1662567" lon="14.6834283"><ele>50.5</ele><time>2026-04-19T10:03:01.874Z</time></trkpt><trkpt lat="42.1662767" lon="14.6835283"><ele>50.333333333333336</ele><time>2026-04-19T10:03:03.874Z</time></trkpt><trkpt lat="42.1662983" lon="14.6836217"><ele>50.16666666666667</ele><time>2026-04-19T10:03:05.874Z</time></trkpt><trkpt lat="42.16632" lon="14.68371"><ele>50.0</ele><time>2026-04-19T10:03:07.873Z</time></trkpt><trkpt lat="42.1663467" lon="14.6838"><ele>50.00000000000001</ele><time>2026-04-19T10:03:09.874Z</time></trkpt><trkpt lat="42.1663667" lon="14.6838833"><ele>50.0</ele><time>2026-04-19T10:03:11.873Z</time></trkpt><trkpt lat="42.1663933" lon="14.6839717"><ele>50.0</ele><time>2026-04-19T10:03:13.874Z</time></trkpt><trkpt lat="42.16642" lon="14.6840583"><ele>50.0</ele><time>2026-04-19T10:03:15.874Z</time></trkpt><trkpt lat="42.1664533" lon="14.6841633"><ele>50.00000000000001</ele><time>2026-04-19T10:03:17.874Z</time></trkpt><trkpt lat="42.1664883" lon="14.6842783"><ele>50.0</ele><time>2026-04-19T10:03:19.874Z</time></trkpt><trkpt lat="42.1665183" lon="14.68439"><ele>49.50000000000001</ele><time>2026-04-19T10:03:21.873Z</time></trkpt><trkpt lat="42.1665483" lon="14.68451"><ele>49.0</ele><time>2026-04-19T10:03:23.874Z</time></trkpt><trkpt lat="42.1665783" lon="14.68462"><ele>48.5</ele><time>2026-04-19T10:03:25.873Z</time></trkpt><trkpt lat="42.166605" lon="14.68472"><ele>48.0</ele><time>2026-04-19T10:03:27.874Z</time></trkpt><trkpt lat="42.1666283" lon="14.6848283"><ele>47.5</ele><time>2026-04-19T10:03:29.873Z</time></trkpt><trkpt lat="42.1666467" lon="14.6849417"><ele>47.0</ele><time>2026-04-19T10:03:31.874Z</time></trkpt><trkpt lat="42.1666567" lon="14.6850467"><ele>47.0</ele><time>2026-04-19T10:03:33.874Z</time></trkpt><trkpt lat="42.166665" lon="14.68516"><ele>47.0</ele><time>2026-04-19T10:03:35.874Z</time></trkpt><trkpt lat="42.166675" lon="14.68528"><ele>47.0</ele><time>2026-04-19T10:03:37.873Z</time></trkpt><trkpt lat="42.1666767" lon="14.6853983"><ele>47.0</ele><time>2026-04-19T10:03:39.873Z</time></trkpt><trkpt lat="42.1666783" lon="14.6855217"><ele>47.0</ele><time>2026-04-19T10:03:41.873Z</time></trkpt><trkpt lat="42.1666783" lon="14.685645"><ele>47.0</ele><time>2026-04-19T10:03:43.874Z</time></trkpt><trkpt lat="42.16668" lon="14.6857683"><ele>47.0</ele><time>2026-04-19T10:03:45.874Z</time></trkpt><trkpt lat="42.1666783" lon="14.6858933"><ele>47.0</ele><time>2026-04-19T10:03:47.874Z</time></trkpt><trkpt lat="42.16668" lon="14.686015"><ele>47.0</ele><time>2026-04-19T10:03:49.874Z</time></trkpt><trkpt lat="42.166685" lon="14.6861433"><ele>47.0</ele><time>2026-04-19T10:03:51.874Z</time></trkpt><trkpt lat="42.16669" lon="14.68627"><ele>47.0</ele><time>2026-04-19T10:03:53.874Z</time></trkpt><trkpt lat="42.166695" lon="14.686395"><ele>47.0</ele><time>2026-04-19T10:03:55.873Z</time></trkpt><trkpt lat="42.1667033" lon="14.6865283"><ele>47.0</ele><time>2026-04-19T10:03:57.873Z</time></trkpt><trkpt lat="42.1667017" lon="14.6866467"><ele>47.0</ele><time>2026-04-19T10:03:59.874Z</time></trkpt><trkpt lat="42.1667033" lon="14.6867767"><ele>47.0</ele><time>2026-04-19T10:04:01.873Z</time></trkpt><trkpt lat="42.1667067" lon="14.68692"><ele>47.0</ele><time>2026-04-19T10:04:03.874Z</time></trkpt><trkpt lat="42.16671" lon="14.687055"><ele>46.8</ele><time>2026-04-19T10:04:05.874Z</time></trkpt><trkpt lat="42.1667117" lon="14.6871867"><ele>46.6</ele><time>2026-04-19T10:04:07.874Z</time></trkpt><trkpt lat="42.1667133" lon="14.6873217"><ele>46.4</ele><time>2026-04-19T10:04:09.873Z</time></trkpt><trkpt lat="42.166715" lon="14.68746"><ele>46.199999999999996</ele><time>2026-04-19T10:04:11.873Z</time></trkpt><trkpt lat="42.1667183" lon="14.6876033"><ele>46.0</ele><time>2026-04-19T10:04:13.874Z</time></trkpt><trkpt lat="42.1667217" lon="14.6877517"><ele>46.0</ele><time>2026-04-19T10:04:15.873Z</time></trkpt><trkpt lat="42.16672" lon="14.6878933"><ele>46.0</ele><time>2026-04-19T10:04:17.874Z</time></trkpt><trkpt lat="42.1667233" lon="14.6880383"><ele>46.0</ele><time>2026-04-19T10:04:19.874Z</time></trkpt><trkpt lat="42.16673" lon="14.68819"><ele>46.0</ele><time>2026-04-19T10:04:21.874Z</time></trkpt><trkpt lat="42.16674" lon="14.6883467"><ele>46.0</ele><time>2026-04-19T10:04:23.874Z</time></trkpt><trkpt lat="42.1667517" lon="14.6885017"><ele>45.8</ele><time>2026-04-19T10:04:25.874Z</time></trkpt><trkpt lat="42.1667583" lon="14.68865"><ele>45.599999999999994</ele><time>2026-04-19T10:04:27.874Z</time></trkpt><trkpt lat="42.1667667" lon="14.6887917"><ele>45.4</ele><time>2026-04-19T10:04:29.874Z</time></trkpt><trkpt lat="42.166785" lon="14.6889383"><ele>45.2</ele><time>2026-04-19T10:04:31.874Z</time></trkpt><trkpt lat="42.1667933" lon="14.68908"><ele>45.0</ele><time>2026-04-19T10:04:33.874Z</time></trkpt><trkpt lat="42.1668067" lon="14.6892233"><ele>45.0</ele><time>2026-04-19T10:04:35.873Z</time></trkpt><trkpt lat="42.16682" lon="14.6893683"><ele>45.0</ele><time>2026-04-19T10:04:37.874Z</time></trkpt><trkpt lat="42.1668367" lon="14.6895167"><ele>45.0</ele><time>2026-04-19T10:04:39.873Z</time></trkpt><trkpt lat="42.166845" lon="14.6896567"><ele>45.0</ele><time>2026-04-19T10:04:41.874Z</time></trkpt><trkpt lat="42.1668533" lon="14.689805"><ele>45.0</ele><time>2026-04-19T10:04:43.874Z</time></trkpt><trkpt lat="42.1668683" lon="14.6899467"><ele>45.0</ele><time>2026-04-19T10:04:45.874Z</time></trkpt><trkpt lat="42.1668867" lon="14.69009"><ele>45.0</ele><time>2026-04-19T10:04:47.873Z</time></trkpt><trkpt lat="42.1668983" lon="14.6902333"><ele>45.0</ele><time>2026-04-19T10:04:49.874Z</time></trkpt><trkpt lat="42.16691" lon="14.69037"><ele>45.0</ele><time>2026-04-19T10:04:51.873Z</time></trkpt><trkpt lat="42.1669283" lon="14.6905117"><ele>45.0</ele><time>2026-04-19T10:04:53.874Z</time></trkpt><trkpt lat="42.1669433" lon="14.69066"><ele>44.8</ele><time>2026-04-19T10:04:55.874Z</time></trkpt><trkpt lat="42.166955" lon="14.6907967"><ele>44.6</ele><time>2026-04-19T10:04:57.873Z</time></trkpt><trkpt lat="42.166965" lon="14.690945"><ele>44.400000000000006</ele><time>2026-04-19T10:04:59.873Z</time></trkpt><trkpt lat="42.16698" lon="14.6910883"><ele>44.2</ele><time>2026-04-19T10:05:01.874Z</time></trkpt><trkpt lat="42.1669917" lon="14.6912217"><ele>44.0</ele><time>2026-04-19T10:05:03.873Z</time></trkpt><trkpt lat="42.1670083" lon="14.69137"><ele>43.6</ele><time>2026-04-19T10:05:05.874Z</time></trkpt><trkpt lat="42.1670283" lon="14.6915183"><ele>43.2</ele><time>2026-04-19T10:05:07.874Z</time></trkpt><trkpt lat="42.16705" lon="14.6916717"><ele>42.800000000000004</ele><time>2026-04-19T10:05:09.874Z</time></trkpt><trkpt lat="42.1670767" lon="14.69181"><ele>42.400000000000006</ele><time>2026-04-19T10:05:11.874Z</time></trkpt><trkpt lat="42.1671067" lon="14.69194"><ele>42.0</ele><time>2026-04-19T10:05:13.873Z</time></trkpt><trkpt lat="42.1671283" lon="14.6920617"><ele>42.0</ele><time>2026-04-19T10:05:15.873Z</time></trkpt><trkpt lat="42.167155" lon="14.6921933"><ele>42.0</ele><time>2026-04-19T10:05:17.874Z</time></trkpt><trkpt lat="42.16718" lon="14.692315"><ele>42.0</ele><time>2026-04-19T10:05:19.874Z</time></trkpt><trkpt lat="42.167205" lon="14.69243"><ele>42.0</ele><time>2026-04-19T10:05:21.873Z</time></trkpt><trkpt lat="42.1672383" lon="14.6925533"><ele>42.0</ele><time>2026-04-19T10:05:23.874Z</time></trkpt><trkpt lat="42.16728" lon="14.6926733"><ele>42.0</ele><time>2026-04-19T10:05:25.874Z</time></trkpt><trkpt lat="42.1673117" lon="14.6927983"><ele>42.0</ele><time>2026-04-19T10:05:27.874Z</time></trkpt><trkpt lat="42.1673417" lon="14.69293"><ele>42.0</ele><time>2026-04-19T10:05:29.873Z</time></trkpt><trkpt lat="42.1673733" lon="14.69306"><ele>42.0</ele><time>2026-04-19T10:05:31.874Z</time></trkpt><trkpt lat="42.1674117" lon="14.693195"><ele>42.0</ele><time>2026-04-19T10:05:33.874Z</time></trkpt><trkpt lat="42.1674483" lon="14.69331"><ele>42.0</ele><time>2026-04-19T10:05:35.874Z</time></trkpt><trkpt lat="42.1674783" lon="14.6934367"><ele>42.0</ele><time>2026-04-19T10:05:37.873Z</time></trkpt><trkpt lat="42.1675117" lon="14.693565"><ele>42.0</ele><time>2026-04-19T10:05:39.874Z</time></trkpt><trkpt lat="42.1675483" lon="14.6936833"><ele>42.0</ele><time>2026-04-19T10:05:41.874Z</time></trkpt><trkpt lat="42.1675983" lon="14.6937867"><ele>42.0</ele><time>2026-04-19T10:05:43.873Z</time></trkpt><trkpt lat="42.167655" lon="14.6938883"><ele>41.8</ele><time>2026-04-19T10:05:45.874Z</time></trkpt><trkpt lat="42.1677117" lon="14.6939867"><ele>41.6</ele><time>2026-04-19T10:05:47.873Z</time></trkpt><trkpt lat="42.1677783" lon="14.6940867"><ele>41.4</ele><time>2026-04-19T10:05:49.874Z</time></trkpt><trkpt lat="42.1678533" lon="14.6941883"><ele>41.199999999999996</ele><time>2026-04-19T10:05:51.873Z</time></trkpt><trkpt lat="42.16793" lon="14.6942733"><ele>41.0</ele><time>2026-04-19T10:05:53.873Z</time></trkpt><trkpt lat="42.1679933" lon="14.694355"><ele>40.666666666666664</ele><time>2026-04-19T10:05:55.874Z</time></trkpt><trkpt lat="42.168035" lon="14.6944617"><ele>40.33333333333333</ele><time>2026-04-19T10:05:57.874Z</time></trkpt><trkpt lat="42.16803" lon="14.6945767"><ele>40.0</ele><time>2026-04-19T10:05:59.873Z</time></trkpt><trkpt lat="42.1680017" lon="14.6946633"><ele>39.666666666666664</ele><time>2026-04-19T10:06:02.874Z</time></trkpt><trkpt lat="42.1679417" lon="14.6947367"><ele>39.333333333333336</ele><time>2026-04-19T10:06:05.874Z</time></trkpt><trkpt lat="42.1678867" lon="14.6947883"><ele>39.0</ele><time>2026-04-19T10:06:07.874Z</time></trkpt><trkpt lat="42.1678383" lon="14.6948683"><ele>39.0</ele><time>2026-04-19T10:06:09.874Z</time></trkpt><trkpt lat="42.1678167" lon="14.6949667"><ele>39.0</ele><time>2026-04-19T10:06:11.873Z</time></trkpt><trkpt lat="42.1678267" lon="14.695065"><ele>39.0</ele><time>2026-04-19T10:06:13.873Z</time></trkpt><trkpt lat="42.16786" lon="14.6951633"><ele>39.0</ele><time>2026-04-19T10:06:15.874Z</time></trkpt><trkpt lat="42.1679017" lon="14.69526"><ele>39.0</ele><time>2026-04-19T10:06:17.874Z</time></trkpt><trkpt lat="42.1679317" lon="14.6953533"><ele>39.0</ele><time>2026-04-19T10:06:19.873Z</time></trkpt><trkpt lat="42.1679483" lon="14.6954783"><ele>38.8</ele><time>2026-04-19T10:06:21.873Z</time></trkpt><trkpt lat="42.167965" lon="14.6956183"><ele>38.599999999999994</ele><time>2026-04-19T10:06:23.874Z</time></trkpt><trkpt lat="42.1679717" lon="14.6957567"><ele>38.4</ele><time>2026-04-19T10:06:25.874Z</time></trkpt><trkpt lat="42.16798" lon="14.6959"><ele>38.199999999999996</ele><time>2026-04-19T10:06:27.873Z</time></trkpt><trkpt lat="42.1679883" lon="14.69606"><ele>38.0</ele><time>2026-04-19T10:06:29.874Z</time></trkpt><trkpt lat="42.1679967" lon="14.69623"><ele>37.857142857142854</ele><time>2026-04-19T10:06:31.873Z</time></trkpt><trkpt lat="42.1679917" lon="14.6963283"><ele>37.714285714285715</ele><time>2026-04-19T10:06:32.874Z</time></trkpt><trkpt lat="42.1679833" lon="14.6964267"><ele>37.57142857142857</ele><time>2026-04-19T10:06:33.873Z</time></trkpt><trkpt lat="42.1679683" lon="14.6965233"><ele>37.42857142857143</ele><time>2026-04-19T10:06:34.874Z</time></trkpt><trkpt lat="42.16795" lon="14.6966267"><ele>37.285714285714285</ele><time>2026-04-19T10:06:35.874Z</time></trkpt><trkpt lat="42.1679283" lon="14.6967217"><ele>37.142857142857146</ele><time>2026-04-19T10:06:36.874Z</time></trkpt><trkpt lat="42.167905" lon="14.6968183"><ele>37.0</ele><time>2026-04-19T10:06:37.873Z</time></trkpt><trkpt lat="42.1678783" lon="14.696915"><ele>36.66666666666667</ele><time>2026-04-19T10:06:38.874Z</time></trkpt><trkpt lat="42.1678483" lon="14.69701"><ele>36.333333333333336</ele><time>2026-04-19T10:06:39.873Z</time></trkpt><trkpt lat="42.16782" lon="14.6971067"><ele>36.0</ele><time>2026-04-19T10:06:40.873Z</time></trkpt><trkpt lat="42.16779" lon="14.6972067"><ele>35.666666666666664</ele><time>2026-04-19T10:06:41.874Z</time></trkpt><trkpt lat="42.167755" lon="14.6973033"><ele>35.33333333333333</ele><time>2026-04-19T10:06:42.873Z</time></trkpt><trkpt lat="42.1677233" lon="14.6974017"><ele>35.0</ele><time>2026-04-19T10:06:43.874Z</time></trkpt><trkpt lat="42.167685" lon="14.6974983"><ele>35.0</ele><time>2026-04-19T10:06:44.874Z</time></trkpt><trkpt lat="42.1676533" lon="14.6976017"><ele>35.0</ele><time>2026-04-19T10:06:45.873Z</time></trkpt><trkpt lat="42.1676217" lon="14.69771"><ele>35.0</ele><time>2026-04-19T10:06:46.874Z</time></trkpt><trkpt lat="42.167595" lon="14.6978167"><ele>35.0</ele><time>2026-04-19T10:06:47.874Z</time></trkpt><trkpt lat="42.1675617" lon="14.69792"><ele>35.0</ele><time>2026-04-19T10:06:48.873Z</time></trkpt><trkpt lat="42.1675333" lon="14.6980233"><ele>35.0</ele><time>2026-04-19T10:06:49.874Z</time></trkpt><trkpt lat="42.167505" lon="14.6981283"><ele>34.5</ele><time>2026-04-19T10:06:50.873Z</time></trkpt><trkpt lat="42.1674733" lon="14.6982317"><ele>34.0</ele><time>2026-04-19T10:06:51.874Z</time></trkpt><trkpt lat="42.16744" lon="14.6983333"><ele>33.5</ele><time>2026-04-19T10:06:52.874Z</time></trkpt><trkpt lat="42.167405" lon="14.698435"><ele>33.0</ele><time>2026-04-19T10:06:53.874Z</time></trkpt><trkpt lat="42.167375" lon="14.69854"><ele>32.5</ele><time>2026-04-19T10:06:54.874Z</time></trkpt><trkpt lat="42.167345" lon="14.6986417"><ele>32.0</ele><time>2026-04-19T10:06:55.873Z</time></trkpt><trkpt lat="42.16731" lon="14.6987417"><ele>30.166666666666664</ele><time>2026-04-19T10:06:56.874Z</time></trkpt><trkpt lat="42.1672767" lon="14.6988417"><ele>28.333333333333332</ele><time>2026-04-19T10:06:57.874Z</time></trkpt><trkpt lat="42.1672433" lon="14.6989383"><ele>26.5</ele><time>2026-04-19T10:06:58.873Z</time></trkpt><trkpt lat="42.1672133" lon="14.6990317"><ele>24.666666666666664</ele><time>2026-04-19T10:06:59.873Z</time></trkpt><trkpt lat="42.1671767" lon="14.6991267"><ele>22.833333333333332</ele><time>2026-04-19T10:07:00.874Z</time></trkpt><trkpt lat="42.1671367" lon="14.699225"><ele>21.0</ele><time>2026-04-19T10:07:01.873Z</time></trkpt><trkpt lat="42.1670983" lon="14.699315"><ele>21.0</ele><time>2026-04-19T10:07:02.873Z</time></trkpt><trkpt lat="42.167065" lon="14.6994083"><ele>21.0</ele><time>2026-04-19T10:07:03.873Z</time></trkpt><trkpt lat="42.1670267" lon="14.6995033"><ele>21.0</ele><time>2026-04-19T10:07:04.873Z</time></trkpt><trkpt lat="42.1669883" lon="14.6995967"><ele>21.0</ele><time>2026-04-19T10:07:05.874Z</time></trkpt><trkpt lat="42.1669517" lon="14.6996867"><ele>21.0</ele><time>2026-04-19T10:07:06.873Z</time></trkpt><trkpt lat="42.1669067" lon="14.699785"><ele>21.0</ele><time>2026-04-19T10:07:07.874Z</time></trkpt><trkpt lat="42.16686" lon="14.69987"><ele>21.166666666666668</ele><time>2026-04-19T10:07:08.874Z</time></trkpt><trkpt lat="42.16681" lon="14.6999617"><ele>21.333333333333332</ele><time>2026-04-19T10:07:09.873Z</time></trkpt><trkpt lat="42.1667617" lon="14.7000517"><ele>21.5</ele><time>2026-04-19T10:07:10.873Z</time></trkpt><trkpt lat="42.166715" lon="14.700145"><ele>21.666666666666664</ele><time>2026-04-19T10:07:11.874Z</time></trkpt><trkpt lat="42.1666633" lon="14.700235"><ele>21.833333333333332</ele><time>2026-04-19T10:07:12.874Z</time></trkpt><trkpt lat="42.166615" lon="14.70033"><ele>22.0</ele><time>2026-04-19T10:07:13.873Z</time></trkpt><trkpt lat="42.1665633" lon="14.70043"><ele>21.833333333333332</ele><time>2026-04-19T10:07:14.874Z</time></trkpt><trkpt lat="42.1665117" lon="14.70052"><ele>21.666666666666664</ele><time>2026-04-19T10:07:15.874Z</time></trkpt><trkpt lat="42.16646" lon="14.7006117"><ele>21.5</ele><time>2026-04-19T10:07:16.873Z</time></trkpt><trkpt lat="42.16641" lon="14.7007033"><ele>21.333333333333332</ele><time>2026-04-19T10:07:17.874Z</time></trkpt><trkpt lat="42.166365" lon="14.7007867"><ele>21.166666666666668</ele><time>2026-04-19T10:07:18.874Z</time></trkpt><trkpt lat="42.16632" lon="14.700875"><ele>21.0</ele><time>2026-04-19T10:07:19.874Z</time></trkpt><trkpt lat="42.1662733" lon="14.7009533"><ele>21.0</ele><time>2026-04-19T10:07:20.874Z</time></trkpt><trkpt lat="42.1662267" lon="14.7010317"><ele>21.0</ele><time>2026-04-19T10:07:21.873Z</time></trkpt><trkpt lat="42.1661883" lon="14.701105"><ele>21.0</ele><time>2026-04-19T10:07:22.874Z</time></trkpt><trkpt lat="42.166145" lon="14.70118"><ele>21.0</ele><time>2026-04-19T10:07:23.874Z</time></trkpt><trkpt lat="42.1661017" lon="14.7012533"><ele>21.0</ele><time>2026-04-19T10:07:24.874Z</time></trkpt><trkpt lat="42.1660583" lon="14.7013317"><ele>21.0</ele><time>2026-04-19T10:07:25.873Z</time></trkpt><trkpt lat="42.166015" lon="14.7014067"><ele>21.0</ele><time>2026-04-19T10:07:26.874Z</time></trkpt><trkpt lat="42.1659733" lon="14.7014817"><ele>21.857142857142858</ele><time>2026-04-19T10:07:27.874Z</time></trkpt><trkpt lat="42.165935" lon="14.701555"><ele>22.714285714285715</ele><time>2026-04-19T10:07:28.873Z</time></trkpt><trkpt lat="42.1658983" lon="14.701625"><ele>23.57142857142857</ele><time>2026-04-19T10:07:29.874Z</time></trkpt><trkpt lat="42.1658583" lon="14.7017"><ele>24.42857142857143</ele><time>2026-04-19T10:07:30.874Z</time></trkpt><trkpt lat="42.16582" lon="14.7017717"><ele>25.285714285714285</ele><time>2026-04-19T10:07:31.874Z</time></trkpt><trkpt lat="42.1657817" lon="14.7018417"><ele>26.142857142857142</ele><time>2026-04-19T10:07:32.873Z</time></trkpt><trkpt lat="42.1657367" lon="14.7019083"><ele>27.0</ele><time>2026-04-19T10:07:33.873Z</time></trkpt><trkpt lat="42.1656967" lon="14.701975"><ele>28.333333333333332</ele><time>2026-04-19T10:07:34.873Z</time></trkpt><trkpt lat="42.16562" lon="14.70211"><ele>29.666666666666664</ele><time>2026-04-19T10:07:36.874Z</time></trkpt><trkpt lat="42.1655767" lon="14.70218"><ele>31.0</ele><time>2026-04-19T10:07:37.874Z</time></trkpt><trkpt lat="42.16554" lon="14.7022517"><ele>32.33333333333333</ele><time>2026-04-19T10:07:38.873Z</time></trkpt><trkpt lat="42.1655" lon="14.7023217"><ele>33.666666666666664</ele><time>2026-04-19T10:07:39.873Z</time></trkpt><trkpt lat="42.16546" lon="14.7023917"><ele>35.0</ele><time>2026-04-19T10:07:40.873Z</time></trkpt><trkpt lat="42.16538" lon="14.7025167"><ele>35.0</ele><time>2026-04-19T10:07:42.874Z</time></trkpt><trkpt lat="42.1653383" lon="14.7025833"><ele>35.0</ele><time>2026-04-19T10:07:43.874Z</time></trkpt><trkpt lat="42.1653" lon="14.7026517"><ele>35.0</ele><time>2026-04-19T10:07:44.873Z</time></trkpt><trkpt lat="42.1652567" lon="14.7027233"><ele>35.0</ele><time>2026-04-19T10:07:45.874Z</time></trkpt><trkpt lat="42.1652183" lon="14.7027917"><ele>35.0</ele><time>2026-04-19T10:07:46.873Z</time></trkpt><trkpt lat="42.1651767" lon="14.70286"><ele>35.0</ele><time>2026-04-19T10:07:47.874Z</time></trkpt><trkpt lat="42.1651033" lon="14.7029983"><ele>35.0</ele><time>2026-04-19T10:07:49.874Z</time></trkpt><trkpt lat="42.1650617" lon="14.7030667"><ele>35.0</ele><time>2026-04-19T10:07:50.874Z</time></trkpt><trkpt lat="42.1649783" lon="14.7031917"><ele>35.0</ele><time>2026-04-19T10:07:52.873Z</time></trkpt><trkpt lat="42.1648867" lon="14.7033167"><ele>35.0</ele><time>2026-04-19T10:07:54.874Z</time></trkpt><trkpt lat="42.1648383" lon="14.70338"><ele>35.0</ele><time>2026-04-19T10:07:55.874Z</time></trkpt><trkpt lat="42.16479" lon="14.7034367"><ele>35.0</ele><time>2026-04-19T10:07:56.873Z</time></trkpt><trkpt lat="42.1647383" lon="14.7035017"><ele>35.0</ele><time>2026-04-19T10:07:57.874Z</time></trkpt><trkpt lat="42.16469" lon="14.703565"><ele>35.0</ele><time>2026-04-19T10:07:58.873Z</time></trkpt><trkpt lat="42.164645" lon="14.7036267"><ele>35.0</ele><time>2026-04-19T10:07:59.874Z</time></trkpt><trkpt lat="42.1645567" lon="14.7037383"><ele>35.0</ele><time>2026-04-19T10:08:01.873Z</time></trkpt><trkpt lat="42.164465" lon="14.703855"><ele>35.0</ele><time>2026-04-19T10:08:03.874Z</time></trkpt><trkpt lat="42.1644167" lon="14.7039117"><ele>34.6</ele><time>2026-04-19T10:08:04.874Z</time></trkpt><trkpt lat="42.16437" lon="14.70397"><ele>34.2</ele><time>2026-04-19T10:08:05.874Z</time></trkpt><trkpt lat="42.164285" lon="14.70409"><ele>33.8</ele><time>2026-04-19T10:08:07.874Z</time></trkpt><trkpt lat="42.1642067" lon="14.7042"><ele>33.4</ele><time>2026-04-19T10:08:09.874Z</time></trkpt><trkpt lat="42.1641317" lon="14.7042967"><ele>33.0</ele><time>2026-04-19T10:08:11.873Z</time></trkpt><trkpt lat="42.1640567" lon="14.7043983"><ele>33.0</ele><time>2026-04-19T10:08:13.873Z</time></trkpt><trkpt lat="42.163975" lon="14.704505"><ele>33.0</ele><time>2026-04-19T10:08:15.874Z</time></trkpt><trkpt lat="42.1638967" lon="14.7046133"><ele>33.0</ele><time>2026-04-19T10:08:17.873Z</time></trkpt><trkpt lat="42.1638067" lon="14.7047117"><ele>33.0</ele><time>2026-04-19T10:08:19.874Z</time></trkpt><trkpt lat="42.1637233" lon="14.7048233"><ele>33.0</ele><time>2026-04-19T10:08:21.874Z</time></trkpt><trkpt lat="42.1636367" lon="14.704935"><ele>33.0</ele><time>2026-04-19T10:08:23.874Z</time></trkpt><trkpt lat="42.163555" lon="14.70504"><ele>33.0</ele><time>2026-04-19T10:08:25.874Z</time></trkpt><trkpt lat="42.1634717" lon="14.7051517"><ele>33.0</ele><time>2026-04-19T10:08:27.874Z</time></trkpt><trkpt lat="42.16339" lon="14.7052567"><ele>32.833333333333336</ele><time>2026-04-19T10:08:29.874Z</time></trkpt><trkpt lat="42.1633017" lon="14.7053567"><ele>32.666666666666664</ele><time>2026-04-19T10:08:31.873Z</time></trkpt><trkpt lat="42.1632133" lon="14.7054517"><ele>32.5</ele><time>2026-04-19T10:08:33.874Z</time></trkpt><trkpt lat="42.16316" lon="14.7055033"><ele>32.33333333333333</ele><time>2026-04-19T10:08:34.874Z</time></trkpt><trkpt lat="42.163105" lon="14.7055483"><ele>32.166666666666664</ele><time>2026-04-19T10:08:35.874Z</time></trkpt><trkpt lat="42.1630467" lon="14.7055883"><ele>32.0</ele><time>2026-04-19T10:08:36.874Z</time></trkpt><trkpt lat="42.1629833" lon="14.70562"><ele>32.0</ele><time>2026-04-19T10:08:37.874Z</time></trkpt><trkpt lat="42.1628683" lon="14.7056033"><ele>32.0</ele><time>2026-04-19T10:08:39.873Z</time></trkpt><trkpt lat="42.1627817" lon="14.7054917"><ele>32.0</ele><time>2026-04-19T10:08:41.874Z</time></trkpt><trkpt lat="42.1627133" lon="14.70537"><ele>32.0</ele><time>2026-04-19T10:08:43.874Z</time></trkpt><trkpt lat="42.1626517" lon="14.70525"><ele>32.0</ele><time>2026-04-19T10:08:45.874Z</time></trkpt><trkpt lat="42.1625817" lon="14.7051433"><ele>32.0</ele><time>2026-04-19T10:08:47.874Z</time></trkpt><trkpt lat="42.1625133" lon="14.705035"><ele>32.0</ele><time>2026-04-19T10:08:49.874Z</time></trkpt><trkpt lat="42.16245" lon="14.7049467"><ele>32.0</ele><time>2026-04-19T10:08:51.874Z</time></trkpt><trkpt lat="42.1623867" lon="14.7048633"><ele>32.0</ele><time>2026-04-19T10:08:53.873Z</time></trkpt><trkpt lat="42.1622983" lon="14.7048083"><ele>32.4</ele><time>2026-04-19T10:08:55.874Z</time></trkpt><trkpt lat="42.16221" lon="14.7047867"><ele>32.800000000000004</ele><time>2026-04-19T10:08:57.874Z</time></trkpt><trkpt lat="42.1621133" lon="14.704755"><ele>33.2</ele><time>2026-04-19T10:08:59.874Z</time></trkpt><trkpt lat="42.1620017" lon="14.704725"><ele>33.6</ele><time>2026-04-19T10:09:01.874Z</time></trkpt><trkpt lat="42.1618883" lon="14.7046867"><ele>34.0</ele><time>2026-04-19T10:09:03.874Z</time></trkpt><trkpt lat="42.1618233" lon="14.704665"><ele>34.0</ele><time>2026-04-19T10:09:04.874Z</time></trkpt><trkpt lat="42.1617033" lon="14.7046367"><ele>34.0</ele><time>2026-04-19T10:09:06.874Z</time></trkpt><trkpt lat="42.1616383" lon="14.704615"><ele>34.0</ele><time>2026-04-19T10:09:07.874Z</time></trkpt><trkpt lat="42.1615733" lon="14.7045933"><ele>34.0</ele><time>2026-04-19T10:09:08.873Z</time></trkpt><trkpt lat="42.1614533" lon="14.7045583"><ele>34.0</ele><time>2026-04-19T10:09:10.874Z</time></trkpt><trkpt lat="42.16139" lon="14.7045483"><ele>34.0</ele><time>2026-04-19T10:09:11.874Z</time></trkpt><trkpt lat="42.1613267" lon="14.7045333"><ele>34.8</ele><time>2026-04-19T10:09:12.873Z</time></trkpt><trkpt lat="42.1612633" lon="14.70452"><ele>35.599999999999994</ele><time>2026-04-19T10:09:13.873Z</time></trkpt><trkpt lat="42.161155" lon="14.7044883"><ele>36.4</ele><time>2026-04-19T10:09:15.874Z</time></trkpt><trkpt lat="42.1610433" lon="14.70446"><ele>37.199999999999996</ele><time>2026-04-19T10:09:17.874Z</time></trkpt><trkpt lat="42.1609267" lon="14.70444"><ele>38.0</ele><time>2026-04-19T10:09:19.874Z</time></trkpt><trkpt lat="42.1608033" lon="14.7044233"><ele>38.33333333333333</ele><time>2026-04-19T10:09:21.873Z</time></trkpt><trkpt lat="42.1606783" lon="14.704405"><ele>38.666666666666664</ele><time>2026-04-19T10:09:23.874Z</time></trkpt><trkpt lat="42.1606133" lon="14.7043967"><ele>39.0</ele><time>2026-04-19T10:09:24.873Z</time></trkpt><trkpt lat="42.1605467" lon="14.70439"><ele>39.333333333333336</ele><time>2026-04-19T10:09:25.873Z</time></trkpt><trkpt lat="42.1604817" lon="14.7043833"><ele>39.66666666666667</ele><time>2026-04-19T10:09:26.874Z</time></trkpt><trkpt lat="42.1604183" lon="14.7043767"><ele>40.0</ele><time>2026-04-19T10:09:27.873Z</time></trkpt><trkpt lat="42.16035" lon="14.7043667"><ele>40.0</ele><time>2026-04-19T10:09:28.873Z</time></trkpt><trkpt lat="42.1602867" lon="14.7043567"><ele>40.0</ele><time>2026-04-19T10:09:29.874Z</time></trkpt><trkpt lat="42.1601583" lon="14.7043367"><ele>40.0</ele><time>2026-04-19T10:09:31.874Z</time></trkpt><trkpt lat="42.16009" lon="14.70433"><ele>40.0</ele><time>2026-04-19T10:09:32.874Z</time></trkpt><trkpt lat="42.1599633" lon="14.704315"><ele>40.0</ele><time>2026-04-19T10:09:34.874Z</time></trkpt><trkpt lat="42.1599017" lon="14.704295"><ele>40.285714285714285</ele><time>2026-04-19T10:09:35.873Z</time></trkpt><trkpt lat="42.1598317" lon="14.7042833"><ele>40.57142857142857</ele><time>2026-04-19T10:09:36.873Z</time></trkpt><trkpt lat="42.1597583" lon="14.7042767"><ele>40.85714285714286</ele><time>2026-04-19T10:09:37.873Z</time></trkpt><trkpt lat="42.1596867" lon="14.7042667"><ele>41.14285714285714</ele><time>2026-04-19T10:09:38.874Z</time></trkpt><trkpt lat="42.1596133" lon="14.704255"><ele>41.42857142857143</ele><time>2026-04-19T10:09:39.874Z</time></trkpt><trkpt lat="42.159545" lon="14.70424"><ele>41.714285714285715</ele><time>2026-04-19T10:09:40.874Z</time></trkpt><trkpt lat="42.1594767" lon="14.7042267"><ele>42.0</ele><time>2026-04-19T10:09:41.873Z</time></trkpt><trkpt lat="42.159405" lon="14.7042167"><ele>42.0</ele><time>2026-04-19T10:09:42.874Z</time></trkpt><trkpt lat="42.1593383" lon="14.7042033"><ele>42.0</ele><time>2026-04-19T10:09:43.873Z</time></trkpt><trkpt lat="42.1592633" lon="14.7041917"><ele>42.0</ele><time>2026-04-19T10:09:44.874Z</time></trkpt><trkpt lat="42.1591917" lon="14.7041817"><ele>42.0</ele><time>2026-04-19T10:09:45.874Z</time></trkpt><trkpt lat="42.1591167" lon="14.7041667"><ele>42.0</ele><time>2026-04-19T10:09:46.874Z</time></trkpt><trkpt lat="42.1590433" lon="14.7041533"><ele>42.0</ele><time>2026-04-19T10:09:47.873Z</time></trkpt><trkpt lat="42.1589767" lon="14.7041367"><ele>42.0</ele><time>2026-04-19T10:09:48.874Z</time></trkpt><trkpt lat="42.1589067" lon="14.70412"><ele>42.0</ele><time>2026-04-19T10:09:49.874Z</time></trkpt><trkpt lat="42.15884" lon="14.7041133"><ele>42.0</ele><time>2026-04-19T10:09:50.873Z</time></trkpt><trkpt lat="42.158775" lon="14.7041083"><ele>42.0</ele><time>2026-04-19T10:09:51.874Z</time></trkpt><trkpt lat="42.158705" lon="14.7041033"><ele>42.0</ele><time>2026-04-19T10:09:52.874Z</time></trkpt><trkpt lat="42.158635" lon="14.7041017"><ele>42.0</ele><time>2026-04-19T10:09:53.873Z</time></trkpt><trkpt lat="42.1585617" lon="14.7041067"><ele>42.0</ele><time>2026-04-19T10:09:54.874Z</time></trkpt><trkpt lat="42.15849" lon="14.7041067"><ele>42.0</ele><time>2026-04-19T10:09:55.873Z</time></trkpt><trkpt lat="42.1584183" lon="14.70411"><ele>42.0</ele><time>2026-04-19T10:09:56.874Z</time></trkpt><trkpt lat="42.1583467" lon="14.704105"><ele>42.0</ele><time>2026-04-19T10:09:57.874Z</time></trkpt><trkpt lat="42.1582767" lon="14.7040983"><ele>42.0</ele><time>2026-04-19T10:09:58.874Z</time></trkpt><trkpt lat="42.158205" lon="14.70408"><ele>42.0</ele><time>2026-04-19T10:09:59.873Z</time></trkpt><trkpt lat="42.15813" lon="14.7040617"><ele>42.0</ele><time>2026-04-19T10:10:00.873Z</time></trkpt><trkpt lat="42.1580533" lon="14.704035"><ele>42.0</ele><time>2026-04-19T10:10:01.874Z</time></trkpt><trkpt lat="42.1579783" lon="14.7040267"><ele>42.0</ele><time>2026-04-19T10:10:02.873Z</time></trkpt><trkpt lat="42.157905" lon="14.7040233"><ele>42.0</ele><time>2026-04-19T10:10:03.874Z</time></trkpt><trkpt lat="42.1578267" lon="14.70402"><ele>42.0</ele><time>2026-04-19T10:10:04.874Z</time></trkpt><trkpt lat="42.1577533" lon="14.7040233"><ele>42.0</ele><time>2026-04-19T10:10:05.873Z</time></trkpt><trkpt lat="42.1576733" lon="14.70403"><ele>42.0</ele><time>2026-04-19T10:10:06.874Z</time></trkpt><trkpt lat="42.1575933" lon="14.7040433"><ele>42.0</ele><time>2026-04-19T10:10:07.873Z</time></trkpt><trkpt lat="42.1575133" lon="14.7040633"><ele>42.0</ele><time>2026-04-19T10:10:08.874Z</time></trkpt><trkpt lat="42.1574317" lon="14.7040867"><ele>42.5</ele><time>2026-04-19T10:10:09.874Z</time></trkpt><trkpt lat="42.15735" lon="14.7041133"><ele>43.0</ele><time>2026-04-19T10:10:10.874Z</time></trkpt><trkpt lat="42.1572683" lon="14.70414"><ele>43.5</ele><time>2026-04-19T10:10:11.874Z</time></trkpt><trkpt lat="42.15719" lon="14.7041633"><ele>44.0</ele><time>2026-04-19T10:10:12.873Z</time></trkpt><trkpt lat="42.15711" lon="14.70419"><ele>44.5</ele><time>2026-04-19T10:10:13.874Z</time></trkpt><trkpt lat="42.1570367" lon="14.704215"><ele>45.0</ele><time>2026-04-19T10:10:14.874Z</time></trkpt><trkpt lat="42.1569617" lon="14.7042367"><ele>45.0</ele><time>2026-04-19T10:10:15.874Z</time></trkpt><trkpt lat="42.156885" lon="14.70426"><ele>45.0</ele><time>2026-04-19T10:10:16.874Z</time></trkpt><trkpt lat="42.1568067" lon="14.7042833"><ele>45.0</ele><time>2026-04-19T10:10:17.873Z</time></trkpt><trkpt lat="42.1567317" lon="14.7043083"><ele>45.0</ele><time>2026-04-19T10:10:18.874Z</time></trkpt><trkpt lat="42.1566517" lon="14.7043383"><ele>45.0</ele><time>2026-04-19T10:10:19.874Z</time></trkpt><trkpt lat="42.1565733" lon="14.704365"><ele>45.0</ele><time>2026-04-19T10:10:20.874Z</time></trkpt><trkpt lat="42.1564967" lon="14.70439"><ele>45.166666666666664</ele><time>2026-04-19T10:10:21.874Z</time></trkpt><trkpt lat="42.1564133" lon="14.7044217"><ele>45.333333333333336</ele><time>2026-04-19T10:10:22.873Z</time></trkpt><trkpt lat="42.1563333" lon="14.70445"><ele>45.5</ele><time>2026-04-19T10:10:23.874Z</time></trkpt><trkpt lat="42.15625" lon="14.70448"><ele>45.66666666666667</ele><time>2026-04-19T10:10:24.873Z</time></trkpt><trkpt lat="42.1561683" lon="14.70451"><ele>45.833333333333336</ele><time>2026-04-19T10:10:25.874Z</time></trkpt><trkpt lat="42.1560883" lon="14.7045367"><ele>46.0</ele><time>2026-04-19T10:10:26.873Z</time></trkpt><trkpt lat="42.1560033" lon="14.70456"><ele>46.0</ele><time>2026-04-19T10:10:27.873Z</time></trkpt><trkpt lat="42.1559183" lon="14.70459"><ele>46.0</ele><time>2026-04-19T10:10:28.874Z</time></trkpt><trkpt lat="42.1558317" lon="14.7046183"><ele>46.0</ele><time>2026-04-19T10:10:29.873Z</time></trkpt><trkpt lat="42.1557417" lon="14.7046483"><ele>46.0</ele><time>2026-04-19T10:10:30.873Z</time></trkpt><trkpt lat="42.1556483" lon="14.7046767"><ele>46.0</ele><time>2026-04-19T10:10:31.874Z</time></trkpt><trkpt lat="42.1555633" lon="14.7047"><ele>46.16666666666667</ele><time>2026-04-19T10:10:32.874Z</time></trkpt><trkpt lat="42.155485" lon="14.704725"><ele>46.333333333333336</ele><time>2026-04-19T10:10:33.873Z</time></trkpt><trkpt lat="42.1554017" lon="14.7047483"><ele>46.5</ele><time>2026-04-19T10:10:34.874Z</time></trkpt><trkpt lat="42.1553267" lon="14.704765"><ele>46.666666666666664</ele><time>2026-04-19T10:10:35.873Z</time></trkpt><trkpt lat="42.15525" lon="14.70478"><ele>46.83333333333333</ele><time>2026-04-19T10:10:36.873Z</time></trkpt><trkpt lat="42.155175" lon="14.7047933"><ele>47.0</ele><time>2026-04-19T10:10:37.874Z</time></trkpt><trkpt lat="42.15511" lon="14.7048083"><ele>47.0</ele><time>2026-04-19T10:10:38.874Z</time></trkpt><trkpt lat="42.1550467" lon="14.7048267"><ele>47.0</ele><time>2026-04-19T10:10:39.873Z</time></trkpt><trkpt lat="42.1549233" lon="14.7048417"><ele>47.0</ele><time>2026-04-19T10:10:41.874Z</time></trkpt><trkpt lat="42.1548067" lon="14.7048633"><ele>47.0</ele><time>2026-04-19T10:10:43.874Z</time></trkpt><trkpt lat="42.1547017" lon="14.7048817"><ele>47.0</ele><time>2026-04-19T10:10:45.874Z</time></trkpt><trkpt lat="42.1545983" lon="14.7048933"><ele>47.400000000000006</ele><time>2026-04-19T10:10:47.873Z</time></trkpt><trkpt lat="42.1544933" lon="14.7049117"><ele>47.800000000000004</ele><time>2026-04-19T10:10:49.873Z</time></trkpt><trkpt lat="42.1543867" lon="14.70493"><ele>48.2</ele><time>2026-04-19T10:10:51.873Z</time></trkpt><trkpt lat="42.1542783" lon="14.704955"><ele>48.6</ele><time>2026-04-19T10:10:53.873Z</time></trkpt><trkpt lat="42.15418" lon="14.7049717"><ele>49.0</ele><time>2026-04-19T10:10:55.874Z</time></trkpt><trkpt lat="42.154075" lon="14.7049883"><ele>49.6</ele><time>2026-04-19T10:10:57.873Z</time></trkpt><trkpt lat="42.153975" lon="14.705"><ele>50.2</ele><time>2026-04-19T10:10:59.874Z</time></trkpt><trkpt lat="42.1538733" lon="14.7050133"><ele>50.800000000000004</ele><time>2026-04-19T10:11:01.874Z</time></trkpt><trkpt lat="42.1537683" lon="14.7050283"><ele>51.400000000000006</ele><time>2026-04-19T10:11:03.874Z</time></trkpt><trkpt lat="42.1536767" lon="14.7050583"><ele>52.0</ele><time>2026-04-19T10:11:05.874Z</time></trkpt><trkpt lat="42.1535817" lon="14.7050767"><ele>52.0</ele><time>2026-04-19T10:11:07.873Z</time></trkpt><trkpt lat="42.1534833" lon="14.70509"><ele>52.0</ele><time>2026-04-19T10:11:09.874Z</time></trkpt><trkpt lat="42.1533817" lon="14.7051067"><ele>52.0</ele><time>2026-04-19T10:11:11.874Z</time></trkpt><trkpt lat="42.1532783" lon="14.7051167"><ele>52.0</ele><time>2026-04-19T10:11:13.873Z</time></trkpt><trkpt lat="42.1531833" lon="14.7051367"><ele>52.0</ele><time>2026-04-19T10:11:15.874Z</time></trkpt><trkpt lat="42.1530833" lon="14.7051583"><ele>52.2</ele><time>2026-04-19T10:11:17.873Z</time></trkpt><trkpt lat="42.1529867" lon="14.7051783"><ele>52.400000000000006</ele><time>2026-04-19T10:11:19.873Z</time></trkpt><trkpt lat="42.1528867" lon="14.7052067"><ele>52.599999999999994</ele><time>2026-04-19T10:11:21.873Z</time></trkpt><trkpt lat="42.15278" lon="14.7052417"><ele>52.8</ele><time>2026-04-19T10:11:23.874Z</time></trkpt><trkpt lat="42.1526817" lon="14.70528"><ele>53.0</ele><time>2026-04-19T10:11:25.874Z</time></trkpt><trkpt lat="42.1525867" lon="14.7053083"><ele>53.0</ele><time>2026-04-19T10:11:27.874Z</time></trkpt><trkpt lat="42.15249" lon="14.7053333"><ele>53.0</ele><time>2026-04-19T10:11:29.874Z</time></trkpt><trkpt lat="42.1523917" lon="14.7053667"><ele>53.0</ele><time>2026-04-19T10:11:31.874Z</time></trkpt><trkpt lat="42.1522967" lon="14.7054"><ele>53.0</ele><time>2026-04-19T10:11:33.874Z</time></trkpt><trkpt lat="42.1522" lon="14.705425"><ele>53.0</ele><time>2026-04-19T10:11:35.874Z</time></trkpt><trkpt lat="42.1520917" lon="14.7054467"><ele>53.0</ele><time>2026-04-19T10:11:37.874Z</time></trkpt><trkpt lat="42.151995" lon="14.7054733"><ele>53.0</ele><time>2026-04-19T10:11:39.873Z</time></trkpt><trkpt lat="42.151895" lon="14.7055033"><ele>53.0</ele><time>2026-04-19T10:11:41.874Z</time></trkpt><trkpt lat="42.1518067" lon="14.7055267"><ele>53.0</ele><time>2026-04-19T10:11:43.873Z</time></trkpt><trkpt lat="42.151715" lon="14.7055583"><ele>53.0</ele><time>2026-04-19T10:11:45.873Z</time></trkpt><trkpt lat="42.1516233" lon="14.7055867"><ele>53.599999999999994</ele><time>2026-04-19T10:11:47.873Z</time></trkpt><trkpt lat="42.151535" lon="14.7056167"><ele>54.199999999999996</ele><time>2026-04-19T10:11:49.873Z</time></trkpt><trkpt lat="42.1514483" lon="14.705655"><ele>54.8</ele><time>2026-04-19T10:11:51.873Z</time></trkpt><trkpt lat="42.15136" lon="14.7056683"><ele>55.4</ele><time>2026-04-19T10:11:53.873Z</time></trkpt><trkpt lat="42.1512717" lon="14.7057017"><ele>56.0</ele><time>2026-04-19T10:11:55.874Z</time></trkpt><trkpt lat="42.15118" lon="14.7057383"><ele>56.00000000000001</ele><time>2026-04-19T10:11:57.873Z</time></trkpt><trkpt lat="42.1510933" lon="14.7057767"><ele>56.0</ele><time>2026-04-19T10:11:59.873Z</time></trkpt><trkpt lat="42.1510167" lon="14.70581"><ele>56.0</ele><time>2026-04-19T10:12:01.874Z</time></trkpt><trkpt lat="42.1509383" lon="14.7058317"><ele>56.0</ele><time>2026-04-19T10:12:03.874Z</time></trkpt><trkpt lat="42.1508517" lon="14.7058817"><ele>56.00000000000001</ele><time>2026-04-19T10:12:05.873Z</time></trkpt><trkpt lat="42.1507617" lon="14.7059333"><ele>56.0</ele><time>2026-04-19T10:12:07.874Z</time></trkpt><trkpt lat="42.1506617" lon="14.7059867"><ele>55.8</ele><time>2026-04-19T10:12:09.874Z</time></trkpt><trkpt lat="42.15056" lon="14.706035"><ele>55.599999999999994</ele><time>2026-04-19T10:12:11.874Z</time></trkpt><trkpt lat="42.150465" lon="14.7060783"><ele>55.4</ele><time>2026-04-19T10:12:13.874Z</time></trkpt><trkpt lat="42.1503717" lon="14.706125"><ele>55.2</ele><time>2026-04-19T10:12:15.874Z</time></trkpt><trkpt lat="42.1502783" lon="14.7061783"><ele>55.0</ele><time>2026-04-19T10:12:17.873Z</time></trkpt><trkpt lat="42.1501733" lon="14.7062367"><ele>54.99999999999999</ele><time>2026-04-19T10:12:19.873Z</time></trkpt><trkpt lat="42.1501183" lon="14.7062783"><ele>55.0</ele><time>2026-04-19T10:12:20.873Z</time></trkpt><trkpt lat="42.150035" lon="14.7063667"><ele>55.0</ele><time>2026-04-19T10:12:22.874Z</time></trkpt><trkpt lat="42.14996" lon="14.7064533"><ele>55.0</ele><time>2026-04-19T10:12:24.874Z</time></trkpt><trkpt lat="42.14989" lon="14.706515"><ele>54.99999999999999</ele><time>2026-04-19T10:12:26.874Z</time></trkpt><trkpt lat="42.14983" lon="14.70657"><ele>55.0</ele><time>2026-04-19T10:12:28.873Z</time></trkpt><trkpt lat="42.1497733" lon="14.7066283"><ele>55.2</ele><time>2026-04-19T10:12:30.873Z</time></trkpt><trkpt lat="42.14971" lon="14.7067"><ele>55.4</ele><time>2026-04-19T10:12:32.873Z</time></trkpt><trkpt lat="42.1496417" lon="14.70677"><ele>55.599999999999994</ele><time>2026-04-19T10:12:34.874Z</time></trkpt><trkpt lat="42.1495583" lon="14.7068417"><ele>55.8</ele><time>2026-04-19T10:12:36.874Z</time></trkpt><trkpt lat="42.1494767" lon="14.706925"><ele>56.0</ele><time>2026-04-19T10:12:38.874Z</time></trkpt><trkpt lat="42.149395" lon="14.7070183"><ele>55.4</ele><time>2026-04-19T10:12:40.874Z</time></trkpt><trkpt lat="42.1493083" lon="14.707105"><ele>54.8</ele><time>2026-04-19T10:12:42.874Z</time></trkpt><trkpt lat="42.1492217" lon="14.707195"><ele>54.199999999999996</ele><time>2026-04-19T10:12:44.873Z</time></trkpt><trkpt lat="42.1491267" lon="14.7072783"><ele>53.599999999999994</ele><time>2026-04-19T10:12:46.874Z</time></trkpt><trkpt lat="42.1490333" lon="14.707365"><ele>53.0</ele><time>2026-04-19T10:12:48.874Z</time></trkpt><trkpt lat="42.14893" lon="14.7074533"><ele>52.833333333333336</ele><time>2026-04-19T10:12:50.874Z</time></trkpt><trkpt lat="42.148875" lon="14.7074983"><ele>52.66666666666667</ele><time>2026-04-19T10:12:51.874Z</time></trkpt><trkpt lat="42.14882" lon="14.7075433"><ele>52.5</ele><time>2026-04-19T10:12:52.873Z</time></trkpt><trkpt lat="42.1487067" lon="14.7076167"><ele>52.33333333333333</ele><time>2026-04-19T10:12:54.874Z</time></trkpt><trkpt lat="42.14865" lon="14.7076567"><ele>52.166666666666664</ele><time>2026-04-19T10:12:55.874Z</time></trkpt><trkpt lat="42.1485333" lon="14.7077267"><ele>52.0</ele><time>2026-04-19T10:12:57.873Z</time></trkpt><trkpt lat="42.148465" lon="14.7077633"><ele>51.83333333333333</ele><time>2026-04-19T10:12:58.873Z</time></trkpt><trkpt lat="42.1483933" lon="14.7077983"><ele>51.666666666666664</ele><time>2026-04-19T10:12:59.874Z</time></trkpt><trkpt lat="42.14832" lon="14.7078333"><ele>51.5</ele><time>2026-04-19T10:13:00.874Z</time></trkpt><trkpt lat="42.148235" lon="14.707865"><ele>51.33333333333333</ele><time>2026-04-19T10:13:01.874Z</time></trkpt><trkpt lat="42.1481583" lon="14.7078967"><ele>51.166666666666664</ele><time>2026-04-19T10:13:02.873Z</time></trkpt><trkpt lat="42.14809" lon="14.7079283"><ele>51.0</ele><time>2026-04-19T10:13:03.874Z</time></trkpt><trkpt lat="42.1480217" lon="14.7079617"><ele>51.0</ele><time>2026-04-19T10:13:04.874Z</time></trkpt><trkpt lat="42.1479533" lon="14.7079983"><ele>51.0</ele><time>2026-04-19T10:13:05.874Z</time></trkpt><trkpt lat="42.1478933" lon="14.7080333"><ele>51.0</ele><time>2026-04-19T10:13:06.874Z</time></trkpt><trkpt lat="42.1478283" lon="14.7080633"><ele>51.0</ele><time>2026-04-19T10:13:07.874Z</time></trkpt><trkpt lat="42.1477117" lon="14.7081117"><ele>51.0</ele><time>2026-04-19T10:13:09.874Z</time></trkpt><trkpt lat="42.1476033" lon="14.70815"><ele>51.0</ele><time>2026-04-19T10:13:11.873Z</time></trkpt><trkpt lat="42.147515" lon="14.7081767"><ele>51.0</ele><time>2026-04-19T10:13:13.874Z</time></trkpt><trkpt lat="42.1474267" lon="14.7081917"><ele>51.0</ele><time>2026-04-19T10:13:15.874Z</time></trkpt><trkpt lat="42.147345" lon="14.7082117"><ele>51.0</ele><time>2026-04-19T10:13:17.873Z</time></trkpt><trkpt lat="42.1472717" lon="14.7082267"><ele>51.0</ele><time>2026-04-19T10:13:19.874Z</time></trkpt><trkpt lat="42.1471817" lon="14.7082133"><ele>51.0</ele><time>2026-04-19T10:13:22.873Z</time></trkpt><trkpt lat="42.1471133" lon="14.7081867"><ele>51.0</ele><time>2026-04-19T10:13:24.874Z</time></trkpt><trkpt lat="42.1470433" lon="14.70814"><ele>52.166666666666664</ele><time>2026-04-19T10:13:26.874Z</time></trkpt><trkpt lat="42.1469883" lon="14.708085"><ele>53.33333333333333</ele><time>2026-04-19T10:13:28.874Z</time></trkpt><trkpt lat="42.1469533" lon="14.7080067"><ele>54.5</ele><time>2026-04-19T10:13:30.874Z</time></trkpt><trkpt lat="42.1469183" lon="14.707885"><ele>55.666666666666664</ele><time>2026-04-19T10:13:33.874Z</time></trkpt><trkpt lat="42.1468983" lon="14.7077933"><ele>56.83333333333333</ele><time>2026-04-19T10:13:35.874Z</time></trkpt><trkpt lat="42.1468517" lon="14.707695"><ele>58.0</ele><time>2026-04-19T10:13:37.873Z</time></trkpt><trkpt lat="42.14679" lon="14.7076117"><ele>58.166666666666664</ele><time>2026-04-19T10:13:39.874Z</time></trkpt><trkpt lat="42.14673" lon="14.7075367"><ele>58.33333333333333</ele><time>2026-04-19T10:13:41.873Z</time></trkpt><trkpt lat="42.1466567" lon="14.7074833"><ele>58.5</ele><time>2026-04-19T10:13:43.874Z</time></trkpt><trkpt lat="42.1465817" lon="14.7074433"><ele>58.66666666666667</ele><time>2026-04-19T10:13:45.874Z</time></trkpt><trkpt lat="42.1465183" lon="14.7073967"><ele>58.833333333333336</ele><time>2026-04-19T10:13:47.873Z</time></trkpt><trkpt lat="42.146445" lon="14.70735"><ele>59.0</ele><time>2026-04-19T10:13:49.874Z</time></trkpt><trkpt lat="42.1463767" lon="14.7072967"><ele>59.833333333333336</ele><time>2026-04-19T10:13:51.873Z</time></trkpt><trkpt lat="42.1463167" lon="14.707235"><ele>60.66666666666667</ele><time>2026-04-19T10:13:53.874Z</time></trkpt><trkpt lat="42.14626" lon="14.7071767"><ele>61.5</ele><time>2026-04-19T10:13:55.873Z</time></trkpt><trkpt lat="42.1462067" lon="14.707125"><ele>62.33333333333333</ele><time>2026-04-19T10:13:57.874Z</time></trkpt><trkpt lat="42.1461217" lon="14.7070383"><ele>63.166666666666664</ele><time>2026-04-19T10:14:00.921Z</time></trkpt><trkpt lat="42.1460283" lon="14.70701"><ele>64.0</ele><time>2026-04-19T10:14:03.377Z</time></trkpt><trkpt lat="42.145935" lon="14.7069517"><ele>63.99999999999999</ele><time>2026-04-19T10:14:05.877Z</time></trkpt><trkpt lat="42.1458733" lon="14.706915"><ele>64.0</ele><time>2026-04-19T10:14:07.877Z</time></trkpt><trkpt lat="42.14581" lon="14.706885"><ele>64.0</ele><time>2026-04-19T10:14:09.877Z</time></trkpt><trkpt lat="42.1457217" lon="14.70682"><ele>64.0</ele><time>2026-04-19T10:14:12.877Z</time></trkpt><trkpt lat="42.1456633" lon="14.7067683"><ele>63.99999999999999</ele><time>2026-04-19T10:14:14.876Z</time></trkpt><trkpt lat="42.1455883" lon="14.7067167"><ele>64.0</ele><time>2026-04-19T10:14:16.877Z</time></trkpt><trkpt lat="42.1455067" lon="14.7066567"><ele>64.60000000000001</ele><time>2026-04-19T10:14:18.877Z</time></trkpt><trkpt lat="42.145415" lon="14.7066"><ele>65.2</ele><time>2026-04-19T10:14:20.877Z</time></trkpt><trkpt lat="42.1453183" lon="14.70654"><ele>65.80000000000001</ele><time>2026-04-19T10:14:22.876Z</time></trkpt><trkpt lat="42.145225" lon="14.7064767"><ele>66.4</ele><time>2026-04-19T10:14:24.877Z</time></trkpt><trkpt lat="42.1451333" lon="14.7064167"><ele>67.0</ele><time>2026-04-19T10:14:26.877Z</time></trkpt><trkpt lat="42.14504" lon="14.7063583"><ele>67.0</ele><time>2026-04-19T10:14:28.876Z</time></trkpt><trkpt lat="42.144945" lon="14.7063017"><ele>67.0</ele><time>2026-04-19T10:14:30.876Z</time></trkpt><trkpt lat="42.1448583" lon="14.7062483"><ele>67.0</ele><time>2026-04-19T10:14:32.877Z</time></trkpt><trkpt lat="42.1447733" lon="14.7061933"><ele>67.0</ele><time>2026-04-19T10:14:34.877Z</time></trkpt><trkpt lat="42.1446917" lon="14.7061417"><ele>67.0</ele><time>2026-04-19T10:14:36.876Z</time></trkpt><trkpt lat="42.1446083" lon="14.7061"><ele>67.42857142857143</ele><time>2026-04-19T10:14:38.877Z</time></trkpt><trkpt lat="42.1445383" lon="14.70605"><ele>67.85714285714286</ele><time>2026-04-19T10:14:40.877Z</time></trkpt><trkpt lat="42.1444733" lon="14.70599"><ele>68.28571428571428</ele><time>2026-04-19T10:14:42.877Z</time></trkpt><trkpt lat="42.1444133" lon="14.7059417"><ele>68.71428571428572</ele><time>2026-04-19T10:14:44.877Z</time></trkpt><trkpt lat="42.1443533" lon="14.7059"><ele>69.14285714285714</ele><time>2026-04-19T10:14:46.877Z</time></trkpt><trkpt lat="42.1442833" lon="14.7058683"><ele>69.57142857142857</ele><time>2026-04-19T10:14:48.876Z</time></trkpt><trkpt lat="42.14422" lon="14.7058183"><ele>70.0</ele><time>2026-04-19T10:14:50.877Z</time></trkpt><trkpt lat="42.1441433" lon="14.7057767"><ele>70.0</ele><time>2026-04-19T10:14:52.877Z</time></trkpt><trkpt lat="42.1440617" lon="14.7057333"><ele>70.0</ele><time>2026-04-19T10:14:54.877Z</time></trkpt><trkpt lat="42.14399" lon="14.7056917"><ele>70.0</ele><time>2026-04-19T10:14:56.877Z</time></trkpt><trkpt lat="42.1439233" lon="14.70564"><ele>70.0</ele><time>2026-04-19T10:14:58.877Z</time></trkpt><trkpt lat="42.14386" lon="14.7055883"><ele>70.0</ele><time>2026-04-19T10:15:00.877Z</time></trkpt><trkpt lat="42.143785" lon="14.70554"><ele>70.0</ele><time>2026-04-19T10:15:02.876Z</time></trkpt><trkpt lat="42.1437067" lon="14.70549"><ele>70.83333333333333</ele><time>2026-04-19T10:15:04.877Z</time></trkpt><trkpt lat="42.1436267" lon="14.70544"><ele>71.66666666666666</ele><time>2026-04-19T10:15:06.877Z</time></trkpt><trkpt lat="42.1435483" lon="14.705385"><ele>72.5</ele><time>2026-04-19T10:15:08.877Z</time></trkpt><trkpt lat="42.14346" lon="14.7053283"><ele>73.33333333333333</ele><time>2026-04-19T10:15:10.877Z</time></trkpt><trkpt lat="42.14338" lon="14.7052833"><ele>74.16666666666667</ele><time>2026-04-19T10:15:12.876Z</time></trkpt><trkpt lat="42.1433033" lon="14.7052417"><ele>75.0</ele><time>2026-04-19T10:15:14.877Z</time></trkpt><trkpt lat="42.1432267" lon="14.7052033"><ele>76.2</ele><time>2026-04-19T10:15:16.876Z</time></trkpt><trkpt lat="42.1431367" lon="14.7051817"><ele>77.4</ele><time>2026-04-19T10:15:18.876Z</time></trkpt><trkpt lat="42.1430267" lon="14.7051667"><ele>78.6</ele><time>2026-04-19T10:15:20.876Z</time></trkpt><trkpt lat="42.1429117" lon="14.7051533"><ele>79.8</ele><time>2026-04-19T10:15:22.876Z</time></trkpt><trkpt lat="42.1427967" lon="14.70514"><ele>81.0</ele><time>2026-04-19T10:15:24.876Z</time></trkpt><trkpt lat="42.1427333" lon="14.70513"><ele>81.0</ele><time>2026-04-19T10:15:25.877Z</time></trkpt><trkpt lat="42.14261" lon="14.70511"><ele>81.0</ele><time>2026-04-19T10:15:27.877Z</time></trkpt><trkpt lat="42.1425433" lon="14.7051"><ele>81.0</ele><time>2026-04-19T10:15:28.877Z</time></trkpt><trkpt lat="42.142475" lon="14.7050867"><ele>81.0</ele><time>2026-04-19T10:15:29.877Z</time></trkpt><trkpt lat="42.1424083" lon="14.7050767"><ele>81.0</ele><time>2026-04-19T10:15:30.876Z</time></trkpt><trkpt lat="42.1423383" lon="14.705055"><ele>81.0</ele><time>2026-04-19T10:15:31.877Z</time></trkpt><trkpt lat="42.1422417" lon="14.705025"><ele>81.83333333333333</ele><time>2026-04-19T10:15:32.877Z</time></trkpt><trkpt lat="42.1421617" lon="14.7050117"><ele>82.66666666666667</ele><time>2026-04-19T10:15:33.877Z</time></trkpt><trkpt lat="42.1420833" lon="14.70499"><ele>83.5</ele><time>2026-04-19T10:15:34.876Z</time></trkpt><trkpt lat="42.1419983" lon="14.704975"><ele>84.33333333333334</ele><time>2026-04-19T10:15:35.877Z</time></trkpt><trkpt lat="42.1419133" lon="14.704965"><ele>85.16666666666667</ele><time>2026-04-19T10:15:36.877Z</time></trkpt><trkpt lat="42.1418367" lon="14.7049517"><ele>86.0</ele><time>2026-04-19T10:15:37.877Z</time></trkpt><trkpt lat="42.1417633" lon="14.7049317"><ele>86.00000000000001</ele><time>2026-04-19T10:15:38.876Z</time></trkpt><trkpt lat="42.1416883" lon="14.7049133"><ele>86.0</ele><time>2026-04-19T10:15:39.876Z</time></trkpt><trkpt lat="42.1416233" lon="14.7049017"><ele>86.0</ele><time>2026-04-19T10:15:40.877Z</time></trkpt><trkpt lat="42.141555" lon="14.704895"><ele>86.0</ele><time>2026-04-19T10:15:41.876Z</time></trkpt><trkpt lat="42.141485" lon="14.70489"><ele>86.0</ele><time>2026-04-19T10:15:42.877Z</time></trkpt><trkpt lat="42.1414133" lon="14.704885"><ele>86.00000000000001</ele><time>2026-04-19T10:15:43.876Z</time></trkpt><trkpt lat="42.1413467" lon="14.7048783"><ele>86.0</ele><time>2026-04-19T10:15:44.877Z</time></trkpt><trkpt lat="42.14128" lon="14.70488"><ele>86.42857142857143</ele><time>2026-04-19T10:15:45.876Z</time></trkpt><trkpt lat="42.141215" lon="14.7048833"><ele>86.85714285714286</ele><time>2026-04-19T10:15:46.877Z</time></trkpt><trkpt lat="42.1411467" lon="14.7048817"><ele>87.28571428571428</ele><time>2026-04-19T10:15:47.877Z</time></trkpt><trkpt lat="42.1410667" lon="14.7048833"><ele>87.71428571428572</ele><time>2026-04-19T10:15:48.876Z</time></trkpt><trkpt lat="42.14099" lon="14.7048883"><ele>88.14285714285714</ele><time>2026-04-19T10:15:49.877Z</time></trkpt><trkpt lat="42.1409117" lon="14.7048883"><ele>88.57142857142857</ele><time>2026-04-19T10:15:50.876Z</time></trkpt><trkpt lat="42.140835" lon="14.7048867"><ele>89.0</ele><time>2026-04-19T10:15:51.877Z</time></trkpt><trkpt lat="42.1407567" lon="14.70489"><ele>89.0</ele><time>2026-04-19T10:15:52.876Z</time></trkpt><trkpt lat="42.1406783" lon="14.7048967"><ele>89.0</ele><time>2026-04-19T10:15:53.877Z</time></trkpt><trkpt lat="42.1405933" lon="14.704905"><ele>89.0</ele><time>2026-04-19T10:15:54.876Z</time></trkpt><trkpt lat="42.140515" lon="14.70491"><ele>89.0</ele><time>2026-04-19T10:15:55.877Z</time></trkpt><trkpt lat="42.140435" lon="14.7049167"><ele>89.0</ele><time>2026-04-19T10:15:56.877Z</time></trkpt><trkpt lat="42.1403567" lon="14.704925"><ele>89.0</ele><time>2026-04-19T10:15:57.877Z</time></trkpt><trkpt lat="42.1402817" lon="14.7049317"><ele>88.99999999999999</ele><time>2026-04-19T10:15:58.877Z</time></trkpt><trkpt lat="42.1402033" lon="14.7049467"><ele>89.0</ele><time>2026-04-19T10:15:59.876Z</time></trkpt><trkpt lat="42.1401183" lon="14.7049733"><ele>89.0</ele><time>2026-04-19T10:16:00.877Z</time></trkpt><trkpt lat="42.140045" lon="14.705"><ele>89.0</ele><time>2026-04-19T10:16:01.876Z</time></trkpt><trkpt lat="42.1399783" lon="14.705025"><ele>89.0</ele><time>2026-04-19T10:16:02.876Z</time></trkpt><trkpt lat="42.1399133" lon="14.7050483"><ele>88.99999999999999</ele><time>2026-04-19T10:16:03.877Z</time></trkpt><trkpt lat="42.1398483" lon="14.7050783"><ele>89.0</ele><time>2026-04-19T10:16:04.876Z</time></trkpt><trkpt lat="42.1397817" lon="14.7051167"><ele>88.6</ele><time>2026-04-19T10:16:05.877Z</time></trkpt><trkpt lat="42.1397133" lon="14.7051567"><ele>88.2</ele><time>2026-04-19T10:16:06.876Z</time></trkpt><trkpt lat="42.1395983" lon="14.705245"><ele>87.8</ele><time>2026-04-19T10:16:08.877Z</time></trkpt><trkpt lat="42.13955" lon="14.7053667"><ele>87.39999999999999</ele><time>2026-04-19T10:16:10.877Z</time></trkpt><trkpt lat="42.139595" lon="14.7055083"><ele>87.0</ele><time>2026-04-19T10:16:12.877Z</time></trkpt><trkpt lat="42.13963" lon="14.7055883"><ele>87.85714285714286</ele><time>2026-04-19T10:16:13.876Z</time></trkpt><trkpt lat="42.1396633" lon="14.7056783"><ele>88.71428571428572</ele><time>2026-04-19T10:16:14.877Z</time></trkpt><trkpt lat="42.1396917" lon="14.705775"><ele>89.57142857142858</ele><time>2026-04-19T10:16:15.877Z</time></trkpt><trkpt lat="42.1397267" lon="14.7058633"><ele>90.42857142857143</ele><time>2026-04-19T10:16:16.877Z</time></trkpt><trkpt lat="42.139755" lon="14.7059533"><ele>91.28571428571429</ele><time>2026-04-19T10:16:17.876Z</time></trkpt><trkpt lat="42.139785" lon="14.7060417"><ele>92.14285714285715</ele><time>2026-04-19T10:16:18.876Z</time></trkpt><trkpt lat="42.139815" lon="14.70613"><ele>93.0</ele><time>2026-04-19T10:16:19.876Z</time></trkpt><trkpt lat="42.1398517" lon="14.7062183"><ele>92.33333333333333</ele><time>2026-04-19T10:16:20.877Z</time></trkpt><trkpt lat="42.1398933" lon="14.7063117"><ele>91.66666666666667</ele><time>2026-04-19T10:16:21.877Z</time></trkpt><trkpt lat="42.1399267" lon="14.706415"><ele>91.0</ele><time>2026-04-19T10:16:22.877Z</time></trkpt><trkpt lat="42.1399633" lon="14.706515"><ele>90.33333333333334</ele><time>2026-04-19T10:16:23.877Z</time></trkpt><trkpt lat="42.1399983" lon="14.7066133"><ele>89.66666666666667</ele><time>2026-04-19T10:16:24.876Z</time></trkpt><trkpt lat="42.1400367" lon="14.7067083"><ele>89.0</ele><time>2026-04-19T10:16:25.877Z</time></trkpt><trkpt lat="42.1400783" lon="14.7068067"><ele>89.0</ele><time>2026-04-19T10:16:26.876Z</time></trkpt><trkpt lat="42.1401133" lon="14.706905"><ele>89.0</ele><time>2026-04-19T10:16:27.876Z</time></trkpt><trkpt lat="42.14015" lon="14.706995"><ele>89.0</ele><time>2026-04-19T10:16:28.877Z</time></trkpt><trkpt lat="42.1401833" lon="14.7071067"><ele>89.0</ele><time>2026-04-19T10:16:29.876Z</time></trkpt><trkpt lat="42.14022" lon="14.707215"><ele>89.0</ele><time>2026-04-19T10:16:30.877Z</time></trkpt><trkpt lat="42.14026" lon="14.70732"><ele>89.0</ele><time>2026-04-19T10:16:31.876Z</time></trkpt><trkpt lat="42.1403083" lon="14.7074333"><ele>88.33333333333334</ele><time>2026-04-19T10:16:32.876Z</time></trkpt><trkpt lat="42.14033" lon="14.7075433"><ele>87.66666666666667</ele><time>2026-04-19T10:16:33.877Z</time></trkpt><trkpt lat="42.1403567" lon="14.7076433"><ele>87.0</ele><time>2026-04-19T10:16:34.877Z</time></trkpt><trkpt lat="42.14037" lon="14.7077417"><ele>86.33333333333333</ele><time>2026-04-19T10:16:35.876Z</time></trkpt><trkpt lat="42.14036" lon="14.707885"><ele>85.66666666666666</ele><time>2026-04-19T10:16:37.877Z</time></trkpt><trkpt lat="42.1402767" lon="14.7079667"><ele>85.0</ele><time>2026-04-19T10:16:39.876Z</time></trkpt><trkpt lat="42.1401683" lon="14.70802"><ele>85.28571428571429</ele><time>2026-04-19T10:16:41.876Z</time></trkpt><trkpt lat="42.140045" lon="14.7080517"><ele>85.57142857142857</ele><time>2026-04-19T10:16:43.877Z</time></trkpt><trkpt lat="42.1399817" lon="14.70808"><ele>85.85714285714286</ele><time>2026-04-19T10:16:44.877Z</time></trkpt><trkpt lat="42.13992" lon="14.7081083"><ele>86.14285714285714</ele><time>2026-04-19T10:16:45.877Z</time></trkpt><trkpt lat="42.13986" lon="14.7081433"><ele>86.42857142857143</ele><time>2026-04-19T10:16:46.877Z</time></trkpt><trkpt lat="42.1398" lon="14.70817"><ele>86.71428571428571</ele><time>2026-04-19T10:16:47.876Z</time></trkpt><trkpt lat="42.13974" lon="14.7081983"><ele>87.0</ele><time>2026-04-19T10:16:48.877Z</time></trkpt><trkpt lat="42.1396767" lon="14.7082283"><ele>87.0</ele><time>2026-04-19T10:16:49.877Z</time></trkpt><trkpt lat="42.1396133" lon="14.7082583"><ele>87.0</ele><time>2026-04-19T10:16:50.877Z</time></trkpt><trkpt lat="42.1395483" lon="14.708285"><ele>87.0</ele><time>2026-04-19T10:16:51.877Z</time></trkpt><trkpt lat="42.139485" lon="14.7083117"><ele>87.0</ele><time>2026-04-19T10:16:52.877Z</time></trkpt><trkpt lat="42.1394233" lon="14.7083433"><ele>87.0</ele><time>2026-04-19T10:16:53.877Z</time></trkpt><trkpt lat="42.13936" lon="14.7083767"><ele>87.0</ele><time>2026-04-19T10:16:54.877Z</time></trkpt><trkpt lat="42.1393" lon="14.708405"><ele>87.0</ele><time>2026-04-19T10:16:55.877Z</time></trkpt><trkpt lat="42.1392367" lon="14.7084283"><ele>87.0</ele><time>2026-04-19T10:16:56.877Z</time></trkpt><trkpt lat="42.13912" lon="14.7084833"><ele>87.0</ele><time>2026-04-19T10:16:58.877Z</time></trkpt><trkpt lat="42.1390017" lon="14.7085383"><ele>87.0</ele><time>2026-04-19T10:17:00.876Z</time></trkpt><trkpt lat="42.138885" lon="14.7085867"><ele>87.0</ele><time>2026-04-19T10:17:02.876Z</time></trkpt><trkpt lat="42.1387767" lon="14.7086383"><ele>86.25</ele><time>2026-04-19T10:17:04.876Z</time></trkpt><trkpt lat="42.1386633" lon="14.708685"><ele>85.5</ele><time>2026-04-19T10:17:06.876Z</time></trkpt><trkpt lat="42.13855" lon="14.7087267"><ele>84.75</ele><time>2026-04-19T10:17:08.876Z</time></trkpt><trkpt lat="42.1384367" lon="14.7087767"><ele>84.0</ele><time>2026-04-19T10:17:10.875Z</time></trkpt><trkpt lat="42.13833" lon="14.7088233"><ele>84.0</ele><time>2026-04-19T10:17:12.876Z</time></trkpt><trkpt lat="42.1382267" lon="14.7088717"><ele>84.0</ele><time>2026-04-19T10:17:14.876Z</time></trkpt><trkpt lat="42.13813" lon="14.7089067"><ele>84.0</ele><time>2026-04-19T10:17:16.876Z</time></trkpt><trkpt lat="42.1380483" lon="14.708925"><ele>84.0</ele><time>2026-04-19T10:17:18.876Z</time></trkpt><trkpt lat="42.1379717" lon="14.7089667"><ele>84.0</ele><time>2026-04-19T10:17:20.875Z</time></trkpt><trkpt lat="42.1379083" lon="14.70896"><ele>84.0</ele><time>2026-04-19T10:17:24.875Z</time></trkpt><trkpt lat="42.1378067" lon="14.7089633"><ele>84.0</ele><time>2026-04-19T10:18:30.166Z</time></trkpt><trkpt lat="42.13789" lon="14.7089417"><ele>84.0</ele><time>2026-04-19T10:18:43.877Z</time></trkpt><trkpt lat="42.1378467" lon="14.709005"><ele>84.0</ele><time>2026-04-19T10:18:58.877Z</time></trkpt><trkpt lat="42.1377983" lon="14.7090633"><ele>84.0</ele><time>2026-04-19T10:19:00.877Z</time></trkpt><trkpt lat="42.1377433" lon="14.709145"><ele>84.0</ele><time>2026-04-19T10:19:02.877Z</time></trkpt><trkpt lat="42.1376883" lon="14.7092583"><ele>84.0</ele><time>2026-04-19T10:19:04.876Z</time></trkpt><trkpt lat="42.1376717" lon="14.70941"><ele>84.0</ele><time>2026-04-19T10:19:06.877Z</time></trkpt><trkpt lat="42.13768" lon="14.7095"><ele>84.0</ele><time>2026-04-19T10:19:07.876Z</time></trkpt><trkpt lat="42.1376967" lon="14.709595"><ele>84.0</ele><time>2026-04-19T10:19:08.877Z</time></trkpt><trkpt lat="42.13772" lon="14.7097083"><ele>84.0</ele><time>2026-04-19T10:19:09.877Z</time></trkpt><trkpt lat="42.1377483" lon="14.709815"><ele>84.0</ele><time>2026-04-19T10:19:10.877Z</time></trkpt><trkpt lat="42.137775" lon="14.70992"><ele>84.0</ele><time>2026-04-19T10:19:11.877Z</time></trkpt><trkpt lat="42.1378067" lon="14.7100233"><ele>84.0</ele><time>2026-04-19T10:19:12.877Z</time></trkpt><trkpt lat="42.1378367" lon="14.7101233"><ele>84.0</ele><time>2026-04-19T10:19:13.876Z</time></trkpt><trkpt lat="42.1378717" lon="14.71022"><ele>84.0</ele><time>2026-04-19T10:19:14.877Z</time></trkpt><trkpt lat="42.1379033" lon="14.7103183"><ele>84.0</ele><time>2026-04-19T10:19:15.877Z</time></trkpt><trkpt lat="42.13794" lon="14.7104133"><ele>84.0</ele><time>2026-04-19T10:19:16.877Z</time></trkpt><trkpt lat="42.1379767" lon="14.7105133"><ele>84.0</ele><time>2026-04-19T10:19:17.877Z</time></trkpt><trkpt lat="42.1380133" lon="14.7106017"><ele>83.33333333333333</ele><time>2026-04-19T10:19:18.877Z</time></trkpt><trkpt lat="42.1380517" lon="14.7106817"><ele>82.66666666666667</ele><time>2026-04-19T10:19:19.877Z</time></trkpt><trkpt lat="42.1380933" lon="14.7107567"><ele>82.0</ele><time>2026-04-19T10:19:20.876Z</time></trkpt><trkpt lat="42.13813" lon="14.7108267"><ele>81.33333333333334</ele><time>2026-04-19T10:19:21.877Z</time></trkpt><trkpt lat="42.1381917" lon="14.710905"><ele>80.66666666666667</ele><time>2026-04-19T10:19:23.876Z</time></trkpt><trkpt lat="42.1382533" lon="14.710975"><ele>80.0</ele><time>2026-04-19T10:19:26.876Z</time></trkpt><trkpt lat="42.1383317" lon="14.7110183"><ele>79.66666666666667</ele><time>2026-04-19T10:19:28.876Z</time></trkpt><trkpt lat="42.1384417" lon="14.71104"><ele>79.33333333333334</ele><time>2026-04-19T10:19:30.876Z</time></trkpt><trkpt lat="42.138505" lon="14.71104"><ele>79.0</ele><time>2026-04-19T10:19:31.876Z</time></trkpt><trkpt lat="42.1385717" lon="14.7110367"><ele>78.66666666666667</ele><time>2026-04-19T10:19:32.877Z</time></trkpt><trkpt lat="42.1386433" lon="14.7110367"><ele>78.33333333333333</ele><time>2026-04-19T10:19:33.877Z</time></trkpt><trkpt lat="42.138715" lon="14.7110367"><ele>78.0</ele><time>2026-04-19T10:19:34.877Z</time></trkpt><trkpt lat="42.138785" lon="14.7110383"><ele>78.0</ele><time>2026-04-19T10:19:35.877Z</time></trkpt><trkpt lat="42.1388617" lon="14.7110367"><ele>78.0</ele><time>2026-04-19T10:19:36.876Z</time></trkpt><trkpt lat="42.1389383" lon="14.7110333"><ele>78.0</ele><time>2026-04-19T10:19:37.877Z</time></trkpt><trkpt lat="42.13902" lon="14.7110333"><ele>78.0</ele><time>2026-04-19T10:19:38.876Z</time></trkpt><trkpt lat="42.1390967" lon="14.7110317"><ele>78.0</ele><time>2026-04-19T10:19:39.876Z</time></trkpt><trkpt lat="42.139175" lon="14.7110267"><ele>78.0</ele><time>2026-04-19T10:19:40.876Z</time></trkpt><trkpt lat="42.1392517" lon="14.7110233"><ele>77.5</ele><time>2026-04-19T10:19:41.876Z</time></trkpt><trkpt lat="42.1393317" lon="14.711025"><ele>77.0</ele><time>2026-04-19T10:19:42.877Z</time></trkpt><trkpt lat="42.1394117" lon="14.7110283"><ele>76.5</ele><time>2026-04-19T10:19:43.876Z</time></trkpt><trkpt lat="42.1394933" lon="14.7110233"><ele>76.0</ele><time>2026-04-19T10:19:44.876Z</time></trkpt><trkpt lat="42.1395733" lon="14.7110183"><ele>75.5</ele><time>2026-04-19T10:19:45.877Z</time></trkpt><trkpt lat="42.139655" lon="14.7110167"><ele>75.0</ele><time>2026-04-19T10:19:46.876Z</time></trkpt><trkpt lat="42.139735" lon="14.7110083"><ele>75.0</ele><time>2026-04-19T10:19:47.877Z</time></trkpt><trkpt lat="42.1398167" lon="14.7110083"><ele>75.0</ele><time>2026-04-19T10:19:48.877Z</time></trkpt><trkpt lat="42.1399" lon="14.71101"><ele>75.0</ele><time>2026-04-19T10:19:49.877Z</time></trkpt><trkpt lat="42.1399817" lon="14.7110133"><ele>75.0</ele><time>2026-04-19T10:19:50.877Z</time></trkpt><trkpt lat="42.1400633" lon="14.7110117"><ele>75.0</ele><time>2026-04-19T10:19:51.877Z</time></trkpt><trkpt lat="42.1401467" lon="14.7110067"><ele>75.0</ele><time>2026-04-19T10:19:52.877Z</time></trkpt><trkpt lat="42.14023" lon="14.7110033"><ele>74.33333333333333</ele><time>2026-04-19T10:19:53.877Z</time></trkpt><trkpt lat="42.14032" lon="14.7109983"><ele>73.66666666666667</ele><time>2026-04-19T10:19:54.877Z</time></trkpt><trkpt lat="42.14041" lon="14.7109983"><ele>73.0</ele><time>2026-04-19T10:19:55.876Z</time></trkpt><trkpt lat="42.140495" lon="14.7109933"><ele>72.33333333333334</ele><time>2026-04-19T10:19:56.877Z</time></trkpt><trkpt lat="42.1405817" lon="14.7109883"><ele>71.66666666666667</ele><time>2026-04-19T10:19:57.877Z</time></trkpt><trkpt lat="42.14067" lon="14.7109833"><ele>71.0</ele><time>2026-04-19T10:19:58.876Z</time></trkpt><trkpt lat="42.1407617" lon="14.7109833"><ele>70.6</ele><time>2026-04-19T10:19:59.877Z</time></trkpt><trkpt lat="42.1408517" lon="14.7109767"><ele>70.19999999999999</ele><time>2026-04-19T10:20:00.877Z</time></trkpt><trkpt lat="42.1409433" lon="14.7109783"><ele>69.80000000000001</ele><time>2026-04-19T10:20:01.877Z</time></trkpt><trkpt lat="42.1410333" lon="14.71098"><ele>69.4</ele><time>2026-04-19T10:20:02.877Z</time></trkpt><trkpt lat="42.1411217" lon="14.7109733"><ele>69.0</ele><time>2026-04-19T10:20:03.877Z</time></trkpt><trkpt lat="42.1412117" lon="14.710975"><ele>69.0</ele><time>2026-04-19T10:20:04.876Z</time></trkpt><trkpt lat="42.1412967" lon="14.7109683"><ele>69.0</ele><time>2026-04-19T10:20:05.876Z</time></trkpt><trkpt lat="42.1413833" lon="14.7109617"><ele>69.0</ele><time>2026-04-19T10:20:06.877Z</time></trkpt><trkpt lat="42.1414717" lon="14.7109617"><ele>69.0</ele><time>2026-04-19T10:20:07.877Z</time></trkpt><trkpt lat="42.1415583" lon="14.7109633"><ele>69.0</ele><time>2026-04-19T10:20:08.876Z</time></trkpt><trkpt lat="42.14165" lon="14.710965"><ele>69.0</ele><time>2026-04-19T10:20:09.877Z</time></trkpt><trkpt lat="42.1417367" lon="14.7109667"><ele>68.66666666666667</ele><time>2026-04-19T10:20:10.877Z</time></trkpt><trkpt lat="42.14182" lon="14.7109617"><ele>68.33333333333333</ele><time>2026-04-19T10:20:11.877Z</time></trkpt><trkpt lat="42.141905" lon="14.7109617"><ele>68.0</ele><time>2026-04-19T10:20:12.877Z</time></trkpt><trkpt lat="42.141995" lon="14.7109633"><ele>67.66666666666666</ele><time>2026-04-19T10:20:13.877Z</time></trkpt><trkpt lat="42.142085" lon="14.7109617"><ele>67.33333333333333</ele><time>2026-04-19T10:20:14.876Z</time></trkpt><trkpt lat="42.1421733" lon="14.7109667"><ele>67.0</ele><time>2026-04-19T10:20:15.877Z</time></trkpt><trkpt lat="42.1422583" lon="14.7109733"><ele>67.0</ele><time>2026-04-19T10:20:16.876Z</time></trkpt><trkpt lat="42.14235" lon="14.7109833"><ele>67.0</ele><time>2026-04-19T10:20:17.877Z</time></trkpt><trkpt lat="42.1424383" lon="14.7109917"><ele>67.0</ele><time>2026-04-19T10:20:18.876Z</time></trkpt><trkpt lat="42.142525" lon="14.71101"><ele>67.0</ele><time>2026-04-19T10:20:19.876Z</time></trkpt><trkpt lat="42.142605" lon="14.7110283"><ele>67.0</ele><time>2026-04-19T10:20:20.877Z</time></trkpt><trkpt lat="42.1426883" lon="14.711055"><ele>67.0</ele><time>2026-04-19T10:20:21.877Z</time></trkpt><trkpt lat="42.1427683" lon="14.7110833"><ele>66.16666666666666</ele><time>2026-04-19T10:20:22.876Z</time></trkpt><trkpt lat="42.142845" lon="14.71111"><ele>65.33333333333333</ele><time>2026-04-19T10:20:23.877Z</time></trkpt><trkpt lat="42.14292" lon="14.71114"><ele>64.5</ele><time>2026-04-19T10:20:24.876Z</time></trkpt><trkpt lat="42.142995" lon="14.7111733"><ele>63.66666666666667</ele><time>2026-04-19T10:20:25.877Z</time></trkpt><trkpt lat="42.1430767" lon="14.7112117"><ele>62.833333333333336</ele><time>2026-04-19T10:20:26.877Z</time></trkpt><trkpt lat="42.1431583" lon="14.7112433"><ele>62.0</ele><time>2026-04-19T10:20:27.877Z</time></trkpt><trkpt lat="42.1432467" lon="14.71128"><ele>61.66666666666667</ele><time>2026-04-19T10:20:28.877Z</time></trkpt><trkpt lat="42.14333" lon="14.7113167"><ele>61.333333333333336</ele><time>2026-04-19T10:20:29.876Z</time></trkpt><trkpt lat="42.1434083" lon="14.7113483"><ele>61.0</ele><time>2026-04-19T10:20:30.877Z</time></trkpt><trkpt lat="42.14349" lon="14.7113833"><ele>60.66666666666667</ele><time>2026-04-19T10:20:31.876Z</time></trkpt><trkpt lat="42.14357" lon="14.7114217"><ele>60.333333333333336</ele><time>2026-04-19T10:20:32.877Z</time></trkpt><trkpt lat="42.1436533" lon="14.711455"><ele>60.0</ele><time>2026-04-19T10:20:33.876Z</time></trkpt><trkpt lat="42.143735" lon="14.7114883"><ele>60.0</ele><time>2026-04-19T10:20:34.877Z</time></trkpt><trkpt lat="42.143815" lon="14.7115283"><ele>60.0</ele><time>2026-04-19T10:20:35.876Z</time></trkpt><trkpt lat="42.143895" lon="14.7115717"><ele>60.0</ele><time>2026-04-19T10:20:36.877Z</time></trkpt><trkpt lat="42.14398" lon="14.711615"><ele>60.0</ele><time>2026-04-19T10:20:37.877Z</time></trkpt><trkpt lat="42.144065" lon="14.7116567"><ele>60.0</ele><time>2026-04-19T10:20:38.877Z</time></trkpt><trkpt lat="42.1441467" lon="14.7116967"><ele>60.0</ele><time>2026-04-19T10:20:39.876Z</time></trkpt><trkpt lat="42.1442267" lon="14.7117367"><ele>59.666666666666664</ele><time>2026-04-19T10:20:40.876Z</time></trkpt><trkpt lat="42.14431" lon="14.7117733"><ele>59.33333333333333</ele><time>2026-04-19T10:20:41.876Z</time></trkpt><trkpt lat="42.1443917" lon="14.711815"><ele>59.0</ele><time>2026-04-19T10:20:42.876Z</time></trkpt><trkpt lat="42.1444733" lon="14.711855"><ele>58.666666666666664</ele><time>2026-04-19T10:20:43.877Z</time></trkpt><trkpt lat="42.1445533" lon="14.711895"><ele>58.33333333333333</ele><time>2026-04-19T10:20:44.876Z</time></trkpt><trkpt lat="42.14464" lon="14.71193"><ele>58.0</ele><time>2026-04-19T10:20:45.877Z</time></trkpt><trkpt lat="42.14472" lon="14.711965"><ele>57.666666666666664</ele><time>2026-04-19T10:20:46.877Z</time></trkpt><trkpt lat="42.1447983" lon="14.7120017"><ele>57.33333333333333</ele><time>2026-04-19T10:20:47.877Z</time></trkpt><trkpt lat="42.1448733" lon="14.7120383"><ele>57.0</ele><time>2026-04-19T10:20:48.877Z</time></trkpt><trkpt lat="42.14495" lon="14.7120717"><ele>56.66666666666667</ele><time>2026-04-19T10:20:49.877Z</time></trkpt><trkpt lat="42.1450267" lon="14.7121117"><ele>56.333333333333336</ele><time>2026-04-19T10:20:50.877Z</time></trkpt><trkpt lat="42.1451" lon="14.7121467"><ele>56.0</ele><time>2026-04-19T10:20:51.876Z</time></trkpt><trkpt lat="42.1451717" lon="14.712185"><ele>55.66666666666667</ele><time>2026-04-19T10:20:52.877Z</time></trkpt><trkpt lat="42.145245" lon="14.7122183"><ele>55.333333333333336</ele><time>2026-04-19T10:20:53.876Z</time></trkpt><trkpt lat="42.1453183" lon="14.7122533"><ele>55.0</ele><time>2026-04-19T10:20:54.877Z</time></trkpt><trkpt lat="42.145395" lon="14.7122833"><ele>54.66666666666667</ele><time>2026-04-19T10:20:55.876Z</time></trkpt><trkpt lat="42.1454667" lon="14.7123133"><ele>54.333333333333336</ele><time>2026-04-19T10:20:56.877Z</time></trkpt><trkpt lat="42.145535" lon="14.7123467"><ele>54.0</ele><time>2026-04-19T10:20:57.876Z</time></trkpt><trkpt lat="42.1456117" lon="14.71238"><ele>54.0</ele><time>2026-04-19T10:20:58.877Z</time></trkpt><trkpt lat="42.14569" lon="14.7124217"><ele>54.0</ele><time>2026-04-19T10:20:59.876Z</time></trkpt><trkpt lat="42.1457633" lon="14.712455"><ele>54.0</ele><time>2026-04-19T10:21:00.876Z</time></trkpt><trkpt lat="42.14584" lon="14.71249"><ele>54.0</ele><time>2026-04-19T10:21:01.877Z</time></trkpt><trkpt lat="42.1459217" lon="14.7125283"><ele>54.0</ele><time>2026-04-19T10:21:02.877Z</time></trkpt><trkpt lat="42.1459967" lon="14.7125717"><ele>54.0</ele><time>2026-04-19T10:21:03.877Z</time></trkpt><trkpt lat="42.14607" lon="14.7126033"><ele>54.0</ele><time>2026-04-19T10:21:04.876Z</time></trkpt><trkpt lat="42.1461433" lon="14.712635"><ele>54.0</ele><time>2026-04-19T10:21:05.876Z</time></trkpt><trkpt lat="42.1462217" lon="14.7126667"><ele>54.0</ele><time>2026-04-19T10:21:06.876Z</time></trkpt><trkpt lat="42.146295" lon="14.7127017"><ele>54.0</ele><time>2026-04-19T10:21:07.876Z</time></trkpt><trkpt lat="42.1463717" lon="14.7127383"><ele>54.0</ele><time>2026-04-19T10:21:08.877Z</time></trkpt><trkpt lat="42.146455" lon="14.712775"><ele>54.0</ele><time>2026-04-19T10:21:09.876Z</time></trkpt><trkpt lat="42.1465333" lon="14.71281"><ele>53.166666666666664</ele><time>2026-04-19T10:21:10.877Z</time></trkpt><trkpt lat="42.1466083" lon="14.7128433"><ele>52.33333333333333</ele><time>2026-04-19T10:21:11.877Z</time></trkpt><trkpt lat="42.1466817" lon="14.7128817"><ele>51.5</ele><time>2026-04-19T10:21:12.876Z</time></trkpt><trkpt lat="42.1467583" lon="14.71292"><ele>50.666666666666664</ele><time>2026-04-19T10:21:13.877Z</time></trkpt><trkpt lat="42.146835" lon="14.7129567"><ele>49.83333333333333</ele><time>2026-04-19T10:21:14.877Z</time></trkpt><trkpt lat="42.14691" lon="14.7129917"><ele>49.0</ele><time>2026-04-19T10:21:15.876Z</time></trkpt><trkpt lat="42.1469817" lon="14.7130267"><ele>48.99999999999999</ele><time>2026-04-19T10:21:16.877Z</time></trkpt><trkpt lat="42.1470617" lon="14.7130617"><ele>49.0</ele><time>2026-04-19T10:21:17.877Z</time></trkpt><trkpt lat="42.147145" lon="14.7130867"><ele>49.0</ele><time>2026-04-19T10:21:18.877Z</time></trkpt><trkpt lat="42.14722" lon="14.71312"><ele>49.0</ele><time>2026-04-19T10:21:19.877Z</time></trkpt><trkpt lat="42.147295" lon="14.7131567"><ele>48.99999999999999</ele><time>2026-04-19T10:21:20.877Z</time></trkpt><trkpt lat="42.147365" lon="14.7131933"><ele>49.0</ele><time>2026-04-19T10:21:21.877Z</time></trkpt><trkpt lat="42.1474367" lon="14.7132283"><ele>48.666666666666664</ele><time>2026-04-19T10:21:22.877Z</time></trkpt><trkpt lat="42.147515" lon="14.7132667"><ele>48.33333333333333</ele><time>2026-04-19T10:21:23.877Z</time></trkpt><trkpt lat="42.1475883" lon="14.7133017"><ele>48.0</ele><time>2026-04-19T10:21:24.877Z</time></trkpt><trkpt lat="42.1476633" lon="14.7133317"><ele>47.666666666666664</ele><time>2026-04-19T10:21:25.876Z</time></trkpt><trkpt lat="42.14774" lon="14.7133717"><ele>47.33333333333333</ele><time>2026-04-19T10:21:26.877Z</time></trkpt><trkpt lat="42.14782" lon="14.713405"><ele>47.0</ele><time>2026-04-19T10:21:27.877Z</time></trkpt><trkpt lat="42.1479" lon="14.7134367"><ele>47.0</ele><time>2026-04-19T10:21:28.876Z</time></trkpt><trkpt lat="42.147975" lon="14.7134633"><ele>47.0</ele><time>2026-04-19T10:21:29.876Z</time></trkpt><trkpt lat="42.1480467" lon="14.7135017"><ele>47.0</ele><time>2026-04-19T10:21:30.876Z</time></trkpt><trkpt lat="42.148115" lon="14.713535"><ele>47.0</ele><time>2026-04-19T10:21:31.877Z</time></trkpt><trkpt lat="42.14818" lon="14.71357"><ele>47.0</ele><time>2026-04-19T10:21:32.877Z</time></trkpt><trkpt lat="42.1482417" lon="14.7136117"><ele>47.0</ele><time>2026-04-19T10:21:33.877Z</time></trkpt><trkpt lat="42.1483017" lon="14.7136617"><ele>47.0</ele><time>2026-04-19T10:21:34.877Z</time></trkpt><trkpt lat="42.148395" lon="14.71376"><ele>45.8</ele><time>2026-04-19T10:21:36.877Z</time></trkpt><trkpt lat="42.1484783" lon="14.7138333"><ele>44.6</ele><time>2026-04-19T10:21:38.877Z</time></trkpt><trkpt lat="42.1485417" lon="14.7138767"><ele>43.4</ele><time>2026-04-19T10:21:40.876Z</time></trkpt><trkpt lat="42.1486367" lon="14.71393"><ele>42.199999999999996</ele><time>2026-04-19T10:21:42.876Z</time></trkpt><trkpt lat="42.1487533" lon="14.7139567"><ele>41.0</ele><time>2026-04-19T10:21:44.876Z</time></trkpt><trkpt lat="42.1488183" lon="14.7139533"><ele>41.0</ele><time>2026-04-19T10:21:45.876Z</time></trkpt><trkpt lat="42.1488817" lon="14.7139483"><ele>41.0</ele><time>2026-04-19T10:21:46.876Z</time></trkpt><trkpt lat="42.14901" lon="14.7139333"><ele>41.0</ele><time>2026-04-19T10:21:48.876Z</time></trkpt><trkpt lat="42.1491333" lon="14.7139217"><ele>41.0</ele><time>2026-04-19T10:21:50.876Z</time></trkpt><trkpt lat="42.1492533" lon="14.713905"><ele>41.0</ele><time>2026-04-19T10:21:52.877Z</time></trkpt><trkpt lat="42.1493733" lon="14.713885"><ele>40.8</ele><time>2026-04-19T10:21:54.876Z</time></trkpt><trkpt lat="42.1494367" lon="14.7138783"><ele>40.599999999999994</ele><time>2026-04-19T10:21:55.876Z</time></trkpt><trkpt lat="42.1495583" lon="14.713865"><ele>40.4</ele><time>2026-04-19T10:21:57.876Z</time></trkpt><trkpt lat="42.14968" lon="14.7138417"><ele>40.2</ele><time>2026-04-19T10:21:59.877Z</time></trkpt><trkpt lat="42.149805" lon="14.713835"><ele>40.0</ele><time>2026-04-19T10:22:01.876Z</time></trkpt><trkpt lat="42.1499317" lon="14.713825"><ele>39.42857142857143</ele><time>2026-04-19T10:22:03.877Z</time></trkpt><trkpt lat="42.1500033" lon="14.713815"><ele>38.85714285714286</ele><time>2026-04-19T10:22:04.877Z</time></trkpt><trkpt lat="42.150075" lon="14.71381"><ele>38.28571428571429</ele><time>2026-04-19T10:22:05.876Z</time></trkpt><trkpt lat="42.150145" lon="14.7138"><ele>37.714285714285715</ele><time>2026-04-19T10:22:06.877Z</time></trkpt><trkpt lat="42.15022" lon="14.7137883"><ele>37.142857142857146</ele><time>2026-04-19T10:22:07.877Z</time></trkpt><trkpt lat="42.1502917" lon="14.7137833"><ele>36.57142857142858</ele><time>2026-04-19T10:22:08.876Z</time></trkpt><trkpt lat="42.1503683" lon="14.7137717"><ele>36.0</ele><time>2026-04-19T10:22:09.877Z</time></trkpt><trkpt lat="42.1504383" lon="14.7137667"><ele>36.0</ele><time>2026-04-19T10:22:10.876Z</time></trkpt><trkpt lat="42.1505133" lon="14.71376"><ele>36.0</ele><time>2026-04-19T10:22:11.876Z</time></trkpt><trkpt lat="42.1505883" lon="14.7137517"><ele>36.0</ele><time>2026-04-19T10:22:12.877Z</time></trkpt><trkpt lat="42.1506667" lon="14.713745"><ele>36.0</ele><time>2026-04-19T10:22:13.877Z</time></trkpt><trkpt lat="42.1507433" lon="14.7137367"><ele>36.0</ele><time>2026-04-19T10:22:14.877Z</time></trkpt><trkpt lat="42.1508217" lon="14.7137233"><ele>36.0</ele><time>2026-04-19T10:22:15.877Z</time></trkpt><trkpt lat="42.150895" lon="14.713715"><ele>35.833333333333336</ele><time>2026-04-19T10:22:16.877Z</time></trkpt><trkpt lat="42.1509717" lon="14.7137017"><ele>35.666666666666664</ele><time>2026-04-19T10:22:17.876Z</time></trkpt><trkpt lat="42.15105" lon="14.713695"><ele>35.5</ele><time>2026-04-19T10:22:18.877Z</time></trkpt><trkpt lat="42.15113" lon="14.7136817"><ele>35.33333333333333</ele><time>2026-04-19T10:22:19.877Z</time></trkpt><trkpt lat="42.151205" lon="14.7136733"><ele>35.166666666666664</ele><time>2026-04-19T10:22:20.877Z</time></trkpt><trkpt lat="42.1512783" lon="14.7136667"><ele>35.0</ele><time>2026-04-19T10:22:21.877Z</time></trkpt><trkpt lat="42.15136" lon="14.7136617"><ele>35.0</ele><time>2026-04-19T10:22:22.877Z</time></trkpt><trkpt lat="42.1514433" lon="14.7136517"><ele>35.0</ele><time>2026-04-19T10:22:23.877Z</time></trkpt><trkpt lat="42.1515267" lon="14.7136433"><ele>35.0</ele><time>2026-04-19T10:22:24.877Z</time></trkpt><trkpt lat="42.1516067" lon="14.7136333"><ele>35.0</ele><time>2026-04-19T10:22:25.876Z</time></trkpt><trkpt lat="42.1516867" lon="14.7136233"><ele>35.0</ele><time>2026-04-19T10:22:26.876Z</time></trkpt><trkpt lat="42.15176" lon="14.713615"><ele>35.0</ele><time>2026-04-19T10:22:27.876Z</time></trkpt><trkpt lat="42.15184" lon="14.7136033"><ele>35.166666666666664</ele><time>2026-04-19T10:22:28.877Z</time></trkpt><trkpt lat="42.1519167" lon="14.713595"><ele>35.33333333333333</ele><time>2026-04-19T10:22:29.876Z</time></trkpt><trkpt lat="42.1519933" lon="14.7135867"><ele>35.5</ele><time>2026-04-19T10:22:30.877Z</time></trkpt><trkpt lat="42.15207" lon="14.7135783"><ele>35.666666666666664</ele><time>2026-04-19T10:22:31.877Z</time></trkpt><trkpt lat="42.15214" lon="14.71357"><ele>35.833333333333336</ele><time>2026-04-19T10:22:32.876Z</time></trkpt><trkpt lat="42.1522183" lon="14.7135583"><ele>36.0</ele><time>2026-04-19T10:22:33.876Z</time></trkpt><trkpt lat="42.1522967" lon="14.7135467"><ele>36.00000000000001</ele><time>2026-04-19T10:22:34.877Z</time></trkpt><trkpt lat="42.1523767" lon="14.7135317"><ele>36.0</ele><time>2026-04-19T10:22:35.877Z</time></trkpt><trkpt lat="42.1524517" lon="14.7135233"><ele>36.0</ele><time>2026-04-19T10:22:36.877Z</time></trkpt><trkpt lat="42.1525267" lon="14.71352"><ele>36.0</ele><time>2026-04-19T10:22:37.877Z</time></trkpt><trkpt lat="42.1525967" lon="14.7135117"><ele>36.0</ele><time>2026-04-19T10:22:38.877Z</time></trkpt><trkpt lat="42.1526683" lon="14.7135033"><ele>36.00000000000001</ele><time>2026-04-19T10:22:39.877Z</time></trkpt><trkpt lat="42.15274" lon="14.713495"><ele>36.0</ele><time>2026-04-19T10:22:40.876Z</time></trkpt><trkpt lat="42.15282" lon="14.7134883"><ele>36.0</ele><time>2026-04-19T10:22:41.876Z</time></trkpt><trkpt lat="42.152895" lon="14.7134817"><ele>36.0</ele><time>2026-04-19T10:22:42.877Z</time></trkpt><trkpt lat="42.152965" lon="14.7134783"><ele>36.0</ele><time>2026-04-19T10:22:43.877Z</time></trkpt><trkpt lat="42.15304" lon="14.7134667"><ele>36.0</ele><time>2026-04-19T10:22:44.876Z</time></trkpt><trkpt lat="42.1531167" lon="14.7134617"><ele>36.0</ele><time>2026-04-19T10:22:45.876Z</time></trkpt><trkpt lat="42.1531917" lon="14.71345"><ele>36.0</ele><time>2026-04-19T10:22:46.877Z</time></trkpt><trkpt lat="42.1532683" lon="14.7134417"><ele>35.333333333333336</ele><time>2026-04-19T10:22:47.877Z</time></trkpt><trkpt lat="42.153345" lon="14.7134283"><ele>34.666666666666664</ele><time>2026-04-19T10:22:48.876Z</time></trkpt><trkpt lat="42.15342" lon="14.71342"><ele>34.0</ele><time>2026-04-19T10:22:49.877Z</time></trkpt><trkpt lat="42.1535" lon="14.7134083"><ele>33.33333333333333</ele><time>2026-04-19T10:22:50.877Z</time></trkpt><trkpt lat="42.1535783" lon="14.7133983"><ele>32.666666666666664</ele><time>2026-04-19T10:22:51.876Z</time></trkpt><trkpt lat="42.15366" lon="14.7133883"><ele>32.0</ele><time>2026-04-19T10:22:52.877Z</time></trkpt><trkpt lat="42.1537333" lon="14.71338"><ele>31.999999999999996</ele><time>2026-04-19T10:22:53.877Z</time></trkpt><trkpt lat="42.15381" lon="14.71337"><ele>32.0</ele><time>2026-04-19T10:22:54.877Z</time></trkpt><trkpt lat="42.1538833" lon="14.7133633"><ele>32.0</ele><time>2026-04-19T10:22:55.877Z</time></trkpt><trkpt lat="42.15396" lon="14.7133517"><ele>32.0</ele><time>2026-04-19T10:22:56.877Z</time></trkpt><trkpt lat="42.1540333" lon="14.713335"><ele>31.999999999999996</ele><time>2026-04-19T10:22:57.876Z</time></trkpt><trkpt lat="42.1541083" lon="14.71332"><ele>32.0</ele><time>2026-04-19T10:22:58.876Z</time></trkpt><trkpt lat="42.15418" lon="14.7133017"><ele>31.857142857142854</ele><time>2026-04-19T10:22:59.877Z</time></trkpt><trkpt lat="42.15425" lon="14.7132833"><ele>31.71428571428571</ele><time>2026-04-19T10:23:00.877Z</time></trkpt><trkpt lat="42.1543217" lon="14.7132583"><ele>31.57142857142857</ele><time>2026-04-19T10:23:01.877Z</time></trkpt><trkpt lat="42.1543917" lon="14.713235"><ele>31.42857142857143</ele><time>2026-04-19T10:23:02.876Z</time></trkpt><trkpt lat="42.1544617" lon="14.7132083"><ele>31.28571428571429</ele><time>2026-04-19T10:23:03.876Z</time></trkpt><trkpt lat="42.1545333" lon="14.7131783"><ele>31.142857142857146</ele><time>2026-04-19T10:23:04.876Z</time></trkpt><trkpt lat="42.154605" lon="14.713145"><ele>31.0</ele><time>2026-04-19T10:23:05.876Z</time></trkpt><trkpt lat="42.1546783" lon="14.7131167"><ele>31.0</ele><time>2026-04-19T10:23:06.876Z</time></trkpt><trkpt lat="42.1547467" lon="14.7130883"><ele>31.000000000000004</ele><time>2026-04-19T10:23:07.876Z</time></trkpt><trkpt lat="42.154815" lon="14.7130633"><ele>31.0</ele><time>2026-04-19T10:23:08.877Z</time></trkpt><trkpt lat="42.154885" lon="14.7130317"><ele>31.0</ele><time>2026-04-19T10:23:09.877Z</time></trkpt><trkpt lat="42.1549517" lon="14.7130083"><ele>31.000000000000004</ele><time>2026-04-19T10:23:10.877Z</time></trkpt><trkpt lat="42.15502" lon="14.712975"><ele>31.0</ele><time>2026-04-19T10:23:11.876Z</time></trkpt><trkpt lat="42.1550867" lon="14.712945"><ele>31.0</ele><time>2026-04-19T10:23:12.877Z</time></trkpt><trkpt lat="42.1551567" lon="14.712915"><ele>31.0</ele><time>2026-04-19T10:23:13.876Z</time></trkpt><trkpt lat="42.1552267" lon="14.71289"><ele>31.000000000000004</ele><time>2026-04-19T10:23:14.876Z</time></trkpt><trkpt lat="42.1552983" lon="14.7128633"><ele>31.0</ele><time>2026-04-19T10:23:15.877Z</time></trkpt><trkpt lat="42.1553667" lon="14.7128333"><ele>31.0</ele><time>2026-04-19T10:23:16.877Z</time></trkpt><trkpt lat="42.15544" lon="14.712805"><ele>31.000000000000004</ele><time>2026-04-19T10:23:17.877Z</time></trkpt><trkpt lat="42.1555083" lon="14.712765"><ele>31.0</ele><time>2026-04-19T10:23:18.877Z</time></trkpt><trkpt lat="42.155575" lon="14.71274"><ele>31.0</ele><time>2026-04-19T10:23:19.877Z</time></trkpt><trkpt lat="42.155645" lon="14.7127117"><ele>31.142857142857146</ele><time>2026-04-19T10:23:20.877Z</time></trkpt><trkpt lat="42.1557117" lon="14.712685"><ele>31.28571428571429</ele><time>2026-04-19T10:23:21.876Z</time></trkpt><trkpt lat="42.155785" lon="14.7126517"><ele>31.42857142857143</ele><time>2026-04-19T10:23:22.877Z</time></trkpt><trkpt lat="42.1558517" lon="14.7126183"><ele>31.57142857142857</ele><time>2026-04-19T10:23:23.877Z</time></trkpt><trkpt lat="42.155925" lon="14.7125883"><ele>31.71428571428571</ele><time>2026-04-19T10:23:24.877Z</time></trkpt><trkpt lat="42.1559967" lon="14.71256"><ele>31.857142857142854</ele><time>2026-04-19T10:23:25.877Z</time></trkpt><trkpt lat="42.1560633" lon="14.712525"><ele>32.0</ele><time>2026-04-19T10:23:26.876Z</time></trkpt><trkpt lat="42.1561317" lon="14.7124933"><ele>32.0</ele><time>2026-04-19T10:23:27.877Z</time></trkpt><trkpt lat="42.1562033" lon="14.7124633"><ele>31.999999999999996</ele><time>2026-04-19T10:23:28.877Z</time></trkpt><trkpt lat="42.1562717" lon="14.71243"><ele>32.0</ele><time>2026-04-19T10:23:29.877Z</time></trkpt><trkpt lat="42.1563417" lon="14.7124067"><ele>32.0</ele><time>2026-04-19T10:23:30.877Z</time></trkpt><trkpt lat="42.15641" lon="14.7123783"><ele>31.999999999999996</ele><time>2026-04-19T10:23:31.877Z</time></trkpt><trkpt lat="42.1564817" lon="14.7123467"><ele>32.0</ele><time>2026-04-19T10:23:32.876Z</time></trkpt><trkpt lat="42.15655" lon="14.712315"><ele>32.0</ele><time>2026-04-19T10:23:33.877Z</time></trkpt><trkpt lat="42.156615" lon="14.7122783"><ele>31.857142857142854</ele><time>2026-04-19T10:23:34.876Z</time></trkpt><trkpt lat="42.156685" lon="14.712235"><ele>31.71428571428571</ele><time>2026-04-19T10:23:35.877Z</time></trkpt><trkpt lat="42.1567467" lon="14.7121917"><ele>31.57142857142857</ele><time>2026-04-19T10:23:36.876Z</time></trkpt><trkpt lat="42.1568133" lon="14.7121433"><ele>31.42857142857143</ele><time>2026-04-19T10:23:37.876Z</time></trkpt><trkpt lat="42.1568783" lon="14.7121"><ele>31.28571428571429</ele><time>2026-04-19T10:23:38.877Z</time></trkpt><trkpt lat="42.15694" lon="14.712055"><ele>31.142857142857146</ele><time>2026-04-19T10:23:39.876Z</time></trkpt><trkpt lat="42.157" lon="14.712015"><ele>31.0</ele><time>2026-04-19T10:23:40.876Z</time></trkpt><trkpt lat="42.1570617" lon="14.7119733"><ele>31.0</ele><time>2026-04-19T10:23:41.877Z</time></trkpt><trkpt lat="42.157125" lon="14.7119167"><ele>31.000000000000004</ele><time>2026-04-19T10:23:42.876Z</time></trkpt><trkpt lat="42.157185" lon="14.7118667"><ele>31.0</ele><time>2026-04-19T10:23:43.877Z</time></trkpt><trkpt lat="42.1572433" lon="14.711815"><ele>31.0</ele><time>2026-04-19T10:23:44.877Z</time></trkpt><trkpt lat="42.1573033" lon="14.7117667"><ele>31.000000000000004</ele><time>2026-04-19T10:23:45.876Z</time></trkpt><trkpt lat="42.1573633" lon="14.7117167"><ele>31.0</ele><time>2026-04-19T10:23:46.877Z</time></trkpt><trkpt lat="42.15742" lon="14.711665"><ele>31.0</ele><time>2026-04-19T10:23:47.876Z</time></trkpt><trkpt lat="42.1574767" lon="14.7116083"><ele>31.28571428571429</ele><time>2026-04-19T10:23:48.877Z</time></trkpt><trkpt lat="42.1575317" lon="14.71155"><ele>31.571428571428577</ele><time>2026-04-19T10:23:49.877Z</time></trkpt><trkpt lat="42.1575917" lon="14.7115"><ele>31.857142857142858</ele><time>2026-04-19T10:23:50.877Z</time></trkpt><trkpt lat="42.1576517" lon="14.71145"><ele>32.142857142857146</ele><time>2026-04-19T10:23:51.876Z</time></trkpt><trkpt lat="42.157715" lon="14.7113983"><ele>32.42857142857143</ele><time>2026-04-19T10:23:52.876Z</time></trkpt><trkpt lat="42.1577767" lon="14.711345"><ele>32.714285714285715</ele><time>2026-04-19T10:23:53.877Z</time></trkpt><trkpt lat="42.1578367" lon="14.7113"><ele>33.0</ele><time>2026-04-19T10:23:54.877Z</time></trkpt><trkpt lat="42.1578983" lon="14.7112517"><ele>33.0</ele><time>2026-04-19T10:23:55.876Z</time></trkpt><trkpt lat="42.1579567" lon="14.7112017"><ele>33.0</ele><time>2026-04-19T10:23:56.877Z</time></trkpt><trkpt lat="42.1580167" lon="14.7111433"><ele>33.0</ele><time>2026-04-19T10:23:57.877Z</time></trkpt><trkpt lat="42.15808" lon="14.7110883"><ele>33.0</ele><time>2026-04-19T10:23:58.877Z</time></trkpt><trkpt lat="42.1581417" lon="14.7110283"><ele>33.0</ele><time>2026-04-19T10:23:59.877Z</time></trkpt><trkpt lat="42.158205" lon="14.710975"><ele>33.0</ele><time>2026-04-19T10:24:00.876Z</time></trkpt><trkpt lat="42.1582633" lon="14.710925"><ele>33.0</ele><time>2026-04-19T10:24:01.877Z</time></trkpt><trkpt lat="42.1583217" lon="14.7108717"><ele>32.857142857142854</ele><time>2026-04-19T10:24:02.876Z</time></trkpt><trkpt lat="42.15838" lon="14.7108167"><ele>32.714285714285715</ele><time>2026-04-19T10:24:03.877Z</time></trkpt><trkpt lat="42.1584383" lon="14.7107583"><ele>32.57142857142857</ele><time>2026-04-19T10:24:04.877Z</time></trkpt><trkpt lat="42.1584983" lon="14.7106983"><ele>32.42857142857143</ele><time>2026-04-19T10:24:05.877Z</time></trkpt><trkpt lat="42.1585583" lon="14.7106417"><ele>32.285714285714285</ele><time>2026-04-19T10:24:06.877Z</time></trkpt><trkpt lat="42.1586183" lon="14.7105833"><ele>32.14285714285714</ele><time>2026-04-19T10:24:07.876Z</time></trkpt><trkpt lat="42.1586767" lon="14.7105283"><ele>32.0</ele><time>2026-04-19T10:24:08.877Z</time></trkpt><trkpt lat="42.158735" lon="14.7104733"><ele>32.0</ele><time>2026-04-19T10:24:09.877Z</time></trkpt><trkpt lat="42.1587917" lon="14.7104183"><ele>31.999999999999996</ele><time>2026-04-19T10:24:10.877Z</time></trkpt><trkpt lat="42.1588483" lon="14.7103633"><ele>32.0</ele><time>2026-04-19T10:24:11.877Z</time></trkpt><trkpt lat="42.15891" lon="14.71031"><ele>32.0</ele><time>2026-04-19T10:24:12.876Z</time></trkpt><trkpt lat="42.15897" lon="14.7102583"><ele>31.999999999999996</ele><time>2026-04-19T10:24:13.877Z</time></trkpt><trkpt lat="42.1590333" lon="14.710205"><ele>32.0</ele><time>2026-04-19T10:24:14.877Z</time></trkpt><trkpt lat="42.15909" lon="14.7101533"><ele>32.0</ele><time>2026-04-19T10:24:15.876Z</time></trkpt><trkpt lat="42.1591483" lon="14.710095"><ele>32.0</ele><time>2026-04-19T10:24:16.877Z</time></trkpt><trkpt lat="42.1592067" lon="14.710045"><ele>31.999999999999996</ele><time>2026-04-19T10:24:17.877Z</time></trkpt><trkpt lat="42.159265" lon="14.7099933"><ele>32.0</ele><time>2026-04-19T10:24:18.876Z</time></trkpt><trkpt lat="42.159325" lon="14.7099383"><ele>32.0</ele><time>2026-04-19T10:24:19.877Z</time></trkpt><trkpt lat="42.1593833" lon="14.7098817"><ele>31.999999999999996</ele><time>2026-04-19T10:24:20.876Z</time></trkpt><trkpt lat="42.1594467" lon="14.7098267"><ele>32.0</ele><time>2026-04-19T10:24:21.877Z</time></trkpt><trkpt lat="42.1595083" lon="14.709775"><ele>32.0</ele><time>2026-04-19T10:24:22.877Z</time></trkpt><trkpt lat="42.1595683" lon="14.7097267"><ele>32.0</ele><time>2026-04-19T10:24:23.876Z</time></trkpt><trkpt lat="42.1596283" lon="14.7096783"><ele>31.999999999999996</ele><time>2026-04-19T10:24:24.877Z</time></trkpt><trkpt lat="42.1596883" lon="14.7096183"><ele>32.0</ele><time>2026-04-19T10:24:25.877Z</time></trkpt><trkpt lat="42.1597467" lon="14.7095667"><ele>32.0</ele><time>2026-04-19T10:24:26.877Z</time></trkpt><trkpt lat="42.159805" lon="14.7095117"><ele>31.999999999999996</ele><time>2026-04-19T10:24:27.877Z</time></trkpt><trkpt lat="42.159865" lon="14.7094533"><ele>32.0</ele><time>2026-04-19T10:24:28.876Z</time></trkpt><trkpt lat="42.1599267" lon="14.7093933"><ele>32.0</ele><time>2026-04-19T10:24:29.877Z</time></trkpt><trkpt lat="42.1599883" lon="14.709335"><ele>32.0</ele><time>2026-04-19T10:24:30.877Z</time></trkpt><trkpt lat="42.1600467" lon="14.709285"><ele>31.999999999999996</ele><time>2026-04-19T10:24:31.876Z</time></trkpt><trkpt lat="42.1601067" lon="14.7092283"><ele>32.0</ele><time>2026-04-19T10:24:32.877Z</time></trkpt><trkpt lat="42.160165" lon="14.7091717"><ele>32.0</ele><time>2026-04-19T10:24:33.876Z</time></trkpt><trkpt lat="42.1602267" lon="14.709115"><ele>31.999999999999996</ele><time>2026-04-19T10:24:34.877Z</time></trkpt><trkpt lat="42.1602867" lon="14.7090567"><ele>32.0</ele><time>2026-04-19T10:24:35.877Z</time></trkpt><trkpt lat="42.1603483" lon="14.709"><ele>32.0</ele><time>2026-04-19T10:24:36.877Z</time></trkpt><trkpt lat="42.16041" lon="14.7089467"><ele>32.0</ele><time>2026-04-19T10:24:37.877Z</time></trkpt><trkpt lat="42.1604683" lon="14.708895"><ele>31.999999999999996</ele><time>2026-04-19T10:24:38.877Z</time></trkpt><trkpt lat="42.1605267" lon="14.7088433"><ele>32.0</ele><time>2026-04-19T10:24:39.876Z</time></trkpt><trkpt lat="42.1605867" lon="14.7087867"><ele>32.0</ele><time>2026-04-19T10:24:40.877Z</time></trkpt><trkpt lat="42.1606467" lon="14.708735"><ele>31.999999999999996</ele><time>2026-04-19T10:24:41.876Z</time></trkpt><trkpt lat="42.1607067" lon="14.7086817"><ele>32.0</ele><time>2026-04-19T10:24:42.877Z</time></trkpt><trkpt lat="42.1607683" lon="14.7086267"><ele>32.0</ele><time>2026-04-19T10:24:43.877Z</time></trkpt><trkpt lat="42.160825" lon="14.7085717"><ele>31.999999999999996</ele><time>2026-04-19T10:24:44.876Z</time></trkpt><trkpt lat="42.1608833" lon="14.708515"><ele>32.0</ele><time>2026-04-19T10:24:45.877Z</time></trkpt><trkpt lat="42.1609417" lon="14.7084517"><ele>32.0</ele><time>2026-04-19T10:24:46.876Z</time></trkpt><trkpt lat="42.161005" lon="14.7083933"><ele>32.0</ele><time>2026-04-19T10:24:47.877Z</time></trkpt><trkpt lat="42.1610683" lon="14.7083283"><ele>31.999999999999996</ele><time>2026-04-19T10:24:48.876Z</time></trkpt><trkpt lat="42.1611267" lon="14.7082683"><ele>32.0</ele><time>2026-04-19T10:24:49.876Z</time></trkpt><trkpt lat="42.1611833" lon="14.708205"><ele>31.999999999999996</ele><time>2026-04-19T10:24:50.876Z</time></trkpt><trkpt lat="42.16124" lon="14.708145"><ele>32.0</ele><time>2026-04-19T10:24:51.877Z</time></trkpt><trkpt lat="42.1613017" lon="14.708085"><ele>32.0</ele><time>2026-04-19T10:24:52.876Z</time></trkpt><trkpt lat="42.1613617" lon="14.7080217"><ele>32.0</ele><time>2026-04-19T10:24:53.877Z</time></trkpt><trkpt lat="42.1614233" lon="14.7079533"><ele>31.999999999999996</ele><time>2026-04-19T10:24:54.877Z</time></trkpt><trkpt lat="42.1614817" lon="14.70788"><ele>32.0</ele><time>2026-04-19T10:24:55.876Z</time></trkpt><trkpt lat="42.1615367" lon="14.7078067"><ele>31.499999999999996</ele><time>2026-04-19T10:24:56.877Z</time></trkpt><trkpt lat="42.1615917" lon="14.7077367"><ele>31.0</ele><time>2026-04-19T10:24:57.876Z</time></trkpt><trkpt lat="42.1616517" lon="14.7076617"><ele>30.5</ele><time>2026-04-19T10:24:58.877Z</time></trkpt><trkpt lat="42.1617067" lon="14.70759"><ele>30.0</ele><time>2026-04-19T10:24:59.877Z</time></trkpt><trkpt lat="42.1617633" lon="14.7075267"><ele>29.499999999999996</ele><time>2026-04-19T10:25:00.877Z</time></trkpt><trkpt lat="42.1618167" lon="14.7074483"><ele>29.0</ele><time>2026-04-19T10:25:01.876Z</time></trkpt><trkpt lat="42.161865" lon="14.7073767"><ele>29.000000000000004</ele><time>2026-04-19T10:25:02.877Z</time></trkpt><trkpt lat="42.1619183" lon="14.7073033"><ele>29.0</ele><time>2026-04-19T10:25:03.876Z</time></trkpt><trkpt lat="42.16197" lon="14.7072467"><ele>29.000000000000004</ele><time>2026-04-19T10:25:04.876Z</time></trkpt><trkpt lat="42.1620233" lon="14.7071817"><ele>29.000000000000004</ele><time>2026-04-19T10:25:05.877Z</time></trkpt><trkpt lat="42.162075" lon="14.7071183"><ele>29.0</ele><time>2026-04-19T10:25:06.877Z</time></trkpt><trkpt lat="42.1621267" lon="14.707055"><ele>29.000000000000004</ele><time>2026-04-19T10:25:07.877Z</time></trkpt><trkpt lat="42.16218" lon="14.7069883"><ele>29.000000000000004</ele><time>2026-04-19T10:25:08.877Z</time></trkpt><trkpt lat="42.1622333" lon="14.7069183"><ele>29.285714285714292</ele><time>2026-04-19T10:25:09.876Z</time></trkpt><trkpt lat="42.1622867" lon="14.7068467"><ele>29.571428571428573</ele><time>2026-04-19T10:25:10.877Z</time></trkpt><trkpt lat="42.1623367" lon="14.7067767"><ele>29.85714285714286</ele><time>2026-04-19T10:25:11.877Z</time></trkpt><trkpt lat="42.1623867" lon="14.70671"><ele>30.142857142857146</ele><time>2026-04-19T10:25:12.877Z</time></trkpt><trkpt lat="42.16244" lon="14.7066417"><ele>30.42857142857143</ele><time>2026-04-19T10:25:13.877Z</time></trkpt><trkpt lat="42.1624883" lon="14.7065733"><ele>30.714285714285715</ele><time>2026-04-19T10:25:14.877Z</time></trkpt><trkpt lat="42.1625367" lon="14.70651"><ele>31.0</ele><time>2026-04-19T10:25:15.877Z</time></trkpt><trkpt lat="42.1625867" lon="14.706445"><ele>31.0</ele><time>2026-04-19T10:25:16.877Z</time></trkpt><trkpt lat="42.1626367" lon="14.7063867"><ele>31.000000000000004</ele><time>2026-04-19T10:25:17.876Z</time></trkpt><trkpt lat="42.1626833" lon="14.7063283"><ele>31.0</ele><time>2026-04-19T10:25:18.877Z</time></trkpt><trkpt lat="42.1627333" lon="14.7062667"><ele>31.0</ele><time>2026-04-19T10:25:19.876Z</time></trkpt><trkpt lat="42.16278" lon="14.7062033"><ele>31.000000000000004</ele><time>2026-04-19T10:25:20.877Z</time></trkpt><trkpt lat="42.1628233" lon="14.7061367"><ele>31.0</ele><time>2026-04-19T10:25:21.877Z</time></trkpt><trkpt lat="42.1628667" lon="14.7060667"><ele>31.0</ele><time>2026-04-19T10:25:22.877Z</time></trkpt><trkpt lat="42.1629133" lon="14.7060017"><ele>31.166666666666668</ele><time>2026-04-19T10:25:23.877Z</time></trkpt><trkpt lat="42.1629583" lon="14.7059367"><ele>31.333333333333336</ele><time>2026-04-19T10:25:24.876Z</time></trkpt><trkpt lat="42.163" lon="14.7058667"><ele>31.5</ele><time>2026-04-19T10:25:25.877Z</time></trkpt><trkpt lat="42.163045" lon="14.7058017"><ele>31.666666666666664</ele><time>2026-04-19T10:25:26.877Z</time></trkpt><trkpt lat="42.16309" lon="14.7057383"><ele>31.833333333333332</ele><time>2026-04-19T10:25:27.877Z</time></trkpt><trkpt lat="42.163185" lon="14.7056367"><ele>32.0</ele><time>2026-04-19T10:25:29.876Z</time></trkpt><trkpt lat="42.1632367" lon="14.7055817"><ele>32.0</ele><time>2026-04-19T10:25:30.877Z</time></trkpt><trkpt lat="42.1632867" lon="14.70553"><ele>32.0</ele><time>2026-04-19T10:25:31.877Z</time></trkpt><trkpt lat="42.1633817" lon="14.7054233"><ele>32.0</ele><time>2026-04-19T10:25:33.876Z</time></trkpt><trkpt lat="42.1634767" lon="14.7053183"><ele>32.0</ele><time>2026-04-19T10:25:35.876Z</time></trkpt><trkpt lat="42.16357" lon="14.705205"><ele>32.0</ele><time>2026-04-19T10:25:37.877Z</time></trkpt><trkpt lat="42.1636583" lon="14.7050967"><ele>32.166666666666664</ele><time>2026-04-19T10:25:39.876Z</time></trkpt><trkpt lat="42.1637017" lon="14.705035"><ele>32.33333333333333</ele><time>2026-04-19T10:25:40.876Z</time></trkpt><trkpt lat="42.163795" lon="14.70492"><ele>32.5</ele><time>2026-04-19T10:25:42.877Z</time></trkpt><trkpt lat="42.16384" lon="14.70486"><ele>32.666666666666664</ele><time>2026-04-19T10:25:43.876Z</time></trkpt><trkpt lat="42.16389" lon="14.7048"><ele>32.833333333333336</ele><time>2026-04-19T10:25:44.876Z</time></trkpt><trkpt lat="42.16394" lon="14.7047383"><ele>33.0</ele><time>2026-04-19T10:25:45.876Z</time></trkpt><trkpt lat="42.1639867" lon="14.7046717"><ele>33.0</ele><time>2026-04-19T10:25:46.876Z</time></trkpt><trkpt lat="42.164035" lon="14.70461"><ele>33.0</ele><time>2026-04-19T10:25:47.876Z</time></trkpt><trkpt lat="42.16408" lon="14.7045483"><ele>33.0</ele><time>2026-04-19T10:25:48.877Z</time></trkpt><trkpt lat="42.164125" lon="14.7044867"><ele>33.0</ele><time>2026-04-19T10:25:49.876Z</time></trkpt><trkpt lat="42.1642233" lon="14.70437"><ele>33.0</ele><time>2026-04-19T10:25:51.877Z</time></trkpt><trkpt lat="42.1642733" lon="14.70431"><ele>33.0</ele><time>2026-04-19T10:25:52.876Z</time></trkpt><trkpt lat="42.1643217" lon="14.704245"><ele>33.0</ele><time>2026-04-19T10:25:53.876Z</time></trkpt><trkpt lat="42.16437" lon="14.7041817"><ele>33.0</ele><time>2026-04-19T10:25:54.876Z</time></trkpt><trkpt lat="42.1644183" lon="14.70412"><ele>33.0</ele><time>2026-04-19T10:25:55.876Z</time></trkpt><trkpt lat="42.1644717" lon="14.7040583"><ele>33.0</ele><time>2026-04-19T10:25:56.877Z</time></trkpt><trkpt lat="42.1645233" lon="14.7039983"><ele>33.0</ele><time>2026-04-19T10:25:57.876Z</time></trkpt><trkpt lat="42.1645767" lon="14.7039333"><ele>33.0</ele><time>2026-04-19T10:25:58.877Z</time></trkpt><trkpt lat="42.16463" lon="14.703865"><ele>33.0</ele><time>2026-04-19T10:25:59.877Z</time></trkpt><trkpt lat="42.16468" lon="14.7038"><ele>33.0</ele><time>2026-04-19T10:26:00.876Z</time></trkpt><trkpt lat="42.16473" lon="14.70374"><ele>33.0</ele><time>2026-04-19T10:26:01.876Z</time></trkpt><trkpt lat="42.164785" lon="14.7036783"><ele>33.0</ele><time>2026-04-19T10:26:02.877Z</time></trkpt><trkpt lat="42.1648317" lon="14.7036133"><ele>33.0</ele><time>2026-04-19T10:26:03.877Z</time></trkpt><trkpt lat="42.1648817" lon="14.7035433"><ele>33.0</ele><time>2026-04-19T10:26:04.877Z</time></trkpt><trkpt lat="42.164935" lon="14.7034783"><ele>33.0</ele><time>2026-04-19T10:26:05.876Z</time></trkpt><trkpt lat="42.1649867" lon="14.7034067"><ele>33.0</ele><time>2026-04-19T10:26:06.876Z</time></trkpt><trkpt lat="42.16504" lon="14.7033283"><ele>32.833333333333336</ele><time>2026-04-19T10:26:07.877Z</time></trkpt><trkpt lat="42.1650917" lon="14.70325"><ele>32.666666666666664</ele><time>2026-04-19T10:26:08.876Z</time></trkpt><trkpt lat="42.165145" lon="14.7031733"><ele>32.5</ele><time>2026-04-19T10:26:09.877Z</time></trkpt><trkpt lat="42.165195" lon="14.703095"><ele>32.33333333333333</ele><time>2026-04-19T10:26:10.877Z</time></trkpt><trkpt lat="42.1652433" lon="14.70301"><ele>32.166666666666664</ele><time>2026-04-19T10:26:11.876Z</time></trkpt><trkpt lat="42.1652867" lon="14.7029333"><ele>32.0</ele><time>2026-04-19T10:26:12.876Z</time></trkpt><trkpt lat="42.16533" lon="14.7028567"><ele>32.0</ele><time>2026-04-19T10:26:13.876Z</time></trkpt><trkpt lat="42.165375" lon="14.7027833"><ele>31.999999999999996</ele><time>2026-04-19T10:26:14.877Z</time></trkpt><trkpt lat="42.1654183" lon="14.7027083"><ele>32.0</ele><time>2026-04-19T10:26:15.877Z</time></trkpt><trkpt lat="42.1654633" lon="14.70263"><ele>32.0</ele><time>2026-04-19T10:26:16.876Z</time></trkpt><trkpt lat="42.1655017" lon="14.7025533"><ele>31.999999999999996</ele><time>2026-04-19T10:26:17.877Z</time></trkpt><trkpt lat="42.1655483" lon="14.7024817"><ele>32.0</ele><time>2026-04-19T10:26:18.876Z</time></trkpt><trkpt lat="42.1655933" lon="14.7024083"><ele>32.0</ele><time>2026-04-19T10:26:19.876Z</time></trkpt><trkpt lat="42.1656367" lon="14.7023333"><ele>32.42857142857143</ele><time>2026-04-19T10:26:20.877Z</time></trkpt><trkpt lat="42.1656817" lon="14.7022533"><ele>32.857142857142854</ele><time>2026-04-19T10:26:21.877Z</time></trkpt><trkpt lat="42.165725" lon="14.702175"><ele>33.285714285714285</ele><time>2026-04-19T10:26:22.877Z</time></trkpt><trkpt lat="42.1657683" lon="14.7021017"><ele>33.714285714285715</ele><time>2026-04-19T10:26:23.876Z</time></trkpt><trkpt lat="42.165815" lon="14.7020217"><ele>34.14285714285714</ele><time>2026-04-19T10:26:24.877Z</time></trkpt><trkpt lat="42.1658567" lon="14.7019417"><ele>34.57142857142857</ele><time>2026-04-19T10:26:25.876Z</time></trkpt><trkpt lat="42.1658983" lon="14.7018767"><ele>35.0</ele><time>2026-04-19T10:26:26.877Z</time></trkpt><trkpt lat="42.1659417" lon="14.7018017"><ele>33.857142857142854</ele><time>2026-04-19T10:26:27.877Z</time></trkpt><trkpt lat="42.1659817" lon="14.70173"><ele>32.714285714285715</ele><time>2026-04-19T10:26:28.877Z</time></trkpt><trkpt lat="42.1660217" lon="14.7016567"><ele>31.57142857142857</ele><time>2026-04-19T10:26:29.876Z</time></trkpt><trkpt lat="42.1660617" lon="14.7015833"><ele>30.42857142857143</ele><time>2026-04-19T10:26:30.877Z</time></trkpt><trkpt lat="42.1661083" lon="14.7015017"><ele>29.285714285714285</ele><time>2026-04-19T10:26:31.877Z</time></trkpt><trkpt lat="42.166155" lon="14.70142"><ele>28.142857142857142</ele><time>2026-04-19T10:26:32.877Z</time></trkpt><trkpt lat="42.1662" lon="14.7013317"><ele>27.0</ele><time>2026-04-19T10:26:33.877Z</time></trkpt><trkpt lat="42.16625" lon="14.7012383"><ele>27.0</ele><time>2026-04-19T10:26:34.877Z</time></trkpt><trkpt lat="42.1663017" lon="14.7011417"><ele>27.0</ele><time>2026-04-19T10:26:35.876Z</time></trkpt><trkpt lat="42.1663517" lon="14.7010467"><ele>27.0</ele><time>2026-04-19T10:26:36.877Z</time></trkpt><trkpt lat="42.1663983" lon="14.7009533"><ele>27.0</ele><time>2026-04-19T10:26:37.876Z</time></trkpt><trkpt lat="42.1664483" lon="14.70086"><ele>27.0</ele><time>2026-04-19T10:26:38.877Z</time></trkpt><trkpt lat="42.1664983" lon="14.700775"><ele>27.0</ele><time>2026-04-19T10:26:39.877Z</time></trkpt><trkpt lat="42.166545" lon="14.700685"><ele>26.285714285714285</ele><time>2026-04-19T10:26:40.877Z</time></trkpt><trkpt lat="42.1665917" lon="14.7005967"><ele>25.57142857142857</ele><time>2026-04-19T10:26:41.877Z</time></trkpt><trkpt lat="42.166635" lon="14.7005133"><ele>24.857142857142858</ele><time>2026-04-19T10:26:42.877Z</time></trkpt><trkpt lat="42.16668" lon="14.7004333"><ele>24.142857142857142</ele><time>2026-04-19T10:26:43.877Z</time></trkpt><trkpt lat="42.1667233" lon="14.7003483"><ele>23.428571428571427</ele><time>2026-04-19T10:26:44.876Z</time></trkpt><trkpt lat="42.1667667" lon="14.7002733"><ele>22.714285714285715</ele><time>2026-04-19T10:26:45.876Z</time></trkpt><trkpt lat="42.1668083" lon="14.7001983"><ele>22.0</ele><time>2026-04-19T10:26:46.877Z</time></trkpt><trkpt lat="42.1668417" lon="14.7001217"><ele>22.0</ele><time>2026-04-19T10:26:47.877Z</time></trkpt><trkpt lat="42.1668783" lon="14.7000433"><ele>22.0</ele><time>2026-04-19T10:26:48.877Z</time></trkpt><trkpt lat="42.1669183" lon="14.699965"><ele>22.0</ele><time>2026-04-19T10:26:49.877Z</time></trkpt><trkpt lat="42.16699" lon="14.6998267"><ele>22.0</ele><time>2026-04-19T10:26:51.877Z</time></trkpt><trkpt lat="42.1670517" lon="14.6996983"><ele>22.0</ele><time>2026-04-19T10:26:53.876Z</time></trkpt><trkpt lat="42.1671167" lon="14.699555"><ele>22.0</ele><time>2026-04-19T10:26:55.877Z</time></trkpt><trkpt lat="42.16718" lon="14.69942"><ele>22.0</ele><time>2026-04-19T10:26:57.877Z</time></trkpt><trkpt lat="42.167235" lon="14.6992783"><ele>22.0</ele><time>2026-04-19T10:26:59.877Z</time></trkpt><trkpt lat="42.16726" lon="14.6992"><ele>22.0</ele><time>2026-04-19T10:27:00.877Z</time></trkpt><trkpt lat="42.16729" lon="14.6991233"><ele>22.0</ele><time>2026-04-19T10:27:01.876Z</time></trkpt><trkpt lat="42.167315" lon="14.6990417"><ele>22.0</ele><time>2026-04-19T10:27:02.877Z</time></trkpt><trkpt lat="42.167345" lon="14.6989617"><ele>23.333333333333332</ele><time>2026-04-19T10:27:03.877Z</time></trkpt><trkpt lat="42.167375" lon="14.6988817"><ele>24.666666666666664</ele><time>2026-04-19T10:27:04.877Z</time></trkpt><trkpt lat="42.1674283" lon="14.6987283"><ele>26.0</ele><time>2026-04-19T10:27:06.876Z</time></trkpt><trkpt lat="42.1674533" lon="14.69865"><ele>27.333333333333332</ele><time>2026-04-19T10:27:07.877Z</time></trkpt><trkpt lat="42.1674817" lon="14.69857"><ele>28.666666666666668</ele><time>2026-04-19T10:27:08.876Z</time></trkpt><trkpt lat="42.1675067" lon="14.6984833"><ele>30.0</ele><time>2026-04-19T10:27:09.877Z</time></trkpt><trkpt lat="42.1675367" lon="14.6984017"><ele>30.333333333333332</ele><time>2026-04-19T10:27:10.877Z</time></trkpt><trkpt lat="42.1675617" lon="14.6983217"><ele>30.666666666666664</ele><time>2026-04-19T10:27:11.876Z</time></trkpt><trkpt lat="42.16759" lon="14.6982417"><ele>31.0</ele><time>2026-04-19T10:27:12.877Z</time></trkpt><trkpt lat="42.1676183" lon="14.6981583"><ele>31.333333333333332</ele><time>2026-04-19T10:27:13.877Z</time></trkpt><trkpt lat="42.1676633" lon="14.6980017"><ele>31.666666666666664</ele><time>2026-04-19T10:27:15.877Z</time></trkpt><trkpt lat="42.1676867" lon="14.6979183"><ele>32.0</ele><time>2026-04-19T10:27:16.876Z</time></trkpt><trkpt lat="42.167715" lon="14.6978317"><ele>32.5</ele><time>2026-04-19T10:27:17.877Z</time></trkpt><trkpt lat="42.16776" lon="14.6976667"><ele>33.0</ele><time>2026-04-19T10:27:19.876Z</time></trkpt><trkpt lat="42.167785" lon="14.697585"><ele>33.5</ele><time>2026-04-19T10:27:20.876Z</time></trkpt><trkpt lat="42.1678117" lon="14.6974967"><ele>34.0</ele><time>2026-04-19T10:27:21.876Z</time></trkpt><trkpt lat="42.1678367" lon="14.6974067"><ele>34.5</ele><time>2026-04-19T10:27:22.877Z</time></trkpt><trkpt lat="42.1678633" lon="14.69732"><ele>35.0</ele><time>2026-04-19T10:27:23.876Z</time></trkpt><trkpt lat="42.1678917" lon="14.6972367"><ele>35.0</ele><time>2026-04-19T10:27:24.876Z</time></trkpt><trkpt lat="42.16792" lon="14.6971383"><ele>35.0</ele><time>2026-04-19T10:27:25.877Z</time></trkpt><trkpt lat="42.16795" lon="14.69705"><ele>35.0</ele><time>2026-04-19T10:27:26.877Z</time></trkpt><trkpt lat="42.167975" lon="14.6969583"><ele>35.0</ele><time>2026-04-19T10:27:27.876Z</time></trkpt><trkpt lat="42.1679983" lon="14.6968667"><ele>35.0</ele><time>2026-04-19T10:27:28.877Z</time></trkpt><trkpt lat="42.1680217" lon="14.69678"><ele>35.0</ele><time>2026-04-19T10:27:29.876Z</time></trkpt><trkpt lat="42.1680483" lon="14.6966917"><ele>35.0</ele><time>2026-04-19T10:27:30.877Z</time></trkpt><trkpt lat="42.1680683" lon="14.6966033"><ele>35.285714285714285</ele><time>2026-04-19T10:27:31.876Z</time></trkpt><trkpt lat="42.1680867" lon="14.69651"><ele>35.57142857142857</ele><time>2026-04-19T10:27:32.877Z</time></trkpt><trkpt lat="42.1681" lon="14.6964167"><ele>35.85714285714286</ele><time>2026-04-19T10:27:33.877Z</time></trkpt><trkpt lat="42.16811" lon="14.6963217"><ele>36.14285714285714</ele><time>2026-04-19T10:27:34.877Z</time></trkpt><trkpt lat="42.168115" lon="14.6962317"><ele>36.42857142857143</ele><time>2026-04-19T10:27:35.877Z</time></trkpt><trkpt lat="42.168115" lon="14.69614"><ele>36.714285714285715</ele><time>2026-04-19T10:27:36.876Z</time></trkpt><trkpt lat="42.1681117" lon="14.6960467"><ele>37.0</ele><time>2026-04-19T10:27:37.876Z</time></trkpt><trkpt lat="42.1681033" lon="14.6959567"><ele>37.2</ele><time>2026-04-19T10:27:38.876Z</time></trkpt><trkpt lat="42.1680983" lon="14.6958717"><ele>37.400000000000006</ele><time>2026-04-19T10:27:39.877Z</time></trkpt><trkpt lat="42.1680933" lon="14.695785"><ele>37.599999999999994</ele><time>2026-04-19T10:27:40.877Z</time></trkpt><trkpt lat="42.1680767" lon="14.6956333"><ele>37.8</ele><time>2026-04-19T10:27:42.876Z</time></trkpt><trkpt lat="42.168065" lon="14.6954733"><ele>38.0</ele><time>2026-04-19T10:27:44.877Z</time></trkpt><trkpt lat="42.168065" lon="14.6953383"><ele>38.25</ele><time>2026-04-19T10:27:46.877Z</time></trkpt><trkpt lat="42.1680917" lon="14.6952083"><ele>38.5</ele><time>2026-04-19T10:27:48.877Z</time></trkpt><trkpt lat="42.1681133" lon="14.6950533"><ele>38.75</ele><time>2026-04-19T10:27:50.877Z</time></trkpt><trkpt lat="42.1681" lon="14.6948933"><ele>39.0</ele><time>2026-04-19T10:27:52.877Z</time></trkpt><trkpt lat="42.1680283" lon="14.6947683"><ele>39.0</ele><time>2026-04-19T10:27:54.877Z</time></trkpt><trkpt lat="42.167975" lon="14.6947217"><ele>39.0</ele><time>2026-04-19T10:27:55.877Z</time></trkpt><trkpt lat="42.1679167" lon="14.694675"><ele>39.0</ele><time>2026-04-19T10:27:56.877Z</time></trkpt><trkpt lat="42.167865" lon="14.6946183"><ele>39.0</ele><time>2026-04-19T10:27:57.877Z</time></trkpt><trkpt lat="42.1678117" lon="14.694545"><ele>39.0</ele><time>2026-04-19T10:27:58.876Z</time></trkpt><trkpt lat="42.1677683" lon="14.6944633"><ele>39.0</ele><time>2026-04-19T10:27:59.877Z</time></trkpt><trkpt lat="42.1677267" lon="14.69438"><ele>39.0</ele><time>2026-04-19T10:28:00.877Z</time></trkpt><trkpt lat="42.1676833" lon="14.694295"><ele>39.333333333333336</ele><time>2026-04-19T10:28:01.876Z</time></trkpt><trkpt lat="42.1676383" lon="14.6942033"><ele>39.666666666666664</ele><time>2026-04-19T10:28:02.876Z</time></trkpt><trkpt lat="42.167605" lon="14.6941117"><ele>40.0</ele><time>2026-04-19T10:28:03.877Z</time></trkpt><trkpt lat="42.16758" lon="14.6940183"><ele>40.33333333333333</ele><time>2026-04-19T10:28:04.877Z</time></trkpt><trkpt lat="42.1675533" lon="14.6939217"><ele>40.666666666666664</ele><time>2026-04-19T10:28:05.877Z</time></trkpt><trkpt lat="42.1675317" lon="14.6938233"><ele>41.0</ele><time>2026-04-19T10:28:06.877Z</time></trkpt><trkpt lat="42.1675083" lon="14.693725"><ele>41.0</ele><time>2026-04-19T10:28:07.876Z</time></trkpt><trkpt lat="42.1674817" lon="14.69363"><ele>41.0</ele><time>2026-04-19T10:28:08.877Z</time></trkpt><trkpt lat="42.1674567" lon="14.693535"><ele>41.0</ele><time>2026-04-19T10:28:09.876Z</time></trkpt><trkpt lat="42.1674367" lon="14.69344"><ele>41.0</ele><time>2026-04-19T10:28:10.877Z</time></trkpt><trkpt lat="42.1674083" lon="14.6933417"><ele>41.0</ele><time>2026-04-19T10:28:11.876Z</time></trkpt><trkpt lat="42.16738" lon="14.6932417"><ele>41.0</ele><time>2026-04-19T10:28:12.876Z</time></trkpt><trkpt lat="42.1673483" lon="14.69314"><ele>40.83333333333333</ele><time>2026-04-19T10:28:13.877Z</time></trkpt><trkpt lat="42.1673183" lon="14.69304"><ele>40.666666666666664</ele><time>2026-04-19T10:28:14.877Z</time></trkpt><trkpt lat="42.1672967" lon="14.6929367"><ele>40.5</ele><time>2026-04-19T10:28:15.877Z</time></trkpt><trkpt lat="42.1672717" lon="14.692835"><ele>40.333333333333336</ele><time>2026-04-19T10:28:16.876Z</time></trkpt><trkpt lat="42.1672483" lon="14.69273"><ele>40.16666666666667</ele><time>2026-04-19T10:28:17.876Z</time></trkpt><trkpt lat="42.1672267" lon="14.6926267"><ele>40.0</ele><time>2026-04-19T10:28:18.876Z</time></trkpt><trkpt lat="42.1671967" lon="14.6925267"><ele>40.333333333333336</ele><time>2026-04-19T10:28:19.877Z</time></trkpt><trkpt lat="42.1671667" lon="14.6924267"><ele>40.66666666666667</ele><time>2026-04-19T10:28:20.877Z</time></trkpt><trkpt lat="42.167135" lon="14.6923233"><ele>41.0</ele><time>2026-04-19T10:28:21.876Z</time></trkpt><trkpt lat="42.16711" lon="14.6922183"><ele>41.333333333333336</ele><time>2026-04-19T10:28:22.877Z</time></trkpt><trkpt lat="42.167085" lon="14.6921217"><ele>41.666666666666664</ele><time>2026-04-19T10:28:23.877Z</time></trkpt><trkpt lat="42.167065" lon="14.6920183"><ele>42.0</ele><time>2026-04-19T10:28:24.877Z</time></trkpt><trkpt lat="42.1670483" lon="14.69191"><ele>42.0</ele><time>2026-04-19T10:28:25.877Z</time></trkpt><trkpt lat="42.16703" lon="14.6917983"><ele>42.0</ele><time>2026-04-19T10:28:26.877Z</time></trkpt><trkpt lat="42.1670117" lon="14.6916883"><ele>42.0</ele><time>2026-04-19T10:28:27.876Z</time></trkpt><trkpt lat="42.1669933" lon="14.691575"><ele>42.0</ele><time>2026-04-19T10:28:28.877Z</time></trkpt><trkpt lat="42.16698" lon="14.6914683"><ele>42.0</ele><time>2026-04-19T10:28:29.877Z</time></trkpt><trkpt lat="42.1669633" lon="14.6913567"><ele>42.0</ele><time>2026-04-19T10:28:30.877Z</time></trkpt><trkpt lat="42.1669533" lon="14.691245"><ele>42.0</ele><time>2026-04-19T10:28:31.876Z</time></trkpt><trkpt lat="42.1669433" lon="14.691135"><ele>42.0</ele><time>2026-04-19T10:28:32.876Z</time></trkpt><trkpt lat="42.16693" lon="14.6910267"><ele>42.0</ele><time>2026-04-19T10:28:33.877Z</time></trkpt><trkpt lat="42.16692" lon="14.690915"><ele>42.0</ele><time>2026-04-19T10:28:34.877Z</time></trkpt><trkpt lat="42.16691" lon="14.6908117"><ele>42.0</ele><time>2026-04-19T10:28:35.877Z</time></trkpt><trkpt lat="42.1669017" lon="14.6906983"><ele>42.0</ele><time>2026-04-19T10:28:36.876Z</time></trkpt><trkpt lat="42.1668917" lon="14.6905917"><ele>42.333333333333336</ele><time>2026-04-19T10:28:37.876Z</time></trkpt><trkpt lat="42.1668833" lon="14.6904817"><ele>42.666666666666664</ele><time>2026-04-19T10:28:38.877Z</time></trkpt><trkpt lat="42.1668717" lon="14.6903733"><ele>43.0</ele><time>2026-04-19T10:28:39.876Z</time></trkpt><trkpt lat="42.1668633" lon="14.6902617"><ele>43.33333333333333</ele><time>2026-04-19T10:28:40.877Z</time></trkpt><trkpt lat="42.1668533" lon="14.69015"><ele>43.666666666666664</ele><time>2026-04-19T10:28:41.876Z</time></trkpt><trkpt lat="42.166845" lon="14.6900383"><ele>44.0</ele><time>2026-04-19T10:28:42.877Z</time></trkpt><trkpt lat="42.166835" lon="14.6899317"><ele>44.166666666666664</ele><time>2026-04-19T10:28:43.877Z</time></trkpt><trkpt lat="42.1668217" lon="14.6898217"><ele>44.33333333333333</ele><time>2026-04-19T10:28:44.877Z</time></trkpt><trkpt lat="42.1668117" lon="14.6897133"><ele>44.5</ele><time>2026-04-19T10:28:45.877Z</time></trkpt><trkpt lat="42.1668033" lon="14.6896017"><ele>44.666666666666664</ele><time>2026-04-19T10:28:46.877Z</time></trkpt><trkpt lat="42.166795" lon="14.6894917"><ele>44.833333333333336</ele><time>2026-04-19T10:28:47.876Z</time></trkpt><trkpt lat="42.16679" lon="14.68938"><ele>45.0</ele><time>2026-04-19T10:28:48.877Z</time></trkpt><trkpt lat="42.1667783" lon="14.6892633"><ele>45.0</ele><time>2026-04-19T10:28:49.877Z</time></trkpt><trkpt lat="42.166775" lon="14.6891517"><ele>45.0</ele><time>2026-04-19T10:28:50.876Z</time></trkpt><trkpt lat="42.166765" lon="14.6890383"><ele>45.0</ele><time>2026-04-19T10:28:51.877Z</time></trkpt><trkpt lat="42.1667517" lon="14.6889267"><ele>45.0</ele><time>2026-04-19T10:28:52.877Z</time></trkpt><trkpt lat="42.16674" lon="14.6888217"><ele>45.0</ele><time>2026-04-19T10:28:53.876Z</time></trkpt><trkpt lat="42.1667283" lon="14.68871"><ele>45.0</ele><time>2026-04-19T10:28:54.877Z</time></trkpt><trkpt lat="42.1667183" lon="14.6885917"><ele>45.166666666666664</ele><time>2026-04-19T10:28:55.876Z</time></trkpt><trkpt lat="42.1667067" lon="14.68848"><ele>45.333333333333336</ele><time>2026-04-19T10:28:56.876Z</time></trkpt><trkpt lat="42.1666967" lon="14.6883667"><ele>45.5</ele><time>2026-04-19T10:28:57.877Z</time></trkpt><trkpt lat="42.16669" lon="14.6882517"><ele>45.66666666666667</ele><time>2026-04-19T10:28:58.877Z</time></trkpt><trkpt lat="42.1666817" lon="14.688135"><ele>45.833333333333336</ele><time>2026-04-19T10:28:59.876Z</time></trkpt><trkpt lat="42.1666733" lon="14.68802"><ele>46.0</ele><time>2026-04-19T10:29:00.877Z</time></trkpt><trkpt lat="42.1666683" lon="14.68791"><ele>46.0</ele><time>2026-04-19T10:29:01.877Z</time></trkpt><trkpt lat="42.1666667" lon="14.6878"><ele>46.0</ele><time>2026-04-19T10:29:02.877Z</time></trkpt><trkpt lat="42.1666583" lon="14.68769"><ele>46.0</ele><time>2026-04-19T10:29:03.876Z</time></trkpt><trkpt lat="42.1666567" lon="14.6875767"><ele>46.0</ele><time>2026-04-19T10:29:04.876Z</time></trkpt><trkpt lat="42.1666533" lon="14.6874583"><ele>46.0</ele><time>2026-04-19T10:29:05.876Z</time></trkpt><trkpt lat="42.1666533" lon="14.687345"><ele>46.0</ele><time>2026-04-19T10:29:06.876Z</time></trkpt><trkpt lat="42.1666567" lon="14.68723"><ele>46.0</ele><time>2026-04-19T10:29:07.877Z</time></trkpt><trkpt lat="42.1666583" lon="14.687115"><ele>46.0</ele><time>2026-04-19T10:29:08.877Z</time></trkpt><trkpt lat="42.1666583" lon="14.6870017"><ele>46.0</ele><time>2026-04-19T10:29:09.876Z</time></trkpt><trkpt lat="42.1666567" lon="14.6868867"><ele>46.0</ele><time>2026-04-19T10:29:10.877Z</time></trkpt><trkpt lat="42.1666567" lon="14.68677"><ele>46.0</ele><time>2026-04-19T10:29:11.876Z</time></trkpt><trkpt lat="42.1666533" lon="14.6866567"><ele>46.0</ele><time>2026-04-19T10:29:12.877Z</time></trkpt><trkpt lat="42.1666567" lon="14.686545"><ele>46.16666666666667</ele><time>2026-04-19T10:29:13.877Z</time></trkpt><trkpt lat="42.166655" lon="14.686435"><ele>46.333333333333336</ele><time>2026-04-19T10:29:14.876Z</time></trkpt><trkpt lat="42.1666517" lon="14.6863183"><ele>46.5</ele><time>2026-04-19T10:29:15.877Z</time></trkpt><trkpt lat="42.1666533" lon="14.6862083"><ele>46.666666666666664</ele><time>2026-04-19T10:29:16.877Z</time></trkpt><trkpt lat="42.16665" lon="14.686095"><ele>46.83333333333333</ele><time>2026-04-19T10:29:17.876Z</time></trkpt><trkpt lat="42.166655" lon="14.6859817"><ele>47.0</ele><time>2026-04-19T10:29:18.877Z</time></trkpt><trkpt lat="42.1666517" lon="14.6858667"><ele>47.0</ele><time>2026-04-19T10:29:19.877Z</time></trkpt><trkpt lat="42.1666517" lon="14.685755"><ele>47.0</ele><time>2026-04-19T10:29:20.877Z</time></trkpt><trkpt lat="42.166655" lon="14.6856433"><ele>47.0</ele><time>2026-04-19T10:29:21.877Z</time></trkpt><trkpt lat="42.16665" lon="14.685525"><ele>47.0</ele><time>2026-04-19T10:29:22.877Z</time></trkpt><trkpt lat="42.166645" lon="14.6854083"><ele>47.0</ele><time>2026-04-19T10:29:23.877Z</time></trkpt><trkpt lat="42.16664" lon="14.6852867"><ele>47.0</ele><time>2026-04-19T10:29:24.876Z</time></trkpt><trkpt lat="42.1666317" lon="14.68517"><ele>47.0</ele><time>2026-04-19T10:29:25.877Z</time></trkpt><trkpt lat="42.1666233" lon="14.6850567"><ele>47.0</ele><time>2026-04-19T10:29:26.877Z</time></trkpt><trkpt lat="42.1666083" lon="14.6849433"><ele>47.0</ele><time>2026-04-19T10:29:27.877Z</time></trkpt><trkpt lat="42.1665883" lon="14.68484"><ele>47.0</ele><time>2026-04-19T10:29:28.877Z</time></trkpt><trkpt lat="42.1665667" lon="14.6847433"><ele>47.0</ele><time>2026-04-19T10:29:29.877Z</time></trkpt><trkpt lat="42.16654" lon="14.6846433"><ele>47.0</ele><time>2026-04-19T10:29:30.876Z</time></trkpt><trkpt lat="42.1665133" lon="14.6845417"><ele>47.5</ele><time>2026-04-19T10:29:31.877Z</time></trkpt><trkpt lat="42.1664867" lon="14.6844433"><ele>48.0</ele><time>2026-04-19T10:29:32.877Z</time></trkpt><trkpt lat="42.1664583" lon="14.6843467"><ele>48.5</ele><time>2026-04-19T10:29:33.876Z</time></trkpt><trkpt lat="42.1664333" lon="14.6842483"><ele>49.0</ele><time>2026-04-19T10:29:34.877Z</time></trkpt><trkpt lat="42.166405" lon="14.6841517"><ele>49.50000000000001</ele><time>2026-04-19T10:29:35.877Z</time></trkpt><trkpt lat="42.16638" lon="14.6840583"><ele>50.0</ele><time>2026-04-19T10:29:36.876Z</time></trkpt><trkpt lat="42.1663533" lon="14.6839633"><ele>50.00000000000001</ele><time>2026-04-19T10:29:37.877Z</time></trkpt><trkpt lat="42.1663267" lon="14.68387"><ele>50.0</ele><time>2026-04-19T10:29:38.877Z</time></trkpt><trkpt lat="42.1663" lon="14.683775"><ele>50.0</ele><time>2026-04-19T10:29:39.877Z</time></trkpt><trkpt lat="42.1662783" lon="14.683685"><ele>50.0</ele><time>2026-04-19T10:29:40.877Z</time></trkpt><trkpt lat="42.1662517" lon="14.6835933"><ele>50.0</ele><time>2026-04-19T10:29:41.877Z</time></trkpt><trkpt lat="42.1662233" lon="14.6835"><ele>50.00000000000001</ele><time>2026-04-19T10:29:42.876Z</time></trkpt><trkpt lat="42.1661967" lon="14.68341"><ele>50.0</ele><time>2026-04-19T10:29:43.876Z</time></trkpt><trkpt lat="42.16617" lon="14.6833167"><ele>49.85714285714286</ele><time>2026-04-19T10:29:44.877Z</time></trkpt><trkpt lat="42.166145" lon="14.68322"><ele>49.714285714285715</ele><time>2026-04-19T10:29:45.877Z</time></trkpt><trkpt lat="42.16612" lon="14.6831267"><ele>49.57142857142857</ele><time>2026-04-19T10:29:46.877Z</time></trkpt><trkpt lat="42.1661067" lon="14.6830317"><ele>49.42857142857143</ele><time>2026-04-19T10:29:47.877Z</time></trkpt><trkpt lat="42.166105" lon="14.6829433"><ele>49.285714285714285</ele><time>2026-04-19T10:29:48.876Z</time></trkpt><trkpt lat="42.1661183" lon="14.6828583"><ele>49.142857142857146</ele><time>2026-04-19T10:29:49.876Z</time></trkpt><trkpt lat="42.1661383" lon="14.6827733"><ele>49.0</ele><time>2026-04-19T10:29:50.877Z</time></trkpt><trkpt lat="42.1661617" lon="14.68268"><ele>49.285714285714285</ele><time>2026-04-19T10:29:51.876Z</time></trkpt><trkpt lat="42.166175" lon="14.6825917"><ele>49.57142857142857</ele><time>2026-04-19T10:29:52.876Z</time></trkpt><trkpt lat="42.1661783" lon="14.6824967"><ele>49.85714285714286</ele><time>2026-04-19T10:29:53.877Z</time></trkpt><trkpt lat="42.166165" lon="14.682405"><ele>50.14285714285714</ele><time>2026-04-19T10:29:54.877Z</time></trkpt><trkpt lat="42.166145" lon="14.682315"><ele>50.42857142857143</ele><time>2026-04-19T10:29:55.877Z</time></trkpt><trkpt lat="42.16611" lon="14.6822367"><ele>50.714285714285715</ele><time>2026-04-19T10:29:56.876Z</time></trkpt><trkpt lat="42.166065" lon="14.6821633"><ele>51.0</ele><time>2026-04-19T10:29:57.876Z</time></trkpt><trkpt lat="42.1660117" lon="14.6821"><ele>51.0</ele><time>2026-04-19T10:29:58.877Z</time></trkpt><trkpt lat="42.16595" lon="14.6820467"><ele>51.0</ele><time>2026-04-19T10:29:59.877Z</time></trkpt><trkpt lat="42.1658867" lon="14.681995"><ele>51.0</ele><time>2026-04-19T10:30:00.877Z</time></trkpt><trkpt lat="42.165825" lon="14.681935"><ele>51.0</ele><time>2026-04-19T10:30:01.876Z</time></trkpt><trkpt lat="42.1657783" lon="14.6818617"><ele>51.0</ele><time>2026-04-19T10:30:02.877Z</time></trkpt><trkpt lat="42.165745" lon="14.6817733"><ele>51.0</ele><time>2026-04-19T10:30:03.876Z</time></trkpt><trkpt lat="42.1657233" lon="14.681675"><ele>51.0</ele><time>2026-04-19T10:30:04.877Z</time></trkpt><trkpt lat="42.16571" lon="14.6815733"><ele>51.142857142857146</ele><time>2026-04-19T10:30:05.877Z</time></trkpt><trkpt lat="42.1657" lon="14.68147"><ele>51.28571428571429</ele><time>2026-04-19T10:30:06.877Z</time></trkpt><trkpt lat="42.1656917" lon="14.6813733"><ele>51.42857142857143</ele><time>2026-04-19T10:30:07.877Z</time></trkpt><trkpt lat="42.1656833" lon="14.6812717"><ele>51.57142857142857</ele><time>2026-04-19T10:30:08.877Z</time></trkpt><trkpt lat="42.1656783" lon="14.68117"><ele>51.714285714285715</ele><time>2026-04-19T10:30:09.877Z</time></trkpt><trkpt lat="42.1656717" lon="14.68107"><ele>51.857142857142854</ele><time>2026-04-19T10:30:10.877Z</time></trkpt><trkpt lat="42.1656683" lon="14.68097"><ele>52.0</ele><time>2026-04-19T10:30:11.876Z</time></trkpt><trkpt lat="42.165665" lon="14.6808733"><ele>52.49999999999999</ele><time>2026-04-19T10:30:12.877Z</time></trkpt><trkpt lat="42.1656583" lon="14.6807767"><ele>53.0</ele><time>2026-04-19T10:30:13.877Z</time></trkpt><trkpt lat="42.1656517" lon="14.68068"><ele>53.5</ele><time>2026-04-19T10:30:14.877Z</time></trkpt><trkpt lat="42.1656467" lon="14.6805733"><ele>54.0</ele><time>2026-04-19T10:30:15.876Z</time></trkpt><trkpt lat="42.1656367" lon="14.6804683"><ele>54.49999999999999</ele><time>2026-04-19T10:30:16.877Z</time></trkpt><trkpt lat="42.16563" lon="14.68037"><ele>55.0</ele><time>2026-04-19T10:30:17.877Z</time></trkpt><trkpt lat="42.1656233" lon="14.680265"><ele>55.166666666666664</ele><time>2026-04-19T10:30:18.876Z</time></trkpt><trkpt lat="42.1656133" lon="14.6801617"><ele>55.33333333333333</ele><time>2026-04-19T10:30:19.877Z</time></trkpt><trkpt lat="42.165605" lon="14.68006"><ele>55.5</ele><time>2026-04-19T10:30:20.877Z</time></trkpt><trkpt lat="42.1655983" lon="14.67995"><ele>55.66666666666667</ele><time>2026-04-19T10:30:21.877Z</time></trkpt><trkpt lat="42.1655917" lon="14.6798433"><ele>55.833333333333336</ele><time>2026-04-19T10:30:22.877Z</time></trkpt><trkpt lat="42.1655867" lon="14.6797367"><ele>56.0</ele><time>2026-04-19T10:30:23.876Z</time></trkpt><trkpt lat="42.165575" lon="14.6796283"><ele>56.00000000000001</ele><time>2026-04-19T10:30:24.876Z</time></trkpt><trkpt lat="42.1655617" lon="14.6795233"><ele>56.0</ele><time>2026-04-19T10:30:25.876Z</time></trkpt><trkpt lat="42.1655483" lon="14.6794217"><ele>56.0</ele><time>2026-04-19T10:30:26.876Z</time></trkpt><trkpt lat="42.1655317" lon="14.67932"><ele>56.0</ele><time>2026-04-19T10:30:27.877Z</time></trkpt><trkpt lat="42.1655133" lon="14.6792217"><ele>56.00000000000001</ele><time>2026-04-19T10:30:28.877Z</time></trkpt><trkpt lat="42.1654967" lon="14.6791217"><ele>56.0</ele><time>2026-04-19T10:30:29.877Z</time></trkpt><trkpt lat="42.1654783" lon="14.67902"><ele>56.16666666666667</ele><time>2026-04-19T10:30:30.877Z</time></trkpt><trkpt lat="42.1654617" lon="14.6789133"><ele>56.333333333333336</ele><time>2026-04-19T10:30:31.877Z</time></trkpt><trkpt lat="42.1654433" lon="14.6788033"><ele>56.5</ele><time>2026-04-19T10:30:32.876Z</time></trkpt><trkpt lat="42.1654267" lon="14.6786967"><ele>56.66666666666667</ele><time>2026-04-19T10:30:33.877Z</time></trkpt><trkpt lat="42.1654117" lon="14.678585"><ele>56.833333333333336</ele><time>2026-04-19T10:30:34.877Z</time></trkpt><trkpt lat="42.1653867" lon="14.67847"><ele>57.0</ele><time>2026-04-19T10:30:35.877Z</time></trkpt><trkpt lat="42.165365" lon="14.6783617"><ele>56.333333333333336</ele><time>2026-04-19T10:30:36.876Z</time></trkpt><trkpt lat="42.165345" lon="14.6782483"><ele>55.66666666666667</ele><time>2026-04-19T10:30:37.877Z</time></trkpt><trkpt lat="42.1653283" lon="14.6781317"><ele>55.0</ele><time>2026-04-19T10:30:38.876Z</time></trkpt><trkpt lat="42.16531" lon="14.6780217"><ele>54.333333333333336</ele><time>2026-04-19T10:30:39.876Z</time></trkpt><trkpt lat="42.165295" lon="14.67791"><ele>53.66666666666667</ele><time>2026-04-19T10:30:40.877Z</time></trkpt><trkpt lat="42.1652733" lon="14.6778017"><ele>53.0</ele><time>2026-04-19T10:30:41.877Z</time></trkpt><trkpt lat="42.165255" lon="14.6776983"><ele>52.833333333333336</ele><time>2026-04-19T10:30:42.877Z</time></trkpt><trkpt lat="42.165235" lon="14.6775983"><ele>52.66666666666667</ele><time>2026-04-19T10:30:43.877Z</time></trkpt><trkpt lat="42.16522" lon="14.6774967"><ele>52.5</ele><time>2026-04-19T10:30:44.877Z</time></trkpt><trkpt lat="42.1652" lon="14.6773967"><ele>52.33333333333333</ele><time>2026-04-19T10:30:45.877Z</time></trkpt><trkpt lat="42.16519" lon="14.6773"><ele>52.166666666666664</ele><time>2026-04-19T10:30:46.877Z</time></trkpt><trkpt lat="42.16518" lon="14.6771983"><ele>52.0</ele><time>2026-04-19T10:30:47.876Z</time></trkpt><trkpt lat="42.1651783" lon="14.6771"><ele>52.0</ele><time>2026-04-19T10:30:48.876Z</time></trkpt><trkpt lat="42.16518" lon="14.6770017"><ele>52.0</ele><time>2026-04-19T10:30:49.876Z</time></trkpt><trkpt lat="42.1651783" lon="14.6769033"><ele>52.0</ele><time>2026-04-19T10:30:50.876Z</time></trkpt><trkpt lat="42.1651733" lon="14.6768067"><ele>52.0</ele><time>2026-04-19T10:30:51.877Z</time></trkpt><trkpt lat="42.165165" lon="14.67671"><ele>52.0</ele><time>2026-04-19T10:30:52.877Z</time></trkpt><trkpt lat="42.1651633" lon="14.6766017"><ele>52.0</ele><time>2026-04-19T10:30:53.877Z</time></trkpt><trkpt lat="42.16516" lon="14.6765083"><ele>52.0</ele><time>2026-04-19T10:30:54.877Z</time></trkpt><trkpt lat="42.16516" lon="14.6764117"><ele>52.71428571428571</ele><time>2026-04-19T10:30:55.877Z</time></trkpt><trkpt lat="42.1651533" lon="14.6763183"><ele>53.42857142857143</ele><time>2026-04-19T10:30:56.876Z</time></trkpt><trkpt lat="42.165145" lon="14.6762233"><ele>54.14285714285714</ele><time>2026-04-19T10:30:57.877Z</time></trkpt><trkpt lat="42.1651383" lon="14.676135"><ele>54.857142857142854</ele><time>2026-04-19T10:30:58.877Z</time></trkpt><trkpt lat="42.165135" lon="14.676035"><ele>55.57142857142857</ele><time>2026-04-19T10:30:59.876Z</time></trkpt><trkpt lat="42.16513" lon="14.6759417"><ele>56.285714285714285</ele><time>2026-04-19T10:31:00.877Z</time></trkpt><trkpt lat="42.1651283" lon="14.67585"><ele>57.0</ele><time>2026-04-19T10:31:01.876Z</time></trkpt><trkpt lat="42.16513" lon="14.6757633"><ele>57.75</ele><time>2026-04-19T10:31:02.877Z</time></trkpt><trkpt lat="42.16512" lon="14.6756083"><ele>58.5</ele><time>2026-04-19T10:31:04.877Z</time></trkpt><trkpt lat="42.1651183" lon="14.6754467"><ele>59.25</ele><time>2026-04-19T10:31:06.877Z</time></trkpt><trkpt lat="42.1651117" lon="14.6752817"><ele>60.0</ele><time>2026-04-19T10:31:08.876Z</time></trkpt><trkpt lat="42.165105" lon="14.67513"><ele>60.0</ele><time>2026-04-19T10:31:10.876Z</time></trkpt><trkpt lat="42.1650983" lon="14.674985"><ele>60.0</ele><time>2026-04-19T10:31:12.876Z</time></trkpt><trkpt lat="42.1650933" lon="14.6748617"><ele>60.0</ele><time>2026-04-19T10:31:14.877Z</time></trkpt><trkpt lat="42.1650833" lon="14.6747567"><ele>60.0</ele><time>2026-04-19T10:31:16.877Z</time></trkpt><trkpt lat="42.1650767" lon="14.6746433"><ele>60.0</ele><time>2026-04-19T10:31:18.877Z</time></trkpt><trkpt lat="42.1650767" lon="14.6745383"><ele>60.0</ele><time>2026-04-19T10:31:20.876Z</time></trkpt><trkpt lat="42.1650667" lon="14.6744283"><ele>60.6</ele><time>2026-04-19T10:31:22.877Z</time></trkpt><trkpt lat="42.1650517" lon="14.67429"><ele>61.2</ele><time>2026-04-19T10:31:24.876Z</time></trkpt><trkpt lat="42.16504" lon="14.6741483"><ele>61.8</ele><time>2026-04-19T10:31:26.877Z</time></trkpt><trkpt lat="42.1650367" lon="14.6740133"><ele>62.4</ele><time>2026-04-19T10:31:28.877Z</time></trkpt><trkpt lat="42.16504" lon="14.6738767"><ele>63.0</ele><time>2026-04-19T10:31:30.877Z</time></trkpt><trkpt lat="42.1650367" lon="14.673735"><ele>63.4</ele><time>2026-04-19T10:31:32.877Z</time></trkpt><trkpt lat="42.1650317" lon="14.67359"><ele>63.8</ele><time>2026-04-19T10:31:34.876Z</time></trkpt><trkpt lat="42.1650283" lon="14.6734367"><ele>64.2</ele><time>2026-04-19T10:31:36.877Z</time></trkpt><trkpt lat="42.1650217" lon="14.6732917"><ele>64.6</ele><time>2026-04-19T10:31:38.877Z</time></trkpt><trkpt lat="42.1650183" lon="14.6731467"><ele>65.0</ele><time>2026-04-19T10:31:40.877Z</time></trkpt><trkpt lat="42.1650083" lon="14.6730067"><ele>65.0</ele><time>2026-04-19T10:31:42.877Z</time></trkpt><trkpt lat="42.1650017" lon="14.6728533"><ele>65.0</ele><time>2026-04-19T10:31:44.877Z</time></trkpt><trkpt lat="42.1649967" lon="14.672705"><ele>65.0</ele><time>2026-04-19T10:31:46.877Z</time></trkpt><trkpt lat="42.1649933" lon="14.6725433"><ele>65.0</ele><time>2026-04-19T10:31:48.876Z</time></trkpt><trkpt lat="42.1649817" lon="14.6723733"><ele>65.14285714285715</ele><time>2026-04-19T10:31:50.876Z</time></trkpt><trkpt lat="42.1649733" lon="14.6722883"><ele>65.28571428571429</ele><time>2026-04-19T10:31:51.876Z</time></trkpt><trkpt lat="42.1649683" lon="14.6722017"><ele>65.42857142857143</ele><time>2026-04-19T10:31:52.877Z</time></trkpt><trkpt lat="42.1649633" lon="14.6721083"><ele>65.57142857142858</ele><time>2026-04-19T10:31:53.877Z</time></trkpt><trkpt lat="42.1649617" lon="14.6720183"><ele>65.71428571428572</ele><time>2026-04-19T10:31:54.877Z</time></trkpt><trkpt lat="42.1649583" lon="14.6719333"><ele>65.85714285714286</ele><time>2026-04-19T10:31:55.877Z</time></trkpt><trkpt lat="42.1649583" lon="14.671845"><ele>66.0</ele><time>2026-04-19T10:31:56.877Z</time></trkpt><trkpt lat="42.1649533" lon="14.6717533"><ele>66.42857142857143</ele><time>2026-04-19T10:31:57.877Z</time></trkpt><trkpt lat="42.1649467" lon="14.6716567"><ele>66.85714285714286</ele><time>2026-04-19T10:31:58.877Z</time></trkpt><trkpt lat="42.1649433" lon="14.6715617"><ele>67.28571428571429</ele><time>2026-04-19T10:31:59.877Z</time></trkpt><trkpt lat="42.1649417" lon="14.6714683"><ele>67.71428571428572</ele><time>2026-04-19T10:32:00.877Z</time></trkpt><trkpt lat="42.1649417" lon="14.671375"><ele>68.14285714285715</ele><time>2026-04-19T10:32:01.876Z</time></trkpt><trkpt lat="42.1649367" lon="14.6712833"><ele>68.57142857142857</ele><time>2026-04-19T10:32:02.877Z</time></trkpt><trkpt lat="42.1649367" lon="14.6711817"><ele>69.0</ele><time>2026-04-19T10:32:03.877Z</time></trkpt><trkpt lat="42.1649367" lon="14.6710833"><ele>69.0</ele><time>2026-04-19T10:32:04.877Z</time></trkpt><trkpt lat="42.1649317" lon="14.6709867"><ele>69.0</ele><time>2026-04-19T10:32:05.877Z</time></trkpt><trkpt lat="42.1649233" lon="14.670885"><ele>69.0</ele><time>2026-04-19T10:32:06.876Z</time></trkpt><trkpt lat="42.1649133" lon="14.6707833"><ele>69.0</ele><time>2026-04-19T10:32:07.877Z</time></trkpt><trkpt lat="42.16491" lon="14.6706867"><ele>69.0</ele><time>2026-04-19T10:32:08.877Z</time></trkpt><trkpt lat="42.1649067" lon="14.67059"><ele>69.0</ele><time>2026-04-19T10:32:09.877Z</time></trkpt><trkpt lat="42.1649017" lon="14.67049"><ele>69.0</ele><time>2026-04-19T10:32:10.876Z</time></trkpt><trkpt lat="42.1649" lon="14.67039"><ele>69.0</ele><time>2026-04-19T10:32:11.877Z</time></trkpt><trkpt lat="42.1649033" lon="14.670285"><ele>69.0</ele><time>2026-04-19T10:32:12.876Z</time></trkpt><trkpt lat="42.1649017" lon="14.6701883"><ele>69.0</ele><time>2026-04-19T10:32:13.876Z</time></trkpt><trkpt lat="42.1649017" lon="14.6700917"><ele>69.0</ele><time>2026-04-19T10:32:14.876Z</time></trkpt><trkpt lat="42.1649017" lon="14.6699917"><ele>69.0</ele><time>2026-04-19T10:32:15.877Z</time></trkpt><trkpt lat="42.1649033" lon="14.6698967"><ele>69.0</ele><time>2026-04-19T10:32:16.877Z</time></trkpt><trkpt lat="42.1648983" lon="14.6697967"><ele>69.0</ele><time>2026-04-19T10:32:17.877Z</time></trkpt><trkpt lat="42.1648967" lon="14.6697017"><ele>68.85714285714286</ele><time>2026-04-19T10:32:18.877Z</time></trkpt><trkpt lat="42.1648967" lon="14.6696033"><ele>68.71428571428572</ele><time>2026-04-19T10:32:19.877Z</time></trkpt><trkpt lat="42.164895" lon="14.6695083"><ele>68.57142857142857</ele><time>2026-04-19T10:32:20.877Z</time></trkpt><trkpt lat="42.164895" lon="14.6694133"><ele>68.42857142857143</ele><time>2026-04-19T10:32:21.877Z</time></trkpt><trkpt lat="42.1648983" lon="14.6693183"><ele>68.28571428571428</ele><time>2026-04-19T10:32:22.876Z</time></trkpt><trkpt lat="42.1648983" lon="14.6692183"><ele>68.14285714285714</ele><time>2026-04-19T10:32:23.877Z</time></trkpt><trkpt lat="42.1648967" lon="14.6691233"><ele>68.0</ele><time>2026-04-19T10:32:24.876Z</time></trkpt><trkpt lat="42.1649" lon="14.6690283"><ele>68.28571428571428</ele><time>2026-04-19T10:32:25.877Z</time></trkpt><trkpt lat="42.1649067" lon="14.6689333"><ele>68.57142857142857</ele><time>2026-04-19T10:32:26.877Z</time></trkpt><trkpt lat="42.1649167" lon="14.6688367"><ele>68.85714285714286</ele><time>2026-04-19T10:32:27.877Z</time></trkpt><trkpt lat="42.16493" lon="14.6687417"><ele>69.14285714285714</ele><time>2026-04-19T10:32:28.876Z</time></trkpt><trkpt lat="42.1649467" lon="14.668645"><ele>69.42857142857143</ele><time>2026-04-19T10:32:29.877Z</time></trkpt><trkpt lat="42.1649633" lon="14.6685533"><ele>69.71428571428571</ele><time>2026-04-19T10:32:30.877Z</time></trkpt><trkpt lat="42.1649783" lon="14.6684633"><ele>70.0</ele><time>2026-04-19T10:32:31.877Z</time></trkpt><trkpt lat="42.1649933" lon="14.6683733"><ele>70.28571428571429</ele><time>2026-04-19T10:32:32.876Z</time></trkpt><trkpt lat="42.1650067" lon="14.66828"><ele>70.57142857142857</ele><time>2026-04-19T10:32:33.876Z</time></trkpt><trkpt lat="42.1650233" lon="14.668185"><ele>70.85714285714286</ele><time>2026-04-19T10:32:34.876Z</time></trkpt><trkpt lat="42.16504" lon="14.6680917"><ele>71.14285714285714</ele><time>2026-04-19T10:32:35.877Z</time></trkpt><trkpt lat="42.1650567" lon="14.6679933"><ele>71.42857142857143</ele><time>2026-04-19T10:32:36.877Z</time></trkpt><trkpt lat="42.165075" lon="14.6678967"><ele>71.71428571428572</ele><time>2026-04-19T10:32:37.876Z</time></trkpt><trkpt lat="42.1650933" lon="14.6678017"><ele>72.0</ele><time>2026-04-19T10:32:38.877Z</time></trkpt><trkpt lat="42.165105" lon="14.6677067"><ele>72.14285714285715</ele><time>2026-04-19T10:32:39.876Z</time></trkpt><trkpt lat="42.1651167" lon="14.6676067"><ele>72.28571428571429</ele><time>2026-04-19T10:32:40.877Z</time></trkpt><trkpt lat="42.1651333" lon="14.6675117"><ele>72.42857142857143</ele><time>2026-04-19T10:32:41.876Z</time></trkpt><trkpt lat="42.16515" lon="14.6674217"><ele>72.57142857142858</ele><time>2026-04-19T10:32:42.876Z</time></trkpt><trkpt lat="42.1651667" lon="14.6673317"><ele>72.71428571428572</ele><time>2026-04-19T10:32:43.877Z</time></trkpt><trkpt lat="42.1651833" lon="14.66724"><ele>72.85714285714286</ele><time>2026-04-19T10:32:44.877Z</time></trkpt><trkpt lat="42.1651967" lon="14.6671533"><ele>73.0</ele><time>2026-04-19T10:32:45.876Z</time></trkpt><trkpt lat="42.1652117" lon="14.6670583"><ele>73.0</ele><time>2026-04-19T10:32:46.876Z</time></trkpt><trkpt lat="42.165225" lon="14.6669717"><ele>73.0</ele><time>2026-04-19T10:32:47.877Z</time></trkpt><trkpt lat="42.1652417" lon="14.6668817"><ele>73.0</ele><time>2026-04-19T10:32:48.877Z</time></trkpt><trkpt lat="42.1652567" lon="14.666795"><ele>73.0</ele><time>2026-04-19T10:32:49.876Z</time></trkpt><trkpt lat="42.165275" lon="14.6667083"><ele>73.0</ele><time>2026-04-19T10:32:50.876Z</time></trkpt><trkpt lat="42.16529" lon="14.66662"><ele>73.0</ele><time>2026-04-19T10:32:51.877Z</time></trkpt><trkpt lat="42.1653083" lon="14.6665317"><ele>73.0</ele><time>2026-04-19T10:32:52.877Z</time></trkpt><trkpt lat="42.165325" lon="14.6664467"><ele>73.16666666666666</ele><time>2026-04-19T10:32:53.876Z</time></trkpt><trkpt lat="42.1653567" lon="14.6662817"><ele>73.33333333333333</ele><time>2026-04-19T10:32:55.876Z</time></trkpt><trkpt lat="42.165375" lon="14.66619"><ele>73.5</ele><time>2026-04-19T10:32:56.877Z</time></trkpt><trkpt lat="42.165395" lon="14.6661"><ele>73.66666666666667</ele><time>2026-04-19T10:32:57.876Z</time></trkpt><trkpt lat="42.1654167" lon="14.6660133"><ele>73.83333333333334</ele><time>2026-04-19T10:32:58.877Z</time></trkpt><trkpt lat="42.1654417" lon="14.6659217"><ele>74.0</ele><time>2026-04-19T10:32:59.876Z</time></trkpt><trkpt lat="42.1654683" lon="14.66583"><ele>74.0</ele><time>2026-04-19T10:33:00.877Z</time></trkpt><trkpt lat="42.1654933" lon="14.6657383"><ele>74.0</ele><time>2026-04-19T10:33:01.877Z</time></trkpt><trkpt lat="42.1655167" lon="14.6656517"><ele>74.0</ele><time>2026-04-19T10:33:02.877Z</time></trkpt><trkpt lat="42.1655417" lon="14.6655667"><ele>74.0</ele><time>2026-04-19T10:33:03.877Z</time></trkpt><trkpt lat="42.1655667" lon="14.6654783"><ele>74.0</ele><time>2026-04-19T10:33:04.877Z</time></trkpt><trkpt lat="42.1655883" lon="14.6653917"><ele>74.0</ele><time>2026-04-19T10:33:05.877Z</time></trkpt><trkpt lat="42.165615" lon="14.6653"><ele>74.0</ele><time>2026-04-19T10:33:06.877Z</time></trkpt><trkpt lat="42.1656367" lon="14.665215"><ele>74.0</ele><time>2026-04-19T10:33:07.877Z</time></trkpt><trkpt lat="42.1656567" lon="14.6651283"><ele>74.0</ele><time>2026-04-19T10:33:08.876Z</time></trkpt><trkpt lat="42.1656767" lon="14.6650383"><ele>74.0</ele><time>2026-04-19T10:33:09.876Z</time></trkpt><trkpt lat="42.165705" lon="14.6649517"><ele>74.0</ele><time>2026-04-19T10:33:10.877Z</time></trkpt><trkpt lat="42.1657333" lon="14.664865"><ele>74.0</ele><time>2026-04-19T10:33:11.876Z</time></trkpt><trkpt lat="42.16576" lon="14.6647767"><ele>74.0</ele><time>2026-04-19T10:33:12.876Z</time></trkpt><trkpt lat="42.1657867" lon="14.6646883"><ele>74.0</ele><time>2026-04-19T10:33:13.876Z</time></trkpt><trkpt lat="42.1658117" lon="14.6645967"><ele>74.0</ele><time>2026-04-19T10:33:14.877Z</time></trkpt><trkpt lat="42.1658367" lon="14.6645067"><ele>74.0</ele><time>2026-04-19T10:33:15.876Z</time></trkpt><trkpt lat="42.1658583" lon="14.6644183"><ele>74.0</ele><time>2026-04-19T10:33:16.877Z</time></trkpt><trkpt lat="42.1658833" lon="14.6643333"><ele>74.0</ele><time>2026-04-19T10:33:17.877Z</time></trkpt><trkpt lat="42.1659167" lon="14.6642483"><ele>74.0</ele><time>2026-04-19T10:33:18.876Z</time></trkpt><trkpt lat="42.1659433" lon="14.6641683"><ele>74.0</ele><time>2026-04-19T10:33:19.876Z</time></trkpt><trkpt lat="42.16597" lon="14.6640833"><ele>74.0</ele><time>2026-04-19T10:33:20.877Z</time></trkpt><trkpt lat="42.1659967" lon="14.6639967"><ele>74.14285714285714</ele><time>2026-04-19T10:33:21.876Z</time></trkpt><trkpt lat="42.16602" lon="14.6639117"><ele>74.28571428571428</ele><time>2026-04-19T10:33:22.877Z</time></trkpt><trkpt lat="42.166045" lon="14.6638233"><ele>74.42857142857142</ele><time>2026-04-19T10:33:23.877Z</time></trkpt><trkpt lat="42.1660733" lon="14.6637183"><ele>74.57142857142857</ele><time>2026-04-19T10:33:24.877Z</time></trkpt><trkpt lat="42.1661033" lon="14.66363"><ele>74.71428571428571</ele><time>2026-04-19T10:33:25.876Z</time></trkpt><trkpt lat="42.1661317" lon="14.6635433"><ele>74.85714285714285</ele><time>2026-04-19T10:33:26.877Z</time></trkpt><trkpt lat="42.1661583" lon="14.6634583"><ele>75.0</ele><time>2026-04-19T10:33:27.876Z</time></trkpt><trkpt lat="42.1661833" lon="14.6633717"><ele>75.0</ele><time>2026-04-19T10:33:28.876Z</time></trkpt><trkpt lat="42.16621" lon="14.66328"><ele>75.0</ele><time>2026-04-19T10:33:29.877Z</time></trkpt><trkpt lat="42.16624" lon="14.6631933"><ele>75.0</ele><time>2026-04-19T10:33:30.877Z</time></trkpt><trkpt lat="42.1662633" lon="14.663105"><ele>75.0</ele><time>2026-04-19T10:33:31.876Z</time></trkpt><trkpt lat="42.1662933" lon="14.6630167"><ele>75.0</ele><time>2026-04-19T10:33:32.877Z</time></trkpt><trkpt lat="42.1663233" lon="14.662935"><ele>75.0</ele><time>2026-04-19T10:33:33.877Z</time></trkpt><trkpt lat="42.166385" lon="14.6627867"><ele>75.2</ele><time>2026-04-19T10:33:35.877Z</time></trkpt><trkpt lat="42.166465" lon="14.6626767"><ele>75.4</ele><time>2026-04-19T10:33:37.876Z</time></trkpt><trkpt lat="42.1665567" lon="14.66259"><ele>75.6</ele><time>2026-04-19T10:33:39.877Z</time></trkpt><trkpt lat="42.166615" lon="14.6624767"><ele>75.8</ele><time>2026-04-19T10:33:41.876Z</time></trkpt><trkpt lat="42.16663" lon="14.6623217"><ele>76.0</ele><time>2026-04-19T10:33:43.877Z</time></trkpt><trkpt lat="42.16662" lon="14.6622333"><ele>75.71428571428571</ele><time>2026-04-19T10:33:44.877Z</time></trkpt><trkpt lat="42.16661" lon="14.6621367"><ele>75.42857142857143</ele><time>2026-04-19T10:33:45.877Z</time></trkpt><trkpt lat="42.1666083" lon="14.662045"><ele>75.14285714285714</ele><time>2026-04-19T10:33:46.876Z</time></trkpt><trkpt lat="42.166615" lon="14.6619517"><ele>74.85714285714286</ele><time>2026-04-19T10:33:47.876Z</time></trkpt><trkpt lat="42.1666333" lon="14.661855"><ele>74.57142857142857</ele><time>2026-04-19T10:33:48.876Z</time></trkpt><trkpt lat="42.1666567" lon="14.6617617"><ele>74.28571428571429</ele><time>2026-04-19T10:33:49.877Z</time></trkpt><trkpt lat="42.1666833" lon="14.661665"><ele>74.0</ele><time>2026-04-19T10:33:50.877Z</time></trkpt><trkpt lat="42.1667067" lon="14.6615733"><ele>74.0</ele><time>2026-04-19T10:33:51.877Z</time></trkpt><trkpt lat="42.166735" lon="14.661485"><ele>74.0</ele><time>2026-04-19T10:33:52.877Z</time></trkpt><trkpt lat="42.1667633" lon="14.6613933"><ele>74.0</ele><time>2026-04-19T10:33:53.877Z</time></trkpt><trkpt lat="42.16679" lon="14.6612983"><ele>74.0</ele><time>2026-04-19T10:33:54.876Z</time></trkpt><trkpt lat="42.1668167" lon="14.66121"><ele>74.0</ele><time>2026-04-19T10:33:55.876Z</time></trkpt><trkpt lat="42.1668417" lon="14.6611167"><ele>74.0</ele><time>2026-04-19T10:33:56.876Z</time></trkpt><trkpt lat="42.1668683" lon="14.6610267"><ele>74.0</ele><time>2026-04-19T10:33:57.877Z</time></trkpt><trkpt lat="42.166895" lon="14.6609367"><ele>74.42857142857143</ele><time>2026-04-19T10:33:58.876Z</time></trkpt><trkpt lat="42.16692" lon="14.66084"><ele>74.85714285714286</ele><time>2026-04-19T10:33:59.877Z</time></trkpt><trkpt lat="42.1669483" lon="14.6607483"><ele>75.28571428571428</ele><time>2026-04-19T10:34:00.876Z</time></trkpt><trkpt lat="42.166975" lon="14.6606633"><ele>75.71428571428572</ele><time>2026-04-19T10:34:01.877Z</time></trkpt><trkpt lat="42.167" lon="14.660575"><ele>76.14285714285714</ele><time>2026-04-19T10:34:02.877Z</time></trkpt><trkpt lat="42.1670267" lon="14.6604817"><ele>76.57142857142857</ele><time>2026-04-19T10:34:03.877Z</time></trkpt><trkpt lat="42.1670533" lon="14.6603867"><ele>77.0</ele><time>2026-04-19T10:34:04.877Z</time></trkpt><trkpt lat="42.16708" lon="14.66029"><ele>77.28571428571429</ele><time>2026-04-19T10:34:05.877Z</time></trkpt><trkpt lat="42.1671083" lon="14.660195"><ele>77.57142857142857</ele><time>2026-04-19T10:34:06.877Z</time></trkpt><trkpt lat="42.1671367" lon="14.6601033"><ele>77.85714285714286</ele><time>2026-04-19T10:34:07.877Z</time></trkpt><trkpt lat="42.167165" lon="14.6600117"><ele>78.14285714285714</ele><time>2026-04-19T10:34:08.877Z</time></trkpt><trkpt lat="42.1671883" lon="14.65993"><ele>78.42857142857143</ele><time>2026-04-19T10:34:09.877Z</time></trkpt><trkpt lat="42.16721" lon="14.6598467"><ele>78.71428571428572</ele><time>2026-04-19T10:34:10.877Z</time></trkpt><trkpt lat="42.1672333" lon="14.6597617"><ele>79.0</ele><time>2026-04-19T10:34:11.877Z</time></trkpt><trkpt lat="42.1672633" lon="14.6596717"><ele>79.0</ele><time>2026-04-19T10:34:12.877Z</time></trkpt><trkpt lat="42.1672933" lon="14.6595767"><ele>79.0</ele><time>2026-04-19T10:34:13.877Z</time></trkpt><trkpt lat="42.1673233" lon="14.6594767"><ele>79.0</ele><time>2026-04-19T10:34:14.877Z</time></trkpt><trkpt lat="42.1673567" lon="14.6593833"><ele>79.0</ele><time>2026-04-19T10:34:15.877Z</time></trkpt><trkpt lat="42.1673817" lon="14.6592917"><ele>79.0</ele><time>2026-04-19T10:34:16.876Z</time></trkpt><trkpt lat="42.1674067" lon="14.6591983"><ele>79.0</ele><time>2026-04-19T10:34:17.877Z</time></trkpt><trkpt lat="42.1674317" lon="14.6591067"><ele>78.71428571428572</ele><time>2026-04-19T10:34:18.877Z</time></trkpt><trkpt lat="42.1674583" lon="14.6590167"><ele>78.42857142857143</ele><time>2026-04-19T10:34:19.877Z</time></trkpt><trkpt lat="42.1674833" lon="14.6589267"><ele>78.14285714285714</ele><time>2026-04-19T10:34:20.876Z</time></trkpt><trkpt lat="42.167505" lon="14.6588383"><ele>77.85714285714286</ele><time>2026-04-19T10:34:21.876Z</time></trkpt><trkpt lat="42.16753" lon="14.6587517"><ele>77.57142857142857</ele><time>2026-04-19T10:34:22.877Z</time></trkpt><trkpt lat="42.16756" lon="14.658665"><ele>77.28571428571429</ele><time>2026-04-19T10:34:23.876Z</time></trkpt><trkpt lat="42.1675817" lon="14.6585767"><ele>77.0</ele><time>2026-04-19T10:34:24.877Z</time></trkpt><trkpt lat="42.167605" lon="14.6584967"><ele>77.0</ele><time>2026-04-19T10:34:25.877Z</time></trkpt><trkpt lat="42.16763" lon="14.6584033"><ele>77.0</ele><time>2026-04-19T10:34:26.877Z</time></trkpt><trkpt lat="42.1676517" lon="14.65831"><ele>77.0</ele><time>2026-04-19T10:34:27.876Z</time></trkpt><trkpt lat="42.16767" lon="14.6582117"><ele>77.0</ele><time>2026-04-19T10:34:28.877Z</time></trkpt><trkpt lat="42.1676867" lon="14.658115"><ele>77.0</ele><time>2026-04-19T10:34:29.876Z</time></trkpt><trkpt lat="42.1677033" lon="14.6580217"><ele>77.0</ele><time>2026-04-19T10:34:30.877Z</time></trkpt><trkpt lat="42.1677183" lon="14.6579233"><ele>77.0</ele><time>2026-04-19T10:34:31.877Z</time></trkpt><trkpt lat="42.1677267" lon="14.6578233"><ele>77.42857142857143</ele><time>2026-04-19T10:34:32.876Z</time></trkpt><trkpt lat="42.1677367" lon="14.6577317"><ele>77.85714285714286</ele><time>2026-04-19T10:34:33.877Z</time></trkpt><trkpt lat="42.1677417" lon="14.6576367"><ele>78.28571428571428</ele><time>2026-04-19T10:34:34.877Z</time></trkpt><trkpt lat="42.1677433" lon="14.65754"><ele>78.71428571428572</ele><time>2026-04-19T10:34:35.876Z</time></trkpt><trkpt lat="42.16775" lon="14.6574467"><ele>79.14285714285714</ele><time>2026-04-19T10:34:36.876Z</time></trkpt><trkpt lat="42.1677533" lon="14.657355"><ele>79.57142857142857</ele><time>2026-04-19T10:34:37.877Z</time></trkpt><trkpt lat="42.1677567" lon="14.6572583"><ele>80.0</ele><time>2026-04-19T10:34:38.876Z</time></trkpt><trkpt lat="42.167755" lon="14.65716"><ele>80.0</ele><time>2026-04-19T10:34:39.876Z</time></trkpt><trkpt lat="42.16775" lon="14.6570583"><ele>80.0</ele><time>2026-04-19T10:34:40.877Z</time></trkpt><trkpt lat="42.1677433" lon="14.656955"><ele>80.0</ele><time>2026-04-19T10:34:41.877Z</time></trkpt><trkpt lat="42.1677333" lon="14.65685"><ele>80.0</ele><time>2026-04-19T10:34:42.877Z</time></trkpt><trkpt lat="42.1677217" lon="14.6567467"><ele>80.0</ele><time>2026-04-19T10:34:43.876Z</time></trkpt><trkpt lat="42.1677067" lon="14.6566483"><ele>80.0</ele><time>2026-04-19T10:34:44.877Z</time></trkpt><trkpt lat="42.16769" lon="14.656545"><ele>80.0</ele><time>2026-04-19T10:34:45.877Z</time></trkpt><trkpt lat="42.1676783" lon="14.6564417"><ele>80.0</ele><time>2026-04-19T10:34:46.877Z</time></trkpt><trkpt lat="42.1676633" lon="14.6563367"><ele>80.0</ele><time>2026-04-19T10:34:47.877Z</time></trkpt><trkpt lat="42.167645" lon="14.6562283"><ele>80.0</ele><time>2026-04-19T10:34:48.877Z</time></trkpt><trkpt lat="42.1676167" lon="14.65612"><ele>80.0</ele><time>2026-04-19T10:34:49.876Z</time></trkpt><trkpt lat="42.1675833" lon="14.6560117"><ele>80.0</ele><time>2026-04-19T10:34:50.877Z</time></trkpt><trkpt lat="42.16755" lon="14.6559017"><ele>78.66666666666667</ele><time>2026-04-19T10:34:51.876Z</time></trkpt><trkpt lat="42.1675133" lon="14.655795"><ele>77.33333333333334</ele><time>2026-04-19T10:34:52.877Z</time></trkpt><trkpt lat="42.1674767" lon="14.6556883"><ele>76.0</ele><time>2026-04-19T10:34:53.877Z</time></trkpt><trkpt lat="42.1674433" lon="14.6555883"><ele>74.66666666666667</ele><time>2026-04-19T10:34:54.876Z</time></trkpt><trkpt lat="42.1674033" lon="14.6554817"><ele>73.33333333333333</ele><time>2026-04-19T10:34:55.877Z</time></trkpt><trkpt lat="42.16736" lon="14.655375"><ele>72.0</ele><time>2026-04-19T10:34:56.877Z</time></trkpt><trkpt lat="42.1673083" lon="14.6552733"><ele>69.6</ele><time>2026-04-19T10:34:57.876Z</time></trkpt><trkpt lat="42.1672517" lon="14.655165"><ele>67.2</ele><time>2026-04-19T10:34:58.877Z</time></trkpt><trkpt lat="42.16719" lon="14.655055"><ele>64.8</ele><time>2026-04-19T10:34:59.876Z</time></trkpt><trkpt lat="42.167125" lon="14.6549467"><ele>62.4</ele><time>2026-04-19T10:35:00.876Z</time></trkpt><trkpt lat="42.1670567" lon="14.6548417"><ele>60.0</ele><time>2026-04-19T10:35:01.877Z</time></trkpt><trkpt lat="42.1669817" lon="14.654735"><ele>60.0</ele><time>2026-04-19T10:35:02.877Z</time></trkpt><trkpt lat="42.166905" lon="14.654635"><ele>60.0</ele><time>2026-04-19T10:35:03.876Z</time></trkpt><trkpt lat="42.1668267" lon="14.6545367"><ele>60.0</ele><time>2026-04-19T10:35:04.877Z</time></trkpt><trkpt lat="42.166745" lon="14.654445"><ele>60.0</ele><time>2026-04-19T10:35:05.877Z</time></trkpt><trkpt lat="42.1666617" lon="14.6543533"><ele>60.0</ele><time>2026-04-19T10:35:06.877Z</time></trkpt><trkpt lat="42.166575" lon="14.6542667"><ele>61.6</ele><time>2026-04-19T10:35:07.876Z</time></trkpt><trkpt lat="42.166485" lon="14.654185"><ele>63.2</ele><time>2026-04-19T10:35:08.876Z</time></trkpt><trkpt lat="42.1663883" lon="14.6541"><ele>64.8</ele><time>2026-04-19T10:35:09.877Z</time></trkpt><trkpt lat="42.1662967" lon="14.6540233"><ele>66.4</ele><time>2026-04-19T10:35:10.877Z</time></trkpt><trkpt lat="42.1661967" lon="14.653945"><ele>68.0</ele><time>2026-04-19T10:35:11.877Z</time></trkpt><trkpt lat="42.1661" lon="14.6538617"><ele>68.0</ele><time>2026-04-19T10:35:12.877Z</time></trkpt><trkpt lat="42.166005" lon="14.6537733"><ele>68.0</ele><time>2026-04-19T10:35:13.877Z</time></trkpt><trkpt lat="42.1659083" lon="14.6536817"><ele>68.0</ele><time>2026-04-19T10:35:14.877Z</time></trkpt><trkpt lat="42.16581" lon="14.6536033"><ele>68.0</ele><time>2026-04-19T10:35:15.876Z</time></trkpt><trkpt lat="42.1657033" lon="14.6535167"><ele>65.75</ele><time>2026-04-19T10:35:16.877Z</time></trkpt><trkpt lat="42.1656" lon="14.6534283"><ele>63.5</ele><time>2026-04-19T10:35:17.877Z</time></trkpt><trkpt lat="42.1655" lon="14.6533367"><ele>61.25</ele><time>2026-04-19T10:35:18.876Z</time></trkpt><trkpt lat="42.165395" lon="14.6532433"><ele>59.0</ele><time>2026-04-19T10:35:19.877Z</time></trkpt><trkpt lat="42.1652783" lon="14.6531483"><ele>59.0</ele><time>2026-04-19T10:35:20.876Z</time></trkpt><trkpt lat="42.165165" lon="14.6530567"><ele>59.0</ele><time>2026-04-19T10:35:21.876Z</time></trkpt><trkpt lat="42.1650517" lon="14.6529583"><ele>59.0</ele><time>2026-04-19T10:35:22.877Z</time></trkpt><trkpt lat="42.1649383" lon="14.6528567"><ele>59.0</ele><time>2026-04-19T10:35:23.876Z</time></trkpt><trkpt lat="42.1648317" lon="14.6527433"><ele>55.0</ele><time>2026-04-19T10:35:24.876Z</time></trkpt><trkpt lat="42.1647367" lon="14.6526183"><ele>51.0</ele><time>2026-04-19T10:35:25.877Z</time></trkpt><trkpt lat="42.16464" lon="14.6524967"><ele>47.0</ele><time>2026-04-19T10:35:26.877Z</time></trkpt><trkpt lat="42.164545" lon="14.6523733"><ele>43.0</ele><time>2026-04-19T10:35:27.877Z</time></trkpt><trkpt lat="42.16446" lon="14.652235"><ele>43.0</ele><time>2026-04-19T10:35:28.877Z</time></trkpt><trkpt lat="42.1643833" lon="14.6520883"><ele>43.0</ele><time>2026-04-19T10:35:29.877Z</time></trkpt><trkpt lat="42.1643067" lon="14.65194"><ele>43.0</ele><time>2026-04-19T10:35:30.876Z</time></trkpt><trkpt lat="42.1642283" lon="14.6517833"><ele>43.0</ele><time>2026-04-19T10:35:31.876Z</time></trkpt><trkpt lat="42.1641633" lon="14.6516267"><ele>39.75</ele><time>2026-04-19T10:35:32.876Z</time></trkpt><trkpt lat="42.1640967" lon="14.6514617"><ele>36.5</ele><time>2026-04-19T10:35:33.876Z</time></trkpt><trkpt lat="42.1640433" lon="14.6512967"><ele>33.25</ele><time>2026-04-19T10:35:34.876Z</time></trkpt><trkpt lat="42.1639917" lon="14.6511283"><ele>30.0</ele><time>2026-04-19T10:35:35.877Z</time></trkpt><trkpt lat="42.16394" lon="14.6509617"><ele>28.0</ele><time>2026-04-19T10:35:36.877Z</time></trkpt><trkpt lat="42.1639" lon="14.6507933"><ele>26.0</ele><time>2026-04-19T10:35:37.877Z</time></trkpt><trkpt lat="42.1638633" lon="14.6506233"><ele>24.0</ele><time>2026-04-19T10:35:38.876Z</time></trkpt><trkpt lat="42.163835" lon="14.6504517"><ele>22.0</ele><time>2026-04-19T10:35:39.877Z</time></trkpt><trkpt lat="42.1638083" lon="14.6502783"><ele>21.75</ele><time>2026-04-19T10:35:40.877Z</time></trkpt><trkpt lat="42.1637867" lon="14.6501083"><ele>21.5</ele><time>2026-04-19T10:35:41.877Z</time></trkpt><trkpt lat="42.16377" lon="14.649935"><ele>21.25</ele><time>2026-04-19T10:35:42.876Z</time></trkpt><trkpt lat="42.163765" lon="14.649765"><ele>21.0</ele><time>2026-04-19T10:35:43.877Z</time></trkpt><trkpt lat="42.1637667" lon="14.649595"><ele>21.25</ele><time>2026-04-19T10:35:44.876Z</time></trkpt><trkpt lat="42.1637683" lon="14.6494317"><ele>21.5</ele><time>2026-04-19T10:35:45.877Z</time></trkpt><trkpt lat="42.1637817" lon="14.6492667"><ele>21.75</ele><time>2026-04-19T10:35:46.876Z</time></trkpt><trkpt lat="42.163795" lon="14.6491"><ele>22.0</ele><time>2026-04-19T10:35:47.877Z</time></trkpt><trkpt lat="42.1638067" lon="14.6489433"><ele>22.0</ele><time>2026-04-19T10:35:48.877Z</time></trkpt><trkpt lat="42.16382" lon="14.6487883"><ele>22.0</ele><time>2026-04-19T10:35:49.877Z</time></trkpt><trkpt lat="42.163835" lon="14.648635"><ele>22.0</ele><time>2026-04-19T10:35:50.877Z</time></trkpt><trkpt lat="42.1638467" lon="14.6484783"><ele>22.0</ele><time>2026-04-19T10:35:51.877Z</time></trkpt><trkpt lat="42.16386" lon="14.648325"><ele>22.0</ele><time>2026-04-19T10:35:52.877Z</time></trkpt><trkpt lat="42.1638717" lon="14.6481717"><ele>22.0</ele><time>2026-04-19T10:35:53.876Z</time></trkpt><trkpt lat="42.1638867" lon="14.6480267"><ele>22.0</ele><time>2026-04-19T10:35:54.877Z</time></trkpt><trkpt lat="42.1639017" lon="14.6478817"><ele>22.0</ele><time>2026-04-19T10:35:55.876Z</time></trkpt><trkpt lat="42.1639167" lon="14.6477433"><ele>22.0</ele><time>2026-04-19T10:35:56.877Z</time></trkpt><trkpt lat="42.163935" lon="14.6475983"><ele>21.6</ele><time>2026-04-19T10:35:57.876Z</time></trkpt><trkpt lat="42.1639467" lon="14.647455"><ele>21.200000000000003</ele><time>2026-04-19T10:35:58.877Z</time></trkpt><trkpt lat="42.1639583" lon="14.6473117"><ele>20.8</ele><time>2026-04-19T10:35:59.876Z</time></trkpt><trkpt lat="42.16397" lon="14.64717"><ele>20.4</ele><time>2026-04-19T10:36:00.877Z</time></trkpt><trkpt lat="42.16398" lon="14.6470267"><ele>20.0</ele><time>2026-04-19T10:36:01.877Z</time></trkpt><trkpt lat="42.1639933" lon="14.64689"><ele>20.0</ele><time>2026-04-19T10:36:02.877Z</time></trkpt><trkpt lat="42.1640067" lon="14.646755"><ele>20.0</ele><time>2026-04-19T10:36:03.877Z</time></trkpt><trkpt lat="42.1640183" lon="14.6466217"><ele>20.0</ele><time>2026-04-19T10:36:04.877Z</time></trkpt><trkpt lat="42.1640267" lon="14.6464917"><ele>20.0</ele><time>2026-04-19T10:36:05.877Z</time></trkpt><trkpt lat="42.1640283" lon="14.6463533"><ele>20.0</ele><time>2026-04-19T10:36:06.876Z</time></trkpt><trkpt lat="42.164035" lon="14.64622"><ele>19.8</ele><time>2026-04-19T10:36:07.876Z</time></trkpt><trkpt lat="42.1640367" lon="14.6460967"><ele>19.6</ele><time>2026-04-19T10:36:08.877Z</time></trkpt><trkpt lat="42.1640417" lon="14.64597"><ele>19.4</ele><time>2026-04-19T10:36:09.877Z</time></trkpt><trkpt lat="42.1640433" lon="14.6458483"><ele>19.2</ele><time>2026-04-19T10:36:10.877Z</time></trkpt><trkpt lat="42.164045" lon="14.645725"><ele>19.0</ele><time>2026-04-19T10:36:11.877Z</time></trkpt><trkpt lat="42.16404" lon="14.6456017"><ele>19.0</ele><time>2026-04-19T10:36:12.877Z</time></trkpt><trkpt lat="42.1640383" lon="14.6454833"><ele>19.0</ele><time>2026-04-19T10:36:13.877Z</time></trkpt><trkpt lat="42.1640383" lon="14.645365"><ele>19.0</ele><time>2026-04-19T10:36:14.877Z</time></trkpt><trkpt lat="42.164035" lon="14.64525"><ele>19.0</ele><time>2026-04-19T10:36:15.877Z</time></trkpt><trkpt lat="42.1640317" lon="14.6451367"><ele>19.0</ele><time>2026-04-19T10:36:16.876Z</time></trkpt><trkpt lat="42.1640283" lon="14.645025"><ele>19.0</ele><time>2026-04-19T10:36:17.877Z</time></trkpt><trkpt lat="42.1640217" lon="14.644915"><ele>18.666666666666664</ele><time>2026-04-19T10:36:18.877Z</time></trkpt><trkpt lat="42.1640167" lon="14.6448167"><ele>18.333333333333332</ele><time>2026-04-19T10:36:19.876Z</time></trkpt><trkpt lat="42.1640133" lon="14.6447133"><ele>18.0</ele><time>2026-04-19T10:36:20.877Z</time></trkpt><trkpt lat="42.1640117" lon="14.64461"><ele>17.666666666666668</ele><time>2026-04-19T10:36:21.877Z</time></trkpt><trkpt lat="42.1640083" lon="14.6445033"><ele>17.333333333333336</ele><time>2026-04-19T10:36:22.877Z</time></trkpt><trkpt lat="42.164005" lon="14.6443967"><ele>17.0</ele><time>2026-04-19T10:36:23.876Z</time></trkpt><trkpt lat="42.1639983" lon="14.64429"><ele>16.999999999999996</ele><time>2026-04-19T10:36:24.877Z</time></trkpt><trkpt lat="42.1639933" lon="14.644185"><ele>17.0</ele><time>2026-04-19T10:36:25.876Z</time></trkpt><trkpt lat="42.1639867" lon="14.6440817"><ele>17.0</ele><time>2026-04-19T10:36:26.877Z</time></trkpt><trkpt lat="42.1639833" lon="14.64398"><ele>17.0</ele><time>2026-04-19T10:36:27.877Z</time></trkpt><trkpt lat="42.1639817" lon="14.6438767"><ele>17.0</ele><time>2026-04-19T10:36:28.877Z</time></trkpt><trkpt lat="42.163975" lon="14.6437783"><ele>16.999999999999996</ele><time>2026-04-19T10:36:29.877Z</time></trkpt><trkpt lat="42.1639733" lon="14.6436867"><ele>17.0</ele><time>2026-04-19T10:36:30.876Z</time></trkpt><trkpt lat="42.1639717" lon="14.643595"><ele>17.5</ele><time>2026-04-19T10:36:31.877Z</time></trkpt><trkpt lat="42.1639683" lon="14.6435067"><ele>18.0</ele><time>2026-04-19T10:36:32.877Z</time></trkpt><trkpt lat="42.1639583" lon="14.6433333"><ele>18.5</ele><time>2026-04-19T10:36:34.877Z</time></trkpt><trkpt lat="42.16396" lon="14.643235"><ele>19.0</ele><time>2026-04-19T10:36:35.877Z</time></trkpt><trkpt lat="42.163955" lon="14.643145"><ele>19.5</ele><time>2026-04-19T10:36:36.876Z</time></trkpt><trkpt lat="42.1639533" lon="14.6430583"><ele>20.0</ele><time>2026-04-19T10:36:37.876Z</time></trkpt><trkpt lat="42.16395" lon="14.6429617"><ele>20.0</ele><time>2026-04-19T10:36:38.877Z</time></trkpt><trkpt lat="42.1639517" lon="14.642865"><ele>20.0</ele><time>2026-04-19T10:36:39.877Z</time></trkpt><trkpt lat="42.1639517" lon="14.64277"><ele>20.0</ele><time>2026-04-19T10:36:40.877Z</time></trkpt><trkpt lat="42.1639517" lon="14.6426733"><ele>20.0</ele><time>2026-04-19T10:36:41.877Z</time></trkpt><trkpt lat="42.1639483" lon="14.6425783"><ele>20.0</ele><time>2026-04-19T10:36:42.877Z</time></trkpt><trkpt lat="42.163945" lon="14.6424817"><ele>20.0</ele><time>2026-04-19T10:36:43.876Z</time></trkpt><trkpt lat="42.1639467" lon="14.64238"><ele>20.0</ele><time>2026-04-19T10:36:44.876Z</time></trkpt><trkpt lat="42.1639467" lon="14.6422867"><ele>20.0</ele><time>2026-04-19T10:36:45.877Z</time></trkpt><trkpt lat="42.1639467" lon="14.642195"><ele>20.0</ele><time>2026-04-19T10:36:46.877Z</time></trkpt><trkpt lat="42.1639483" lon="14.642105"><ele>20.0</ele><time>2026-04-19T10:36:47.877Z</time></trkpt><trkpt lat="42.16395" lon="14.6420183"><ele>20.0</ele><time>2026-04-19T10:36:48.876Z</time></trkpt><trkpt lat="42.1639567" lon="14.6419317"><ele>20.0</ele><time>2026-04-19T10:36:49.876Z</time></trkpt><trkpt lat="42.1639717" lon="14.6417667"><ele>20.0</ele><time>2026-04-19T10:36:51.877Z</time></trkpt><trkpt lat="42.164" lon="14.6416083"><ele>20.0</ele><time>2026-04-19T10:36:53.876Z</time></trkpt><trkpt lat="42.1640217" lon="14.6415283"><ele>20.0</ele><time>2026-04-19T10:36:54.877Z</time></trkpt><trkpt lat="42.1640467" lon="14.6414483"><ele>20.0</ele><time>2026-04-19T10:36:55.877Z</time></trkpt><trkpt lat="42.1640767" lon="14.6413733"><ele>20.0</ele><time>2026-04-19T10:36:56.876Z</time></trkpt><trkpt lat="42.1641567" lon="14.6412483"><ele>20.0</ele><time>2026-04-19T10:36:58.877Z</time></trkpt><trkpt lat="42.1642033" lon="14.6411883"><ele>20.0</ele><time>2026-04-19T10:36:59.877Z</time></trkpt><trkpt lat="42.1642467" lon="14.6411183"><ele>20.0</ele><time>2026-04-19T10:37:00.877Z</time></trkpt><trkpt lat="42.1642783" lon="14.6410367"><ele>20.0</ele><time>2026-04-19T10:37:01.876Z</time></trkpt><trkpt lat="42.1642917" lon="14.64095"><ele>20.0</ele><time>2026-04-19T10:37:02.877Z</time></trkpt><trkpt lat="42.1642883" lon="14.6408617"><ele>20.0</ele><time>2026-04-19T10:37:03.877Z</time></trkpt><trkpt lat="42.1642367" lon="14.64071"><ele>20.0</ele><time>2026-04-19T10:37:05.877Z</time></trkpt><trkpt lat="42.1641867" lon="14.6406517"><ele>20.0</ele><time>2026-04-19T10:37:06.876Z</time></trkpt><trkpt lat="42.1641267" lon="14.640615"><ele>20.0</ele><time>2026-04-19T10:37:07.876Z</time></trkpt><trkpt lat="42.16406" lon="14.6405983"><ele>19.714285714285715</ele><time>2026-04-19T10:37:08.877Z</time></trkpt><trkpt lat="42.16399" lon="14.6405967"><ele>19.42857142857143</ele><time>2026-04-19T10:37:09.877Z</time></trkpt><trkpt lat="42.1639183" lon="14.6406"><ele>19.142857142857146</ele><time>2026-04-19T10:37:10.876Z</time></trkpt><trkpt lat="42.163845" lon="14.6405867"><ele>18.857142857142858</ele><time>2026-04-19T10:37:11.877Z</time></trkpt><trkpt lat="42.1637733" lon="14.6405583"><ele>18.571428571428573</ele><time>2026-04-19T10:37:12.877Z</time></trkpt><trkpt lat="42.1637117" lon="14.6405067"><ele>18.28571428571429</ele><time>2026-04-19T10:37:13.877Z</time></trkpt><trkpt lat="42.1636683" lon="14.6404383"><ele>18.0</ele><time>2026-04-19T10:37:14.876Z</time></trkpt><trkpt lat="42.16364" lon="14.6403533"><ele>18.28571428571429</ele><time>2026-04-19T10:37:15.876Z</time></trkpt><trkpt lat="42.163605" lon="14.6402667"><ele>18.571428571428573</ele><time>2026-04-19T10:37:16.877Z</time></trkpt><trkpt lat="42.1635583" lon="14.6401883"><ele>18.857142857142858</ele><time>2026-04-19T10:37:17.877Z</time></trkpt><trkpt lat="42.1635067" lon="14.6401217"><ele>19.142857142857146</ele><time>2026-04-19T10:37:18.876Z</time></trkpt><trkpt lat="42.1634467" lon="14.64006"><ele>19.42857142857143</ele><time>2026-04-19T10:37:19.876Z</time></trkpt><trkpt lat="42.16339" lon="14.63999"><ele>19.714285714285715</ele><time>2026-04-19T10:37:20.876Z</time></trkpt><trkpt lat="42.16334" lon="14.639915"><ele>20.0</ele><time>2026-04-19T10:37:21.877Z</time></trkpt><trkpt lat="42.1632883" lon="14.639835"><ele>20.0</ele><time>2026-04-19T10:37:22.877Z</time></trkpt><trkpt lat="42.1632383" lon="14.6397617"><ele>20.0</ele><time>2026-04-19T10:37:23.876Z</time></trkpt><trkpt lat="42.1631867" lon="14.6396933"><ele>20.0</ele><time>2026-04-19T10:37:24.877Z</time></trkpt><trkpt lat="42.1631333" lon="14.6396333"><ele>20.0</ele><time>2026-04-19T10:37:25.877Z</time></trkpt><trkpt lat="42.1630717" lon="14.639585"><ele>20.0</ele><time>2026-04-19T10:37:26.877Z</time></trkpt><trkpt lat="42.163005" lon="14.6395483"><ele>20.0</ele><time>2026-04-19T10:37:27.876Z</time></trkpt><trkpt lat="42.162935" lon="14.6395183"><ele>20.0</ele><time>2026-04-19T10:37:28.877Z</time></trkpt><trkpt lat="42.1628667" lon="14.6394883"><ele>20.285714285714285</ele><time>2026-04-19T10:37:29.877Z</time></trkpt><trkpt lat="42.162795" lon="14.6394567"><ele>20.571428571428573</ele><time>2026-04-19T10:37:30.876Z</time></trkpt><trkpt lat="42.162725" lon="14.6394133"><ele>20.857142857142858</ele><time>2026-04-19T10:37:31.877Z</time></trkpt><trkpt lat="42.16266" lon="14.63936"><ele>21.142857142857142</ele><time>2026-04-19T10:37:32.877Z</time></trkpt><trkpt lat="42.1626117" lon="14.6392933"><ele>21.428571428571427</ele><time>2026-04-19T10:37:33.876Z</time></trkpt><trkpt lat="42.162565" lon="14.63922"><ele>21.714285714285715</ele><time>2026-04-19T10:37:34.876Z</time></trkpt><trkpt lat="42.16251" lon="14.639155"><ele>22.0</ele><time>2026-04-19T10:37:35.877Z</time></trkpt><trkpt lat="42.162465" lon="14.639075"><ele>22.0</ele><time>2026-04-19T10:37:36.877Z</time></trkpt><trkpt lat="42.162435" lon="14.6389833"><ele>22.0</ele><time>2026-04-19T10:37:37.876Z</time></trkpt><trkpt lat="42.16242" lon="14.6388933"><ele>22.0</ele><time>2026-04-19T10:37:38.877Z</time></trkpt><trkpt lat="42.1624133" lon="14.6388017"><ele>22.0</ele><time>2026-04-19T10:37:39.877Z</time></trkpt><trkpt lat="42.1624233" lon="14.6387117"><ele>22.0</ele><time>2026-04-19T10:37:40.877Z</time></trkpt><trkpt lat="42.1624517" lon="14.6386283"><ele>22.0</ele><time>2026-04-19T10:37:41.876Z</time></trkpt><trkpt lat="42.1624883" lon="14.6385567"><ele>22.0</ele><time>2026-04-19T10:37:42.877Z</time></trkpt><trkpt lat="42.1625717" lon="14.63844"><ele>23.0</ele><time>2026-04-19T10:37:44.877Z</time></trkpt><trkpt lat="42.1626683" lon="14.6383383"><ele>24.0</ele><time>2026-04-19T10:37:46.877Z</time></trkpt><trkpt lat="42.1627717" lon="14.638255"><ele>25.0</ele><time>2026-04-19T10:37:48.876Z</time></trkpt><trkpt lat="42.1628717" lon="14.6381867"><ele>26.0</ele><time>2026-04-19T10:37:50.877Z</time></trkpt><trkpt lat="42.162975" lon="14.638125"><ele>25.999999999999996</ele><time>2026-04-19T10:37:52.877Z</time></trkpt><trkpt lat="42.16307" lon="14.6380667"><ele>26.0</ele><time>2026-04-19T10:37:54.876Z</time></trkpt><trkpt lat="42.1631567" lon="14.6380233"><ele>26.0</ele><time>2026-04-19T10:37:56.877Z</time></trkpt><trkpt lat="42.163235" lon="14.637965"><ele>26.0</ele><time>2026-04-19T10:37:58.876Z</time></trkpt><trkpt lat="42.1632917" lon="14.6379083"><ele>25.999999999999996</ele><time>2026-04-19T10:38:00.877Z</time></trkpt><trkpt lat="42.1633533" lon="14.6378517"><ele>26.0</ele><time>2026-04-19T10:38:02.876Z</time></trkpt><trkpt lat="42.1634117" lon="14.6377917"><ele>26.499999999999996</ele><time>2026-04-19T10:38:04.877Z</time></trkpt><trkpt lat="42.1634683" lon="14.6377"><ele>27.0</ele><time>2026-04-19T10:38:07.877Z</time></trkpt><trkpt lat="42.1635333" lon="14.6376117"><ele>27.5</ele><time>2026-04-19T10:38:10.876Z</time></trkpt><trkpt lat="42.1635817" lon="14.6375283"><ele>28.0</ele><time>2026-04-19T10:38:12.877Z</time></trkpt><trkpt lat="42.163625" lon="14.6374333"><ele>28.499999999999996</ele><time>2026-04-19T10:38:14.877Z</time></trkpt><trkpt lat="42.1636617" lon="14.637345"><ele>29.0</ele><time>2026-04-19T10:38:16.877Z</time></trkpt><trkpt lat="42.163685" lon="14.6372433"><ele>29.0</ele><time>2026-04-19T10:38:18.876Z</time></trkpt><trkpt lat="42.1636867" lon="14.637115"><ele>29.0</ele><time>2026-04-19T10:38:20.876Z</time></trkpt><trkpt lat="42.163685" lon="14.6369683"><ele>29.0</ele><time>2026-04-19T10:38:22.876Z</time></trkpt><trkpt lat="42.1636467" lon="14.6368067"><ele>29.0</ele><time>2026-04-19T10:38:24.877Z</time></trkpt><trkpt lat="42.1636133" lon="14.63673"><ele>29.0</ele><time>2026-04-19T10:38:25.876Z</time></trkpt><trkpt lat="42.1635767" lon="14.6366567"><ele>30.0</ele><time>2026-04-19T10:38:26.876Z</time></trkpt><trkpt lat="42.16351" lon="14.6365317"><ele>31.0</ele><time>2026-04-19T10:38:28.877Z</time></trkpt><trkpt lat="42.163445" lon="14.6364167"><ele>32.0</ele><time>2026-04-19T10:38:30.877Z</time></trkpt><trkpt lat="42.16338" lon="14.6362983"><ele>33.0</ele><time>2026-04-19T10:38:32.877Z</time></trkpt><trkpt lat="42.1633133" lon="14.63618"><ele>34.0</ele><time>2026-04-19T10:38:34.877Z</time></trkpt><trkpt lat="42.1632533" lon="14.63605"><ele>34.75</ele><time>2026-04-19T10:38:36.876Z</time></trkpt><trkpt lat="42.1631933" lon="14.6359267"><ele>35.5</ele><time>2026-04-19T10:38:38.877Z</time></trkpt><trkpt lat="42.1631267" lon="14.6358"><ele>36.25</ele><time>2026-04-19T10:38:40.877Z</time></trkpt><trkpt lat="42.16305" lon="14.6356783"><ele>37.0</ele><time>2026-04-19T10:38:42.877Z</time></trkpt><trkpt lat="42.1629633" lon="14.6355717"><ele>37.0</ele><time>2026-04-19T10:38:44.876Z</time></trkpt><trkpt lat="42.1628717" lon="14.63548"><ele>37.0</ele><time>2026-04-19T10:38:46.877Z</time></trkpt><trkpt lat="42.1627717" lon="14.6354033"><ele>37.0</ele><time>2026-04-19T10:38:48.877Z</time></trkpt><trkpt lat="42.1626717" lon="14.6353467"><ele>37.0</ele><time>2026-04-19T10:38:50.876Z</time></trkpt><trkpt lat="42.1625583" lon="14.6353067"><ele>38.5</ele><time>2026-04-19T10:38:52.877Z</time></trkpt><trkpt lat="42.1624533" lon="14.6352583"><ele>40.0</ele><time>2026-04-19T10:38:54.877Z</time></trkpt><trkpt lat="42.16235" lon="14.6352017"><ele>41.5</ele><time>2026-04-19T10:38:56.877Z</time></trkpt><trkpt lat="42.1622467" lon="14.6351417"><ele>43.0</ele><time>2026-04-19T10:38:58.877Z</time></trkpt><trkpt lat="42.1621433" lon="14.63507"><ele>43.8</ele><time>2026-04-19T10:39:00.877Z</time></trkpt><trkpt lat="42.16206" lon="14.63498"><ele>44.599999999999994</ele><time>2026-04-19T10:39:02.877Z</time></trkpt><trkpt lat="42.161975" lon="14.6348967"><ele>45.400000000000006</ele><time>2026-04-19T10:39:04.876Z</time></trkpt><trkpt lat="42.16189" lon="14.6348167"><ele>46.2</ele><time>2026-04-19T10:39:06.876Z</time></trkpt><trkpt lat="42.1618133" lon="14.6347417"><ele>47.0</ele><time>2026-04-19T10:39:08.877Z</time></trkpt><trkpt lat="42.16174" lon="14.6346217"><ele>47.0</ele><time>2026-04-19T10:39:10.877Z</time></trkpt><trkpt lat="42.1616567" lon="14.6344983"><ele>47.0</ele><time>2026-04-19T10:39:12.877Z</time></trkpt><trkpt lat="42.1616117" lon="14.6343683"><ele>47.0</ele><time>2026-04-19T10:39:14.876Z</time></trkpt><trkpt lat="42.161585" lon="14.63423"><ele>47.0</ele><time>2026-04-19T10:39:16.876Z</time></trkpt><trkpt lat="42.1616067" lon="14.6341083"><ele>47.0</ele><time>2026-04-19T10:39:18.877Z</time></trkpt><trkpt lat="42.1616517" lon="14.6340067"><ele>47.6</ele><time>2026-04-19T10:39:20.876Z</time></trkpt><trkpt lat="42.1617117" lon="14.6339067"><ele>48.2</ele><time>2026-04-19T10:39:22.877Z</time></trkpt><trkpt lat="42.1617817" lon="14.63379"><ele>48.8</ele><time>2026-04-19T10:39:24.877Z</time></trkpt><trkpt lat="42.1618517" lon="14.6336817"><ele>49.4</ele><time>2026-04-19T10:39:26.877Z</time></trkpt><trkpt lat="42.1619283" lon="14.63357"><ele>50.0</ele><time>2026-04-19T10:39:28.877Z</time></trkpt><trkpt lat="42.16201" lon="14.6334467"><ele>51.16666666666667</ele><time>2026-04-19T10:39:30.877Z</time></trkpt><trkpt lat="42.1620533" lon="14.6333767"><ele>52.333333333333336</ele><time>2026-04-19T10:39:31.877Z</time></trkpt><trkpt lat="42.1620933" lon="14.63331"><ele>53.5</ele><time>2026-04-19T10:39:32.877Z</time></trkpt><trkpt lat="42.16214" lon="14.63325"><ele>54.66666666666667</ele><time>2026-04-19T10:39:33.877Z</time></trkpt><trkpt lat="42.162215" lon="14.63313"><ele>55.833333333333336</ele><time>2026-04-19T10:39:35.877Z</time></trkpt><trkpt lat="42.162285" lon="14.633025"><ele>57.0</ele><time>2026-04-19T10:39:37.877Z</time></trkpt><trkpt lat="42.16236" lon="14.6329133"><ele>56.75</ele><time>2026-04-19T10:39:39.876Z</time></trkpt><trkpt lat="42.16243" lon="14.6328017"><ele>56.5</ele><time>2026-04-19T10:39:41.876Z</time></trkpt><trkpt lat="42.1625117" lon="14.6326717"><ele>56.25</ele><time>2026-04-19T10:39:43.877Z</time></trkpt><trkpt lat="42.1625967" lon="14.63255"><ele>56.0</ele><time>2026-04-19T10:39:45.876Z</time></trkpt><trkpt lat="42.1626883" lon="14.6324567"><ele>56.0</ele><time>2026-04-19T10:39:47.877Z</time></trkpt><trkpt lat="42.1627767" lon="14.6323667"><ele>55.99999999999999</ele><time>2026-04-19T10:39:49.877Z</time></trkpt><trkpt lat="42.162855" lon="14.6322717"><ele>55.99999999999999</ele><time>2026-04-19T10:39:51.877Z</time></trkpt><trkpt lat="42.1629133" lon="14.63216"><ele>56.0</ele><time>2026-04-19T10:39:53.877Z</time></trkpt><trkpt lat="42.1629367" lon="14.6320017"><ele>56.0</ele><time>2026-04-19T10:39:55.877Z</time></trkpt><trkpt lat="42.1629317" lon="14.631915"><ele>57.599999999999994</ele><time>2026-04-19T10:39:56.877Z</time></trkpt><trkpt lat="42.1628633" lon="14.6317883"><ele>59.199999999999996</ele><time>2026-04-19T10:39:58.877Z</time></trkpt><trkpt lat="42.1627667" lon="14.63172"><ele>60.800000000000004</ele><time>2026-04-19T10:40:00.877Z</time></trkpt><trkpt lat="42.162655" lon="14.6317083"><ele>62.400000000000006</ele><time>2026-04-19T10:40:02.877Z</time></trkpt><trkpt lat="42.1625567" lon="14.63174"><ele>64.0</ele><time>2026-04-19T10:40:04.877Z</time></trkpt><trkpt lat="42.1624617" lon="14.6318"><ele>64.4</ele><time>2026-04-19T10:40:06.876Z</time></trkpt><trkpt lat="42.162355" lon="14.6318817"><ele>64.80000000000001</ele><time>2026-04-19T10:40:08.876Z</time></trkpt><trkpt lat="42.1622467" lon="14.631965"><ele>65.19999999999999</ele><time>2026-04-19T10:40:10.876Z</time></trkpt><trkpt lat="42.1621933" lon="14.63201"><ele>65.6</ele><time>2026-04-19T10:40:11.877Z</time></trkpt><trkpt lat="42.16209" lon="14.63209"><ele>66.0</ele><time>2026-04-19T10:40:13.876Z</time></trkpt><trkpt lat="42.1619883" lon="14.6321733"><ele>66.0</ele><time>2026-04-19T10:40:15.877Z</time></trkpt><trkpt lat="42.161885" lon="14.632255"><ele>66.0</ele><time>2026-04-19T10:40:17.877Z</time></trkpt><trkpt lat="42.1617917" lon="14.6323383"><ele>66.0</ele><time>2026-04-19T10:40:19.876Z</time></trkpt><trkpt lat="42.1616917" lon="14.63242"><ele>66.0</ele><time>2026-04-19T10:40:21.877Z</time></trkpt><trkpt lat="42.16159" lon="14.6324883"><ele>67.39999999999999</ele><time>2026-04-19T10:40:23.876Z</time></trkpt><trkpt lat="42.1615083" lon="14.6325417"><ele>68.8</ele><time>2026-04-19T10:40:25.877Z</time></trkpt><trkpt lat="42.16142" lon="14.63261"><ele>70.19999999999999</ele><time>2026-04-19T10:40:27.877Z</time></trkpt><trkpt lat="42.1613317" lon="14.6326683"><ele>71.6</ele><time>2026-04-19T10:40:29.877Z</time></trkpt><trkpt lat="42.16123" lon="14.6327333"><ele>73.0</ele><time>2026-04-19T10:40:31.876Z</time></trkpt><trkpt lat="42.1611667" lon="14.63277"><ele>71.16666666666666</ele><time>2026-04-19T10:40:32.877Z</time></trkpt><trkpt lat="42.16111" lon="14.63281"><ele>69.33333333333333</ele><time>2026-04-19T10:40:33.877Z</time></trkpt><trkpt lat="42.1610533" lon="14.63285"><ele>67.5</ele><time>2026-04-19T10:40:34.877Z</time></trkpt><trkpt lat="42.1609417" lon="14.6329067"><ele>65.66666666666667</ele><time>2026-04-19T10:40:36.876Z</time></trkpt><trkpt lat="42.160825" lon="14.6329533"><ele>63.833333333333336</ele><time>2026-04-19T10:40:38.877Z</time></trkpt><trkpt lat="42.1607617" lon="14.6329533"><ele>62.0</ele><time>2026-04-19T10:40:39.877Z</time></trkpt><trkpt lat="42.1606517" lon="14.6329017"><ele>62.0</ele><time>2026-04-19T10:40:41.877Z</time></trkpt><trkpt lat="42.1605733" lon="14.63279"><ele>62.0</ele><time>2026-04-19T10:40:43.876Z</time></trkpt><trkpt lat="42.1605183" lon="14.6326617"><ele>62.0</ele><time>2026-04-19T10:40:45.877Z</time></trkpt><trkpt lat="42.1604883" lon="14.6325217"><ele>62.0</ele><time>2026-04-19T10:40:47.877Z</time></trkpt><trkpt lat="42.1604567" lon="14.63237"><ele>62.0</ele><time>2026-04-19T10:40:49.877Z</time></trkpt><trkpt lat="42.1604433" lon="14.632215"><ele>62.0</ele><time>2026-04-19T10:40:51.876Z</time></trkpt><trkpt lat="42.1604267" lon="14.6320617"><ele>62.0</ele><time>2026-04-19T10:40:53.877Z</time></trkpt><trkpt lat="42.1604083" lon="14.631915"><ele>62.0</ele><time>2026-04-19T10:40:55.876Z</time></trkpt><trkpt lat="42.160385" lon="14.63178"><ele>62.0</ele><time>2026-04-19T10:40:57.877Z</time></trkpt><trkpt lat="42.1603533" lon="14.6316333"><ele>62.0</ele><time>2026-04-19T10:40:59.877Z</time></trkpt><trkpt lat="42.1603133" lon="14.63148"><ele>63.6</ele><time>2026-04-19T10:41:01.877Z</time></trkpt><trkpt lat="42.1602633" lon="14.63133"><ele>65.2</ele><time>2026-04-19T10:41:03.876Z</time></trkpt><trkpt lat="42.1602267" lon="14.6311833"><ele>66.8</ele><time>2026-04-19T10:41:05.876Z</time></trkpt><trkpt lat="42.160205" lon="14.6310183"><ele>68.4</ele><time>2026-04-19T10:41:07.877Z</time></trkpt><trkpt lat="42.1601983" lon="14.6309333"><ele>70.0</ele><time>2026-04-19T10:41:08.876Z</time></trkpt><trkpt lat="42.1601983" lon="14.6307683"><ele>71.2</ele><time>2026-04-19T10:41:10.877Z</time></trkpt><trkpt lat="42.1602017" lon="14.6305983"><ele>72.4</ele><time>2026-04-19T10:41:12.877Z</time></trkpt><trkpt lat="42.1602033" lon="14.6305083"><ele>73.6</ele><time>2026-04-19T10:41:13.877Z</time></trkpt><trkpt lat="42.160205" lon="14.6303483"><ele>74.8</ele><time>2026-04-19T10:41:15.877Z</time></trkpt><trkpt lat="42.16021" lon="14.6301833"><ele>76.0</ele><time>2026-04-19T10:41:17.876Z</time></trkpt><trkpt lat="42.1602217" lon="14.6300133"><ele>76.83333333333333</ele><time>2026-04-19T10:41:19.877Z</time></trkpt><trkpt lat="42.1602417" lon="14.6298467"><ele>77.66666666666666</ele><time>2026-04-19T10:41:21.877Z</time></trkpt><trkpt lat="42.1602533" lon="14.6297583"><ele>78.5</ele><time>2026-04-19T10:41:22.876Z</time></trkpt><trkpt lat="42.1602633" lon="14.62967"><ele>79.33333333333333</ele><time>2026-04-19T10:41:23.877Z</time></trkpt><trkpt lat="42.1602733" lon="14.6295817"><ele>80.16666666666667</ele><time>2026-04-19T10:41:24.877Z</time></trkpt><trkpt lat="42.1602917" lon="14.6294183"><ele>81.0</ele><time>2026-04-19T10:41:26.877Z</time></trkpt><trkpt lat="42.160305" lon="14.629325"><ele>81.28571428571429</ele><time>2026-04-19T10:41:27.876Z</time></trkpt><trkpt lat="42.1603233" lon="14.6292317"><ele>81.57142857142857</ele><time>2026-04-19T10:41:28.876Z</time></trkpt><trkpt lat="42.1603333" lon="14.62914"><ele>81.85714285714286</ele><time>2026-04-19T10:41:29.877Z</time></trkpt><trkpt lat="42.1603433" lon="14.6290467"><ele>82.14285714285714</ele><time>2026-04-19T10:41:30.877Z</time></trkpt><trkpt lat="42.1603517" lon="14.6289517"><ele>82.42857142857143</ele><time>2026-04-19T10:41:31.877Z</time></trkpt><trkpt lat="42.1603667" lon="14.62886"><ele>82.71428571428571</ele><time>2026-04-19T10:41:32.876Z</time></trkpt><trkpt lat="42.16038" lon="14.6287667"><ele>83.0</ele><time>2026-04-19T10:41:33.877Z</time></trkpt><trkpt lat="42.1603933" lon="14.628675"><ele>83.14285714285714</ele><time>2026-04-19T10:41:34.876Z</time></trkpt><trkpt lat="42.160405" lon="14.6285883"><ele>83.28571428571429</ele><time>2026-04-19T10:41:35.877Z</time></trkpt><trkpt lat="42.1604167" lon="14.6284967"><ele>83.42857142857143</ele><time>2026-04-19T10:41:36.876Z</time></trkpt><trkpt lat="42.16043" lon="14.6284033"><ele>83.57142857142857</ele><time>2026-04-19T10:41:37.877Z</time></trkpt><trkpt lat="42.160445" lon="14.62832"><ele>83.71428571428572</ele><time>2026-04-19T10:41:38.877Z</time></trkpt><trkpt lat="42.1604583" lon="14.6282283"><ele>83.85714285714286</ele><time>2026-04-19T10:41:39.877Z</time></trkpt><trkpt lat="42.16047" lon="14.6281317"><ele>84.0</ele><time>2026-04-19T10:41:40.876Z</time></trkpt><trkpt lat="42.1604783" lon="14.6280383"><ele>84.0</ele><time>2026-04-19T10:41:41.877Z</time></trkpt><trkpt lat="42.16049" lon="14.6279483"><ele>84.0</ele><time>2026-04-19T10:41:42.877Z</time></trkpt><trkpt lat="42.160505" lon="14.62786"><ele>84.0</ele><time>2026-04-19T10:41:43.876Z</time></trkpt><trkpt lat="42.1605167" lon="14.6277717"><ele>84.0</ele><time>2026-04-19T10:41:44.876Z</time></trkpt><trkpt lat="42.1605317" lon="14.6276767"><ele>84.0</ele><time>2026-04-19T10:41:45.876Z</time></trkpt><trkpt lat="42.1605417" lon="14.6275883"><ele>84.0</ele><time>2026-04-19T10:41:46.877Z</time></trkpt><trkpt lat="42.1605567" lon="14.6274983"><ele>84.0</ele><time>2026-04-19T10:41:47.877Z</time></trkpt><trkpt lat="42.1605683" lon="14.62741"><ele>84.5</ele><time>2026-04-19T10:41:48.877Z</time></trkpt><trkpt lat="42.1605817" lon="14.62732"><ele>85.0</ele><time>2026-04-19T10:41:49.877Z</time></trkpt><trkpt lat="42.160595" lon="14.6272283"><ele>85.5</ele><time>2026-04-19T10:41:50.877Z</time></trkpt><trkpt lat="42.1606067" lon="14.62714"><ele>86.0</ele><time>2026-04-19T10:41:51.877Z</time></trkpt><trkpt lat="42.1606217" lon="14.627055"><ele>86.5</ele><time>2026-04-19T10:41:52.877Z</time></trkpt><trkpt lat="42.160635" lon="14.6269617"><ele>87.0</ele><time>2026-04-19T10:41:53.877Z</time></trkpt><trkpt lat="42.16065" lon="14.6267917"><ele>87.16666666666667</ele><time>2026-04-19T10:41:55.876Z</time></trkpt><trkpt lat="42.1606633" lon="14.6267067"><ele>87.33333333333333</ele><time>2026-04-19T10:41:56.877Z</time></trkpt><trkpt lat="42.16068" lon="14.6266183"><ele>87.5</ele><time>2026-04-19T10:41:57.876Z</time></trkpt><trkpt lat="42.1606983" lon="14.62653"><ele>87.66666666666666</ele><time>2026-04-19T10:41:58.876Z</time></trkpt><trkpt lat="42.16074" lon="14.6263783"><ele>87.83333333333333</ele><time>2026-04-19T10:42:00.877Z</time></trkpt><trkpt lat="42.1608" lon="14.6262367"><ele>88.0</ele><time>2026-04-19T10:42:02.877Z</time></trkpt><trkpt lat="42.160885" lon="14.6261133"><ele>89.75</ele><time>2026-04-19T10:42:04.877Z</time></trkpt><trkpt lat="42.1609667" lon="14.62602"><ele>91.5</ele><time>2026-04-19T10:42:06.877Z</time></trkpt><trkpt lat="42.1610633" lon="14.625915"><ele>93.25</ele><time>2026-04-19T10:42:08.877Z</time></trkpt><trkpt lat="42.161165" lon="14.62582"><ele>95.0</ele><time>2026-04-19T10:42:10.876Z</time></trkpt><trkpt lat="42.1612567" lon="14.6257267"><ele>95.0</ele><time>2026-04-19T10:42:12.876Z</time></trkpt><trkpt lat="42.1613533" lon="14.6256333"><ele>95.0</ele><time>2026-04-19T10:42:14.877Z</time></trkpt><trkpt lat="42.161445" lon="14.6255367"><ele>95.0</ele><time>2026-04-19T10:42:16.876Z</time></trkpt><trkpt lat="42.1615383" lon="14.62544"><ele>95.0</ele><time>2026-04-19T10:42:18.877Z</time></trkpt><trkpt lat="42.161625" lon="14.62534"><ele>96.5</ele><time>2026-04-19T10:42:20.877Z</time></trkpt><trkpt lat="42.1617033" lon="14.625235"><ele>98.0</ele><time>2026-04-19T10:42:22.877Z</time></trkpt><trkpt lat="42.1617783" lon="14.6251217"><ele>99.5</ele><time>2026-04-19T10:42:24.877Z</time></trkpt><trkpt lat="42.1618417" lon="14.624985"><ele>101.0</ele><time>2026-04-19T10:42:26.877Z</time></trkpt><trkpt lat="42.1618967" lon="14.6248383"><ele>101.0</ele><time>2026-04-19T10:42:28.877Z</time></trkpt><trkpt lat="42.1619467" lon="14.624685"><ele>101.0</ele><time>2026-04-19T10:42:30.877Z</time></trkpt><trkpt lat="42.1619867" lon="14.6245267"><ele>101.0</ele><time>2026-04-19T10:42:32.876Z</time></trkpt><trkpt lat="42.16202" lon="14.6243767"><ele>101.0</ele><time>2026-04-19T10:42:34.877Z</time></trkpt><trkpt lat="42.1620583" lon="14.6242333"><ele>102.0</ele><time>2026-04-19T10:42:36.877Z</time></trkpt><trkpt lat="42.1620883" lon="14.6241017"><ele>103.0</ele><time>2026-04-19T10:42:38.877Z</time></trkpt><trkpt lat="42.1621183" lon="14.6239517"><ele>104.0</ele><time>2026-04-19T10:42:40.877Z</time></trkpt><trkpt lat="42.162145" lon="14.62381"><ele>105.0</ele><time>2026-04-19T10:42:42.877Z</time></trkpt><trkpt lat="42.162155" lon="14.6236617"><ele>106.0</ele><time>2026-04-19T10:42:44.877Z</time></trkpt><trkpt lat="42.1621433" lon="14.6235133"><ele>106.8</ele><time>2026-04-19T10:42:46.876Z</time></trkpt><trkpt lat="42.16211" lon="14.6233767"><ele>107.6</ele><time>2026-04-19T10:42:48.877Z</time></trkpt><trkpt lat="42.162065" lon="14.6232433"><ele>108.4</ele><time>2026-04-19T10:42:50.877Z</time></trkpt><trkpt lat="42.162" lon="14.6230983"><ele>109.2</ele><time>2026-04-19T10:42:52.877Z</time></trkpt><trkpt lat="42.161965" lon="14.6230267"><ele>110.0</ele><time>2026-04-19T10:42:53.876Z</time></trkpt><trkpt lat="42.1619283" lon="14.6229567"><ele>110.0</ele><time>2026-04-19T10:42:54.876Z</time></trkpt><trkpt lat="42.1618617" lon="14.6228167"><ele>110.0</ele><time>2026-04-19T10:42:56.877Z</time></trkpt><trkpt lat="42.1618217" lon="14.62275"><ele>110.0</ele><time>2026-04-19T10:42:57.876Z</time></trkpt><trkpt lat="42.16175" lon="14.6226117"><ele>110.0</ele><time>2026-04-19T10:42:59.877Z</time></trkpt><trkpt lat="42.1616883" lon="14.6224783"><ele>110.0</ele><time>2026-04-19T10:43:01.877Z</time></trkpt><trkpt lat="42.161625" lon="14.6223417"><ele>110.5</ele><time>2026-04-19T10:43:03.877Z</time></trkpt><trkpt lat="42.16156" lon="14.6222033"><ele>111.0</ele><time>2026-04-19T10:43:05.876Z</time></trkpt><trkpt lat="42.16149" lon="14.622065"><ele>111.5</ele><time>2026-04-19T10:43:07.877Z</time></trkpt><trkpt lat="42.161425" lon="14.62192"><ele>112.0</ele><time>2026-04-19T10:43:09.876Z</time></trkpt><trkpt lat="42.161355" lon="14.6217933"><ele>112.39999999999999</ele><time>2026-04-19T10:43:11.877Z</time></trkpt><trkpt lat="42.1612983" lon="14.6216867"><ele>112.79999999999998</ele><time>2026-04-19T10:43:13.876Z</time></trkpt><trkpt lat="42.1612383" lon="14.621555"><ele>113.2</ele><time>2026-04-19T10:43:15.877Z</time></trkpt><trkpt lat="42.1611683" lon="14.62142"><ele>113.6</ele><time>2026-04-19T10:43:17.876Z</time></trkpt><trkpt lat="42.16113" lon="14.62135"><ele>114.0</ele><time>2026-04-19T10:43:18.876Z</time></trkpt><trkpt lat="42.1610633" lon="14.621215"><ele>114.66666666666667</ele><time>2026-04-19T10:43:20.877Z</time></trkpt><trkpt lat="42.161025" lon="14.6211417"><ele>115.33333333333334</ele><time>2026-04-19T10:43:21.876Z</time></trkpt><trkpt lat="42.1609567" lon="14.6210117"><ele>116.0</ele><time>2026-04-19T10:43:23.876Z</time></trkpt><trkpt lat="42.1609217" lon="14.62094"><ele>116.66666666666667</ele><time>2026-04-19T10:43:24.877Z</time></trkpt><trkpt lat="42.1608567" lon="14.620805"><ele>117.33333333333334</ele><time>2026-04-19T10:43:26.877Z</time></trkpt><trkpt lat="42.1608217" lon="14.6207333"><ele>118.0</ele><time>2026-04-19T10:43:27.877Z</time></trkpt><trkpt lat="42.1607817" lon="14.6206567"><ele>118.00000000000001</ele><time>2026-04-19T10:43:28.876Z</time></trkpt><trkpt lat="42.1607417" lon="14.620585"><ele>118.0</ele><time>2026-04-19T10:43:29.877Z</time></trkpt><trkpt lat="42.16071" lon="14.6205083"><ele>118.0</ele><time>2026-04-19T10:43:30.877Z</time></trkpt><trkpt lat="42.16064" lon="14.6203633"><ele>118.0</ele><time>2026-04-19T10:43:32.877Z</time></trkpt><trkpt lat="42.1606017" lon="14.6202867"><ele>118.00000000000001</ele><time>2026-04-19T10:43:33.877Z</time></trkpt><trkpt lat="42.1605633" lon="14.6202133"><ele>118.0</ele><time>2026-04-19T10:43:34.877Z</time></trkpt><trkpt lat="42.1604967" lon="14.62007"><ele>118.28571428571428</ele><time>2026-04-19T10:43:36.877Z</time></trkpt><trkpt lat="42.1604617" lon="14.6199917"><ele>118.57142857142858</ele><time>2026-04-19T10:43:37.876Z</time></trkpt><trkpt lat="42.1604233" lon="14.6199167"><ele>118.85714285714286</ele><time>2026-04-19T10:43:38.877Z</time></trkpt><trkpt lat="42.1603883" lon="14.6198417"><ele>119.14285714285714</ele><time>2026-04-19T10:43:39.877Z</time></trkpt><trkpt lat="42.16035" lon="14.6197567"><ele>119.42857142857142</ele><time>2026-04-19T10:43:40.877Z</time></trkpt><trkpt lat="42.1603083" lon="14.61968"><ele>119.71428571428572</ele><time>2026-04-19T10:43:41.877Z</time></trkpt><trkpt lat="42.160265" lon="14.6195983"><ele>120.0</ele><time>2026-04-19T10:43:42.877Z</time></trkpt><trkpt lat="42.1602183" lon="14.6195183"><ele>120.28571428571429</ele><time>2026-04-19T10:43:43.876Z</time></trkpt><trkpt lat="42.1601767" lon="14.6194383"><ele>120.57142857142856</ele><time>2026-04-19T10:43:44.876Z</time></trkpt><trkpt lat="42.1601367" lon="14.6193583"><ele>120.85714285714285</ele><time>2026-04-19T10:43:45.876Z</time></trkpt><trkpt lat="42.1600983" lon="14.619275"><ele>121.14285714285714</ele><time>2026-04-19T10:43:46.877Z</time></trkpt><trkpt lat="42.1600567" lon="14.6191983"><ele>121.42857142857142</ele><time>2026-04-19T10:43:47.876Z</time></trkpt><trkpt lat="42.1600167" lon="14.6191133"><ele>121.7142857142857</ele><time>2026-04-19T10:43:48.877Z</time></trkpt><trkpt lat="42.159975" lon="14.619035"><ele>121.99999999999999</ele><time>2026-04-19T10:43:49.876Z</time></trkpt><trkpt lat="42.1599333" lon="14.6189533"><ele>121.99999999999999</ele><time>2026-04-19T10:43:50.876Z</time></trkpt><trkpt lat="42.159895" lon="14.618875"><ele>122.0</ele><time>2026-04-19T10:43:51.877Z</time></trkpt><trkpt lat="42.1598567" lon="14.618795"><ele>121.99999999999999</ele><time>2026-04-19T10:43:52.877Z</time></trkpt><trkpt lat="42.1598183" lon="14.6187133"><ele>121.99999999999999</ele><time>2026-04-19T10:43:53.877Z</time></trkpt><trkpt lat="42.1597733" lon="14.6186367"><ele>122.0</ele><time>2026-04-19T10:43:54.877Z</time></trkpt><trkpt lat="42.159735" lon="14.6185617"><ele>121.99999999999999</ele><time>2026-04-19T10:43:55.877Z</time></trkpt><trkpt lat="42.1596967" lon="14.6184867"><ele>121.99999999999999</ele><time>2026-04-19T10:43:56.877Z</time></trkpt><trkpt lat="42.15966" lon="14.6184033"><ele>122.42857142857142</ele><time>2026-04-19T10:43:57.877Z</time></trkpt><trkpt lat="42.1596267" lon="14.6183233"><ele>122.85714285714286</ele><time>2026-04-19T10:43:58.876Z</time></trkpt><trkpt lat="42.1595883" lon="14.6182467"><ele>123.28571428571428</ele><time>2026-04-19T10:43:59.877Z</time></trkpt><trkpt lat="42.159545" lon="14.6181667"><ele>123.71428571428571</ele><time>2026-04-19T10:44:00.876Z</time></trkpt><trkpt lat="42.159505" lon="14.6180817"><ele>124.14285714285714</ele><time>2026-04-19T10:44:01.877Z</time></trkpt><trkpt lat="42.1594667" lon="14.618"><ele>124.57142857142857</ele><time>2026-04-19T10:44:02.877Z</time></trkpt><trkpt lat="42.1594217" lon="14.6179183"><ele>125.0</ele><time>2026-04-19T10:44:03.877Z</time></trkpt><trkpt lat="42.1593767" lon="14.617835"><ele>125.28571428571428</ele><time>2026-04-19T10:44:04.877Z</time></trkpt><trkpt lat="42.159335" lon="14.6177567"><ele>125.57142857142858</ele><time>2026-04-19T10:44:05.877Z</time></trkpt><trkpt lat="42.1592967" lon="14.6176767"><ele>125.85714285714286</ele><time>2026-04-19T10:44:06.877Z</time></trkpt><trkpt lat="42.159255" lon="14.6175967"><ele>126.14285714285714</ele><time>2026-04-19T10:44:07.877Z</time></trkpt><trkpt lat="42.1592183" lon="14.617515"><ele>126.42857142857142</ele><time>2026-04-19T10:44:08.876Z</time></trkpt><trkpt lat="42.1591833" lon="14.61744"><ele>126.71428571428572</ele><time>2026-04-19T10:44:09.877Z</time></trkpt><trkpt lat="42.159145" lon="14.61736"><ele>127.0</ele><time>2026-04-19T10:44:10.877Z</time></trkpt><trkpt lat="42.15911" lon="14.6172817"><ele>127.00000000000001</ele><time>2026-04-19T10:44:11.876Z</time></trkpt><trkpt lat="42.159075" lon="14.6172017"><ele>127.0</ele><time>2026-04-19T10:44:12.876Z</time></trkpt><trkpt lat="42.159035" lon="14.6171183"><ele>127.0</ele><time>2026-04-19T10:44:13.876Z</time></trkpt><trkpt lat="42.1589933" lon="14.617035"><ele>127.0</ele><time>2026-04-19T10:44:14.876Z</time></trkpt><trkpt lat="42.1589533" lon="14.6169633"><ele>127.00000000000001</ele><time>2026-04-19T10:44:15.877Z</time></trkpt><trkpt lat="42.1588767" lon="14.61682"><ele>127.0</ele><time>2026-04-19T10:44:17.877Z</time></trkpt><trkpt lat="42.1588333" lon="14.6167483"><ele>127.57142857142858</ele><time>2026-04-19T10:44:18.877Z</time></trkpt><trkpt lat="42.1587983" lon="14.6166717"><ele>128.14285714285714</ele><time>2026-04-19T10:44:19.877Z</time></trkpt><trkpt lat="42.158755" lon="14.6165983"><ele>128.71428571428572</ele><time>2026-04-19T10:44:20.877Z</time></trkpt><trkpt lat="42.1587117" lon="14.6165217"><ele>129.28571428571428</ele><time>2026-04-19T10:44:21.876Z</time></trkpt><trkpt lat="42.158675" lon="14.6164383"><ele>129.85714285714286</ele><time>2026-04-19T10:44:22.877Z</time></trkpt><trkpt lat="42.1586383" lon="14.6163633"><ele>130.42857142857144</ele><time>2026-04-19T10:44:23.877Z</time></trkpt><trkpt lat="42.1586017" lon="14.6162917"><ele>131.0</ele><time>2026-04-19T10:44:24.877Z</time></trkpt><trkpt lat="42.1585383" lon="14.616155"><ele>131.2</ele><time>2026-04-19T10:44:26.877Z</time></trkpt><trkpt lat="42.1584633" lon="14.616025"><ele>131.39999999999998</ele><time>2026-04-19T10:44:28.877Z</time></trkpt><trkpt lat="42.1583933" lon="14.61589"><ele>131.6</ele><time>2026-04-19T10:44:30.876Z</time></trkpt><trkpt lat="42.1583633" lon="14.6158133"><ele>131.79999999999998</ele><time>2026-04-19T10:44:31.877Z</time></trkpt><trkpt lat="42.158295" lon="14.615685"><ele>132.0</ele><time>2026-04-19T10:44:33.877Z</time></trkpt><trkpt lat="42.1582333" lon="14.6155533"><ele>132.0</ele><time>2026-04-19T10:44:35.877Z</time></trkpt><trkpt lat="42.1581817" lon="14.615425"><ele>132.0</ele><time>2026-04-19T10:44:37.877Z</time></trkpt><trkpt lat="42.1581783" lon="14.61528"><ele>132.0</ele><time>2026-04-19T10:44:39.876Z</time></trkpt><trkpt lat="42.15819" lon="14.6151383"><ele>132.0</ele><time>2026-04-19T10:44:41.877Z</time></trkpt><trkpt lat="42.1581733" lon="14.615005"><ele>132.0</ele><time>2026-04-19T10:44:43.877Z</time></trkpt><trkpt lat="42.15809" lon="14.614915"><ele>132.4</ele><time>2026-04-19T10:44:45.877Z</time></trkpt><trkpt lat="42.1579917" lon="14.61487"><ele>132.79999999999998</ele><time>2026-04-19T10:44:47.876Z</time></trkpt><trkpt lat="42.1579033" lon="14.6147917"><ele>133.2</ele><time>2026-04-19T10:44:49.877Z</time></trkpt><trkpt lat="42.157825" lon="14.614665"><ele>133.6</ele><time>2026-04-19T10:44:51.877Z</time></trkpt><trkpt lat="42.1577867" lon="14.6145917"><ele>134.0</ele><time>2026-04-19T10:44:52.877Z</time></trkpt><trkpt lat="42.1577533" lon="14.6145183"><ele>134.0</ele><time>2026-04-19T10:44:53.876Z</time></trkpt><trkpt lat="42.1577167" lon="14.6144467"><ele>134.0</ele><time>2026-04-19T10:44:54.876Z</time></trkpt><trkpt lat="42.1576767" lon="14.6143783"><ele>134.0</ele><time>2026-04-19T10:44:55.877Z</time></trkpt><trkpt lat="42.157635" lon="14.6142967"><ele>134.0</ele><time>2026-04-19T10:44:56.877Z</time></trkpt><trkpt lat="42.1576" lon="14.6142233"><ele>134.0</ele><time>2026-04-19T10:44:57.877Z</time></trkpt><trkpt lat="42.15756" lon="14.6141433"><ele>134.0</ele><time>2026-04-19T10:44:58.877Z</time></trkpt><trkpt lat="42.1575133" lon="14.6140583"><ele>134.0</ele><time>2026-04-19T10:44:59.877Z</time></trkpt><trkpt lat="42.15747" lon="14.6139733"><ele>134.0</ele><time>2026-04-19T10:45:00.877Z</time></trkpt><trkpt lat="42.1574233" lon="14.6138967"><ele>134.0</ele><time>2026-04-19T10:45:01.877Z</time></trkpt><trkpt lat="42.1573883" lon="14.613815"><ele>134.0</ele><time>2026-04-19T10:45:02.876Z</time></trkpt><trkpt lat="42.1573533" lon="14.6137417"><ele>134.0</ele><time>2026-04-19T10:45:03.877Z</time></trkpt><trkpt lat="42.1573167" lon="14.6136667"><ele>134.0</ele><time>2026-04-19T10:45:04.877Z</time></trkpt><trkpt lat="42.1572817" lon="14.6135933"><ele>134.0</ele><time>2026-04-19T10:45:05.877Z</time></trkpt><trkpt lat="42.1572467" lon="14.61352"><ele>134.0</ele><time>2026-04-19T10:45:06.876Z</time></trkpt><trkpt lat="42.1572117" lon="14.613445"><ele>134.0</ele><time>2026-04-19T10:45:07.877Z</time></trkpt><trkpt lat="42.157175" lon="14.6133667"><ele>134.0</ele><time>2026-04-19T10:45:08.876Z</time></trkpt><trkpt lat="42.15714" lon="14.6132817"><ele>134.0</ele><time>2026-04-19T10:45:09.877Z</time></trkpt><trkpt lat="42.1571067" lon="14.6131933"><ele>134.0</ele><time>2026-04-19T10:45:10.877Z</time></trkpt><trkpt lat="42.1570683" lon="14.6131117"><ele>134.0</ele><time>2026-04-19T10:45:11.876Z</time></trkpt><trkpt lat="42.1570333" lon="14.613025"><ele>134.0</ele><time>2026-04-19T10:45:12.877Z</time></trkpt><trkpt lat="42.157" lon="14.612935"><ele>134.0</ele><time>2026-04-19T10:45:13.877Z</time></trkpt><trkpt lat="42.156975" lon="14.6128367"><ele>134.5</ele><time>2026-04-19T10:45:14.877Z</time></trkpt><trkpt lat="42.1569433" lon="14.6127367"><ele>135.0</ele><time>2026-04-19T10:45:15.877Z</time></trkpt><trkpt lat="42.156915" lon="14.6126383"><ele>135.5</ele><time>2026-04-19T10:45:16.877Z</time></trkpt><trkpt lat="42.15689" lon="14.6125217"><ele>136.0</ele><time>2026-04-19T10:45:17.877Z</time></trkpt><trkpt lat="42.1568667" lon="14.6124117"><ele>136.5</ele><time>2026-04-19T10:45:18.877Z</time></trkpt><trkpt lat="42.1568467" lon="14.6122933"><ele>137.0</ele><time>2026-04-19T10:45:19.877Z</time></trkpt><trkpt lat="42.156825" lon="14.612185"><ele>137.0</ele><time>2026-04-19T10:45:20.877Z</time></trkpt><trkpt lat="42.1567983" lon="14.6120783"><ele>137.0</ele><time>2026-04-19T10:45:21.876Z</time></trkpt><trkpt lat="42.1567717" lon="14.61197"><ele>137.0</ele><time>2026-04-19T10:45:22.877Z</time></trkpt><trkpt lat="42.1567533" lon="14.61187"><ele>137.0</ele><time>2026-04-19T10:45:23.877Z</time></trkpt><trkpt lat="42.1567267" lon="14.6117733"><ele>137.0</ele><time>2026-04-19T10:45:24.876Z</time></trkpt><trkpt lat="42.1567017" lon="14.61168"><ele>137.0</ele><time>2026-04-19T10:45:25.876Z</time></trkpt><trkpt lat="42.1566783" lon="14.611575"><ele>136.71428571428572</ele><time>2026-04-19T10:45:26.876Z</time></trkpt><trkpt lat="42.1566633" lon="14.6114833"><ele>136.42857142857144</ele><time>2026-04-19T10:45:27.877Z</time></trkpt><trkpt lat="42.15665" lon="14.611395"><ele>136.14285714285714</ele><time>2026-04-19T10:45:28.877Z</time></trkpt><trkpt lat="42.1566267" lon="14.61131"><ele>135.85714285714286</ele><time>2026-04-19T10:45:29.876Z</time></trkpt><trkpt lat="42.1566033" lon="14.6112083"><ele>135.57142857142856</ele><time>2026-04-19T10:45:30.877Z</time></trkpt><trkpt lat="42.1565783" lon="14.6111017"><ele>135.28571428571428</ele><time>2026-04-19T10:45:31.876Z</time></trkpt><trkpt lat="42.1565517" lon="14.6109983"><ele>135.0</ele><time>2026-04-19T10:45:32.877Z</time></trkpt><trkpt lat="42.1565233" lon="14.6108917"><ele>135.0</ele><time>2026-04-19T10:45:33.877Z</time></trkpt><trkpt lat="42.1565" lon="14.6107833"><ele>135.0</ele><time>2026-04-19T10:45:34.877Z</time></trkpt><trkpt lat="42.1564733" lon="14.61068"><ele>135.0</ele><time>2026-04-19T10:45:35.877Z</time></trkpt><trkpt lat="42.15645" lon="14.61057"><ele>135.0</ele><time>2026-04-19T10:45:36.877Z</time></trkpt><trkpt lat="42.156425" lon="14.61046"><ele>135.0</ele><time>2026-04-19T10:45:37.877Z</time></trkpt><trkpt lat="42.1564" lon="14.61035"><ele>135.0</ele><time>2026-04-19T10:45:38.876Z</time></trkpt><trkpt lat="42.1563767" lon="14.6102417"><ele>135.0</ele><time>2026-04-19T10:45:39.877Z</time></trkpt><trkpt lat="42.156355" lon="14.61013"><ele>135.0</ele><time>2026-04-19T10:45:40.876Z</time></trkpt><trkpt lat="42.1563283" lon="14.6100183"><ele>135.0</ele><time>2026-04-19T10:45:41.877Z</time></trkpt><trkpt lat="42.156305" lon="14.60991"><ele>135.0</ele><time>2026-04-19T10:45:42.877Z</time></trkpt><trkpt lat="42.1562867" lon="14.6098017"><ele>135.0</ele><time>2026-04-19T10:45:43.876Z</time></trkpt><trkpt lat="42.1562583" lon="14.609695"><ele>135.0</ele><time>2026-04-19T10:45:44.877Z</time></trkpt><trkpt lat="42.15623" lon="14.6095733"><ele>135.4</ele><time>2026-04-19T10:45:45.877Z</time></trkpt><trkpt lat="42.1562033" lon="14.6094533"><ele>135.8</ele><time>2026-04-19T10:45:46.877Z</time></trkpt><trkpt lat="42.15618" lon="14.6093333"><ele>136.2</ele><time>2026-04-19T10:45:47.877Z</time></trkpt><trkpt lat="42.1561583" lon="14.609215"><ele>136.6</ele><time>2026-04-19T10:45:48.876Z</time></trkpt><trkpt lat="42.1561417" lon="14.6090967"><ele>137.0</ele><time>2026-04-19T10:45:49.877Z</time></trkpt><trkpt lat="42.1561133" lon="14.6089783"><ele>137.0</ele><time>2026-04-19T10:45:50.877Z</time></trkpt><trkpt lat="42.1560833" lon="14.6088667"><ele>137.0</ele><time>2026-04-19T10:45:51.877Z</time></trkpt><trkpt lat="42.1560567" lon="14.60875"><ele>137.0</ele><time>2026-04-19T10:45:52.877Z</time></trkpt><trkpt lat="42.1560333" lon="14.6086317"><ele>137.0</ele><time>2026-04-19T10:45:53.877Z</time></trkpt><trkpt lat="42.1560067" lon="14.60852"><ele>137.0</ele><time>2026-04-19T10:45:54.876Z</time></trkpt><trkpt lat="42.1559817" lon="14.6084117"><ele>137.0</ele><time>2026-04-19T10:45:55.877Z</time></trkpt><trkpt lat="42.15596" lon="14.6082983"><ele>137.0</ele><time>2026-04-19T10:45:56.877Z</time></trkpt><trkpt lat="42.1559317" lon="14.608185"><ele>137.0</ele><time>2026-04-19T10:45:57.877Z</time></trkpt><trkpt lat="42.1559017" lon="14.6080667"><ele>137.0</ele><time>2026-04-19T10:45:58.877Z</time></trkpt><trkpt lat="42.155875" lon="14.6079533"><ele>137.0</ele><time>2026-04-19T10:45:59.876Z</time></trkpt><trkpt lat="42.1558533" lon="14.6078433"><ele>137.0</ele><time>2026-04-19T10:46:00.877Z</time></trkpt><trkpt lat="42.1558267" lon="14.6077317"><ele>137.0</ele><time>2026-04-19T10:46:01.876Z</time></trkpt><trkpt lat="42.1558" lon="14.6076167"><ele>136.83333333333331</ele><time>2026-04-19T10:46:02.877Z</time></trkpt><trkpt lat="42.1557733" lon="14.6075"><ele>136.66666666666666</ele><time>2026-04-19T10:46:03.877Z</time></trkpt><trkpt lat="42.1557533" lon="14.607385"><ele>136.5</ele><time>2026-04-19T10:46:04.876Z</time></trkpt><trkpt lat="42.1557317" lon="14.60727"><ele>136.33333333333334</ele><time>2026-04-19T10:46:05.876Z</time></trkpt><trkpt lat="42.155705" lon="14.60716"><ele>136.16666666666669</ele><time>2026-04-19T10:46:06.877Z</time></trkpt><trkpt lat="42.1556817" lon="14.60705"><ele>136.0</ele><time>2026-04-19T10:46:07.876Z</time></trkpt><trkpt lat="42.1556567" lon="14.60694"><ele>136.5</ele><time>2026-04-19T10:46:08.877Z</time></trkpt><trkpt lat="42.1556267" lon="14.6068317"><ele>137.0</ele><time>2026-04-19T10:46:09.876Z</time></trkpt><trkpt lat="42.1556" lon="14.6067183"><ele>137.5</ele><time>2026-04-19T10:46:10.877Z</time></trkpt><trkpt lat="42.155575" lon="14.6066033"><ele>138.0</ele><time>2026-04-19T10:46:11.876Z</time></trkpt><trkpt lat="42.1555417" lon="14.6064967"><ele>138.5</ele><time>2026-04-19T10:46:12.876Z</time></trkpt><trkpt lat="42.155515" lon="14.6063867"><ele>139.0</ele><time>2026-04-19T10:46:13.877Z</time></trkpt><trkpt lat="42.155485" lon="14.6062733"><ele>139.16666666666669</ele><time>2026-04-19T10:46:14.877Z</time></trkpt><trkpt lat="42.1554617" lon="14.60616"><ele>139.33333333333334</ele><time>2026-04-19T10:46:15.876Z</time></trkpt><trkpt lat="42.15544" lon="14.6060517"><ele>139.5</ele><time>2026-04-19T10:46:16.877Z</time></trkpt><trkpt lat="42.1554233" lon="14.60594"><ele>139.66666666666666</ele><time>2026-04-19T10:46:17.876Z</time></trkpt><trkpt lat="42.1554067" lon="14.6058283"><ele>139.83333333333331</ele><time>2026-04-19T10:46:18.877Z</time></trkpt><trkpt lat="42.1553783" lon="14.6057217"><ele>140.0</ele><time>2026-04-19T10:46:19.877Z</time></trkpt><trkpt lat="42.1553517" lon="14.6056083"><ele>140.0</ele><time>2026-04-19T10:46:20.877Z</time></trkpt><trkpt lat="42.1553283" lon="14.6054933"><ele>140.0</ele><time>2026-04-19T10:46:21.877Z</time></trkpt><trkpt lat="42.1553017" lon="14.6053783"><ele>140.0</ele><time>2026-04-19T10:46:22.877Z</time></trkpt><trkpt lat="42.1552767" lon="14.605265"><ele>140.0</ele><time>2026-04-19T10:46:23.876Z</time></trkpt><trkpt lat="42.1552467" lon="14.6051583"><ele>140.0</ele><time>2026-04-19T10:46:24.876Z</time></trkpt><trkpt lat="42.1552233" lon="14.6050483"><ele>140.0</ele><time>2026-04-19T10:46:25.876Z</time></trkpt><trkpt lat="42.1551967" lon="14.6049333"><ele>140.16666666666666</ele><time>2026-04-19T10:46:26.876Z</time></trkpt><trkpt lat="42.1551733" lon="14.6048217"><ele>140.33333333333331</ele><time>2026-04-19T10:46:27.877Z</time></trkpt><trkpt lat="42.15515" lon="14.6047033"><ele>140.5</ele><time>2026-04-19T10:46:28.877Z</time></trkpt><trkpt lat="42.1551233" lon="14.604585"><ele>140.66666666666666</ele><time>2026-04-19T10:46:29.877Z</time></trkpt><trkpt lat="42.1551" lon="14.6044717"><ele>140.83333333333334</ele><time>2026-04-19T10:46:30.876Z</time></trkpt><trkpt lat="42.155075" lon="14.6043583"><ele>141.0</ele><time>2026-04-19T10:46:31.876Z</time></trkpt><trkpt lat="42.15505" lon="14.6042467"><ele>141.16666666666666</ele><time>2026-04-19T10:46:32.876Z</time></trkpt><trkpt lat="42.1550267" lon="14.6041283"><ele>141.33333333333334</ele><time>2026-04-19T10:46:33.876Z</time></trkpt><trkpt lat="42.155005" lon="14.6040167"><ele>141.5</ele><time>2026-04-19T10:46:34.877Z</time></trkpt><trkpt lat="42.1549833" lon="14.6039033"><ele>141.66666666666669</ele><time>2026-04-19T10:46:35.877Z</time></trkpt><trkpt lat="42.1549583" lon="14.6037833"><ele>141.83333333333334</ele><time>2026-04-19T10:46:36.876Z</time></trkpt><trkpt lat="42.1549333" lon="14.6036717"><ele>142.0</ele><time>2026-04-19T10:46:37.876Z</time></trkpt><trkpt lat="42.1549067" lon="14.603565"><ele>142.16666666666669</ele><time>2026-04-19T10:46:38.876Z</time></trkpt><trkpt lat="42.1548817" lon="14.6034633"><ele>142.33333333333334</ele><time>2026-04-19T10:46:39.877Z</time></trkpt><trkpt lat="42.1548583" lon="14.6033617"><ele>142.5</ele><time>2026-04-19T10:46:40.877Z</time></trkpt><trkpt lat="42.1548383" lon="14.603265"><ele>142.66666666666666</ele><time>2026-04-19T10:46:41.877Z</time></trkpt><trkpt lat="42.1548167" lon="14.603165"><ele>142.83333333333331</ele><time>2026-04-19T10:46:42.877Z</time></trkpt><trkpt lat="42.1547933" lon="14.6030567"><ele>143.0</ele><time>2026-04-19T10:46:43.876Z</time></trkpt><trkpt lat="42.15477" lon="14.6029433"><ele>143.5</ele><time>2026-04-19T10:46:44.876Z</time></trkpt><trkpt lat="42.154745" lon="14.6028317"><ele>144.0</ele><time>2026-04-19T10:46:45.877Z</time></trkpt><trkpt lat="42.1547217" lon="14.6027317"><ele>144.5</ele><time>2026-04-19T10:46:46.877Z</time></trkpt><trkpt lat="42.1546933" lon="14.6026317"><ele>145.0</ele><time>2026-04-19T10:46:47.876Z</time></trkpt><trkpt lat="42.15467" lon="14.6025283"><ele>145.5</ele><time>2026-04-19T10:46:48.877Z</time></trkpt><trkpt lat="42.15465" lon="14.6024217"><ele>146.0</ele><time>2026-04-19T10:46:49.877Z</time></trkpt><trkpt lat="42.1546317" lon="14.6023117"><ele>146.0</ele><time>2026-04-19T10:46:50.876Z</time></trkpt><trkpt lat="42.1546017" lon="14.6022083"><ele>146.0</ele><time>2026-04-19T10:46:51.876Z</time></trkpt><trkpt lat="42.1545767" lon="14.6021083"><ele>146.0</ele><time>2026-04-19T10:46:52.876Z</time></trkpt><trkpt lat="42.1545567" lon="14.602"><ele>146.0</ele><time>2026-04-19T10:46:53.877Z</time></trkpt><trkpt lat="42.1545267" lon="14.601895"><ele>146.0</ele><time>2026-04-19T10:46:54.876Z</time></trkpt><trkpt lat="42.1544967" lon="14.6017883"><ele>146.0</ele><time>2026-04-19T10:46:55.877Z</time></trkpt><trkpt lat="42.15447" lon="14.6016817"><ele>146.16666666666666</ele><time>2026-04-19T10:46:56.877Z</time></trkpt><trkpt lat="42.154445" lon="14.60158"><ele>146.33333333333331</ele><time>2026-04-19T10:46:57.876Z</time></trkpt><trkpt lat="42.15443" lon="14.60148"><ele>146.5</ele><time>2026-04-19T10:46:58.877Z</time></trkpt><trkpt lat="42.15441" lon="14.6013767"><ele>146.66666666666666</ele><time>2026-04-19T10:46:59.877Z</time></trkpt><trkpt lat="42.1543867" lon="14.601275"><ele>146.83333333333334</ele><time>2026-04-19T10:47:00.877Z</time></trkpt><trkpt lat="42.1543583" lon="14.6011717"><ele>147.0</ele><time>2026-04-19T10:47:01.877Z</time></trkpt><trkpt lat="42.1543333" lon="14.60107"><ele>147.16666666666666</ele><time>2026-04-19T10:47:02.876Z</time></trkpt><trkpt lat="42.1543133" lon="14.600965"><ele>147.33333333333334</ele><time>2026-04-19T10:47:03.876Z</time></trkpt><trkpt lat="42.1542917" lon="14.6008617"><ele>147.5</ele><time>2026-04-19T10:47:04.876Z</time></trkpt><trkpt lat="42.1542667" lon="14.600755"><ele>147.66666666666669</ele><time>2026-04-19T10:47:05.876Z</time></trkpt><trkpt lat="42.154245" lon="14.6006433"><ele>147.83333333333334</ele><time>2026-04-19T10:47:06.876Z</time></trkpt><trkpt lat="42.15422" lon="14.600535"><ele>148.0</ele><time>2026-04-19T10:47:07.877Z</time></trkpt><trkpt lat="42.1541967" lon="14.60043"><ele>148.0</ele><time>2026-04-19T10:47:08.877Z</time></trkpt><trkpt lat="42.1541767" lon="14.6003233"><ele>148.0</ele><time>2026-04-19T10:47:09.876Z</time></trkpt><trkpt lat="42.15415" lon="14.6002117"><ele>148.0</ele><time>2026-04-19T10:47:10.876Z</time></trkpt><trkpt lat="42.1541267" lon="14.60011"><ele>148.0</ele><time>2026-04-19T10:47:11.877Z</time></trkpt><trkpt lat="42.1541017" lon="14.6000117"><ele>148.0</ele><time>2026-04-19T10:47:12.877Z</time></trkpt><trkpt lat="42.1540783" lon="14.5999083"><ele>148.0</ele><time>2026-04-19T10:47:13.876Z</time></trkpt><trkpt lat="42.1540533" lon="14.5997967"><ele>148.33333333333334</ele><time>2026-04-19T10:47:14.876Z</time></trkpt><trkpt lat="42.1540283" lon="14.5996867"><ele>148.66666666666669</ele><time>2026-04-19T10:47:15.876Z</time></trkpt><trkpt lat="42.154" lon="14.59958"><ele>149.0</ele><time>2026-04-19T10:47:16.877Z</time></trkpt><trkpt lat="42.1539733" lon="14.5994667"><ele>149.33333333333334</ele><time>2026-04-19T10:47:17.877Z</time></trkpt><trkpt lat="42.1539433" lon="14.5993517"><ele>149.66666666666666</ele><time>2026-04-19T10:47:18.877Z</time></trkpt><trkpt lat="42.1539167" lon="14.59924"><ele>150.0</ele><time>2026-04-19T10:47:19.877Z</time></trkpt><trkpt lat="42.15389" lon="14.5991283"><ele>150.33333333333334</ele><time>2026-04-19T10:47:20.877Z</time></trkpt><trkpt lat="42.1538667" lon="14.5990183"><ele>150.66666666666666</ele><time>2026-04-19T10:47:21.876Z</time></trkpt><trkpt lat="42.1538433" lon="14.598905"><ele>151.0</ele><time>2026-04-19T10:47:22.877Z</time></trkpt><trkpt lat="42.1538217" lon="14.5987933"><ele>151.33333333333331</ele><time>2026-04-19T10:47:23.876Z</time></trkpt><trkpt lat="42.153805" lon="14.5986833"><ele>151.66666666666666</ele><time>2026-04-19T10:47:24.876Z</time></trkpt><trkpt lat="42.153785" lon="14.5985733"><ele>152.0</ele><time>2026-04-19T10:47:25.877Z</time></trkpt><trkpt lat="42.15376" lon="14.5984617"><ele>152.33333333333331</ele><time>2026-04-19T10:47:26.877Z</time></trkpt><trkpt lat="42.15373" lon="14.5983467"><ele>152.66666666666666</ele><time>2026-04-19T10:47:27.876Z</time></trkpt><trkpt lat="42.1537067" lon="14.598235"><ele>153.0</ele><time>2026-04-19T10:47:28.876Z</time></trkpt><trkpt lat="42.153685" lon="14.5981233"><ele>153.33333333333334</ele><time>2026-04-19T10:47:29.877Z</time></trkpt><trkpt lat="42.1536567" lon="14.598015"><ele>153.66666666666669</ele><time>2026-04-19T10:47:30.876Z</time></trkpt><trkpt lat="42.1536317" lon="14.5979017"><ele>154.0</ele><time>2026-04-19T10:47:31.877Z</time></trkpt><trkpt lat="42.1536067" lon="14.59779"><ele>154.0</ele><time>2026-04-19T10:47:32.877Z</time></trkpt><trkpt lat="42.1535817" lon="14.5976817"><ele>154.0</ele><time>2026-04-19T10:47:33.876Z</time></trkpt><trkpt lat="42.1535583" lon="14.5975783"><ele>154.0</ele><time>2026-04-19T10:47:34.877Z</time></trkpt><trkpt lat="42.15354" lon="14.5974783"><ele>154.0</ele><time>2026-04-19T10:47:35.877Z</time></trkpt><trkpt lat="42.15352" lon="14.59738"><ele>154.0</ele><time>2026-04-19T10:47:36.877Z</time></trkpt><trkpt lat="42.153495" lon="14.5972767"><ele>154.0</ele><time>2026-04-19T10:47:37.876Z</time></trkpt><trkpt lat="42.1534733" lon="14.59717"><ele>154.0</ele><time>2026-04-19T10:47:38.876Z</time></trkpt><trkpt lat="42.15345" lon="14.59706"><ele>154.0</ele><time>2026-04-19T10:47:39.877Z</time></trkpt><trkpt lat="42.1534283" lon="14.59696"><ele>154.0</ele><time>2026-04-19T10:47:40.877Z</time></trkpt><trkpt lat="42.153405" lon="14.59685"><ele>154.0</ele><time>2026-04-19T10:47:41.877Z</time></trkpt><trkpt lat="42.1533767" lon="14.5967417"><ele>154.0</ele><time>2026-04-19T10:47:42.876Z</time></trkpt><trkpt lat="42.1533517" lon="14.5966383"><ele>154.0</ele><time>2026-04-19T10:47:43.877Z</time></trkpt><trkpt lat="42.153335" lon="14.5965283"><ele>154.0</ele><time>2026-04-19T10:47:44.877Z</time></trkpt><trkpt lat="42.1533117" lon="14.5964117"><ele>154.0</ele><time>2026-04-19T10:47:45.877Z</time></trkpt><trkpt lat="42.15329" lon="14.5963017"><ele>154.0</ele><time>2026-04-19T10:47:46.877Z</time></trkpt><trkpt lat="42.153265" lon="14.5961967"><ele>154.0</ele><time>2026-04-19T10:47:47.876Z</time></trkpt><trkpt lat="42.15324" lon="14.5960883"><ele>154.0</ele><time>2026-04-19T10:47:48.876Z</time></trkpt><trkpt lat="42.15322" lon="14.5959883"><ele>154.0</ele><time>2026-04-19T10:47:49.877Z</time></trkpt><trkpt lat="42.15319" lon="14.595885"><ele>154.16666666666669</ele><time>2026-04-19T10:47:50.877Z</time></trkpt><trkpt lat="42.15317" lon="14.5957833"><ele>154.33333333333334</ele><time>2026-04-19T10:47:51.877Z</time></trkpt><trkpt lat="42.153145" lon="14.595675"><ele>154.5</ele><time>2026-04-19T10:47:52.877Z</time></trkpt><trkpt lat="42.153125" lon="14.59557"><ele>154.66666666666666</ele><time>2026-04-19T10:47:53.876Z</time></trkpt><trkpt lat="42.1531017" lon="14.5954667"><ele>154.83333333333331</ele><time>2026-04-19T10:47:54.877Z</time></trkpt><trkpt lat="42.15308" lon="14.5953617"><ele>155.0</ele><time>2026-04-19T10:47:55.876Z</time></trkpt><trkpt lat="42.1530567" lon="14.595255"><ele>155.33333333333331</ele><time>2026-04-19T10:47:56.877Z</time></trkpt><trkpt lat="42.1530317" lon="14.5951517"><ele>155.66666666666666</ele><time>2026-04-19T10:47:57.877Z</time></trkpt><trkpt lat="42.1530083" lon="14.5950483"><ele>156.0</ele><time>2026-04-19T10:47:58.877Z</time></trkpt><trkpt lat="42.15299" lon="14.5949467"><ele>156.33333333333334</ele><time>2026-04-19T10:47:59.876Z</time></trkpt><trkpt lat="42.15297" lon="14.594845"><ele>156.66666666666669</ele><time>2026-04-19T10:48:00.876Z</time></trkpt><trkpt lat="42.1529467" lon="14.59475"><ele>157.0</ele><time>2026-04-19T10:48:01.877Z</time></trkpt><trkpt lat="42.1529233" lon="14.59466"><ele>156.99999999999997</ele><time>2026-04-19T10:48:02.877Z</time></trkpt><trkpt lat="42.152905" lon="14.59457"><ele>157.0</ele><time>2026-04-19T10:48:03.876Z</time></trkpt><trkpt lat="42.1528867" lon="14.5944767"><ele>157.0</ele><time>2026-04-19T10:48:04.877Z</time></trkpt><trkpt lat="42.1528667" lon="14.5943833"><ele>157.0</ele><time>2026-04-19T10:48:05.877Z</time></trkpt><trkpt lat="42.1528433" lon="14.5942883"><ele>157.0</ele><time>2026-04-19T10:48:06.876Z</time></trkpt><trkpt lat="42.152825" lon="14.594195"><ele>156.99999999999997</ele><time>2026-04-19T10:48:07.877Z</time></trkpt><trkpt lat="42.152805" lon="14.594105"><ele>157.0</ele><time>2026-04-19T10:48:08.876Z</time></trkpt><trkpt lat="42.1527883" lon="14.594015"><ele>157.14285714285714</ele><time>2026-04-19T10:48:09.876Z</time></trkpt><trkpt lat="42.1527733" lon="14.5939233"><ele>157.28571428571428</ele><time>2026-04-19T10:48:10.877Z</time></trkpt><trkpt lat="42.1527533" lon="14.5938283"><ele>157.42857142857144</ele><time>2026-04-19T10:48:11.877Z</time></trkpt><trkpt lat="42.1527267" lon="14.5937367"><ele>157.57142857142856</ele><time>2026-04-19T10:48:12.877Z</time></trkpt><trkpt lat="42.1527067" lon="14.5936383"><ele>157.71428571428572</ele><time>2026-04-19T10:48:13.876Z</time></trkpt><trkpt lat="42.1526867" lon="14.5935517"><ele>157.85714285714286</ele><time>2026-04-19T10:48:14.877Z</time></trkpt><trkpt lat="42.1526667" lon="14.5934633"><ele>158.0</ele><time>2026-04-19T10:48:15.877Z</time></trkpt><trkpt lat="42.15265" lon="14.593375"><ele>158.57142857142858</ele><time>2026-04-19T10:48:16.877Z</time></trkpt><trkpt lat="42.1526283" lon="14.5932817"><ele>159.14285714285714</ele><time>2026-04-19T10:48:17.876Z</time></trkpt><trkpt lat="42.15261" lon="14.59319"><ele>159.71428571428572</ele><time>2026-04-19T10:48:18.877Z</time></trkpt><trkpt lat="42.15259" lon="14.5931"><ele>160.28571428571428</ele><time>2026-04-19T10:48:19.877Z</time></trkpt><trkpt lat="42.152565" lon="14.5930117"><ele>160.85714285714286</ele><time>2026-04-19T10:48:20.876Z</time></trkpt><trkpt lat="42.1525483" lon="14.59292"><ele>161.42857142857144</ele><time>2026-04-19T10:48:21.877Z</time></trkpt><trkpt lat="42.15253" lon="14.5928317"><ele>162.0</ele><time>2026-04-19T10:48:22.877Z</time></trkpt><trkpt lat="42.1525117" lon="14.59274"><ele>162.5</ele><time>2026-04-19T10:48:23.877Z</time></trkpt><trkpt lat="42.1524917" lon="14.5926483"><ele>163.0</ele><time>2026-04-19T10:48:24.876Z</time></trkpt><trkpt lat="42.15247" lon="14.5925633"><ele>163.5</ele><time>2026-04-19T10:48:25.877Z</time></trkpt><trkpt lat="42.1524517" lon="14.592475"><ele>164.0</ele><time>2026-04-19T10:48:26.877Z</time></trkpt><trkpt lat="42.15243" lon="14.5923933"><ele>164.5</ele><time>2026-04-19T10:48:27.877Z</time></trkpt><trkpt lat="42.1524117" lon="14.5923083"><ele>165.0</ele><time>2026-04-19T10:48:28.877Z</time></trkpt><trkpt lat="42.15238" lon="14.5921467"><ele>164.83333333333334</ele><time>2026-04-19T10:48:30.877Z</time></trkpt><trkpt lat="42.152365" lon="14.5920633"><ele>164.66666666666666</ele><time>2026-04-19T10:48:31.876Z</time></trkpt><trkpt lat="42.1523517" lon="14.5919717"><ele>164.5</ele><time>2026-04-19T10:48:32.877Z</time></trkpt><trkpt lat="42.152335" lon="14.5918833"><ele>164.33333333333331</ele><time>2026-04-19T10:48:33.877Z</time></trkpt><trkpt lat="42.1522967" lon="14.59172"><ele>164.16666666666666</ele><time>2026-04-19T10:48:35.877Z</time></trkpt><trkpt lat="42.1522783" lon="14.591565"><ele>164.0</ele><time>2026-04-19T10:48:37.877Z</time></trkpt><trkpt lat="42.15228" lon="14.5914783"><ele>163.99999999999997</ele><time>2026-04-19T10:48:38.877Z</time></trkpt><trkpt lat="42.152275" lon="14.5913933"><ele>164.0</ele><time>2026-04-19T10:48:39.877Z</time></trkpt><trkpt lat="42.1522533" lon="14.5912883"><ele>164.0</ele><time>2026-04-19T10:48:40.877Z</time></trkpt><trkpt lat="42.1522183" lon="14.5912117"><ele>164.0</ele><time>2026-04-19T10:48:41.877Z</time></trkpt><trkpt lat="42.1521783" lon="14.5911433"><ele>164.0</ele><time>2026-04-19T10:48:42.877Z</time></trkpt><trkpt lat="42.1521367" lon="14.5910717"><ele>163.99999999999997</ele><time>2026-04-19T10:48:43.876Z</time></trkpt><trkpt lat="42.1521067" lon="14.59099"><ele>164.0</ele><time>2026-04-19T10:48:44.877Z</time></trkpt><trkpt lat="42.1520783" lon="14.59091"><ele>164.42857142857142</ele><time>2026-04-19T10:48:45.876Z</time></trkpt><trkpt lat="42.1520517" lon="14.5908217"><ele>164.85714285714286</ele><time>2026-04-19T10:48:46.877Z</time></trkpt><trkpt lat="42.1520217" lon="14.5907367"><ele>165.28571428571428</ele><time>2026-04-19T10:48:47.877Z</time></trkpt><trkpt lat="42.151995" lon="14.5906517"><ele>165.71428571428572</ele><time>2026-04-19T10:48:48.877Z</time></trkpt><trkpt lat="42.1519683" lon="14.5905583"><ele>166.14285714285714</ele><time>2026-04-19T10:48:49.877Z</time></trkpt><trkpt lat="42.1519417" lon="14.59047"><ele>166.57142857142856</ele><time>2026-04-19T10:48:50.876Z</time></trkpt><trkpt lat="42.1519167" lon="14.5903817"><ele>167.0</ele><time>2026-04-19T10:48:51.877Z</time></trkpt><trkpt lat="42.1518833" lon="14.5902933"><ele>167.42857142857142</ele><time>2026-04-19T10:48:52.877Z</time></trkpt><trkpt lat="42.1518583" lon="14.590205"><ele>167.85714285714286</ele><time>2026-04-19T10:48:53.877Z</time></trkpt><trkpt lat="42.1518333" lon="14.59012"><ele>168.28571428571428</ele><time>2026-04-19T10:48:54.877Z</time></trkpt><trkpt lat="42.1518017" lon="14.5900383"><ele>168.71428571428572</ele><time>2026-04-19T10:48:55.876Z</time></trkpt><trkpt lat="42.15178" lon="14.5899467"><ele>169.14285714285714</ele><time>2026-04-19T10:48:56.877Z</time></trkpt><trkpt lat="42.1517533" lon="14.58986"><ele>169.57142857142858</ele><time>2026-04-19T10:48:57.877Z</time></trkpt><trkpt lat="42.1517283" lon="14.5897667"><ele>170.0</ele><time>2026-04-19T10:48:58.876Z</time></trkpt><trkpt lat="42.1517017" lon="14.5896817"><ele>170.0</ele><time>2026-04-19T10:48:59.877Z</time></trkpt><trkpt lat="42.151675" lon="14.589585"><ele>170.0</ele><time>2026-04-19T10:49:00.876Z</time></trkpt><trkpt lat="42.1516533" lon="14.589495"><ele>170.0</ele><time>2026-04-19T10:49:01.877Z</time></trkpt><trkpt lat="42.1516233" lon="14.58941"><ele>170.0</ele><time>2026-04-19T10:49:02.876Z</time></trkpt><trkpt lat="42.1515933" lon="14.58932"><ele>170.0</ele><time>2026-04-19T10:49:03.877Z</time></trkpt><trkpt lat="42.1515717" lon="14.5892383"><ele>170.0</ele><time>2026-04-19T10:49:04.876Z</time></trkpt><trkpt lat="42.1515483" lon="14.5891567"><ele>170.0</ele><time>2026-04-19T10:49:05.876Z</time></trkpt><trkpt lat="42.1515117" lon="14.588985"><ele>170.5</ele><time>2026-04-19T10:49:07.877Z</time></trkpt><trkpt lat="42.1514883" lon="14.5889017"><ele>171.0</ele><time>2026-04-19T10:49:08.877Z</time></trkpt><trkpt lat="42.1514683" lon="14.588815"><ele>171.5</ele><time>2026-04-19T10:49:09.877Z</time></trkpt><trkpt lat="42.151425" lon="14.5886783"><ele>172.0</ele><time>2026-04-19T10:49:11.876Z</time></trkpt><trkpt lat="42.151375" lon="14.5885267"><ele>172.5</ele><time>2026-04-19T10:49:13.876Z</time></trkpt><trkpt lat="42.1513467" lon="14.5884467"><ele>173.0</ele><time>2026-04-19T10:49:14.877Z</time></trkpt><trkpt lat="42.1513183" lon="14.5883567"><ele>173.57142857142856</ele><time>2026-04-19T10:49:15.877Z</time></trkpt><trkpt lat="42.15129" lon="14.58827"><ele>174.14285714285717</ele><time>2026-04-19T10:49:16.877Z</time></trkpt><trkpt lat="42.151265" lon="14.5881833"><ele>174.71428571428572</ele><time>2026-04-19T10:49:17.876Z</time></trkpt><trkpt lat="42.15124" lon="14.5880917"><ele>175.28571428571428</ele><time>2026-04-19T10:49:18.877Z</time></trkpt><trkpt lat="42.1512183" lon="14.5880017"><ele>175.85714285714283</ele><time>2026-04-19T10:49:19.877Z</time></trkpt><trkpt lat="42.1511967" lon="14.5879017"><ele>176.42857142857144</ele><time>2026-04-19T10:49:20.876Z</time></trkpt><trkpt lat="42.1511617" lon="14.5878117"><ele>177.0</ele><time>2026-04-19T10:49:21.877Z</time></trkpt><trkpt lat="42.15113" lon="14.5877267"><ele>177.66666666666666</ele><time>2026-04-19T10:49:22.877Z</time></trkpt><trkpt lat="42.1511017" lon="14.587635"><ele>178.33333333333334</ele><time>2026-04-19T10:49:23.876Z</time></trkpt><trkpt lat="42.1510767" lon="14.5875467"><ele>179.0</ele><time>2026-04-19T10:49:24.877Z</time></trkpt><trkpt lat="42.1510533" lon="14.5874617"><ele>179.66666666666669</ele><time>2026-04-19T10:49:25.877Z</time></trkpt><trkpt lat="42.1510083" lon="14.5873083"><ele>180.33333333333334</ele><time>2026-04-19T10:49:27.877Z</time></trkpt><trkpt lat="42.1509833" lon="14.5872283"><ele>181.0</ele><time>2026-04-19T10:49:28.877Z</time></trkpt><trkpt lat="42.15096" lon="14.5871333"><ele>181.0</ele><time>2026-04-19T10:49:29.876Z</time></trkpt><trkpt lat="42.1509317" lon="14.58704"><ele>181.0</ele><time>2026-04-19T10:49:30.877Z</time></trkpt><trkpt lat="42.1509067" lon="14.5869517"><ele>181.0</ele><time>2026-04-19T10:49:31.877Z</time></trkpt><trkpt lat="42.1508783" lon="14.5868583"><ele>181.0</ele><time>2026-04-19T10:49:32.876Z</time></trkpt><trkpt lat="42.1508583" lon="14.586765"><ele>181.0</ele><time>2026-04-19T10:49:33.877Z</time></trkpt><trkpt lat="42.15081" lon="14.5866133"><ele>181.0</ele><time>2026-04-19T10:49:35.877Z</time></trkpt><trkpt lat="42.1507383" lon="14.58649"><ele>182.20000000000002</ele><time>2026-04-19T10:49:37.877Z</time></trkpt><trkpt lat="42.1506467" lon="14.5863783"><ele>183.4</ele><time>2026-04-19T10:49:39.877Z</time></trkpt><trkpt lat="42.1505383" lon="14.5862917"><ele>184.6</ele><time>2026-04-19T10:49:41.877Z</time></trkpt><trkpt lat="42.1504783" lon="14.5862617"><ele>185.8</ele><time>2026-04-19T10:49:42.877Z</time></trkpt><trkpt lat="42.15036" lon="14.586205"><ele>187.0</ele><time>2026-04-19T10:49:44.876Z</time></trkpt><trkpt lat="42.150245" lon="14.5861767"><ele>188.5</ele><time>2026-04-19T10:49:46.877Z</time></trkpt><trkpt lat="42.1501317" lon="14.5861567"><ele>190.0</ele><time>2026-04-19T10:49:48.877Z</time></trkpt><trkpt lat="42.1500183" lon="14.5861383"><ele>191.5</ele><time>2026-04-19T10:49:50.876Z</time></trkpt><trkpt lat="42.1499117" lon="14.5861233"><ele>193.0</ele><time>2026-04-19T10:49:52.877Z</time></trkpt><trkpt lat="42.1497917" lon="14.5860767"><ele>193.0</ele><time>2026-04-19T10:49:54.876Z</time></trkpt><trkpt lat="42.1496917" lon="14.5860133"><ele>193.0</ele><time>2026-04-19T10:49:56.876Z</time></trkpt><trkpt lat="42.149605" lon="14.5859317"><ele>193.0</ele><time>2026-04-19T10:49:58.877Z</time></trkpt><trkpt lat="42.1495233" lon="14.58586"><ele>193.0</ele><time>2026-04-19T10:50:00.877Z</time></trkpt><trkpt lat="42.14946" lon="14.585785"><ele>193.0</ele><time>2026-04-19T10:50:02.877Z</time></trkpt><trkpt lat="42.1493983" lon="14.5857117"><ele>193.0</ele><time>2026-04-19T10:50:04.877Z</time></trkpt><trkpt lat="42.149345" lon="14.5856467"><ele>193.0</ele><time>2026-04-19T10:50:06.877Z</time></trkpt><trkpt lat="42.1493033" lon="14.5855417"><ele>193.0</ele><time>2026-04-19T10:50:08.876Z</time></trkpt><trkpt lat="42.1492533" lon="14.5854433"><ele>193.0</ele><time>2026-04-19T10:50:10.877Z</time></trkpt><trkpt lat="42.1491767" lon="14.5853417"><ele>193.0</ele><time>2026-04-19T10:50:12.876Z</time></trkpt><trkpt lat="42.14912" lon="14.5852383"><ele>193.57142857142858</ele><time>2026-04-19T10:50:14.877Z</time></trkpt><trkpt lat="42.1490883" lon="14.5851483"><ele>194.14285714285714</ele><time>2026-04-19T10:50:16.876Z</time></trkpt><trkpt lat="42.1490783" lon="14.5850567"><ele>194.71428571428572</ele><time>2026-04-19T10:50:18.876Z</time></trkpt><trkpt lat="42.1491567" lon="14.585025"><ele>195.28571428571428</ele><time>2026-04-19T10:50:22.876Z</time></trkpt><trkpt lat="42.1492233" lon="14.5850717"><ele>195.85714285714286</ele><time>2026-04-19T10:50:24.876Z</time></trkpt><trkpt lat="42.1492817" lon="14.5851417"><ele>196.42857142857144</ele><time>2026-04-19T10:50:26.876Z</time></trkpt><trkpt lat="42.1493417" lon="14.585195"><ele>197.0</ele><time>2026-04-19T10:50:28.876Z</time></trkpt><trkpt lat="42.149425" lon="14.5852417"><ele>197.00000000000003</ele><time>2026-04-19T10:50:31.876Z</time></trkpt><trkpt lat="42.1494983" lon="14.5853083"><ele>197.0</ele><time>2026-04-19T10:50:34.876Z</time></trkpt><trkpt lat="42.149575" lon="14.5853267"><ele>197.0</ele><time>2026-04-19T10:50:36.875Z</time></trkpt><trkpt lat="42.1496617" lon="14.5852983"><ele>197.0</ele><time>2026-04-19T10:50:38.876Z</time></trkpt><trkpt lat="42.1497417" lon="14.5852883"><ele>197.00000000000003</ele><time>2026-04-19T10:50:41.875Z</time></trkpt><trkpt lat="42.149815" lon="14.5852567"><ele>197.0</ele><time>2026-04-19T10:50:46.876Z</time></trkpt><trkpt lat="42.1498783" lon="14.58528"><ele>205.0</ele><time>2026-04-19T10:50:50.875Z</time></trkpt><trkpt lat="42.1499817" lon="14.5852767"><ele>205.0</ele><time>2026-04-19T10:51:38.876Z</time></trkpt></trkseg></trk></gpx>